﻿<?xml version="1.0" encoding="utf-8"?><gpx creator="Garmin Desktop App" version="1.1" xsi:schemaLocation="http://www.topografix.com/GPX/1/1 http://www.topografix.com/GPX/1/1/gpx.xsd http://www.garmin.com/xmlschemas/WaypointExtension/v1 http://www8.garmin.com/xmlschemas/WaypointExtensionv1.xsd http://www.garmin.com/xmlschemas/TrackPointExtension/v1 http://www.garmin.com/xmlschemas/TrackPointExtensionv1.xsd http://www.garmin.com/xmlschemas/GpxExtensions/v3 http://www8.garmin.com/xmlschemas/GpxExtensionsv3.xsd http://www.garmin.com/xmlschemas/ActivityExtension/v1 http://www8.garmin.com/xmlschemas/ActivityExtensionv1.xsd http://www.garmin.com/xmlschemas/AdventuresExtensions/v1 http://www8.garmin.com/xmlschemas/AdventuresExtensionv1.xsd http://www.garmin.com/xmlschemas/PressureExtension/v1 http://www.garmin.com/xmlschemas/PressureExtensionv1.xsd http://www.garmin.com/xmlschemas/TripExtensions/v1 http://www.garmin.com/xmlschemas/TripExtensionsv1.xsd http://www.garmin.com/xmlschemas/TripMetaDataExtensions/v1 http://www.garmin.com/xmlschemas/TripMetaDataExtensionsv1.xsd http://www.garmin.com/xmlschemas/ViaPointTransportationModeExtensions/v1 http://www.garmin.com/xmlschemas/ViaPointTransportationModeExtensionsv1.xsd http://www.garmin.com/xmlschemas/CreationTimeExtension/v1 http://www.garmin.com/xmlschemas/CreationTimeExtensionsv1.xsd http://www.garmin.com/xmlschemas/AccelerationExtension/v1 http://www.garmin.com/xmlschemas/AccelerationExtensionv1.xsd http://www.garmin.com/xmlschemas/PowerExtension/v1 http://www.garmin.com/xmlschemas/PowerExtensionv1.xsd http://www.garmin.com/xmlschemas/VideoExtension/v1 http://www.garmin.com/xmlschemas/VideoExtensionv1.xsd" xmlns="http://www.topografix.com/GPX/1/1" xmlns:xsi="http://www.w3.org/2001/XMLSchema-instance" xmlns:wptx1="http://www.garmin.com/xmlschemas/WaypointExtension/v1" xmlns:gpxtrx="http://www.garmin.com/xmlschemas/GpxExtensions/v3" xmlns:gpxtpx="http://www.garmin.com/xmlschemas/TrackPointExtension/v1" xmlns:gpxx="http://www.garmin.com/xmlschemas/GpxExtensions/v3" xmlns:trp="http://www.garmin.com/xmlschemas/TripExtensions/v1" xmlns:adv="http://www.garmin.com/xmlschemas/AdventuresExtensions/v1" xmlns:prs="http://www.garmin.com/xmlschemas/PressureExtension/v1" xmlns:tmd="http://www.garmin.com/xmlschemas/TripMetaDataExtensions/v1" xmlns:vptm="http://www.garmin.com/xmlschemas/ViaPointTransportationModeExtensions/v1" xmlns:ctx="http://www.garmin.com/xmlschemas/CreationTimeExtension/v1" xmlns:gpxacc="http://www.garmin.com/xmlschemas/AccelerationExtension/v1" xmlns:gpxpx="http://www.garmin.com/xmlschemas/PowerExtension/v1" xmlns:vidx1="http://www.garmin.com/xmlschemas/VideoExtension/v1">

  <metadata>
    <link href="http://www.garmin.com">
      <text>Garmin International</text>
    </link>
    <time>2021-02-13T12:31:02Z</time>
    <bounds maxlat="46.058481317013502" maxlon="7.117258217185736" minlat="45.721576670184731" minlon="6.706560216844082" />
  </metadata>

  <trk>
    <name>1tmb2014-07-12</name>
    <extensions>
      <gpxx:TrackExtension>
        <gpxx:DisplayColor>Yellow</gpxx:DisplayColor>
      </gpxx:TrackExtension>
    </extensions>
    <trkseg>
      <trkpt lat="45.8708072360605" lon="7.050391333177686">
        <ele>1773.29</ele>
        <time>2014-07-12T07:32:46Z</time>
      </trkpt>
      <trkpt lat="45.870810002088547" lon="7.050401140004396">
        <ele>1773.29</ele>
        <time>2014-07-12T07:32:47Z</time>
      </trkpt>
      <trkpt lat="45.870822491124272" lon="7.05043944530189">
        <ele>1771.3699999999999</ele>
        <time>2014-07-12T07:32:51Z</time>
      </trkpt>
      <trkpt lat="45.870841266587377" lon="7.050488227978349">
        <ele>1771.8499999999999</ele>
        <time>2014-07-12T07:32:55Z</time>
      </trkpt>
      <trkpt lat="45.870905974879861" lon="7.050596019253135">
        <ele>1771.8499999999999</ele>
        <time>2014-07-12T07:33:06Z</time>
      </trkpt>
      <trkpt lat="45.871017621830106" lon="7.050726190209389">
        <ele>1772.3299999999999</ele>
        <time>2014-07-12T07:33:18Z</time>
      </trkpt>
      <trkpt lat="45.871194647625089" lon="7.050886116921902">
        <ele>1772.8099999999999</ele>
        <time>2014-07-12T07:33:36Z</time>
      </trkpt>
      <trkpt lat="45.871328003704548" lon="7.051033638417721">
        <ele>1773.29</ele>
        <time>2014-07-12T07:33:49Z</time>
      </trkpt>
      <trkpt lat="45.871391203254461" lon="7.051226003095508">
        <ele>1773.77</ele>
        <time>2014-07-12T07:34:03Z</time>
      </trkpt>
      <trkpt lat="45.871503772214055" lon="7.051507383584976">
        <ele>1773.77</ele>
        <time>2014-07-12T07:34:20Z</time>
      </trkpt>
      <trkpt lat="45.871608043089509" lon="7.051660353317857">
        <ele>1775.21</ele>
        <time>2014-07-12T07:34:35Z</time>
      </trkpt>
      <trkpt lat="45.87165062315762" lon="7.051824806258082">
        <ele>1774.25</ele>
        <time>2014-07-12T07:34:46Z</time>
      </trkpt>
      <trkpt lat="45.871668308973312" lon="7.05193804576993">
        <ele>1774.25</ele>
        <time>2014-07-12T07:35:01Z</time>
      </trkpt>
      <trkpt lat="45.871679624542594" lon="7.051939219236374">
        <ele>1774.25</ele>
        <time>2014-07-12T07:35:02Z</time>
      </trkpt>
      <trkpt lat="45.871705189347267" lon="7.051994623616338">
        <ele>1774.25</ele>
        <time>2014-07-12T07:35:13Z</time>
      </trkpt>
      <trkpt lat="45.871695214882493" lon="7.052013147622347">
        <ele>1774.25</ele>
        <time>2014-07-12T07:35:22Z</time>
      </trkpt>
      <trkpt lat="45.871641151607037" lon="7.052184222266078">
        <ele>1775.21</ele>
        <time>2014-07-12T07:35:36Z</time>
      </trkpt>
      <trkpt lat="45.87168674916029" lon="7.052478594705463">
        <ele>1775.21</ele>
        <time>2014-07-12T07:35:53Z</time>
      </trkpt>
      <trkpt lat="45.871702004224062" lon="7.052606083452702">
        <ele>1775.6900000000001</ele>
        <time>2014-07-12T07:36:03Z</time>
      </trkpt>
      <trkpt lat="45.871703764423728" lon="7.052670791745186">
        <ele>1775.6900000000001</ele>
        <time>2014-07-12T07:36:07Z</time>
      </trkpt>
      <trkpt lat="45.871773418039083" lon="7.052942281588912">
        <ele>1775.6900000000001</ele>
        <time>2014-07-12T07:36:25Z</time>
      </trkpt>
      <trkpt lat="45.871793869882822" lon="7.053013360127807">
        <ele>1775.6900000000001</ele>
        <time>2014-07-12T07:36:30Z</time>
      </trkpt>
      <trkpt lat="45.871811639517546" lon="7.053043199703097">
        <ele>1776.1700000000001</ele>
        <time>2014-07-12T07:36:32Z</time>
      </trkpt>
      <trkpt lat="45.87191984988749" lon="7.053318377584219">
        <ele>1776.6500000000001</ele>
        <time>2014-07-12T07:36:49Z</time>
      </trkpt>
      <trkpt lat="45.872014397755265" lon="7.053536809980869">
        <ele>1777.1300000000001</ele>
        <time>2014-07-12T07:37:04Z</time>
      </trkpt>
      <trkpt lat="45.872104754671454" lon="7.053738478571177">
        <ele>1778.0999999999999</ele>
        <time>2014-07-12T07:37:19Z</time>
      </trkpt>
      <trkpt lat="45.872201984748244" lon="7.053937884047627">
        <ele>1777.6099999999999</ele>
        <time>2014-07-12T07:37:35Z</time>
      </trkpt>
      <trkpt lat="45.872208187356591" lon="7.053967472165823">
        <ele>1777.1300000000001</ele>
        <time>2014-07-12T07:37:37Z</time>
      </trkpt>
      <trkpt lat="45.872341124340892" lon="7.054236782714725">
        <ele>1778.5799999999999</ele>
        <time>2014-07-12T07:37:57Z</time>
      </trkpt>
      <trkpt lat="45.872421087697148" lon="7.054451359435916">
        <ele>1779.0599999999999</ele>
        <time>2014-07-12T07:38:14Z</time>
      </trkpt>
      <trkpt lat="45.872532315552235" lon="7.054620338603854">
        <ele>1779.54</ele>
        <time>2014-07-12T07:38:28Z</time>
      </trkpt>
      <trkpt lat="45.87259953841567" lon="7.054704325273633">
        <ele>1779.0599999999999</ele>
        <time>2014-07-12T07:38:36Z</time>
      </trkpt>
      <trkpt lat="45.872627031058073" lon="7.054727459326387">
        <ele>1779.0599999999999</ele>
        <time>2014-07-12T07:38:39Z</time>
      </trkpt>
      <trkpt lat="45.872660139575601" lon="7.054796107113361">
        <ele>1778.5799999999999</ele>
        <time>2014-07-12T07:38:54Z</time>
      </trkpt>
      <trkpt lat="45.872650919482112" lon="7.054822761565447">
        <ele>1779.0599999999999</ele>
        <time>2014-07-12T07:39:06Z</time>
      </trkpt>
      <trkpt lat="45.87269626557827" lon="7.054854780435562">
        <ele>1779.0599999999999</ele>
        <time>2014-07-12T07:39:24Z</time>
      </trkpt>
      <trkpt lat="45.872848145663738" lon="7.054954022169113">
        <ele>1780.02</ele>
        <time>2014-07-12T07:39:39Z</time>
      </trkpt>
      <trkpt lat="45.872981501743197" lon="7.055027112364769">
        <ele>1780.02</ele>
        <time>2014-07-12T07:39:55Z</time>
      </trkpt>
      <trkpt lat="45.873085856437683" lon="7.055098945274949">
        <ele>1780.5</ele>
        <time>2014-07-12T07:40:07Z</time>
      </trkpt>
      <trkpt lat="45.873158359900117" lon="7.055161222815514">
        <ele>1781.46</ele>
        <time>2014-07-12T07:40:19Z</time>
      </trkpt>
      <trkpt lat="45.873329769819975" lon="7.055232804268599">
        <ele>1781.46</ele>
        <time>2014-07-12T07:40:34Z</time>
      </trkpt>
      <trkpt lat="45.8734424225986" lon="7.055273037403822">
        <ele>1782.4200000000001</ele>
        <time>2014-07-12T07:40:49Z</time>
      </trkpt>
      <trkpt lat="45.87364861741662" lon="7.055365825071931">
        <ele>1783.3800000000001</ele>
        <time>2014-07-12T07:41:07Z</time>
      </trkpt>
      <trkpt lat="45.873821452260017" lon="7.055433969944716">
        <ele>1784.3399999999999</ele>
        <time>2014-07-12T07:41:22Z</time>
      </trkpt>
      <trkpt lat="45.873991437256336" lon="7.055491385981441">
        <ele>1785.3099999999999</ele>
        <time>2014-07-12T07:41:37Z</time>
      </trkpt>
      <trkpt lat="45.874152453616261" lon="7.055583586916328">
        <ele>1785.3099999999999</ele>
        <time>2014-07-12T07:41:52Z</time>
      </trkpt>
      <trkpt lat="45.874298131093383" lon="7.05566774122417">
        <ele>1786.75</ele>
        <time>2014-07-12T07:42:07Z</time>
      </trkpt>
      <trkpt lat="45.874396869912744" lon="7.055685762315989">
        <ele>1787.71</ele>
        <time>2014-07-12T07:42:18Z</time>
      </trkpt>
      <trkpt lat="45.874500554054976" lon="7.055601859465241">
        <ele>1788.1900000000001</ele>
        <time>2014-07-12T07:42:30Z</time>
      </trkpt>
      <trkpt lat="45.874557634815574" lon="7.055542431771755">
        <ele>1788.1900000000001</ele>
        <time>2014-07-12T07:42:36Z</time>
      </trkpt>
      <trkpt lat="45.874604992568493" lon="7.055544527247548">
        <ele>1788.1900000000001</ele>
        <time>2014-07-12T07:42:40Z</time>
      </trkpt>
      <trkpt lat="45.874661235138774" lon="7.055579479783773">
        <ele>1788.1900000000001</ele>
        <time>2014-07-12T07:42:45Z</time>
      </trkpt>
      <trkpt lat="45.874707754701376" lon="7.055658185854554">
        <ele>1788.6700000000001</ele>
        <time>2014-07-12T07:42:52Z</time>
      </trkpt>
      <trkpt lat="45.874756453558803" lon="7.055866811424494">
        <ele>1789.6300000000001</ele>
        <time>2014-07-12T07:43:07Z</time>
      </trkpt>
      <trkpt lat="45.874788723886013" lon="7.056092116981745">
        <ele>1792.52</ele>
        <time>2014-07-12T07:43:25Z</time>
      </trkpt>
      <trkpt lat="45.874792411923409" lon="7.056107204407454">
        <ele>1792.52</ele>
        <time>2014-07-12T07:43:26Z</time>
      </trkpt>
      <trkpt lat="45.874908333644271" lon="7.056251121684909">
        <ele>1794.4400000000001</ele>
        <time>2014-07-12T07:43:43Z</time>
      </trkpt>
      <trkpt lat="45.875024003908038" lon="7.05636989325285">
        <ele>1796.8399999999999</ele>
        <time>2014-07-12T07:43:58Z</time>
      </trkpt>
      <trkpt lat="45.87512475438416" lon="7.056462345644832">
        <ele>1798.76</ele>
        <time>2014-07-12T07:44:12Z</time>
      </trkpt>
      <trkpt lat="45.875235227867961" lon="7.056545242667198">
        <ele>1800.6900000000001</ele>
        <time>2014-07-12T07:44:26Z</time>
      </trkpt>
      <trkpt lat="45.875244699418545" lon="7.056553792208433">
        <ele>1800.6900000000001</ele>
        <time>2014-07-12T07:44:27Z</time>
      </trkpt>
      <trkpt lat="45.875261882320046" lon="7.056570639833808">
        <ele>1801.1700000000001</ele>
        <time>2014-07-12T07:44:29Z</time>
      </trkpt>
      <trkpt lat="45.875371349975467" lon="7.056657811626792">
        <ele>1802.6099999999999</ele>
        <time>2014-07-12T07:44:43Z</time>
      </trkpt>
      <trkpt lat="45.87549758143723" lon="7.056784713640809">
        <ele>1805.49</ele>
        <time>2014-07-12T07:44:59Z</time>
      </trkpt>
      <trkpt lat="45.875620292499661" lon="7.056881608441472">
        <ele>1807.4200000000001</ele>
        <time>2014-07-12T07:45:15Z</time>
      </trkpt>
      <trkpt lat="45.875725904479623" lon="7.056950842961669">
        <ele>1808.8599999999999</ele>
        <time>2014-07-12T07:45:29Z</time>
      </trkpt>
      <trkpt lat="45.875849621370435" lon="7.057039691135287">
        <ele>1811.26</ele>
        <time>2014-07-12T07:45:45Z</time>
      </trkpt>
      <trkpt lat="45.875964453443885" lon="7.057116972282529">
        <ele>1813.1800000000001</ele>
        <time>2014-07-12T07:46:00Z</time>
      </trkpt>
      <trkpt lat="45.876069227233529" lon="7.057182099670172">
        <ele>1814.6300000000001</ele>
        <time>2014-07-12T07:46:15Z</time>
      </trkpt>
      <trkpt lat="45.876186406239867" lon="7.057229122146964">
        <ele>1816.55</ele>
        <time>2014-07-12T07:46:30Z</time>
      </trkpt>
      <trkpt lat="45.876277098432183" lon="7.057298356667161">
        <ele>1818.47</ele>
        <time>2014-07-12T07:46:42Z</time>
      </trkpt>
      <trkpt lat="45.876280702650547" lon="7.057293495163322">
        <ele>1818.47</ele>
        <time>2014-07-12T07:46:43Z</time>
      </trkpt>
      <trkpt lat="45.876416908577085" lon="7.057403549551964">
        <ele>1820.3900000000001</ele>
        <time>2014-07-12T07:47:00Z</time>
      </trkpt>
      <trkpt lat="45.876537691801786" lon="7.057497510686517">
        <ele>1823.28</ele>
        <time>2014-07-12T07:47:16Z</time>
      </trkpt>
      <trkpt lat="45.876615978777409" lon="7.057552747428417">
        <ele>1824.72</ele>
        <time>2014-07-12T07:47:26Z</time>
      </trkpt>
      <trkpt lat="45.876708598807454" lon="7.057652072981">
        <ele>1825.6800000000001</ele>
        <time>2014-07-12T07:47:40Z</time>
      </trkpt>
      <trkpt lat="45.876806750893593" lon="7.0577556733042">
        <ele>1827.1199999999999</ele>
        <time>2014-07-12T07:47:54Z</time>
      </trkpt>
      <trkpt lat="45.876916218549013" lon="7.057883078232408">
        <ele>1829.53</ele>
        <time>2014-07-12T07:48:10Z</time>
      </trkpt>
      <trkpt lat="45.877028703689575" lon="7.057966561987996">
        <ele>1831.45</ele>
        <time>2014-07-12T07:48:25Z</time>
      </trkpt>
      <trkpt lat="45.877165663987398" lon="7.058077454566956">
        <ele>1834.3299999999999</ele>
        <time>2014-07-12T07:48:42Z</time>
      </trkpt>
      <trkpt lat="45.877269431948662" lon="7.058166470378637">
        <ele>1835.29</ele>
        <time>2014-07-12T07:48:56Z</time>
      </trkpt>
      <trkpt lat="45.877394741401076" lon="7.058279206976295">
        <ele>1837.22</ele>
        <time>2014-07-12T07:49:13Z</time>
      </trkpt>
      <trkpt lat="45.877406224608421" lon="7.058297479525209">
        <ele>1837.22</ele>
        <time>2014-07-12T07:49:15Z</time>
      </trkpt>
      <trkpt lat="45.877493731677532" lon="7.05838842317462">
        <ele>1838.6600000000001</ele>
        <time>2014-07-12T07:49:26Z</time>
      </trkpt>
      <trkpt lat="45.877612503245473" lon="7.058409713208675">
        <ele>1841.0599999999999</ele>
        <time>2014-07-12T07:49:43Z</time>
      </trkpt>
      <trkpt lat="45.877736220136285" lon="7.058489173650742">
        <ele>1842.98</ele>
        <time>2014-07-12T07:49:57Z</time>
      </trkpt>
      <trkpt lat="45.877853650599718" lon="7.058521946892142">
        <ele>1845.3900000000001</ele>
        <time>2014-07-12T07:50:11Z</time>
      </trkpt>
      <trkpt lat="45.877987677231431" lon="7.058578357100487">
        <ele>1847.79</ele>
        <time>2014-07-12T07:50:27Z</time>
      </trkpt>
      <trkpt lat="45.878117680549622" lon="7.058640634641051">
        <ele>1849.71</ele>
        <time>2014-07-12T07:50:43Z</time>
      </trkpt>
      <trkpt lat="45.878248773515224" lon="7.058710204437375">
        <ele>1851.1600000000001</ele>
        <time>2014-07-12T07:50:58Z</time>
      </trkpt>
      <trkpt lat="45.878372490406036" lon="7.058780360966921">
        <ele>1853.0799999999999</ele>
        <time>2014-07-12T07:51:13Z</time>
      </trkpt>
      <trkpt lat="45.878439713269472" lon="7.058822186663747">
        <ele>1855</ele>
        <time>2014-07-12T07:51:22Z</time>
      </trkpt>
      <trkpt lat="45.878574745729566" lon="7.058916818350554">
        <ele>1856.4400000000001</ele>
        <time>2014-07-12T07:51:39Z</time>
      </trkpt>
      <trkpt lat="45.878691505640745" lon="7.059024190530181">
        <ele>1858.8499999999999</ele>
        <time>2014-07-12T07:51:54Z</time>
      </trkpt>
      <trkpt lat="45.878697708249092" lon="7.059033494442701">
        <ele>1858.8499999999999</ele>
        <time>2014-07-12T07:51:55Z</time>
      </trkpt>
      <trkpt lat="45.878786891698837" lon="7.059215381741524">
        <ele>1860.29</ele>
        <time>2014-07-12T07:52:10Z</time>
      </trkpt>
      <trkpt lat="45.878850007429719" lon="7.059340942651033">
        <ele>1860.29</ele>
        <time>2014-07-12T07:52:24Z</time>
      </trkpt>
      <trkpt lat="45.878914212808013" lon="7.059451667591929">
        <ele>1860.77</ele>
        <time>2014-07-12T07:52:37Z</time>
      </trkpt>
      <trkpt lat="45.878968276083469" lon="7.059550741687417">
        <ele>1863.1700000000001</ele>
        <time>2014-07-12T07:52:52Z</time>
      </trkpt>
      <trkpt lat="45.879024099558592" lon="7.059661131352186">
        <ele>1866.0599999999999</ele>
        <time>2014-07-12T07:53:07Z</time>
      </trkpt>
      <trkpt lat="45.879059722647071" lon="7.059747716411948">
        <ele>1868.9400000000001</ele>
        <time>2014-07-12T07:53:22Z</time>
      </trkpt>
      <trkpt lat="45.879074977710843" lon="7.059793649241328">
        <ele>1870.3800000000001</ele>
        <time>2014-07-12T07:53:30Z</time>
      </trkpt>
      <trkpt lat="45.879167513921857" lon="7.059831619262695">
        <ele>1870.8599999999999</ele>
        <time>2014-07-12T07:53:43Z</time>
      </trkpt>
      <trkpt lat="45.879226857796311" lon="7.059959024190903">
        <ele>1873.75</ele>
        <time>2014-07-12T07:54:00Z</time>
      </trkpt>
      <trkpt lat="45.879252506420016" lon="7.059983918443322">
        <ele>1874.71</ele>
        <time>2014-07-12T07:54:04Z</time>
      </trkpt>
      <trkpt lat="45.87930740788579" lon="7.060013506561518">
        <ele>1876.1500000000001</ele>
        <time>2014-07-12T07:54:21Z</time>
      </trkpt>
      <trkpt lat="45.879337331280112" lon="7.060084249824286">
        <ele>1878.0699999999999</ele>
        <time>2014-07-12T07:54:32Z</time>
      </trkpt>
      <trkpt lat="45.879415366798639" lon="7.060131942853332">
        <ele>1880</ele>
        <time>2014-07-12T07:54:46Z</time>
      </trkpt>
      <trkpt lat="45.879504131153226" lon="7.060195058584213">
        <ele>1881.9200000000001</ele>
        <time>2014-07-12T07:55:00Z</time>
      </trkpt>
      <trkpt lat="45.879564061760902" lon="7.060306202620268">
        <ele>1883.8399999999999</ele>
        <time>2014-07-12T07:55:15Z</time>
      </trkpt>
      <trkpt lat="45.87958786636591" lon="7.060329169034958">
        <ele>1884.8</ele>
        <time>2014-07-12T07:55:20Z</time>
      </trkpt>
      <trkpt lat="45.879665063694119" lon="7.060410557314754">
        <ele>1886.72</ele>
        <time>2014-07-12T07:55:34Z</time>
      </trkpt>
      <trkpt lat="45.879662297666073" lon="7.060538465157151">
        <ele>1887.21</ele>
        <time>2014-07-12T07:55:46Z</time>
      </trkpt>
      <trkpt lat="45.879626590758562" lon="7.060596635565162">
        <ele>1889.6099999999999</ele>
        <time>2014-07-12T07:55:57Z</time>
      </trkpt>
      <trkpt lat="45.879716696217656" lon="7.060716161504388">
        <ele>1890.5699999999999</ele>
        <time>2014-07-12T07:56:12Z</time>
      </trkpt>
      <trkpt lat="45.879778889939189" lon="7.060794113203883">
        <ele>1891.53</ele>
        <time>2014-07-12T07:56:31Z</time>
      </trkpt>
      <trkpt lat="45.879842173308134" lon="7.060869634151459">
        <ele>1892.49</ele>
        <time>2014-07-12T07:56:47Z</time>
      </trkpt>
      <trkpt lat="45.879860864952207" lon="7.060879860073328">
        <ele>1892.97</ele>
        <time>2014-07-12T07:56:50Z</time>
      </trkpt>
      <trkpt lat="45.879848627373576" lon="7.060808446258307">
        <ele>1892.97</ele>
        <time>2014-07-12T07:57:07Z</time>
      </trkpt>
      <trkpt lat="45.879889614880085" lon="7.060841219499707">
        <ele>1892.49</ele>
        <time>2014-07-12T07:57:20Z</time>
      </trkpt>
      <trkpt lat="45.880021210759878" lon="7.061001481488347">
        <ele>1895.3800000000001</ele>
        <time>2014-07-12T07:57:40Z</time>
      </trkpt>
      <trkpt lat="45.880055408924818" lon="7.061033416539431">
        <ele>1896.8199999999999</ele>
        <time>2014-07-12T07:57:53Z</time>
      </trkpt>
      <trkpt lat="45.880206450819969" lon="7.061136262491345">
        <ele>1899.22</ele>
        <time>2014-07-12T07:58:09Z</time>
      </trkpt>
      <trkpt lat="45.880349949002266" lon="7.06127230077982">
        <ele>1901.6300000000001</ele>
        <time>2014-07-12T07:58:25Z</time>
      </trkpt>
      <trkpt lat="45.880458494648337" lon="7.061363495886326">
        <ele>1903.0699999999999</ele>
        <time>2014-07-12T07:58:40Z</time>
      </trkpt>
      <trkpt lat="45.880569806322455" lon="7.061415128409863">
        <ele>1906.4300000000001</ele>
        <time>2014-07-12T07:58:56Z</time>
      </trkpt>
      <trkpt lat="45.880715232342482" lon="7.061502384021878">
        <ele>1907.8699999999999</ele>
        <time>2014-07-12T07:59:12Z</time>
      </trkpt>
      <trkpt lat="45.880851941183209" lon="7.061599781736732">
        <ele>1909.8</ele>
        <time>2014-07-12T07:59:29Z</time>
      </trkpt>
      <trkpt lat="45.880960403010249" lon="7.061679912731051">
        <ele>1912.6800000000001</ele>
        <time>2014-07-12T07:59:44Z</time>
      </trkpt>
      <trkpt lat="45.88108453899622" lon="7.061742609366775">
        <ele>1914.1199999999999</ele>
        <time>2014-07-12T08:00:01Z</time>
      </trkpt>
      <trkpt lat="45.881224684417248" lon="7.06179172731936">
        <ele>1916.04</ele>
        <time>2014-07-12T08:00:16Z</time>
      </trkpt>
      <trkpt lat="45.88132350705564" lon="7.061849730089307">
        <ele>1917.97</ele>
        <time>2014-07-12T08:00:28Z</time>
      </trkpt>
      <trkpt lat="45.881450409069657" lon="7.061913767829537">
        <ele>1919.8900000000001</ele>
        <time>2014-07-12T08:00:43Z</time>
      </trkpt>
      <trkpt lat="45.881555434316397" lon="7.061949642375112">
        <ele>1921.8099999999999</ele>
        <time>2014-07-12T08:00:57Z</time>
      </trkpt>
      <trkpt lat="45.881689209491014" lon="7.061957689002156">
        <ele>1924.22</ele>
        <time>2014-07-12T08:01:11Z</time>
      </trkpt>
      <trkpt lat="45.881851650774479" lon="7.062056260183454">
        <ele>1925.6600000000001</ele>
        <time>2014-07-12T08:01:28Z</time>
      </trkpt>
      <trkpt lat="45.881987102329731" lon="7.062137648463249">
        <ele>1927.5799999999999</ele>
        <time>2014-07-12T08:01:44Z</time>
      </trkpt>
      <trkpt lat="45.882124314084649" lon="7.062143180519342">
        <ele>1929.98</ele>
        <time>2014-07-12T08:01:59Z</time>
      </trkpt>
      <trkpt lat="45.882262447848916" lon="7.062179474160075">
        <ele>1931.9100000000001</ele>
        <time>2014-07-12T08:02:15Z</time>
      </trkpt>
      <trkpt lat="45.882409634068608" lon="7.062279805541039">
        <ele>1933.3499999999999</ele>
        <time>2014-07-12T08:02:32Z</time>
      </trkpt>
      <trkpt lat="45.882527567446232" lon="7.062340406700969">
        <ele>1935.75</ele>
        <time>2014-07-12T08:02:45Z</time>
      </trkpt>
      <trkpt lat="45.882660169154406" lon="7.062390279024839">
        <ele>1937.6700000000001</ele>
        <time>2014-07-12T08:03:01Z</time>
      </trkpt>
      <trkpt lat="45.882779024541378" lon="7.062422968447208">
        <ele>1939.5999999999999</ele>
        <time>2014-07-12T08:03:15Z</time>
      </trkpt>
      <trkpt lat="45.882900562137365" lon="7.062452221289277">
        <ele>1942.48</ele>
        <time>2014-07-12T08:03:28Z</time>
      </trkpt>
      <trkpt lat="45.883052526041865" lon="7.062469571828842">
        <ele>1944.4000000000001</ele>
        <time>2014-07-12T08:03:45Z</time>
      </trkpt>
      <trkpt lat="45.883204825222492" lon="7.062481977045536">
        <ele>1945.8499999999999</ele>
        <time>2014-07-12T08:04:02Z</time>
      </trkpt>
      <trkpt lat="45.883309682831168" lon="7.062481055036187">
        <ele>1947.29</ele>
        <time>2014-07-12T08:04:12Z</time>
      </trkpt>
      <trkpt lat="45.883465083315969" lon="7.062532100826502">
        <ele>1948.73</ele>
        <time>2014-07-12T08:04:28Z</time>
      </trkpt>
      <trkpt lat="45.883486960083246" lon="7.062533441931009">
        <ele>1949.21</ele>
        <time>2014-07-12T08:04:30Z</time>
      </trkpt>
      <trkpt lat="45.883619980886579" lon="7.062632599845529">
        <ele>1952.0899999999999</ele>
        <time>2014-07-12T08:04:47Z</time>
      </trkpt>
      <trkpt lat="45.883739423006773" lon="7.062737122178078">
        <ele>1954.5</ele>
        <time>2014-07-12T08:05:05Z</time>
      </trkpt>
      <trkpt lat="45.883747469633818" lon="7.062743324786425">
        <ele>1954.5</ele>
        <time>2014-07-12T08:05:06Z</time>
      </trkpt>
      <trkpt lat="45.883850818499923" lon="7.062825383618474">
        <ele>1956.4200000000001</ele>
        <time>2014-07-12T08:05:21Z</time>
      </trkpt>
      <trkpt lat="45.883971266448498" lon="7.062922026962042">
        <ele>1958.8199999999999</ele>
        <time>2014-07-12T08:05:39Z</time>
      </trkpt>
      <trkpt lat="45.884078973904252" lon="7.062995033338666">
        <ele>1960.75</ele>
        <time>2014-07-12T08:05:55Z</time>
      </trkpt>
      <trkpt lat="45.884180646389723" lon="7.06305580213666">
        <ele>1963.1500000000001</ele>
        <time>2014-07-12T08:06:10Z</time>
      </trkpt>
      <trkpt lat="45.884285839274526" lon="7.063135262578726">
        <ele>1965.55</ele>
        <time>2014-07-12T08:06:25Z</time>
      </trkpt>
      <trkpt lat="45.884324815124273" lon="7.063137190416455">
        <ele>1966.99</ele>
        <time>2014-07-12T08:06:38Z</time>
      </trkpt>
      <trkpt lat="45.884356582537293" lon="7.063163509592414">
        <ele>1966.03</ele>
        <time>2014-07-12T08:07:02Z</time>
      </trkpt>
      <trkpt lat="45.884392792358994" lon="7.063238611444831">
        <ele>1966.99</ele>
        <time>2014-07-12T08:07:18Z</time>
      </trkpt>
      <trkpt lat="45.884394384920597" lon="7.063280269503593">
        <ele>1967.48</ele>
        <time>2014-07-12T08:07:44Z</time>
      </trkpt>
      <trkpt lat="45.884485160931945" lon="7.063442543148994">
        <ele>1969.4000000000001</ele>
        <time>2014-07-12T08:07:59Z</time>
      </trkpt>
      <trkpt lat="45.88457141071558" lon="7.0636045653373">
        <ele>1971.3199999999999</ele>
        <time>2014-07-12T08:08:15Z</time>
      </trkpt>
      <trkpt lat="45.884679453447461" lon="7.063755774870515">
        <ele>1974.2</ele>
        <time>2014-07-12T08:08:32Z</time>
      </trkpt>
      <trkpt lat="45.884774336591363" lon="7.063902290537953">
        <ele>1975.6500000000001</ele>
        <time>2014-07-12T08:08:48Z</time>
      </trkpt>
      <trkpt lat="45.88484893552959" lon="7.064022989943624">
        <ele>1976.6099999999999</ele>
        <time>2014-07-12T08:09:00Z</time>
      </trkpt>
      <trkpt lat="45.88494130410254" lon="7.06414888612926">
        <ele>1978.53</ele>
        <time>2014-07-12T08:09:16Z</time>
      </trkpt>
      <trkpt lat="45.885035013779998" lon="7.06425785087049">
        <ele>1979.97</ele>
        <time>2014-07-12T08:09:31Z</time>
      </trkpt>
      <trkpt lat="45.885147415101528" lon="7.064402773976326">
        <ele>1982.8599999999999</ele>
        <time>2014-07-12T08:09:48Z</time>
      </trkpt>
      <trkpt lat="45.885172728449106" lon="7.064425824210048">
        <ele>1983.3399999999999</ele>
        <time>2014-07-12T08:09:51Z</time>
      </trkpt>
      <trkpt lat="45.8852818608284" lon="7.064575608819723">
        <ele>1984.78</ele>
        <time>2014-07-12T08:10:08Z</time>
      </trkpt>
      <trkpt lat="45.88539476506412" lon="7.06469957716763">
        <ele>1986.22</ele>
        <time>2014-07-12T08:10:24Z</time>
      </trkpt>
      <trkpt lat="45.885538849979639" lon="7.064810134470463">
        <ele>1988.6199999999999</ele>
        <time>2014-07-12T08:10:41Z</time>
      </trkpt>
      <trkpt lat="45.885672708973289" lon="7.064897725358605">
        <ele>1990.0699999999999</ele>
        <time>2014-07-12T08:10:57Z</time>
      </trkpt>
      <trkpt lat="45.885835317894816" lon="7.064972156658769">
        <ele>1991.99</ele>
        <time>2014-07-12T08:11:15Z</time>
      </trkpt>
      <trkpt lat="45.885988119989634" lon="7.065073912963271">
        <ele>1993.9100000000001</ele>
        <time>2014-07-12T08:11:32Z</time>
      </trkpt>
      <trkpt lat="45.886119129136205" lon="7.06510417163372">
        <ele>1995.8299999999999</ele>
        <time>2014-07-12T08:11:47Z</time>
      </trkpt>
      <trkpt lat="45.886274110525846" lon="7.06514616496861">
        <ele>1997.28</ele>
        <time>2014-07-12T08:12:05Z</time>
      </trkpt>
      <trkpt lat="45.886287270113826" lon="7.065231241285801">
        <ele>1999.6800000000001</ele>
        <time>2014-07-12T08:12:17Z</time>
      </trkpt>
      <trkpt lat="45.886320462450385" lon="7.065342217683792">
        <ele>2001.5999999999999</ele>
        <time>2014-07-12T08:12:30Z</time>
      </trkpt>
      <trkpt lat="45.886360527947545" lon="7.065429054200649">
        <ele>2004.49</ele>
        <time>2014-07-12T08:12:44Z</time>
      </trkpt>
      <trkpt lat="45.886381063610315" lon="7.065453277900815">
        <ele>2005.9300000000001</ele>
        <time>2014-07-12T08:12:51Z</time>
      </trkpt>
      <trkpt lat="45.88640964590013" lon="7.065493678674102">
        <ele>2007.3699999999999</ele>
        <time>2014-07-12T08:13:03Z</time>
      </trkpt>
      <trkpt lat="45.886446610093117" lon="7.065616808831692">
        <ele>2010.73</ele>
        <time>2014-07-12T08:13:18Z</time>
      </trkpt>
      <trkpt lat="45.886476617306471" lon="7.065738933160901">
        <ele>2012.1800000000001</ele>
        <time>2014-07-12T08:13:34Z</time>
      </trkpt>
      <trkpt lat="45.886491201817989" lon="7.06581168808043">
        <ele>2014.5799999999999</ele>
        <time>2014-07-12T08:13:48Z</time>
      </trkpt>
      <trkpt lat="45.886497739702463" lon="7.065908079966903">
        <ele>2016.5</ele>
        <time>2014-07-12T08:14:01Z</time>
      </trkpt>
      <trkpt lat="45.88656454347074" lon="7.065996173769236">
        <ele>2017.9400000000001</ele>
        <time>2014-07-12T08:14:15Z</time>
      </trkpt>
      <trkpt lat="45.886623049154878" lon="7.066088039427996">
        <ele>2020.3499999999999</ele>
        <time>2014-07-12T08:14:30Z</time>
      </trkpt>
      <trkpt lat="45.886570578441024" lon="7.066142857074738">
        <ele>2022.75</ele>
        <time>2014-07-12T08:14:44Z</time>
      </trkpt>
      <trkpt lat="45.886572590097785" lon="7.066211085766554">
        <ele>2025.6400000000001</ele>
        <time>2014-07-12T08:14:59Z</time>
      </trkpt>
      <trkpt lat="45.886532356962562" lon="7.066229190677404">
        <ele>2027.0799999999999</ele>
        <time>2014-07-12T08:15:11Z</time>
      </trkpt>
      <trkpt lat="45.886527327820659" lon="7.066275626420975">
        <ele>2029</ele>
        <time>2014-07-12T08:15:25Z</time>
      </trkpt>
      <trkpt lat="45.886540487408638" lon="7.066326420754194">
        <ele>2031.4000000000001</ele>
        <time>2014-07-12T08:15:39Z</time>
      </trkpt>
      <trkpt lat="45.886562280356884" lon="7.066360702738166">
        <ele>2032.3599999999999</ele>
        <time>2014-07-12T08:15:52Z</time>
      </trkpt>
      <trkpt lat="45.886548617854714" lon="7.066418202593923">
        <ele>2035.73</ele>
        <time>2014-07-12T08:16:07Z</time>
      </trkpt>
      <trkpt lat="45.886510144919157" lon="7.066419459879398">
        <ele>2036.21</ele>
        <time>2014-07-12T08:16:18Z</time>
      </trkpt>
      <trkpt lat="45.886504026129842" lon="7.066469583660364">
        <ele>2039.0899999999999</ele>
        <time>2014-07-12T08:16:34Z</time>
      </trkpt>
      <trkpt lat="45.886459853500128" lon="7.066506966948509">
        <ele>2041.02</ele>
        <time>2014-07-12T08:16:47Z</time>
      </trkpt>
      <trkpt lat="45.88644141331315" lon="7.066563460975885">
        <ele>2042.9400000000001</ele>
        <time>2014-07-12T08:17:03Z</time>
      </trkpt>
      <trkpt lat="45.886433618143201" lon="7.066622972488403">
        <ele>2044.3800000000001</ele>
        <time>2014-07-12T08:17:14Z</time>
      </trkpt>
      <trkpt lat="45.886390954256058" lon="7.066662032157183">
        <ele>2045.8199999999999</ele>
        <time>2014-07-12T08:17:24Z</time>
      </trkpt>
      <trkpt lat="45.88634024374187" lon="7.066618362441659">
        <ele>2048.71</ele>
        <time>2014-07-12T08:17:34Z</time>
      </trkpt>
      <trkpt lat="45.886325407773256" lon="7.066612998023629">
        <ele>2048.71</ele>
        <time>2014-07-12T08:17:36Z</time>
      </trkpt>
      <trkpt lat="45.886274361982942" lon="7.066561784595251">
        <ele>2050.1500000000001</ele>
        <time>2014-07-12T08:17:49Z</time>
      </trkpt>
      <trkpt lat="45.886200685054064" lon="7.066519791260362">
        <ele>2052.0700000000002</ele>
        <time>2014-07-12T08:17:59Z</time>
      </trkpt>
      <trkpt lat="45.886147040873766" lon="7.066548457369208">
        <ele>2053.5100000000002</ele>
        <time>2014-07-12T08:18:13Z</time>
      </trkpt>
      <trkpt lat="45.886119548231363" lon="7.066592797636986">
        <ele>2054.96</ele>
        <time>2014-07-12T08:18:24Z</time>
      </trkpt>
      <trkpt lat="45.886000106111169" lon="7.066529095172882">
        <ele>2057.3600000000001</ele>
        <time>2014-07-12T08:18:41Z</time>
      </trkpt>
      <trkpt lat="45.885936906561255" lon="7.066528759896755">
        <ele>2058.8000000000002</ele>
        <time>2014-07-12T08:18:51Z</time>
      </trkpt>
      <trkpt lat="45.885908911004663" lon="7.066533621400595">
        <ele>2059.2800000000002</ele>
        <time>2014-07-12T08:18:54Z</time>
      </trkpt>
      <trkpt lat="45.88582182303071" lon="7.066556923091412">
        <ele>2060.7199999999998</ele>
        <time>2014-07-12T08:19:06Z</time>
      </trkpt>
      <trkpt lat="45.885656950995326" lon="7.066466566175222">
        <ele>2062.1700000000001</ele>
        <time>2014-07-12T08:19:23Z</time>
      </trkpt>
      <trkpt lat="45.885514877736568" lon="7.066388195380569">
        <ele>2064.5700000000002</ele>
        <time>2014-07-12T08:19:38Z</time>
      </trkpt>
      <trkpt lat="45.885430974885821" lon="7.066351566463709">
        <ele>2064.5700000000002</ele>
        <time>2014-07-12T08:19:53Z</time>
      </trkpt>
      <trkpt lat="45.885384539142251" lon="7.066281661391258">
        <ele>2066.0100000000002</ele>
        <time>2014-07-12T08:20:06Z</time>
      </trkpt>
      <trkpt lat="45.885392669588327" lon="7.066291132941842">
        <ele>2066.0100000000002</ele>
        <time>2014-07-12T08:20:19Z</time>
      </trkpt>
      <trkpt lat="45.885381773114204" lon="7.066272608935833">
        <ele>2065.5300000000002</ele>
        <time>2014-07-12T08:20:28Z</time>
      </trkpt>
      <trkpt lat="45.885348748415709" lon="7.066253079101443">
        <ele>2066.4899999999998</ele>
        <time>2014-07-12T08:20:44Z</time>
      </trkpt>
      <trkpt lat="45.885366182774305" lon="7.066237488761544">
        <ele>2066.0100000000002</ele>
        <time>2014-07-12T08:20:58Z</time>
      </trkpt>
      <trkpt lat="45.885364338755608" lon="7.066272106021643">
        <ele>2066.9699999999998</ele>
        <time>2014-07-12T08:21:18Z</time>
      </trkpt>
      <trkpt lat="45.885358974337578" lon="7.066248552873731">
        <ele>2066.9699999999998</ele>
        <time>2014-07-12T08:21:39Z</time>
      </trkpt>
      <trkpt lat="45.885329805314541" lon="7.066251235082746">
        <ele>2067.4499999999998</ele>
        <time>2014-07-12T08:21:46Z</time>
      </trkpt>
      <trkpt lat="45.885263504460454" lon="7.066152328625321">
        <ele>2067.4499999999998</ele>
        <time>2014-07-12T08:21:58Z</time>
      </trkpt>
      <trkpt lat="45.885151103138924" lon="7.065969267860055">
        <ele>2067.4499999999998</ele>
        <time>2014-07-12T08:22:16Z</time>
      </trkpt>
      <trkpt lat="45.885030319914222" lon="7.065840102732182">
        <ele>2067.4499999999998</ele>
        <time>2014-07-12T08:22:32Z</time>
      </trkpt>
      <trkpt lat="45.884934850037098" lon="7.065714709460735">
        <ele>2068.4099999999999</ele>
        <time>2014-07-12T08:22:46Z</time>
      </trkpt>
      <trkpt lat="45.884853461757302" lon="7.065613707527518">
        <ele>2068.4099999999999</ele>
        <time>2014-07-12T08:23:00Z</time>
      </trkpt>
      <trkpt lat="45.884801996871829" lon="7.065565930679441">
        <ele>2070.3400000000001</ele>
        <time>2014-07-12T08:23:15Z</time>
      </trkpt>
      <trkpt lat="45.88476930744946" lon="7.065537599846721">
        <ele>2067.9299999999998</ele>
        <time>2014-07-12T08:23:31Z</time>
      </trkpt>
      <trkpt lat="45.884776096791029" lon="7.065509520471096">
        <ele>2067.9299999999998</ele>
        <time>2014-07-12T08:23:42Z</time>
      </trkpt>
      <trkpt lat="45.88473997078836" lon="7.065475573763251">
        <ele>2067.9299999999998</ele>
        <time>2014-07-12T08:23:48Z</time>
      </trkpt>
      <trkpt lat="45.884708873927593" lon="7.065482530742884">
        <ele>2067.4499999999998</ele>
        <time>2014-07-12T08:23:51Z</time>
      </trkpt>
      <trkpt lat="45.884648356586695" lon="7.065413212403655">
        <ele>2068.4099999999999</ele>
        <time>2014-07-12T08:24:01Z</time>
      </trkpt>
      <trkpt lat="45.884647937491536" lon="7.065437268465757">
        <ele>2068.4099999999999</ele>
        <time>2014-07-12T08:24:21Z</time>
      </trkpt>
      <trkpt lat="45.884668724611402" lon="7.065426539629698">
        <ele>2068.4099999999999</ele>
        <time>2014-07-12T08:24:38Z</time>
      </trkpt>
      <trkpt lat="45.884675430133939" lon="7.065449086949229">
        <ele>2067.9299999999998</ele>
        <time>2014-07-12T08:24:41Z</time>
      </trkpt>
      <trkpt lat="45.884705102071166" lon="7.065480519086123">
        <ele>2068.4099999999999</ele>
        <time>2014-07-12T08:24:46Z</time>
      </trkpt>
      <trkpt lat="45.884729325771332" lon="7.065497199073434">
        <ele>2068.8899999999999</ele>
        <time>2014-07-12T08:24:48Z</time>
      </trkpt>
      <trkpt lat="45.884740054607391" lon="7.065508095547557">
        <ele>2069.3800000000001</ele>
        <time>2014-07-12T08:24:49Z</time>
      </trkpt>
      <trkpt lat="45.884763188660145" lon="7.06555126234889">
        <ele>2068.8899999999999</ele>
        <time>2014-07-12T08:24:59Z</time>
      </trkpt>
      <trkpt lat="45.884760422632098" lon="7.065560650080442">
        <ele>2069.8600000000001</ele>
        <time>2014-07-12T08:25:01Z</time>
      </trkpt>
      <trkpt lat="45.884763607755303" lon="7.065573306754232">
        <ele>2068.8899999999999</ele>
        <time>2014-07-12T08:25:03Z</time>
      </trkpt>
      <trkpt lat="45.884850276634097" lon="7.065806407481432">
        <ele>2070.8200000000002</ele>
        <time>2014-07-12T08:30:04Z</time>
      </trkpt>
      <trkpt lat="45.884825885295868" lon="7.065846640616655">
        <ele>2072.2600000000002</ele>
        <time>2014-07-12T08:30:07Z</time>
      </trkpt>
      <trkpt lat="45.884806523099542" lon="7.065804982557893">
        <ele>2069.8600000000001</ele>
        <time>2014-07-12T08:30:11Z</time>
      </trkpt>
      <trkpt lat="45.884796800091863" lon="7.06573398783803">
        <ele>2073.2199999999998</ele>
        <time>2014-07-12T08:30:17Z</time>
      </trkpt>
      <trkpt lat="45.884798225015402" lon="7.06573155708611">
        <ele>2070.8200000000002</ele>
        <time>2014-07-12T08:30:22Z</time>
      </trkpt>
      <trkpt lat="45.884794034063816" lon="7.065720073878765">
        <ele>2070.3400000000001</ele>
        <time>2014-07-12T08:30:29Z</time>
      </trkpt>
      <trkpt lat="45.884793447330594" lon="7.065719906240702">
        <ele>2072.2600000000002</ele>
        <time>2014-07-12T08:30:30Z</time>
      </trkpt>
      <trkpt lat="45.884796716272831" lon="7.065683612599969">
        <ele>2071.7800000000002</ele>
        <time>2014-07-12T08:30:47Z</time>
      </trkpt>
      <trkpt lat="45.884799649938941" lon="7.065684786066413">
        <ele>2071.3000000000002</ele>
        <time>2014-07-12T08:30:48Z</time>
      </trkpt>
      <trkpt lat="45.884763859212399" lon="7.065656874328852">
        <ele>2069.8600000000001</ele>
        <time>2014-07-12T08:30:54Z</time>
      </trkpt>
      <trkpt lat="45.884736282750964" lon="7.065562410280109">
        <ele>2070.8200000000002</ele>
        <time>2014-07-12T08:30:57Z</time>
      </trkpt>
      <trkpt lat="45.884715160354972" lon="7.065472388640046">
        <ele>2069.8600000000001</ele>
        <time>2014-07-12T08:31:16Z</time>
      </trkpt>
      <trkpt lat="45.884767211973667" lon="7.065545981749892">
        <ele>2069.3800000000001</ele>
        <time>2014-07-12T08:31:29Z</time>
      </trkpt>
      <trkpt lat="45.884737288579345" lon="7.065504407510161">
        <ele>2069.3800000000001</ele>
        <time>2014-07-12T08:31:56Z</time>
      </trkpt>
      <trkpt lat="45.884740222245455" lon="7.065485464408994">
        <ele>2069.3800000000001</ele>
        <time>2014-07-12T08:32:26Z</time>
      </trkpt>
      <trkpt lat="45.88472337462008" lon="7.06551949493587">
        <ele>2069.8600000000001</ele>
        <time>2014-07-12T08:32:56Z</time>
      </trkpt>
      <trkpt lat="45.884743826463819" lon="7.065522260963917">
        <ele>2069.8600000000001</ele>
        <time>2014-07-12T08:33:18Z</time>
      </trkpt>
      <trkpt lat="45.884731002151966" lon="7.065499378368259">
        <ele>2069.8600000000001</ele>
        <time>2014-07-12T08:33:47Z</time>
      </trkpt>
      <trkpt lat="45.884767631068826" lon="7.065321765840054">
        <ele>2070.3400000000001</ele>
        <time>2014-07-12T08:34:07Z</time>
      </trkpt>
      <trkpt lat="45.884755812585354" lon="7.065316652879119">
        <ele>2071.3000000000002</ele>
        <time>2014-07-12T08:34:35Z</time>
      </trkpt>
      <trkpt lat="45.884728403761983" lon="7.065488565713167">
        <ele>2070.8200000000002</ele>
        <time>2014-07-12T08:35:09Z</time>
      </trkpt>
      <trkpt lat="45.884753968566656" lon="7.065517315641046">
        <ele>2071.3000000000002</ele>
        <time>2014-07-12T08:35:37Z</time>
      </trkpt>
      <trkpt lat="45.884761177003384" lon="7.065465180203319">
        <ele>2071.7800000000002</ele>
        <time>2014-07-12T08:36:09Z</time>
      </trkpt>
      <trkpt lat="45.884760338813066" lon="7.065460151061416">
        <ele>2072.7399999999998</ele>
        <time>2014-07-12T08:36:13Z</time>
      </trkpt>
      <trkpt lat="45.884782550856471" lon="7.065471718087792">
        <ele>2074.1799999999998</ele>
        <time>2014-07-12T08:36:16Z</time>
      </trkpt>
      <trkpt lat="45.884762518107891" lon="7.065508179366589">
        <ele>2072.2600000000002</ele>
        <time>2014-07-12T08:36:28Z</time>
      </trkpt>
      <trkpt lat="45.884682303294539" lon="7.065527541562915">
        <ele>2072.2600000000002</ele>
        <time>2014-07-12T08:36:47Z</time>
      </trkpt>
      <trkpt lat="45.884732846170664" lon="7.065611947327852">
        <ele>2072.7399999999998</ele>
        <time>2014-07-12T08:43:20Z</time>
      </trkpt>
      <trkpt lat="45.884780706837773" lon="7.06549845635891">
        <ele>2072.7399999999998</ele>
        <time>2014-07-12T08:43:38Z</time>
      </trkpt>
      <trkpt lat="45.884770313277841" lon="7.065558386966586">
        <ele>2071.7800000000002</ele>
        <time>2014-07-12T08:43:50Z</time>
      </trkpt>
      <trkpt lat="45.884778779000044" lon="7.065583616495132">
        <ele>2072.7399999999998</ele>
        <time>2014-07-12T08:44:06Z</time>
      </trkpt>
      <trkpt lat="45.884830830618739" lon="7.065623430535197">
        <ele>2071.7800000000002</ele>
        <time>2014-07-12T08:44:20Z</time>
      </trkpt>
      <trkpt lat="45.884840218350291" lon="7.065622173249722">
        <ele>2072.7399999999998</ele>
        <time>2014-07-12T08:44:34Z</time>
      </trkpt>
      <trkpt lat="45.88490316644311" lon="7.065706662833691">
        <ele>2070.8200000000002</ele>
        <time>2014-07-12T08:44:49Z</time>
      </trkpt>
      <trkpt lat="45.884982543066144" lon="7.065807580947876">
        <ele>2072.2600000000002</ele>
        <time>2014-07-12T08:44:58Z</time>
      </trkpt>
      <trkpt lat="45.885036187246442" lon="7.065879916772246">
        <ele>2071.7800000000002</ele>
        <time>2014-07-12T08:45:05Z</time>
      </trkpt>
      <trkpt lat="45.88515680283308" lon="7.066011177375913">
        <ele>2071.7800000000002</ele>
        <time>2014-07-12T08:45:21Z</time>
      </trkpt>
      <trkpt lat="45.885204579681158" lon="7.066063983365893">
        <ele>2071.7800000000002</ele>
        <time>2014-07-12T08:45:27Z</time>
      </trkpt>
      <trkpt lat="45.885279597714543" lon="7.066233130171895">
        <ele>2071.3000000000002</ele>
        <time>2014-07-12T08:45:41Z</time>
      </trkpt>
      <trkpt lat="45.885354531928897" lon="7.066389787942171">
        <ele>2070.8200000000002</ele>
        <time>2014-07-12T08:45:55Z</time>
      </trkpt>
      <trkpt lat="45.885384371504188" lon="7.066518114879727">
        <ele>2071.3000000000002</ele>
        <time>2014-07-12T08:46:10Z</time>
      </trkpt>
      <trkpt lat="45.88540599681437" lon="7.066596988588572">
        <ele>2071.3000000000002</ele>
        <time>2014-07-12T08:46:16Z</time>
      </trkpt>
      <trkpt lat="45.88540893048048" lon="7.066720118746162">
        <ele>2071.7800000000002</ele>
        <time>2014-07-12T08:46:30Z</time>
      </trkpt>
      <trkpt lat="45.885420916602015" lon="7.066858671605587">
        <ele>2072.7399999999998</ele>
        <time>2014-07-12T08:46:43Z</time>
      </trkpt>
      <trkpt lat="45.885400716215372" lon="7.066996805369854">
        <ele>2074.6599999999999</ele>
        <time>2014-07-12T08:46:58Z</time>
      </trkpt>
      <trkpt lat="45.885349167510867" lon="7.067133765667677">
        <ele>2076.5900000000001</ele>
        <time>2014-07-12T08:47:14Z</time>
      </trkpt>
      <trkpt lat="45.885299127548933" lon="7.067251531407237">
        <ele>2078.9899999999998</ele>
        <time>2014-07-12T08:47:28Z</time>
      </trkpt>
      <trkpt lat="45.885227797552943" lon="7.067378098145127">
        <ele>2080.9099999999999</ele>
        <time>2014-07-12T08:47:44Z</time>
      </trkpt>
      <trkpt lat="45.88520223274827" lon="7.067411374300718">
        <ele>2081.3899999999999</ele>
        <time>2014-07-12T08:47:47Z</time>
      </trkpt>
      <trkpt lat="45.885136686265469" lon="7.067467030137777">
        <ele>2082.8299999999999</ele>
        <time>2014-07-12T08:47:57Z</time>
      </trkpt>
      <trkpt lat="45.885051274672151" lon="7.067611701786518">
        <ele>2084.7600000000002</ele>
        <time>2014-07-12T08:48:15Z</time>
      </trkpt>
      <trkpt lat="45.884988158941269" lon="7.067758971825242">
        <ele>2087.6399999999999</ele>
        <time>2014-07-12T08:48:32Z</time>
      </trkpt>
      <trkpt lat="45.884917667135596" lon="7.067801551893354">
        <ele>2089.5599999999999</ele>
        <time>2014-07-12T08:48:43Z</time>
      </trkpt>
      <trkpt lat="45.884848684072495" lon="7.06785511225462">
        <ele>2091.9699999999998</ele>
        <time>2014-07-12T08:48:57Z</time>
      </trkpt>
      <trkpt lat="45.884764278307557" lon="7.067869110032916">
        <ele>2094.3699999999999</ele>
        <time>2014-07-12T08:49:11Z</time>
      </trkpt>
      <trkpt lat="45.884681800380349" lon="7.067930549383164">
        <ele>2096.77</ele>
        <time>2014-07-12T08:49:28Z</time>
      </trkpt>
      <trkpt lat="45.884587923064828" lon="7.06800271756947">
        <ele>2099.1799999999998</ele>
        <time>2014-07-12T08:49:44Z</time>
      </trkpt>
      <trkpt lat="45.884575434029102" lon="7.068006321787834">
        <ele>2099.1799999999998</ele>
        <time>2014-07-12T08:49:57Z</time>
      </trkpt>
      <trkpt lat="45.884571829810739" lon="7.068026103079319">
        <ele>2099.1799999999998</ele>
        <time>2014-07-12T08:50:18Z</time>
      </trkpt>
      <trkpt lat="45.88452254422009" lon="7.068066503852606">
        <ele>2101.0999999999999</ele>
        <time>2014-07-12T08:50:33Z</time>
      </trkpt>
      <trkpt lat="45.884509552270174" lon="7.068077987059951">
        <ele>2101.5799999999999</ele>
        <time>2014-07-12T08:50:45Z</time>
      </trkpt>
      <trkpt lat="45.884380219504237" lon="7.06807597540319">
        <ele>2103.5</ele>
        <time>2014-07-12T08:50:59Z</time>
      </trkpt>
      <trkpt lat="45.884273014962673" lon="7.068109586834908">
        <ele>2105.4200000000001</ele>
        <time>2014-07-12T08:51:13Z</time>
      </trkpt>
      <trkpt lat="45.884218700230122" lon="7.06815367564559">
        <ele>2106.8699999999999</ele>
        <time>2014-07-12T08:51:21Z</time>
      </trkpt>
      <trkpt lat="45.88420445099473" lon="7.06815954297781">
        <ele>2107.3499999999999</ele>
        <time>2014-07-12T08:51:23Z</time>
      </trkpt>
      <trkpt lat="45.884141586720943" lon="7.068147389218211">
        <ele>2107.8299999999999</ele>
        <time>2014-07-12T08:51:31Z</time>
      </trkpt>
      <trkpt lat="45.884042428806424" lon="7.068155603483319">
        <ele>2110.23</ele>
        <time>2014-07-12T08:51:45Z</time>
      </trkpt>
      <trkpt lat="45.883952155709267" lon="7.068173876032233">
        <ele>2112.1500000000001</ele>
        <time>2014-07-12T08:51:58Z</time>
      </trkpt>
      <trkpt lat="45.883845537900925" lon="7.068141521885991">
        <ele>2114.5599999999999</ele>
        <time>2014-07-12T08:52:13Z</time>
      </trkpt>
      <trkpt lat="45.883753420785069" lon="7.068158201873303">
        <ele>2117.4400000000001</ele>
        <time>2014-07-12T08:52:27Z</time>
      </trkpt>
      <trkpt lat="45.883656358346343" lon="7.068150322884321">
        <ele>2119.3600000000001</ele>
        <time>2014-07-12T08:52:42Z</time>
      </trkpt>
      <trkpt lat="45.883572204038501" lon="7.068157447502017">
        <ele>2122.73</ele>
        <time>2014-07-12T08:52:56Z</time>
      </trkpt>
      <trkpt lat="45.883465753868222" lon="7.068133559077978">
        <ele>2125.6100000000001</ele>
        <time>2014-07-12T08:53:12Z</time>
      </trkpt>
      <trkpt lat="45.883367182686925" lon="7.068130793049932">
        <ele>2127.0500000000002</ele>
        <time>2014-07-12T08:53:26Z</time>
      </trkpt>
      <trkpt lat="45.883300378918648" lon="7.068131463602185">
        <ele>2129.46</ele>
        <time>2014-07-12T08:53:39Z</time>
      </trkpt>
      <trkpt lat="45.883302642032504" lon="7.068140432238579">
        <ele>2128.98</ele>
        <time>2014-07-12T08:54:00Z</time>
      </trkpt>
      <trkpt lat="45.883229048922658" lon="7.068130457773805">
        <ele>2131.3800000000001</ele>
        <time>2014-07-12T08:54:18Z</time>
      </trkpt>
      <trkpt lat="45.883251177147031" lon="7.068172367289662">
        <ele>2133.7800000000002</ele>
        <time>2014-07-12T08:54:30Z</time>
      </trkpt>
      <trkpt lat="45.883264923468232" lon="7.068214528262615">
        <ele>2135.23</ele>
        <time>2014-07-12T08:54:34Z</time>
      </trkpt>
      <trkpt lat="45.883290152996778" lon="7.068231040611863">
        <ele>2137.1500000000001</ele>
        <time>2014-07-12T08:54:39Z</time>
      </trkpt>
      <trkpt lat="45.883348155766726" lon="7.068331455811858">
        <ele>2137.6300000000001</ele>
        <time>2014-07-12T08:54:52Z</time>
      </trkpt>
      <trkpt lat="45.8834133669734" lon="7.06845223903656">
        <ele>2139.0700000000002</ele>
        <time>2014-07-12T08:55:06Z</time>
      </trkpt>
      <trkpt lat="45.88347832672298" lon="7.068520300090313">
        <ele>2141.4699999999998</ele>
        <time>2014-07-12T08:55:19Z</time>
      </trkpt>
      <trkpt lat="45.883489223197103" lon="7.068535890430212">
        <ele>2141.9499999999998</ele>
        <time>2014-07-12T08:55:21Z</time>
      </trkpt>
      <trkpt lat="45.883609335869551" lon="7.068586684763432">
        <ele>2144.8400000000001</ele>
        <time>2014-07-12T08:55:37Z</time>
      </trkpt>
      <trkpt lat="45.883583268150687" lon="7.068637060001493">
        <ele>2147.2399999999998</ele>
        <time>2014-07-12T08:55:50Z</time>
      </trkpt>
      <trkpt lat="45.88352182880044" lon="7.06864963285625">
        <ele>2150.1300000000001</ele>
        <time>2014-07-12T08:56:05Z</time>
      </trkpt>
      <trkpt lat="45.883447229862213" lon="7.068646280094981">
        <ele>2151.0900000000001</ele>
        <time>2014-07-12T08:56:18Z</time>
      </trkpt>
      <trkpt lat="45.883372547104955" lon="7.068649297580123">
        <ele>2153.0100000000002</ele>
        <time>2014-07-12T08:56:30Z</time>
      </trkpt>
      <trkpt lat="45.883319405838847" lon="7.068634629249573">
        <ele>2154.9299999999998</ele>
        <time>2014-07-12T08:56:41Z</time>
      </trkpt>
      <trkpt lat="45.883229216560721" lon="7.068633120507002">
        <ele>2157.3400000000001</ele>
        <time>2014-07-12T08:56:57Z</time>
      </trkpt>
      <trkpt lat="45.883156126365066" lon="7.068631276488304">
        <ele>2159.2600000000002</ele>
        <time>2014-07-12T08:57:12Z</time>
      </trkpt>
      <trkpt lat="45.883143721148372" lon="7.068693973124027">
        <ele>2161.6599999999999</ele>
        <time>2014-07-12T08:57:25Z</time>
      </trkpt>
      <trkpt lat="45.883202981203794" lon="7.068819534033537">
        <ele>2162.6199999999999</ele>
        <time>2014-07-12T08:57:42Z</time>
      </trkpt>
      <trkpt lat="45.883216392248869" lon="7.06884166225791">
        <ele>2164.5500000000002</ele>
        <time>2014-07-12T08:57:46Z</time>
      </trkpt>
      <trkpt lat="45.883272467181087" lon="7.068900838494301">
        <ele>2165.9899999999998</ele>
        <time>2014-07-12T08:58:04Z</time>
      </trkpt>
      <trkpt lat="45.883326781913638" lon="7.068983735516667">
        <ele>2168.8699999999999</ele>
        <time>2014-07-12T08:58:18Z</time>
      </trkpt>
      <trkpt lat="45.883391071110964" lon="7.069095131009817">
        <ele>2171.7600000000002</ele>
        <time>2014-07-12T08:58:35Z</time>
      </trkpt>
      <trkpt lat="45.883469944819808" lon="7.069158833473921">
        <ele>2174.6399999999999</ele>
        <time>2014-07-12T08:58:53Z</time>
      </trkpt>
      <trkpt lat="45.883580166846514" lon="7.069220691919327">
        <ele>2176.5599999999999</ele>
        <time>2014-07-12T08:59:09Z</time>
      </trkpt>
      <trkpt lat="45.883587710559368" lon="7.069248352199793">
        <ele>2177.04</ele>
        <time>2014-07-12T08:59:28Z</time>
      </trkpt>
      <trkpt lat="45.88362492620945" lon="7.06923259422183">
        <ele>2177.52</ele>
        <time>2014-07-12T08:59:41Z</time>
      </trkpt>
      <trkpt lat="45.883733220398426" lon="7.069305684417486">
        <ele>2181.3699999999999</ele>
        <time>2014-07-12T08:59:55Z</time>
      </trkpt>
      <trkpt lat="45.883808489888906" lon="7.069415990263224">
        <ele>2183.77</ele>
        <time>2014-07-12T09:00:11Z</time>
      </trkpt>
      <trkpt lat="45.883847633376718" lon="7.069497294723988">
        <ele>2186.6599999999999</ele>
        <time>2014-07-12T09:00:22Z</time>
      </trkpt>
      <trkpt lat="45.883936733007431" lon="7.069541551172733">
        <ele>2189.0599999999999</ele>
        <time>2014-07-12T09:00:37Z</time>
      </trkpt>
      <trkpt lat="45.884037064388394" lon="7.069634506478906">
        <ele>2191.46</ele>
        <time>2014-07-12T09:00:53Z</time>
      </trkpt>
      <trkpt lat="45.88410479016602" lon="7.069720588624477">
        <ele>2193.3899999999999</ele>
        <time>2014-07-12T09:01:08Z</time>
      </trkpt>
      <trkpt lat="45.884149381890893" lon="7.069733748212457">
        <ele>2195.3099999999999</ele>
        <time>2014-07-12T09:01:21Z</time>
      </trkpt>
      <trkpt lat="45.884195901453495" lon="7.069743555039167">
        <ele>2197.23</ele>
        <time>2014-07-12T09:01:40Z</time>
      </trkpt>
      <trkpt lat="45.884260358288884" lon="7.069818321615458">
        <ele>2200.1100000000001</ele>
        <time>2014-07-12T09:01:54Z</time>
      </trkpt>
      <trkpt lat="45.88427091948688" lon="7.069850005209446">
        <ele>2201.5599999999999</ele>
        <time>2014-07-12T09:02:09Z</time>
      </trkpt>
      <trkpt lat="45.884191375225782" lon="7.069915384054184">
        <ele>2203.96</ele>
        <time>2014-07-12T09:02:23Z</time>
      </trkpt>
      <trkpt lat="45.884106634184718" lon="7.070015463978052">
        <ele>2205.8800000000001</ele>
        <time>2014-07-12T09:02:39Z</time>
      </trkpt>
      <trkpt lat="45.884008482098579" lon="7.070083022117615">
        <ele>2209.25</ele>
        <time>2014-07-12T09:02:54Z</time>
      </trkpt>
      <trkpt lat="45.883928434923291" lon="7.070147059857845">
        <ele>2210.21</ele>
        <time>2014-07-12T09:03:07Z</time>
      </trkpt>
      <trkpt lat="45.883899852633476" lon="7.070170361548662">
        <ele>2211.1700000000001</ele>
        <time>2014-07-12T09:03:11Z</time>
      </trkpt>
      <trkpt lat="45.883828941732645" lon="7.070188717916608">
        <ele>2211.6500000000001</ele>
        <time>2014-07-12T09:03:19Z</time>
      </trkpt>
      <trkpt lat="45.883663147687912" lon="7.070280499756336">
        <ele>2212.6100000000001</ele>
        <time>2014-07-12T09:03:36Z</time>
      </trkpt>
      <trkpt lat="45.883516129106283" lon="7.070357277989388">
        <ele>2211.6500000000001</ele>
        <time>2014-07-12T09:03:52Z</time>
      </trkpt>
      <trkpt lat="45.883432142436504" lon="7.070451239123941">
        <ele>2213.5700000000002</ele>
        <time>2014-07-12T09:04:05Z</time>
      </trkpt>
      <trkpt lat="45.883337426930666" lon="7.07049029879272">
        <ele>2216.46</ele>
        <time>2014-07-12T09:04:20Z</time>
      </trkpt>
      <trkpt lat="45.883284620940685" lon="7.070552073419094">
        <ele>2218.8600000000001</ele>
        <time>2014-07-12T09:04:32Z</time>
      </trkpt>
      <trkpt lat="45.883254781365395" lon="7.07068232819438">
        <ele>2221.7399999999998</ele>
        <time>2014-07-12T09:04:47Z</time>
      </trkpt>
      <trkpt lat="45.88326919823885" lon="7.070748629048467">
        <ele>2224.1500000000001</ele>
        <time>2014-07-12T09:05:01Z</time>
      </trkpt>
      <trkpt lat="45.883288308978081" lon="7.070794980973005">
        <ele>2226.5500000000002</ele>
        <time>2014-07-12T09:05:15Z</time>
      </trkpt>
      <trkpt lat="45.883351508527994" lon="7.070831609889865">
        <ele>2227.5100000000002</ele>
        <time>2014-07-12T09:05:28Z</time>
      </trkpt>
      <trkpt lat="45.883382186293602" lon="7.070817109197378">
        <ele>2228.4699999999998</ele>
        <time>2014-07-12T09:05:44Z</time>
      </trkpt>
      <trkpt lat="45.88346416130662" lon="7.070836639031768">
        <ele>2231.3600000000001</ele>
        <time>2014-07-12T09:05:58Z</time>
      </trkpt>
      <trkpt lat="45.883543873205781" lon="7.070900173857808">
        <ele>2234.7199999999998</ele>
        <time>2014-07-12T09:06:12Z</time>
      </trkpt>
      <trkpt lat="45.883612604811788" lon="7.070969324558973">
        <ele>2236.6399999999999</ele>
        <time>2014-07-12T09:06:27Z</time>
      </trkpt>
      <trkpt lat="45.883598523214459" lon="7.071109469980001">
        <ele>2238.5700000000002</ele>
        <time>2014-07-12T09:06:43Z</time>
      </trkpt>
      <trkpt lat="45.88356139138341" lon="7.071265038102865">
        <ele>2241.4499999999998</ele>
        <time>2014-07-12T09:07:03Z</time>
      </trkpt>
      <trkpt lat="45.883558038622141" lon="7.071275850757957">
        <ele>2241.9299999999998</ele>
        <time>2014-07-12T09:07:04Z</time>
      </trkpt>
      <trkpt lat="45.883563822135329" lon="7.071347599849105">
        <ele>2243.3699999999999</ele>
        <time>2014-07-12T09:07:21Z</time>
      </trkpt>
      <trkpt lat="45.883564492687583" lon="7.071477854624391">
        <ele>2246.2600000000002</ele>
        <time>2014-07-12T09:07:36Z</time>
      </trkpt>
      <trkpt lat="45.883581172674894" lon="7.071558153256774">
        <ele>2249.1399999999999</ele>
        <time>2014-07-12T09:07:51Z</time>
      </trkpt>
      <trkpt lat="45.883578741922975" lon="7.071682624518871">
        <ele>2251.0599999999999</ele>
        <time>2014-07-12T09:08:06Z</time>
      </trkpt>
      <trkpt lat="45.883551416918635" lon="7.071774322539568">
        <ele>2252.0300000000002</ele>
        <time>2014-07-12T09:08:21Z</time>
      </trkpt>
      <trkpt lat="45.883582346141338" lon="7.071869121864438">
        <ele>2253.9499999999998</ele>
        <time>2014-07-12T09:08:35Z</time>
      </trkpt>
      <trkpt lat="45.883533814921975" lon="7.071971464902163">
        <ele>2256.3499999999999</ele>
        <time>2014-07-12T09:08:51Z</time>
      </trkpt>
      <trkpt lat="45.883484613150358" lon="7.07205637358129">
        <ele>2258.27</ele>
        <time>2014-07-12T09:09:03Z</time>
      </trkpt>
      <trkpt lat="45.883495677262545" lon="7.072047991678119">
        <ele>2258.75</ele>
        <time>2014-07-12T09:09:18Z</time>
      </trkpt>
      <trkpt lat="45.883474890142679" lon="7.072113873437047">
        <ele>2259.2399999999998</ele>
        <time>2014-07-12T09:09:30Z</time>
      </trkpt>
      <trkpt lat="45.883461982011795" lon="7.072250498458743">
        <ele>2262.1199999999999</ele>
        <time>2014-07-12T09:09:46Z</time>
      </trkpt>
      <trkpt lat="45.883413115516305" lon="7.072282852604985">
        <ele>2264.04</ele>
        <time>2014-07-12T09:09:54Z</time>
      </trkpt>
      <trkpt lat="45.883285710588098" lon="7.072388883680105">
        <ele>2264.52</ele>
        <time>2014-07-12T09:10:12Z</time>
      </trkpt>
      <trkpt lat="45.883271377533674" lon="7.072425931692123">
        <ele>2265.48</ele>
        <time>2014-07-12T09:10:28Z</time>
      </trkpt>
      <trkpt lat="45.883258553221822" lon="7.072550486773253">
        <ele>2267.8899999999999</ele>
        <time>2014-07-12T09:10:46Z</time>
      </trkpt>
      <trkpt lat="45.883227623999119" lon="7.072567921131849">
        <ele>2268.3699999999999</ele>
        <time>2014-07-12T09:10:48Z</time>
      </trkpt>
      <trkpt lat="45.88316953741014" lon="7.072718208655715">
        <ele>2269.3299999999999</ele>
        <time>2014-07-12T09:11:00Z</time>
      </trkpt>
      <trkpt lat="45.883158054202795" lon="7.072741007432342">
        <ele>2270.77</ele>
        <time>2014-07-12T09:11:02Z</time>
      </trkpt>
      <trkpt lat="45.883155791088939" lon="7.072751484811306">
        <ele>2271.25</ele>
        <time>2014-07-12T09:11:03Z</time>
      </trkpt>
      <trkpt lat="45.883144307881594" lon="7.072833878919482">
        <ele>2270.29</ele>
        <time>2014-07-12T09:11:10Z</time>
      </trkpt>
      <trkpt lat="45.883035846054554" lon="7.072901017963886">
        <ele>2272.6900000000001</ele>
        <time>2014-07-12T09:11:24Z</time>
      </trkpt>
      <trkpt lat="45.883015226572752" lon="7.072972934693098">
        <ele>2274.6199999999999</ele>
        <time>2014-07-12T09:11:38Z</time>
      </trkpt>
      <trkpt lat="45.882998630404472" lon="7.07309614866972">
        <ele>2277.5</ele>
        <time>2014-07-12T09:11:54Z</time>
      </trkpt>
      <trkpt lat="45.883008604869246" lon="7.073160605505109">
        <ele>2278.46</ele>
        <time>2014-07-12T09:12:09Z</time>
      </trkpt>
      <trkpt lat="45.883007515221834" lon="7.073172423988581">
        <ele>2277.98</ele>
        <time>2014-07-12T09:12:10Z</time>
      </trkpt>
      <trkpt lat="45.8829833753407" lon="7.073292536661029">
        <ele>2280.8699999999999</ele>
        <time>2014-07-12T09:12:25Z</time>
      </trkpt>
      <trkpt lat="45.882951356470585" lon="7.0733942091465">
        <ele>2284.23</ele>
        <time>2014-07-12T09:12:40Z</time>
      </trkpt>
      <trkpt lat="45.882868627086282" lon="7.073492193594575">
        <ele>2287.1100000000001</ele>
        <time>2014-07-12T09:12:57Z</time>
      </trkpt>
      <trkpt lat="45.882892180234194" lon="7.073525469750166">
        <ele>2288.0799999999999</ele>
        <time>2014-07-12T09:13:11Z</time>
      </trkpt>
      <trkpt lat="45.882923528552055" lon="7.073577605187893">
        <ele>2288.5599999999999</ele>
        <time>2014-07-12T09:13:25Z</time>
      </trkpt>
      <trkpt lat="45.882917493581772" lon="7.073608785867691">
        <ele>2288.5599999999999</ele>
        <time>2014-07-12T09:13:45Z</time>
      </trkpt>
      <trkpt lat="45.882942890748382" lon="7.073579616844654">
        <ele>2290</ele>
        <time>2014-07-12T09:14:04Z</time>
      </trkpt>
      <trkpt lat="45.882927216589451" lon="7.073714314028621">
        <ele>2293.3600000000001</ele>
        <time>2014-07-12T09:14:18Z</time>
      </trkpt>
      <trkpt lat="45.882905591279268" lon="7.073757480829954">
        <ele>2294.3200000000002</ele>
        <time>2014-07-12T09:14:23Z</time>
      </trkpt>
      <trkpt lat="45.882880697026849" lon="7.073873151093721">
        <ele>2297.21</ele>
        <time>2014-07-12T09:14:38Z</time>
      </trkpt>
      <trkpt lat="45.882860999554396" lon="7.074006758630276">
        <ele>2300.0900000000001</ele>
        <time>2014-07-12T09:14:52Z</time>
      </trkpt>
      <trkpt lat="45.882845912128687" lon="7.074115723371506">
        <ele>2302.4899999999998</ele>
        <time>2014-07-12T09:15:05Z</time>
      </trkpt>
      <trkpt lat="45.882862592115998" lon="7.074140617623925">
        <ele>2303.9400000000001</ele>
        <time>2014-07-12T09:15:13Z</time>
      </trkpt>
      <trkpt lat="45.882849851623178" lon="7.074230806902051">
        <ele>2305.8600000000001</ele>
        <time>2014-07-12T09:15:23Z</time>
      </trkpt>
      <trkpt lat="45.882818670943379" lon="7.074251342564821">
        <ele>2306.8200000000002</ele>
        <time>2014-07-12T09:15:27Z</time>
      </trkpt>
      <trkpt lat="45.882701659575105" lon="7.07427179440856">
        <ele>2310.1900000000001</ele>
        <time>2014-07-12T09:15:38Z</time>
      </trkpt>
      <trkpt lat="45.882616080343723" lon="7.074406240135431">
        <ele>2308.2600000000002</ele>
        <time>2014-07-12T09:15:52Z</time>
      </trkpt>
      <trkpt lat="45.882608536630869" lon="7.074483605101705">
        <ele>2308.2600000000002</ele>
        <time>2014-07-12T09:16:02Z</time>
      </trkpt>
      <trkpt lat="45.882606189697981" lon="7.074731038883328">
        <ele>2309.6999999999998</ele>
        <time>2014-07-12T09:16:18Z</time>
      </trkpt>
      <trkpt lat="45.882609374821186" lon="7.074746880680323">
        <ele>2309.2199999999998</ele>
        <time>2014-07-12T09:16:19Z</time>
      </trkpt>
      <trkpt lat="45.882590934634209" lon="7.074919883161783">
        <ele>2309.6999999999998</ele>
        <time>2014-07-12T09:16:34Z</time>
      </trkpt>
      <trkpt lat="45.882593868300319" lon="7.075007976964116">
        <ele>2311.6300000000001</ele>
        <time>2014-07-12T09:16:49Z</time>
      </trkpt>
      <trkpt lat="45.882586743682623" lon="7.07515574991703">
        <ele>2314.0300000000002</ele>
        <time>2014-07-12T09:17:04Z</time>
      </trkpt>
      <trkpt lat="45.882570734247565" lon="7.07523294724524">
        <ele>2315.9499999999998</ele>
        <time>2014-07-12T09:17:19Z</time>
      </trkpt>
      <trkpt lat="45.88256117887795" lon="7.075270498171449">
        <ele>2316.4299999999998</ele>
        <time>2014-07-12T09:17:40Z</time>
      </trkpt>
      <trkpt lat="45.882519520819187" lon="7.075349539518356">
        <ele>2317.4000000000001</ele>
        <time>2014-07-12T09:17:50Z</time>
      </trkpt>
      <trkpt lat="45.882517090067267" lon="7.075436376035214">
        <ele>2319.8000000000002</ele>
        <time>2014-07-12T09:18:04Z</time>
      </trkpt>
      <trkpt lat="45.882574589923024" lon="7.07541030831635">
        <ele>2321.7199999999998</ele>
        <time>2014-07-12T09:18:17Z</time>
      </trkpt>
      <trkpt lat="45.882611386477947" lon="7.075427239760757">
        <ele>2324.6100000000001</ele>
        <time>2014-07-12T09:18:31Z</time>
      </trkpt>
      <trkpt lat="45.88262815028429" lon="7.075456324964762">
        <ele>2325.0900000000001</ele>
        <time>2014-07-12T09:18:46Z</time>
      </trkpt>
      <trkpt lat="45.88264717720449" lon="7.075468143448234">
        <ele>2324.1199999999999</ele>
        <time>2014-07-12T09:18:48Z</time>
      </trkpt>
      <trkpt lat="45.882657989859581" lon="7.075553806498647">
        <ele>2327.4899999999998</ele>
        <time>2014-07-12T09:18:58Z</time>
      </trkpt>
      <trkpt lat="45.882647512480617" lon="7.075594374909997">
        <ele>2329.4099999999999</ele>
        <time>2014-07-12T09:19:07Z</time>
      </trkpt>
      <trkpt lat="45.882633766159415" lon="7.075646175071597">
        <ele>2328.4499999999998</ele>
        <time>2014-07-12T09:19:18Z</time>
      </trkpt>
      <trkpt lat="45.882643740624189" lon="7.075743908062577">
        <ele>2332.7800000000002</ele>
        <time>2014-07-12T09:19:29Z</time>
      </trkpt>
      <trkpt lat="45.882648350670934" lon="7.0757513679564">
        <ele>2332.7800000000002</ele>
        <time>2014-07-12T09:19:30Z</time>
      </trkpt>
      <trkpt lat="45.882686655968428" lon="7.075835354626179">
        <ele>2334.2199999999998</ele>
        <time>2014-07-12T09:19:45Z</time>
      </trkpt>
      <trkpt lat="45.882705934345722" lon="7.075767796486616">
        <ele>2336.1399999999999</ele>
        <time>2014-07-12T09:19:53Z</time>
      </trkpt>
      <trkpt lat="45.88275664485991" lon="7.075663693249226">
        <ele>2339.02</ele>
        <time>2014-07-12T09:20:07Z</time>
      </trkpt>
      <trkpt lat="45.882793106138706" lon="7.07568003796041">
        <ele>2339.5100000000002</ele>
        <time>2014-07-12T09:20:26Z</time>
      </trkpt>
      <trkpt lat="45.88284901343286" lon="7.07559890113771">
        <ele>2341.4299999999998</ele>
        <time>2014-07-12T09:20:41Z</time>
      </trkpt>
      <trkpt lat="45.882933419197798" lon="7.075500749051571">
        <ele>2344.79</ele>
        <time>2014-07-12T09:20:57Z</time>
      </trkpt>
      <trkpt lat="45.883023608475924" lon="7.075416259467602">
        <ele>2347.6799999999998</ele>
        <time>2014-07-12T09:21:14Z</time>
      </trkpt>
      <trkpt lat="45.88308990933001" lon="7.07537803798914">
        <ele>2351.04</ele>
        <time>2014-07-12T09:21:32Z</time>
      </trkpt>
      <trkpt lat="45.883107846602798" lon="7.075343420729041">
        <ele>2351.52</ele>
        <time>2014-07-12T09:21:51Z</time>
      </trkpt>
      <trkpt lat="45.883139111101627" lon="7.075294051319361">
        <ele>2354.8899999999999</ele>
        <time>2014-07-12T09:22:02Z</time>
      </trkpt>
      <trkpt lat="45.8832320664078" lon="7.075293799862266">
        <ele>2356.3299999999999</ele>
        <time>2014-07-12T09:22:19Z</time>
      </trkpt>
      <trkpt lat="45.88330490514636" lon="7.075212663039565">
        <ele>2358.25</ele>
        <time>2014-07-12T09:22:38Z</time>
      </trkpt>
      <trkpt lat="45.883373972028494" lon="7.075190702453256">
        <ele>2359.6900000000001</ele>
        <time>2014-07-12T09:22:54Z</time>
      </trkpt>
      <trkpt lat="45.883386712521315" lon="7.075223894789815">
        <ele>2361.6199999999999</ele>
        <time>2014-07-12T09:23:07Z</time>
      </trkpt>
      <trkpt lat="45.883420994505286" lon="7.075241999700666">
        <ele>2364.02</ele>
        <time>2014-07-12T09:23:20Z</time>
      </trkpt>
      <trkpt lat="45.883431471884251" lon="7.075278460979462">
        <ele>2364.5</ele>
        <time>2014-07-12T09:23:36Z</time>
      </trkpt>
      <trkpt lat="45.883427364751697" lon="7.07527594640851">
        <ele>2364.5</ele>
        <time>2014-07-12T09:23:51Z</time>
      </trkpt>
      <trkpt lat="45.883445385843515" lon="7.075316179543734">
        <ele>2366.4200000000001</ele>
        <time>2014-07-12T09:24:03Z</time>
      </trkpt>
      <trkpt lat="45.883480673655868" lon="7.075368147343397">
        <ele>2369.3099999999999</ele>
        <time>2014-07-12T09:24:15Z</time>
      </trkpt>
      <trkpt lat="45.883474135771394" lon="7.075448362156749">
        <ele>2370.75</ele>
        <time>2014-07-12T09:24:23Z</time>
      </trkpt>
      <trkpt lat="45.883446978405118" lon="7.075495133176446">
        <ele>2371.23</ele>
        <time>2014-07-12T09:24:39Z</time>
      </trkpt>
      <trkpt lat="45.88344806805253" lon="7.075562188401818">
        <ele>2373.1500000000001</ele>
        <time>2014-07-12T09:24:55Z</time>
      </trkpt>
      <trkpt lat="45.883485451340675" lon="7.07558473572135">
        <ele>2375.5500000000002</ele>
        <time>2014-07-12T09:25:09Z</time>
      </trkpt>
      <trkpt lat="45.883463239297271" lon="7.07570593804121">
        <ele>2377.96</ele>
        <time>2014-07-12T09:25:25Z</time>
      </trkpt>
      <trkpt lat="45.883469358086586" lon="7.075729323551059">
        <ele>2377.96</ele>
        <time>2014-07-12T09:25:30Z</time>
      </trkpt>
      <trkpt lat="45.883456114679575" lon="7.075838120654225">
        <ele>2379.8800000000001</ele>
        <time>2014-07-12T09:25:44Z</time>
      </trkpt>
      <trkpt lat="45.883454270660877" lon="7.075956640765071">
        <ele>2382.7600000000002</ele>
        <time>2014-07-12T09:26:00Z</time>
      </trkpt>
      <trkpt lat="45.883449828252196" lon="7.076007602736354">
        <ele>2382.7600000000002</ele>
        <time>2014-07-12T09:26:13Z</time>
      </trkpt>
      <trkpt lat="45.883450331166387" lon="7.076011709868908">
        <ele>2384.21</ele>
        <time>2014-07-12T09:26:15Z</time>
      </trkpt>
      <trkpt lat="45.88347002863884" lon="7.076087314635515">
        <ele>2385.1700000000001</ele>
        <time>2014-07-12T09:26:30Z</time>
      </trkpt>
      <trkpt lat="45.883500287309289" lon="7.076076753437519">
        <ele>2388.5300000000002</ele>
        <time>2014-07-12T09:26:39Z</time>
      </trkpt>
      <trkpt lat="45.883533647283912" lon="7.076153447851539">
        <ele>2390.9400000000001</ele>
        <time>2014-07-12T09:26:54Z</time>
      </trkpt>
      <trkpt lat="45.883560469374061" lon="7.076141880825162">
        <ele>2391.9000000000001</ele>
        <time>2014-07-12T09:27:08Z</time>
      </trkpt>
      <trkpt lat="45.883580753579736" lon="7.076060492545366">
        <ele>2394.7800000000002</ele>
        <time>2014-07-12T09:27:18Z</time>
      </trkpt>
      <trkpt lat="45.883632050827146" lon="7.076084380969405">
        <ele>2397.6700000000001</ele>
        <time>2014-07-12T09:27:32Z</time>
      </trkpt>
      <trkpt lat="45.8836361579597" lon="7.076144311577082">
        <ele>2399.1100000000001</ele>
        <time>2014-07-12T09:27:39Z</time>
      </trkpt>
      <trkpt lat="45.88369089178741" lon="7.076177587732673">
        <ele>2398.6300000000001</ele>
        <time>2014-07-12T09:27:52Z</time>
      </trkpt>
      <trkpt lat="45.883746799081564" lon="7.076216312125325">
        <ele>2400.0700000000002</ele>
        <time>2014-07-12T09:28:06Z</time>
      </trkpt>
      <trkpt lat="45.883761886507273" lon="7.076189154759049">
        <ele>2400.5500000000002</ele>
        <time>2014-07-12T09:28:19Z</time>
      </trkpt>
      <trkpt lat="45.883805556222796" lon="7.076214384287596">
        <ele>2402.9499999999998</ele>
        <time>2014-07-12T09:28:32Z</time>
      </trkpt>
      <trkpt lat="45.883838580921292" lon="7.076162919402123">
        <ele>2405.3600000000001</ele>
        <time>2014-07-12T09:28:49Z</time>
      </trkpt>
      <trkpt lat="45.883885938674212" lon="7.076156800612807">
        <ele>2408.7199999999998</ele>
        <time>2014-07-12T09:29:01Z</time>
      </trkpt>
      <trkpt lat="45.883952993899584" lon="7.076099636033177">
        <ele>2410.6399999999999</ele>
        <time>2014-07-12T09:29:18Z</time>
      </trkpt>
      <trkpt lat="45.883992807939649" lon="7.076065270230174">
        <ele>2414.4899999999998</ele>
        <time>2014-07-12T09:29:29Z</time>
      </trkpt>
      <trkpt lat="45.883991718292236" lon="7.07604305818677">
        <ele>2412.5700000000002</ele>
        <time>2014-07-12T09:29:34Z</time>
      </trkpt>
      <trkpt lat="45.884064137935638" lon="7.0759292319417">
        <ele>2415.4499999999998</ele>
        <time>2014-07-12T09:29:50Z</time>
      </trkpt>
      <trkpt lat="45.884143179282546" lon="7.07589553669095">
        <ele>2417.8499999999999</ele>
        <time>2014-07-12T09:30:06Z</time>
      </trkpt>
      <trkpt lat="45.884207468479872" lon="7.075872151181102">
        <ele>2419.3000000000002</ele>
        <time>2014-07-12T09:30:22Z</time>
      </trkpt>
      <trkpt lat="45.884276367723942" lon="7.075850358232856">
        <ele>2421.6999999999998</ele>
        <time>2014-07-12T09:30:37Z</time>
      </trkpt>
      <trkpt lat="45.884321546182036" lon="7.075804676860571">
        <ele>2424.0999999999999</ele>
        <time>2014-07-12T09:30:51Z</time>
      </trkpt>
      <trkpt lat="45.884412741288543" lon="7.075792439281941">
        <ele>2426.5</ele>
        <time>2014-07-12T09:31:07Z</time>
      </trkpt>
      <trkpt lat="45.884498739615083" lon="7.075741477310658">
        <ele>2428.9099999999999</ele>
        <time>2014-07-12T09:31:24Z</time>
      </trkpt>
      <trkpt lat="45.884564369916916" lon="7.075682720169425">
        <ele>2431.3099999999999</ele>
        <time>2014-07-12T09:31:39Z</time>
      </trkpt>
      <trkpt lat="45.884624971076846" lon="7.075653802603483">
        <ele>2432.75</ele>
        <time>2014-07-12T09:31:53Z</time>
      </trkpt>
      <trkpt lat="45.884688757359982" lon="7.075626561418176">
        <ele>2434.6799999999998</ele>
        <time>2014-07-12T09:32:05Z</time>
      </trkpt>
      <trkpt lat="45.8847551420331" lon="7.075542490929365">
        <ele>2436.5999999999999</ele>
        <time>2014-07-12T09:32:20Z</time>
      </trkpt>
      <trkpt lat="45.884809540584683" lon="7.075490858405829">
        <ele>2438.52</ele>
        <time>2014-07-12T09:32:36Z</time>
      </trkpt>
      <trkpt lat="45.884868884459138" lon="7.075431346893311">
        <ele>2440.4400000000001</ele>
        <time>2014-07-12T09:32:50Z</time>
      </trkpt>
      <trkpt lat="45.884915487840772" lon="7.07540787756443">
        <ele>2442.3699999999999</ele>
        <time>2014-07-12T09:33:05Z</time>
      </trkpt>
      <trkpt lat="45.884989500045776" lon="7.075336631387472">
        <ele>2445.25</ele>
        <time>2014-07-12T09:33:21Z</time>
      </trkpt>
      <trkpt lat="45.885040713474154" lon="7.075304863974452">
        <ele>2447.1700000000001</ele>
        <time>2014-07-12T09:33:36Z</time>
      </trkpt>
      <trkpt lat="45.885111205279827" lon="7.075257673859596">
        <ele>2449.0999999999999</ele>
        <time>2014-07-12T09:33:53Z</time>
      </trkpt>
      <trkpt lat="45.885173231363297" lon="7.075179554522038">
        <ele>2451.5</ele>
        <time>2014-07-12T09:34:08Z</time>
      </trkpt>
      <trkpt lat="45.885246070101857" lon="7.07514401525259">
        <ele>2453.9000000000001</ele>
        <time>2014-07-12T09:34:24Z</time>
      </trkpt>
      <trkpt lat="45.885314466431737" lon="7.075113924220204">
        <ele>2455.3400000000001</ele>
        <time>2014-07-12T09:34:38Z</time>
      </trkpt>
      <trkpt lat="45.885386550799012" lon="7.07508048042655">
        <ele>2457.27</ele>
        <time>2014-07-12T09:34:54Z</time>
      </trkpt>
      <trkpt lat="45.885430555790663" lon="7.075058771297336">
        <ele>2461.1100000000001</ele>
        <time>2014-07-12T09:35:03Z</time>
      </trkpt>
      <trkpt lat="45.885490067303181" lon="7.075044438242912">
        <ele>2461.1100000000001</ele>
        <time>2014-07-12T09:35:21Z</time>
      </trkpt>
      <trkpt lat="45.885545304045081" lon="7.075033625587821">
        <ele>2463.04</ele>
        <time>2014-07-12T09:35:35Z</time>
      </trkpt>
      <trkpt lat="45.885564750060439" lon="7.075089951977134">
        <ele>2461.5900000000001</ele>
        <time>2014-07-12T09:35:42Z</time>
      </trkpt>
      <trkpt lat="45.885586543008685" lon="7.075218111276627">
        <ele>2462.5500000000002</ele>
        <time>2014-07-12T09:35:55Z</time>
      </trkpt>
      <trkpt lat="45.885596182197332" lon="7.075282065197825">
        <ele>2465.4400000000001</ele>
        <time>2014-07-12T09:36:07Z</time>
      </trkpt>
      <trkpt lat="45.885629709810019" lon="7.075352473184466">
        <ele>2466.4000000000001</ele>
        <time>2014-07-12T09:36:21Z</time>
      </trkpt>
      <trkpt lat="45.885618478059769" lon="7.075460515916348">
        <ele>2468.8000000000002</ele>
        <time>2014-07-12T09:36:32Z</time>
      </trkpt>
      <trkpt lat="45.88562685996294" lon="7.075597476214171">
        <ele>2469.7600000000002</ele>
        <time>2014-07-12T09:36:49Z</time>
      </trkpt>
      <trkpt lat="45.885644881054759" lon="7.075725719332695">
        <ele>2471.6900000000001</ele>
        <time>2014-07-12T09:37:04Z</time>
      </trkpt>
      <trkpt lat="45.885632308200002" lon="7.075802749022842">
        <ele>2472.6500000000001</ele>
        <time>2014-07-12T09:37:20Z</time>
      </trkpt>
      <trkpt lat="45.885630631819367" lon="7.075890926644206">
        <ele>2476.4899999999998</ele>
        <time>2014-07-12T09:37:32Z</time>
      </trkpt>
      <trkpt lat="45.885661896318197" lon="7.075949516147375">
        <ele>2476.9699999999998</ele>
        <time>2014-07-12T09:37:48Z</time>
      </trkpt>
      <trkpt lat="45.885718977078795" lon="7.07606409676373">
        <ele>2478.9000000000001</ele>
        <time>2014-07-12T09:38:04Z</time>
      </trkpt>
      <trkpt lat="45.885767843574286" lon="7.076142886653543">
        <ele>2482.2600000000002</ele>
        <time>2014-07-12T09:38:20Z</time>
      </trkpt>
      <trkpt lat="45.885802712291479" lon="7.076260652393103">
        <ele>2483.2199999999998</ele>
        <time>2014-07-12T09:38:36Z</time>
      </trkpt>
      <trkpt lat="45.885807741433382" lon="7.076304322108626">
        <ele>2484.6599999999999</ele>
        <time>2014-07-12T09:38:40Z</time>
      </trkpt>
      <trkpt lat="45.885857362300158" lon="7.076406246051192">
        <ele>2486.5900000000001</ele>
        <time>2014-07-12T09:38:56Z</time>
      </trkpt>
      <trkpt lat="45.885854009538889" lon="7.076454106718302">
        <ele>2488.0300000000002</ele>
        <time>2014-07-12T09:39:09Z</time>
      </trkpt>
      <trkpt lat="45.885875131934881" lon="7.076545301824808">
        <ele>2489.4699999999998</ele>
        <time>2014-07-12T09:39:25Z</time>
      </trkpt>
      <trkpt lat="45.885905139148235" lon="7.076620236039162">
        <ele>2491.8699999999999</ele>
        <time>2014-07-12T09:39:39Z</time>
      </trkpt>
      <trkpt lat="45.885961046442389" lon="7.076706402003765">
        <ele>2494.2800000000002</ele>
        <time>2014-07-12T09:39:55Z</time>
      </trkpt>
      <trkpt lat="45.886012427508831" lon="7.076751496642828">
        <ele>2496.6799999999998</ele>
        <time>2014-07-12T09:40:08Z</time>
      </trkpt>
      <trkpt lat="45.886035058647394" lon="7.076845206320286">
        <ele>2498.5999999999999</ele>
        <time>2014-07-12T09:40:25Z</time>
      </trkpt>
      <trkpt lat="45.886065736413002" lon="7.076963055878878">
        <ele>2501.0100000000002</ele>
        <time>2014-07-12T09:40:40Z</time>
      </trkpt>
      <trkpt lat="45.886067831888795" lon="7.077040085569024">
        <ele>2502.4499999999998</ele>
        <time>2014-07-12T09:40:52Z</time>
      </trkpt>
      <trkpt lat="45.886115692555904" lon="7.07712977193296">
        <ele>2505.3299999999999</ele>
        <time>2014-07-12T09:41:07Z</time>
      </trkpt>
      <trkpt lat="45.886166235432029" lon="7.077184170484543">
        <ele>2507.7399999999998</ele>
        <time>2014-07-12T09:41:17Z</time>
      </trkpt>
      <trkpt lat="45.886210408061743" lon="7.077187020331621">
        <ele>2507.7399999999998</ele>
        <time>2014-07-12T09:41:26Z</time>
      </trkpt>
      <trkpt lat="45.886308727785945" lon="7.077230187132955">
        <ele>2510.1399999999999</ele>
        <time>2014-07-12T09:41:42Z</time>
      </trkpt>
      <trkpt lat="45.886407298967242" lon="7.077261283993721">
        <ele>2512.0599999999999</ele>
        <time>2014-07-12T09:41:57Z</time>
      </trkpt>
      <trkpt lat="45.886448789387941" lon="7.077271593734622">
        <ele>2513.5</ele>
        <time>2014-07-12T09:42:03Z</time>
      </trkpt>
      <trkpt lat="45.886561693623662" lon="7.077324064448476">
        <ele>2513.02</ele>
        <time>2014-07-12T09:42:16Z</time>
      </trkpt>
      <trkpt lat="45.886599076911807" lon="7.077342169359326">
        <ele>2513.02</ele>
        <time>2014-07-12T09:42:21Z</time>
      </trkpt>
      <trkpt lat="45.886699575930834" lon="7.077413834631443">
        <ele>2513.5</ele>
        <time>2014-07-12T09:42:35Z</time>
      </trkpt>
      <trkpt lat="45.886821281164885" lon="7.077460354194045">
        <ele>2513.5</ele>
        <time>2014-07-12T09:42:50Z</time>
      </trkpt>
      <trkpt lat="45.886929742991924" lon="7.077499330043793">
        <ele>2514.4699999999998</ele>
        <time>2014-07-12T09:43:03Z</time>
      </trkpt>
      <trkpt lat="45.88702186010778" lon="7.077535623684526">
        <ele>2516.8699999999999</ele>
        <time>2014-07-12T09:43:16Z</time>
      </trkpt>
      <trkpt lat="45.887166196480393" lon="7.07756906747818">
        <ele>2517.3499999999999</ele>
        <time>2014-07-12T09:43:32Z</time>
      </trkpt>
      <trkpt lat="45.887288153171539" lon="7.077633859589696">
        <ele>2517.3499999999999</ele>
        <time>2014-07-12T09:43:46Z</time>
      </trkpt>
      <trkpt lat="45.887389155104756" lon="7.077641654759646">
        <ele>2518.3099999999999</ele>
        <time>2014-07-12T09:44:00Z</time>
      </trkpt>
      <trkpt lat="45.887502562254667" lon="7.077666213735938">
        <ele>2519.75</ele>
        <time>2014-07-12T09:44:16Z</time>
      </trkpt>
      <trkpt lat="45.887650586664677" lon="7.077719019725919">
        <ele>2521.1900000000001</ele>
        <time>2014-07-12T09:44:32Z</time>
      </trkpt>
      <trkpt lat="45.887691155076027" lon="7.077727569267154">
        <ele>2522.6399999999999</ele>
        <time>2014-07-12T09:44:38Z</time>
      </trkpt>
      <trkpt lat="45.887723006308079" lon="7.077738046646118">
        <ele>2523.1199999999999</ele>
        <time>2014-07-12T09:44:43Z</time>
      </trkpt>
      <trkpt lat="45.887799030169845" lon="7.07777769304812">
        <ele>2525.52</ele>
        <time>2014-07-12T09:44:55Z</time>
      </trkpt>
      <trkpt lat="45.887887207791209" lon="7.077834187075496">
        <ele>2526.48</ele>
        <time>2014-07-12T09:45:10Z</time>
      </trkpt>
      <trkpt lat="45.887919729575515" lon="7.077823709696531">
        <ele>2526</ele>
        <time>2014-07-12T09:45:15Z</time>
      </trkpt>
      <trkpt lat="45.888031711801887" lon="7.077789595350623">
        <ele>2526.48</ele>
        <time>2014-07-12T09:45:29Z</time>
      </trkpt>
      <trkpt lat="45.888069849461317" lon="7.07778942771256">
        <ele>2525.52</ele>
        <time>2014-07-12T09:45:34Z</time>
      </trkpt>
      <trkpt lat="45.888142352923751" lon="7.077773585915566">
        <ele>2528.8899999999999</ele>
        <time>2014-07-12T09:45:41Z</time>
      </trkpt>
      <trkpt lat="45.888189962133765" lon="7.077788840979338">
        <ele>2529.3699999999999</ele>
        <time>2014-07-12T09:45:47Z</time>
      </trkpt>
      <trkpt lat="45.888253580778837" lon="7.077798815444112">
        <ele>2529.8499999999999</ele>
        <time>2014-07-12T09:45:55Z</time>
      </trkpt>
      <trkpt lat="45.888353995978832" lon="7.077802754938602">
        <ele>2529.8499999999999</ele>
        <time>2014-07-12T09:46:11Z</time>
      </trkpt>
      <trkpt lat="45.888458183035254" lon="7.077829912304878">
        <ele>2531.77</ele>
        <time>2014-07-12T09:46:25Z</time>
      </trkpt>
      <trkpt lat="45.888469498604536" lon="7.077828655019403">
        <ele>2532.73</ele>
        <time>2014-07-12T09:46:27Z</time>
      </trkpt>
      <trkpt lat="45.888591790571809" lon="7.077796468511224">
        <ele>2534.6500000000001</ele>
        <time>2014-07-12T09:46:42Z</time>
      </trkpt>
      <trkpt lat="45.888687176629901" lon="7.077792696654797">
        <ele>2535.6100000000001</ele>
        <time>2014-07-12T09:46:55Z</time>
      </trkpt>
      <trkpt lat="45.88875163346529" lon="7.077790265902877">
        <ele>2536.5799999999999</ele>
        <time>2014-07-12T09:47:02Z</time>
      </trkpt>
      <trkpt lat="45.888765044510365" lon="7.077791523188353">
        <ele>2535.1300000000001</ele>
        <time>2014-07-12T09:47:04Z</time>
      </trkpt>
      <trkpt lat="45.888790860772133" lon="7.077798312529922">
        <ele>2536.5799999999999</ele>
        <time>2014-07-12T09:47:08Z</time>
      </trkpt>
      <trkpt lat="45.888852383941412" lon="7.077818345278502">
        <ele>2539.9400000000001</ele>
        <time>2014-07-12T09:47:17Z</time>
      </trkpt>
      <trkpt lat="45.888920109719038" lon="7.077853800728917">
        <ele>2540.4200000000001</ele>
        <time>2014-07-12T09:47:29Z</time>
      </trkpt>
      <trkpt lat="45.888981046155095" lon="7.077873833477497">
        <ele>2541.3800000000001</ele>
        <time>2014-07-12T09:47:45Z</time>
      </trkpt>
      <trkpt lat="45.888985320925713" lon="7.077885316684842">
        <ele>2541.8600000000001</ele>
        <time>2014-07-12T09:47:58Z</time>
      </trkpt>
      <trkpt lat="45.888996636494994" lon="7.077852543443441">
        <ele>2540.4200000000001</ele>
        <time>2014-07-12T09:48:07Z</time>
      </trkpt>
      <trkpt lat="45.888987667858601" lon="7.077845754101872">
        <ele>2542.3400000000001</ele>
        <time>2014-07-12T09:48:13Z</time>
      </trkpt>
      <trkpt lat="45.888950116932392" lon="7.07779529504478">
        <ele>2541.3800000000001</ele>
        <time>2014-07-12T09:48:20Z</time>
      </trkpt>
      <trkpt lat="45.888965036720037" lon="7.077811136841774">
        <ele>2540.9000000000001</ele>
        <time>2014-07-12T09:48:27Z</time>
      </trkpt>
      <trkpt lat="45.888981213793159" lon="7.077819937840104">
        <ele>2541.3800000000001</ele>
        <time>2014-07-12T09:48:46Z</time>
      </trkpt>
      <trkpt lat="45.888986410573125" lon="7.07780996337533">
        <ele>2540.4200000000001</ele>
        <time>2014-07-12T09:48:54Z</time>
      </trkpt>
      <trkpt lat="45.888987332582474" lon="7.077833516523242">
        <ele>2538.5</ele>
        <time>2014-07-12T09:48:57Z</time>
      </trkpt>
      <trkpt lat="45.889004515483975" lon="7.077842652797699">
        <ele>2540.9000000000001</ele>
        <time>2014-07-12T09:49:19Z</time>
      </trkpt>
      <trkpt lat="45.88900426402688" lon="7.077844999730587">
        <ele>2538.98</ele>
        <time>2014-07-12T09:49:25Z</time>
      </trkpt>
      <trkpt lat="45.88897442445159" lon="7.077837875112891">
        <ele>2540.9000000000001</ele>
        <time>2014-07-12T09:49:28Z</time>
      </trkpt>
      <trkpt lat="45.888953385874629" lon="7.07780753262341">
        <ele>2541.3800000000001</ele>
        <time>2014-07-12T09:49:40Z</time>
      </trkpt>
      <trkpt lat="45.888943579047918" lon="7.077810214832425">
        <ele>2541.3800000000001</ele>
        <time>2014-07-12T09:49:55Z</time>
      </trkpt>
      <trkpt lat="45.889011640101671" lon="7.077749278396368">
        <ele>2542.3400000000001</ele>
        <time>2014-07-12T09:50:12Z</time>
      </trkpt>
      <trkpt lat="45.889100572094321" lon="7.07773863337934">
        <ele>2544.75</ele>
        <time>2014-07-12T09:50:23Z</time>
      </trkpt>
      <trkpt lat="45.889118257910013" lon="7.077762857079506">
        <ele>2541.3800000000001</ele>
        <time>2014-07-12T09:50:25Z</time>
      </trkpt>
      <trkpt lat="45.889121107757092" lon="7.077759588137269">
        <ele>2539.46</ele>
        <time>2014-07-12T09:50:28Z</time>
      </trkpt>
      <trkpt lat="45.889115240424871" lon="7.077766293659806">
        <ele>2539.9400000000001</ele>
        <time>2014-07-12T09:50:31Z</time>
      </trkpt>
      <trkpt lat="45.889035612344742" lon="7.07787835970521">
        <ele>2537.54</ele>
        <time>2014-07-12T09:50:43Z</time>
      </trkpt>
      <trkpt lat="45.889037121087313" lon="7.077902499586344">
        <ele>2542.3400000000001</ele>
        <time>2014-07-12T09:50:46Z</time>
      </trkpt>
      <trkpt lat="45.889041312038898" lon="7.077900487929583">
        <ele>2542.3400000000001</ele>
        <time>2014-07-12T09:50:47Z</time>
      </trkpt>
      <trkpt lat="45.889033935964108" lon="7.077907612547278">
        <ele>2539.46</ele>
        <time>2014-07-12T09:50:50Z</time>
      </trkpt>
      <trkpt lat="45.889031253755093" lon="7.077919766306877">
        <ele>2538.02</ele>
        <time>2014-07-12T09:50:52Z</time>
      </trkpt>
      <trkpt lat="45.889051035046577" lon="7.077940134331584">
        <ele>2541.3800000000001</ele>
        <time>2014-07-12T09:50:55Z</time>
      </trkpt>
      <trkpt lat="45.889103505760431" lon="7.077987156808376">
        <ele>2538.02</ele>
        <time>2014-07-12T09:51:03Z</time>
      </trkpt>
      <trkpt lat="45.889113480225205" lon="7.07799562253058">
        <ele>2538.02</ele>
        <time>2014-07-12T09:51:04Z</time>
      </trkpt>
      <trkpt lat="45.889211716130376" lon="7.077974751591682">
        <ele>2537.0599999999999</ele>
        <time>2014-07-12T09:51:20Z</time>
      </trkpt>
      <trkpt lat="45.889214817434549" lon="7.077930746600032">
        <ele>2537.0599999999999</ele>
        <time>2014-07-12T09:51:23Z</time>
      </trkpt>
      <trkpt lat="45.889304503798485" lon="7.077790265902877">
        <ele>2539.9400000000001</ele>
        <time>2014-07-12T09:51:39Z</time>
      </trkpt>
      <trkpt lat="45.889354208484292" lon="7.077729161828756">
        <ele>2538.02</ele>
        <time>2014-07-12T09:51:52Z</time>
      </trkpt>
      <trkpt lat="45.889363344758749" lon="7.077726563438773">
        <ele>2537.54</ele>
        <time>2014-07-12T09:51:54Z</time>
      </trkpt>
      <trkpt lat="45.889485720545053" lon="7.077828906476498">
        <ele>2534.6500000000001</ele>
        <time>2014-07-12T09:52:07Z</time>
      </trkpt>
      <trkpt lat="45.889518996700644" lon="7.077872576192021">
        <ele>2532.73</ele>
        <time>2014-07-12T09:52:19Z</time>
      </trkpt>
      <trkpt lat="45.88952511548996" lon="7.077883640304208">
        <ele>2532.73</ele>
        <time>2014-07-12T09:52:20Z</time>
      </trkpt>
      <trkpt lat="45.889551686123013" lon="7.077960921451449">
        <ele>2529.3699999999999</ele>
        <time>2014-07-12T09:52:29Z</time>
      </trkpt>
      <trkpt lat="45.889564258977771" lon="7.077964609488845">
        <ele>2528.8899999999999</ele>
        <time>2014-07-12T09:52:31Z</time>
      </trkpt>
      <trkpt lat="45.889660902321339" lon="7.078011548146606">
        <ele>2525.52</ele>
        <time>2014-07-12T09:52:42Z</time>
      </trkpt>
      <trkpt lat="45.889672553166747" lon="7.078018672764301">
        <ele>2525.52</ele>
        <time>2014-07-12T09:52:43Z</time>
      </trkpt>
      <trkpt lat="45.889779506251216" lon="7.078019678592682">
        <ele>2523.1199999999999</ele>
        <time>2014-07-12T09:52:59Z</time>
      </trkpt>
      <trkpt lat="45.889784200116992" lon="7.077994113788009">
        <ele>2523.1199999999999</ele>
        <time>2014-07-12T09:53:11Z</time>
      </trkpt>
      <trkpt lat="45.889761066064239" lon="7.077998220920563">
        <ele>2522.6399999999999</ele>
        <time>2014-07-12T09:53:33Z</time>
      </trkpt>
      <trkpt lat="45.889780092984438" lon="7.078009871765971">
        <ele>2523.1199999999999</ele>
        <time>2014-07-12T09:53:58Z</time>
      </trkpt>
      <trkpt lat="45.889785373583436" lon="7.078014984726906">
        <ele>2523.1199999999999</ele>
        <time>2014-07-12T09:54:17Z</time>
      </trkpt>
      <trkpt lat="45.889772716909647" lon="7.078005680814385">
        <ele>2523.1199999999999</ele>
        <time>2014-07-12T09:54:41Z</time>
      </trkpt>
      <trkpt lat="45.889773974195123" lon="7.077987575903535">
        <ele>2523.5999999999999</ele>
        <time>2014-07-12T09:55:01Z</time>
      </trkpt>
      <trkpt lat="45.889764167368412" lon="7.078005596995354">
        <ele>2523.5999999999999</ele>
        <time>2014-07-12T09:55:26Z</time>
      </trkpt>
      <trkpt lat="45.889764670282602" lon="7.077995957806706">
        <ele>2523.1199999999999</ele>
        <time>2014-07-12T09:55:45Z</time>
      </trkpt>
      <trkpt lat="45.889780009165406" lon="7.077983301132917">
        <ele>2523.5999999999999</ele>
        <time>2014-07-12T09:56:04Z</time>
      </trkpt>
      <trkpt lat="45.889777997508645" lon="7.078007608652115">
        <ele>2524.0799999999999</ele>
        <time>2014-07-12T09:56:25Z</time>
      </trkpt>
      <trkpt lat="45.889795264229178" lon="7.078002747148275">
        <ele>2523.5999999999999</ele>
        <time>2014-07-12T09:56:46Z</time>
      </trkpt>
      <trkpt lat="45.889791576191783" lon="7.078001406043768">
        <ele>2523.5999999999999</ele>
        <time>2014-07-12T09:57:06Z</time>
      </trkpt>
      <trkpt lat="45.889792246744037" lon="7.078006267547607">
        <ele>2523.5999999999999</ele>
        <time>2014-07-12T09:57:31Z</time>
      </trkpt>
      <trkpt lat="45.889792330563068" lon="7.078016409650445">
        <ele>2524.0799999999999</ele>
        <time>2014-07-12T09:57:52Z</time>
      </trkpt>
      <trkpt lat="45.889780428260565" lon="7.077971566468477">
        <ele>2524.0799999999999</ele>
        <time>2014-07-12T09:58:16Z</time>
      </trkpt>
      <trkpt lat="45.889793839305639" lon="7.077985061332583">
        <ele>2523.5999999999999</ele>
        <time>2014-07-12T09:58:41Z</time>
      </trkpt>
      <trkpt lat="45.889773136004806" lon="7.078003501519561">
        <ele>2523.5999999999999</ele>
        <time>2014-07-12T09:58:59Z</time>
      </trkpt>
      <trkpt lat="45.889773890376091" lon="7.078000735491514">
        <ele>2524.0799999999999</ele>
        <time>2014-07-12T09:59:19Z</time>
      </trkpt>
      <trkpt lat="45.889782775193453" lon="7.078000986948609">
        <ele>2524.0799999999999</ele>
        <time>2014-07-12T09:59:38Z</time>
      </trkpt>
      <trkpt lat="45.889782523736358" lon="7.078000148758292">
        <ele>2524.0799999999999</ele>
        <time>2014-07-12T09:59:57Z</time>
      </trkpt>
      <trkpt lat="45.88976894505322" lon="7.07800542935729">
        <ele>2524.0799999999999</ele>
        <time>2014-07-12T10:00:17Z</time>
      </trkpt>
      <trkpt lat="45.889782942831516" lon="7.078009536489844">
        <ele>2523.5999999999999</ele>
        <time>2014-07-12T10:00:37Z</time>
      </trkpt>
      <trkpt lat="45.889782523736358" lon="7.07801565527916">
        <ele>2523.5999999999999</ele>
        <time>2014-07-12T10:00:55Z</time>
      </trkpt>
      <trkpt lat="45.889785457402468" lon="7.077998975291848">
        <ele>2524.5599999999999</ele>
        <time>2014-07-12T10:01:17Z</time>
      </trkpt>
      <trkpt lat="45.889778668060899" lon="7.078012134879828">
        <ele>2524.0799999999999</ele>
        <time>2014-07-12T10:01:40Z</time>
      </trkpt>
      <trkpt lat="45.88978067971766" lon="7.078014062717557">
        <ele>2522.6399999999999</ele>
        <time>2014-07-12T10:02:04Z</time>
      </trkpt>
      <trkpt lat="45.889781937003136" lon="7.078013308346272">
        <ele>2524.5599999999999</ele>
        <time>2014-07-12T10:02:19Z</time>
      </trkpt>
      <trkpt lat="45.889783278107643" lon="7.078016493469477">
        <ele>2524.0799999999999</ele>
        <time>2014-07-12T10:02:35Z</time>
      </trkpt>
      <trkpt lat="45.889776153489947" lon="7.078025294467807">
        <ele>2524.5599999999999</ele>
        <time>2014-07-12T10:02:55Z</time>
      </trkpt>
      <trkpt lat="45.889791995286942" lon="7.078032670542598">
        <ele>2523.5999999999999</ele>
        <time>2014-07-12T10:03:19Z</time>
      </trkpt>
      <trkpt lat="45.889865085482597" lon="7.078082459047437">
        <ele>2523.5999999999999</ele>
        <time>2014-07-12T10:03:32Z</time>
      </trkpt>
      <trkpt lat="45.889966255053878" lon="7.078053876757622">
        <ele>2521.6799999999998</ele>
        <time>2014-07-12T10:03:47Z</time>
      </trkpt>
      <trkpt lat="45.889984108507633" lon="7.078050943091512">
        <ele>2521.1900000000001</ele>
        <time>2014-07-12T10:03:49Z</time>
      </trkpt>
      <trkpt lat="45.889999782666564" lon="7.078050021082163">
        <ele>2521.1900000000001</ele>
        <time>2014-07-12T10:03:51Z</time>
      </trkpt>
      <trkpt lat="45.890052672475576" lon="7.07807625643909">
        <ele>2521.6799999999998</ele>
        <time>2014-07-12T10:04:00Z</time>
      </trkpt>
      <trkpt lat="45.890164319425821" lon="7.078069886192679">
        <ele>2521.1900000000001</ele>
        <time>2014-07-12T10:04:11Z</time>
      </trkpt>
      <trkpt lat="45.890310667455196" lon="7.07806452177465">
        <ele>2517.8299999999999</ele>
        <time>2014-07-12T10:04:25Z</time>
      </trkpt>
      <trkpt lat="45.890319049358368" lon="7.078065443783999">
        <ele>2517.8299999999999</ele>
        <time>2014-07-12T10:04:26Z</time>
      </trkpt>
      <trkpt lat="45.89044569991529" lon="7.078014900907874">
        <ele>2516.8699999999999</ele>
        <time>2014-07-12T10:04:38Z</time>
      </trkpt>
      <trkpt lat="45.890550306066871" lon="7.078026551753283">
        <ele>2517.3499999999999</ele>
        <time>2014-07-12T10:04:48Z</time>
      </trkpt>
      <trkpt lat="45.890630101785064" lon="7.078056139871478">
        <ele>2515.9099999999999</ele>
        <time>2014-07-12T10:04:55Z</time>
      </trkpt>
      <trkpt lat="45.890758177265525" lon="7.078207014128566">
        <ele>2513.98</ele>
        <time>2014-07-12T10:05:10Z</time>
      </trkpt>
      <trkpt lat="45.890875943005085" lon="7.07832251675427">
        <ele>2513.5</ele>
        <time>2014-07-12T10:05:25Z</time>
      </trkpt>
      <trkpt lat="45.891034612432122" lon="7.078462913632393">
        <ele>2512.0599999999999</ele>
        <time>2014-07-12T10:05:44Z</time>
      </trkpt>
      <trkpt lat="45.891088843345642" lon="7.078519156202674">
        <ele>2510.6199999999999</ele>
        <time>2014-07-12T10:05:52Z</time>
      </trkpt>
      <trkpt lat="45.891139470040798" lon="7.078641280531883">
        <ele>2511.0999999999999</ele>
        <time>2014-07-12T10:06:01Z</time>
      </trkpt>
      <trkpt lat="45.891169980168343" lon="7.078653685748577">
        <ele>2510.6199999999999</ele>
        <time>2014-07-12T10:06:04Z</time>
      </trkpt>
      <trkpt lat="45.891232173889875" lon="7.07865821197629">
        <ele>2510.6199999999999</ele>
        <time>2014-07-12T10:06:11Z</time>
      </trkpt>
      <trkpt lat="45.89133158326149" lon="7.07869341596961">
        <ele>2509.1799999999998</ele>
        <time>2014-07-12T10:06:28Z</time>
      </trkpt>
      <trkpt lat="45.89131255634129" lon="7.078778659924865">
        <ele>2508.2199999999998</ele>
        <time>2014-07-12T10:06:35Z</time>
      </trkpt>
      <trkpt lat="45.891291769221425" lon="7.078845966607332">
        <ele>2506.29</ele>
        <time>2014-07-12T10:06:41Z</time>
      </trkpt>
      <trkpt lat="45.891310377046466" lon="7.078929366543889">
        <ele>2505.8099999999999</ele>
        <time>2014-07-12T10:06:46Z</time>
      </trkpt>
      <trkpt lat="45.891385897994041" lon="7.079164395108819">
        <ele>2502.9299999999998</ele>
        <time>2014-07-12T10:07:03Z</time>
      </trkpt>
      <trkpt lat="45.891416324302554" lon="7.079380815848708">
        <ele>2501.4899999999998</ele>
        <time>2014-07-12T10:07:17Z</time>
      </trkpt>
      <trkpt lat="45.891486732289195" lon="7.079567145556212">
        <ele>2499.5700000000002</ele>
        <time>2014-07-12T10:07:31Z</time>
      </trkpt>
      <trkpt lat="45.891516068950295" lon="7.079588770866394">
        <ele>2498.5999999999999</ele>
        <time>2014-07-12T10:07:34Z</time>
      </trkpt>
      <trkpt lat="45.89160131290555" lon="7.079681977629662">
        <ele>2497.6399999999999</ele>
        <time>2014-07-12T10:07:50Z</time>
      </trkpt>
      <trkpt lat="45.891634086146951" lon="7.079697232693434">
        <ele>2497.1599999999999</ele>
        <time>2014-07-12T10:07:56Z</time>
      </trkpt>
      <trkpt lat="45.891630398109555" lon="7.079797312617302">
        <ele>2497.1599999999999</ele>
        <time>2014-07-12T10:08:05Z</time>
      </trkpt>
      <trkpt lat="45.891675828024745" lon="7.080019768327475">
        <ele>2495.2399999999998</ele>
        <time>2014-07-12T10:08:21Z</time>
      </trkpt>
      <trkpt lat="45.891726287081838" lon="7.080190340057015">
        <ele>2492.8400000000001</ele>
        <time>2014-07-12T10:08:33Z</time>
      </trkpt>
      <trkpt lat="45.891776578500867" lon="7.080371556803584">
        <ele>2491.3899999999999</ele>
        <time>2014-07-12T10:08:47Z</time>
      </trkpt>
      <trkpt lat="45.891848411411047" lon="7.080595940351486">
        <ele>2490.4299999999998</ele>
        <time>2014-07-12T10:09:03Z</time>
      </trkpt>
      <trkpt lat="45.891948072239757" lon="7.080842535942793">
        <ele>2488.5100000000002</ele>
        <time>2014-07-12T10:09:19Z</time>
      </trkpt>
      <trkpt lat="45.89199660345912" lon="7.081061722710729">
        <ele>2487.0700000000002</ele>
        <time>2014-07-12T10:09:34Z</time>
      </trkpt>
      <trkpt lat="45.892063407227397" lon="7.081135818734765">
        <ele>2485.1500000000001</ele>
        <time>2014-07-12T10:09:46Z</time>
      </trkpt>
      <trkpt lat="45.892078410834074" lon="7.081157108768821">
        <ele>2485.1500000000001</ele>
        <time>2014-07-12T10:09:48Z</time>
      </trkpt>
      <trkpt lat="45.89208553545177" lon="7.081290381029248">
        <ele>2484.6599999999999</ele>
        <time>2014-07-12T10:10:03Z</time>
      </trkpt>
      <trkpt lat="45.892110597342253" lon="7.081399513408542">
        <ele>2485.6300000000001</ele>
        <time>2014-07-12T10:10:12Z</time>
      </trkpt>
      <trkpt lat="45.892062233760953" lon="7.081489283591509">
        <ele>2486.5900000000001</ele>
        <time>2014-07-12T10:10:23Z</time>
      </trkpt>
      <trkpt lat="45.892055779695511" lon="7.081515770405531">
        <ele>2486.5900000000001</ele>
        <time>2014-07-12T10:10:25Z</time>
      </trkpt>
      <trkpt lat="45.892170444130898" lon="7.081766473129392">
        <ele>2486.5900000000001</ele>
        <time>2014-07-12T10:10:43Z</time>
      </trkpt>
      <trkpt lat="45.892187627032399" lon="7.08185775205493">
        <ele>2486.1100000000001</ele>
        <time>2014-07-12T10:10:51Z</time>
      </trkpt>
      <trkpt lat="45.892193326726556" lon="7.081878539174795">
        <ele>2486.1100000000001</ele>
        <time>2014-07-12T10:10:53Z</time>
      </trkpt>
      <trkpt lat="45.892198355868459" lon="7.082012062892318">
        <ele>2483.6999999999998</ele>
        <time>2014-07-12T10:11:06Z</time>
      </trkpt>
      <trkpt lat="45.89212903752923" lon="7.082117171958089">
        <ele>2483.2199999999998</ele>
        <time>2014-07-12T10:11:16Z</time>
      </trkpt>
      <trkpt lat="45.892103388905525" lon="7.082274919375777">
        <ele>2481.7800000000002</ele>
        <time>2014-07-12T10:11:29Z</time>
      </trkpt>
      <trkpt lat="45.892137251794338" lon="7.082448424771428">
        <ele>2478.4200000000001</ele>
        <time>2014-07-12T10:11:43Z</time>
      </trkpt>
      <trkpt lat="45.892096264287829" lon="7.082577254623175">
        <ele>2476.4899999999998</ele>
        <time>2014-07-12T10:11:56Z</time>
      </trkpt>
      <trkpt lat="45.892133815214038" lon="7.082642046734691">
        <ele>2476.0100000000002</ele>
        <time>2014-07-12T10:12:01Z</time>
      </trkpt>
      <trkpt lat="45.89220673777163" lon="7.082793926820159">
        <ele>2473.6100000000001</ele>
        <time>2014-07-12T10:12:16Z</time>
      </trkpt>
      <trkpt lat="45.892229620367289" lon="7.082838853821158">
        <ele>2474.0900000000001</ele>
        <time>2014-07-12T10:12:20Z</time>
      </trkpt>
      <trkpt lat="45.892219562083483" lon="7.082970114424825">
        <ele>2474.0900000000001</ele>
        <time>2014-07-12T10:12:30Z</time>
      </trkpt>
      <trkpt lat="45.892190476879478" lon="7.083016633987427">
        <ele>2473.1300000000001</ele>
        <time>2014-07-12T10:12:35Z</time>
      </trkpt>
      <trkpt lat="45.89226147159934" lon="7.083066673949361">
        <ele>2472.1700000000001</ele>
        <time>2014-07-12T10:12:42Z</time>
      </trkpt>
      <trkpt lat="45.892319139093161" lon="7.083137081936002">
        <ele>2470.73</ele>
        <time>2014-07-12T10:12:49Z</time>
      </trkpt>
      <trkpt lat="45.892318887636065" lon="7.083239760249853">
        <ele>2469.7600000000002</ele>
        <time>2014-07-12T10:12:57Z</time>
      </trkpt>
      <trkpt lat="45.892299609258771" lon="7.083357106894255">
        <ele>2467.3600000000001</ele>
        <time>2014-07-12T10:13:09Z</time>
      </trkpt>
      <trkpt lat="45.892313104122877" lon="7.083515943959355">
        <ele>2464.96</ele>
        <time>2014-07-12T10:13:17Z</time>
      </trkpt>
      <trkpt lat="45.892277900129557" lon="7.083605462685227">
        <ele>2463.52</ele>
        <time>2014-07-12T10:13:23Z</time>
      </trkpt>
      <trkpt lat="45.89225459843874" lon="7.083736890926957">
        <ele>2462.0700000000002</ele>
        <time>2014-07-12T10:13:32Z</time>
      </trkpt>
      <trkpt lat="45.892269434407353" lon="7.083807466551662">
        <ele>2461.5900000000001</ele>
        <time>2014-07-12T10:13:38Z</time>
      </trkpt>
      <trkpt lat="45.892271446064115" lon="7.083902349695563">
        <ele>2461.1100000000001</ele>
        <time>2014-07-12T10:13:45Z</time>
      </trkpt>
      <trkpt lat="45.892263818532228" lon="7.083999831229448">
        <ele>2461.1100000000001</ele>
        <time>2014-07-12T10:13:51Z</time>
      </trkpt>
      <trkpt lat="45.892258286476135" lon="7.084058588370681">
        <ele>2460.1500000000001</ele>
        <time>2014-07-12T10:13:55Z</time>
      </trkpt>
      <trkpt lat="45.89220087043941" lon="7.084189094603062">
        <ele>2459.1900000000001</ele>
        <time>2014-07-12T10:14:05Z</time>
      </trkpt>
      <trkpt lat="45.89217790402472" lon="7.084191357716918">
        <ele>2458.71</ele>
        <time>2014-07-12T10:14:07Z</time>
      </trkpt>
      <trkpt lat="45.892016971483827" lon="7.08427551202476">
        <ele>2458.23</ele>
        <time>2014-07-12T10:14:21Z</time>
      </trkpt>
      <trkpt lat="45.891940360888839" lon="7.084328653290868">
        <ele>2457.75</ele>
        <time>2014-07-12T10:14:28Z</time>
      </trkpt>
      <trkpt lat="45.89180164039135" lon="7.084443904459477">
        <ele>2455.3400000000001</ele>
        <time>2014-07-12T10:14:42Z</time>
      </trkpt>
      <trkpt lat="45.891717234626412" lon="7.084603244438767">
        <ele>2452.9400000000001</ele>
        <time>2014-07-12T10:14:55Z</time>
      </trkpt>
      <trkpt lat="45.891643976792693" lon="7.084778174757958">
        <ele>2449.5799999999999</ele>
        <time>2014-07-12T10:15:09Z</time>
      </trkpt>
      <trkpt lat="45.891627883538604" lon="7.084845313802362">
        <ele>2448.6199999999999</ele>
        <time>2014-07-12T10:15:13Z</time>
      </trkpt>
      <trkpt lat="45.891548674553633" lon="7.084981687366962">
        <ele>2446.6900000000001</ele>
        <time>2014-07-12T10:15:24Z</time>
      </trkpt>
      <trkpt lat="45.891494946554303" lon="7.085119988769293">
        <ele>2443.8099999999999</ele>
        <time>2014-07-12T10:15:34Z</time>
      </trkpt>
      <trkpt lat="45.891430238261819" lon="7.085365075618029">
        <ele>2441.8899999999999</ele>
        <time>2014-07-12T10:15:49Z</time>
      </trkpt>
      <trkpt lat="45.891443900763988" lon="7.085451325401664">
        <ele>2441.4099999999999</ele>
        <time>2014-07-12T10:15:54Z</time>
      </trkpt>
      <trkpt lat="45.891476506367326" lon="7.085561631247401">
        <ele>2439</ele>
        <time>2014-07-12T10:16:01Z</time>
      </trkpt>
      <trkpt lat="45.891559738665819" lon="7.085671350359917">
        <ele>2436.1199999999999</ele>
        <time>2014-07-12T10:16:12Z</time>
      </trkpt>
      <trkpt lat="45.8916125446558" lon="7.085789954289794">
        <ele>2433.23</ele>
        <time>2014-07-12T10:16:21Z</time>
      </trkpt>
      <trkpt lat="45.891618579626083" lon="7.085818285122514">
        <ele>2432.75</ele>
        <time>2014-07-12T10:16:30Z</time>
      </trkpt>
      <trkpt lat="45.891730478033423" lon="7.085965722799301">
        <ele>2429.8699999999999</ele>
        <time>2014-07-12T10:16:44Z</time>
      </trkpt>
      <trkpt lat="45.891747660934925" lon="7.085989024490118">
        <ele>2429.3899999999999</ele>
        <time>2014-07-12T10:16:57Z</time>
      </trkpt>
      <trkpt lat="45.891746655106544" lon="7.085981229320169">
        <ele>2429.3899999999999</ele>
        <time>2014-07-12T10:17:03Z</time>
      </trkpt>
      <trkpt lat="45.891750510782003" lon="7.086152220144868">
        <ele>2429.3899999999999</ele>
        <time>2014-07-12T10:17:13Z</time>
      </trkpt>
      <trkpt lat="45.891849668696523" lon="7.086317427456379">
        <ele>2426.5</ele>
        <time>2014-07-12T10:17:27Z</time>
      </trkpt>
      <trkpt lat="45.891907503828406" lon="7.086526975035667">
        <ele>2425.0599999999999</ele>
        <time>2014-07-12T10:17:40Z</time>
      </trkpt>
      <trkpt lat="45.891994507983327" lon="7.086755633354187">
        <ele>2422.6599999999999</ele>
        <time>2014-07-12T10:17:55Z</time>
      </trkpt>
      <trkpt lat="45.891982605680823" lon="7.086960570886731">
        <ele>2422.6599999999999</ele>
        <time>2014-07-12T10:18:10Z</time>
      </trkpt>
      <trkpt lat="45.891969026997685" lon="7.087122593075037">
        <ele>2422.1799999999998</ele>
        <time>2014-07-12T10:18:20Z</time>
      </trkpt>
      <trkpt lat="45.891986293718219" lon="7.087189396843314">
        <ele>2421.6999999999998</ele>
        <time>2014-07-12T10:18:25Z</time>
      </trkpt>
      <trkpt lat="45.892024766653776" lon="7.087277742102742">
        <ele>2420.7399999999998</ele>
        <time>2014-07-12T10:18:30Z</time>
      </trkpt>
      <trkpt lat="45.89203130453825" lon="7.087384779006243">
        <ele>2419.3000000000002</ele>
        <time>2014-07-12T10:18:37Z</time>
      </trkpt>
      <trkpt lat="45.892045302316546" lon="7.087611928582192">
        <ele>2417.3699999999999</ele>
        <time>2014-07-12T10:18:53Z</time>
      </trkpt>
      <trkpt lat="45.892058461904526" lon="7.087865564972162">
        <ele>2414.4899999999998</ele>
        <time>2014-07-12T10:19:09Z</time>
      </trkpt>
      <trkpt lat="45.892052510753274" lon="7.08810243755579">
        <ele>2412.0900000000001</ele>
        <time>2014-07-12T10:19:24Z</time>
      </trkpt>
      <trkpt lat="45.892059216275811" lon="7.08825146779418">
        <ele>2410.6399999999999</ele>
        <time>2014-07-12T10:19:35Z</time>
      </trkpt>
      <trkpt lat="45.892043625935912" lon="7.088267309591174">
        <ele>2410.6399999999999</ele>
        <time>2014-07-12T10:19:37Z</time>
      </trkpt>
      <trkpt lat="45.892012948170304" lon="7.088304273784161">
        <ele>2410.1599999999999</ele>
        <time>2014-07-12T10:19:49Z</time>
      </trkpt>
      <trkpt lat="45.89202644303441" lon="7.088332939893007">
        <ele>2410.6399999999999</ele>
        <time>2014-07-12T10:19:51Z</time>
      </trkpt>
      <trkpt lat="45.892032142728567" lon="7.088455064222217">
        <ele>2410.1599999999999</ele>
        <time>2014-07-12T10:19:59Z</time>
      </trkpt>
      <trkpt lat="45.892045050859451" lon="7.088488088920713">
        <ele>2406.8000000000002</ele>
        <time>2014-07-12T10:20:01Z</time>
      </trkpt>
      <trkpt lat="45.892070615664124" lon="7.088683135807514">
        <ele>2407.2800000000002</ele>
        <time>2014-07-12T10:20:14Z</time>
      </trkpt>
      <trkpt lat="45.892095761373639" lon="7.088936353102326">
        <ele>2404.8800000000001</ele>
        <time>2014-07-12T10:20:30Z</time>
      </trkpt>
      <trkpt lat="45.892117386683822" lon="7.089146571233869">
        <ele>2401.9899999999998</ele>
        <time>2014-07-12T10:20:42Z</time>
      </trkpt>
      <trkpt lat="45.892131635919213" lon="7.089376989752054">
        <ele>2400.0700000000002</ele>
        <time>2014-07-12T10:20:55Z</time>
      </trkpt>
      <trkpt lat="45.892140353098512" lon="7.089567510411143">
        <ele>2399.1100000000001</ele>
        <time>2014-07-12T10:21:07Z</time>
      </trkpt>
      <trkpt lat="45.892145466059446" lon="7.089611850678921">
        <ele>2399.1100000000001</ele>
        <time>2014-07-12T10:21:10Z</time>
      </trkpt>
      <trkpt lat="45.892150327563286" lon="7.089688964188099">
        <ele>2399.1100000000001</ele>
        <time>2014-07-12T10:21:15Z</time>
      </trkpt>
      <trkpt lat="45.892211515456438" lon="7.089896751567721">
        <ele>2396.6999999999998</ele>
        <time>2014-07-12T10:21:29Z</time>
      </trkpt>
      <trkpt lat="45.892155859619379" lon="7.090171845629811">
        <ele>2396.2199999999998</ele>
        <time>2014-07-12T10:21:46Z</time>
      </trkpt>
      <trkpt lat="45.892142532393336" lon="7.090207803994417">
        <ele>2395.7399999999998</ele>
        <time>2014-07-12T10:21:49Z</time>
      </trkpt>
      <trkpt lat="45.892157955095172" lon="7.090365719050169">
        <ele>2393.8200000000002</ele>
        <time>2014-07-12T10:21:59Z</time>
      </trkpt>
      <trkpt lat="45.892136497423053" lon="7.090570405125618">
        <ele>2393.8200000000002</ele>
        <time>2014-07-12T10:22:12Z</time>
      </trkpt>
      <trkpt lat="45.892134821042418" lon="7.09063888527453">
        <ele>2393.3400000000001</ele>
        <time>2014-07-12T10:22:16Z</time>
      </trkpt>
      <trkpt lat="45.892098275944591" lon="7.090887576341629">
        <ele>2391.9000000000001</ele>
        <time>2014-07-12T10:22:32Z</time>
      </trkpt>
      <trkpt lat="45.892094001173973" lon="7.090918086469173">
        <ele>2391.9000000000001</ele>
        <time>2014-07-12T10:22:34Z</time>
      </trkpt>
      <trkpt lat="45.892171114683151" lon="7.091068206354976">
        <ele>2389.9699999999998</ele>
        <time>2014-07-12T10:22:46Z</time>
      </trkpt>
      <trkpt lat="45.892226519063115" lon="7.091166274622083">
        <ele>2388.5300000000002</ele>
        <time>2014-07-12T10:22:55Z</time>
      </trkpt>
      <trkpt lat="45.892215454950929" lon="7.091268617659807">
        <ele>2387.0900000000001</ele>
        <time>2014-07-12T10:23:03Z</time>
      </trkpt>
      <trkpt lat="45.892218807712197" lon="7.091336762532592">
        <ele>2385.6500000000001</ele>
        <time>2014-07-12T10:23:08Z</time>
      </trkpt>
      <trkpt lat="45.892198607325554" lon="7.091543963178992">
        <ele>2382.7600000000002</ele>
        <time>2014-07-12T10:23:22Z</time>
      </trkpt>
      <trkpt lat="45.892198942601681" lon="7.09156047552824">
        <ele>2382.7600000000002</ele>
        <time>2014-07-12T10:23:23Z</time>
      </trkpt>
      <trkpt lat="45.89221210218966" lon="7.091779075562954">
        <ele>2379.8800000000001</ele>
        <time>2014-07-12T10:23:38Z</time>
      </trkpt>
      <trkpt lat="45.892168683931231" lon="7.092071017250419">
        <ele>2377</ele>
        <time>2014-07-12T10:23:55Z</time>
      </trkpt>
      <trkpt lat="45.892140604555607" lon="7.092219963669777">
        <ele>2376.04</ele>
        <time>2014-07-12T10:24:05Z</time>
      </trkpt>
      <trkpt lat="45.892106490209699" lon="7.09235449321568">
        <ele>2375.5500000000002</ele>
        <time>2014-07-12T10:24:15Z</time>
      </trkpt>
      <trkpt lat="45.892103556543589" lon="7.092408053576946">
        <ele>2374.1100000000001</ele>
        <time>2014-07-12T10:24:19Z</time>
      </trkpt>
      <trkpt lat="45.892101796343923" lon="7.092490028589964">
        <ele>2372.6700000000001</ele>
        <time>2014-07-12T10:24:24Z</time>
      </trkpt>
      <trkpt lat="45.892121242359281" lon="7.09270435385406">
        <ele>2371.71</ele>
        <time>2014-07-12T10:24:38Z</time>
      </trkpt>
      <trkpt lat="45.892130043357611" lon="7.092716842889786">
        <ele>2371.23</ele>
        <time>2014-07-12T10:24:39Z</time>
      </trkpt>
      <trkpt lat="45.892130797728896" lon="7.092960085719824">
        <ele>2369.79</ele>
        <time>2014-07-12T10:24:54Z</time>
      </trkpt>
      <trkpt lat="45.892132977023721" lon="7.093171058222652">
        <ele>2367.3800000000001</ele>
        <time>2014-07-12T10:25:07Z</time>
      </trkpt>
      <trkpt lat="45.892131216824055" lon="7.09318513981998">
        <ele>2366.9000000000001</ele>
        <time>2014-07-12T10:25:08Z</time>
      </trkpt>
      <trkpt lat="45.892144376412034" lon="7.093277089297772">
        <ele>2365.46</ele>
        <time>2014-07-12T10:25:14Z</time>
      </trkpt>
      <trkpt lat="45.892153093591332" lon="7.093291841447353">
        <ele>2364.98</ele>
        <time>2014-07-12T10:25:16Z</time>
      </trkpt>
      <trkpt lat="45.892175305634737" lon="7.093347497284412">
        <ele>2364.02</ele>
        <time>2014-07-12T10:25:20Z</time>
      </trkpt>
      <trkpt lat="45.892215957865119" lon="7.093587638810277">
        <ele>2361.6199999999999</ele>
        <time>2014-07-12T10:25:35Z</time>
      </trkpt>
      <trkpt lat="45.892210677266121" lon="7.093618819490075">
        <ele>2361.1399999999999</ele>
        <time>2014-07-12T10:25:37Z</time>
      </trkpt>
      <trkpt lat="45.892261890694499" lon="7.093835910782218">
        <ele>2358.73</ele>
        <time>2014-07-12T10:25:52Z</time>
      </trkpt>
      <trkpt lat="45.892345542088151" lon="7.093987623229623">
        <ele>2355.3699999999999</ele>
        <time>2014-07-12T10:26:06Z</time>
      </trkpt>
      <trkpt lat="45.892346799373627" lon="7.094023497775197">
        <ele>2354.8899999999999</ele>
        <time>2014-07-12T10:26:10Z</time>
      </trkpt>
      <trkpt lat="45.892350068315864" lon="7.094095833599567">
        <ele>2352.96</ele>
        <time>2014-07-12T10:26:19Z</time>
      </trkpt>
      <trkpt lat="45.892417374998331" lon="7.09427185356617">
        <ele>2349.5999999999999</ele>
        <time>2014-07-12T10:26:33Z</time>
      </trkpt>
      <trkpt lat="45.892434390261769" lon="7.094288198277354">
        <ele>2347.6799999999998</ele>
        <time>2014-07-12T10:26:47Z</time>
      </trkpt>
      <trkpt lat="45.89242466725409" lon="7.094289790838957">
        <ele>2348.6399999999999</ele>
        <time>2014-07-12T10:27:04Z</time>
      </trkpt>
      <trkpt lat="45.892482837662101" lon="7.094384925439954">
        <ele>2346.7199999999998</ele>
        <time>2014-07-12T10:27:17Z</time>
      </trkpt>
      <trkpt lat="45.89251552708447" lon="7.094419375061989">
        <ele>2345.27</ele>
        <time>2014-07-12T10:27:23Z</time>
      </trkpt>
      <trkpt lat="45.892518293112516" lon="7.094442090019584">
        <ele>2344.79</ele>
        <time>2014-07-12T10:27:25Z</time>
      </trkpt>
      <trkpt lat="45.892520723864436" lon="7.094594724476337">
        <ele>2341.4299999999998</ele>
        <time>2014-07-12T10:27:35Z</time>
      </trkpt>
      <trkpt lat="45.892510581761599" lon="7.09464711137116">
        <ele>2340.9499999999998</ele>
        <time>2014-07-12T10:27:39Z</time>
      </trkpt>
      <trkpt lat="45.892553580924869" lon="7.094810139387846">
        <ele>2337.5799999999999</ele>
        <time>2014-07-12T10:27:52Z</time>
      </trkpt>
      <trkpt lat="45.89261619374156" lon="7.094795973971486">
        <ele>2336.1399999999999</ele>
        <time>2014-07-12T10:28:05Z</time>
      </trkpt>
      <trkpt lat="45.892666485160589" lon="7.094873758032918">
        <ele>2334.2199999999998</ele>
        <time>2014-07-12T10:28:14Z</time>
      </trkpt>
      <trkpt lat="45.892764385789633" lon="7.095024632290006">
        <ele>2332.7800000000002</ele>
        <time>2014-07-12T10:28:27Z</time>
      </trkpt>
      <trkpt lat="45.892832530662417" lon="7.095248680561781">
        <ele>2330.3699999999999</ele>
        <time>2014-07-12T10:28:43Z</time>
      </trkpt>
      <trkpt lat="45.892853485420346" lon="7.095387233421207">
        <ele>2327.9699999999998</ele>
        <time>2014-07-12T10:28:52Z</time>
      </trkpt>
      <trkpt lat="45.892851306125522" lon="7.095497874543071">
        <ele>2325.5700000000002</ele>
        <time>2014-07-12T10:28:59Z</time>
      </trkpt>
      <trkpt lat="45.892866645008326" lon="7.095638690516353">
        <ele>2322.6799999999998</ele>
        <time>2014-07-12T10:29:10Z</time>
      </trkpt>
      <trkpt lat="45.892862873151898" lon="7.095790067687631">
        <ele>2319.8000000000002</ele>
        <time>2014-07-12T10:29:21Z</time>
      </trkpt>
      <trkpt lat="45.89286639355123" lon="7.095944713801146">
        <ele>2316.4299999999998</ele>
        <time>2014-07-12T10:29:33Z</time>
      </trkpt>
      <trkpt lat="45.89290302246809" lon="7.096051163971424">
        <ele>2313.5500000000002</ele>
        <time>2014-07-12T10:29:42Z</time>
      </trkpt>
      <trkpt lat="45.892927162349224" lon="7.096113944426179">
        <ele>2314.0300000000002</ele>
        <time>2014-07-12T10:29:46Z</time>
      </trkpt>
      <trkpt lat="45.893031181767583" lon="7.096340171992779">
        <ele>2313.0700000000002</ele>
        <time>2014-07-12T10:30:02Z</time>
      </trkpt>
      <trkpt lat="45.893086334690452" lon="7.096488364040852">
        <ele>2311.1500000000001</ele>
        <time>2014-07-12T10:30:13Z</time>
      </trkpt>
      <trkpt lat="45.893165795132518" lon="7.096699923276901">
        <ele>2309.6999999999998</ele>
        <time>2014-07-12T10:30:28Z</time>
      </trkpt>
      <trkpt lat="45.893247434869409" lon="7.096941908821464">
        <ele>2307.3000000000002</ele>
        <time>2014-07-12T10:30:44Z</time>
      </trkpt>
      <trkpt lat="45.893314322456717" lon="7.09715573117137">
        <ele>2306.8200000000002</ele>
        <time>2014-07-12T10:30:59Z</time>
      </trkpt>
      <trkpt lat="45.893427394330502" lon="7.097414145246148">
        <ele>2304.9000000000001</ele>
        <time>2014-07-12T10:31:17Z</time>
      </trkpt>
      <trkpt lat="45.893501657992601" lon="7.097646156325936">
        <ele>2303.46</ele>
        <time>2014-07-12T10:31:33Z</time>
      </trkpt>
      <trkpt lat="45.893523702397943" lon="7.097713798284531">
        <ele>2302.0100000000002</ele>
        <time>2014-07-12T10:31:38Z</time>
      </trkpt>
      <trkpt lat="45.893576005473733" lon="7.097796024754643">
        <ele>2300.5700000000002</ele>
        <time>2014-07-12T10:31:46Z</time>
      </trkpt>
      <trkpt lat="45.893587488681078" lon="7.098012780770659">
        <ele>2298.1700000000001</ele>
        <time>2014-07-12T10:32:00Z</time>
      </trkpt>
      <trkpt lat="45.893586315214634" lon="7.098043961450458">
        <ele>2298.6500000000001</ele>
        <time>2014-07-12T10:32:02Z</time>
      </trkpt>
      <trkpt lat="45.893635433167219" lon="7.098211850970984">
        <ele>2301.5300000000002</ele>
        <time>2014-07-12T10:32:17Z</time>
      </trkpt>
      <trkpt lat="45.89364180341363" lon="7.09823951125145">
        <ele>2301.5300000000002</ele>
        <time>2014-07-12T10:32:19Z</time>
      </trkpt>
      <trkpt lat="45.893664015457034" lon="7.098435899242759">
        <ele>2300.5700000000002</ele>
        <time>2014-07-12T10:32:34Z</time>
      </trkpt>
      <trkpt lat="45.893740458413959" lon="7.098655756562948">
        <ele>2301.0500000000002</ele>
        <time>2014-07-12T10:32:50Z</time>
      </trkpt>
      <trkpt lat="45.893809357658029" lon="7.098788777366281">
        <ele>2302.4899999999998</ele>
        <time>2014-07-12T10:33:04Z</time>
      </trkpt>
      <trkpt lat="45.893872724846005" lon="7.098871171474457">
        <ele>2304.4200000000001</ele>
        <time>2014-07-12T10:33:19Z</time>
      </trkpt>
      <trkpt lat="45.893966015428305" lon="7.098937723785639">
        <ele>2306.3400000000001</ele>
        <time>2014-07-12T10:33:36Z</time>
      </trkpt>
      <trkpt lat="45.89399266988039" lon="7.098989272490144">
        <ele>2305.8600000000001</ele>
        <time>2014-07-12T10:33:51Z</time>
      </trkpt>
      <trkpt lat="45.893997112289071" lon="7.09908289834857">
        <ele>2304.9000000000001</ele>
        <time>2014-07-12T10:34:04Z</time>
      </trkpt>
      <trkpt lat="45.893996022641659" lon="7.099178368225694">
        <ele>2301.5300000000002</ele>
        <time>2014-07-12T10:34:10Z</time>
      </trkpt>
      <trkpt lat="45.894046565517783" lon="7.099264115095139">
        <ele>2301.5300000000002</ele>
        <time>2014-07-12T10:34:19Z</time>
      </trkpt>
      <trkpt lat="45.894133569672704" lon="7.099338294938207">
        <ele>2301.5300000000002</ele>
        <time>2014-07-12T10:34:29Z</time>
      </trkpt>
      <trkpt lat="45.894267512485385" lon="7.099474500864744">
        <ele>2301.0500000000002</ele>
        <time>2014-07-12T10:34:47Z</time>
      </trkpt>
      <trkpt lat="45.894263656809926" lon="7.099696369841695">
        <ele>2298.1700000000001</ele>
        <time>2014-07-12T10:35:03Z</time>
      </trkpt>
      <trkpt lat="45.894288383424282" lon="7.099777758121491">
        <ele>2296.25</ele>
        <time>2014-07-12T10:35:09Z</time>
      </trkpt>
      <trkpt lat="45.89429852552712" lon="7.099805502220988">
        <ele>2297.21</ele>
        <time>2014-07-12T10:35:11Z</time>
      </trkpt>
      <trkpt lat="45.894400365650654" lon="7.099939025938511">
        <ele>2297.21</ele>
        <time>2014-07-12T10:35:26Z</time>
      </trkpt>
      <trkpt lat="45.89450279250741" lon="7.100052265450358">
        <ele>2296.25</ele>
        <time>2014-07-12T10:35:40Z</time>
      </trkpt>
      <trkpt lat="45.894563058391213" lon="7.100161481648684">
        <ele>2294.3200000000002</ele>
        <time>2014-07-12T10:35:48Z</time>
      </trkpt>
      <trkpt lat="45.894640255719423" lon="7.100291736423969">
        <ele>2297.21</ele>
        <time>2014-07-12T10:36:02Z</time>
      </trkpt>
      <trkpt lat="45.894771432504058" lon="7.10045107640326">
        <ele>2296.73</ele>
        <time>2014-07-12T10:36:18Z</time>
      </trkpt>
      <trkpt lat="45.894819293171167" lon="7.100508995354176">
        <ele>2295.77</ele>
        <time>2014-07-12T10:36:25Z</time>
      </trkpt>
      <trkpt lat="45.894846366718411" lon="7.10052777081728">
        <ele>2295.2800000000002</ele>
        <time>2014-07-12T10:36:28Z</time>
      </trkpt>
      <trkpt lat="45.89491618797183" lon="7.10067193955183">
        <ele>2293.8400000000001</ele>
        <time>2014-07-12T10:36:40Z</time>
      </trkpt>
      <trkpt lat="45.894922474399209" lon="7.100719213485718">
        <ele>2293.3600000000001</ele>
        <time>2014-07-12T10:36:44Z</time>
      </trkpt>
      <trkpt lat="45.894937729462981" lon="7.100746538490057">
        <ele>2292.4000000000001</ele>
        <time>2014-07-12T10:36:46Z</time>
      </trkpt>
      <trkpt lat="45.895042754709721" lon="7.100868662819266">
        <ele>2289.52</ele>
        <time>2014-07-12T10:36:58Z</time>
      </trkpt>
      <trkpt lat="45.895049879327416" lon="7.100877463817596">
        <ele>2289.52</ele>
        <time>2014-07-12T10:36:59Z</time>
      </trkpt>
      <trkpt lat="45.895097572356462" lon="7.10099883377552">
        <ele>2287.5900000000001</ele>
        <time>2014-07-12T10:37:08Z</time>
      </trkpt>
      <trkpt lat="45.895153982564807" lon="7.101207543164492">
        <ele>2285.6700000000001</ele>
        <time>2014-07-12T10:37:23Z</time>
      </trkpt>
      <trkpt lat="45.895216930657625" lon="7.101405272260308">
        <ele>2283.75</ele>
        <time>2014-07-12T10:37:37Z</time>
      </trkpt>
      <trkpt lat="45.895288260653615" lon="7.101596463471651">
        <ele>2281.3499999999999</ele>
        <time>2014-07-12T10:37:52Z</time>
      </trkpt>
      <trkpt lat="45.895286835730076" lon="7.101662596687675">
        <ele>2280.3800000000001</ele>
        <time>2014-07-12T10:37:57Z</time>
      </trkpt>
      <trkpt lat="45.895321201533079" lon="7.101797126233578">
        <ele>2278.9400000000001</ele>
        <time>2014-07-12T10:38:07Z</time>
      </trkpt>
      <trkpt lat="45.895440811291337" lon="7.101988736540079">
        <ele>2276.54</ele>
        <time>2014-07-12T10:38:23Z</time>
      </trkpt>
      <trkpt lat="45.895531922578812" lon="7.102194679901004">
        <ele>2275.5799999999999</ele>
        <time>2014-07-12T10:38:38Z</time>
      </trkpt>
      <trkpt lat="45.895558074116707" lon="7.102319654077292">
        <ele>2274.1399999999999</ele>
        <time>2014-07-12T10:38:47Z</time>
      </trkpt>
      <trkpt lat="45.895623620599508" lon="7.102498272433877">
        <ele>2273.1700000000001</ele>
        <time>2014-07-12T10:39:01Z</time>
      </trkpt>
      <trkpt lat="45.895635187625885" lon="7.102587120607495">
        <ele>2272.21</ele>
        <time>2014-07-12T10:39:17Z</time>
      </trkpt>
      <trkpt lat="45.895653124898672" lon="7.102632047608495">
        <ele>2271.73</ele>
        <time>2014-07-12T10:39:22Z</time>
      </trkpt>
      <trkpt lat="45.895705511793494" lon="7.102722823619843">
        <ele>2271.25</ele>
        <time>2014-07-12T10:39:34Z</time>
      </trkpt>
      <trkpt lat="45.89571020565927" lon="7.102736234664917">
        <ele>2271.25</ele>
        <time>2014-07-12T10:39:35Z</time>
      </trkpt>
      <trkpt lat="45.895775752142072" lon="7.102975286543369">
        <ele>2269.3299999999999</ele>
        <time>2014-07-12T10:39:53Z</time>
      </trkpt>
      <trkpt lat="45.895822774618864" lon="7.103152228519321">
        <ele>2269.8099999999999</ele>
        <time>2014-07-12T10:40:07Z</time>
      </trkpt>
      <trkpt lat="45.895886979997158" lon="7.103340653702617">
        <ele>2268.3699999999999</ele>
        <time>2014-07-12T10:40:22Z</time>
      </trkpt>
      <trkpt lat="45.895968284457922" lon="7.103540478274226">
        <ele>2268.3699999999999</ele>
        <time>2014-07-12T10:40:38Z</time>
      </trkpt>
      <trkpt lat="45.895981779322028" lon="7.103607030585408">
        <ele>2267.8899999999999</ele>
        <time>2014-07-12T10:40:49Z</time>
      </trkpt>
      <trkpt lat="45.896006338298321" lon="7.103672241792083">
        <ele>2266.4499999999998</ele>
        <time>2014-07-12T10:40:58Z</time>
      </trkpt>
      <trkpt lat="45.896064592525363" lon="7.103796796873212">
        <ele>2267.8899999999999</ele>
        <time>2014-07-12T10:41:08Z</time>
      </trkpt>
      <trkpt lat="45.896067107096314" lon="7.103871563449502">
        <ele>2267.4099999999999</ele>
        <time>2014-07-12T10:41:12Z</time>
      </trkpt>
      <trkpt lat="45.896071968600154" lon="7.103902408853173">
        <ele>2266.4499999999998</ele>
        <time>2014-07-12T10:41:14Z</time>
      </trkpt>
      <trkpt lat="45.896109854802489" lon="7.10412117652595">
        <ele>2265</ele>
        <time>2014-07-12T10:41:29Z</time>
      </trkpt>
      <trkpt lat="45.896188309416175" lon="7.104354528710246">
        <ele>2263.5599999999999</ele>
        <time>2014-07-12T10:41:46Z</time>
      </trkpt>
      <trkpt lat="45.896230638027191" lon="7.104528956115246">
        <ele>2261.6399999999999</ele>
        <time>2014-07-12T10:42:00Z</time>
      </trkpt>
      <trkpt lat="45.896238433197141" lon="7.104560052976012">
        <ele>2261.1599999999999</ele>
        <time>2014-07-12T10:42:04Z</time>
      </trkpt>
      <trkpt lat="45.896237678825855" lon="7.104615708813071">
        <ele>2261.1599999999999</ele>
        <time>2014-07-12T10:42:08Z</time>
      </trkpt>
      <trkpt lat="45.896232649683952" lon="7.104669520631433">
        <ele>2260.6799999999998</ele>
        <time>2014-07-12T10:42:23Z</time>
      </trkpt>
      <trkpt lat="45.896194679662585" lon="7.104616044089198">
        <ele>2260.6799999999998</ele>
        <time>2014-07-12T10:42:54Z</time>
      </trkpt>
      <trkpt lat="45.896199541166425" lon="7.104622833430767">
        <ele>2260.6799999999998</ele>
        <time>2014-07-12T10:43:20Z</time>
      </trkpt>
      <trkpt lat="45.896183615550399" lon="7.104608919471502">
        <ele>2259.7199999999998</ele>
        <time>2014-07-12T10:43:37Z</time>
      </trkpt>
      <trkpt lat="45.896198535338044" lon="7.104633897542954">
        <ele>2260.1999999999998</ele>
        <time>2014-07-12T10:44:01Z</time>
      </trkpt>
      <trkpt lat="45.896210689097643" lon="7.104704724624753">
        <ele>2259.2399999999998</ele>
        <time>2014-07-12T10:44:07Z</time>
      </trkpt>
      <trkpt lat="45.896225273609161" lon="7.104791477322578">
        <ele>2258.27</ele>
        <time>2014-07-12T10:44:13Z</time>
      </trkpt>
      <trkpt lat="45.896230470389128" lon="7.10492248646915">
        <ele>2256.3499999999999</ele>
        <time>2014-07-12T10:44:29Z</time>
      </trkpt>
      <trkpt lat="45.896237259730697" lon="7.104965234175324">
        <ele>2255.8699999999999</ele>
        <time>2014-07-12T10:44:32Z</time>
      </trkpt>
      <trkpt lat="45.896280175074935" lon="7.105169082060456">
        <ele>2253.9499999999998</ele>
        <time>2014-07-12T10:44:49Z</time>
      </trkpt>
      <trkpt lat="45.896311858668923" lon="7.105400422587991">
        <ele>2251.54</ele>
        <time>2014-07-12T10:45:04Z</time>
      </trkpt>
      <trkpt lat="45.896393246948719" lon="7.105671241879463">
        <ele>2250.0999999999999</ele>
        <time>2014-07-12T10:45:21Z</time>
      </trkpt>
      <trkpt lat="45.896463235840201" lon="7.105924626812339">
        <ele>2247.6999999999998</ele>
        <time>2014-07-12T10:45:36Z</time>
      </trkpt>
      <trkpt lat="45.896514197811484" lon="7.106231236830354">
        <ele>2244.3299999999999</ele>
        <time>2014-07-12T10:45:52Z</time>
      </trkpt>
      <trkpt lat="45.896621067076921" lon="7.106466684490442">
        <ele>2242.4099999999999</ele>
        <time>2014-07-12T10:46:08Z</time>
      </trkpt>
      <trkpt lat="45.896665323525667" lon="7.106702215969563">
        <ele>2239.0500000000002</ele>
        <time>2014-07-12T10:46:22Z</time>
      </trkpt>
      <trkpt lat="45.896734641864896" lon="7.106928024441004">
        <ele>2236.1599999999999</ele>
        <time>2014-07-12T10:46:37Z</time>
      </trkpt>
      <trkpt lat="45.896774875000119" lon="7.107053669169545">
        <ele>2234.2399999999998</ele>
        <time>2014-07-12T10:46:49Z</time>
      </trkpt>
      <trkpt lat="45.896783424541354" lon="7.107065403833985">
        <ele>2234.2399999999998</ele>
        <time>2014-07-12T10:47:01Z</time>
      </trkpt>
      <trkpt lat="45.896767834201455" lon="7.107039419934154">
        <ele>2234.2399999999998</ele>
        <time>2014-07-12T10:47:27Z</time>
      </trkpt>
      <trkpt lat="45.896729780361056" lon="7.107036150991917">
        <ele>2233.7600000000002</ele>
        <time>2014-07-12T10:47:32Z</time>
      </trkpt>
      <trkpt lat="45.896685104817152" lon="7.107150899246335">
        <ele>2232.3200000000002</ele>
        <time>2014-07-12T10:47:40Z</time>
      </trkpt>
      <trkpt lat="45.896682674065232" lon="7.107208902016282">
        <ele>2230.8800000000001</ele>
        <time>2014-07-12T10:47:43Z</time>
      </trkpt>
      <trkpt lat="45.896691810339689" lon="7.107242178171873">
        <ele>2230.4000000000001</ele>
        <time>2014-07-12T10:47:45Z</time>
      </trkpt>
      <trkpt lat="45.896750567480922" lon="7.107417359948158">
        <ele>2226.5500000000002</ele>
        <time>2014-07-12T10:47:56Z</time>
      </trkpt>
      <trkpt lat="45.896746544167399" lon="7.10755767300725">
        <ele>2223.6700000000001</ele>
        <time>2014-07-12T10:48:04Z</time>
      </trkpt>
      <trkpt lat="45.896788369864225" lon="7.107678959146142">
        <ele>2221.2600000000002</ele>
        <time>2014-07-12T10:48:18Z</time>
      </trkpt>
      <trkpt lat="45.896814353764057" lon="7.107788929715753">
        <ele>2218.8600000000001</ele>
        <time>2014-07-12T10:48:29Z</time>
      </trkpt>
      <trkpt lat="45.896836146712303" lon="7.107844250276685">
        <ele>2217.9000000000001</ele>
        <time>2014-07-12T10:48:38Z</time>
      </trkpt>
      <trkpt lat="45.896903872489929" lon="7.108038626611233">
        <ele>2214.5300000000002</ele>
        <time>2014-07-12T10:48:51Z</time>
      </trkpt>
      <trkpt lat="45.896976878866553" lon="7.108221771195531">
        <ele>2211.6500000000001</ele>
        <time>2014-07-12T10:49:02Z</time>
      </trkpt>
      <trkpt lat="45.897031025961041" lon="7.108422350138426">
        <ele>2208.29</ele>
        <time>2014-07-12T10:49:14Z</time>
      </trkpt>
      <trkpt lat="45.897035636007786" lon="7.108443304896355">
        <ele>2208.29</ele>
        <time>2014-07-12T10:49:15Z</time>
      </trkpt>
      <trkpt lat="45.897050052881241" lon="7.108467863872647">
        <ele>2206.8400000000001</ele>
        <time>2014-07-12T10:49:17Z</time>
      </trkpt>
      <trkpt lat="45.897082909941673" lon="7.108521508052945">
        <ele>2206.3600000000001</ele>
        <time>2014-07-12T10:49:21Z</time>
      </trkpt>
      <trkpt lat="45.897220959886909" lon="7.108737425878644">
        <ele>2203</ele>
        <time>2014-07-12T10:49:37Z</time>
      </trkpt>
      <trkpt lat="45.89724007062614" lon="7.108761230483651">
        <ele>2202.04</ele>
        <time>2014-07-12T10:49:39Z</time>
      </trkpt>
      <trkpt lat="45.897322129458189" lon="7.108886875212193">
        <ele>2200.1100000000001</ele>
        <time>2014-07-12T10:49:48Z</time>
      </trkpt>
      <trkpt lat="45.897419862449169" lon="7.109043030068278">
        <ele>2197.23</ele>
        <time>2014-07-12T10:50:00Z</time>
      </trkpt>
      <trkpt lat="45.89747803285718" lon="7.109195329248905">
        <ele>2194.3499999999999</ele>
        <time>2014-07-12T10:50:10Z</time>
      </trkpt>
      <trkpt lat="45.897568138316274" lon="7.109351148828864">
        <ele>2190.98</ele>
        <time>2014-07-12T10:50:22Z</time>
      </trkpt>
      <trkpt lat="45.897606108337641" lon="7.109391884878278">
        <ele>2190.5</ele>
        <time>2014-07-12T10:50:26Z</time>
      </trkpt>
      <trkpt lat="45.897661428898573" lon="7.109490036964417">
        <ele>2188.0999999999999</ele>
        <time>2014-07-12T10:50:33Z</time>
      </trkpt>
      <trkpt lat="45.897763688117266" lon="7.109637726098299">
        <ele>2184.25</ele>
        <time>2014-07-12T10:50:45Z</time>
      </trkpt>
      <trkpt lat="45.897850776091218" lon="7.109767310321331">
        <ele>2181.3699999999999</ele>
        <time>2014-07-12T10:50:56Z</time>
      </trkpt>
      <trkpt lat="45.897932248190045" lon="7.109857918694615">
        <ele>2178.9699999999998</ele>
        <time>2014-07-12T10:51:04Z</time>
      </trkpt>
      <trkpt lat="45.897969044744968" lon="7.109907707199454">
        <ele>2178</ele>
        <time>2014-07-12T10:51:08Z</time>
      </trkpt>
      <trkpt lat="45.897798473015428" lon="7.109924219548702">
        <ele>2176.0799999999999</ele>
        <time>2014-07-12T10:51:20Z</time>
      </trkpt>
      <trkpt lat="45.897730244323611" lon="7.109943581745029">
        <ele>2175.1199999999999</ele>
        <time>2014-07-12T10:51:31Z</time>
      </trkpt>
      <trkpt lat="45.897676348686218" lon="7.109946850687265">
        <ele>2174.1599999999999</ele>
        <time>2014-07-12T10:51:36Z</time>
      </trkpt>
      <trkpt lat="45.897537544369698" lon="7.109937714412808">
        <ele>2171.27</ele>
        <time>2014-07-12T10:51:47Z</time>
      </trkpt>
      <trkpt lat="45.897421957924962" lon="7.109980629757047">
        <ele>2169.8299999999999</ele>
        <time>2014-07-12T10:52:01Z</time>
      </trkpt>
      <trkpt lat="45.897415420040488" lon="7.109988089650869">
        <ele>2169.3499999999999</ele>
        <time>2014-07-12T10:52:18Z</time>
      </trkpt>
      <trkpt lat="45.897396896034479" lon="7.110047768801451">
        <ele>2167.4299999999998</ele>
        <time>2014-07-12T10:52:32Z</time>
      </trkpt>
      <trkpt lat="45.897409049794078" lon="7.110064281150699">
        <ele>2167.4299999999998</ele>
        <time>2014-07-12T10:52:51Z</time>
      </trkpt>
      <trkpt lat="45.897439811378717" lon="7.110097976401448">
        <ele>2166.4699999999998</ele>
        <time>2014-07-12T10:53:03Z</time>
      </trkpt>
      <trkpt lat="45.897453809157014" lon="7.110119182616472">
        <ele>2165.9899999999998</ele>
        <time>2014-07-12T10:53:06Z</time>
      </trkpt>
      <trkpt lat="45.897532515227795" lon="7.110227309167385">
        <ele>2162.1399999999999</ele>
        <time>2014-07-12T10:53:17Z</time>
      </trkpt>
      <trkpt lat="45.897542405873537" lon="7.110252035781741">
        <ele>2161.6599999999999</ele>
        <time>2014-07-12T10:53:19Z</time>
      </trkpt>
      <trkpt lat="45.897643994539976" lon="7.110398216173053">
        <ele>2158.7800000000002</ele>
        <time>2014-07-12T10:53:32Z</time>
      </trkpt>
      <trkpt lat="45.897712139412761" lon="7.110501145943999">
        <ele>2155.8899999999999</ele>
        <time>2014-07-12T10:53:42Z</time>
      </trkpt>
      <trkpt lat="45.897786403074861" lon="7.110642967745662">
        <ele>2152.5300000000002</ele>
        <time>2014-07-12T10:53:53Z</time>
      </trkpt>
      <trkpt lat="45.897865360602736" lon="7.110753608867526">
        <ele>2149.6500000000001</ele>
        <time>2014-07-12T10:54:04Z</time>
      </trkpt>
      <trkpt lat="45.897978432476521" lon="7.110863914713264">
        <ele>2146.7600000000002</ele>
        <time>2014-07-12T10:54:17Z</time>
      </trkpt>
      <trkpt lat="45.898046996444464" lon="7.110931891947985">
        <ele>2145.3200000000002</ele>
        <time>2014-07-12T10:54:28Z</time>
      </trkpt>
      <trkpt lat="45.898219915106893" lon="7.111048819497228">
        <ele>2141.9499999999998</ele>
        <time>2014-07-12T10:54:44Z</time>
      </trkpt>
      <trkpt lat="45.898369448259473" lon="7.11118770763278">
        <ele>2139.5500000000002</ele>
        <time>2014-07-12T10:54:59Z</time>
      </trkpt>
      <trkpt lat="45.898379674181342" lon="7.111194161698222">
        <ele>2139.5500000000002</ele>
        <time>2014-07-12T10:55:00Z</time>
      </trkpt>
      <trkpt lat="45.898510096594691" lon="7.111312011256814">
        <ele>2136.1900000000001</ele>
        <time>2014-07-12T10:55:16Z</time>
      </trkpt>
      <trkpt lat="45.898584192618728" lon="7.111397255212069">
        <ele>2133.3000000000002</ele>
        <time>2014-07-12T10:55:28Z</time>
      </trkpt>
      <trkpt lat="45.898686787113547" lon="7.111507393419743">
        <ele>2129.9400000000001</ele>
        <time>2014-07-12T10:55:42Z</time>
      </trkpt>
      <trkpt lat="45.898725762963295" lon="7.111554415896535">
        <ele>2128.5</ele>
        <time>2014-07-12T10:55:47Z</time>
      </trkpt>
      <trkpt lat="45.898815030232072" lon="7.111635804176331">
        <ele>2125.6100000000001</ele>
        <time>2014-07-12T10:56:01Z</time>
      </trkpt>
      <trkpt lat="45.898903207853436" lon="7.111710822209716">
        <ele>2122.25</ele>
        <time>2014-07-12T10:56:14Z</time>
      </trkpt>
      <trkpt lat="45.898986188694835" lon="7.111772261559963">
        <ele>2119.3600000000001</ele>
        <time>2014-07-12T10:56:25Z</time>
      </trkpt>
      <trkpt lat="45.899076294153929" lon="7.111806543543935">
        <ele>2117.9200000000001</ele>
        <time>2014-07-12T10:56:36Z</time>
      </trkpt>
      <trkpt lat="45.899182492867112" lon="7.11189522407949">
        <ele>2116</ele>
        <time>2014-07-12T10:56:52Z</time>
      </trkpt>
      <trkpt lat="45.899241585284472" lon="7.111942330375314">
        <ele>2114.0799999999999</ele>
        <time>2014-07-12T10:56:59Z</time>
      </trkpt>
      <trkpt lat="45.899414587765932" lon="7.111981138586998">
        <ele>2111.1900000000001</ele>
        <time>2014-07-12T10:57:16Z</time>
      </trkpt>
      <trkpt lat="45.899542327970266" lon="7.112039979547262">
        <ele>2110.23</ele>
        <time>2014-07-12T10:57:32Z</time>
      </trkpt>
      <trkpt lat="45.899578286334872" lon="7.112064622342587">
        <ele>2109.27</ele>
        <time>2014-07-12T10:57:38Z</time>
      </trkpt>
      <trkpt lat="45.899593876674771" lon="7.11207551881671">
        <ele>2109.27</ele>
        <time>2014-07-12T10:57:40Z</time>
      </trkpt>
      <trkpt lat="45.899680713191628" lon="7.112113321200013">
        <ele>2108.3099999999999</ele>
        <time>2014-07-12T10:57:48Z</time>
      </trkpt>
      <trkpt lat="45.899714576080441" lon="7.112121116369963">
        <ele>2107.8299999999999</ele>
        <time>2014-07-12T10:57:51Z</time>
      </trkpt>
      <trkpt lat="45.899794287979603" lon="7.112193871289492">
        <ele>2106.3899999999999</ele>
        <time>2014-07-12T10:57:59Z</time>
      </trkpt>
      <trkpt lat="45.899831922724843" lon="7.112220106646419">
        <ele>2105.4200000000001</ele>
        <time>2014-07-12T10:58:03Z</time>
      </trkpt>
      <trkpt lat="45.899936193600297" lon="7.112317588180304">
        <ele>2103.5</ele>
        <time>2014-07-12T10:58:17Z</time>
      </trkpt>
      <trkpt lat="45.899954633787274" lon="7.11234332062304">
        <ele>2102.0599999999999</ele>
        <time>2014-07-12T10:58:20Z</time>
      </trkpt>
      <trkpt lat="45.899749612435699" lon="7.112462259829044">
        <ele>2099.6599999999999</ele>
        <time>2014-07-12T10:58:38Z</time>
      </trkpt>
      <trkpt lat="45.899560349062085" lon="7.11250651627779">
        <ele>2097.25</ele>
        <time>2014-07-12T10:58:55Z</time>
      </trkpt>
      <trkpt lat="45.899430848658085" lon="7.112541636452079">
        <ele>2095.8099999999999</ele>
        <time>2014-07-12T10:59:08Z</time>
      </trkpt>
      <trkpt lat="45.899412576109171" lon="7.112541887909174">
        <ele>2095.3299999999999</ele>
        <time>2014-07-12T10:59:10Z</time>
      </trkpt>
      <trkpt lat="45.899385334923863" lon="7.11254901252687">
        <ele>2094.8499999999999</ele>
        <time>2014-07-12T10:59:17Z</time>
      </trkpt>
      <trkpt lat="45.899260696023703" lon="7.112550353631377">
        <ele>2091.9699999999998</ele>
        <time>2014-07-12T10:59:29Z</time>
      </trkpt>
      <trkpt lat="45.89911250397563" lon="7.112547252327204">
        <ele>2091</ele>
        <time>2014-07-12T10:59:43Z</time>
      </trkpt>
      <trkpt lat="45.899084843695164" lon="7.112532835453749">
        <ele>2090.04</ele>
        <time>2014-07-12T10:59:46Z</time>
      </trkpt>
      <trkpt lat="45.899037988856435" lon="7.112533422186971">
        <ele>2089.5599999999999</ele>
        <time>2014-07-12T10:59:50Z</time>
      </trkpt>
      <trkpt lat="45.898867584764957" lon="7.112580109387636">
        <ele>2086.6799999999998</ele>
        <time>2014-07-12T11:00:10Z</time>
      </trkpt>
      <trkpt lat="45.898856604471803" lon="7.11258907802403">
        <ele>2086.6799999999998</ele>
        <time>2014-07-12T11:00:12Z</time>
      </trkpt>
      <trkpt lat="45.898753255605698" lon="7.112654959782958">
        <ele>2083.79</ele>
        <time>2014-07-12T11:00:28Z</time>
      </trkpt>
      <trkpt lat="45.89869667775929" lon="7.112679770216346">
        <ele>2083.3099999999999</ele>
        <time>2014-07-12T11:00:40Z</time>
      </trkpt>
      <trkpt lat="45.898660132661462" lon="7.112658815458417">
        <ele>2083.79</ele>
        <time>2014-07-12T11:00:55Z</time>
      </trkpt>
      <trkpt lat="45.898649236187339" lon="7.112640459090471">
        <ele>2083.3099999999999</ele>
        <time>2014-07-12T11:01:13Z</time>
      </trkpt>
      <trkpt lat="45.898621827363968" lon="7.112696198746562">
        <ele>2083.79</ele>
        <time>2014-07-12T11:01:29Z</time>
      </trkpt>
      <trkpt lat="45.898636998608708" lon="7.112684044986963">
        <ele>2083.3099999999999</ele>
        <time>2014-07-12T11:01:48Z</time>
      </trkpt>
      <trkpt lat="45.898651164025068" lon="7.112700305879116">
        <ele>2083.3099999999999</ele>
        <time>2014-07-12T11:01:58Z</time>
      </trkpt>
      <trkpt lat="45.898635908961296" lon="7.112707514315844">
        <ele>2082.3499999999999</ele>
        <time>2014-07-12T11:02:09Z</time>
      </trkpt>
      <trkpt lat="45.898618223145604" lon="7.112689409404993">
        <ele>2082.8299999999999</ele>
        <time>2014-07-12T11:02:31Z</time>
      </trkpt>
      <trkpt lat="45.898575643077493" lon="7.112649930641055">
        <ele>2082.8299999999999</ele>
        <time>2014-07-12T11:02:35Z</time>
      </trkpt>
      <trkpt lat="45.89853348210454" lon="7.112641045823693">
        <ele>2082.8299999999999</ele>
        <time>2014-07-12T11:02:38Z</time>
      </trkpt>
      <trkpt lat="45.898489141836762" lon="7.112624784931541">
        <ele>2082.8299999999999</ele>
        <time>2014-07-12T11:02:41Z</time>
      </trkpt>
      <trkpt lat="45.8984284568578" lon="7.112628556787968">
        <ele>2082.8299999999999</ele>
        <time>2014-07-12T11:02:51Z</time>
      </trkpt>
      <trkpt lat="45.898442873731256" lon="7.112616067752242">
        <ele>2082.3499999999999</ele>
        <time>2014-07-12T11:03:06Z</time>
      </trkpt>
      <trkpt lat="45.898428540676832" lon="7.112586395815015">
        <ele>2082.8299999999999</ele>
        <time>2014-07-12T11:03:22Z</time>
      </trkpt>
      <trkpt lat="45.898464163765311" lon="7.112621096894145">
        <ele>2082.3499999999999</ele>
        <time>2014-07-12T11:03:42Z</time>
      </trkpt>
      <trkpt lat="45.898462990298867" lon="7.112615816295147">
        <ele>2082.3499999999999</ele>
        <time>2014-07-12T11:04:05Z</time>
      </trkpt>
      <trkpt lat="45.898460559546947" lon="7.112641716375947">
        <ele>2082.3499999999999</ele>
        <time>2014-07-12T11:04:24Z</time>
      </trkpt>
      <trkpt lat="45.898460643365979" lon="7.112638112157583">
        <ele>2082.3499999999999</ele>
        <time>2014-07-12T11:04:54Z</time>
      </trkpt>
      <trkpt lat="45.898458883166313" lon="7.11263501085341">
        <ele>2082.3499999999999</ele>
        <time>2014-07-12T11:05:25Z</time>
      </trkpt>
      <trkpt lat="45.898449495434761" lon="7.112634088844061">
        <ele>2081.8699999999999</ele>
        <time>2014-07-12T11:05:55Z</time>
      </trkpt>
      <trkpt lat="45.89846164919436" lon="7.112651942297816">
        <ele>2082.3499999999999</ele>
        <time>2014-07-12T11:06:24Z</time>
      </trkpt>
      <trkpt lat="45.898458883166313" lon="7.112630484625697">
        <ele>2081.8699999999999</ele>
        <time>2014-07-12T11:06:51Z</time>
      </trkpt>
      <trkpt lat="45.898467935621738" lon="7.112627634778619">
        <ele>2081.8699999999999</ele>
        <time>2014-07-12T11:07:23Z</time>
      </trkpt>
      <trkpt lat="45.898472210392356" lon="7.112631909549236">
        <ele>2081.8699999999999</ele>
        <time>2014-07-12T11:07:52Z</time>
      </trkpt>
      <trkpt lat="45.898473300039768" lon="7.112639537081122">
        <ele>2081.8699999999999</ele>
        <time>2014-07-12T11:08:20Z</time>
      </trkpt>
      <trkpt lat="45.898478999733925" lon="7.112645320594311">
        <ele>2081.8699999999999</ele>
        <time>2014-07-12T11:08:39Z</time>
      </trkpt>
      <trkpt lat="45.898468857631087" lon="7.112640291452408">
        <ele>2081.8699999999999</ele>
        <time>2014-07-12T11:09:15Z</time>
      </trkpt>
      <trkpt lat="45.89847145602107" lon="7.112632663920522">
        <ele>2081.8699999999999</ele>
        <time>2014-07-12T11:09:42Z</time>
      </trkpt>
      <trkpt lat="45.898452429100871" lon="7.112611792981625">
        <ele>2081.8699999999999</ele>
        <time>2014-07-12T11:10:17Z</time>
      </trkpt>
      <trkpt lat="45.898454776033759" lon="7.112613888457418">
        <ele>2081.8699999999999</ele>
        <time>2014-07-12T11:10:54Z</time>
      </trkpt>
      <trkpt lat="45.898449830710888" lon="7.112612212076783">
        <ele>2081.8699999999999</ele>
        <time>2014-07-12T11:11:16Z</time>
      </trkpt>
      <trkpt lat="45.898455362766981" lon="7.112612798810005">
        <ele>2081.8699999999999</ele>
        <time>2014-07-12T11:11:49Z</time>
      </trkpt>
      <trkpt lat="45.898457039147615" lon="7.112627802416682">
        <ele>2081.8699999999999</ele>
        <time>2014-07-12T11:12:20Z</time>
      </trkpt>
      <trkpt lat="45.898455614224076" lon="7.112619671970606">
        <ele>2081.8699999999999</ele>
        <time>2014-07-12T11:12:42Z</time>
      </trkpt>
      <trkpt lat="45.898465001955628" lon="7.112626796588302">
        <ele>2081.3899999999999</ele>
        <time>2014-07-12T11:13:07Z</time>
      </trkpt>
      <trkpt lat="45.898467265069485" lon="7.112615229561925">
        <ele>2081.3899999999999</ele>
        <time>2014-07-12T11:13:40Z</time>
      </trkpt>
      <trkpt lat="45.898467767983675" lon="7.112621013075113">
        <ele>2081.3899999999999</ele>
        <time>2014-07-12T11:14:11Z</time>
      </trkpt>
      <trkpt lat="45.898460559546947" lon="7.112609865143895">
        <ele>2081.3899999999999</ele>
        <time>2014-07-12T11:14:45Z</time>
      </trkpt>
      <trkpt lat="45.898468941450119" lon="7.112617995589972">
        <ele>2080.9099999999999</ele>
        <time>2014-07-12T11:15:11Z</time>
      </trkpt>
      <trkpt lat="45.898469192907214" lon="7.112617492675781">
        <ele>2080.9099999999999</ele>
        <time>2014-07-12T11:15:43Z</time>
      </trkpt>
      <trkpt lat="45.898472461849451" lon="7.112614810466766">
        <ele>2080.9099999999999</ele>
        <time>2014-07-12T11:16:06Z</time>
      </trkpt>
      <trkpt lat="45.898465923964977" lon="7.112624198198319">
        <ele>2080.9099999999999</ele>
        <time>2014-07-12T11:16:37Z</time>
      </trkpt>
      <trkpt lat="45.898470785468817" lon="7.112634759396315">
        <ele>2080.9099999999999</ele>
        <time>2014-07-12T11:17:16Z</time>
      </trkpt>
      <trkpt lat="45.898480257019401" lon="7.112610368058085">
        <ele>2080.9099999999999</ele>
        <time>2014-07-12T11:17:39Z</time>
      </trkpt>
      <trkpt lat="45.898472294211388" lon="7.112614810466766">
        <ele>2080.9099999999999</ele>
        <time>2014-07-12T11:18:14Z</time>
      </trkpt>
      <trkpt lat="45.898474892601371" lon="7.112615061923862">
        <ele>2080.4299999999998</ele>
        <time>2014-07-12T11:18:55Z</time>
      </trkpt>
      <trkpt lat="45.898474473506212" lon="7.112612128257752">
        <ele>2080.4299999999998</ele>
        <time>2014-07-12T11:19:24Z</time>
      </trkpt>
      <trkpt lat="45.898472713306546" lon="7.11259838193655">
        <ele>2080.4299999999998</ele>
        <time>2014-07-12T11:19:48Z</time>
      </trkpt>
      <trkpt lat="45.898468438535929" lon="7.11259787902236">
        <ele>2079.9499999999998</ele>
        <time>2014-07-12T11:20:19Z</time>
      </trkpt>
      <trkpt lat="45.898469863459468" lon="7.112594190984964">
        <ele>2079.9499999999998</ele>
        <time>2014-07-12T11:20:53Z</time>
      </trkpt>
      <trkpt lat="45.898479418829083" lon="7.112604333087802">
        <ele>2079.9499999999998</ele>
        <time>2014-07-12T11:21:28Z</time>
      </trkpt>
      <trkpt lat="45.898471204563975" lon="7.112605422735214">
        <ele>2079.4699999999998</ele>
        <time>2014-07-12T11:21:57Z</time>
      </trkpt>
      <trkpt lat="45.898484783247113" lon="7.112612882629037">
        <ele>2079.4699999999998</ele>
        <time>2014-07-12T11:22:38Z</time>
      </trkpt>
      <trkpt lat="45.898469109088182" lon="7.112630316987634">
        <ele>2079.4699999999998</ele>
        <time>2014-07-12T11:23:05Z</time>
      </trkpt>
      <trkpt lat="45.898471372202039" lon="7.112623862922192">
        <ele>2079.4699999999998</ele>
        <time>2014-07-12T11:23:27Z</time>
      </trkpt>
      <trkpt lat="45.898469276726246" lon="7.112602908164263">
        <ele>2079.4699999999998</ele>
        <time>2014-07-12T11:23:57Z</time>
      </trkpt>
      <trkpt lat="45.898458380252123" lon="7.112602908164263">
        <ele>2079.4699999999998</ele>
        <time>2014-07-12T11:24:27Z</time>
      </trkpt>
      <trkpt lat="45.898455111309886" lon="7.11260911077261">
        <ele>2079.4699999999998</ele>
        <time>2014-07-12T11:25:03Z</time>
      </trkpt>
      <trkpt lat="45.898464750498533" lon="7.112606847658753">
        <ele>2079.4699999999998</ele>
        <time>2014-07-12T11:25:33Z</time>
      </trkpt>
      <trkpt lat="45.89847095310688" lon="7.112606763839722">
        <ele>2079.4699999999998</ele>
        <time>2014-07-12T11:26:11Z</time>
      </trkpt>
      <trkpt lat="45.898456703871489" lon="7.11259595118463">
        <ele>2079.9499999999998</ele>
        <time>2014-07-12T11:26:31Z</time>
      </trkpt>
      <trkpt lat="45.898455530405045" lon="7.112599471583962">
        <ele>2079.4699999999998</ele>
        <time>2014-07-12T11:26:53Z</time>
      </trkpt>
      <trkpt lat="45.898452010005713" lon="7.112607602030039">
        <ele>2078.9899999999998</ele>
        <time>2014-07-12T11:27:25Z</time>
      </trkpt>
      <trkpt lat="45.898439520969987" lon="7.112614726647735">
        <ele>2079.4699999999998</ele>
        <time>2014-07-12T11:27:47Z</time>
      </trkpt>
      <trkpt lat="45.898469360545278" lon="7.112610870972276">
        <ele>2079.4699999999998</ele>
        <time>2014-07-12T11:28:00Z</time>
      </trkpt>
      <trkpt lat="45.898478832095861" lon="7.112600896507502">
        <ele>2079.9499999999998</ele>
        <time>2014-07-12T11:28:37Z</time>
      </trkpt>
      <trkpt lat="45.898482352495193" lon="7.112600225955248">
        <ele>2079.4699999999998</ele>
        <time>2014-07-12T11:29:08Z</time>
      </trkpt>
      <trkpt lat="45.898482017219067" lon="7.112607434391975">
        <ele>2079.4699999999998</ele>
        <time>2014-07-12T11:29:30Z</time>
      </trkpt>
      <trkpt lat="45.898481179028749" lon="7.112612463533878">
        <ele>2079.4699999999998</ele>
        <time>2014-07-12T11:29:56Z</time>
      </trkpt>
      <trkpt lat="45.898474557325244" lon="7.112615313380957">
        <ele>2079.4699999999998</ele>
        <time>2014-07-12T11:30:13Z</time>
      </trkpt>
      <trkpt lat="45.898479167371988" lon="7.112598968669772">
        <ele>2079.4699999999998</ele>
        <time>2014-07-12T11:30:42Z</time>
      </trkpt>
      <trkpt lat="45.898499703034759" lon="7.112584551796317">
        <ele>2079.4699999999998</ele>
        <time>2014-07-12T11:31:08Z</time>
      </trkpt>
      <trkpt lat="45.89852711185813" lon="7.112627886235714">
        <ele>2079.9499999999998</ele>
        <time>2014-07-12T11:31:26Z</time>
      </trkpt>
      <trkpt lat="45.898536583408713" lon="7.112623946741223">
        <ele>2079.4699999999998</ele>
        <time>2014-07-12T11:31:47Z</time>
      </trkpt>
      <trkpt lat="45.898602129891515" lon="7.112632915377617">
        <ele>2079.9499999999998</ele>
        <time>2014-07-12T11:32:00Z</time>
      </trkpt>
      <trkpt lat="45.898549910634756" lon="7.112549263983965">
        <ele>2080.4299999999998</ele>
        <time>2014-07-12T11:32:24Z</time>
      </trkpt>
      <trkpt lat="45.898539433255792" lon="7.112662754952908">
        <ele>2079.4699999999998</ele>
        <time>2014-07-12T11:37:42Z</time>
      </trkpt>
      <trkpt lat="45.89846164919436" lon="7.11260424926877">
        <ele>2079.4699999999998</ele>
        <time>2014-07-12T11:38:02Z</time>
      </trkpt>
      <trkpt lat="45.898449327796698" lon="7.112569380551577">
        <ele>2079.4699999999998</ele>
        <time>2014-07-12T11:38:19Z</time>
      </trkpt>
      <trkpt lat="45.898454524576664" lon="7.112594358623028">
        <ele>2079.4699999999998</ele>
        <time>2014-07-12T11:38:42Z</time>
      </trkpt>
      <trkpt lat="45.898452429100871" lon="7.112601650878787">
        <ele>2082.8299999999999</ele>
        <time>2014-07-12T11:39:06Z</time>
      </trkpt>
      <trkpt lat="45.898445220664144" lon="7.112600728869438">
        <ele>2079.9499999999998</ele>
        <time>2014-07-12T11:39:09Z</time>
      </trkpt>
      <trkpt lat="45.898472042754292" lon="7.112594358623028">
        <ele>2080.4299999999998</ele>
        <time>2014-07-12T11:39:24Z</time>
      </trkpt>
      <trkpt lat="45.898469192907214" lon="7.112608021125197">
        <ele>2079.4699999999998</ele>
        <time>2014-07-12T11:39:39Z</time>
      </trkpt>
      <trkpt lat="45.898527950048447" lon="7.112636854872108">
        <ele>2079.9499999999998</ele>
        <time>2014-07-12T11:39:57Z</time>
      </trkpt>
      <trkpt lat="45.898527363315225" lon="7.112621180713177">
        <ele>2079.4699999999998</ele>
        <time>2014-07-12T11:40:17Z</time>
      </trkpt>
      <trkpt lat="45.898544294759631" lon="7.112624701112509">
        <ele>2079.4699999999998</ele>
        <time>2014-07-12T11:40:40Z</time>
      </trkpt>
      <trkpt lat="45.898604728281498" lon="7.112635681405664">
        <ele>2079.4699999999998</ele>
        <time>2014-07-12T11:40:53Z</time>
      </trkpt>
      <trkpt lat="45.89861118234694" lon="7.11264917626977">
        <ele>2079.4699999999998</ele>
        <time>2014-07-12T11:41:16Z</time>
      </trkpt>
      <trkpt lat="45.898613194003701" lon="7.112646494060755">
        <ele>2079.4699999999998</ele>
        <time>2014-07-12T11:41:43Z</time>
      </trkpt>
      <trkpt lat="45.898603303357959" lon="7.112669376656413">
        <ele>2079.4699999999998</ele>
        <time>2014-07-12T11:41:59Z</time>
      </trkpt>
      <trkpt lat="45.898557789623737" lon="7.112648840993643">
        <ele>2079.4699999999998</ele>
        <time>2014-07-12T11:42:11Z</time>
      </trkpt>
      <trkpt lat="45.898511186242104" lon="7.11262134835124">
        <ele>2079.9499999999998</ele>
        <time>2014-07-12T11:42:24Z</time>
      </trkpt>
      <trkpt lat="45.89844798669219" lon="7.112624198198319">
        <ele>2079.4699999999998</ele>
        <time>2014-07-12T11:42:41Z</time>
      </trkpt>
      <trkpt lat="45.898269452154636" lon="7.112566363066435">
        <ele>2078.9899999999998</ele>
        <time>2014-07-12T11:42:57Z</time>
      </trkpt>
      <trkpt lat="45.898147244006395" lon="7.112518083304167">
        <ele>2078.5100000000002</ele>
        <time>2014-07-12T11:43:12Z</time>
      </trkpt>
      <trkpt lat="45.898102317005396" lon="7.11252554319799">
        <ele>2078.5100000000002</ele>
        <time>2014-07-12T11:43:18Z</time>
      </trkpt>
      <trkpt lat="45.898119667544961" lon="7.112502073869109">
        <ele>2078.5100000000002</ele>
        <time>2014-07-12T11:43:30Z</time>
      </trkpt>
      <trkpt lat="45.898141795769334" lon="7.112493105232716">
        <ele>2078.5100000000002</ele>
        <time>2014-07-12T11:43:57Z</time>
      </trkpt>
      <trkpt lat="45.89814648963511" lon="7.112504336982966">
        <ele>2078.5100000000002</ele>
        <time>2014-07-12T11:44:16Z</time>
      </trkpt>
      <trkpt lat="45.898131569847465" lon="7.11250701919198">
        <ele>2078.5100000000002</ele>
        <time>2014-07-12T11:44:41Z</time>
      </trkpt>
      <trkpt lat="45.898203318938613" lon="7.112522441893816">
        <ele>2078.5100000000002</ele>
        <time>2014-07-12T11:44:56Z</time>
      </trkpt>
      <trkpt lat="45.89819585904479" lon="7.112502995878458">
        <ele>2078.5100000000002</ele>
        <time>2014-07-12T11:45:25Z</time>
      </trkpt>
      <trkpt lat="45.898191751912236" lon="7.112499978393316">
        <ele>2078.9899999999998</ele>
        <time>2014-07-12T11:45:41Z</time>
      </trkpt>
      <trkpt lat="45.89818999171257" lon="7.11252068169415">
        <ele>2078.9899999999998</ele>
        <time>2014-07-12T11:45:59Z</time>
      </trkpt>
      <trkpt lat="45.898226704448462" lon="7.112544905394316">
        <ele>2078.9899999999998</ele>
        <time>2014-07-12T11:46:15Z</time>
      </trkpt>
      <trkpt lat="45.898296609520912" lon="7.112573906779289">
        <ele>2078.9899999999998</ele>
        <time>2014-07-12T11:46:27Z</time>
      </trkpt>
      <trkpt lat="45.898348158225417" lon="7.11258128285408">
        <ele>2079.4699999999998</ele>
        <time>2014-07-12T11:46:41Z</time>
      </trkpt>
      <trkpt lat="45.898369867354631" lon="7.112576337531209">
        <ele>2078.9899999999998</ele>
        <time>2014-07-12T11:46:54Z</time>
      </trkpt>
      <trkpt lat="45.898425104096532" lon="7.112606093287468">
        <ele>2078.9899999999998</ele>
        <time>2014-07-12T11:47:03Z</time>
      </trkpt>
      <trkpt lat="45.898528704419732" lon="7.112610954791307">
        <ele>2079.4699999999998</ele>
        <time>2014-07-12T11:47:19Z</time>
      </trkpt>
      <trkpt lat="45.898525267839432" lon="7.112609529867768">
        <ele>2079.4699999999998</ele>
        <time>2014-07-12T11:47:39Z</time>
      </trkpt>
      <trkpt lat="45.898544043302536" lon="7.112606260925531">
        <ele>2079.4699999999998</ele>
        <time>2014-07-12T11:48:05Z</time>
      </trkpt>
      <trkpt lat="45.898554688319564" lon="7.112609278410673">
        <ele>2079.4699999999998</ele>
        <time>2014-07-12T11:48:26Z</time>
      </trkpt>
      <trkpt lat="45.898550832644105" lon="7.112622186541557">
        <ele>2079.4699999999998</ele>
        <time>2014-07-12T11:48:49Z</time>
      </trkpt>
      <trkpt lat="45.898551000282168" lon="7.112610368058085">
        <ele>2079.4699999999998</ele>
        <time>2014-07-12T11:49:12Z</time>
      </trkpt>
      <trkpt lat="45.898542450740933" lon="7.112596035003662">
        <ele>2078.9899999999998</ele>
        <time>2014-07-12T11:49:36Z</time>
      </trkpt>
      <trkpt lat="45.898524597287178" lon="7.112631322816014">
        <ele>2079.4699999999998</ele>
        <time>2014-07-12T11:49:55Z</time>
      </trkpt>
      <trkpt lat="45.898523004725575" lon="7.112619252875447">
        <ele>2079.4699999999998</ele>
        <time>2014-07-12T11:50:13Z</time>
      </trkpt>
      <trkpt lat="45.898532141000032" lon="7.112633921205998">
        <ele>2079.4699999999998</ele>
        <time>2014-07-12T11:50:38Z</time>
      </trkpt>
      <trkpt lat="45.898518310859799" lon="7.112615816295147">
        <ele>2079.4699999999998</ele>
        <time>2014-07-12T11:51:05Z</time>
      </trkpt>
      <trkpt lat="45.898496685549617" lon="7.112647499889135">
        <ele>2079.4699999999998</ele>
        <time>2014-07-12T11:51:31Z</time>
      </trkpt>
      <trkpt lat="45.898493835702538" lon="7.112636435776949">
        <ele>2079.4699999999998</ele>
        <time>2014-07-12T11:51:49Z</time>
      </trkpt>
      <trkpt lat="45.898500792682171" lon="7.112628053873777">
        <ele>2079.4699999999998</ele>
        <time>2014-07-12T11:52:13Z</time>
      </trkpt>
      <trkpt lat="45.898518478497863" lon="7.112647332251072">
        <ele>2079.9499999999998</ele>
        <time>2014-07-12T11:52:38Z</time>
      </trkpt>
      <trkpt lat="45.898528369143605" lon="7.112640039995313">
        <ele>2079.9499999999998</ele>
        <time>2014-07-12T11:53:09Z</time>
      </trkpt>
      <trkpt lat="45.898517724126577" lon="7.112622018903494">
        <ele>2079.4699999999998</ele>
        <time>2014-07-12T11:53:25Z</time>
      </trkpt>
      <trkpt lat="45.898512359708548" lon="7.112600561231375">
        <ele>2079.9499999999998</ele>
        <time>2014-07-12T11:53:51Z</time>
      </trkpt>
      <trkpt lat="45.898519903421402" lon="7.112621683627367">
        <ele>2079.9499999999998</ele>
        <time>2014-07-12T11:54:09Z</time>
      </trkpt>
      <trkpt lat="45.898537840694189" lon="7.112596035003662">
        <ele>2079.9499999999998</ele>
        <time>2014-07-12T11:54:38Z</time>
      </trkpt>
      <trkpt lat="45.898536834865808" lon="7.112595699727535">
        <ele>2079.9499999999998</ele>
        <time>2014-07-12T11:55:06Z</time>
      </trkpt>
      <trkpt lat="45.898520322516561" lon="7.112601567059755">
        <ele>2080.4299999999998</ele>
        <time>2014-07-12T11:55:30Z</time>
      </trkpt>
      <trkpt lat="45.898528788238764" lon="7.112616067752242">
        <ele>2080.4299999999998</ele>
        <time>2014-07-12T11:55:53Z</time>
      </trkpt>
      <trkpt lat="45.898521160706878" lon="7.112669125199318">
        <ele>2080.9099999999999</ele>
        <time>2014-07-12T11:56:09Z</time>
      </trkpt>
      <trkpt lat="45.898524262011051" lon="7.112651187926531">
        <ele>2080.4299999999998</ele>
        <time>2014-07-12T11:56:27Z</time>
      </trkpt>
      <trkpt lat="45.898521998897195" lon="7.112646326422691">
        <ele>2080.4299999999998</ele>
        <time>2014-07-12T11:56:46Z</time>
      </trkpt>
      <trkpt lat="45.898520573973656" lon="7.112645991146565">
        <ele>2080.9099999999999</ele>
        <time>2014-07-12T11:57:08Z</time>
      </trkpt>
      <trkpt lat="45.89853105135262" lon="7.112658396363258">
        <ele>2080.9099999999999</ele>
        <time>2014-07-12T11:57:37Z</time>
      </trkpt>
      <trkpt lat="45.898523591458797" lon="7.112672394141555">
        <ele>2080.9099999999999</ele>
        <time>2014-07-12T11:58:01Z</time>
      </trkpt>
      <trkpt lat="45.898513616994023" lon="7.112620677798986">
        <ele>2080.9099999999999</ele>
        <time>2014-07-12T11:58:16Z</time>
      </trkpt>
      <trkpt lat="45.898526944220066" lon="7.11258321069181">
        <ele>2080.9099999999999</ele>
        <time>2014-07-12T11:58:37Z</time>
      </trkpt>
      <trkpt lat="45.898560220375657" lon="7.112580193206668">
        <ele>2080.9099999999999</ele>
        <time>2014-07-12T11:58:51Z</time>
      </trkpt>
      <trkpt lat="45.898553095757961" lon="7.112576002255082">
        <ele>2080.9099999999999</ele>
        <time>2014-07-12T11:59:03Z</time>
      </trkpt>
      <trkpt lat="45.898493751883507" lon="7.112614894285798">
        <ele>2081.3899999999999</ele>
        <time>2014-07-12T12:05:02Z</time>
      </trkpt>
      <trkpt lat="45.898540522903204" lon="7.112620007246733">
        <ele>2081.3899999999999</ele>
        <time>2014-07-12T12:05:21Z</time>
      </trkpt>
      <trkpt lat="45.898573631420732" lon="7.112662587314844">
        <ele>2080.9099999999999</ele>
        <time>2014-07-12T12:05:37Z</time>
      </trkpt>
      <trkpt lat="45.89854178018868" lon="7.112653367221355">
        <ele>2081.3899999999999</ele>
        <time>2014-07-12T12:05:51Z</time>
      </trkpt>
      <trkpt lat="45.898531889542937" lon="7.112667951732874">
        <ele>2081.3899999999999</ele>
        <time>2014-07-12T12:06:11Z</time>
      </trkpt>
      <trkpt lat="45.898530380800366" lon="7.112652445212007">
        <ele>2081.3899999999999</ele>
        <time>2014-07-12T12:06:39Z</time>
      </trkpt>
      <trkpt lat="45.898530464619398" lon="7.112672897055745">
        <ele>2081.3899999999999</ele>
        <time>2014-07-12T12:07:07Z</time>
      </trkpt>
      <trkpt lat="45.89852468110621" lon="7.112676249817014">
        <ele>2081.3899999999999</ele>
        <time>2014-07-12T12:07:31Z</time>
      </trkpt>
      <trkpt lat="45.898555777966976" lon="7.112679770216346">
        <ele>2083.79</ele>
        <time>2014-07-12T12:07:49Z</time>
      </trkpt>
      <trkpt lat="45.898547144606709" lon="7.112682787701488">
        <ele>2080.4299999999998</ele>
        <time>2014-07-12T12:07:51Z</time>
      </trkpt>
      <trkpt lat="45.898537086322904" lon="7.112664766609669">
        <ele>2082.3499999999999</ele>
        <time>2014-07-12T12:07:54Z</time>
      </trkpt>
      <trkpt lat="45.898534152656794" lon="7.11265747435391">
        <ele>2081.3899999999999</ele>
        <time>2014-07-12T12:07:56Z</time>
      </trkpt>
      <trkpt lat="45.898530129343271" lon="7.112651104107499">
        <ele>2076.5900000000001</ele>
        <time>2014-07-12T12:07:58Z</time>
      </trkpt>
      <trkpt lat="45.898529291152954" lon="7.112650098279119">
        <ele>2084.2800000000002</ele>
        <time>2014-07-12T12:07:59Z</time>
      </trkpt>
      <trkpt lat="45.898528955876827" lon="7.11264138109982">
        <ele>2081.3899999999999</ele>
        <time>2014-07-12T12:08:02Z</time>
      </trkpt>
      <trkpt lat="45.89852568693459" lon="7.112645739689469">
        <ele>2082.3499999999999</ele>
        <time>2014-07-12T12:08:20Z</time>
      </trkpt>
      <trkpt lat="45.89851931668818" lon="7.112612295895815">
        <ele>2081.8699999999999</ele>
        <time>2014-07-12T12:08:46Z</time>
      </trkpt>
      <trkpt lat="45.898522166535258" lon="7.112647918984294">
        <ele>2081.8699999999999</ele>
        <time>2014-07-12T12:09:01Z</time>
      </trkpt>
      <trkpt lat="45.898529291152954" lon="7.112645907327533">
        <ele>2081.8699999999999</ele>
        <time>2014-07-12T12:09:25Z</time>
      </trkpt>
      <trkpt lat="45.898524513468146" lon="7.112648002803326">
        <ele>2080.9099999999999</ele>
        <time>2014-07-12T12:09:47Z</time>
      </trkpt>
      <trkpt lat="45.898521579802036" lon="7.112658228725195">
        <ele>2081.8699999999999</ele>
        <time>2014-07-12T12:10:06Z</time>
      </trkpt>
      <trkpt lat="45.89853448793292" lon="7.112670382484794">
        <ele>2081.8699999999999</ele>
        <time>2014-07-12T12:10:33Z</time>
      </trkpt>
      <trkpt lat="45.898533314466476" lon="7.112658815458417">
        <ele>2082.3499999999999</ele>
        <time>2014-07-12T12:10:49Z</time>
      </trkpt>
      <trkpt lat="45.898535661399364" lon="7.11266191676259">
        <ele>2081.8699999999999</ele>
        <time>2014-07-12T12:11:09Z</time>
      </trkpt>
      <trkpt lat="45.898532308638096" lon="7.112626126036048">
        <ele>2082.3499999999999</ele>
        <time>2014-07-12T12:11:34Z</time>
      </trkpt>
      <trkpt lat="45.898531973361969" lon="7.112627048045397">
        <ele>2082.3499999999999</ele>
        <time>2014-07-12T12:11:54Z</time>
      </trkpt>
      <trkpt lat="45.898528536781669" lon="7.112660575658083">
        <ele>2082.3499999999999</ele>
        <time>2014-07-12T12:12:11Z</time>
      </trkpt>
      <trkpt lat="45.89853155426681" lon="7.1126838773489">
        <ele>2082.3499999999999</ele>
        <time>2014-07-12T12:12:34Z</time>
      </trkpt>
      <trkpt lat="45.898532560095191" lon="7.112677171826363">
        <ele>2082.3499999999999</ele>
        <time>2014-07-12T12:12:50Z</time>
      </trkpt>
      <trkpt lat="45.898526189848781" lon="7.112656971439719">
        <ele>2082.3499999999999</ele>
        <time>2014-07-12T12:13:11Z</time>
      </trkpt>
      <trkpt lat="45.89853297919035" lon="7.112645236775279">
        <ele>2082.3499999999999</ele>
        <time>2014-07-12T12:13:35Z</time>
      </trkpt>
      <trkpt lat="45.898523340001702" lon="7.112657306715846">
        <ele>2081.8699999999999</ele>
        <time>2014-07-12T12:13:54Z</time>
      </trkpt>
      <trkpt lat="45.898523842915893" lon="7.11265848018229">
        <ele>2082.3499999999999</ele>
        <time>2014-07-12T12:14:14Z</time>
      </trkpt>
      <trkpt lat="45.898530380800366" lon="7.112648086622357">
        <ele>2082.3499999999999</ele>
        <time>2014-07-12T12:14:35Z</time>
      </trkpt>
      <trkpt lat="45.898525770753622" lon="7.112658061087132">
        <ele>2083.3099999999999</ele>
        <time>2014-07-12T12:14:52Z</time>
      </trkpt>
      <trkpt lat="45.898531805723906" lon="7.112648924812675">
        <ele>2081.8699999999999</ele>
        <time>2014-07-12T12:15:23Z</time>
      </trkpt>
      <trkpt lat="45.898529626429081" lon="7.112663425505161">
        <ele>2083.3099999999999</ele>
        <time>2014-07-12T12:15:47Z</time>
      </trkpt>
      <trkpt lat="45.898529123514891" lon="7.112654289230704">
        <ele>2082.8299999999999</ele>
        <time>2014-07-12T12:16:11Z</time>
      </trkpt>
      <trkpt lat="45.898522837087512" lon="7.112670047208667">
        <ele>2081.8699999999999</ele>
        <time>2014-07-12T12:16:35Z</time>
      </trkpt>
      <trkpt lat="45.898528201505542" lon="7.112656719982624">
        <ele>2082.3499999999999</ele>
        <time>2014-07-12T12:16:58Z</time>
      </trkpt>
      <trkpt lat="45.898498361930251" lon="7.112666191533208">
        <ele>2082.3499999999999</ele>
        <time>2014-07-12T12:17:17Z</time>
      </trkpt>
      <trkpt lat="45.898451423272491" lon="7.112660491839051">
        <ele>2082.3499999999999</ele>
        <time>2014-07-12T12:17:28Z</time>
      </trkpt>
      <trkpt lat="45.898414291441441" lon="7.112643392756581">
        <ele>2082.3499999999999</ele>
        <time>2014-07-12T12:17:41Z</time>
      </trkpt>
      <trkpt lat="45.89835511520505" lon="7.112621432170272">
        <ele>2082.3499999999999</ele>
        <time>2014-07-12T12:17:50Z</time>
      </trkpt>
      <trkpt lat="45.898217149078846" lon="7.112590922042728">
        <ele>2081.8699999999999</ele>
        <time>2014-07-12T12:18:06Z</time>
      </trkpt>
      <trkpt lat="45.898051187396049" lon="7.112520933151245">
        <ele>2080.9099999999999</ele>
        <time>2014-07-12T12:18:23Z</time>
      </trkpt>
      <trkpt lat="45.897908192127943" lon="7.11244105361402">
        <ele>2079.4699999999998</ele>
        <time>2014-07-12T12:18:39Z</time>
      </trkpt>
      <trkpt lat="45.897807106375694" lon="7.112417668104172">
        <ele>2078.9899999999998</ele>
        <time>2014-07-12T12:18:50Z</time>
      </trkpt>
      <trkpt lat="45.897649861872196" lon="7.11241121403873">
        <ele>2078.0300000000002</ele>
        <time>2014-07-12T12:19:05Z</time>
      </trkpt>
      <trkpt lat="45.897478368133307" lon="7.112409202381969">
        <ele>2076.5900000000001</ele>
        <time>2014-07-12T12:19:20Z</time>
      </trkpt>
      <trkpt lat="45.897441068664193" lon="7.112393276765943">
        <ele>2076.5900000000001</ele>
        <time>2014-07-12T12:19:23Z</time>
      </trkpt>
      <trkpt lat="45.8972835727036" lon="7.112330831587315">
        <ele>2075.6199999999999</ele>
        <time>2014-07-12T12:19:38Z</time>
      </trkpt>
      <trkpt lat="45.897234454751015" lon="7.112277606502175">
        <ele>2075.6199999999999</ele>
        <time>2014-07-12T12:19:43Z</time>
      </trkpt>
      <trkpt lat="45.897162957116961" lon="7.112208623439074">
        <ele>2074.6599999999999</ele>
        <time>2014-07-12T12:19:50Z</time>
      </trkpt>
      <trkpt lat="45.897092800587416" lon="7.112229326739907">
        <ele>2074.1799999999998</ele>
        <time>2014-07-12T12:19:57Z</time>
      </trkpt>
      <trkpt lat="45.897090118378401" lon="7.112298058345914">
        <ele>2073.6999999999998</ele>
        <time>2014-07-12T12:20:01Z</time>
      </trkpt>
      <trkpt lat="45.897111743688583" lon="7.112386403605342">
        <ele>2072.2600000000002</ele>
        <time>2014-07-12T12:20:08Z</time>
      </trkpt>
      <trkpt lat="45.897141415625811" lon="7.112479778006673">
        <ele>2071.3000000000002</ele>
        <time>2014-07-12T12:20:14Z</time>
      </trkpt>
      <trkpt lat="45.897232359275222" lon="7.112692343071103">
        <ele>2067.4499999999998</ele>
        <time>2014-07-12T12:20:30Z</time>
      </trkpt>
      <trkpt lat="45.897240824997425" lon="7.112726457417011">
        <ele>2070.8200000000002</ele>
        <time>2014-07-12T12:20:32Z</time>
      </trkpt>
      <trkpt lat="45.897274687886238" lon="7.112805582582951">
        <ele>2067.4499999999998</ele>
        <time>2014-07-12T12:20:37Z</time>
      </trkpt>
      <trkpt lat="45.897328415885568" lon="7.112969867885113">
        <ele>2066.0100000000002</ele>
        <time>2014-07-12T12:20:47Z</time>
      </trkpt>
      <trkpt lat="45.897328080609441" lon="7.113082855939865">
        <ele>2065.0500000000002</ele>
        <time>2014-07-12T12:20:54Z</time>
      </trkpt>
      <trkpt lat="45.897303437814116" lon="7.113353256136179">
        <ele>2063.6100000000001</ele>
        <time>2014-07-12T12:21:10Z</time>
      </trkpt>
      <trkpt lat="45.897374432533979" lon="7.113570515066385">
        <ele>2063.1300000000001</ele>
        <time>2014-07-12T12:21:26Z</time>
      </trkpt>
      <trkpt lat="45.897410558536649" lon="7.1136508975178">
        <ele>2063.1300000000001</ele>
        <time>2014-07-12T12:21:32Z</time>
      </trkpt>
      <trkpt lat="45.897504016757011" lon="7.113812584429979">
        <ele>2063.1300000000001</ele>
        <time>2014-07-12T12:21:45Z</time>
      </trkpt>
      <trkpt lat="45.897617759183049" lon="7.11393672041595">
        <ele>2062.1700000000001</ele>
        <time>2014-07-12T12:21:57Z</time>
      </trkpt>
      <trkpt lat="45.897674253210425" lon="7.114070327952504">
        <ele>2061.6799999999998</ele>
        <time>2014-07-12T12:22:06Z</time>
      </trkpt>
      <trkpt lat="45.897814314812422" lon="7.1142553165555">
        <ele>2061.6799999999998</ele>
        <time>2014-07-12T12:22:23Z</time>
      </trkpt>
      <trkpt lat="45.897942055016756" lon="7.114404011517763">
        <ele>2062.1700000000001</ele>
        <time>2014-07-12T12:22:38Z</time>
      </trkpt>
      <trkpt lat="45.898116650059819" lon="7.114565363153815">
        <ele>2061.1999999999998</ele>
        <time>2014-07-12T12:22:56Z</time>
      </trkpt>
      <trkpt lat="45.898303650319576" lon="7.114633591845632">
        <ele>2059.7600000000002</ele>
        <time>2014-07-12T12:23:13Z</time>
      </trkpt>
      <trkpt lat="45.898522417992353" lon="7.114673489704728">
        <ele>2058.8000000000002</ele>
        <time>2014-07-12T12:23:32Z</time>
      </trkpt>
      <trkpt lat="45.898708747699857" lon="7.114717829972506">
        <ele>2058.3200000000002</ele>
        <time>2014-07-12T12:23:48Z</time>
      </trkpt>
      <trkpt lat="45.898892981931567" lon="7.114824531599879">
        <ele>2056.8800000000001</ele>
        <time>2014-07-12T12:24:05Z</time>
      </trkpt>
      <trkpt lat="45.898929191753268" lon="7.114914217963815">
        <ele>2055.9200000000001</ele>
        <time>2014-07-12T12:24:11Z</time>
      </trkpt>
      <trkpt lat="45.89892097748816" lon="7.115003820508719">
        <ele>2055.9200000000001</ele>
        <time>2014-07-12T12:24:15Z</time>
      </trkpt>
      <trkpt lat="45.898779071867466" lon="7.115178750827909">
        <ele>2054.4699999999998</ele>
        <time>2014-07-12T12:24:30Z</time>
      </trkpt>
      <trkpt lat="45.898586791008711" lon="7.115209009498358">
        <ele>2053.5100000000002</ele>
        <time>2014-07-12T12:24:46Z</time>
      </trkpt>
      <trkpt lat="45.898405406624079" lon="7.115140194073319">
        <ele>2052.0700000000002</ele>
        <time>2014-07-12T12:25:02Z</time>
      </trkpt>
      <trkpt lat="45.898234331980348" lon="7.114987475797534">
        <ele>2050.1500000000001</ele>
        <time>2014-07-12T12:25:19Z</time>
      </trkpt>
      <trkpt lat="45.898101227357984" lon="7.114904997870326">
        <ele>2048.23</ele>
        <time>2014-07-12T12:25:32Z</time>
      </trkpt>
      <trkpt lat="45.897895200178027" lon="7.114886557683349">
        <ele>2044.8599999999999</ele>
        <time>2014-07-12T12:25:50Z</time>
      </trkpt>
      <trkpt lat="45.897720437496901" lon="7.114843055605888">
        <ele>2041.98</ele>
        <time>2014-07-12T12:26:06Z</time>
      </trkpt>
      <trkpt lat="45.897508962079883" lon="7.114814976230264">
        <ele>2039.0899999999999</ele>
        <time>2014-07-12T12:26:24Z</time>
      </trkpt>
      <trkpt lat="45.897484654560685" lon="7.11483190767467">
        <ele>2038.1300000000001</ele>
        <time>2014-07-12T12:26:26Z</time>
      </trkpt>
      <trkpt lat="45.897472249343991" lon="7.114901561290026">
        <ele>2037.1700000000001</ele>
        <time>2014-07-12T12:26:31Z</time>
      </trkpt>
      <trkpt lat="45.897481050342321" lon="7.114927964285016">
        <ele>2037.1700000000001</ele>
        <time>2014-07-12T12:26:33Z</time>
      </trkpt>
      <trkpt lat="45.897558080032468" lon="7.114971717819572">
        <ele>2035.73</ele>
        <time>2014-07-12T12:26:40Z</time>
      </trkpt>
      <trkpt lat="45.897601079195738" lon="7.114993678405881">
        <ele>2035.25</ele>
        <time>2014-07-12T12:26:44Z</time>
      </trkpt>
      <trkpt lat="45.897742649540305" lon="7.115157125517726">
        <ele>2033.3299999999999</ele>
        <time>2014-07-12T12:27:00Z</time>
      </trkpt>
      <trkpt lat="45.897883800789714" lon="7.11529802531004">
        <ele>2030.9200000000001</ele>
        <time>2014-07-12T12:27:15Z</time>
      </trkpt>
      <trkpt lat="45.898004332557321" lon="7.115506986156106">
        <ele>2029</ele>
        <time>2014-07-12T12:27:31Z</time>
      </trkpt>
      <trkpt lat="45.898112207651138" lon="7.115663308650255">
        <ele>2027.5599999999999</ele>
        <time>2014-07-12T12:27:45Z</time>
      </trkpt>
      <trkpt lat="45.898267272859812" lon="7.115823151543737">
        <ele>2025.1500000000001</ele>
        <time>2014-07-12T12:28:01Z</time>
      </trkpt>
      <trkpt lat="45.89843574911356" lon="7.115975031629205">
        <ele>2022.75</ele>
        <time>2014-07-12T12:28:18Z</time>
      </trkpt>
      <trkpt lat="45.898582683876157" lon="7.116105034947395">
        <ele>2020.3499999999999</ele>
        <time>2014-07-12T12:28:33Z</time>
      </trkpt>
      <trkpt lat="45.898775467649102" lon="7.116240737959743">
        <ele>2017.9400000000001</ele>
        <time>2014-07-12T12:28:52Z</time>
      </trkpt>
      <trkpt lat="45.898928856477141" lon="7.116329669952393">
        <ele>2015.0599999999999</ele>
        <time>2014-07-12T12:29:06Z</time>
      </trkpt>
      <trkpt lat="45.899104038253427" lon="7.116434024646878">
        <ele>2011.7</ele>
        <time>2014-07-12T12:29:22Z</time>
      </trkpt>
      <trkpt lat="45.899214344099164" lon="7.116512479260564">
        <ele>2008.8099999999999</ele>
        <time>2014-07-12T12:29:34Z</time>
      </trkpt>
      <trkpt lat="45.8993817307055" lon="7.116610212251544">
        <ele>2005.45</ele>
        <time>2014-07-12T12:29:50Z</time>
      </trkpt>
      <trkpt lat="45.899579292163253" lon="7.116716075688601">
        <ele>2003.04</ele>
        <time>2014-07-12T12:30:08Z</time>
      </trkpt>
      <trkpt lat="45.899769393727183" lon="7.11678153835237">
        <ele>2000.1600000000001</ele>
        <time>2014-07-12T12:30:25Z</time>
      </trkpt>
      <trkpt lat="45.899991681799293" lon="7.116837445646524">
        <ele>1996.8</ele>
        <time>2014-07-12T12:30:44Z</time>
      </trkpt>
      <trkpt lat="45.900175664573908" lon="7.116822609677911">
        <ele>1993.4300000000001</ele>
        <time>2014-07-12T12:31:00Z</time>
      </trkpt>
      <trkpt lat="45.900355791673064" lon="7.116825543344021">
        <ele>1990.55</ele>
        <time>2014-07-12T12:31:16Z</time>
      </trkpt>
      <trkpt lat="45.900421924889088" lon="7.116831913590431">
        <ele>1989.0999999999999</ele>
        <time>2014-07-12T12:31:22Z</time>
      </trkpt>
      <trkpt lat="45.900410190224648" lon="7.11695646867156">
        <ele>1987.6600000000001</ele>
        <time>2014-07-12T12:31:29Z</time>
      </trkpt>
      <trkpt lat="45.900376327335835" lon="7.116989912465215">
        <ele>1986.7</ele>
        <time>2014-07-12T12:31:32Z</time>
      </trkpt>
      <trkpt lat="45.900158146396279" lon="7.11706786416471">
        <ele>1984.3</ele>
        <time>2014-07-12T12:31:50Z</time>
      </trkpt>
      <trkpt lat="45.899962093681097" lon="7.117162579670548">
        <ele>1980.9300000000001</ele>
        <time>2014-07-12T12:32:08Z</time>
      </trkpt>
      <trkpt lat="45.899979611858726" lon="7.117181606590748">
        <ele>1980.45</ele>
        <time>2014-07-12T12:32:11Z</time>
      </trkpt>
      <trkpt lat="45.900137275457382" lon="7.117190826684237">
        <ele>1977.0899999999999</ele>
        <time>2014-07-12T12:32:25Z</time>
      </trkpt>
      <trkpt lat="45.900324359536171" lon="7.117214128375053">
        <ele>1974.2</ele>
        <time>2014-07-12T12:32:42Z</time>
      </trkpt>
      <trkpt lat="45.900504989549518" lon="7.117228796705604">
        <ele>1971.8</ele>
        <time>2014-07-12T12:32:58Z</time>
      </trkpt>
      <trkpt lat="45.900668855756521" lon="7.117196107283235">
        <ele>1968.9200000000001</ele>
        <time>2014-07-12T12:33:11Z</time>
      </trkpt>
      <trkpt lat="45.900816293433309" lon="7.117089740931988">
        <ele>1965.55</ele>
        <time>2014-07-12T12:33:26Z</time>
      </trkpt>
      <trkpt lat="45.900832135230303" lon="7.11683476343751">
        <ele>1964.1099999999999</ele>
        <time>2014-07-12T12:33:41Z</time>
      </trkpt>
      <trkpt lat="45.900852167978883" lon="7.116666371002793">
        <ele>1963.1500000000001</ele>
        <time>2014-07-12T12:33:51Z</time>
      </trkpt>
      <trkpt lat="45.901064062491059" lon="7.116637201979756">
        <ele>1960.75</ele>
        <time>2014-07-12T12:34:09Z</time>
      </trkpt>
      <trkpt lat="45.901237651705742" lon="7.116625215858221">
        <ele>1957.8599999999999</ele>
        <time>2014-07-12T12:34:24Z</time>
      </trkpt>
      <trkpt lat="45.901486845687032" lon="7.116556316614151">
        <ele>1954.5</ele>
        <time>2014-07-12T12:34:45Z</time>
      </trkpt>
      <trkpt lat="45.901495227590203" lon="7.116551455110312">
        <ele>1954.5</ele>
        <time>2014-07-12T12:34:46Z</time>
      </trkpt>
      <trkpt lat="45.901703350245953" lon="7.116396054625511">
        <ele>1952.5699999999999</ele>
        <time>2014-07-12T12:35:05Z</time>
      </trkpt>
      <trkpt lat="45.9018390532583" lon="7.116243503987789">
        <ele>1950.1700000000001</ele>
        <time>2014-07-12T12:35:21Z</time>
      </trkpt>
      <trkpt lat="45.901962518692017" lon="7.116097658872604">
        <ele>1949.21</ele>
        <time>2014-07-12T12:35:35Z</time>
      </trkpt>
      <trkpt lat="45.902118673548102" lon="7.115920381620526">
        <ele>1947.77</ele>
        <time>2014-07-12T12:35:51Z</time>
      </trkpt>
      <trkpt lat="45.902162929996848" lon="7.115833377465606">
        <ele>1946.8099999999999</ele>
        <time>2014-07-12T12:35:58Z</time>
      </trkpt>
      <trkpt lat="45.902201654389501" lon="7.115839160978794">
        <ele>1946.3299999999999</ele>
        <time>2014-07-12T12:36:01Z</time>
      </trkpt>
      <trkpt lat="45.902217831462622" lon="7.115918286144733">
        <ele>1944.8800000000001</ele>
        <time>2014-07-12T12:36:07Z</time>
      </trkpt>
      <trkpt lat="45.902101239189506" lon="7.116144094616175">
        <ele>1942.48</ele>
        <time>2014-07-12T12:36:23Z</time>
      </trkpt>
      <trkpt lat="45.901954891160131" lon="7.116373926401138">
        <ele>1940.0799999999999</ele>
        <time>2014-07-12T12:36:41Z</time>
      </trkpt>
      <trkpt lat="45.901904264464974" lon="7.116595460101962">
        <ele>1938.1600000000001</ele>
        <time>2014-07-12T12:36:55Z</time>
      </trkpt>
      <trkpt lat="45.901930667459965" lon="7.116638626903296">
        <ele>1937.6700000000001</ele>
        <time>2014-07-12T12:36:59Z</time>
      </trkpt>
      <trkpt lat="45.902000991627574" lon="7.116728648543358">
        <ele>1937.1900000000001</ele>
        <time>2014-07-12T12:37:07Z</time>
      </trkpt>
      <trkpt lat="45.901953550055623" lon="7.116970382630825">
        <ele>1934.3099999999999</ele>
        <time>2014-07-12T12:37:23Z</time>
      </trkpt>
      <trkpt lat="45.901805944740772" lon="7.117083538323641">
        <ele>1930.95</ele>
        <time>2014-07-12T12:37:37Z</time>
      </trkpt>
      <trkpt lat="45.901607545092702" lon="7.117158221080899">
        <ele>1928.54</ele>
        <time>2014-07-12T12:37:54Z</time>
      </trkpt>
      <trkpt lat="45.901489360257983" lon="7.117171967402101">
        <ele>1927.0999999999999</ele>
        <time>2014-07-12T12:38:05Z</time>
      </trkpt>
      <trkpt lat="45.901461699977517" lon="7.117246314883232">
        <ele>1925.1800000000001</ele>
        <time>2014-07-12T12:38:13Z</time>
      </trkpt>
      <trkpt lat="45.901486342772841" lon="7.117258217185736">
        <ele>1924.7</ele>
        <time>2014-07-12T12:38:16Z</time>
      </trkpt>
      <trkpt lat="45.901696309447289" lon="7.1172134578228">
        <ele>1922.29</ele>
        <time>2014-07-12T12:38:35Z</time>
      </trkpt>
      <trkpt lat="45.901874341070652" lon="7.117210188880563">
        <ele>1920.8499999999999</ele>
        <time>2014-07-12T12:38:51Z</time>
      </trkpt>
      <trkpt lat="45.902084140107036" lon="7.117213793098927">
        <ele>1918.9300000000001</ele>
        <time>2014-07-12T12:39:09Z</time>
      </trkpt>
      <trkpt lat="45.902203414589167" lon="7.117221504449844">
        <ele>1917.97</ele>
        <time>2014-07-12T12:39:19Z</time>
      </trkpt>
      <trkpt lat="45.902376836165786" lon="7.117191581055522">
        <ele>1915.5599999999999</ele>
        <time>2014-07-12T12:39:34Z</time>
      </trkpt>
      <trkpt lat="45.902575235813856" lon="7.117128381505609">
        <ele>1913.1600000000001</ele>
        <time>2014-07-12T12:39:50Z</time>
      </trkpt>
      <trkpt lat="45.902734575793147" lon="7.117106337100267">
        <ele>1911.24</ele>
        <time>2014-07-12T12:40:05Z</time>
      </trkpt>
      <trkpt lat="45.902789728716016" lon="7.117080520838499">
        <ele>1910.28</ele>
        <time>2014-07-12T12:40:09Z</time>
      </trkpt>
      <trkpt lat="45.902805151417851" lon="7.116887401789427">
        <ele>1907.8699999999999</ele>
        <time>2014-07-12T12:40:23Z</time>
      </trkpt>
      <trkpt lat="45.902798697352409" lon="7.116860495880246">
        <ele>1907.3900000000001</ele>
        <time>2014-07-12T12:40:25Z</time>
      </trkpt>
      <trkpt lat="45.902732731774449" lon="7.116646002978087">
        <ele>1904.99</ele>
        <time>2014-07-12T12:40:38Z</time>
      </trkpt>
      <trkpt lat="45.902779921889305" lon="7.116372417658567">
        <ele>1902.1099999999999</ele>
        <time>2014-07-12T12:40:54Z</time>
      </trkpt>
      <trkpt lat="45.902914116159081" lon="7.116183070465922">
        <ele>1899.22</ele>
        <time>2014-07-12T12:41:10Z</time>
      </trkpt>
      <trkpt lat="45.902948062866926" lon="7.116151051595807">
        <ele>1898.74</ele>
        <time>2014-07-12T12:41:14Z</time>
      </trkpt>
      <trkpt lat="45.903091561049223" lon="7.115985173732042">
        <ele>1895.3800000000001</ele>
        <time>2014-07-12T12:41:30Z</time>
      </trkpt>
      <trkpt lat="45.903157526627183" lon="7.115839580073953">
        <ele>1893.45</ele>
        <time>2014-07-12T12:41:40Z</time>
      </trkpt>
      <trkpt lat="45.903275376185775" lon="7.115738661959767">
        <ele>1892.01</ele>
        <time>2014-07-12T12:41:53Z</time>
      </trkpt>
      <trkpt lat="45.903324242681265" lon="7.1156938187778">
        <ele>1891.53</ele>
        <time>2014-07-12T12:41:58Z</time>
      </trkpt>
      <trkpt lat="45.903450977057219" lon="7.115510003641248">
        <ele>1887.6900000000001</ele>
        <time>2014-07-12T12:42:13Z</time>
      </trkpt>
      <trkpt lat="45.903593972325325" lon="7.115375306457281">
        <ele>1884.8</ele>
        <time>2014-07-12T12:42:28Z</time>
      </trkpt>
      <trkpt lat="45.903648538514972" lon="7.115319985896349">
        <ele>1883.8399999999999</ele>
        <time>2014-07-12T12:42:42Z</time>
      </trkpt>
      <trkpt lat="45.903688184916973" lon="7.115314705297351">
        <ele>1881.4400000000001</ele>
        <time>2014-07-12T12:42:54Z</time>
      </trkpt>
      <trkpt lat="45.903738811612129" lon="7.115320656448603">
        <ele>1879.03</ele>
        <time>2014-07-12T12:43:02Z</time>
      </trkpt>
      <trkpt lat="45.903851380571723" lon="7.115254607051611">
        <ele>1875.6700000000001</ele>
        <time>2014-07-12T12:43:16Z</time>
      </trkpt>
      <trkpt lat="45.903911562636495" lon="7.115174392238259">
        <ele>1872.79</ele>
        <time>2014-07-12T12:43:30Z</time>
      </trkpt>
      <trkpt lat="45.903993453830481" lon="7.115179589018226">
        <ele>1869.4200000000001</ele>
        <time>2014-07-12T12:43:41Z</time>
      </trkpt>
      <trkpt lat="45.904078697785735" lon="7.115159220993519">
        <ele>1866.54</ele>
        <time>2014-07-12T12:43:53Z</time>
      </trkpt>
      <trkpt lat="45.904147932305932" lon="7.115112114697695">
        <ele>1864.1300000000001</ele>
        <time>2014-07-12T12:44:06Z</time>
      </trkpt>
      <trkpt lat="45.904202247038484" lon="7.115099374204874">
        <ele>1861.73</ele>
        <time>2014-07-12T12:44:17Z</time>
      </trkpt>
      <trkpt lat="45.90427097864449" lon="7.11510750465095">
        <ele>1859.3299999999999</ele>
        <time>2014-07-12T12:44:28Z</time>
      </trkpt>
      <trkpt lat="45.904354713857174" lon="7.115061739459634">
        <ele>1855.96</ele>
        <time>2014-07-12T12:44:40Z</time>
      </trkpt>
      <trkpt lat="45.904409866780043" lon="7.11500876583159">
        <ele>1852.5999999999999</ele>
        <time>2014-07-12T12:44:51Z</time>
      </trkpt>
      <trkpt lat="45.904421098530293" lon="7.115012118592858">
        <ele>1852.1199999999999</ele>
        <time>2014-07-12T12:44:54Z</time>
      </trkpt>
      <trkpt lat="45.904456553980708" lon="7.114985212683678">
        <ele>1850.1900000000001</ele>
        <time>2014-07-12T12:45:01Z</time>
      </trkpt>
      <trkpt lat="45.904520004987717" lon="7.11491103284061">
        <ele>1847.79</ele>
        <time>2014-07-12T12:45:11Z</time>
      </trkpt>
      <trkpt lat="45.904560824856162" lon="7.114908937364817">
        <ele>1846.3499999999999</ele>
        <time>2014-07-12T12:45:16Z</time>
      </trkpt>
      <trkpt lat="45.904606757685542" lon="7.114853952080011">
        <ele>1844.4300000000001</ele>
        <time>2014-07-12T12:45:23Z</time>
      </trkpt>
      <trkpt lat="45.904680769890547" lon="7.114769127219915">
        <ele>1841.54</ele>
        <time>2014-07-12T12:45:36Z</time>
      </trkpt>
      <trkpt lat="45.904748328030109" lon="7.114720596000552">
        <ele>1839.6199999999999</ele>
        <time>2014-07-12T12:45:48Z</time>
      </trkpt>
      <trkpt lat="45.904816891998053" lon="7.114652451127768">
        <ele>1837.22</ele>
        <time>2014-07-12T12:46:00Z</time>
      </trkpt>
      <trkpt lat="45.904899202287197" lon="7.11462277919054">
        <ele>1834.3299999999999</ele>
        <time>2014-07-12T12:46:12Z</time>
      </trkpt>
      <trkpt lat="45.904959803447127" lon="7.114564776420593">
        <ele>1831.9300000000001</ele>
        <time>2014-07-12T12:46:24Z</time>
      </trkpt>
      <trkpt lat="45.90505912899971" lon="7.114526135846973">
        <ele>1829.05</ele>
        <time>2014-07-12T12:46:39Z</time>
      </trkpt>
      <trkpt lat="45.905164321884513" lon="7.114471988752484">
        <ele>1825.6800000000001</ele>
        <time>2014-07-12T12:46:54Z</time>
      </trkpt>
      <trkpt lat="45.90526775456965" lon="7.114411219954491">
        <ele>1822.3199999999999</ele>
        <time>2014-07-12T12:47:10Z</time>
      </trkpt>
      <trkpt lat="45.905368169769645" lon="7.114371992647648">
        <ele>1819.9100000000001</ele>
        <time>2014-07-12T12:47:24Z</time>
      </trkpt>
      <trkpt lat="45.905428854748607" lon="7.11430761963129">
        <ele>1817.99</ele>
        <time>2014-07-12T12:47:36Z</time>
      </trkpt>
      <trkpt lat="45.905510997399688" lon="7.114191362634301">
        <ele>1815.1099999999999</ele>
        <time>2014-07-12T12:47:51Z</time>
      </trkpt>
      <trkpt lat="45.90563278645277" lon="7.114111818373203">
        <ele>1812.22</ele>
        <time>2014-07-12T12:48:05Z</time>
      </trkpt>
      <trkpt lat="45.90571191161871" lon="7.114099664613605">
        <ele>1809.8199999999999</ele>
        <time>2014-07-12T12:48:20Z</time>
      </trkpt>
      <trkpt lat="45.905709229409695" lon="7.114108549430966">
        <ele>1809.3399999999999</ele>
        <time>2014-07-12T12:48:21Z</time>
      </trkpt>
      <trkpt lat="45.905716605484486" lon="7.114254646003246">
        <ele>1805.97</ele>
        <time>2014-07-12T12:48:34Z</time>
      </trkpt>
      <trkpt lat="45.905737644061446" lon="7.114403340965509">
        <ele>1803.0899999999999</ele>
        <time>2014-07-12T12:48:48Z</time>
      </trkpt>
      <trkpt lat="45.905725825577974" lon="7.114487662911415">
        <ele>1801.1700000000001</ele>
        <time>2014-07-12T12:49:00Z</time>
      </trkpt>
      <trkpt lat="45.905705541372299" lon="7.114620599895716">
        <ele>1798.76</ele>
        <time>2014-07-12T12:49:10Z</time>
      </trkpt>
      <trkpt lat="45.905599929392338" lon="7.114747669547796">
        <ele>1796.3599999999999</ele>
        <time>2014-07-12T12:49:25Z</time>
      </trkpt>
      <trkpt lat="45.905488701537251" lon="7.114871889352799">
        <ele>1794.4400000000001</ele>
        <time>2014-07-12T12:49:39Z</time>
      </trkpt>
      <trkpt lat="45.905363308265805" lon="7.115075485780835">
        <ele>1792.03</ele>
        <time>2014-07-12T12:49:56Z</time>
      </trkpt>
      <trkpt lat="45.905354004353285" lon="7.115084789693356">
        <ele>1791.55</ele>
        <time>2014-07-12T12:49:57Z</time>
      </trkpt>
      <trkpt lat="45.905320728197694" lon="7.115147151052952">
        <ele>1791.0699999999999</ele>
        <time>2014-07-12T12:50:02Z</time>
      </trkpt>
      <trkpt lat="45.905237747356296" lon="7.115280255675316">
        <ele>1789.1500000000001</ele>
        <time>2014-07-12T12:50:13Z</time>
      </trkpt>
      <trkpt lat="45.905215786769986" lon="7.115426519885659">
        <ele>1788.6700000000001</ele>
        <time>2014-07-12T12:50:22Z</time>
      </trkpt>
      <trkpt lat="45.905194412916899" lon="7.115531880408526">
        <ele>1787.71</ele>
        <time>2014-07-12T12:50:29Z</time>
      </trkpt>
      <trkpt lat="45.905206315219402" lon="7.115720808506012">
        <ele>1788.6700000000001</ele>
        <time>2014-07-12T12:50:43Z</time>
      </trkpt>
      <trkpt lat="45.905304718762636" lon="7.115767998620868">
        <ele>1787.71</ele>
        <time>2014-07-12T12:50:55Z</time>
      </trkpt>
      <trkpt lat="45.905384682118893" lon="7.115709409117699">
        <ele>1787.23</ele>
        <time>2014-07-12T12:51:08Z</time>
      </trkpt>
      <trkpt lat="45.905399015173316" lon="7.115689208731055">
        <ele>1786.27</ele>
        <time>2014-07-12T12:51:20Z</time>
      </trkpt>
      <trkpt lat="45.905416533350945" lon="7.115697842091322">
        <ele>1786.27</ele>
        <time>2014-07-12T12:51:30Z</time>
      </trkpt>
      <trkpt lat="45.905462047085166" lon="7.115746960043907">
        <ele>1786.75</ele>
        <time>2014-07-12T12:51:45Z</time>
      </trkpt>
      <trkpt lat="45.905447211116552" lon="7.115747127681971">
        <ele>1786.27</ele>
        <time>2014-07-12T12:52:05Z</time>
      </trkpt>
      <trkpt lat="45.905408151447773" lon="7.115741008892655">
        <ele>1786.27</ele>
        <time>2014-07-12T12:52:31Z</time>
      </trkpt>
      <trkpt lat="45.905426507815719" lon="7.115695159882307">
        <ele>1786.27</ele>
        <time>2014-07-12T12:52:59Z</time>
      </trkpt>
      <trkpt lat="45.905352076515555" lon="7.115691974759102">
        <ele>1786.27</ele>
        <time>2014-07-12T12:53:28Z</time>
      </trkpt>
      <trkpt lat="45.905327601358294" lon="7.115636821836233">
        <ele>1786.27</ele>
        <time>2014-07-12T12:53:44Z</time>
      </trkpt>
      <trkpt lat="45.905353333801031" lon="7.115604048594832">
        <ele>1786.27</ele>
        <time>2014-07-12T12:54:06Z</time>
      </trkpt>
      <trkpt lat="45.905459616333246" lon="7.11574662476778">
        <ele>1786.27</ele>
        <time>2014-07-12T12:54:34Z</time>
      </trkpt>
      <trkpt lat="45.905392477288842" lon="7.115752240642905">
        <ele>1786.27</ele>
        <time>2014-07-12T12:54:56Z</time>
      </trkpt>
      <trkpt lat="45.905385771766305" lon="7.115739332512021">
        <ele>1787.23</ele>
        <time>2014-07-12T12:55:05Z</time>
      </trkpt>
      <trkpt lat="45.905408235266805" lon="7.115722987800837">
        <ele>1786.75</ele>
        <time>2014-07-12T12:55:19Z</time>
      </trkpt>
      <trkpt lat="45.905408905819058" lon="7.115777973085642">
        <ele>1787.23</ele>
        <time>2014-07-12T12:55:24Z</time>
      </trkpt>
      <trkpt lat="45.905345119535923" lon="7.115833293646574">
        <ele>1787.23</ele>
        <time>2014-07-12T12:55:39Z</time>
      </trkpt>
      <trkpt lat="45.905330451205373" lon="7.115810662508011">
        <ele>1787.23</ele>
        <time>2014-07-12T12:55:45Z</time>
      </trkpt>
      <trkpt lat="45.90522182174027" lon="7.115783672779799">
        <ele>1787.71</ele>
        <time>2014-07-12T12:56:04Z</time>
      </trkpt>
      <trkpt lat="45.905238669365644" lon="7.115793395787478">
        <ele>1787.71</ele>
        <time>2014-07-12T12:56:06Z</time>
      </trkpt>
      <trkpt lat="45.905344197526574" lon="7.115675630047917">
        <ele>1785.79</ele>
        <time>2014-07-12T12:56:24Z</time>
      </trkpt>
      <trkpt lat="45.905398176982999" lon="7.11576322093606">
        <ele>1787.23</ele>
        <time>2014-07-12T12:56:36Z</time>
      </trkpt>
      <trkpt lat="45.905415359884501" lon="7.115765232592821">
        <ele>1787.23</ele>
        <time>2014-07-12T12:56:38Z</time>
      </trkpt>
      <trkpt lat="45.905514350160956" lon="7.115711336955428">
        <ele>1789.6300000000001</ele>
        <time>2014-07-12T12:56:50Z</time>
      </trkpt>
      <trkpt lat="45.905544441193342" lon="7.115678898990154">
        <ele>1786.75</ele>
        <time>2014-07-12T12:56:55Z</time>
      </trkpt>
      <trkpt lat="45.905553158372641" lon="7.115669175982475">
        <ele>1788.1900000000001</ele>
        <time>2014-07-12T12:57:02Z</time>
      </trkpt>
      <trkpt lat="45.905576376244426" lon="7.115678479894996">
        <ele>1787.23</ele>
        <time>2014-07-12T12:57:19Z</time>
      </trkpt>
      <trkpt lat="45.905585931614041" lon="7.115688370540738">
        <ele>1787.23</ele>
        <time>2014-07-12T12:57:39Z</time>
      </trkpt>
      <trkpt lat="45.905598923563957" lon="7.115667834877968">
        <ele>1787.23</ele>
        <time>2014-07-12T12:57:59Z</time>
      </trkpt>
      <trkpt lat="45.905628511682153" lon="7.115673031657934">
        <ele>1787.23</ele>
        <time>2014-07-12T12:58:12Z</time>
      </trkpt>
      <trkpt lat="45.905659692361951" lon="7.115715695545077">
        <ele>1787.23</ele>
        <time>2014-07-12T12:58:32Z</time>
      </trkpt>
      <trkpt lat="45.905682742595673" lon="7.115730531513691">
        <ele>1788.1900000000001</ele>
        <time>2014-07-12T12:58:56Z</time>
      </trkpt>
      <trkpt lat="45.905658435076475" lon="7.115701446309686">
        <ele>1788.1900000000001</ele>
        <time>2014-07-12T12:59:15Z</time>
      </trkpt>
      <trkpt lat="45.905638067051768" lon="7.115702871233225">
        <ele>1788.6700000000001</ele>
        <time>2014-07-12T12:59:29Z</time>
      </trkpt>
      <trkpt lat="45.905629517510533" lon="7.115675630047917">
        <ele>1788.6700000000001</ele>
        <time>2014-07-12T12:59:32Z</time>
      </trkpt>
      <trkpt lat="45.905614262446761" lon="7.115656267851591">
        <ele>1789.1500000000001</ele>
        <time>2014-07-12T12:59:48Z</time>
      </trkpt>
      <trkpt lat="45.905600851401687" lon="7.115664314478636">
        <ele>1789.1500000000001</ele>
        <time>2014-07-12T13:00:05Z</time>
      </trkpt>
      <trkpt lat="45.905642174184322" lon="7.115672947838903">
        <ele>1789.1500000000001</ele>
        <time>2014-07-12T13:00:23Z</time>
      </trkpt>
      <trkpt lat="45.9056606143713" lon="7.115732543170452">
        <ele>1789.6300000000001</ele>
        <time>2014-07-12T13:00:36Z</time>
      </trkpt>
      <trkpt lat="45.905684251338243" lon="7.115730028599501">
        <ele>1789.6300000000001</ele>
        <time>2014-07-12T13:00:59Z</time>
      </trkpt>
      <trkpt lat="45.905664218589664" lon="7.115708570927382">
        <ele>1789.6300000000001</ele>
        <time>2014-07-12T13:01:17Z</time>
      </trkpt>
      <trkpt lat="45.90568752028048" lon="7.115642186254263">
        <ele>1790.1099999999999</ele>
        <time>2014-07-12T13:01:32Z</time>
      </trkpt>
      <trkpt lat="45.905724233016372" lon="7.115676887333393">
        <ele>1790.1099999999999</ele>
        <time>2014-07-12T13:01:41Z</time>
      </trkpt>
      <trkpt lat="45.905780727043748" lon="7.115664398297668">
        <ele>1790.1099999999999</ele>
        <time>2014-07-12T13:01:54Z</time>
      </trkpt>
      <trkpt lat="45.905809141695499" lon="7.115736063569784">
        <ele>1790.1099999999999</ele>
        <time>2014-07-12T13:02:17Z</time>
      </trkpt>
      <trkpt lat="45.905796065926552" lon="7.115761293098331">
        <ele>1790.1099999999999</ele>
        <time>2014-07-12T13:02:31Z</time>
      </trkpt>
      <trkpt lat="45.905849793925881" lon="7.115759365260601">
        <ele>1790.5899999999999</ele>
        <time>2014-07-12T13:02:50Z</time>
      </trkpt>
      <trkpt lat="45.905843423679471" lon="7.11577981710434">
        <ele>1790.5899999999999</ele>
        <time>2014-07-12T13:03:15Z</time>
      </trkpt>
      <trkpt lat="45.905940905213356" lon="7.115765484049916">
        <ele>1791.0699999999999</ele>
        <time>2014-07-12T13:03:26Z</time>
      </trkpt>
      <trkpt lat="45.905941491946578" lon="7.11578669026494">
        <ele>1791.55</ele>
        <time>2014-07-12T13:03:44Z</time>
      </trkpt>
      <trkpt lat="45.905965464189649" lon="7.115791300311685">
        <ele>1791.55</ele>
        <time>2014-07-12T13:04:03Z</time>
      </trkpt>
      <trkpt lat="45.906077027320862" lon="7.115807812660933">
        <ele>1792.03</ele>
        <time>2014-07-12T13:04:36Z</time>
      </trkpt>
      <trkpt lat="45.906062945723534" lon="7.115788701921701">
        <ele>1792.03</ele>
        <time>2014-07-12T13:04:52Z</time>
      </trkpt>
      <trkpt lat="45.906067555770278" lon="7.115780655294657">
        <ele>1792.03</ele>
        <time>2014-07-12T13:05:07Z</time>
      </trkpt>
      <trkpt lat="45.906243911013007" lon="7.115684933960438">
        <ele>1792.03</ele>
        <time>2014-07-12T13:05:22Z</time>
      </trkpt>
      <trkpt lat="45.906450860202312" lon="7.115551996976137">
        <ele>1791.55</ele>
        <time>2014-07-12T13:05:38Z</time>
      </trkpt>
      <trkpt lat="45.906640375033021" lon="7.11549399420619">
        <ele>1791.55</ele>
        <time>2014-07-12T13:05:54Z</time>
      </trkpt>
      <trkpt lat="45.906745148822665" lon="7.11542853154242">
        <ele>1791.55</ele>
        <time>2014-07-12T13:06:06Z</time>
      </trkpt>
      <trkpt lat="45.906890574842691" lon="7.115353513509035">
        <ele>1792.52</ele>
        <time>2014-07-12T13:06:19Z</time>
      </trkpt>
      <trkpt lat="45.906983865424991" lon="7.115265252068639">
        <ele>1793.48</ele>
        <time>2014-07-12T13:06:30Z</time>
      </trkpt>
      <trkpt lat="45.907136667519808" lon="7.115189563483">
        <ele>1794.9200000000001</ele>
        <time>2014-07-12T13:06:42Z</time>
      </trkpt>
      <trkpt lat="45.907309167087078" lon="7.115028128027916">
        <ele>1793</ele>
        <time>2014-07-12T13:06:58Z</time>
      </trkpt>
      <trkpt lat="45.907466914504766" lon="7.11485194042325">
        <ele>1794.4400000000001</ele>
        <time>2014-07-12T13:07:14Z</time>
      </trkpt>
      <trkpt lat="45.907557355239987" lon="7.114741466939449">
        <ele>1796.3599999999999</ele>
        <time>2014-07-12T13:07:28Z</time>
      </trkpt>
      <trkpt lat="45.907701356336474" lon="7.11459587328136">
        <ele>1798.28</ele>
        <time>2014-07-12T13:07:45Z</time>
      </trkpt>
      <trkpt lat="45.907854912802577" lon="7.114457739517093">
        <ele>1799.24</ele>
        <time>2014-07-12T13:08:01Z</time>
      </trkpt>
      <trkpt lat="45.908024562522769" lon="7.114293957129121">
        <ele>1799.73</ele>
        <time>2014-07-12T13:08:18Z</time>
      </trkpt>
      <trkpt lat="45.90819320641458" lon="7.114106034860015">
        <ele>1799.73</ele>
        <time>2014-07-12T13:08:36Z</time>
      </trkpt>
      <trkpt lat="45.908250035718083" lon="7.114026993513107">
        <ele>1801.6500000000001</ele>
        <time>2014-07-12T13:08:43Z</time>
      </trkpt>
      <trkpt lat="45.908454302698374" lon="7.113880729302764">
        <ele>1800.6900000000001</ele>
        <time>2014-07-12T13:09:00Z</time>
      </trkpt>
      <trkpt lat="45.908610876649618" lon="7.113718371838331">
        <ele>1801.6500000000001</ele>
        <time>2014-07-12T13:09:16Z</time>
      </trkpt>
      <trkpt lat="45.908853113651276" lon="7.113570095971227">
        <ele>1801.6500000000001</ele>
        <time>2014-07-12T13:09:35Z</time>
      </trkpt>
      <trkpt lat="45.909028295427561" lon="7.113455096259713">
        <ele>1803.0899999999999</ele>
        <time>2014-07-12T13:09:49Z</time>
      </trkpt>
      <trkpt lat="45.909203728660941" lon="7.113308915868402">
        <ele>1803.0899999999999</ele>
        <time>2014-07-12T13:10:05Z</time>
      </trkpt>
      <trkpt lat="45.90935317799449" lon="7.113141780719161">
        <ele>1802.6099999999999</ele>
        <time>2014-07-12T13:10:20Z</time>
      </trkpt>
      <trkpt lat="45.909438002854586" lon="7.112927874550223">
        <ele>1801.1700000000001</ele>
        <time>2014-07-12T13:10:34Z</time>
      </trkpt>
      <trkpt lat="45.909570353105664" lon="7.112780855968595">
        <ele>1800.21</ele>
        <time>2014-07-12T13:10:46Z</time>
      </trkpt>
      <trkpt lat="45.909675043076277" lon="7.112593688070774">
        <ele>1799.24</ele>
        <time>2014-07-12T13:10:59Z</time>
      </trkpt>
      <trkpt lat="45.909781157970428" lon="7.112390846014023">
        <ele>1797.8</ele>
        <time>2014-07-12T13:11:14Z</time>
      </trkpt>
      <trkpt lat="45.909895487129688" lon="7.112191524356604">
        <ele>1796.3599999999999</ele>
        <time>2014-07-12T13:11:28Z</time>
      </trkpt>
      <trkpt lat="45.91009589843452" lon="7.111978707835078">
        <ele>1794.9200000000001</ele>
        <time>2014-07-12T13:11:44Z</time>
      </trkpt>
      <trkpt lat="45.910358922556043" lon="7.111839903518558">
        <ele>1793.48</ele>
        <time>2014-07-12T13:11:59Z</time>
      </trkpt>
      <trkpt lat="45.910658994689584" lon="7.111751893535256">
        <ele>1792.52</ele>
        <time>2014-07-12T13:12:13Z</time>
      </trkpt>
      <trkpt lat="45.910964012145996" lon="7.111642090603709">
        <ele>1791.0699999999999</ele>
        <time>2014-07-12T13:12:28Z</time>
      </trkpt>
      <trkpt lat="45.911095021292567" lon="7.111619208008051">
        <ele>1790.5899999999999</ele>
        <time>2014-07-12T13:12:33Z</time>
      </trkpt>
      <trkpt lat="45.911441864445806" lon="7.111463891342282">
        <ele>1789.1500000000001</ele>
        <time>2014-07-12T13:12:50Z</time>
      </trkpt>
      <trkpt lat="45.911854421719909" lon="7.111358027905226">
        <ele>1787.71</ele>
        <time>2014-07-12T13:13:05Z</time>
      </trkpt>
      <trkpt lat="45.912328502163291" lon="7.111212015151978">
        <ele>1786.27</ele>
        <time>2014-07-12T13:13:24Z</time>
      </trkpt>
      <trkpt lat="45.912647936493158" lon="7.111135153099895">
        <ele>1784.8199999999999</ele>
        <time>2014-07-12T13:13:35Z</time>
      </trkpt>
      <trkpt lat="45.913197621703148" lon="7.111043874174357">
        <ele>1783.3800000000001</ele>
        <time>2014-07-12T13:13:51Z</time>
      </trkpt>
      <trkpt lat="45.916142771020532" lon="7.105116108432412">
        <ele>1730.51</ele>
        <time>2014-07-12T13:25:58Z</time>
      </trkpt>
      <trkpt lat="45.916138412430882" lon="7.105111246928573">
        <ele>1730.51</ele>
        <time>2014-07-12T13:25:59Z</time>
      </trkpt>
      <trkpt lat="45.916102705523372" lon="7.105065984651446">
        <ele>1729.55</ele>
        <time>2014-07-12T13:26:11Z</time>
      </trkpt>
      <trkpt lat="45.915982844308019" lon="7.10502265021205">
        <ele>1729.0699999999999</ele>
        <time>2014-07-12T13:26:31Z</time>
      </trkpt>
      <trkpt lat="45.915966499596834" lon="7.105016112327576">
        <ele>1728.1099999999999</ele>
        <time>2014-07-12T13:26:55Z</time>
      </trkpt>
      <trkpt lat="45.915911933407187" lon="7.10500362329185">
        <ele>1728.1099999999999</ele>
        <time>2014-07-12T13:27:19Z</time>
      </trkpt>
      <trkpt lat="45.915893241763115" lon="7.10499532520771">
        <ele>1728.1099999999999</ele>
        <time>2014-07-12T13:27:45Z</time>
      </trkpt>
      <trkpt lat="45.915893074125051" lon="7.1049923915416">
        <ele>1728.1099999999999</ele>
        <time>2014-07-12T13:28:01Z</time>
      </trkpt>
      <trkpt lat="45.915889050811529" lon="7.105008233338594">
        <ele>1728.1099999999999</ele>
        <time>2014-07-12T13:28:17Z</time>
      </trkpt>
      <trkpt lat="45.915890727192163" lon="7.104992726817727">
        <ele>1728.1099999999999</ele>
        <time>2014-07-12T13:28:31Z</time>
      </trkpt>
      <trkpt lat="45.915894582867622" lon="7.104989038780332">
        <ele>1728.1099999999999</ele>
        <time>2014-07-12T13:28:50Z</time>
      </trkpt>
      <trkpt lat="45.915888966992497" lon="7.104993397369981">
        <ele>1730.03</ele>
        <time>2014-07-12T13:28:55Z</time>
      </trkpt>
      <trkpt lat="45.915888296440244" lon="7.104989206418395">
        <ele>1728.5899999999999</ele>
        <time>2014-07-12T13:29:16Z</time>
      </trkpt>
      <trkpt lat="45.915892571210861" lon="7.10497822612524">
        <ele>1728.5899999999999</ele>
        <time>2014-07-12T13:29:43Z</time>
      </trkpt>
      <trkpt lat="45.915896845981479" lon="7.104955343529582">
        <ele>1727.6300000000001</ele>
        <time>2014-07-12T13:30:02Z</time>
      </trkpt>
      <trkpt lat="45.915883434936404" lon="7.104972107335925">
        <ele>1728.5899999999999</ele>
        <time>2014-07-12T13:30:30Z</time>
      </trkpt>
      <trkpt lat="45.915879998356104" lon="7.10496062412858">
        <ele>1728.5899999999999</ele>
        <time>2014-07-12T13:30:45Z</time>
      </trkpt>
      <trkpt lat="45.915879914537072" lon="7.104958863928914">
        <ele>1728.5899999999999</ele>
        <time>2014-07-12T13:31:10Z</time>
      </trkpt>
      <trkpt lat="45.915859881788492" lon="7.104977471753955">
        <ele>1728.5899999999999</ele>
        <time>2014-07-12T13:31:40Z</time>
      </trkpt>
      <trkpt lat="45.91585585847497" lon="7.104974705725908">
        <ele>1729.55</ele>
        <time>2014-07-12T13:31:47Z</time>
      </trkpt>
      <trkpt lat="45.91588812880218" lon="7.104973113164306">
        <ele>1728.5899999999999</ele>
        <time>2014-07-12T13:32:12Z</time>
      </trkpt>
      <trkpt lat="45.915886703878641" lon="7.104966659098864">
        <ele>1728.5899999999999</ele>
        <time>2014-07-12T13:32:30Z</time>
      </trkpt>
      <trkpt lat="45.915814870968461" lon="7.104956852272153">
        <ele>1728.5899999999999</ele>
        <time>2014-07-12T13:32:53Z</time>
      </trkpt>
      <trkpt lat="45.915811769664288" lon="7.10496012121439">
        <ele>1730.03</ele>
        <time>2014-07-12T13:32:57Z</time>
      </trkpt>
      <trkpt lat="45.91582166031003" lon="7.104960372671485">
        <ele>1729.0699999999999</ele>
        <time>2014-07-12T13:33:19Z</time>
      </trkpt>
      <trkpt lat="45.915814870968461" lon="7.104938328266144">
        <ele>1728.5899999999999</ele>
        <time>2014-07-12T13:33:40Z</time>
      </trkpt>
      <trkpt lat="45.91580799780786" lon="7.104957019910216">
        <ele>1728.5899999999999</ele>
        <time>2014-07-12T13:34:04Z</time>
      </trkpt>
      <trkpt lat="45.915802381932735" lon="7.104958025738597">
        <ele>1728.5899999999999</ele>
        <time>2014-07-12T13:34:33Z</time>
      </trkpt>
      <trkpt lat="45.915778409689665" lon="7.104938244447112">
        <ele>1728.5899999999999</ele>
        <time>2014-07-12T13:35:00Z</time>
      </trkpt>
      <trkpt lat="45.915785701945424" lon="7.104945117607713">
        <ele>1728.5899999999999</ele>
        <time>2014-07-12T13:35:24Z</time>
      </trkpt>
      <trkpt lat="45.915776984766126" lon="7.104950062930584">
        <ele>1728.5899999999999</ele>
        <time>2014-07-12T13:35:46Z</time>
      </trkpt>
      <trkpt lat="45.915772374719381" lon="7.104954002425075">
        <ele>1728.5899999999999</ele>
        <time>2014-07-12T13:36:09Z</time>
      </trkpt>
      <trkpt lat="45.915770614519715" lon="7.104934053495526">
        <ele>1728.5899999999999</ele>
        <time>2014-07-12T13:36:27Z</time>
      </trkpt>
      <trkpt lat="45.915757538750768" lon="7.104928437620401">
        <ele>1728.5899999999999</ele>
        <time>2014-07-12T13:36:51Z</time>
      </trkpt>
      <trkpt lat="45.915772207081318" lon="7.104927850887179">
        <ele>1728.5899999999999</ele>
        <time>2014-07-12T13:37:11Z</time>
      </trkpt>
      <trkpt lat="45.915761226788163" lon="7.104956181719899">
        <ele>1728.5899999999999</ele>
        <time>2014-07-12T13:37:36Z</time>
      </trkpt>
      <trkpt lat="45.915762903168797" lon="7.104952828958631">
        <ele>1728.5899999999999</ele>
        <time>2014-07-12T13:38:02Z</time>
      </trkpt>
      <trkpt lat="45.915823085233569" lon="7.104953331872821">
        <ele>1728.1099999999999</ele>
        <time>2014-07-12T13:38:16Z</time>
      </trkpt>
      <trkpt lat="45.915773883461952" lon="7.104958025738597">
        <ele>1728.5899999999999</ele>
        <time>2014-07-12T13:38:33Z</time>
      </trkpt>
      <trkpt lat="45.91575276106596" lon="7.104910584166646">
        <ele>1727.6300000000001</ele>
        <time>2014-07-12T13:38:44Z</time>
      </trkpt>
      <trkpt lat="45.915742367506027" lon="7.10490002296865">
        <ele>1727.1500000000001</ele>
        <time>2014-07-12T13:38:52Z</time>
      </trkpt>
      <trkpt lat="45.915724681690335" lon="7.104851994663477">
        <ele>1726.6700000000001</ele>
        <time>2014-07-12T13:38:57Z</time>
      </trkpt>
      <trkpt lat="45.91571512632072" lon="7.104591820389032">
        <ele>1723.78</ele>
        <time>2014-07-12T13:39:15Z</time>
      </trkpt>
      <trkpt lat="45.915708756074309" lon="7.10441336967051">
        <ele>1720.9000000000001</ele>
        <time>2014-07-12T13:39:29Z</time>
      </trkpt>
      <trkpt lat="45.915644802153111" lon="7.104400126263499">
        <ele>1718.97</ele>
        <time>2014-07-12T13:39:35Z</time>
      </trkpt>
      <trkpt lat="45.915518905967474" lon="7.104430049657822">
        <ele>1715.6099999999999</ele>
        <time>2014-07-12T13:39:50Z</time>
      </trkpt>
      <trkpt lat="45.915436930954456" lon="7.104417141526938">
        <ele>1712.73</ele>
        <time>2014-07-12T13:40:02Z</time>
      </trkpt>
      <trkpt lat="45.915450677275658" lon="7.104315469041467">
        <ele>1709.8399999999999</ele>
        <time>2014-07-12T13:40:13Z</time>
      </trkpt>
      <trkpt lat="45.915478840470314" lon="7.10425796918571">
        <ele>1708.8800000000001</ele>
        <time>2014-07-12T13:40:22Z</time>
      </trkpt>
      <trkpt lat="45.915504489094019" lon="7.104180520400405">
        <ele>1708.4000000000001</ele>
        <time>2014-07-12T13:40:29Z</time>
      </trkpt>
      <trkpt lat="45.915501387789845" lon="7.104124696925283">
        <ele>1707.9200000000001</ele>
        <time>2014-07-12T13:40:44Z</time>
      </trkpt>
      <trkpt lat="45.915515469387174" lon="7.104013385251164">
        <ele>1707.4400000000001</ele>
        <time>2014-07-12T13:40:55Z</time>
      </trkpt>
      <trkpt lat="45.915572214871645" lon="7.103976840153337">
        <ele>1706.48</ele>
        <time>2014-07-12T13:41:13Z</time>
      </trkpt>
      <trkpt lat="45.915624769404531" lon="7.103893104940653">
        <ele>1705.52</ele>
        <time>2014-07-12T13:41:22Z</time>
      </trkpt>
      <trkpt lat="45.915658548474312" lon="7.103854883462191">
        <ele>1706.48</ele>
        <time>2014-07-12T13:41:26Z</time>
      </trkpt>
      <trkpt lat="45.915756030008197" lon="7.103757318109274">
        <ele>1704.55</ele>
        <time>2014-07-12T13:41:38Z</time>
      </trkpt>
      <trkpt lat="45.915846386924386" lon="7.103654472157359">
        <ele>1703.5899999999999</ele>
        <time>2014-07-12T13:41:50Z</time>
      </trkpt>
      <trkpt lat="45.91595359146595" lon="7.103598397225142">
        <ele>1703.5899999999999</ele>
        <time>2014-07-12T13:42:01Z</time>
      </trkpt>
      <trkpt lat="45.916053503751755" lon="7.103576855733991">
        <ele>1702.1500000000001</ele>
        <time>2014-07-12T13:42:14Z</time>
      </trkpt>
      <trkpt lat="45.916115781292319" lon="7.103522373363376">
        <ele>1700.23</ele>
        <time>2014-07-12T13:42:25Z</time>
      </trkpt>
      <trkpt lat="45.916275372728705" lon="7.103379461914301">
        <ele>1698.79</ele>
        <time>2014-07-12T13:42:39Z</time>
      </trkpt>
      <trkpt lat="45.916281491518021" lon="7.10331835784018">
        <ele>1699.27</ele>
        <time>2014-07-12T13:42:51Z</time>
      </trkpt>
      <trkpt lat="45.916359527036548" lon="7.103178547695279">
        <ele>1699.27</ele>
        <time>2014-07-12T13:43:03Z</time>
      </trkpt>
      <trkpt lat="45.916372183710337" lon="7.103140829131007">
        <ele>1698.79</ele>
        <time>2014-07-12T13:43:06Z</time>
      </trkpt>
      <trkpt lat="45.916410572826862" lon="7.103066062554717">
        <ele>1698.3099999999999</ele>
        <time>2014-07-12T13:43:13Z</time>
      </trkpt>
      <trkpt lat="45.916435299441218" lon="7.103019626811147">
        <ele>1697.8299999999999</ele>
        <time>2014-07-12T13:43:17Z</time>
      </trkpt>
      <trkpt lat="45.91644418425858" lon="7.103010909631848">
        <ele>1697.8299999999999</ele>
        <time>2014-07-12T13:43:18Z</time>
      </trkpt>
      <trkpt lat="45.916592627763748" lon="7.102841176092625">
        <ele>1697.3399999999999</ele>
        <time>2014-07-12T13:43:35Z</time>
      </trkpt>
      <trkpt lat="45.916710393503308" lon="7.102779317647219">
        <ele>1696.3800000000001</ele>
        <time>2014-07-12T13:43:48Z</time>
      </trkpt>
      <trkpt lat="45.916779963299632" lon="7.102680495008826">
        <ele>1694.9400000000001</ele>
        <time>2014-07-12T13:44:00Z</time>
      </trkpt>
      <trkpt lat="45.916866715997458" lon="7.102529117837548">
        <ele>1693.5</ele>
        <time>2014-07-12T13:44:14Z</time>
      </trkpt>
      <trkpt lat="45.916876439005136" lon="7.102507660165429">
        <ele>1693.02</ele>
        <time>2014-07-12T13:44:15Z</time>
      </trkpt>
      <trkpt lat="45.917003843933344" lon="7.102430630475283">
        <ele>1691.5799999999999</ele>
        <time>2014-07-12T13:44:28Z</time>
      </trkpt>
      <trkpt lat="45.917070982977748" lon="7.102333484217525">
        <ele>1690.6199999999999</ele>
        <time>2014-07-12T13:44:37Z</time>
      </trkpt>
      <trkpt lat="45.917180953547359" lon="7.102119326591492">
        <ele>1690.1400000000001</ele>
        <time>2014-07-12T13:44:53Z</time>
      </trkpt>
      <trkpt lat="45.917289080098271" lon="7.102022767066956">
        <ele>1689.1700000000001</ele>
        <time>2014-07-12T13:45:07Z</time>
      </trkpt>
      <trkpt lat="45.91739066876471" lon="7.101977169513702">
        <ele>1688.6900000000001</ele>
        <time>2014-07-12T13:45:20Z</time>
      </trkpt>
      <trkpt lat="45.917480355128646" lon="7.101825373247266">
        <ele>1688.6900000000001</ele>
        <time>2014-07-12T13:45:33Z</time>
      </trkpt>
      <trkpt lat="45.917508266866207" lon="7.101775081828237">
        <ele>1689.1700000000001</ele>
        <time>2014-07-12T13:45:37Z</time>
      </trkpt>
      <trkpt lat="45.917546739801764" lon="7.10167458280921">
        <ele>1689.6500000000001</ele>
        <time>2014-07-12T13:45:46Z</time>
      </trkpt>
      <trkpt lat="45.917643047869205" lon="7.101534772664309">
        <ele>1690.6199999999999</ele>
        <time>2014-07-12T13:46:00Z</time>
      </trkpt>
      <trkpt lat="45.917713036760688" lon="7.101430837064982">
        <ele>1692.54</ele>
        <time>2014-07-12T13:46:13Z</time>
      </trkpt>
      <trkpt lat="45.917758466675878" lon="7.101323883980513">
        <ele>1693.98</ele>
        <time>2014-07-12T13:46:24Z</time>
      </trkpt>
      <trkpt lat="45.917834239080548" lon="7.101214667782188">
        <ele>1694.9400000000001</ele>
        <time>2014-07-12T13:46:37Z</time>
      </trkpt>
      <trkpt lat="45.917881177738309" lon="7.10106429643929">
        <ele>1695.9000000000001</ele>
        <time>2014-07-12T13:46:49Z</time>
      </trkpt>
      <trkpt lat="45.917886542156339" lon="7.101003779098392">
        <ele>1697.8299999999999</ele>
        <time>2014-07-12T13:47:03Z</time>
      </trkpt>
      <trkpt lat="45.917929541319609" lon="7.100792806595564">
        <ele>1696.8599999999999</ele>
        <time>2014-07-12T13:47:21Z</time>
      </trkpt>
      <trkpt lat="45.917930714786053" lon="7.100767325609922">
        <ele>1696.3800000000001</ele>
        <time>2014-07-12T13:47:24Z</time>
      </trkpt>
      <trkpt lat="45.917974468320608" lon="7.100735222920775">
        <ele>1695.9000000000001</ele>
        <time>2014-07-12T13:47:40Z</time>
      </trkpt>
      <trkpt lat="45.917985532432795" lon="7.100734384730458">
        <ele>1696.3800000000001</ele>
        <time>2014-07-12T13:47:54Z</time>
      </trkpt>
      <trkpt lat="45.918049905449152" lon="7.100701360031962">
        <ele>1697.8299999999999</ele>
        <time>2014-07-12T13:48:13Z</time>
      </trkpt>
      <trkpt lat="45.918166832998395" lon="7.10063137114048">
        <ele>1700.71</ele>
        <time>2014-07-12T13:48:30Z</time>
      </trkpt>
      <trkpt lat="45.918258195742965" lon="7.100578146055341">
        <ele>1700.23</ele>
        <time>2014-07-12T13:48:46Z</time>
      </trkpt>
      <trkpt lat="45.918301614001393" lon="7.10057663731277">
        <ele>1698.79</ele>
        <time>2014-07-12T13:48:50Z</time>
      </trkpt>
      <trkpt lat="45.918437819927931" lon="7.100542103871703">
        <ele>1698.79</ele>
        <time>2014-07-12T13:48:57Z</time>
      </trkpt>
      <trkpt lat="45.918542677536607" lon="7.100571440532804">
        <ele>1697.3399999999999</ele>
        <time>2014-07-12T13:49:05Z</time>
      </trkpt>
      <trkpt lat="45.918646529316902" lon="7.100655008107424">
        <ele>1695.4200000000001</ele>
        <time>2014-07-12T13:49:16Z</time>
      </trkpt>
      <trkpt lat="45.918840067461133" lon="7.100664395838976">
        <ele>1697.8299999999999</ele>
        <time>2014-07-12T13:49:36Z</time>
      </trkpt>
      <trkpt lat="45.918944673612714" lon="7.100676968693733">
        <ele>1700.23</ele>
        <time>2014-07-12T13:49:50Z</time>
      </trkpt>
      <trkpt lat="45.919109210371971" lon="7.100610164925456">
        <ele>1699.27</ele>
        <time>2014-07-12T13:50:06Z</time>
      </trkpt>
      <trkpt lat="45.919249691069126" lon="7.100478149950504">
        <ele>1696.8599999999999</ele>
        <time>2014-07-12T13:50:23Z</time>
      </trkpt>
      <trkpt lat="45.919358907267451" lon="7.100363988429308">
        <ele>1694.9400000000001</ele>
        <time>2014-07-12T13:50:38Z</time>
      </trkpt>
      <trkpt lat="45.919501483440399" lon="7.100182687863708">
        <ele>1692.0599999999999</ele>
        <time>2014-07-12T13:50:55Z</time>
      </trkpt>
      <trkpt lat="45.919663337990642" lon="7.099995017051697">
        <ele>1690.6199999999999</ele>
        <time>2014-07-12T13:51:14Z</time>
      </trkpt>
      <trkpt lat="45.919690327718854" lon="7.099972302094102">
        <ele>1689.6500000000001</ele>
        <time>2014-07-12T13:51:17Z</time>
      </trkpt>
      <trkpt lat="45.919701475650072" lon="7.099980348721147">
        <ele>1689.6500000000001</ele>
        <time>2014-07-12T13:51:18Z</time>
      </trkpt>
      <trkpt lat="45.91968328692019" lon="7.100034663453698">
        <ele>1689.1700000000001</ele>
        <time>2014-07-12T13:51:29Z</time>
      </trkpt>
      <trkpt lat="45.919674318283796" lon="7.100070370361209">
        <ele>1688.6900000000001</ele>
        <time>2014-07-12T13:51:41Z</time>
      </trkpt>
      <trkpt lat="45.919644730165601" lon="7.100181933492422">
        <ele>1687.25</ele>
        <time>2014-07-12T13:51:54Z</time>
      </trkpt>
      <trkpt lat="45.919637437909842" lon="7.100277068093419">
        <ele>1686.29</ele>
        <time>2014-07-12T13:52:07Z</time>
      </trkpt>
      <trkpt lat="45.91956845484674" lon="7.100490806624293">
        <ele>1683.8900000000001</ele>
        <time>2014-07-12T13:52:22Z</time>
      </trkpt>
      <trkpt lat="45.919478936120868" lon="7.100761877372861">
        <ele>1681</ele>
        <time>2014-07-12T13:52:39Z</time>
      </trkpt>
      <trkpt lat="45.919446581974626" lon="7.100836476311088">
        <ele>1680.52</ele>
        <time>2014-07-12T13:52:45Z</time>
      </trkpt>
      <trkpt lat="45.919360499829054" lon="7.101090867072344">
        <ele>1679.5599999999999</ele>
        <time>2014-07-12T13:53:01Z</time>
      </trkpt>
      <trkpt lat="45.919334013015032" lon="7.101309299468994">
        <ele>1679.0799999999999</ele>
        <time>2014-07-12T13:53:14Z</time>
      </trkpt>
      <trkpt lat="45.91933342628181" lon="7.101510800421238">
        <ele>1677.1600000000001</ele>
        <time>2014-07-12T13:53:28Z</time>
      </trkpt>
      <trkpt lat="45.91947072185576" lon="7.101587913930416">
        <ele>1674.75</ele>
        <time>2014-07-12T13:53:44Z</time>
      </trkpt>
      <trkpt lat="45.919675156474113" lon="7.101525133475661">
        <ele>1673.79</ele>
        <time>2014-07-12T13:54:02Z</time>
      </trkpt>
      <trkpt lat="45.919687058776617" lon="7.101516835391522">
        <ele>1673.79</ele>
        <time>2014-07-12T13:54:03Z</time>
      </trkpt>
      <trkpt lat="45.919789988547564" lon="7.1014195214957">
        <ele>1670.9100000000001</ele>
        <time>2014-07-12T13:54:16Z</time>
      </trkpt>
      <trkpt lat="45.919909011572599" lon="7.101262444630265">
        <ele>1668.51</ele>
        <time>2014-07-12T13:54:33Z</time>
      </trkpt>
      <trkpt lat="45.919994506984949" lon="7.101185414940119">
        <ele>1668.02</ele>
        <time>2014-07-12T13:54:47Z</time>
      </trkpt>
      <trkpt lat="45.920055024325848" lon="7.101114587858319">
        <ele>1667.0599999999999</ele>
        <time>2014-07-12T13:55:06Z</time>
      </trkpt>
      <trkpt lat="45.920162396505475" lon="7.100983243435621">
        <ele>1667.54</ele>
        <time>2014-07-12T13:55:22Z</time>
      </trkpt>
      <trkpt lat="45.92023640871048" lon="7.100876960903406">
        <ele>1667.0599999999999</ele>
        <time>2014-07-12T13:55:34Z</time>
      </trkpt>
      <trkpt lat="45.920370351523161" lon="7.100803954526782">
        <ele>1665.6199999999999</ele>
        <time>2014-07-12T13:55:53Z</time>
      </trkpt>
      <trkpt lat="45.920495493337512" lon="7.100791214033961">
        <ele>1663.7</ele>
        <time>2014-07-12T13:56:06Z</time>
      </trkpt>
      <trkpt lat="45.920695401728153" lon="7.100717453286052">
        <ele>1661.78</ele>
        <time>2014-07-12T13:56:24Z</time>
      </trkpt>
      <trkpt lat="45.920882653445005" lon="7.10063137114048">
        <ele>1660.8099999999999</ele>
        <time>2014-07-12T13:56:42Z</time>
      </trkpt>
      <trkpt lat="45.921097313985229" lon="7.100572278723121">
        <ele>1659.3699999999999</ele>
        <time>2014-07-12T13:57:00Z</time>
      </trkpt>
      <trkpt lat="45.921270316466689" lon="7.10053606890142">
        <ele>1658.8900000000001</ele>
        <time>2014-07-12T13:57:15Z</time>
      </trkpt>
      <trkpt lat="45.921448264271021" lon="7.100478401407599">
        <ele>1657.9300000000001</ele>
        <time>2014-07-12T13:57:31Z</time>
      </trkpt>
      <trkpt lat="45.921572903171182" lon="7.100365497171879">
        <ele>1656.97</ele>
        <time>2014-07-12T13:57:45Z</time>
      </trkpt>
      <trkpt lat="45.921702822670341" lon="7.100236164405942">
        <ele>1656.97</ele>
        <time>2014-07-12T13:58:01Z</time>
      </trkpt>
      <trkpt lat="45.921802651137114" lon="7.100134324282408">
        <ele>1656.97</ele>
        <time>2014-07-12T13:58:15Z</time>
      </trkpt>
      <trkpt lat="45.921889236196876" lon="7.100101467221975">
        <ele>1656.01</ele>
        <time>2014-07-12T13:58:23Z</time>
      </trkpt>
      <trkpt lat="45.922077493742108" lon="7.099951263517141">
        <ele>1655.53</ele>
        <time>2014-07-12T13:58:40Z</time>
      </trkpt>
      <trkpt lat="45.922229373827577" lon="7.099819416180253">
        <ele>1655.05</ele>
        <time>2014-07-12T13:58:54Z</time>
      </trkpt>
      <trkpt lat="45.922314198687673" lon="7.099721096456051">
        <ele>1656.49</ele>
        <time>2014-07-12T13:59:05Z</time>
      </trkpt>
      <trkpt lat="45.922319646924734" lon="7.099712295457721">
        <ele>1654.5699999999999</ele>
        <time>2014-07-12T13:59:06Z</time>
      </trkpt>
      <trkpt lat="45.922455685213208" lon="7.099544405937195">
        <ele>1654.0899999999999</ele>
        <time>2014-07-12T13:59:22Z</time>
      </trkpt>
      <trkpt lat="45.922529865056276" lon="7.099432088434696">
        <ele>1652.6400000000001</ele>
        <time>2014-07-12T13:59:32Z</time>
      </trkpt>
      <trkpt lat="45.922699850052595" lon="7.099235951900482">
        <ele>1650.72</ele>
        <time>2014-07-12T13:59:50Z</time>
      </trkpt>
      <trkpt lat="45.922865979373455" lon="7.099092705175281">
        <ele>1649.76</ele>
        <time>2014-07-12T14:00:05Z</time>
      </trkpt>
      <trkpt lat="45.923019871115685" lon="7.09889036603272">
        <ele>1648.3199999999999</ele>
        <time>2014-07-12T14:00:23Z</time>
      </trkpt>
      <trkpt lat="45.923176445066929" lon="7.09870713762939">
        <ele>1646.8800000000001</ele>
        <time>2014-07-12T14:00:41Z</time>
      </trkpt>
      <trkpt lat="45.923311980441213" lon="7.098525920882821">
        <ele>1646.8800000000001</ele>
        <time>2014-07-12T14:00:57Z</time>
      </trkpt>
      <trkpt lat="45.923446342349052" lon="7.098338752985001">
        <ele>1646.4000000000001</ele>
        <time>2014-07-12T14:01:12Z</time>
      </trkpt>
      <trkpt lat="45.92360065318644" lon="7.098124679178">
        <ele>1645.4300000000001</ele>
        <time>2014-07-12T14:01:31Z</time>
      </trkpt>
      <trkpt lat="45.923787401989102" lon="7.097907923161984">
        <ele>1644.95</ele>
        <time>2014-07-12T14:01:51Z</time>
      </trkpt>
      <trkpt lat="45.923981443047523" lon="7.097776914015412">
        <ele>1643.51</ele>
        <time>2014-07-12T14:02:08Z</time>
      </trkpt>
      <trkpt lat="45.924165090546012" lon="7.097661159932613">
        <ele>1643.03</ele>
        <time>2014-07-12T14:02:26Z</time>
      </trkpt>
      <trkpt lat="45.924329040572047" lon="7.097525037825108">
        <ele>1642.55</ele>
        <time>2014-07-12T14:02:43Z</time>
      </trkpt>
      <trkpt lat="45.924480333924294" lon="7.097354214638472">
        <ele>1641.5899999999999</ele>
        <time>2014-07-12T14:03:00Z</time>
      </trkpt>
      <trkpt lat="45.924581252038479" lon="7.09723737090826">
        <ele>1642.0699999999999</ele>
        <time>2014-07-12T14:03:11Z</time>
      </trkpt>
      <trkpt lat="45.924745872616768" lon="7.097050873562694">
        <ele>1639.6700000000001</ele>
        <time>2014-07-12T14:03:30Z</time>
      </trkpt>
      <trkpt lat="45.924901273101568" lon="7.096916511654854">
        <ele>1639.6700000000001</ele>
        <time>2014-07-12T14:03:46Z</time>
      </trkpt>
      <trkpt lat="45.925079388543963" lon="7.096772342920303">
        <ele>1638.7</ele>
        <time>2014-07-12T14:04:03Z</time>
      </trkpt>
      <trkpt lat="45.925273094326258" lon="7.096641417592764">
        <ele>1637.26</ele>
        <time>2014-07-12T14:04:20Z</time>
      </trkpt>
      <trkpt lat="45.925507536157966" lon="7.096523819491267">
        <ele>1637.26</ele>
        <time>2014-07-12T14:04:39Z</time>
      </trkpt>
      <trkpt lat="45.925656063482165" lon="7.096612835302949">
        <ele>1636.78</ele>
        <time>2014-07-12T14:04:54Z</time>
      </trkpt>
      <trkpt lat="45.925704846158624" lon="7.096735378727317">
        <ele>1636.78</ele>
        <time>2014-07-12T14:05:04Z</time>
      </trkpt>
      <trkpt lat="45.925776846706867" lon="7.096750633791089">
        <ele>1636.3</ele>
        <time>2014-07-12T14:05:11Z</time>
      </trkpt>
      <trkpt lat="45.925912214443088" lon="7.096661031246185">
        <ele>1636.78</ele>
        <time>2014-07-12T14:05:23Z</time>
      </trkpt>
      <trkpt lat="45.925948675721884" lon="7.096635717898607">
        <ele>1637.26</ele>
        <time>2014-07-12T14:05:26Z</time>
      </trkpt>
      <trkpt lat="45.926094185560942" lon="7.096625491976738">
        <ele>1639.1900000000001</ele>
        <time>2014-07-12T14:05:40Z</time>
      </trkpt>
      <trkpt lat="45.926121678203344" lon="7.096630353480578">
        <ele>1639.6700000000001</ele>
        <time>2014-07-12T14:05:42Z</time>
      </trkpt>
      <trkpt lat="45.926255118101835" lon="7.096732780337334">
        <ele>1641.5899999999999</ele>
        <time>2014-07-12T14:05:58Z</time>
      </trkpt>
      <trkpt lat="45.92637212947011" lon="7.096743509173393">
        <ele>1642.55</ele>
        <time>2014-07-12T14:06:10Z</time>
      </trkpt>
      <trkpt lat="45.926515208557248" lon="7.096759434789419">
        <ele>1643.03</ele>
        <time>2014-07-12T14:06:25Z</time>
      </trkpt>
      <trkpt lat="45.926698101684451" lon="7.096714004874229">
        <ele>1643.03</ele>
        <time>2014-07-12T14:06:40Z</time>
      </trkpt>
      <trkpt lat="45.926917959004641" lon="7.096671089529991">
        <ele>1643.03</ele>
        <time>2014-07-12T14:06:59Z</time>
      </trkpt>
      <trkpt lat="45.927108060568571" lon="7.096648123115301">
        <ele>1642.55</ele>
        <time>2014-07-12T14:07:16Z</time>
      </trkpt>
      <trkpt lat="45.927284751087427" lon="7.096579223871231">
        <ele>1643.03</ele>
        <time>2014-07-12T14:07:34Z</time>
      </trkpt>
      <trkpt lat="45.927444845438004" lon="7.096487944945693">
        <ele>1642.55</ele>
        <time>2014-07-12T14:07:51Z</time>
      </trkpt>
      <trkpt lat="45.927543416619301" lon="7.096422063186765">
        <ele>1642.55</ele>
        <time>2014-07-12T14:08:12Z</time>
      </trkpt>
      <trkpt lat="45.927713820710778" lon="7.09631578065455">
        <ele>1642.55</ele>
        <time>2014-07-12T14:08:27Z</time>
      </trkpt>
      <trkpt lat="45.927846254780889" lon="7.096178149804473">
        <ele>1642.55</ele>
        <time>2014-07-12T14:08:38Z</time>
      </trkpt>
      <trkpt lat="45.928001655265689" lon="7.096045548096299">
        <ele>1642.0699999999999</ele>
        <time>2014-07-12T14:08:54Z</time>
      </trkpt>
      <trkpt lat="45.928207598626614" lon="7.09585796110332">
        <ele>1642.0699999999999</ele>
        <time>2014-07-12T14:09:11Z</time>
      </trkpt>
      <trkpt lat="45.92837942764163" lon="7.095690071582794">
        <ele>1642.0699999999999</ele>
        <time>2014-07-12T14:09:28Z</time>
      </trkpt>
      <trkpt lat="45.928498953580856" lon="7.095586890354753">
        <ele>1641.5899999999999</ele>
        <time>2014-07-12T14:09:39Z</time>
      </trkpt>
      <trkpt lat="45.928547820076346" lon="7.095541041344404">
        <ele>1641.5899999999999</ele>
        <time>2014-07-12T14:09:43Z</time>
      </trkpt>
      <trkpt lat="45.928615210577846" lon="7.095524193719029">
        <ele>1641.1099999999999</ele>
        <time>2014-07-12T14:09:48Z</time>
      </trkpt>
      <trkpt lat="45.928668100386858" lon="7.095495192334056">
        <ele>1640.6300000000001</ele>
        <time>2014-07-12T14:09:52Z</time>
      </trkpt>
      <trkpt lat="45.928885526955128" lon="7.095461245626211">
        <ele>1639.6700000000001</ele>
        <time>2014-07-12T14:10:09Z</time>
      </trkpt>
      <trkpt lat="45.92911384999752" lon="7.095486139878631">
        <ele>1637.26</ele>
        <time>2014-07-12T14:10:25Z</time>
      </trkpt>
      <trkpt lat="45.929358350113034" lon="7.095568869262934">
        <ele>1636.3</ele>
        <time>2014-07-12T14:10:44Z</time>
      </trkpt>
      <trkpt lat="45.929505284875631" lon="7.095709014683962">
        <ele>1634.8599999999999</ele>
        <time>2014-07-12T14:10:59Z</time>
      </trkpt>
      <trkpt lat="45.929672420024872" lon="7.095859553664923">
        <ele>1633.4200000000001</ele>
        <time>2014-07-12T14:11:14Z</time>
      </trkpt>
      <trkpt lat="45.929842153564095" lon="7.096067676320672">
        <ele>1631.01</ele>
        <time>2014-07-12T14:11:32Z</time>
      </trkpt>
      <trkpt lat="45.930016748607159" lon="7.096329610794783">
        <ele>1629.0899999999999</ele>
        <time>2014-07-12T14:11:52Z</time>
      </trkpt>
      <trkpt lat="45.930143231526017" lon="7.096448969095945">
        <ele>1627.6500000000001</ele>
        <time>2014-07-12T14:12:04Z</time>
      </trkpt>
      <trkpt lat="45.930286478251219" lon="7.096601352095604">
        <ele>1626.6900000000001</ele>
        <time>2014-07-12T14:12:19Z</time>
      </trkpt>
      <trkpt lat="45.930343475192785" lon="7.096597915515304">
        <ele>1626.6900000000001</ele>
        <time>2014-07-12T14:12:24Z</time>
      </trkpt>
      <trkpt lat="45.930374152958393" lon="7.096595652401447">
        <ele>1626.6900000000001</ele>
        <time>2014-07-12T14:12:27Z</time>
      </trkpt>
      <trkpt lat="45.930394604802132" lon="7.096654577180743">
        <ele>1626.21</ele>
        <time>2014-07-12T14:12:31Z</time>
      </trkpt>
      <trkpt lat="45.930445566773415" lon="7.096804529428482">
        <ele>1626.21</ele>
        <time>2014-07-12T14:12:41Z</time>
      </trkpt>
      <trkpt lat="45.930591998621821" lon="7.096923384815455">
        <ele>1626.21</ele>
        <time>2014-07-12T14:12:56Z</time>
      </trkpt>
      <trkpt lat="45.930759720504284" lon="7.097067469730973">
        <ele>1625.25</ele>
        <time>2014-07-12T14:13:12Z</time>
      </trkpt>
      <trkpt lat="45.930883102118969" lon="7.097194539383054">
        <ele>1625.25</ele>
        <time>2014-07-12T14:13:23Z</time>
      </trkpt>
      <trkpt lat="45.930987205356359" lon="7.097478769719601">
        <ele>1624.28</ele>
        <time>2014-07-12T14:13:40Z</time>
      </trkpt>
      <trkpt lat="45.931105893105268" lon="7.097565941512585">
        <ele>1623.8</ele>
        <time>2014-07-12T14:13:51Z</time>
      </trkpt>
      <trkpt lat="45.931234639137983" lon="7.097654873505235">
        <ele>1622.8399999999999</ele>
        <time>2014-07-12T14:14:03Z</time>
      </trkpt>
      <trkpt lat="45.931391296908259" lon="7.097860649228096">
        <ele>1622.3599999999999</ele>
        <time>2014-07-12T14:14:21Z</time>
      </trkpt>
      <trkpt lat="45.931445946916938" lon="7.097962992265821">
        <ele>1622.3599999999999</ele>
        <time>2014-07-12T14:14:29Z</time>
      </trkpt>
      <trkpt lat="45.931469835340977" lon="7.098004231229425">
        <ele>1621.8800000000001</ele>
        <time>2014-07-12T14:14:32Z</time>
      </trkpt>
      <trkpt lat="45.931517109274864" lon="7.098186537623406">
        <ele>1621.8800000000001</ele>
        <time>2014-07-12T14:14:50Z</time>
      </trkpt>
      <trkpt lat="45.931685753166676" lon="7.098413519561291">
        <ele>1621.8800000000001</ele>
        <time>2014-07-12T14:15:10Z</time>
      </trkpt>
      <trkpt lat="45.931809805333614" lon="7.098652236163616">
        <ele>1621.8800000000001</ele>
        <time>2014-07-12T14:15:28Z</time>
      </trkpt>
      <trkpt lat="45.931834867224097" lon="7.098682075738907">
        <ele>1621.8800000000001</ele>
        <time>2014-07-12T14:15:45Z</time>
      </trkpt>
      <trkpt lat="45.931854229420424" lon="7.098687272518873">
        <ele>1619.96</ele>
        <time>2014-07-12T14:15:51Z</time>
      </trkpt>
      <trkpt lat="45.931851044297218" lon="7.09868224337697">
        <ele>1621.8800000000001</ele>
        <time>2014-07-12T14:15:56Z</time>
      </trkpt>
      <trkpt lat="45.93186336569488" lon="7.098663970828056">
        <ele>1621.8800000000001</ele>
        <time>2014-07-12T14:16:12Z</time>
      </trkpt>
      <trkpt lat="45.931901000440121" lon="7.098681656643748">
        <ele>1621.8800000000001</ele>
        <time>2014-07-12T14:16:29Z</time>
      </trkpt>
      <trkpt lat="45.931870490312576" lon="7.098723901435733">
        <ele>1621.8800000000001</ele>
        <time>2014-07-12T14:16:47Z</time>
      </trkpt>
      <trkpt lat="45.931826150044799" lon="7.098751645535231">
        <ele>1621.8800000000001</ele>
        <time>2014-07-12T14:17:10Z</time>
      </trkpt>
      <trkpt lat="45.931846350431442" lon="7.098753238096833">
        <ele>1621.8800000000001</ele>
        <time>2014-07-12T14:17:25Z</time>
      </trkpt>
      <trkpt lat="45.931843668222427" lon="7.098752483725548">
        <ele>1621.8800000000001</ele>
        <time>2014-07-12T14:17:44Z</time>
      </trkpt>
      <trkpt lat="45.931844590231776" lon="7.098748795688152">
        <ele>1621.8800000000001</ele>
        <time>2014-07-12T14:17:57Z</time>
      </trkpt>
      <trkpt lat="45.931832352653146" lon="7.09874183870852">
        <ele>1621.8800000000001</ele>
        <time>2014-07-12T14:18:19Z</time>
      </trkpt>
      <trkpt lat="45.931849619373679" lon="7.098737983033061">
        <ele>1621.8800000000001</ele>
        <time>2014-07-12T14:18:38Z</time>
      </trkpt>
      <trkpt lat="45.931865964084864" lon="7.098727757111192">
        <ele>1621.8800000000001</ele>
        <time>2014-07-12T14:19:03Z</time>
      </trkpt>
      <trkpt lat="45.931862192228436" lon="7.098748125135899">
        <ele>1621.8800000000001</ele>
        <time>2014-07-12T14:19:20Z</time>
      </trkpt>
      <trkpt lat="45.931889433413744" lon="7.098705377429724">
        <ele>1621.4000000000001</ele>
        <time>2014-07-12T14:19:30Z</time>
      </trkpt>
      <trkpt lat="45.931953471153975" lon="7.098738234490156">
        <ele>1621.4000000000001</ele>
        <time>2014-07-12T14:19:45Z</time>
      </trkpt>
      <trkpt lat="45.931966882199049" lon="7.098754160106182">
        <ele>1621.4000000000001</ele>
        <time>2014-07-12T14:20:09Z</time>
      </trkpt>
      <trkpt lat="45.931989848613739" lon="7.098752232268453">
        <ele>1621.4000000000001</ele>
        <time>2014-07-12T14:20:39Z</time>
      </trkpt>
      <trkpt lat="45.931980377063155" lon="7.098749969154596">
        <ele>1620.9200000000001</ele>
        <time>2014-07-12T14:21:02Z</time>
      </trkpt>
      <trkpt lat="45.931981634348631" lon="7.098742509260774">
        <ele>1620.9200000000001</ele>
        <time>2014-07-12T14:21:26Z</time>
      </trkpt>
      <trkpt lat="45.931972246617079" lon="7.098725493997335">
        <ele>1620.4400000000001</ele>
        <time>2014-07-12T14:21:47Z</time>
      </trkpt>
      <trkpt lat="45.9319625236094" lon="7.098732702434063">
        <ele>1620.4400000000001</ele>
        <time>2014-07-12T14:22:06Z</time>
      </trkpt>
      <trkpt lat="45.931973000988364" lon="7.098740329965949">
        <ele>1620.4400000000001</ele>
        <time>2014-07-12T14:22:25Z</time>
      </trkpt>
    </trkseg>
  </trk>

  <trk>
    <name>2tmb2014-07-13</name>
    <extensions>
      <gpxx:TrackExtension>
        <gpxx:DisplayColor>Yellow</gpxx:DisplayColor>
      </gpxx:TrackExtension>
      <gpxtrkx:TrackStatsExtension xmlns:gpxtrkx="http://www.garmin.com/xmlschemas/TrackStatsExtension/v1">
        <gpxtrkx:Distance>18678</gpxtrkx:Distance>
        <gpxtrkx:TotalElapsedTime>28013</gpxtrkx:TotalElapsedTime>
        <gpxtrkx:MovingTime>18112</gpxtrkx:MovingTime>
        <gpxtrkx:StoppedTime>9888</gpxtrkx:StoppedTime>
        <gpxtrkx:MovingSpeed>1</gpxtrkx:MovingSpeed>
        <gpxtrkx:MaxSpeed>2</gpxtrkx:MaxSpeed>
        <gpxtrkx:MaxElevation>2051</gpxtrkx:MaxElevation>
        <gpxtrkx:MinElevation>1290</gpxtrkx:MinElevation>
        <gpxtrkx:Ascent>811</gpxtrkx:Ascent>
        <gpxtrkx:Descent>1035</gpxtrkx:Descent>
        <gpxtrkx:AvgAscentRate>0</gpxtrkx:AvgAscentRate>
        <gpxtrkx:MaxAscentRate>0</gpxtrkx:MaxAscentRate>
        <gpxtrkx:AvgDescentRate>0</gpxtrkx:AvgDescentRate>
        <gpxtrkx:MaxDescentRate>-0</gpxtrkx:MaxDescentRate>
      </gpxtrkx:TrackStatsExtension>
    </extensions>
    <trkseg>
      <trkpt lat="46.030898988246918" lon="7.115681329742074">
        <ele>1514.6900000000001</ele>
        <time>2014-07-13T06:27:29Z</time>
      </trkpt>
      <trkpt lat="46.030900413170457" lon="7.115677893161774">
        <ele>1514.6900000000001</ele>
        <time>2014-07-13T06:27:30Z</time>
      </trkpt>
      <trkpt lat="46.030941735953093" lon="7.115650735795498">
        <ele>1514.6900000000001</ele>
        <time>2014-07-13T06:27:53Z</time>
      </trkpt>
      <trkpt lat="46.030937796458602" lon="7.115647969767451">
        <ele>1515.1800000000001</ele>
        <time>2014-07-13T06:28:21Z</time>
      </trkpt>
      <trkpt lat="46.030903179198503" lon="7.115633636713028">
        <ele>1514.6900000000001</ele>
        <time>2014-07-13T06:28:45Z</time>
      </trkpt>
      <trkpt lat="46.030810307711363" lon="7.115598348900676">
        <ele>1514.6900000000001</ele>
        <time>2014-07-13T06:29:05Z</time>
      </trkpt>
      <trkpt lat="46.030793711543083" lon="7.115635313093662">
        <ele>1514.6900000000001</ele>
        <time>2014-07-13T06:29:32Z</time>
      </trkpt>
      <trkpt lat="46.03083461523056" lon="7.115664063021541">
        <ele>1514.21</ele>
        <time>2014-07-13T06:29:59Z</time>
      </trkpt>
      <trkpt lat="46.030835034325719" lon="7.115689041092992">
        <ele>1513.73</ele>
        <time>2014-07-13T06:30:25Z</time>
      </trkpt>
      <trkpt lat="46.03088054805994" lon="7.115665739402175">
        <ele>1513.73</ele>
        <time>2014-07-13T06:30:53Z</time>
      </trkpt>
      <trkpt lat="46.030886331573129" lon="7.115632798522711">
        <ele>1513.73</ele>
        <time>2014-07-13T06:31:21Z</time>
      </trkpt>
      <trkpt lat="46.030972329899669" lon="7.115660710260272">
        <ele>1513.73</ele>
        <time>2014-07-13T06:31:29Z</time>
      </trkpt>
      <trkpt lat="46.031038546934724" lon="7.115717958658934">
        <ele>1513.73</ele>
        <time>2014-07-13T06:31:32Z</time>
      </trkpt>
      <trkpt lat="46.031137369573116" lon="7.115806387737393">
        <ele>1513.73</ele>
        <time>2014-07-13T06:31:56Z</time>
      </trkpt>
      <trkpt lat="46.03123040869832" lon="7.115810327231884">
        <ele>1513.25</ele>
        <time>2014-07-13T06:32:22Z</time>
      </trkpt>
      <trkpt lat="46.031204340979457" lon="7.115784846246243">
        <ele>1513.73</ele>
        <time>2014-07-13T06:32:53Z</time>
      </trkpt>
      <trkpt lat="46.031136447563767" lon="7.115701949223876">
        <ele>1513.25</ele>
        <time>2014-07-13T06:33:22Z</time>
      </trkpt>
      <trkpt lat="46.031499886885285" lon="7.115740925073624">
        <ele>1513.73</ele>
        <time>2014-07-13T06:33:47Z</time>
      </trkpt>
      <trkpt lat="46.031526206061244" lon="7.115772273391485">
        <ele>1513.73</ele>
        <time>2014-07-13T06:34:17Z</time>
      </trkpt>
      <trkpt lat="46.031412547454238" lon="7.115710414946079">
        <ele>1514.21</ele>
        <time>2014-07-13T06:34:46Z</time>
      </trkpt>
      <trkpt lat="46.031174920499325" lon="7.115667331963778">
        <ele>1514.21</ele>
        <time>2014-07-13T06:35:16Z</time>
      </trkpt>
      <trkpt lat="46.030967887490988" lon="7.115637240931392">
        <ele>1515.1800000000001</ele>
        <time>2014-07-13T06:35:30Z</time>
      </trkpt>
      <trkpt lat="46.030807122588158" lon="7.115664733573794">
        <ele>1515.1800000000001</ele>
        <time>2014-07-13T06:35:42Z</time>
      </trkpt>
      <trkpt lat="46.030822629109025" lon="7.115641180425882">
        <ele>1515.1800000000001</ele>
        <time>2014-07-13T06:35:44Z</time>
      </trkpt>
      <trkpt lat="46.030772756785154" lon="7.115412773564458">
        <ele>1514.6900000000001</ele>
        <time>2014-07-13T06:35:59Z</time>
      </trkpt>
      <trkpt lat="46.030613500624895" lon="7.115323171019554">
        <ele>1514.6900000000001</ele>
        <time>2014-07-13T06:36:09Z</time>
      </trkpt>
      <trkpt lat="46.03061031550169" lon="7.115036929026246">
        <ele>1514.21</ele>
        <time>2014-07-13T06:36:26Z</time>
      </trkpt>
      <trkpt lat="46.030659768730402" lon="7.114832997322083">
        <ele>1513.73</ele>
        <time>2014-07-13T06:36:40Z</time>
      </trkpt>
      <trkpt lat="46.030724225565791" lon="7.114594113081694">
        <ele>1513.73</ele>
        <time>2014-07-13T06:36:57Z</time>
      </trkpt>
      <trkpt lat="46.030760100111365" lon="7.114399820566177">
        <ele>1513.73</ele>
        <time>2014-07-13T06:37:11Z</time>
      </trkpt>
      <trkpt lat="46.030793292447925" lon="7.114181388169527">
        <ele>1514.21</ele>
        <time>2014-07-13T06:37:27Z</time>
      </trkpt>
      <trkpt lat="46.030852971598506" lon="7.113982569426298">
        <ele>1514.21</ele>
        <time>2014-07-13T06:37:42Z</time>
      </trkpt>
      <trkpt lat="46.030884990468621" lon="7.113871006295085">
        <ele>1514.21</ele>
        <time>2014-07-13T06:38:00Z</time>
      </trkpt>
      <trkpt lat="46.030873507261276" lon="7.113844100385904">
        <ele>1513.73</ele>
        <time>2014-07-13T06:38:23Z</time>
      </trkpt>
      <trkpt lat="46.030894042924047" lon="7.113839322701097">
        <ele>1513.25</ele>
        <time>2014-07-13T06:38:48Z</time>
      </trkpt>
      <trkpt lat="46.030885325744748" lon="7.113843681290746">
        <ele>1512.77</ele>
        <time>2014-07-13T06:39:17Z</time>
      </trkpt>
      <trkpt lat="46.030907370150089" lon="7.113818116486073">
        <ele>1512.29</ele>
        <time>2014-07-13T06:39:50Z</time>
      </trkpt>
      <trkpt lat="46.030887588858604" lon="7.113831359893084">
        <ele>1511.8099999999999</ele>
        <time>2014-07-13T06:40:16Z</time>
      </trkpt>
      <trkpt lat="46.030913405120373" lon="7.113877711817622">
        <ele>1511.3299999999999</ele>
        <time>2014-07-13T06:40:38Z</time>
      </trkpt>
      <trkpt lat="46.030864454805851" lon="7.113864636048675">
        <ele>1510.8499999999999</ele>
        <time>2014-07-13T06:40:56Z</time>
      </trkpt>
      <trkpt lat="46.03086831048131" lon="7.113855583593249">
        <ele>1510.8499999999999</ele>
        <time>2014-07-13T06:41:19Z</time>
      </trkpt>
      <trkpt lat="46.030862610787153" lon="7.113881148397923">
        <ele>1509.4100000000001</ele>
        <time>2014-07-13T06:41:35Z</time>
      </trkpt>
      <trkpt lat="46.030859928578138" lon="7.113880896940827">
        <ele>1508.9300000000001</ele>
        <time>2014-07-13T06:42:01Z</time>
      </trkpt>
      <trkpt lat="46.03085464797914" lon="7.113883160054684">
        <ele>1509.4100000000001</ele>
        <time>2014-07-13T06:42:25Z</time>
      </trkpt>
      <trkpt lat="46.030876440927386" lon="7.113859774544835">
        <ele>1509.4100000000001</ele>
        <time>2014-07-13T06:42:37Z</time>
      </trkpt>
      <trkpt lat="46.0308878403157" lon="7.113838735967875">
        <ele>1508.9300000000001</ele>
        <time>2014-07-13T06:42:52Z</time>
      </trkpt>
      <trkpt lat="46.030912231653929" lon="7.113812835887075">
        <ele>1509.4100000000001</ele>
        <time>2014-07-13T06:42:55Z</time>
      </trkpt>
      <trkpt lat="46.030965121462941" lon="7.1135248336941">
        <ele>1510.3699999999999</ele>
        <time>2014-07-13T06:43:15Z</time>
      </trkpt>
      <trkpt lat="46.031030248850584" lon="7.113315034657717">
        <ele>1511.8099999999999</ele>
        <time>2014-07-13T06:43:32Z</time>
      </trkpt>
      <trkpt lat="46.031085401773453" lon="7.11318084038794">
        <ele>1512.29</ele>
        <time>2014-07-13T06:43:42Z</time>
      </trkpt>
      <trkpt lat="46.031096130609512" lon="7.113134572282434">
        <ele>1512.77</ele>
        <time>2014-07-13T06:43:45Z</time>
      </trkpt>
      <trkpt lat="46.031186738982797" lon="7.112910691648722">
        <ele>1513.73</ele>
        <time>2014-07-13T06:44:02Z</time>
      </trkpt>
      <trkpt lat="46.031207274645567" lon="7.112839110195637">
        <ele>1515.1800000000001</ele>
        <time>2014-07-13T06:44:11Z</time>
      </trkpt>
      <trkpt lat="46.031258823350072" lon="7.112634256482124">
        <ele>1515.6600000000001</ele>
        <time>2014-07-13T06:44:26Z</time>
      </trkpt>
      <trkpt lat="46.031340295448899" lon="7.112432839348912">
        <ele>1516.6199999999999</ele>
        <time>2014-07-13T06:44:40Z</time>
      </trkpt>
      <trkpt lat="46.031414140015841" lon="7.112223710864782">
        <ele>1517.0999999999999</ele>
        <time>2014-07-13T06:44:54Z</time>
      </trkpt>
      <trkpt lat="46.031430903822184" lon="7.112058671191335">
        <ele>1518.0599999999999</ele>
        <time>2014-07-13T06:45:06Z</time>
      </trkpt>
      <trkpt lat="46.031470634043217" lon="7.111969403922558">
        <ele>1517.5799999999999</ele>
        <time>2014-07-13T06:45:13Z</time>
      </trkpt>
      <trkpt lat="46.031542718410492" lon="7.111764969304204">
        <ele>1518.0599999999999</ele>
        <time>2014-07-13T06:45:27Z</time>
      </trkpt>
      <trkpt lat="46.031556967645884" lon="7.111733956262469">
        <ele>1518.0599999999999</ele>
        <time>2014-07-13T06:45:29Z</time>
      </trkpt>
      <trkpt lat="46.031572557985783" lon="7.111704703420401">
        <ele>1517.5799999999999</ele>
        <time>2014-07-13T06:45:31Z</time>
      </trkpt>
      <trkpt lat="46.031600721180439" lon="7.111540837213397">
        <ele>1517.5799999999999</ele>
        <time>2014-07-13T06:45:40Z</time>
      </trkpt>
      <trkpt lat="46.031624274328351" lon="7.111472357064486">
        <ele>1517.5799999999999</ele>
        <time>2014-07-13T06:45:44Z</time>
      </trkpt>
      <trkpt lat="46.031671464443207" lon="7.11111637763679">
        <ele>1516.6199999999999</ele>
        <time>2014-07-13T06:46:03Z</time>
      </trkpt>
      <trkpt lat="46.031735250726342" lon="7.110792752355337">
        <ele>1515.6600000000001</ele>
        <time>2014-07-13T06:46:22Z</time>
      </trkpt>
      <trkpt lat="46.031751343980432" lon="7.11066828109324">
        <ele>1515.1800000000001</ele>
        <time>2014-07-13T06:46:30Z</time>
      </trkpt>
      <trkpt lat="46.031805574893951" lon="7.11051438935101">
        <ele>1515.1800000000001</ele>
        <time>2014-07-13T06:46:40Z</time>
      </trkpt>
      <trkpt lat="46.031829798594117" lon="7.11020358838141">
        <ele>1515.6600000000001</ele>
        <time>2014-07-13T06:46:59Z</time>
      </trkpt>
      <trkpt lat="46.031905151903629" lon="7.109897816553712">
        <ele>1515.1800000000001</ele>
        <time>2014-07-13T06:47:16Z</time>
      </trkpt>
      <trkpt lat="46.031912863254547" lon="7.109738141298294">
        <ele>1514.6900000000001</ele>
        <time>2014-07-13T06:47:25Z</time>
      </trkpt>
      <trkpt lat="46.031901715323329" lon="7.109598498791456">
        <ele>1515.1800000000001</ele>
        <time>2014-07-13T06:47:33Z</time>
      </trkpt>
      <trkpt lat="46.031891908496618" lon="7.109335139393807">
        <ele>1515.1800000000001</ele>
        <time>2014-07-13T06:47:48Z</time>
      </trkpt>
      <trkpt lat="46.031871791929007" lon="7.108989804983139">
        <ele>1516.1400000000001</ele>
        <time>2014-07-13T06:48:07Z</time>
      </trkpt>
      <trkpt lat="46.031919736415148" lon="7.108693923801184">
        <ele>1516.1400000000001</ele>
        <time>2014-07-13T06:48:24Z</time>
      </trkpt>
      <trkpt lat="46.031949240714312" lon="7.108407514169812">
        <ele>1517.5799999999999</ele>
        <time>2014-07-13T06:48:42Z</time>
      </trkpt>
      <trkpt lat="46.031936081126332" lon="7.108350684866309">
        <ele>1517.5799999999999</ele>
        <time>2014-07-13T06:48:47Z</time>
      </trkpt>
      <trkpt lat="46.031879084184766" lon="7.108264351263642">
        <ele>1519.02</ele>
        <time>2014-07-13T06:48:55Z</time>
      </trkpt>
      <trkpt lat="46.031733993440866" lon="7.108205761760473">
        <ele>1520.46</ele>
        <time>2014-07-13T06:49:08Z</time>
      </trkpt>
      <trkpt lat="46.031566271558404" lon="7.108124457299709">
        <ele>1521.9000000000001</ele>
        <time>2014-07-13T06:49:23Z</time>
      </trkpt>
      <trkpt lat="46.031419085338712" lon="7.107978360727429">
        <ele>1524.3099999999999</ele>
        <time>2014-07-13T06:49:38Z</time>
      </trkpt>
      <trkpt lat="46.031414391472936" lon="7.107965871691704">
        <ele>1524.3099999999999</ele>
        <time>2014-07-13T06:49:39Z</time>
      </trkpt>
      <trkpt lat="46.031402070075274" lon="7.107767891138792">
        <ele>1525.27</ele>
        <time>2014-07-13T06:49:51Z</time>
      </trkpt>
      <trkpt lat="46.031426042318344" lon="7.107704607769847">
        <ele>1525.27</ele>
        <time>2014-07-13T06:50:07Z</time>
      </trkpt>
      <trkpt lat="46.031434508040547" lon="7.107675271108747">
        <ele>1525.27</ele>
        <time>2014-07-13T06:50:12Z</time>
      </trkpt>
      <trkpt lat="46.031513549387455" lon="7.107408223673701">
        <ele>1525.75</ele>
        <time>2014-07-13T06:50:29Z</time>
      </trkpt>
      <trkpt lat="46.031540874391794" lon="7.107233963906765">
        <ele>1526.23</ele>
        <time>2014-07-13T06:50:42Z</time>
      </trkpt>
      <trkpt lat="46.031606504693627" lon="7.106968257576227">
        <ele>1526.71</ele>
        <time>2014-07-13T06:51:00Z</time>
      </trkpt>
      <trkpt lat="46.031652772799134" lon="7.106850324198604">
        <ele>1527.1900000000001</ele>
        <time>2014-07-13T06:51:08Z</time>
      </trkpt>
      <trkpt lat="46.03168873116374" lon="7.106784945353866">
        <ele>1527.1900000000001</ele>
        <time>2014-07-13T06:51:13Z</time>
      </trkpt>
      <trkpt lat="46.031807586550713" lon="7.106631388887763">
        <ele>1527.6700000000001</ele>
        <time>2014-07-13T06:51:27Z</time>
      </trkpt>
      <trkpt lat="46.031959969550371" lon="7.106507588177919">
        <ele>1526.71</ele>
        <time>2014-07-13T06:51:41Z</time>
      </trkpt>
      <trkpt lat="46.032128697261214" lon="7.10633366368711">
        <ele>1525.75</ele>
        <time>2014-07-13T06:51:58Z</time>
      </trkpt>
      <trkpt lat="46.032260376960039" lon="7.106082960963249">
        <ele>1523.8299999999999</ele>
        <time>2014-07-13T06:52:16Z</time>
      </trkpt>
      <trkpt lat="46.032281080260873" lon="7.106040548533201">
        <ele>1523.8299999999999</ele>
        <time>2014-07-13T06:52:19Z</time>
      </trkpt>
      <trkpt lat="46.032327432185411" lon="7.105731507763267">
        <ele>1522.8699999999999</ele>
        <time>2014-07-13T06:52:37Z</time>
      </trkpt>
      <trkpt lat="46.032370096072555" lon="7.105496814474464">
        <ele>1522.3900000000001</ele>
        <time>2014-07-13T06:52:52Z</time>
      </trkpt>
      <trkpt lat="46.032391637563705" lon="7.105167992413044">
        <ele>1521.9000000000001</ele>
        <time>2014-07-13T06:53:10Z</time>
      </trkpt>
      <trkpt lat="46.032375041395426" lon="7.1049112547189">
        <ele>1521.4200000000001</ele>
        <time>2014-07-13T06:53:24Z</time>
      </trkpt>
      <trkpt lat="46.032365653663874" lon="7.104593245312572">
        <ele>1520.46</ele>
        <time>2014-07-13T06:53:41Z</time>
      </trkpt>
      <trkpt lat="46.032458776608109" lon="7.104281103238463">
        <ele>1519.5</ele>
        <time>2014-07-13T06:53:59Z</time>
      </trkpt>
      <trkpt lat="46.03257168084383" lon="7.104066694155335">
        <ele>1519.98</ele>
        <time>2014-07-13T06:54:15Z</time>
      </trkpt>
      <trkpt lat="46.032694224268198" lon="7.103859074413776">
        <ele>1520.46</ele>
        <time>2014-07-13T06:54:31Z</time>
      </trkpt>
      <trkpt lat="46.032839734107256" lon="7.103665452450514">
        <ele>1521.4200000000001</ele>
        <time>2014-07-13T06:54:47Z</time>
      </trkpt>
      <trkpt lat="46.032982645556331" lon="7.103428663685918">
        <ele>1520.9400000000001</ele>
        <time>2014-07-13T06:55:04Z</time>
      </trkpt>
      <trkpt lat="46.033145673573017" lon="7.103215679526329">
        <ele>1519.98</ele>
        <time>2014-07-13T06:55:21Z</time>
      </trkpt>
      <trkpt lat="46.033306689932942" lon="7.103114929050207">
        <ele>1518.54</ele>
        <time>2014-07-13T06:55:36Z</time>
      </trkpt>
      <trkpt lat="46.033364105969667" lon="7.103069834411144">
        <ele>1518.0599999999999</ele>
        <time>2014-07-13T06:55:42Z</time>
      </trkpt>
      <trkpt lat="46.033389838412404" lon="7.103041335940361">
        <ele>1518.0599999999999</ele>
        <time>2014-07-13T06:55:46Z</time>
      </trkpt>
      <trkpt lat="46.033429065719247" lon="7.103016441687942">
        <ele>1517.5799999999999</ele>
        <time>2014-07-13T06:55:49Z</time>
      </trkpt>
      <trkpt lat="46.033611372113228" lon="7.102893060073257">
        <ele>1517.0999999999999</ele>
        <time>2014-07-13T06:56:02Z</time>
      </trkpt>
      <trkpt lat="46.033662920817733" lon="7.102888785302639">
        <ele>1516.6199999999999</ele>
        <time>2014-07-13T06:56:13Z</time>
      </trkpt>
      <trkpt lat="46.033688737079501" lon="7.102865232154727">
        <ele>1516.1400000000001</ele>
        <time>2014-07-13T06:56:21Z</time>
      </trkpt>
      <trkpt lat="46.033714050427079" lon="7.102813851088285">
        <ele>1515.6600000000001</ele>
        <time>2014-07-13T06:56:25Z</time>
      </trkpt>
      <trkpt lat="46.033728970214725" lon="7.102742185816169">
        <ele>1515.1800000000001</ele>
        <time>2014-07-13T06:56:31Z</time>
      </trkpt>
      <trkpt lat="46.033846903592348" lon="7.102473545819521">
        <ele>1512.29</ele>
        <time>2014-07-13T06:56:50Z</time>
      </trkpt>
      <trkpt lat="46.033883616328239" lon="7.102409088984132">
        <ele>1511.3299999999999</ele>
        <time>2014-07-13T06:57:04Z</time>
      </trkpt>
      <trkpt lat="46.033894093707204" lon="7.102436246350408">
        <ele>1511.3299999999999</ele>
        <time>2014-07-13T06:57:27Z</time>
      </trkpt>
      <trkpt lat="46.033943044021726" lon="7.102422835305333">
        <ele>1510.3699999999999</ele>
        <time>2014-07-13T06:57:34Z</time>
      </trkpt>
      <trkpt lat="46.03399995714426" lon="7.102395845577121">
        <ele>1508.9300000000001</ele>
        <time>2014-07-13T06:57:41Z</time>
      </trkpt>
      <trkpt lat="46.034104311838746" lon="7.10240263491869">
        <ele>1505.5599999999999</ele>
        <time>2014-07-13T06:57:54Z</time>
      </trkpt>
      <trkpt lat="46.034196009859443" lon="7.102355612441897">
        <ele>1502.6800000000001</ele>
        <time>2014-07-13T06:58:09Z</time>
      </trkpt>
      <trkpt lat="46.034222915768623" lon="7.102337423712015">
        <ele>1502.2</ele>
        <time>2014-07-13T06:58:11Z</time>
      </trkpt>
      <trkpt lat="46.034413101151586" lon="7.102254526689649">
        <ele>1499.3099999999999</ele>
        <time>2014-07-13T06:58:27Z</time>
      </trkpt>
      <trkpt lat="46.034566992893815" lon="7.102188225835562">
        <ele>1495.47</ele>
        <time>2014-07-13T06:58:42Z</time>
      </trkpt>
      <trkpt lat="46.034799506887794" lon="7.102226698771119">
        <ele>1493.0599999999999</ele>
        <time>2014-07-13T06:58:57Z</time>
      </trkpt>
      <trkpt lat="46.034924983978271" lon="7.102319318801165">
        <ele>1490.1800000000001</ele>
        <time>2014-07-13T06:59:08Z</time>
      </trkpt>
      <trkpt lat="46.035022381693125" lon="7.102388888597488">
        <ele>1486.8199999999999</ele>
        <time>2014-07-13T06:59:20Z</time>
      </trkpt>
      <trkpt lat="46.035109469667077" lon="7.102358378469944">
        <ele>1485.8499999999999</ele>
        <time>2014-07-13T06:59:28Z</time>
      </trkpt>
      <trkpt lat="46.035146266222" lon="7.102300124242902">
        <ele>1485.3699999999999</ele>
        <time>2014-07-13T06:59:32Z</time>
      </trkpt>
      <trkpt lat="46.035256655886769" lon="7.102057719603181">
        <ele>1484.8900000000001</ele>
        <time>2014-07-13T06:59:49Z</time>
      </trkpt>
      <trkpt lat="46.035288088023663" lon="7.101876838132739">
        <ele>1484.4100000000001</ele>
        <time>2014-07-13T07:00:02Z</time>
      </trkpt>
      <trkpt lat="46.035345420241356" lon="7.101676678285003">
        <ele>1483.9300000000001</ele>
        <time>2014-07-13T07:00:14Z</time>
      </trkpt>
      <trkpt lat="46.035404428839684" lon="7.101625381037593">
        <ele>1482.01</ele>
        <time>2014-07-13T07:00:20Z</time>
      </trkpt>
      <trkpt lat="46.035425383597612" lon="7.101610880345106">
        <ele>1482.01</ele>
        <time>2014-07-13T07:00:22Z</time>
      </trkpt>
      <trkpt lat="46.035443907603621" lon="7.101586908102036">
        <ele>1483.45</ele>
        <time>2014-07-13T07:00:25Z</time>
      </trkpt>
      <trkpt lat="46.035439884290099" lon="7.101563522592187">
        <ele>1483.9300000000001</ele>
        <time>2014-07-13T07:00:28Z</time>
      </trkpt>
      <trkpt lat="46.035344246774912" lon="7.101330673322082">
        <ele>1482.49</ele>
        <time>2014-07-13T07:00:46Z</time>
      </trkpt>
      <trkpt lat="46.035330668091774" lon="7.101309215649962">
        <ele>1482.01</ele>
        <time>2014-07-13T07:00:48Z</time>
      </trkpt>
      <trkpt lat="46.035310216248035" lon="7.101254398003221">
        <ele>1481.05</ele>
        <time>2014-07-13T07:00:54Z</time>
      </trkpt>
      <trkpt lat="46.035294542089105" lon="7.101227156817913">
        <ele>1480.5699999999999</ele>
        <time>2014-07-13T07:00:56Z</time>
      </trkpt>
      <trkpt lat="46.035211561247706" lon="7.101015178486705">
        <ele>1478.6500000000001</ele>
        <time>2014-07-13T07:01:08Z</time>
      </trkpt>
      <trkpt lat="46.035155570134521" lon="7.10082583129406">
        <ele>1476.72</ele>
        <time>2014-07-13T07:01:21Z</time>
      </trkpt>
      <trkpt lat="46.035136207938194" lon="7.100692642852664">
        <ele>1475.28</ele>
        <time>2014-07-13T07:01:29Z</time>
      </trkpt>
      <trkpt lat="46.035126065835357" lon="7.100637322291732">
        <ele>1475.28</ele>
        <time>2014-07-13T07:01:32Z</time>
      </trkpt>
      <trkpt lat="46.035087844356894" lon="7.10038804449141">
        <ele>1472.8800000000001</ele>
        <time>2014-07-13T07:01:48Z</time>
      </trkpt>
      <trkpt lat="46.035101674497128" lon="7.100318390876055">
        <ele>1472.8800000000001</ele>
        <time>2014-07-13T07:02:00Z</time>
      </trkpt>
      <trkpt lat="46.035112990066409" lon="7.100080093368888">
        <ele>1471.9200000000001</ele>
        <time>2014-07-13T07:02:16Z</time>
      </trkpt>
      <trkpt lat="46.035149116069078" lon="7.099865600466728">
        <ele>1470.95</ele>
        <time>2014-07-13T07:02:32Z</time>
      </trkpt>
      <trkpt lat="46.035140734165907" lon="7.099838443100452">
        <ele>1470.47</ele>
        <time>2014-07-13T07:02:44Z</time>
      </trkpt>
      <trkpt lat="46.035132519900799" lon="7.099826792255044">
        <ele>1470.47</ele>
        <time>2014-07-13T07:02:57Z</time>
      </trkpt>
      <trkpt lat="46.03514333255589" lon="7.099845316261053">
        <ele>1469.99</ele>
        <time>2014-07-13T07:03:18Z</time>
      </trkpt>
      <trkpt lat="46.035139141604304" lon="7.099836515262723">
        <ele>1469.51</ele>
        <time>2014-07-13T07:03:45Z</time>
      </trkpt>
      <trkpt lat="46.035131346434355" lon="7.099849423393607">
        <ele>1469.03</ele>
        <time>2014-07-13T07:04:04Z</time>
      </trkpt>
      <trkpt lat="46.035146433860064" lon="7.099816985428333">
        <ele>1469.03</ele>
        <time>2014-07-13T07:04:31Z</time>
      </trkpt>
      <trkpt lat="46.03514333255589" lon="7.099826959893107">
        <ele>1469.03</ele>
        <time>2014-07-13T07:04:32Z</time>
      </trkpt>
      <trkpt lat="46.035146266222" lon="7.099900720641017">
        <ele>1469.03</ele>
        <time>2014-07-13T07:04:48Z</time>
      </trkpt>
      <trkpt lat="46.035156073048711" lon="7.099805418401957">
        <ele>1468.55</ele>
        <time>2014-07-13T07:05:05Z</time>
      </trkpt>
      <trkpt lat="46.03514383547008" lon="7.099781110882759">
        <ele>1468.55</ele>
        <time>2014-07-13T07:05:09Z</time>
      </trkpt>
      <trkpt lat="46.035204688087106" lon="7.0994957908988">
        <ele>1466.6300000000001</ele>
        <time>2014-07-13T07:05:26Z</time>
      </trkpt>
      <trkpt lat="46.035373834893107" lon="7.099346928298473">
        <ele>1464.71</ele>
        <time>2014-07-13T07:05:42Z</time>
      </trkpt>
      <trkpt lat="46.035518003627658" lon="7.099215751513839">
        <ele>1463.74</ele>
        <time>2014-07-13T07:05:57Z</time>
      </trkpt>
      <trkpt lat="46.035679606720805" lon="7.099066721275449">
        <ele>1462.3</ele>
        <time>2014-07-13T07:06:15Z</time>
      </trkpt>
      <trkpt lat="46.03587968274951" lon="7.098877625539899">
        <ele>1461.3399999999999</ele>
        <time>2014-07-13T07:06:34Z</time>
      </trkpt>
      <trkpt lat="46.035979008302093" lon="7.09865290671587">
        <ele>1460.3800000000001</ele>
        <time>2014-07-13T07:06:49Z</time>
      </trkpt>
      <trkpt lat="46.035983450710773" lon="7.098609991371632">
        <ele>1460.3800000000001</ele>
        <time>2014-07-13T07:07:06Z</time>
      </trkpt>
      <trkpt lat="46.035969285294414" lon="7.098591718822718">
        <ele>1460.3800000000001</ele>
        <time>2014-07-13T07:07:13Z</time>
      </trkpt>
      <trkpt lat="46.03598328307271" lon="7.098419051617384">
        <ele>1458.46</ele>
        <time>2014-07-13T07:07:29Z</time>
      </trkpt>
      <trkpt lat="46.036037262529135" lon="7.098348056897521">
        <ele>1458.9400000000001</ele>
        <time>2014-07-13T07:07:38Z</time>
      </trkpt>
      <trkpt lat="46.036089900881052" lon="7.098291059955955">
        <ele>1457.5</ele>
        <time>2014-07-13T07:07:43Z</time>
      </trkpt>
      <trkpt lat="46.036246223375201" lon="7.098177652806044">
        <ele>1456.05</ele>
        <time>2014-07-13T07:07:58Z</time>
      </trkpt>
      <trkpt lat="46.036296095699072" lon="7.098164409399033">
        <ele>1456.05</ele>
        <time>2014-07-13T07:08:09Z</time>
      </trkpt>
      <trkpt lat="46.036449652165174" lon="7.09811981767416">
        <ele>1455.0899999999999</ele>
        <time>2014-07-13T07:08:25Z</time>
      </trkpt>
      <trkpt lat="46.036623744294047" lon="7.0981090888381">
        <ele>1454.6099999999999</ele>
        <time>2014-07-13T07:08:41Z</time>
      </trkpt>
      <trkpt lat="46.036800099536777" lon="7.098142448812723">
        <ele>1454.1300000000001</ele>
        <time>2014-07-13T07:08:58Z</time>
      </trkpt>
      <trkpt lat="46.036978969350457" lon="7.098090648651123">
        <ele>1452.6900000000001</ele>
        <time>2014-07-13T07:09:15Z</time>
      </trkpt>
      <trkpt lat="46.037001684308052" lon="7.098040943965316">
        <ele>1452.21</ele>
        <time>2014-07-13T07:09:20Z</time>
      </trkpt>
      <trkpt lat="46.037017777562141" lon="7.097886800765991">
        <ele>1451.25</ele>
        <time>2014-07-13T07:09:34Z</time>
      </trkpt>
      <trkpt lat="46.036998499184847" lon="7.097695441916585">
        <ele>1447.8800000000001</ele>
        <time>2014-07-13T07:09:49Z</time>
      </trkpt>
      <trkpt lat="46.037037307396531" lon="7.097559403628111">
        <ele>1445.96</ele>
        <time>2014-07-13T07:10:00Z</time>
      </trkpt>
      <trkpt lat="46.037217015400529" lon="7.097586644813418">
        <ele>1445.48</ele>
        <time>2014-07-13T07:10:14Z</time>
      </trkpt>
      <trkpt lat="46.037395466119051" lon="7.097633834928274">
        <ele>1444.04</ele>
        <time>2014-07-13T07:10:30Z</time>
      </trkpt>
      <trkpt lat="46.037433771416545" lon="7.097646994516254">
        <ele>1443.5599999999999</ele>
        <time>2014-07-13T07:10:34Z</time>
      </trkpt>
      <trkpt lat="46.037628650665283" lon="7.097796862944961">
        <ele>1441.6300000000001</ele>
        <time>2014-07-13T07:10:51Z</time>
      </trkpt>
      <trkpt lat="46.037817075848579" lon="7.097943210974336">
        <ele>1440.1900000000001</ele>
        <time>2014-07-13T07:11:09Z</time>
      </trkpt>
      <trkpt lat="46.038017403334379" lon="7.09789602085948">
        <ele>1437.3099999999999</ele>
        <time>2014-07-13T07:11:26Z</time>
      </trkpt>
      <trkpt lat="46.038100635632873" lon="7.097817063331604">
        <ele>1435.8699999999999</ele>
        <time>2014-07-13T07:11:36Z</time>
      </trkpt>
      <trkpt lat="46.038156291469932" lon="7.097769118845463">
        <ele>1435.3900000000001</ele>
        <time>2014-07-13T07:11:41Z</time>
      </trkpt>
      <trkpt lat="46.038195267319679" lon="7.097747409716249">
        <ele>1434.9100000000001</ele>
        <time>2014-07-13T07:11:44Z</time>
      </trkpt>
      <trkpt lat="46.038362486287951" lon="7.097659483551979">
        <ele>1433.46</ele>
        <time>2014-07-13T07:11:57Z</time>
      </trkpt>
      <trkpt lat="46.038584858179092" lon="7.0974425598979">
        <ele>1431.0599999999999</ele>
        <time>2014-07-13T07:12:16Z</time>
      </trkpt>
      <trkpt lat="46.03873279877007" lon="7.0972940325737">
        <ele>1430.0999999999999</ele>
        <time>2014-07-13T07:12:29Z</time>
      </trkpt>
      <trkpt lat="46.038846708834171" lon="7.097110552713275">
        <ele>1428.6600000000001</ele>
        <time>2014-07-13T07:12:43Z</time>
      </trkpt>
      <trkpt lat="46.038997918367386" lon="7.096873847767711">
        <ele>1427.21</ele>
        <time>2014-07-13T07:13:01Z</time>
      </trkpt>
      <trkpt lat="46.039172178134322" lon="7.096689948812127">
        <ele>1426.25</ele>
        <time>2014-07-13T07:13:17Z</time>
      </trkpt>
      <trkpt lat="46.039382982999086" lon="7.096562376245856">
        <ele>1425.77</ele>
        <time>2014-07-13T07:13:35Z</time>
      </trkpt>
      <trkpt lat="46.039585992693901" lon="7.09658014588058">
        <ele>1424.3299999999999</ele>
        <time>2014-07-13T07:13:50Z</time>
      </trkpt>
      <trkpt lat="46.03972127661109" lon="7.096549635753036">
        <ele>1421.9300000000001</ele>
        <time>2014-07-13T07:14:04Z</time>
      </trkpt>
      <trkpt lat="46.039777435362339" lon="7.096463637426496">
        <ele>1420.97</ele>
        <time>2014-07-13T07:14:12Z</time>
      </trkpt>
      <trkpt lat="46.039862427860498" lon="7.096297172829509">
        <ele>1419.52</ele>
        <time>2014-07-13T07:14:26Z</time>
      </trkpt>
      <trkpt lat="46.03984147310257" lon="7.096234308555722">
        <ele>1419.04</ele>
        <time>2014-07-13T07:14:38Z</time>
      </trkpt>
      <trkpt lat="46.03989620693028" lon="7.096157614141703">
        <ele>1418.5599999999999</ele>
        <time>2014-07-13T07:14:51Z</time>
      </trkpt>
      <trkpt lat="46.039984636008739" lon="7.095991652458906">
        <ele>1416.6400000000001</ele>
        <time>2014-07-13T07:15:05Z</time>
      </trkpt>
      <trkpt lat="46.040056385099888" lon="7.095829378813505">
        <ele>1415.6800000000001</ele>
        <time>2014-07-13T07:15:19Z</time>
      </trkpt>
      <trkpt lat="46.040113884955645" lon="7.095716558396816">
        <ele>1414.72</ele>
        <time>2014-07-13T07:15:31Z</time>
      </trkpt>
      <trkpt lat="46.040220754221082" lon="7.095585549250245">
        <ele>1413.28</ele>
        <time>2014-07-13T07:15:43Z</time>
      </trkpt>
      <trkpt lat="46.040245061740279" lon="7.095568366348743">
        <ele>1414.24</ele>
        <time>2014-07-13T07:15:45Z</time>
      </trkpt>
      <trkpt lat="46.040255120024085" lon="7.095560487359762">
        <ele>1413.28</ele>
        <time>2014-07-13T07:15:46Z</time>
      </trkpt>
      <trkpt lat="46.040262244641781" lon="7.095562415197492">
        <ele>1412.79</ele>
        <time>2014-07-13T07:15:50Z</time>
      </trkpt>
      <trkpt lat="46.040425691753626" lon="7.095439285039902">
        <ele>1411.3499999999999</ele>
        <time>2014-07-13T07:16:06Z</time>
      </trkpt>
      <trkpt lat="46.040659798309207" lon="7.095354963093996">
        <ele>1408.47</ele>
        <time>2014-07-13T07:16:25Z</time>
      </trkpt>
      <trkpt lat="46.040658205747604" lon="7.095390921458602">
        <ele>1408.47</ele>
        <time>2014-07-13T07:16:34Z</time>
      </trkpt>
      <trkpt lat="46.040677316486835" lon="7.095440709963441">
        <ele>1407.99</ele>
        <time>2014-07-13T07:16:39Z</time>
      </trkpt>
      <trkpt lat="46.040741857141256" lon="7.095424868166447">
        <ele>1407.03</ele>
        <time>2014-07-13T07:16:55Z</time>
      </trkpt>
      <trkpt lat="46.04073372669518" lon="7.09543383680284">
        <ele>1407.03</ele>
        <time>2014-07-13T07:16:57Z</time>
      </trkpt>
      <trkpt lat="46.04074445553124" lon="7.095414390787482">
        <ele>1406.55</ele>
        <time>2014-07-13T07:16:59Z</time>
      </trkpt>
      <trkpt lat="46.04088619351387" lon="7.095275083556771">
        <ele>1405.5799999999999</ele>
        <time>2014-07-13T07:17:12Z</time>
      </trkpt>
      <trkpt lat="46.04102835059166" lon="7.095127142965794">
        <ele>1404.1400000000001</ele>
        <time>2014-07-13T07:17:27Z</time>
      </trkpt>
      <trkpt lat="46.041106721386313" lon="7.09508984349668">
        <ele>1403.1800000000001</ele>
        <time>2014-07-13T07:17:33Z</time>
      </trkpt>
      <trkpt lat="46.041159695014358" lon="7.095051286742091">
        <ele>1402.22</ele>
        <time>2014-07-13T07:17:38Z</time>
      </trkpt>
      <trkpt lat="46.04131911881268" lon="7.09497987292707">
        <ele>1399.8199999999999</ele>
        <time>2014-07-13T07:17:52Z</time>
      </trkpt>
      <trkpt lat="46.04134451597929" lon="7.094993367791176">
        <ele>1399.8199999999999</ele>
        <time>2014-07-13T07:18:03Z</time>
      </trkpt>
      <trkpt lat="46.041526403278112" lon="7.094905693084002">
        <ele>1396.9300000000001</ele>
        <time>2014-07-13T07:18:20Z</time>
      </trkpt>
      <trkpt lat="46.041584154590964" lon="7.094717686995864">
        <ele>1394.05</ele>
        <time>2014-07-13T07:18:35Z</time>
      </trkpt>
      <trkpt lat="46.041608797386289" lon="7.094661444425583">
        <ele>1393.5699999999999</ele>
        <time>2014-07-13T07:18:39Z</time>
      </trkpt>
      <trkpt lat="46.041651964187622" lon="7.094607464969158">
        <ele>1392.6099999999999</ele>
        <time>2014-07-13T07:18:44Z</time>
      </trkpt>
      <trkpt lat="46.041883304715157" lon="7.094533452764154">
        <ele>1390.2</ele>
        <time>2014-07-13T07:19:04Z</time>
      </trkpt>
      <trkpt lat="46.042023953050375" lon="7.094464469701052">
        <ele>1388.28</ele>
        <time>2014-07-13T07:19:17Z</time>
      </trkpt>
      <trkpt lat="46.042122105136514" lon="7.094413507729769">
        <ele>1387.3199999999999</ele>
        <time>2014-07-13T07:19:26Z</time>
      </trkpt>
      <trkpt lat="46.042307512834668" lon="7.094333460554481">
        <ele>1384.4400000000001</ele>
        <time>2014-07-13T07:19:43Z</time>
      </trkpt>
      <trkpt lat="46.042475234717131" lon="7.094260035082698">
        <ele>1382.99</ele>
        <time>2014-07-13T07:19:59Z</time>
      </trkpt>
      <trkpt lat="46.042579421773553" lon="7.094213515520096">
        <ele>1382.51</ele>
        <time>2014-07-13T07:20:11Z</time>
      </trkpt>
      <trkpt lat="46.042575817555189" lon="7.094246288761497">
        <ele>1382.51</ele>
        <time>2014-07-13T07:20:28Z</time>
      </trkpt>
      <trkpt lat="46.042728703469038" lon="7.094060629606247">
        <ele>1381.0699999999999</ele>
        <time>2014-07-13T07:20:43Z</time>
      </trkpt>
      <trkpt lat="46.0428118519485" lon="7.093983264639974">
        <ele>1380.5899999999999</ele>
        <time>2014-07-13T07:20:50Z</time>
      </trkpt>
      <trkpt lat="46.042881505563855" lon="7.09399726241827">
        <ele>1380.1099999999999</ele>
        <time>2014-07-13T07:21:00Z</time>
      </trkpt>
      <trkpt lat="46.042881421744823" lon="7.094007823616266">
        <ele>1380.1099999999999</ele>
        <time>2014-07-13T07:21:21Z</time>
      </trkpt>
      <trkpt lat="46.042879158630967" lon="7.093962896615267">
        <ele>1379.6300000000001</ele>
        <time>2014-07-13T07:21:35Z</time>
      </trkpt>
      <trkpt lat="46.042897347360849" lon="7.093943366780877">
        <ele>1379.1500000000001</ele>
        <time>2014-07-13T07:21:43Z</time>
      </trkpt>
      <trkpt lat="46.042925342917442" lon="7.093856697902083">
        <ele>1378.1900000000001</ele>
        <time>2014-07-13T07:21:55Z</time>
      </trkpt>
      <trkpt lat="46.04298141784966" lon="7.093617813661695">
        <ele>1375.78</ele>
        <time>2014-07-13T07:22:10Z</time>
      </trkpt>
      <trkpt lat="46.043032966554165" lon="7.093470878899097">
        <ele>1374.8199999999999</ele>
        <time>2014-07-13T07:22:21Z</time>
      </trkpt>
      <trkpt lat="46.043040510267019" lon="7.093463419005275">
        <ele>1374.3399999999999</ele>
        <time>2014-07-13T07:22:22Z</time>
      </trkpt>
      <trkpt lat="46.043081497773528" lon="7.093397034332156">
        <ele>1374.3399999999999</ele>
        <time>2014-07-13T07:22:28Z</time>
      </trkpt>
      <trkpt lat="46.043099602684379" lon="7.093379851430655">
        <ele>1373.8599999999999</ele>
        <time>2014-07-13T07:22:30Z</time>
      </trkpt>
      <trkpt lat="46.043135309591889" lon="7.093345066532493">
        <ele>1373.8599999999999</ele>
        <time>2014-07-13T07:22:34Z</time>
      </trkpt>
      <trkpt lat="46.043377546593547" lon="7.093165442347527">
        <ele>1371.9400000000001</ele>
        <time>2014-07-13T07:22:53Z</time>
      </trkpt>
      <trkpt lat="46.043579466640949" lon="7.093053460121155">
        <ele>1370.98</ele>
        <time>2014-07-13T07:23:10Z</time>
      </trkpt>
      <trkpt lat="46.043768646195531" lon="7.092925552278757">
        <ele>1370.5</ele>
        <time>2014-07-13T07:23:26Z</time>
      </trkpt>
      <trkpt lat="46.043919352814555" lon="7.092842906713486">
        <ele>1370.02</ele>
        <time>2014-07-13T07:23:40Z</time>
      </trkpt>
      <trkpt lat="46.044083973392844" lon="7.092739893123508">
        <ele>1369.05</ele>
        <time>2014-07-13T07:23:55Z</time>
      </trkpt>
      <trkpt lat="46.044260580092669" lon="7.092725643888116">
        <ele>1369.05</ele>
        <time>2014-07-13T07:24:10Z</time>
      </trkpt>
      <trkpt lat="46.04444095864892" lon="7.092760680243373">
        <ele>1368.0899999999999</ele>
        <time>2014-07-13T07:24:24Z</time>
      </trkpt>
      <trkpt lat="46.044541206210852" lon="7.092745928093791">
        <ele>1367.6099999999999</ele>
        <time>2014-07-13T07:24:36Z</time>
      </trkpt>
      <trkpt lat="46.044691158458591" lon="7.092652386054397">
        <ele>1367.6099999999999</ele>
        <time>2014-07-13T07:24:50Z</time>
      </trkpt>
      <trkpt lat="46.044880002737045" lon="7.092568399384618">
        <ele>1366.6500000000001</ele>
        <time>2014-07-13T07:25:05Z</time>
      </trkpt>
      <trkpt lat="46.045103631913662" lon="7.092555155977607">
        <ele>1366.1700000000001</ele>
        <time>2014-07-13T07:25:23Z</time>
      </trkpt>
      <trkpt lat="46.04511670768261" lon="7.092555575072765">
        <ele>1365.6900000000001</ele>
        <time>2014-07-13T07:25:24Z</time>
      </trkpt>
      <trkpt lat="46.045174039900303" lon="7.092563873156905">
        <ele>1365.21</ele>
        <time>2014-07-13T07:25:28Z</time>
      </trkpt>
      <trkpt lat="46.045429771766067" lon="7.092524897307158">
        <ele>1365.21</ele>
        <time>2014-07-13T07:25:47Z</time>
      </trkpt>
      <trkpt lat="46.045617945492268" lon="7.092425655573607">
        <ele>1364.25</ele>
        <time>2014-07-13T07:26:03Z</time>
      </trkpt>
      <trkpt lat="46.045796647667885" lon="7.092313589528203">
        <ele>1363.77</ele>
        <time>2014-07-13T07:26:20Z</time>
      </trkpt>
      <trkpt lat="46.046025976538658" lon="7.092234380543232">
        <ele>1363.29</ele>
        <time>2014-07-13T07:26:38Z</time>
      </trkpt>
      <trkpt lat="46.046214820817113" lon="7.092163134366274">
        <ele>1362.3299999999999</ele>
        <time>2014-07-13T07:26:54Z</time>
      </trkpt>
      <trkpt lat="46.046391427516937" lon="7.092073950916529">
        <ele>1362.3299999999999</ele>
        <time>2014-07-13T07:27:09Z</time>
      </trkpt>
      <trkpt lat="46.046412633731961" lon="7.092049224302173">
        <ele>1362.3299999999999</ele>
        <time>2014-07-13T07:27:12Z</time>
      </trkpt>
      <trkpt lat="46.04652302339673" lon="7.091949731111527">
        <ele>1361.8399999999999</ele>
        <time>2014-07-13T07:27:23Z</time>
      </trkpt>
      <trkpt lat="46.046662665903568" lon="7.091884603723884">
        <ele>1361.3599999999999</ele>
        <time>2014-07-13T07:27:35Z</time>
      </trkpt>
      <trkpt lat="46.046736259013414" lon="7.091841269284487">
        <ele>1360.8800000000001</ele>
        <time>2014-07-13T07:27:48Z</time>
      </trkpt>
      <trkpt lat="46.046763248741627" lon="7.091826433315873">
        <ele>1360.8800000000001</ele>
        <time>2014-07-13T07:27:50Z</time>
      </trkpt>
      <trkpt lat="46.046828543767333" lon="7.09177203476429">
        <ele>1360.8800000000001</ele>
        <time>2014-07-13T07:27:58Z</time>
      </trkpt>
      <trkpt lat="46.046843379735947" lon="7.091759461909533">
        <ele>1361.3599999999999</ele>
        <time>2014-07-13T07:28:00Z</time>
      </trkpt>
      <trkpt lat="46.046783700585365" lon="7.091716546565294">
        <ele>1360.8800000000001</ele>
        <time>2014-07-13T07:28:17Z</time>
      </trkpt>
      <trkpt lat="46.046897023916245" lon="7.091642031446099">
        <ele>1360.4000000000001</ele>
        <time>2014-07-13T07:28:27Z</time>
      </trkpt>
      <trkpt lat="46.046974305063486" lon="7.091538850218058">
        <ele>1358.48</ele>
        <time>2014-07-13T07:28:41Z</time>
      </trkpt>
      <trkpt lat="46.047008000314236" lon="7.091508843004704">
        <ele>1358</ele>
        <time>2014-07-13T07:28:59Z</time>
      </trkpt>
      <trkpt lat="46.047035492956638" lon="7.091511776670814">
        <ele>1358</ele>
        <time>2014-07-13T07:29:12Z</time>
      </trkpt>
      <trkpt lat="46.047009844332933" lon="7.091511776670814">
        <ele>1358</ele>
        <time>2014-07-13T07:29:23Z</time>
      </trkpt>
      <trkpt lat="46.047032475471497" lon="7.091508256271482">
        <ele>1357.52</ele>
        <time>2014-07-13T07:29:44Z</time>
      </trkpt>
      <trkpt lat="46.047062985599041" lon="7.091506496071816">
        <ele>1358</ele>
        <time>2014-07-13T07:30:01Z</time>
      </trkpt>
      <trkpt lat="46.047042282298207" lon="7.091484954580665">
        <ele>1358</ele>
        <time>2014-07-13T07:30:18Z</time>
      </trkpt>
      <trkpt lat="46.047016130760312" lon="7.091481434181333">
        <ele>1358</ele>
        <time>2014-07-13T07:30:33Z</time>
      </trkpt>
      <trkpt lat="46.047052089124918" lon="7.091445559635758">
        <ele>1358</ele>
        <time>2014-07-13T07:30:53Z</time>
      </trkpt>
      <trkpt lat="46.047070361673832" lon="7.091418066993356">
        <ele>1354.1500000000001</ele>
        <time>2014-07-13T07:31:11Z</time>
      </trkpt>
      <trkpt lat="46.047065919265151" lon="7.091411110013723">
        <ele>1354.1500000000001</ele>
        <time>2014-07-13T07:31:12Z</time>
      </trkpt>
      <trkpt lat="46.047061728313565" lon="7.091442542150617">
        <ele>1358</ele>
        <time>2014-07-13T07:31:23Z</time>
      </trkpt>
      <trkpt lat="46.047063069418073" lon="7.091450253501535">
        <ele>1358</ele>
        <time>2014-07-13T07:31:24Z</time>
      </trkpt>
      <trkpt lat="46.047030463814735" lon="7.091431058943272">
        <ele>1358.48</ele>
        <time>2014-07-13T07:31:45Z</time>
      </trkpt>
      <trkpt lat="46.046968018636107" lon="7.091551590710878">
        <ele>1358.48</ele>
        <time>2014-07-13T07:32:05Z</time>
      </trkpt>
      <trkpt lat="46.046924768015742" lon="7.091441620141268">
        <ele>1358.48</ele>
        <time>2014-07-13T07:32:25Z</time>
      </trkpt>
      <trkpt lat="46.047000624239445" lon="7.091388227418065">
        <ele>1358.48</ele>
        <time>2014-07-13T07:32:31Z</time>
      </trkpt>
      <trkpt lat="46.046951254829764" lon="7.091166945174336">
        <ele>1358</ele>
        <time>2014-07-13T07:32:44Z</time>
      </trkpt>
      <trkpt lat="46.046905154362321" lon="7.090998888015747">
        <ele>1357.52</ele>
        <time>2014-07-13T07:32:57Z</time>
      </trkpt>
      <trkpt lat="46.046861652284861" lon="7.090880367904902">
        <ele>1357.52</ele>
        <time>2014-07-13T07:33:08Z</time>
      </trkpt>
      <trkpt lat="46.046832147985697" lon="7.090813228860498">
        <ele>1357.52</ele>
        <time>2014-07-13T07:33:14Z</time>
      </trkpt>
      <trkpt lat="46.046773139387369" lon="7.090683560818434">
        <ele>1357.04</ele>
        <time>2014-07-13T07:33:25Z</time>
      </trkpt>
      <trkpt lat="46.046675741672516" lon="7.090464290231466">
        <ele>1356.5599999999999</ele>
        <time>2014-07-13T07:33:39Z</time>
      </trkpt>
      <trkpt lat="46.046620337292552" lon="7.090305788442493">
        <ele>1356.5599999999999</ele>
        <time>2014-07-13T07:33:51Z</time>
      </trkpt>
      <trkpt lat="46.046607848256826" lon="7.090246612206101">
        <ele>1356.5599999999999</ele>
        <time>2014-07-13T07:33:54Z</time>
      </trkpt>
      <trkpt lat="46.04655135422945" lon="7.090051313862205">
        <ele>1355.5999999999999</ele>
        <time>2014-07-13T07:34:06Z</time>
      </trkpt>
      <trkpt lat="46.046434342861176" lon="7.089795246720314">
        <ele>1355.5999999999999</ele>
        <time>2014-07-13T07:34:20Z</time>
      </trkpt>
      <trkpt lat="46.046342728659511" lon="7.089581759646535">
        <ele>1355.5999999999999</ele>
        <time>2014-07-13T07:34:35Z</time>
      </trkpt>
      <trkpt lat="46.046348679810762" lon="7.089374642819166">
        <ele>1355.1199999999999</ele>
        <time>2014-07-13T07:34:49Z</time>
      </trkpt>
      <trkpt lat="46.046351781114936" lon="7.089345054700971">
        <ele>1355.1199999999999</ele>
        <time>2014-07-13T07:34:51Z</time>
      </trkpt>
      <trkpt lat="46.046405844390392" lon="7.089193258434534">
        <ele>1353.6700000000001</ele>
        <time>2014-07-13T07:35:04Z</time>
      </trkpt>
      <trkpt lat="46.046489411965013" lon="7.089022686704993">
        <ele>1352.71</ele>
        <time>2014-07-13T07:35:16Z</time>
      </trkpt>
      <trkpt lat="46.046494441106915" lon="7.088983962312341">
        <ele>1352.71</ele>
        <time>2014-07-13T07:35:18Z</time>
      </trkpt>
      <trkpt lat="46.046537943184376" lon="7.08873619325459">
        <ele>1350.3099999999999</ele>
        <time>2014-07-13T07:35:34Z</time>
      </trkpt>
      <trkpt lat="46.046562250703573" lon="7.088616248220205">
        <ele>1349.8299999999999</ele>
        <time>2014-07-13T07:35:42Z</time>
      </trkpt>
      <trkpt lat="46.046608854085207" lon="7.088562352582812">
        <ele>1350.3099999999999</ele>
        <time>2014-07-13T07:35:47Z</time>
      </trkpt>
      <trkpt lat="46.046767355874181" lon="7.088369065895677">
        <ele>1349.8299999999999</ele>
        <time>2014-07-13T07:36:04Z</time>
      </trkpt>
      <trkpt lat="46.046903980895877" lon="7.088134456425905">
        <ele>1352.23</ele>
        <time>2014-07-13T07:36:22Z</time>
      </trkpt>
      <trkpt lat="46.046998193487525" lon="7.087952233850956">
        <ele>1353.1900000000001</ele>
        <time>2014-07-13T07:36:38Z</time>
      </trkpt>
      <trkpt lat="46.047024931758642" lon="7.087844107300043">
        <ele>1353.1900000000001</ele>
        <time>2014-07-13T07:36:46Z</time>
      </trkpt>
      <trkpt lat="46.047036666423082" lon="7.087716199457645">
        <ele>1352.23</ele>
        <time>2014-07-13T07:36:52Z</time>
      </trkpt>
      <trkpt lat="46.04705024510622" lon="7.087667500600219">
        <ele>1352.23</ele>
        <time>2014-07-13T07:36:56Z</time>
      </trkpt>
      <trkpt lat="46.047115875408053" lon="7.08753758110106">
        <ele>1352.23</ele>
        <time>2014-07-13T07:37:06Z</time>
      </trkpt>
      <trkpt lat="46.047163484618068" lon="7.087509585544467">
        <ele>1352.23</ele>
        <time>2014-07-13T07:37:10Z</time>
      </trkpt>
      <trkpt lat="46.047243867069483" lon="7.087360303848982">
        <ele>1351.75</ele>
        <time>2014-07-13T07:37:22Z</time>
      </trkpt>
      <trkpt lat="46.047253590077162" lon="7.087350999936461">
        <ele>1351.75</ele>
        <time>2014-07-13T07:37:23Z</time>
      </trkpt>
      <trkpt lat="46.047320477664471" lon="7.087288051843643">
        <ele>1351.27</ele>
        <time>2014-07-13T07:37:29Z</time>
      </trkpt>
      <trkpt lat="46.04738300666213" lon="7.08709635771811">
        <ele>1350.79</ele>
        <time>2014-07-13T07:37:42Z</time>
      </trkpt>
      <trkpt lat="46.047386610880494" lon="7.087060902267695">
        <ele>1350.79</ele>
        <time>2014-07-13T07:37:44Z</time>
      </trkpt>
      <trkpt lat="46.047394406050444" lon="7.086938861757517">
        <ele>1350.79</ele>
        <time>2014-07-13T07:37:51Z</time>
      </trkpt>
      <trkpt lat="46.047449642792344" lon="7.08685202524066">
        <ele>1352.23</ele>
        <time>2014-07-13T07:38:00Z</time>
      </trkpt>
      <trkpt lat="46.047458779066801" lon="7.086815815418959">
        <ele>1352.71</ele>
        <time>2014-07-13T07:38:03Z</time>
      </trkpt>
      <trkpt lat="46.047534635290504" lon="7.086663851514459">
        <ele>1353.1900000000001</ele>
        <time>2014-07-13T07:38:15Z</time>
      </trkpt>
      <trkpt lat="46.047553410753608" lon="7.086641555652022">
        <ele>1353.1900000000001</ele>
        <time>2014-07-13T07:38:17Z</time>
      </trkpt>
      <trkpt lat="46.047575203701854" lon="7.08655790425837">
        <ele>1353.1900000000001</ele>
        <time>2014-07-13T07:38:22Z</time>
      </trkpt>
      <trkpt lat="46.047569839283824" lon="7.086299071088433">
        <ele>1352.71</ele>
        <time>2014-07-13T07:38:38Z</time>
      </trkpt>
      <trkpt lat="46.047558607533574" lon="7.086164625361562">
        <ele>1352.23</ele>
        <time>2014-07-13T07:38:47Z</time>
      </trkpt>
      <trkpt lat="46.047590039670467" lon="7.085916521027684">
        <ele>1353.1900000000001</ele>
        <time>2014-07-13T07:39:03Z</time>
      </trkpt>
      <trkpt lat="46.047650137916207" lon="7.085733041167259">
        <ele>1352.71</ele>
        <time>2014-07-13T07:39:17Z</time>
      </trkpt>
      <trkpt lat="46.047751223668456" lon="7.085526846349239">
        <ele>1352.23</ele>
        <time>2014-07-13T07:39:34Z</time>
      </trkpt>
      <trkpt lat="46.047901595011353" lon="7.085433220490813">
        <ele>1351.27</ele>
        <time>2014-07-13T07:39:49Z</time>
      </trkpt>
      <trkpt lat="46.04798742569983" lon="7.08532358519733">
        <ele>1351.75</ele>
        <time>2014-07-13T07:40:01Z</time>
      </trkpt>
      <trkpt lat="46.048093289136887" lon="7.085104985162616">
        <ele>1350.3099999999999</ele>
        <time>2014-07-13T07:40:16Z</time>
      </trkpt>
      <trkpt lat="46.048116674646735" lon="7.084980932995677">
        <ele>1350.3099999999999</ele>
        <time>2014-07-13T07:40:24Z</time>
      </trkpt>
      <trkpt lat="46.048168390989304" lon="7.084780605509877">
        <ele>1350.3099999999999</ele>
        <time>2014-07-13T07:40:39Z</time>
      </trkpt>
      <trkpt lat="46.048272661864758" lon="7.084628976881504">
        <ele>1349.8299999999999</ele>
        <time>2014-07-13T07:40:51Z</time>
      </trkpt>
      <trkpt lat="46.048373747617006" lon="7.084467625245452">
        <ele>1349.3499999999999</ele>
        <time>2014-07-13T07:41:08Z</time>
      </trkpt>
      <trkpt lat="46.048286072909832" lon="7.084331335499883">
        <ele>1345.98</ele>
        <time>2014-07-13T07:41:24Z</time>
      </trkpt>
      <trkpt lat="46.048137797042727" lon="7.084129080176354">
        <ele>1344.0599999999999</ele>
        <time>2014-07-13T07:41:40Z</time>
      </trkpt>
      <trkpt lat="46.048134360462427" lon="7.084097983315587">
        <ele>1343.5799999999999</ele>
        <time>2014-07-13T07:41:41Z</time>
      </trkpt>
      <trkpt lat="46.048121452331543" lon="7.083880305290222">
        <ele>1344.54</ele>
        <time>2014-07-13T07:41:57Z</time>
      </trkpt>
      <trkpt lat="46.048107538372278" lon="7.083766227588058">
        <ele>1341.1800000000001</ele>
        <time>2014-07-13T07:42:09Z</time>
      </trkpt>
      <trkpt lat="46.048082141205668" lon="7.083659861236811">
        <ele>1342.1400000000001</ele>
        <time>2014-07-13T07:42:23Z</time>
      </trkpt>
      <trkpt lat="46.048082979395986" lon="7.083460707217455">
        <ele>1342.6199999999999</ele>
        <time>2014-07-13T07:42:38Z</time>
      </trkpt>
      <trkpt lat="46.048019612208009" lon="7.083300445228815">
        <ele>1342.1400000000001</ele>
        <time>2014-07-13T07:42:50Z</time>
      </trkpt>
      <trkpt lat="46.048094630241394" lon="7.083227606490254">
        <ele>1341.6600000000001</ele>
        <time>2014-07-13T07:43:05Z</time>
      </trkpt>
      <trkpt lat="46.04818289168179" lon="7.083099782466888">
        <ele>1341.6600000000001</ele>
        <time>2014-07-13T07:43:19Z</time>
      </trkpt>
      <trkpt lat="46.048302920535207" lon="7.08295376971364">
        <ele>1341.1800000000001</ele>
        <time>2014-07-13T07:43:33Z</time>
      </trkpt>
      <trkpt lat="46.048460500314832" lon="7.082888893783093">
        <ele>1340.7</ele>
        <time>2014-07-13T07:43:48Z</time>
      </trkpt>
      <trkpt lat="46.048614224418998" lon="7.082772636786103">
        <ele>1342.1400000000001</ele>
        <time>2014-07-13T07:44:05Z</time>
      </trkpt>
      <trkpt lat="46.048716902732849" lon="7.082666102796793">
        <ele>1344.54</ele>
        <time>2014-07-13T07:44:21Z</time>
      </trkpt>
      <trkpt lat="46.04884103871882" lon="7.082646070048213">
        <ele>1346.46</ele>
        <time>2014-07-13T07:44:37Z</time>
      </trkpt>
      <trkpt lat="46.048936005681753" lon="7.082583121955395">
        <ele>1347.4300000000001</ele>
        <time>2014-07-13T07:44:52Z</time>
      </trkpt>
      <trkpt lat="46.04905016720295" lon="7.08251791074872">
        <ele>1349.3499999999999</ele>
        <time>2014-07-13T07:45:09Z</time>
      </trkpt>
      <trkpt lat="46.049144044518471" lon="7.082454711198807">
        <ele>1351.75</ele>
        <time>2014-07-13T07:45:25Z</time>
      </trkpt>
      <trkpt lat="46.049203472211957" lon="7.082366701215506">
        <ele>1352.23</ele>
        <time>2014-07-13T07:45:41Z</time>
      </trkpt>
      <trkpt lat="46.049125520512462" lon="7.082309117540717">
        <ele>1353.1900000000001</ele>
        <time>2014-07-13T07:45:52Z</time>
      </trkpt>
      <trkpt lat="46.049131220206618" lon="7.08227114751935">
        <ele>1353.1900000000001</ele>
        <time>2014-07-13T07:46:01Z</time>
      </trkpt>
      <trkpt lat="46.049183271825314" lon="7.082233764231205">
        <ele>1351.27</ele>
        <time>2014-07-13T07:46:13Z</time>
      </trkpt>
      <trkpt lat="46.04921730235219" lon="7.082117339596152">
        <ele>1349.8299999999999</ele>
        <time>2014-07-13T07:46:27Z</time>
      </trkpt>
      <trkpt lat="46.049184529110789" lon="7.082002507522702">
        <ele>1348.8699999999999</ele>
        <time>2014-07-13T07:46:41Z</time>
      </trkpt>
      <trkpt lat="46.049183690920472" lon="7.081879042088985">
        <ele>1348.3900000000001</ele>
        <time>2014-07-13T07:46:56Z</time>
      </trkpt>
      <trkpt lat="46.049261055886745" lon="7.08178348839283">
        <ele>1345.98</ele>
        <time>2014-07-13T07:47:08Z</time>
      </trkpt>
      <trkpt lat="46.049266336485744" lon="7.081756247207522">
        <ele>1345.98</ele>
        <time>2014-07-13T07:47:10Z</time>
      </trkpt>
      <trkpt lat="46.049300115555525" lon="7.081706039607525">
        <ele>1345.02</ele>
        <time>2014-07-13T07:47:15Z</time>
      </trkpt>
      <trkpt lat="46.049418216571212" lon="7.081573354080319">
        <ele>1342.1400000000001</ele>
        <time>2014-07-13T07:47:30Z</time>
      </trkpt>
      <trkpt lat="46.049441685900092" lon="7.08153479732573">
        <ele>1341.6600000000001</ele>
        <time>2014-07-13T07:47:33Z</time>
      </trkpt>
      <trkpt lat="46.049556853249669" lon="7.081396747380495">
        <ele>1339.25</ele>
        <time>2014-07-13T07:47:48Z</time>
      </trkpt>
      <trkpt lat="46.049625417217612" lon="7.081289375200868">
        <ele>1337.3299999999999</ele>
        <time>2014-07-13T07:48:01Z</time>
      </trkpt>
      <trkpt lat="46.049625752493739" lon="7.081243526190519">
        <ele>1336.8499999999999</ele>
        <time>2014-07-13T07:48:08Z</time>
      </trkpt>
      <trkpt lat="46.049640756100416" lon="7.081227265298367">
        <ele>1336.8499999999999</ele>
        <time>2014-07-13T07:48:10Z</time>
      </trkpt>
      <trkpt lat="46.049658693373203" lon="7.081191893666983">
        <ele>1336.8499999999999</ele>
        <time>2014-07-13T07:48:20Z</time>
      </trkpt>
      <trkpt lat="46.049680653959513" lon="7.080987375229597">
        <ele>1337.8099999999999</ele>
        <time>2014-07-13T07:48:35Z</time>
      </trkpt>
      <trkpt lat="46.049675792455673" lon="7.080977484583855">
        <ele>1337.8099999999999</ele>
        <time>2014-07-13T07:48:36Z</time>
      </trkpt>
      <trkpt lat="46.049707811325788" lon="7.080769361928105">
        <ele>1338.77</ele>
        <time>2014-07-13T07:48:51Z</time>
      </trkpt>
      <trkpt lat="46.0497244913131" lon="7.080735582858324">
        <ele>1338.77</ele>
        <time>2014-07-13T07:48:54Z</time>
      </trkpt>
      <trkpt lat="46.049735555425286" lon="7.080706581473351">
        <ele>1338.77</ele>
        <time>2014-07-13T07:49:03Z</time>
      </trkpt>
      <trkpt lat="46.049731196835637" lon="7.080496195703745">
        <ele>1339.73</ele>
        <time>2014-07-13T07:49:20Z</time>
      </trkpt>
      <trkpt lat="46.049709739163518" lon="7.080375999212265">
        <ele>1340.22</ele>
        <time>2014-07-13T07:49:41Z</time>
      </trkpt>
      <trkpt lat="46.049699932336807" lon="7.080352613702416">
        <ele>1340.22</ele>
        <time>2014-07-13T07:49:43Z</time>
      </trkpt>
      <trkpt lat="46.049691382795572" lon="7.08032738417387">
        <ele>1340.22</ele>
        <time>2014-07-13T07:49:45Z</time>
      </trkpt>
      <trkpt lat="46.049715522676706" lon="7.080101827159524">
        <ele>1342.6199999999999</ele>
        <time>2014-07-13T07:50:01Z</time>
      </trkpt>
      <trkpt lat="46.049733124673367" lon="7.080049691721797">
        <ele>1341.6600000000001</ele>
        <time>2014-07-13T07:50:05Z</time>
      </trkpt>
      <trkpt lat="46.049749385565519" lon="7.079964783042669">
        <ele>1342.1400000000001</ele>
        <time>2014-07-13T07:50:12Z</time>
      </trkpt>
      <trkpt lat="46.049827923998237" lon="7.079786332324147">
        <ele>1342.6199999999999</ele>
        <time>2014-07-13T07:50:26Z</time>
      </trkpt>
      <trkpt lat="46.049862122163177" lon="7.079737801104784">
        <ele>1343.0999999999999</ele>
        <time>2014-07-13T07:50:31Z</time>
      </trkpt>
      <trkpt lat="46.049931859597564" lon="7.079584831371903">
        <ele>1344.54</ele>
        <time>2014-07-13T07:50:48Z</time>
      </trkpt>
      <trkpt lat="46.049928590655327" lon="7.079565050080419">
        <ele>1344.54</ele>
        <time>2014-07-13T07:50:56Z</time>
      </trkpt>
      <trkpt lat="46.049930602312088" lon="7.079619700089097">
        <ele>1343.5799999999999</ele>
        <time>2014-07-13T07:51:13Z</time>
      </trkpt>
      <trkpt lat="46.049971673637629" lon="7.079562116414309">
        <ele>1343.5799999999999</ele>
        <time>2014-07-13T07:51:36Z</time>
      </trkpt>
      <trkpt lat="46.049956670030951" lon="7.079580053687096">
        <ele>1344.0599999999999</ele>
        <time>2014-07-13T07:51:55Z</time>
      </trkpt>
      <trkpt lat="46.049958094954491" lon="7.079565720632672">
        <ele>1344.54</ele>
        <time>2014-07-13T07:52:14Z</time>
      </trkpt>
      <trkpt lat="46.04996002279222" lon="7.07955532707274">
        <ele>1344.0599999999999</ele>
        <time>2014-07-13T07:52:35Z</time>
      </trkpt>
      <trkpt lat="46.049934709444642" lon="7.079600254073739">
        <ele>1344.0599999999999</ele>
        <time>2014-07-13T07:52:46Z</time>
      </trkpt>
      <trkpt lat="46.0498798917979" lon="7.07961693406105">
        <ele>1343.0999999999999</ele>
        <time>2014-07-13T07:53:00Z</time>
      </trkpt>
      <trkpt lat="46.049913922324777" lon="7.079554069787264">
        <ele>1343.5799999999999</ele>
        <time>2014-07-13T07:53:11Z</time>
      </trkpt>
      <trkpt lat="46.049926327541471" lon="7.079532276839018">
        <ele>1344.0599999999999</ele>
        <time>2014-07-13T07:53:26Z</time>
      </trkpt>
      <trkpt lat="46.049961447715759" lon="7.079431442543864">
        <ele>1344.0599999999999</ele>
        <time>2014-07-13T07:53:41Z</time>
      </trkpt>
      <trkpt lat="46.049959687516093" lon="7.079409481957555">
        <ele>1344.54</ele>
        <time>2014-07-13T07:54:04Z</time>
      </trkpt>
      <trkpt lat="46.049972344189882" lon="7.079443847760558">
        <ele>1344.0599999999999</ele>
        <time>2014-07-13T07:54:29Z</time>
      </trkpt>
      <trkpt lat="46.04998198337853" lon="7.079461617395282">
        <ele>1344.54</ele>
        <time>2014-07-13T07:54:47Z</time>
      </trkpt>
      <trkpt lat="46.049993131309748" lon="7.0795280020684">
        <ele>1344.54</ele>
        <time>2014-07-13T07:55:15Z</time>
      </trkpt>
      <trkpt lat="46.049994556233287" lon="7.079374613240361">
        <ele>1345.5</ele>
        <time>2014-07-13T07:55:38Z</time>
      </trkpt>
      <trkpt lat="46.050022970885038" lon="7.079342342913151">
        <ele>1345.02</ele>
        <time>2014-07-13T07:55:51Z</time>
      </trkpt>
      <trkpt lat="46.050037555396557" lon="7.079289369285107">
        <ele>1345.02</ele>
        <time>2014-07-13T07:56:10Z</time>
      </trkpt>
      <trkpt lat="46.050008805468678" lon="7.079324405640364">
        <ele>1345.02</ele>
        <time>2014-07-13T07:56:28Z</time>
      </trkpt>
      <trkpt lat="46.04999665170908" lon="7.079335553571582">
        <ele>1345.02</ele>
        <time>2014-07-13T07:56:43Z</time>
      </trkpt>
      <trkpt lat="46.049979636445642" lon="7.079365979880095">
        <ele>1344.54</ele>
        <time>2014-07-13T07:56:57Z</time>
      </trkpt>
      <trkpt lat="46.050003273412585" lon="7.079320969060063">
        <ele>1344.54</ele>
        <time>2014-07-13T07:57:20Z</time>
      </trkpt>
      <trkpt lat="46.050026994198561" lon="7.07922306843102">
        <ele>1344.54</ele>
        <time>2014-07-13T07:57:26Z</time>
      </trkpt>
      <trkpt lat="46.050052642822266" lon="7.079022992402315">
        <ele>1345.02</ele>
        <time>2014-07-13T07:57:41Z</time>
      </trkpt>
      <trkpt lat="46.05006018653512" lon="7.079092059284449">
        <ele>1344.54</ele>
        <time>2014-07-13T07:57:46Z</time>
      </trkpt>
      <trkpt lat="46.050053481012583" lon="7.079229522496462">
        <ele>1344.54</ele>
        <time>2014-07-13T07:58:02Z</time>
      </trkpt>
      <trkpt lat="46.050030095502734" lon="7.079317951574922">
        <ele>1344.54</ele>
        <time>2014-07-13T07:58:23Z</time>
      </trkpt>
      <trkpt lat="46.050034118816257" lon="7.079288363456726">
        <ele>1344.54</ele>
        <time>2014-07-13T07:58:40Z</time>
      </trkpt>
      <trkpt lat="46.050044763833284" lon="7.079278891906142">
        <ele>1344.54</ele>
        <time>2014-07-13T07:59:05Z</time>
      </trkpt>
      <trkpt lat="46.050060857087374" lon="7.079278221353889">
        <ele>1344.54</ele>
        <time>2014-07-13T07:59:28Z</time>
      </trkpt>
      <trkpt lat="46.050048787146807" lon="7.079288195818663">
        <ele>1344.0599999999999</ele>
        <time>2014-07-13T07:59:49Z</time>
      </trkpt>
      <trkpt lat="46.05002062395215" lon="7.079251985996962">
        <ele>1344.54</ele>
        <time>2014-07-13T08:00:05Z</time>
      </trkpt>
      <trkpt lat="46.050053564831614" lon="7.079297415912151">
        <ele>1344.0599999999999</ele>
        <time>2014-07-13T08:00:33Z</time>
      </trkpt>
      <trkpt lat="46.050006877630949" lon="7.079289117828012">
        <ele>1344.0599999999999</ele>
        <time>2014-07-13T08:01:04Z</time>
      </trkpt>
      <trkpt lat="46.050024395808578" lon="7.079276461154223">
        <ele>1344.0599999999999</ele>
        <time>2014-07-13T08:01:26Z</time>
      </trkpt>
      <trkpt lat="46.05004065670073" lon="7.079227259382606">
        <ele>1344.0599999999999</ele>
        <time>2014-07-13T08:01:34Z</time>
      </trkpt>
      <trkpt lat="46.05005188845098" lon="7.079201191663742">
        <ele>1343.5799999999999</ele>
        <time>2014-07-13T08:01:37Z</time>
      </trkpt>
      <trkpt lat="46.050068736076355" lon="7.079042522236705">
        <ele>1344.0599999999999</ele>
        <time>2014-07-13T08:01:51Z</time>
      </trkpt>
      <trkpt lat="46.050088601186872" lon="7.079014107584953">
        <ele>1344.0599999999999</ele>
        <time>2014-07-13T08:01:55Z</time>
      </trkpt>
      <trkpt lat="46.050119111314416" lon="7.079069092869759">
        <ele>1344.0599999999999</ele>
        <time>2014-07-13T08:02:08Z</time>
      </trkpt>
      <trkpt lat="46.050118859857321" lon="7.079034056514502">
        <ele>1342.6199999999999</ele>
        <time>2014-07-13T08:02:19Z</time>
      </trkpt>
      <trkpt lat="46.05019848793745" lon="7.079082001000643">
        <ele>1342.6199999999999</ele>
        <time>2014-07-13T08:02:43Z</time>
      </trkpt>
      <trkpt lat="46.050181221216917" lon="7.079039001837373">
        <ele>1342.6199999999999</ele>
        <time>2014-07-13T08:03:10Z</time>
      </trkpt>
      <trkpt lat="46.050088768824935" lon="7.078997846692801">
        <ele>1342.6199999999999</ele>
        <time>2014-07-13T08:03:41Z</time>
      </trkpt>
      <trkpt lat="46.050173761323094" lon="7.079137153923512">
        <ele>1342.6199999999999</ele>
        <time>2014-07-13T08:04:13Z</time>
      </trkpt>
      <trkpt lat="46.05014375410974" lon="7.079150397330523">
        <ele>1343.0999999999999</ele>
        <time>2014-07-13T08:04:45Z</time>
      </trkpt>
      <trkpt lat="46.050153477117419" lon="7.07912634126842">
        <ele>1343.0999999999999</ele>
        <time>2014-07-13T08:05:22Z</time>
      </trkpt>
      <trkpt lat="46.050146436318755" lon="7.079112008213997">
        <ele>1343.5799999999999</ele>
        <time>2014-07-13T08:05:48Z</time>
      </trkpt>
      <trkpt lat="46.050116512924433" lon="7.079113852232695">
        <ele>1344.54</ele>
        <time>2014-07-13T08:06:13Z</time>
      </trkpt>
      <trkpt lat="46.050108382478356" lon="7.079153079539537">
        <ele>1345.02</ele>
        <time>2014-07-13T08:06:31Z</time>
      </trkpt>
      <trkpt lat="46.050095558166504" lon="7.07914880476892">
        <ele>1345.02</ele>
        <time>2014-07-13T08:06:38Z</time>
      </trkpt>
      <trkpt lat="46.050109472125769" lon="7.078904556110501">
        <ele>1345.5</ele>
        <time>2014-07-13T08:06:53Z</time>
      </trkpt>
      <trkpt lat="46.05015741661191" lon="7.078760974109173">
        <ele>1345.98</ele>
        <time>2014-07-13T08:07:01Z</time>
      </trkpt>
      <trkpt lat="46.050210222601891" lon="7.078587887808681">
        <ele>1346.9400000000001</ele>
        <time>2014-07-13T08:07:14Z</time>
      </trkpt>
      <trkpt lat="46.050328491255641" lon="7.078446233645082">
        <ele>1348.3900000000001</ele>
        <time>2014-07-13T08:07:30Z</time>
      </trkpt>
      <trkpt lat="46.050377022475004" lon="7.078153537586331">
        <ele>1348.8699999999999</ele>
        <time>2014-07-13T08:07:44Z</time>
      </trkpt>
      <trkpt lat="46.050463691353798" lon="7.077955389395356">
        <ele>1349.8299999999999</ele>
        <time>2014-07-13T08:07:59Z</time>
      </trkpt>
      <trkpt lat="46.050519347190857" lon="7.077872157096863">
        <ele>1351.75</ele>
        <time>2014-07-13T08:08:08Z</time>
      </trkpt>
      <trkpt lat="46.050592940300703" lon="7.077684486284852">
        <ele>1352.23</ele>
        <time>2014-07-13T08:08:20Z</time>
      </trkpt>
      <trkpt lat="46.050693523138762" lon="7.077466221526265">
        <ele>1350.79</ele>
        <time>2014-07-13T08:08:35Z</time>
      </trkpt>
      <trkpt lat="46.050796620547771" lon="7.077253237366676">
        <ele>1351.75</ele>
        <time>2014-07-13T08:08:51Z</time>
      </trkpt>
      <trkpt lat="46.050875661894679" lon="7.077109320089221">
        <ele>1352.71</ele>
        <time>2014-07-13T08:09:01Z</time>
      </trkpt>
      <trkpt lat="46.050927881151438" lon="7.076959786936641">
        <ele>1353.6700000000001</ele>
        <time>2014-07-13T08:09:14Z</time>
      </trkpt>
      <trkpt lat="46.05108923278749" lon="7.076810505241156">
        <ele>1354.1500000000001</ele>
        <time>2014-07-13T08:09:31Z</time>
      </trkpt>
      <trkpt lat="46.051269108429551" lon="7.0765146240592">
        <ele>1355.1199999999999</ele>
        <time>2014-07-13T08:09:51Z</time>
      </trkpt>
      <trkpt lat="46.05129886418581" lon="7.076418735086918">
        <ele>1355.1199999999999</ele>
        <time>2014-07-13T08:09:58Z</time>
      </trkpt>
      <trkpt lat="46.051408750936389" lon="7.07622435875237">
        <ele>1356.5599999999999</ele>
        <time>2014-07-13T08:10:15Z</time>
      </trkpt>
      <trkpt lat="46.051494162529707" lon="7.076031407341361">
        <ele>1357.04</ele>
        <time>2014-07-13T08:10:29Z</time>
      </trkpt>
      <trkpt lat="46.05158225633204" lon="7.075816746801138">
        <ele>1358</ele>
        <time>2014-07-13T08:10:44Z</time>
      </trkpt>
      <trkpt lat="46.051612766459584" lon="7.075735274702311">
        <ele>1357.52</ele>
        <time>2014-07-13T08:10:49Z</time>
      </trkpt>
      <trkpt lat="46.051696082577109" lon="7.075605858117342">
        <ele>1358.48</ele>
        <time>2014-07-13T08:10:59Z</time>
      </trkpt>
      <trkpt lat="46.051786607131362" lon="7.075342247262597">
        <ele>1358.96</ele>
        <time>2014-07-13T08:11:16Z</time>
      </trkpt>
      <trkpt lat="46.051886435598135" lon="7.075165389105678">
        <ele>1359.4400000000001</ele>
        <time>2014-07-13T08:11:30Z</time>
      </trkpt>
      <trkpt lat="46.052002273499966" lon="7.074890797957778">
        <ele>1360.4000000000001</ele>
        <time>2014-07-13T08:11:46Z</time>
      </trkpt>
      <trkpt lat="46.052105957642198" lon="7.074663145467639">
        <ele>1360.8800000000001</ele>
        <time>2014-07-13T08:12:01Z</time>
      </trkpt>
      <trkpt lat="46.052137305960059" lon="7.074497854337096">
        <ele>1361.3599999999999</ele>
        <time>2014-07-13T08:12:12Z</time>
      </trkpt>
      <trkpt lat="46.052143843844533" lon="7.074459046125412">
        <ele>1361.8399999999999</ele>
        <time>2014-07-13T08:12:14Z</time>
      </trkpt>
      <trkpt lat="46.0522370506078" lon="7.074197446927428">
        <ele>1362.8099999999999</ele>
        <time>2014-07-13T08:12:29Z</time>
      </trkpt>
      <trkpt lat="46.052333861589432" lon="7.074021929875016">
        <ele>1363.77</ele>
        <time>2014-07-13T08:12:43Z</time>
      </trkpt>
      <trkpt lat="46.052338387817144" lon="7.074006926268339">
        <ele>1363.77</ele>
        <time>2014-07-13T08:12:44Z</time>
      </trkpt>
      <trkpt lat="46.052354397252202" lon="7.073828056454659">
        <ele>1364.25</ele>
        <time>2014-07-13T08:12:58Z</time>
      </trkpt>
      <trkpt lat="46.052345260977745" lon="7.073759157210589">
        <ele>1364.25</ele>
        <time>2014-07-13T08:13:03Z</time>
      </trkpt>
      <trkpt lat="46.05217301286757" lon="7.073427820578218">
        <ele>1365.6900000000001</ele>
        <time>2014-07-13T08:13:25Z</time>
      </trkpt>
      <trkpt lat="46.052133869379759" lon="7.073234701529145">
        <ele>1366.1700000000001</ele>
        <time>2014-07-13T08:13:38Z</time>
      </trkpt>
      <trkpt lat="46.052096402272582" lon="7.072842596098781">
        <ele>1367.1300000000001</ele>
        <time>2014-07-13T08:13:57Z</time>
      </trkpt>
      <trkpt lat="46.052074190229177" lon="7.072577560320497">
        <ele>1367.6099999999999</ele>
        <time>2014-07-13T08:14:14Z</time>
      </trkpt>
      <trkpt lat="46.052017780020833" lon="7.072337921708822">
        <ele>1368.0899999999999</ele>
        <time>2014-07-13T08:14:30Z</time>
      </trkpt>
      <trkpt lat="46.051939325407147" lon="7.072272459045053">
        <ele>1368.5699999999999</ele>
        <time>2014-07-13T08:14:37Z</time>
      </trkpt>
      <trkpt lat="46.051923735067248" lon="7.072236752137542">
        <ele>1368.5699999999999</ele>
        <time>2014-07-13T08:14:40Z</time>
      </trkpt>
      <trkpt lat="46.051784846931696" lon="7.071956712752581">
        <ele>1369.05</ele>
        <time>2014-07-13T08:14:56Z</time>
      </trkpt>
      <trkpt lat="46.051691304892302" lon="7.071786727756262">
        <ele>1370.02</ele>
        <time>2014-07-13T08:15:11Z</time>
      </trkpt>
      <trkpt lat="46.0515480581671" lon="7.071605930104852">
        <ele>1371.46</ele>
        <time>2014-07-13T08:15:28Z</time>
      </trkpt>
      <trkpt lat="46.051399279385805" lon="7.071450864896178">
        <ele>1373.3800000000001</ele>
        <time>2014-07-13T08:15:43Z</time>
      </trkpt>
      <trkpt lat="46.051281681284308" lon="7.071311557665467">
        <ele>1373.8599999999999</ele>
        <time>2014-07-13T08:15:54Z</time>
      </trkpt>
      <trkpt lat="46.051268605515361" lon="7.071307366713882">
        <ele>1373.8599999999999</ele>
        <time>2014-07-13T08:15:55Z</time>
      </trkpt>
      <trkpt lat="46.05115620419383" lon="7.071135034784675">
        <ele>1375.78</ele>
        <time>2014-07-13T08:16:11Z</time>
      </trkpt>
      <trkpt lat="46.051116893067956" lon="7.07106345333159">
        <ele>1375.78</ele>
        <time>2014-07-13T08:16:17Z</time>
      </trkpt>
      <trkpt lat="46.050945315510035" lon="7.07093982025981">
        <ele>1377.71</ele>
        <time>2014-07-13T08:16:36Z</time>
      </trkpt>
      <trkpt lat="46.050810869783163" lon="7.070865724235773">
        <ele>1380.1099999999999</ele>
        <time>2014-07-13T08:16:49Z</time>
      </trkpt>
      <trkpt lat="46.050741383805871" lon="7.070821719244123">
        <ele>1381.0699999999999</ele>
        <time>2014-07-13T08:16:58Z</time>
      </trkpt>
      <trkpt lat="46.050633676350117" lon="7.07070236094296">
        <ele>1378.6700000000001</ele>
        <time>2014-07-13T08:17:12Z</time>
      </trkpt>
      <trkpt lat="46.05061917565763" lon="7.070677801966667">
        <ele>1378.6700000000001</ele>
        <time>2014-07-13T08:17:15Z</time>
      </trkpt>
      <trkpt lat="46.050608530640602" lon="7.070668581873179">
        <ele>1383.96</ele>
        <time>2014-07-13T08:17:16Z</time>
      </trkpt>
      <trkpt lat="46.05059671215713" lon="7.070660116150975">
        <ele>1382.99</ele>
        <time>2014-07-13T08:17:17Z</time>
      </trkpt>
      <trkpt lat="46.050460673868656" lon="7.070449478924274">
        <ele>1384.4400000000001</ele>
        <time>2014-07-13T08:17:37Z</time>
      </trkpt>
      <trkpt lat="46.0502874199301" lon="7.070248983800411">
        <ele>1386.8399999999999</ele>
        <time>2014-07-13T08:17:53Z</time>
      </trkpt>
      <trkpt lat="46.050099078565836" lon="7.070147478953004">
        <ele>1387.8</ele>
        <time>2014-07-13T08:18:09Z</time>
      </trkpt>
      <trkpt lat="46.050081644207239" lon="7.070111101493239">
        <ele>1390.2</ele>
        <time>2014-07-13T08:18:13Z</time>
      </trkpt>
      <trkpt lat="46.050093462690711" lon="7.070089979097247">
        <ele>1388.76</ele>
        <time>2014-07-13T08:18:15Z</time>
      </trkpt>
      <trkpt lat="46.049951389431953" lon="7.069938769564033">
        <ele>1389.24</ele>
        <time>2014-07-13T08:18:31Z</time>
      </trkpt>
      <trkpt lat="46.049824235960841" lon="7.069816309958696">
        <ele>1391.1700000000001</ele>
        <time>2014-07-13T08:18:45Z</time>
      </trkpt>
      <trkpt lat="46.049756677821279" lon="7.069732993841171">
        <ele>1391.1700000000001</ele>
        <time>2014-07-13T08:18:53Z</time>
      </trkpt>
      <trkpt lat="46.0496536642313" lon="7.06956091336906">
        <ele>1393.0899999999999</ele>
        <time>2014-07-13T08:19:07Z</time>
      </trkpt>
      <trkpt lat="46.049535647034645" lon="7.069387910887599">
        <ele>1394.05</ele>
        <time>2014-07-13T08:19:23Z</time>
      </trkpt>
      <trkpt lat="46.049477895721793" lon="7.069293363019824">
        <ele>1394.53</ele>
        <time>2014-07-13T08:19:31Z</time>
      </trkpt>
      <trkpt lat="46.049436405301094" lon="7.069221278652549">
        <ele>1395.97</ele>
        <time>2014-07-13T08:19:37Z</time>
      </trkpt>
      <trkpt lat="46.049368008971214" lon="7.069149278104305">
        <ele>1395.97</ele>
        <time>2014-07-13T08:19:45Z</time>
      </trkpt>
      <trkpt lat="46.04933456517756" lon="7.069110721349716">
        <ele>1396.45</ele>
        <time>2014-07-13T08:19:49Z</time>
      </trkpt>
      <trkpt lat="46.049259463325143" lon="7.068956159055233">
        <ele>1398.8599999999999</ele>
        <time>2014-07-13T08:20:01Z</time>
      </trkpt>
      <trkpt lat="46.049243956804276" lon="7.068945430219173">
        <ele>1397.8900000000001</ele>
        <time>2014-07-13T08:20:03Z</time>
      </trkpt>
      <trkpt lat="46.049145637080073" lon="7.068837303668261">
        <ele>1399.8199999999999</ele>
        <time>2014-07-13T08:20:16Z</time>
      </trkpt>
      <trkpt lat="46.049129962921143" lon="7.068813582882285">
        <ele>1399.8199999999999</ele>
        <time>2014-07-13T08:20:18Z</time>
      </trkpt>
      <trkpt lat="46.049020830541849" lon="7.068648710846901">
        <ele>1401.26</ele>
        <time>2014-07-13T08:20:32Z</time>
      </trkpt>
      <trkpt lat="46.048924019560218" lon="7.068539327010512">
        <ele>1402.7</ele>
        <time>2014-07-13T08:20:45Z</time>
      </trkpt>
      <trkpt lat="46.04880734346807" lon="7.068376885727048">
        <ele>1404.6199999999999</ele>
        <time>2014-07-13T08:21:00Z</time>
      </trkpt>
      <trkpt lat="46.048744982108474" lon="7.068315697833896">
        <ele>1405.0999999999999</ele>
        <time>2014-07-13T08:21:06Z</time>
      </trkpt>
      <trkpt lat="46.048673652112484" lon="7.068256689235568">
        <ele>1406.0699999999999</ele>
        <time>2014-07-13T08:21:14Z</time>
      </trkpt>
      <trkpt lat="46.04866174980998" lon="7.068237327039242">
        <ele>1406.55</ele>
        <time>2014-07-13T08:21:17Z</time>
      </trkpt>
      <trkpt lat="46.048646830022335" lon="7.068217545747757">
        <ele>1406.55</ele>
        <time>2014-07-13T08:21:19Z</time>
      </trkpt>
      <trkpt lat="46.04852931573987" lon="7.068081256002188">
        <ele>1408.47</ele>
        <time>2014-07-13T08:21:34Z</time>
      </trkpt>
      <trkpt lat="46.048446334898472" lon="7.067984025925398">
        <ele>1409.4300000000001</ele>
        <time>2014-07-13T08:21:45Z</time>
      </trkpt>
      <trkpt lat="46.048397468402982" lon="7.067939769476652">
        <ele>1410.3900000000001</ele>
        <time>2014-07-13T08:21:51Z</time>
      </trkpt>
      <trkpt lat="46.048353631049395" lon="7.067873552441597">
        <ele>1410.8699999999999</ele>
        <time>2014-07-13T08:21:57Z</time>
      </trkpt>
      <trkpt lat="46.048284731805325" lon="7.067718487232924">
        <ele>1412.3099999999999</ele>
        <time>2014-07-13T08:22:10Z</time>
      </trkpt>
      <trkpt lat="46.04823318310082" lon="7.06756585277617">
        <ele>1413.28</ele>
        <time>2014-07-13T08:22:24Z</time>
      </trkpt>
      <trkpt lat="46.048134192824364" lon="7.067448841407895">
        <ele>1414.72</ele>
        <time>2014-07-13T08:22:37Z</time>
      </trkpt>
      <trkpt lat="46.048052385449409" lon="7.06735328771174">
        <ele>1415.6800000000001</ele>
        <time>2014-07-13T08:22:47Z</time>
      </trkpt>
      <trkpt lat="46.048017349094152" lon="7.067314563319087">
        <ele>1416.1600000000001</ele>
        <time>2014-07-13T08:22:51Z</time>
      </trkpt>
      <trkpt lat="46.047925986349583" lon="7.067145081236959">
        <ele>1417.5999999999999</ele>
        <time>2014-07-13T08:23:05Z</time>
      </trkpt>
      <trkpt lat="46.047925567254424" lon="7.066979622468352">
        <ele>1419.04</ele>
        <time>2014-07-13T08:23:17Z</time>
      </trkpt>
      <trkpt lat="46.047921543940902" lon="7.066959505900741">
        <ele>1418.5599999999999</ele>
        <time>2014-07-13T08:23:19Z</time>
      </trkpt>
      <trkpt lat="46.047882651910186" lon="7.066861102357507">
        <ele>1420</ele>
        <time>2014-07-13T08:23:25Z</time>
      </trkpt>
      <trkpt lat="46.047762874513865" lon="7.066698661074042">
        <ele>1421.9300000000001</ele>
        <time>2014-07-13T08:23:40Z</time>
      </trkpt>
      <trkpt lat="46.047730268910527" lon="7.066480983048677">
        <ele>1423.8499999999999</ele>
        <time>2014-07-13T08:23:54Z</time>
      </trkpt>
      <trkpt lat="46.047740913927555" lon="7.066275626420975">
        <ele>1424.8099999999999</ele>
        <time>2014-07-13T08:24:08Z</time>
      </trkpt>
      <trkpt lat="46.047679223120213" lon="7.066056439653039">
        <ele>1426.25</ele>
        <time>2014-07-13T08:24:23Z</time>
      </trkpt>
      <trkpt lat="46.047632787376642" lon="7.065968597307801">
        <ele>1426.25</ele>
        <time>2014-07-13T08:24:31Z</time>
      </trkpt>
      <trkpt lat="46.047600852325559" lon="7.065899949520826">
        <ele>1427.21</ele>
        <time>2014-07-13T08:24:36Z</time>
      </trkpt>
      <trkpt lat="46.047498425468802" lon="7.065837336704135">
        <ele>1429.1400000000001</ele>
        <time>2014-07-13T08:24:50Z</time>
      </trkpt>
      <trkpt lat="46.047404464334249" lon="7.065784363076091">
        <ele>1431.54</ele>
        <time>2014-07-13T08:25:04Z</time>
      </trkpt>
      <trkpt lat="46.047296086326241" lon="7.065749242901802">
        <ele>1434.4200000000001</ele>
        <time>2014-07-13T08:25:18Z</time>
      </trkpt>
      <trkpt lat="46.04721243493259" lon="7.065663998946548">
        <ele>1436.8299999999999</ele>
        <time>2014-07-13T08:25:34Z</time>
      </trkpt>
      <trkpt lat="46.047150576487184" lon="7.065592501312494">
        <ele>1438.75</ele>
        <time>2014-07-13T08:25:48Z</time>
      </trkpt>
      <trkpt lat="46.047137333080173" lon="7.065422097221017">
        <ele>1440.6700000000001</ele>
        <time>2014-07-13T08:26:03Z</time>
      </trkpt>
      <trkpt lat="46.0471152048558" lon="7.065364262089133">
        <ele>1442.1099999999999</ele>
        <time>2014-07-13T08:26:16Z</time>
      </trkpt>
      <trkpt lat="46.047071954235435" lon="7.065268121659756">
        <ele>1444.52</ele>
        <time>2014-07-13T08:26:29Z</time>
      </trkpt>
      <trkpt lat="46.047035157680511" lon="7.065175753086805">
        <ele>1445.48</ele>
        <time>2014-07-13T08:26:41Z</time>
      </trkpt>
      <trkpt lat="46.047028284519911" lon="7.065070476382971">
        <ele>1447.8800000000001</ele>
        <time>2014-07-13T08:26:55Z</time>
      </trkpt>
      <trkpt lat="46.04698084294796" lon="7.065087156370282">
        <ele>1449.3199999999999</ele>
        <time>2014-07-13T08:27:10Z</time>
      </trkpt>
      <trkpt lat="46.046952260658145" lon="7.065068883821368">
        <ele>1450.77</ele>
        <time>2014-07-13T08:27:19Z</time>
      </trkpt>
      <trkpt lat="46.04688310995698" lon="7.065033009275794">
        <ele>1453.1700000000001</ele>
        <time>2014-07-13T08:27:29Z</time>
      </trkpt>
      <trkpt lat="46.046831058338284" lon="7.064923038706183">
        <ele>1455.0899999999999</ele>
        <time>2014-07-13T08:27:44Z</time>
      </trkpt>
      <trkpt lat="46.046775989234447" lon="7.064816001802683">
        <ele>1457.98</ele>
        <time>2014-07-13T08:28:00Z</time>
      </trkpt>
      <trkpt lat="46.046717567369342" lon="7.064740061759949">
        <ele>1459.4200000000001</ele>
        <time>2014-07-13T08:28:13Z</time>
      </trkpt>
      <trkpt lat="46.046668197959661" lon="7.064658673480153">
        <ele>1460.8599999999999</ele>
        <time>2014-07-13T08:28:27Z</time>
      </trkpt>
      <trkpt lat="46.046627713367343" lon="7.064584912732244">
        <ele>1462.78</ele>
        <time>2014-07-13T08:28:38Z</time>
      </trkpt>
      <trkpt lat="46.046588066965342" lon="7.064481815323234">
        <ele>1464.23</ele>
        <time>2014-07-13T08:28:52Z</time>
      </trkpt>
      <trkpt lat="46.04655135422945" lon="7.064393386244774">
        <ele>1466.6300000000001</ele>
        <time>2014-07-13T08:29:04Z</time>
      </trkpt>
      <trkpt lat="46.046508103609085" lon="7.064284421503544">
        <ele>1468.55</ele>
        <time>2014-07-13T08:29:19Z</time>
      </trkpt>
      <trkpt lat="46.046478096395731" lon="7.064188364893198">
        <ele>1470.95</ele>
        <time>2014-07-13T08:29:35Z</time>
      </trkpt>
      <trkpt lat="46.046411795541644" lon="7.064094906672835">
        <ele>1473.8399999999999</ele>
        <time>2014-07-13T08:29:51Z</time>
      </trkpt>
      <trkpt lat="46.046367790549994" lon="7.063985019922257">
        <ele>1477.2</ele>
        <time>2014-07-13T08:30:09Z</time>
      </trkpt>
      <trkpt lat="46.04632118716836" lon="7.063913689926267">
        <ele>1480.0899999999999</ele>
        <time>2014-07-13T08:30:19Z</time>
      </trkpt>
      <trkpt lat="46.046262178570032" lon="7.063755942508578">
        <ele>1482.49</ele>
        <time>2014-07-13T08:30:34Z</time>
      </trkpt>
      <trkpt lat="46.046207277104259" lon="7.063645720481873">
        <ele>1485.3699999999999</ele>
        <time>2014-07-13T08:30:49Z</time>
      </trkpt>
      <trkpt lat="46.046164948493242" lon="7.063426617532969">
        <ele>1487.78</ele>
        <time>2014-07-13T08:31:09Z</time>
      </trkpt>
      <trkpt lat="46.046154135838151" lon="7.063189493492246">
        <ele>1489.7</ele>
        <time>2014-07-13T08:31:26Z</time>
      </trkpt>
      <trkpt lat="46.046097306534648" lon="7.063058232888579">
        <ele>1490.6600000000001</ele>
        <time>2014-07-13T08:31:40Z</time>
      </trkpt>
      <trkpt lat="46.046048942953348" lon="7.062961589545012">
        <ele>1493.0599999999999</ele>
        <time>2014-07-13T08:31:55Z</time>
      </trkpt>
      <trkpt lat="46.046018935739994" lon="7.062774002552033">
        <ele>1495.47</ele>
        <time>2014-07-13T08:32:13Z</time>
      </trkpt>
      <trkpt lat="46.045978786423802" lon="7.062673168256879">
        <ele>1496.4300000000001</ele>
        <time>2014-07-13T08:32:26Z</time>
      </trkpt>
      <trkpt lat="46.045910054817796" lon="7.062422465533018">
        <ele>1499.3099999999999</ele>
        <time>2014-07-13T08:32:41Z</time>
      </trkpt>
      <trkpt lat="46.045850962400436" lon="7.06231408752501">
        <ele>1502.6800000000001</ele>
        <time>2014-07-13T08:32:57Z</time>
      </trkpt>
      <trkpt lat="46.045757587999105" lon="7.062260610982776">
        <ele>1504.5999999999999</ele>
        <time>2014-07-13T08:33:10Z</time>
      </trkpt>
      <trkpt lat="46.045600259676576" lon="7.06217972561717">
        <ele>1507.48</ele>
        <time>2014-07-13T08:33:26Z</time>
      </trkpt>
      <trkpt lat="46.045467490330338" lon="7.062104875221849">
        <ele>1510.3699999999999</ele>
        <time>2014-07-13T08:33:44Z</time>
      </trkpt>
      <trkpt lat="46.045415354892612" lon="7.061990713700652">
        <ele>1513.73</ele>
        <time>2014-07-13T08:34:02Z</time>
      </trkpt>
      <trkpt lat="46.045339917764068" lon="7.061873283237219">
        <ele>1517.0999999999999</ele>
        <time>2014-07-13T08:34:21Z</time>
      </trkpt>
      <trkpt lat="46.045256769284606" lon="7.061632052063942">
        <ele>1520.46</ele>
        <time>2014-07-13T08:34:45Z</time>
      </trkpt>
      <trkpt lat="46.045245537534356" lon="7.061573546379805">
        <ele>1521.9000000000001</ele>
        <time>2014-07-13T08:34:53Z</time>
      </trkpt>
      <trkpt lat="46.045169848948717" lon="7.061369279399514">
        <ele>1524.79</ele>
        <time>2014-07-13T08:35:15Z</time>
      </trkpt>
      <trkpt lat="46.045139841735363" lon="7.061154032126069">
        <ele>1526.23</ele>
        <time>2014-07-13T08:35:33Z</time>
      </trkpt>
      <trkpt lat="46.045041270554066" lon="7.061118828132749">
        <ele>1529.1099999999999</ele>
        <time>2014-07-13T08:35:49Z</time>
      </trkpt>
      <trkpt lat="46.044957367703319" lon="7.061027465388179">
        <ele>1532.48</ele>
        <time>2014-07-13T08:36:05Z</time>
      </trkpt>
      <trkpt lat="46.044830298051238" lon="7.060993853956461">
        <ele>1535.3599999999999</ele>
        <time>2014-07-13T08:36:20Z</time>
      </trkpt>
      <trkpt lat="46.044746898114681" lon="7.060906682163477">
        <ele>1538.25</ele>
        <time>2014-07-13T08:36:36Z</time>
      </trkpt>
      <trkpt lat="46.044630724936724" lon="7.060900898650289">
        <ele>1541.1300000000001</ele>
        <time>2014-07-13T08:36:53Z</time>
      </trkpt>
      <trkpt lat="46.044575991109014" lon="7.060836106538773">
        <ele>1544.01</ele>
        <time>2014-07-13T08:37:10Z</time>
      </trkpt>
      <trkpt lat="46.044503152370453" lon="7.060775840654969">
        <ele>1547.3800000000001</ele>
        <time>2014-07-13T08:37:26Z</time>
      </trkpt>
      <trkpt lat="46.044470714405179" lon="7.060791850090027">
        <ele>1550.26</ele>
        <time>2014-07-13T08:37:41Z</time>
      </trkpt>
      <trkpt lat="46.044409610331059" lon="7.060894193127751">
        <ele>1553.1500000000001</ele>
        <time>2014-07-13T08:37:57Z</time>
      </trkpt>
      <trkpt lat="46.044332161545753" lon="7.060980191454291">
        <ele>1556.51</ele>
        <time>2014-07-13T08:38:14Z</time>
      </trkpt>
      <trkpt lat="46.044230489060283" lon="7.060900228098035">
        <ele>1559.8800000000001</ele>
        <time>2014-07-13T08:38:31Z</time>
      </trkpt>
      <trkpt lat="46.044169720262289" lon="7.060851193964481">
        <ele>1563.24</ele>
        <time>2014-07-13T08:38:47Z</time>
      </trkpt>
      <trkpt lat="46.044099563732743" lon="7.060795538127422">
        <ele>1565.6400000000001</ele>
        <time>2014-07-13T08:39:01Z</time>
      </trkpt>
      <trkpt lat="46.044045332819223" lon="7.060597138479352">
        <ele>1568.05</ele>
        <time>2014-07-13T08:39:18Z</time>
      </trkpt>
      <trkpt lat="46.043994119390845" lon="7.060489095747471">
        <ele>1570.9300000000001</ele>
        <time>2014-07-13T08:39:33Z</time>
      </trkpt>
      <trkpt lat="46.043968889862299" lon="7.06033612601459">
        <ele>1572.3699999999999</ele>
        <time>2014-07-13T08:39:47Z</time>
      </trkpt>
      <trkpt lat="46.04387660510838" lon="7.060221964493394">
        <ele>1575.26</ele>
        <time>2014-07-13T08:40:05Z</time>
      </trkpt>
      <trkpt lat="46.043829917907715" lon="7.060100929811597">
        <ele>1577.1800000000001</ele>
        <time>2014-07-13T08:40:20Z</time>
      </trkpt>
      <trkpt lat="46.043886160477996" lon="7.059982661157847">
        <ele>1577.1800000000001</ele>
        <time>2014-07-13T08:40:32Z</time>
      </trkpt>
      <trkpt lat="46.043964698910713" lon="7.059885347262025">
        <ele>1578.6199999999999</ele>
        <time>2014-07-13T08:40:46Z</time>
      </trkpt>
      <trkpt lat="46.044019013643265" lon="7.059786524623632">
        <ele>1581.51</ele>
        <time>2014-07-13T08:40:58Z</time>
      </trkpt>
      <trkpt lat="46.04405740275979" lon="7.059672698378563">
        <ele>1583.4300000000001</ele>
        <time>2014-07-13T08:41:11Z</time>
      </trkpt>
      <trkpt lat="46.04401633143425" lon="7.059605559334159">
        <ele>1586.3099999999999</ele>
        <time>2014-07-13T08:41:24Z</time>
      </trkpt>
      <trkpt lat="46.043940978124738" lon="7.059644786641002">
        <ele>1588.24</ele>
        <time>2014-07-13T08:41:36Z</time>
      </trkpt>
      <trkpt lat="46.043872917070985" lon="7.059560883790255">
        <ele>1590.6400000000001</ele>
        <time>2014-07-13T08:41:51Z</time>
      </trkpt>
      <trkpt lat="46.043870067223907" lon="7.059526015073061">
        <ele>1592.0799999999999</ele>
        <time>2014-07-13T08:41:58Z</time>
      </trkpt>
      <trkpt lat="46.043939972296357" lon="7.059421828016639">
        <ele>1594.48</ele>
        <time>2014-07-13T08:42:13Z</time>
      </trkpt>
      <trkpt lat="46.043950533494353" lon="7.05941746942699">
        <ele>1594</ele>
        <time>2014-07-13T08:42:14Z</time>
      </trkpt>
      <trkpt lat="46.044018594548106" lon="7.059295093640685">
        <ele>1594.96</ele>
        <time>2014-07-13T08:42:28Z</time>
      </trkpt>
      <trkpt lat="46.044026808813214" lon="7.059278329834342">
        <ele>1595.45</ele>
        <time>2014-07-13T08:42:30Z</time>
      </trkpt>
      <trkpt lat="46.044026222079992" lon="7.059178249910474">
        <ele>1598.8099999999999</ele>
        <time>2014-07-13T08:42:45Z</time>
      </trkpt>
      <trkpt lat="46.0440759267658" lon="7.059053024277091">
        <ele>1601.6900000000001</ele>
        <time>2014-07-13T08:43:02Z</time>
      </trkpt>
      <trkpt lat="46.044151447713375" lon="7.058929894119501">
        <ele>1604.0999999999999</ele>
        <time>2014-07-13T08:43:18Z</time>
      </trkpt>
      <trkpt lat="46.044207941740751" lon="7.058871304616332">
        <ele>1606.02</ele>
        <time>2014-07-13T08:43:32Z</time>
      </trkpt>
      <trkpt lat="46.044243229553103" lon="7.058786395937204">
        <ele>1607.9400000000001</ele>
        <time>2014-07-13T08:43:46Z</time>
      </trkpt>
      <trkpt lat="46.044308859854937" lon="7.058697463944554">
        <ele>1608.9000000000001</ele>
        <time>2014-07-13T08:43:58Z</time>
      </trkpt>
      <trkpt lat="46.044317660853267" lon="7.058597719296813">
        <ele>1610.8299999999999</ele>
        <time>2014-07-13T08:44:12Z</time>
      </trkpt>
      <trkpt lat="46.044347165152431" lon="7.058520019054413">
        <ele>1613.23</ele>
        <time>2014-07-13T08:44:26Z</time>
      </trkpt>
      <trkpt lat="46.044419920071959" lon="7.058401079848409">
        <ele>1615.6300000000001</ele>
        <time>2014-07-13T08:44:42Z</time>
      </trkpt>
      <trkpt lat="46.044468032196164" lon="7.05830343067646">
        <ele>1617.0699999999999</ele>
        <time>2014-07-13T08:44:57Z</time>
      </trkpt>
      <trkpt lat="46.044469038024545" lon="7.058185413479805">
        <ele>1619.96</ele>
        <time>2014-07-13T08:45:11Z</time>
      </trkpt>
      <trkpt lat="46.044400641694665" lon="7.05810846760869">
        <ele>1622.3599999999999</ele>
        <time>2014-07-13T08:45:27Z</time>
      </trkpt>
      <trkpt lat="46.044289413839579" lon="7.058152975514531">
        <ele>1625.25</ele>
        <time>2014-07-13T08:45:44Z</time>
      </trkpt>
      <trkpt lat="46.044235182926059" lon="7.058032611384988">
        <ele>1626.6900000000001</ele>
        <time>2014-07-13T08:45:58Z</time>
      </trkpt>
      <trkpt lat="46.044200314208865" lon="7.057918952777982">
        <ele>1628.6099999999999</ele>
        <time>2014-07-13T08:46:10Z</time>
      </trkpt>
      <trkpt lat="46.044190172106028" lon="7.057781908661127">
        <ele>1629.5699999999999</ele>
        <time>2014-07-13T08:46:23Z</time>
      </trkpt>
      <trkpt lat="46.044200481846929" lon="7.057629022747278">
        <ele>1630.05</ele>
        <time>2014-07-13T08:46:36Z</time>
      </trkpt>
      <trkpt lat="46.044224789366126" lon="7.057510418817401">
        <ele>1631.49</ele>
        <time>2014-07-13T08:46:50Z</time>
      </trkpt>
      <trkpt lat="46.044216910377145" lon="7.057465827092528">
        <ele>1631.49</ele>
        <time>2014-07-13T08:47:10Z</time>
      </trkpt>
      <trkpt lat="46.044218502938747" lon="7.057459792122245">
        <ele>1631.98</ele>
        <time>2014-07-13T08:47:27Z</time>
      </trkpt>
      <trkpt lat="46.044228477403522" lon="7.057419223710895">
        <ele>1631.49</ele>
        <time>2014-07-13T08:47:46Z</time>
      </trkpt>
      <trkpt lat="46.044211378321052" lon="7.057401034981012">
        <ele>1631.98</ele>
        <time>2014-07-13T08:48:16Z</time>
      </trkpt>
      <trkpt lat="46.044219676405191" lon="7.057437663897872">
        <ele>1631.98</ele>
        <time>2014-07-13T08:48:42Z</time>
      </trkpt>
      <trkpt lat="46.044228142127395" lon="7.057485524564982">
        <ele>1631.98</ele>
        <time>2014-07-13T08:49:04Z</time>
      </trkpt>
      <trkpt lat="46.044222023338079" lon="7.057464402168989">
        <ele>1632.46</ele>
        <time>2014-07-13T08:49:24Z</time>
      </trkpt>
      <trkpt lat="46.044205678626895" lon="7.057445207610726">
        <ele>1632.46</ele>
        <time>2014-07-13T08:49:48Z</time>
      </trkpt>
      <trkpt lat="46.044201906770468" lon="7.057458786293864">
        <ele>1631.98</ele>
        <time>2014-07-13T08:50:12Z</time>
      </trkpt>
      <trkpt lat="46.044196709990501" lon="7.057444788515568">
        <ele>1632.46</ele>
        <time>2014-07-13T08:50:37Z</time>
      </trkpt>
      <trkpt lat="46.04422009550035" lon="7.057367423549295">
        <ele>1632.46</ele>
        <time>2014-07-13T08:50:57Z</time>
      </trkpt>
      <trkpt lat="46.044247504323721" lon="7.057392066344619">
        <ele>1632.46</ele>
        <time>2014-07-13T08:51:12Z</time>
      </trkpt>
      <trkpt lat="46.044240966439247" lon="7.057433389127255">
        <ele>1632.46</ele>
        <time>2014-07-13T08:51:33Z</time>
      </trkpt>
      <trkpt lat="46.04422939941287" lon="7.057445459067822">
        <ele>1633.4200000000001</ele>
        <time>2014-07-13T08:52:00Z</time>
      </trkpt>
      <trkpt lat="46.044214060530066" lon="7.057414865121245">
        <ele>1632.9400000000001</ele>
        <time>2014-07-13T08:52:25Z</time>
      </trkpt>
      <trkpt lat="46.044235518202186" lon="7.057334231212735">
        <ele>1633.4200000000001</ele>
        <time>2014-07-13T08:52:44Z</time>
      </trkpt>
      <trkpt lat="46.044233590364456" lon="7.057336075231433">
        <ele>1633.9000000000001</ele>
        <time>2014-07-13T08:53:15Z</time>
      </trkpt>
      <trkpt lat="46.044226214289665" lon="7.057348396629095">
        <ele>1633.4200000000001</ele>
        <time>2014-07-13T08:53:30Z</time>
      </trkpt>
      <trkpt lat="46.044204672798514" lon="7.057336997240782">
        <ele>1634.3800000000001</ele>
        <time>2014-07-13T08:53:56Z</time>
      </trkpt>
      <trkpt lat="46.04420006275177" lon="7.057327441871166">
        <ele>1634.8599999999999</ele>
        <time>2014-07-13T08:54:23Z</time>
      </trkpt>
      <trkpt lat="46.044215904548764" lon="7.057340433821082">
        <ele>1635.3399999999999</ele>
        <time>2014-07-13T08:54:40Z</time>
      </trkpt>
      <trkpt lat="46.044161589816213" lon="7.057316629216075">
        <ele>1636.3</ele>
        <time>2014-07-13T08:54:54Z</time>
      </trkpt>
      <trkpt lat="46.044143233448267" lon="7.057297267019749">
        <ele>1637.26</ele>
        <time>2014-07-13T08:55:06Z</time>
      </trkpt>
      <trkpt lat="46.044153543189168" lon="7.057295171543956">
        <ele>1637.26</ele>
        <time>2014-07-13T08:55:23Z</time>
      </trkpt>
      <trkpt lat="46.044154297560453" lon="7.057264158502221">
        <ele>1636.78</ele>
        <time>2014-07-13T08:55:34Z</time>
      </trkpt>
      <trkpt lat="46.044154297560453" lon="7.057318640872836">
        <ele>1637.26</ele>
        <time>2014-07-13T08:55:46Z</time>
      </trkpt>
      <trkpt lat="46.04416343383491" lon="7.057340769097209">
        <ele>1637.26</ele>
        <time>2014-07-13T08:56:11Z</time>
      </trkpt>
      <trkpt lat="46.044198805466294" lon="7.057190984487534">
        <ele>1637.74</ele>
        <time>2014-07-13T08:56:24Z</time>
      </trkpt>
      <trkpt lat="46.044180113822222" lon="7.057154607027769">
        <ele>1638.22</ele>
        <time>2014-07-13T08:56:34Z</time>
      </trkpt>
      <trkpt lat="46.044210204854608" lon="7.057095933705568">
        <ele>1638.7</ele>
        <time>2014-07-13T08:56:46Z</time>
      </trkpt>
      <trkpt lat="46.044215401634574" lon="7.057028710842133">
        <ele>1639.1900000000001</ele>
        <time>2014-07-13T08:57:02Z</time>
      </trkpt>
      <trkpt lat="46.044242726638913" lon="7.057039523497224">
        <ele>1638.7</ele>
        <time>2014-07-13T08:57:17Z</time>
      </trkpt>
      <trkpt lat="46.044249935075641" lon="7.057163994759321">
        <ele>1637.74</ele>
        <time>2014-07-13T08:57:32Z</time>
      </trkpt>
      <trkpt lat="46.044250605627894" lon="7.05720984376967">
        <ele>1637.74</ele>
        <time>2014-07-13T08:57:49Z</time>
      </trkpt>
      <trkpt lat="46.044273488223553" lon="7.057269439101219">
        <ele>1636.3</ele>
        <time>2014-07-13T08:58:06Z</time>
      </trkpt>
      <trkpt lat="46.044318247586489" lon="7.057212442159653">
        <ele>1637.26</ele>
        <time>2014-07-13T08:58:32Z</time>
      </trkpt>
      <trkpt lat="46.044295616447926" lon="7.05723968334496">
        <ele>1636.3</ele>
        <time>2014-07-13T08:58:56Z</time>
      </trkpt>
      <trkpt lat="46.044282037764788" lon="7.057280922308564">
        <ele>1634.8599999999999</ele>
        <time>2014-07-13T08:59:19Z</time>
      </trkpt>
      <trkpt lat="46.044467948377132" lon="7.057189391925931">
        <ele>1633.4200000000001</ele>
        <time>2014-07-13T08:59:44Z</time>
      </trkpt>
      <trkpt lat="46.044542966410518" lon="7.057123593986034">
        <ele>1633.4200000000001</ele>
        <time>2014-07-13T09:00:05Z</time>
      </trkpt>
      <trkpt lat="46.044512372463942" lon="7.057189308106899">
        <ele>1633.4200000000001</ele>
        <time>2014-07-13T09:00:25Z</time>
      </trkpt>
      <trkpt lat="46.044526789337397" lon="7.057176483795047">
        <ele>1632.9400000000001</ele>
        <time>2014-07-13T09:00:46Z</time>
      </trkpt>
      <trkpt lat="46.044517233967781" lon="7.057147147133946">
        <ele>1633.9000000000001</ele>
        <time>2014-07-13T09:01:16Z</time>
      </trkpt>
      <trkpt lat="46.044438192620873" lon="7.05721965059638">
        <ele>1634.3800000000001</ele>
        <time>2014-07-13T09:01:28Z</time>
      </trkpt>
      <trkpt lat="46.044372227042913" lon="7.057289807125926">
        <ele>1634.8599999999999</ele>
        <time>2014-07-13T09:01:41Z</time>
      </trkpt>
      <trkpt lat="46.044259574264288" lon="7.05731151625514">
        <ele>1635.3399999999999</ele>
        <time>2014-07-13T09:01:56Z</time>
      </trkpt>
      <trkpt lat="46.044293520972133" lon="7.057309085503221">
        <ele>1635.3399999999999</ele>
        <time>2014-07-13T09:02:18Z</time>
      </trkpt>
      <trkpt lat="46.044281283393502" lon="7.057287711650133">
        <ele>1636.78</ele>
        <time>2014-07-13T09:02:34Z</time>
      </trkpt>
      <trkpt lat="46.044275416061282" lon="7.057300116866827">
        <ele>1635.3399999999999</ele>
        <time>2014-07-13T09:02:42Z</time>
      </trkpt>
      <trkpt lat="46.044281534850597" lon="7.05730221234262">
        <ele>1636.3</ele>
        <time>2014-07-13T09:03:03Z</time>
      </trkpt>
      <trkpt lat="46.044263429939747" lon="7.057341355830431">
        <ele>1635.8199999999999</ele>
        <time>2014-07-13T09:03:21Z</time>
      </trkpt>
      <trkpt lat="46.044214395806193" lon="7.057335488498211">
        <ele>1637.26</ele>
        <time>2014-07-13T09:03:35Z</time>
      </trkpt>
      <trkpt lat="46.044214060530066" lon="7.057215794920921">
        <ele>1637.26</ele>
        <time>2014-07-13T09:03:51Z</time>
      </trkpt>
      <trkpt lat="46.044230572879314" lon="7.057093000039458">
        <ele>1638.7</ele>
        <time>2014-07-13T09:04:03Z</time>
      </trkpt>
      <trkpt lat="46.044194111600518" lon="7.056987220421433">
        <ele>1640.1500000000001</ele>
        <time>2014-07-13T09:04:18Z</time>
      </trkpt>
      <trkpt lat="46.044129654765129" lon="7.056932486593723">
        <ele>1638.7</ele>
        <time>2014-07-13T09:04:33Z</time>
      </trkpt>
      <trkpt lat="46.044063689187169" lon="7.056855037808418">
        <ele>1636.3</ele>
        <time>2014-07-13T09:04:46Z</time>
      </trkpt>
      <trkpt lat="46.044010380282998" lon="7.056776667013764">
        <ele>1635.8199999999999</ele>
        <time>2014-07-13T09:04:58Z</time>
      </trkpt>
      <trkpt lat="46.044057067483664" lon="7.056710617616773">
        <ele>1636.3</ele>
        <time>2014-07-13T09:05:06Z</time>
      </trkpt>
      <trkpt lat="46.044162763282657" lon="7.056616740301251">
        <ele>1639.6700000000001</ele>
        <time>2014-07-13T09:05:22Z</time>
      </trkpt>
      <trkpt lat="46.04424549266696" lon="7.056501656770706">
        <ele>1640.6300000000001</ele>
        <time>2014-07-13T09:05:37Z</time>
      </trkpt>
      <trkpt lat="46.044286396354437" lon="7.05637332983315">
        <ele>1642.55</ele>
        <time>2014-07-13T09:05:54Z</time>
      </trkpt>
      <trkpt lat="46.044298969209194" lon="7.056261599063873">
        <ele>1641.1099999999999</ele>
        <time>2014-07-13T09:06:06Z</time>
      </trkpt>
      <trkpt lat="46.044336101040244" lon="7.056171828880906">
        <ele>1640.6300000000001</ele>
        <time>2014-07-13T09:06:19Z</time>
      </trkpt>
      <trkpt lat="46.044336436316371" lon="7.056080969050527">
        <ele>1639.6700000000001</ele>
        <time>2014-07-13T09:06:34Z</time>
      </trkpt>
      <trkpt lat="46.044340627267957" lon="7.056088345125318">
        <ele>1639.6700000000001</ele>
        <time>2014-07-13T09:06:35Z</time>
      </trkpt>
      <trkpt lat="46.044322187080979" lon="7.056043250486255">
        <ele>1639.1900000000001</ele>
        <time>2014-07-13T09:06:49Z</time>
      </trkpt>
      <trkpt lat="46.044338531792164" lon="7.055979883298278">
        <ele>1639.1900000000001</ele>
        <time>2014-07-13T09:06:59Z</time>
      </trkpt>
      <trkpt lat="46.044361498206854" lon="7.055842503905296">
        <ele>1642.0699999999999</ele>
        <time>2014-07-13T09:07:12Z</time>
      </trkpt>
      <trkpt lat="46.044362839311361" lon="7.055832277983427">
        <ele>1641.1099999999999</ele>
        <time>2014-07-13T09:07:13Z</time>
      </trkpt>
      <trkpt lat="46.044365353882313" lon="7.055818531662226">
        <ele>1640.6300000000001</ele>
        <time>2014-07-13T09:07:15Z</time>
      </trkpt>
      <trkpt lat="46.044365270063281" lon="7.055740747600794">
        <ele>1642.0699999999999</ele>
        <time>2014-07-13T09:07:34Z</time>
      </trkpt>
      <trkpt lat="46.04437256231904" lon="7.055646367371082">
        <ele>1643.51</ele>
        <time>2014-07-13T09:07:50Z</time>
      </trkpt>
      <trkpt lat="46.044355714693666" lon="7.055552070960403">
        <ele>1645.9100000000001</ele>
        <time>2014-07-13T09:08:05Z</time>
      </trkpt>
      <trkpt lat="46.04430953040719" lon="7.055490044876933">
        <ele>1647.8399999999999</ele>
        <time>2014-07-13T09:08:18Z</time>
      </trkpt>
      <trkpt lat="46.044309446588159" lon="7.055382588878274">
        <ele>1649.28</ele>
        <time>2014-07-13T09:08:30Z</time>
      </trkpt>
      <trkpt lat="46.044302154332399" lon="7.055377475917339">
        <ele>1648.8</ele>
        <time>2014-07-13T09:08:31Z</time>
      </trkpt>
      <trkpt lat="46.044313553720713" lon="7.055323161184788">
        <ele>1650.72</ele>
        <time>2014-07-13T09:08:45Z</time>
      </trkpt>
      <trkpt lat="46.044305674731731" lon="7.055247640237212">
        <ele>1653.5999999999999</ele>
        <time>2014-07-13T09:08:59Z</time>
      </trkpt>
      <trkpt lat="46.044317996129394" lon="7.05521184951067">
        <ele>1655.05</ele>
        <time>2014-07-13T09:09:11Z</time>
      </trkpt>
      <trkpt lat="46.044356552883983" lon="7.055156026035547">
        <ele>1656.49</ele>
        <time>2014-07-13T09:09:23Z</time>
      </trkpt>
      <trkpt lat="46.044353870674968" lon="7.055086707696319">
        <ele>1658.4100000000001</ele>
        <time>2014-07-13T09:09:38Z</time>
      </trkpt>
      <trkpt lat="46.044378345832229" lon="7.055047312751412">
        <ele>1659.3699999999999</ele>
        <time>2014-07-13T09:09:53Z</time>
      </trkpt>
      <trkpt lat="46.044391505420208" lon="7.055082684382796">
        <ele>1656.01</ele>
        <time>2014-07-13T09:10:01Z</time>
      </trkpt>
      <trkpt lat="46.044392175972462" lon="7.055087964981794">
        <ele>1662.26</ele>
        <time>2014-07-13T09:10:02Z</time>
      </trkpt>
      <trkpt lat="46.044390080496669" lon="7.055090060457587">
        <ele>1659.3699999999999</ele>
        <time>2014-07-13T09:10:03Z</time>
      </trkpt>
      <trkpt lat="46.044372478500009" lon="7.055063154548407">
        <ele>1657.9300000000001</ele>
        <time>2014-07-13T09:10:18Z</time>
      </trkpt>
      <trkpt lat="46.044410029426217" lon="7.054911442101002">
        <ele>1658.4100000000001</ele>
        <time>2014-07-13T09:10:31Z</time>
      </trkpt>
      <trkpt lat="46.044406341388822" lon="7.054812954738736">
        <ele>1659.8499999999999</ele>
        <time>2014-07-13T09:10:44Z</time>
      </trkpt>
      <trkpt lat="46.044445987790823" lon="7.054761489853263">
        <ele>1658.8900000000001</ele>
        <time>2014-07-13T09:10:59Z</time>
      </trkpt>
      <trkpt lat="46.044501475989819" lon="7.054786887019873">
        <ele>1657.9300000000001</ele>
        <time>2014-07-13T09:11:18Z</time>
      </trkpt>
      <trkpt lat="46.044526873156428" lon="7.054801303893328">
        <ele>1657.9300000000001</ele>
        <time>2014-07-13T09:11:37Z</time>
      </trkpt>
      <trkpt lat="46.044595772400498" lon="7.054725615307689">
        <ele>1657.9300000000001</ele>
        <time>2014-07-13T09:12:07Z</time>
      </trkpt>
      <trkpt lat="46.044610776007175" lon="7.054763836786151">
        <ele>1659.3699999999999</ele>
        <time>2014-07-13T09:12:26Z</time>
      </trkpt>
      <trkpt lat="46.044627204537392" lon="7.05473399721086">
        <ele>1658.8900000000001</ele>
        <time>2014-07-13T09:12:48Z</time>
      </trkpt>
      <trkpt lat="46.044609015807509" lon="7.054784372448921">
        <ele>1659.3699999999999</ele>
        <time>2014-07-13T09:13:09Z</time>
      </trkpt>
      <trkpt lat="46.044686967507005" lon="7.054708935320377">
        <ele>1660.8099999999999</ele>
        <time>2014-07-13T09:13:21Z</time>
      </trkpt>
      <trkpt lat="46.044718064367771" lon="7.054759562015533">
        <ele>1661.3</ele>
        <time>2014-07-13T09:13:27Z</time>
      </trkpt>
      <trkpt lat="46.04477321729064" lon="7.054849583655596">
        <ele>1662.74</ele>
        <time>2014-07-13T09:13:42Z</time>
      </trkpt>
      <trkpt lat="46.044843876734376" lon="7.054763166233897">
        <ele>1665.6199999999999</ele>
        <time>2014-07-13T09:13:56Z</time>
      </trkpt>
      <trkpt lat="46.04489928111434" lon="7.054826114326716">
        <ele>1666.5799999999999</ele>
        <time>2014-07-13T09:14:11Z</time>
      </trkpt>
      <trkpt lat="46.04491445235908" lon="7.054797699674964">
        <ele>1666.5799999999999</ele>
        <time>2014-07-13T09:14:25Z</time>
      </trkpt>
      <trkpt lat="46.044931802898645" lon="7.054788311943412">
        <ele>1667.0599999999999</ele>
        <time>2014-07-13T09:14:27Z</time>
      </trkpt>
      <trkpt lat="46.045015538111329" lon="7.054832149296999">
        <ele>1668.02</ele>
        <time>2014-07-13T09:14:40Z</time>
      </trkpt>
      <trkpt lat="46.04506591334939" lon="7.054804489016533">
        <ele>1670.4300000000001</ele>
        <time>2014-07-13T09:14:54Z</time>
      </trkpt>
      <trkpt lat="46.045145792886615" lon="7.054743887856603">
        <ele>1673.3099999999999</ele>
        <time>2014-07-13T09:15:11Z</time>
      </trkpt>
      <trkpt lat="46.045193234458566" lon="7.054749755188823">
        <ele>1676.2</ele>
        <time>2014-07-13T09:15:27Z</time>
      </trkpt>
      <trkpt lat="46.04518610984087" lon="7.054768027737737">
        <ele>1678.1199999999999</ele>
        <time>2014-07-13T09:15:42Z</time>
      </trkpt>
      <trkpt lat="46.045159874483943" lon="7.054791748523712">
        <ele>1680.04</ele>
        <time>2014-07-13T09:15:59Z</time>
      </trkpt>
      <trkpt lat="46.045161634683609" lon="7.054698374122381">
        <ele>1683.4100000000001</ele>
        <time>2014-07-13T09:16:15Z</time>
      </trkpt>
      <trkpt lat="46.045119725167751" lon="7.054662583395839">
        <ele>1684.3699999999999</ele>
        <time>2014-07-13T09:16:30Z</time>
      </trkpt>
      <trkpt lat="46.045101620256901" lon="7.054625954478979">
        <ele>1686.29</ele>
        <time>2014-07-13T09:16:43Z</time>
      </trkpt>
      <trkpt lat="46.045095669105649" lon="7.054530065506697">
        <ele>1689.1700000000001</ele>
        <time>2014-07-13T09:16:59Z</time>
      </trkpt>
      <trkpt lat="46.045096088200808" lon="7.054423950612545">
        <ele>1692.0599999999999</ele>
        <time>2014-07-13T09:17:16Z</time>
      </trkpt>
      <trkpt lat="46.045057447627187" lon="7.054342143237591">
        <ele>1694.9400000000001</ele>
        <time>2014-07-13T09:17:32Z</time>
      </trkpt>
      <trkpt lat="46.045110337436199" lon="7.054344741627574">
        <ele>1695.9000000000001</ele>
        <time>2014-07-13T09:17:50Z</time>
      </trkpt>
      <trkpt lat="46.045165406540036" lon="7.054215325042605">
        <ele>1697.3399999999999</ele>
        <time>2014-07-13T09:18:15Z</time>
      </trkpt>
      <trkpt lat="46.045164233073592" lon="7.054164027795196">
        <ele>1700.71</ele>
        <time>2014-07-13T09:18:30Z</time>
      </trkpt>
      <trkpt lat="46.045151744037867" lon="7.054116167128086">
        <ele>1703.1099999999999</ele>
        <time>2014-07-13T09:18:45Z</time>
      </trkpt>
      <trkpt lat="46.045113354921341" lon="7.054070485755801">
        <ele>1706</ele>
        <time>2014-07-13T09:19:06Z</time>
      </trkpt>
      <trkpt lat="46.04511528275907" lon="7.054031509906054">
        <ele>1708.8800000000001</ele>
        <time>2014-07-13T09:19:25Z</time>
      </trkpt>
      <trkpt lat="46.045051161199808" lon="7.053886419162154">
        <ele>1710.8</ele>
        <time>2014-07-13T09:19:43Z</time>
      </trkpt>
      <trkpt lat="46.045024171471596" lon="7.053841324523091">
        <ele>1712.25</ele>
        <time>2014-07-13T09:20:03Z</time>
      </trkpt>
      <trkpt lat="46.045021656900644" lon="7.053830260410905">
        <ele>1712.25</ele>
        <time>2014-07-13T09:20:30Z</time>
      </trkpt>
      <trkpt lat="46.045025931671262" lon="7.053820788860321">
        <ele>1712.73</ele>
        <time>2014-07-13T09:20:52Z</time>
      </trkpt>
      <trkpt lat="46.044945633038878" lon="7.053813245147467">
        <ele>1714.1700000000001</ele>
        <time>2014-07-13T09:21:19Z</time>
      </trkpt>
      <trkpt lat="46.044914117082953" lon="7.053619036450982">
        <ele>1716.5699999999999</ele>
        <time>2014-07-13T09:21:36Z</time>
      </trkpt>
      <trkpt lat="46.044908752664924" lon="7.05354074947536">
        <ele>1719.46</ele>
        <time>2014-07-13T09:21:49Z</time>
      </trkpt>
      <trkpt lat="46.044888887554407" lon="7.053540162742138">
        <ele>1721.8599999999999</ele>
        <time>2014-07-13T09:22:05Z</time>
      </trkpt>
      <trkpt lat="46.044980166479945" lon="7.053530607372522">
        <ele>1724.74</ele>
        <time>2014-07-13T09:22:25Z</time>
      </trkpt>
      <trkpt lat="46.045059207826853" lon="7.053448464721441">
        <ele>1727.6300000000001</ele>
        <time>2014-07-13T09:22:44Z</time>
      </trkpt>
      <trkpt lat="46.045172112062573" lon="7.053534714505076">
        <ele>1730.03</ele>
        <time>2014-07-13T09:23:05Z</time>
      </trkpt>
      <trkpt lat="46.045244196429849" lon="7.053607553243637">
        <ele>1732.9100000000001</ele>
        <time>2014-07-13T09:23:23Z</time>
      </trkpt>
      <trkpt lat="46.045372355729342" lon="7.053607888519764">
        <ele>1736.28</ele>
        <time>2014-07-13T09:23:43Z</time>
      </trkpt>
      <trkpt lat="46.045436896383762" lon="7.053706962615252">
        <ele>1738.2</ele>
        <time>2014-07-13T09:23:59Z</time>
      </trkpt>
      <trkpt lat="46.045488948002458" lon="7.05364191904664">
        <ele>1741.0799999999999</ele>
        <time>2014-07-13T09:24:16Z</time>
      </trkpt>
      <trkpt lat="46.045540329068899" lon="7.053718864917755">
        <ele>1743.49</ele>
        <time>2014-07-13T09:24:36Z</time>
      </trkpt>
      <trkpt lat="46.045597996562719" lon="7.053757254034281">
        <ele>1744.9300000000001</ele>
        <time>2014-07-13T09:24:57Z</time>
      </trkpt>
      <trkpt lat="46.045645354315639" lon="7.053789691999555">
        <ele>1747.8099999999999</ele>
        <time>2014-07-13T09:25:13Z</time>
      </trkpt>
      <trkpt lat="46.045705117285252" lon="7.053857333958149">
        <ele>1749.26</ele>
        <time>2014-07-13T09:25:27Z</time>
      </trkpt>
      <trkpt lat="46.045771082863212" lon="7.053828164935112">
        <ele>1751.1800000000001</ele>
        <time>2014-07-13T09:25:44Z</time>
      </trkpt>
      <trkpt lat="46.045828498899937" lon="7.053861441090703">
        <ele>1753.5799999999999</ele>
        <time>2014-07-13T09:26:02Z</time>
      </trkpt>
      <trkpt lat="46.045842999592423" lon="7.053845347836614">
        <ele>1755.02</ele>
        <time>2014-07-13T09:26:08Z</time>
      </trkpt>
      <trkpt lat="46.045841071754694" lon="7.053845934569836">
        <ele>1753.5799999999999</ele>
        <time>2014-07-13T09:26:09Z</time>
      </trkpt>
      <trkpt lat="46.045826319605112" lon="7.053959593176842">
        <ele>1753.0999999999999</ele>
        <time>2014-07-13T09:26:35Z</time>
      </trkpt>
      <trkpt lat="46.045876946300268" lon="7.053951043635607">
        <ele>1753.5799999999999</ele>
        <time>2014-07-13T09:27:03Z</time>
      </trkpt>
      <trkpt lat="46.045933524146676" lon="7.053869739174843">
        <ele>1755.5</ele>
        <time>2014-07-13T09:27:25Z</time>
      </trkpt>
      <trkpt lat="46.046008793637156" lon="7.053908547386527">
        <ele>1756.47</ele>
        <time>2014-07-13T09:27:40Z</time>
      </trkpt>
      <trkpt lat="46.046051289886236" lon="7.053922964259982">
        <ele>1759.3499999999999</ele>
        <time>2014-07-13T09:27:45Z</time>
      </trkpt>
      <trkpt lat="46.046145083382726" lon="7.053983230143786">
        <ele>1758.3900000000001</ele>
        <time>2014-07-13T09:28:00Z</time>
      </trkpt>
      <trkpt lat="46.046217251569033" lon="7.054027318954468">
        <ele>1760.79</ele>
        <time>2014-07-13T09:28:09Z</time>
      </trkpt>
      <trkpt lat="46.046287072822452" lon="7.053997395560145">
        <ele>1762.71</ele>
        <time>2014-07-13T09:28:27Z</time>
      </trkpt>
      <trkpt lat="46.046258239075541" lon="7.053921706974506">
        <ele>1765.5999999999999</ele>
        <time>2014-07-13T09:28:42Z</time>
      </trkpt>
      <trkpt lat="46.046205852180719" lon="7.053847191855311">
        <ele>1768.96</ele>
        <time>2014-07-13T09:29:01Z</time>
      </trkpt>
      <trkpt lat="46.046196464449167" lon="7.053702855482698">
        <ele>1771.3699999999999</ele>
        <time>2014-07-13T09:29:16Z</time>
      </trkpt>
      <trkpt lat="46.04616972617805" lon="7.053652564063668">
        <ele>1772.8099999999999</ele>
        <time>2014-07-13T09:29:29Z</time>
      </trkpt>
      <trkpt lat="46.046182550489902" lon="7.053573522716761">
        <ele>1776.1700000000001</ele>
        <time>2014-07-13T09:29:47Z</time>
      </trkpt>
      <trkpt lat="46.046165032312274" lon="7.053551897406578">
        <ele>1777.6099999999999</ele>
        <time>2014-07-13T09:30:01Z</time>
      </trkpt>
      <trkpt lat="46.046166373416781" lon="7.053569247946143">
        <ele>1778.5799999999999</ele>
        <time>2014-07-13T09:30:10Z</time>
      </trkpt>
      <trkpt lat="46.046122536063194" lon="7.053623478859663">
        <ele>1778.0999999999999</ele>
        <time>2014-07-13T09:30:38Z</time>
      </trkpt>
      <trkpt lat="46.046117004007101" lon="7.053469670936465">
        <ele>1780.02</ele>
        <time>2014-07-13T09:30:54Z</time>
      </trkpt>
      <trkpt lat="46.046132259070873" lon="7.053389791399241">
        <ele>1783.3800000000001</ele>
        <time>2014-07-13T09:31:08Z</time>
      </trkpt>
      <trkpt lat="46.04621515609324" lon="7.053385600447655">
        <ele>1785.79</ele>
        <time>2014-07-13T09:31:23Z</time>
      </trkpt>
      <trkpt lat="46.046259915456176" lon="7.053389791399241">
        <ele>1787.23</ele>
        <time>2014-07-13T09:31:38Z</time>
      </trkpt>
      <trkpt lat="46.046270979568362" lon="7.053393060341477">
        <ele>1789.1500000000001</ele>
        <time>2014-07-13T09:31:42Z</time>
      </trkpt>
      <trkpt lat="46.046235775575042" lon="7.053596321493387">
        <ele>1788.6700000000001</ele>
        <time>2014-07-13T09:31:54Z</time>
      </trkpt>
      <trkpt lat="46.046311296522617" lon="7.053550137206912">
        <ele>1790.1099999999999</ele>
        <time>2014-07-13T09:32:08Z</time>
      </trkpt>
      <trkpt lat="46.046392852440476" lon="7.05357151106">
        <ele>1792.52</ele>
        <time>2014-07-13T09:32:22Z</time>
      </trkpt>
      <trkpt lat="46.046445658430457" lon="7.053523818030953">
        <ele>1794.9200000000001</ele>
        <time>2014-07-13T09:32:37Z</time>
      </trkpt>
      <trkpt lat="46.046498967334628" lon="7.053506132215262">
        <ele>1796.8399999999999</ele>
        <time>2014-07-13T09:32:49Z</time>
      </trkpt>
      <trkpt lat="46.046484550461173" lon="7.053518118336797">
        <ele>1797.3199999999999</ele>
        <time>2014-07-13T09:33:05Z</time>
      </trkpt>
      <trkpt lat="46.046422189101577" lon="7.053483249619603">
        <ele>1799.24</ele>
        <time>2014-07-13T09:33:20Z</time>
      </trkpt>
      <trkpt lat="46.046394947916269" lon="7.053368082270026">
        <ele>1802.1300000000001</ele>
        <time>2014-07-13T09:33:35Z</time>
      </trkpt>
      <trkpt lat="46.046363431960344" lon="7.053298428654671">
        <ele>1804.53</ele>
        <time>2014-07-13T09:33:50Z</time>
      </trkpt>
      <trkpt lat="46.046432834118605" lon="7.05326322466135">
        <ele>1806.9400000000001</ele>
        <time>2014-07-13T09:34:03Z</time>
      </trkpt>
      <trkpt lat="46.046392349526286" lon="7.053186530247331">
        <ele>1808.8599999999999</ele>
        <time>2014-07-13T09:34:18Z</time>
      </trkpt>
      <trkpt lat="46.046363515779376" lon="7.053094748407602">
        <ele>1811.26</ele>
        <time>2014-07-13T09:34:33Z</time>
      </trkpt>
      <trkpt lat="46.046372065320611" lon="7.053008917719126">
        <ele>1814.1500000000001</ele>
        <time>2014-07-13T09:34:50Z</time>
      </trkpt>
      <trkpt lat="46.046373154968023" lon="7.05281320028007">
        <ele>1817.51</ele>
        <time>2014-07-13T09:35:09Z</time>
      </trkpt>
      <trkpt lat="46.046354882419109" lon="7.052720244973898">
        <ele>1820.3900000000001</ele>
        <time>2014-07-13T09:35:29Z</time>
      </trkpt>
      <trkpt lat="46.046417243778706" lon="7.052705073729157">
        <ele>1822.3199999999999</ele>
        <time>2014-07-13T09:35:48Z</time>
      </trkpt>
      <trkpt lat="46.046459572389722" lon="7.052708091214299">
        <ele>1822.8</ele>
        <time>2014-07-13T09:36:10Z</time>
      </trkpt>
      <trkpt lat="46.046375585719943" lon="7.0527149643749">
        <ele>1822.8</ele>
        <time>2014-07-13T09:36:39Z</time>
      </trkpt>
      <trkpt lat="46.046367539092898" lon="7.05275502987206">
        <ele>1822.8</ele>
        <time>2014-07-13T09:36:56Z</time>
      </trkpt>
      <trkpt lat="46.046380195766687" lon="7.05280096270144">
        <ele>1823.28</ele>
        <time>2014-07-13T09:37:17Z</time>
      </trkpt>
      <trkpt lat="46.04638178832829" lon="7.052746396511793">
        <ele>1824.72</ele>
        <time>2014-07-13T09:37:36Z</time>
      </trkpt>
      <trkpt lat="46.046485975384712" lon="7.052675485610962">
        <ele>1828.0799999999999</ele>
        <time>2014-07-13T09:37:52Z</time>
      </trkpt>
      <trkpt lat="46.046508774161339" lon="7.052642041817308">
        <ele>1830.01</ele>
        <time>2014-07-13T09:38:05Z</time>
      </trkpt>
      <trkpt lat="46.046531656756997" lon="7.052587727084756">
        <ele>1832.8900000000001</ele>
        <time>2014-07-13T09:38:15Z</time>
      </trkpt>
      <trkpt lat="46.046602986752987" lon="7.05256886780262">
        <ele>1834.3299999999999</ele>
        <time>2014-07-13T09:38:28Z</time>
      </trkpt>
      <trkpt lat="46.046600975096226" lon="7.052533915266395">
        <ele>1836.74</ele>
        <time>2014-07-13T09:38:44Z</time>
      </trkpt>
      <trkpt lat="46.046604998409748" lon="7.052382370457053">
        <ele>1839.6199999999999</ele>
        <time>2014-07-13T09:39:01Z</time>
      </trkpt>
      <trkpt lat="46.046662833541632" lon="7.052295282483101">
        <ele>1842.5</ele>
        <time>2014-07-13T09:39:19Z</time>
      </trkpt>
      <trkpt lat="46.046659145504236" lon="7.052251193672419">
        <ele>1845.3900000000001</ele>
        <time>2014-07-13T09:39:36Z</time>
      </trkpt>
      <trkpt lat="46.04667347855866" lon="7.052192771807313">
        <ele>1847.79</ele>
        <time>2014-07-13T09:39:51Z</time>
      </trkpt>
      <trkpt lat="46.046681357547641" lon="7.052156561985612">
        <ele>1849.71</ele>
        <time>2014-07-13T09:40:03Z</time>
      </trkpt>
      <trkpt lat="46.046721590682864" lon="7.052091769874096">
        <ele>1853.5599999999999</ele>
        <time>2014-07-13T09:40:16Z</time>
      </trkpt>
      <trkpt lat="46.046793255954981" lon="7.052008118480444">
        <ele>1855</ele>
        <time>2014-07-13T09:40:33Z</time>
      </trkpt>
      <trkpt lat="46.046813037246466" lon="7.052041478455067">
        <ele>1856.4400000000001</ele>
        <time>2014-07-13T09:40:47Z</time>
      </trkpt>
      <trkpt lat="46.046857126057148" lon="7.052095206454396">
        <ele>1858.8499999999999</ele>
        <time>2014-07-13T09:40:59Z</time>
      </trkpt>
      <trkpt lat="46.046862322837114" lon="7.052012225612998">
        <ele>1860.29</ele>
        <time>2014-07-13T09:41:13Z</time>
      </trkpt>
      <trkpt lat="46.046879170462489" lon="7.051939722150564">
        <ele>1862.6900000000001</ele>
        <time>2014-07-13T09:41:27Z</time>
      </trkpt>
      <trkpt lat="46.046918984502554" lon="7.051874427124858">
        <ele>1864.6099999999999</ele>
        <time>2014-07-13T09:41:41Z</time>
      </trkpt>
      <trkpt lat="46.04697790928185" lon="7.051861099898815">
        <ele>1866.54</ele>
        <time>2014-07-13T09:41:53Z</time>
      </trkpt>
      <trkpt lat="46.047016968950629" lon="7.05183151178062">
        <ele>1868.46</ele>
        <time>2014-07-13T09:42:07Z</time>
      </trkpt>
      <trkpt lat="46.047060051932931" lon="7.051755152642727">
        <ele>1870.3800000000001</ele>
        <time>2014-07-13T09:42:24Z</time>
      </trkpt>
      <trkpt lat="46.047029625624418" lon="7.051688432693481">
        <ele>1872.3</ele>
        <time>2014-07-13T09:42:38Z</time>
      </trkpt>
      <trkpt lat="46.046987297013402" lon="7.051610145717859">
        <ele>1874.23</ele>
        <time>2014-07-13T09:42:51Z</time>
      </trkpt>
      <trkpt lat="46.047027027234435" lon="7.051545856520534">
        <ele>1876.6300000000001</ele>
        <time>2014-07-13T09:43:06Z</time>
      </trkpt>
      <trkpt lat="46.047049155458808" lon="7.051524147391319">
        <ele>1878.0699999999999</ele>
        <time>2014-07-13T09:43:21Z</time>
      </trkpt>
      <trkpt lat="46.047061393037438" lon="7.051540743559599">
        <ele>1878.0699999999999</ele>
        <time>2014-07-13T09:43:33Z</time>
      </trkpt>
      <trkpt lat="46.04705560952425" lon="7.051551220938563">
        <ele>1878.0699999999999</ele>
        <time>2014-07-13T09:44:03Z</time>
      </trkpt>
      <trkpt lat="46.047048317268491" lon="7.051537809893489">
        <ele>1878.0699999999999</ele>
        <time>2014-07-13T09:44:12Z</time>
      </trkpt>
      <trkpt lat="46.047066170722246" lon="7.051516100764275">
        <ele>1878.55</ele>
        <time>2014-07-13T09:44:31Z</time>
      </trkpt>
      <trkpt lat="46.047065164893866" lon="7.051513250917196">
        <ele>1878.55</ele>
        <time>2014-07-13T09:44:54Z</time>
      </trkpt>
      <trkpt lat="46.047061225399375" lon="7.051518615335226">
        <ele>1878.55</ele>
        <time>2014-07-13T09:45:18Z</time>
      </trkpt>
      <trkpt lat="46.047070194035769" lon="7.051520794630051">
        <ele>1879.51</ele>
        <time>2014-07-13T09:45:36Z</time>
      </trkpt>
      <trkpt lat="46.047074804082513" lon="7.051548790186644">
        <ele>1879.51</ele>
        <time>2014-07-13T09:46:02Z</time>
      </trkpt>
      <trkpt lat="46.047069104388356" lon="7.051543844863772">
        <ele>1880.96</ele>
        <time>2014-07-13T09:46:18Z</time>
      </trkpt>
      <trkpt lat="46.04706734418869" lon="7.051545353606343">
        <ele>1879.51</ele>
        <time>2014-07-13T09:46:42Z</time>
      </trkpt>
      <trkpt lat="46.047071786597371" lon="7.051548538729549">
        <ele>1879.51</ele>
        <time>2014-07-13T09:47:05Z</time>
      </trkpt>
      <trkpt lat="46.047066589817405" lon="7.051528757438064">
        <ele>1880</ele>
        <time>2014-07-13T09:47:20Z</time>
      </trkpt>
      <trkpt lat="46.047040605917573" lon="7.05148802138865">
        <ele>1880.96</ele>
        <time>2014-07-13T09:47:39Z</time>
      </trkpt>
      <trkpt lat="46.047117300331593" lon="7.05141375772655">
        <ele>1882.4000000000001</ele>
        <time>2014-07-13T09:47:53Z</time>
      </trkpt>
      <trkpt lat="46.047146553173661" lon="7.051340080797672">
        <ele>1884.8</ele>
        <time>2014-07-13T09:48:07Z</time>
      </trkpt>
      <trkpt lat="46.047148983925581" lon="7.051304876804352">
        <ele>1886.72</ele>
        <time>2014-07-13T09:48:19Z</time>
      </trkpt>
      <trkpt lat="46.04713867418468" lon="7.051209323108196">
        <ele>1889.1300000000001</ele>
        <time>2014-07-13T09:48:33Z</time>
      </trkpt>
      <trkpt lat="46.047251578420401" lon="7.051206054165959">
        <ele>1891.05</ele>
        <time>2014-07-13T09:48:48Z</time>
      </trkpt>
      <trkpt lat="46.047250740230083" lon="7.051155595108867">
        <ele>1893.45</ele>
        <time>2014-07-13T09:49:05Z</time>
      </trkpt>
      <trkpt lat="46.047192150726914" lon="7.051017880439758">
        <ele>1895.8599999999999</ele>
        <time>2014-07-13T09:49:22Z</time>
      </trkpt>
      <trkpt lat="46.047305390238762" lon="7.050976809114218">
        <ele>1898.26</ele>
        <time>2014-07-13T09:49:40Z</time>
      </trkpt>
      <trkpt lat="46.047314023599029" lon="7.050877567380667">
        <ele>1900.6600000000001</ele>
        <time>2014-07-13T09:49:55Z</time>
      </trkpt>
      <trkpt lat="46.047341767698526" lon="7.05079953186214">
        <ele>1902.5899999999999</ele>
        <time>2014-07-13T09:50:06Z</time>
      </trkpt>
      <trkpt lat="46.047363644465804" lon="7.050746725872159">
        <ele>1903.0699999999999</ele>
        <time>2014-07-13T09:50:15Z</time>
      </trkpt>
      <trkpt lat="46.047435645014048" lon="7.050734488293529">
        <ele>1903.55</ele>
        <time>2014-07-13T09:50:26Z</time>
      </trkpt>
      <trkpt lat="46.047501862049103" lon="7.050802046433091">
        <ele>1904.99</ele>
        <time>2014-07-13T09:50:37Z</time>
      </trkpt>
      <trkpt lat="46.04753740131855" lon="7.050854433327913">
        <ele>1905.95</ele>
        <time>2014-07-13T09:50:50Z</time>
      </trkpt>
      <trkpt lat="46.047569252550602" lon="7.05087672919035">
        <ele>1906.4300000000001</ele>
        <time>2014-07-13T09:51:06Z</time>
      </trkpt>
      <trkpt lat="46.047681905329227" lon="7.050958871841431">
        <ele>1907.8699999999999</ele>
        <time>2014-07-13T09:51:21Z</time>
      </trkpt>
      <trkpt lat="46.047747619450092" lon="7.051065992563963">
        <ele>1908.8299999999999</ele>
        <time>2014-07-13T09:51:33Z</time>
      </trkpt>
      <trkpt lat="46.047827415168285" lon="7.051253998652101">
        <ele>1909.3199999999999</ele>
        <time>2014-07-13T09:51:50Z</time>
      </trkpt>
      <trkpt lat="46.047840910032392" lon="7.051283502951264">
        <ele>1909.8</ele>
        <time>2014-07-13T09:51:53Z</time>
      </trkpt>
      <trkpt lat="46.047920789569616" lon="7.051420211791992">
        <ele>1911.24</ele>
        <time>2014-07-13T09:52:08Z</time>
      </trkpt>
      <trkpt lat="46.048004273325205" lon="7.051603524014354">
        <ele>1912.6800000000001</ele>
        <time>2014-07-13T09:52:26Z</time>
      </trkpt>
      <trkpt lat="46.04808121919632" lon="7.051760517060757">
        <ele>1914.1199999999999</ele>
        <time>2014-07-13T09:52:41Z</time>
      </trkpt>
      <trkpt lat="46.048157662153244" lon="7.051941901445389">
        <ele>1914.5999999999999</ele>
        <time>2014-07-13T09:52:57Z</time>
      </trkpt>
      <trkpt lat="46.048208456486464" lon="7.0521036721766">
        <ele>1915.0799999999999</ele>
        <time>2014-07-13T09:53:12Z</time>
      </trkpt>
      <trkpt lat="46.04832018725574" lon="7.052258066833019">
        <ele>1916.04</ele>
        <time>2014-07-13T09:53:28Z</time>
      </trkpt>
      <trkpt lat="46.048386571928859" lon="7.052373737096787">
        <ele>1916.04</ele>
        <time>2014-07-13T09:53:39Z</time>
      </trkpt>
      <trkpt lat="46.048424122855067" lon="7.052410030737519">
        <ele>1916.53</ele>
        <time>2014-07-13T09:53:51Z</time>
      </trkpt>
      <trkpt lat="46.04849562048912" lon="7.052490077912808">
        <ele>1917.97</ele>
        <time>2014-07-13T09:54:08Z</time>
      </trkpt>
      <trkpt lat="46.048610787838697" lon="7.052592923864722">
        <ele>1919.4100000000001</ele>
        <time>2014-07-13T09:54:22Z</time>
      </trkpt>
      <trkpt lat="46.048729559406638" lon="7.052728878334165">
        <ele>1920.8499999999999</ele>
        <time>2014-07-13T09:54:39Z</time>
      </trkpt>
      <trkpt lat="46.048791250213981" lon="7.052776906639338">
        <ele>1921.8099999999999</ele>
        <time>2014-07-13T09:54:47Z</time>
      </trkpt>
      <trkpt lat="46.048903483897448" lon="7.052873633801937">
        <ele>1922.77</ele>
        <time>2014-07-13T09:55:02Z</time>
      </trkpt>
      <trkpt lat="46.049014208838344" lon="7.05296122469008">
        <ele>1924.22</ele>
        <time>2014-07-13T09:55:17Z</time>
      </trkpt>
      <trkpt lat="46.049150750041008" lon="7.053052671253681">
        <ele>1925.1800000000001</ele>
        <time>2014-07-13T09:55:33Z</time>
      </trkpt>
      <trkpt lat="46.049273209646344" lon="7.0530706923455">
        <ele>1926.1400000000001</ele>
        <time>2014-07-13T09:55:48Z</time>
      </trkpt>
      <trkpt lat="46.049287123605609" lon="7.05306239426136">
        <ele>1926.6199999999999</ele>
        <time>2014-07-13T09:55:50Z</time>
      </trkpt>
      <trkpt lat="46.049435986205935" lon="7.053009755909443">
        <ele>1926.6199999999999</ele>
        <time>2014-07-13T09:56:06Z</time>
      </trkpt>
      <trkpt lat="46.049502789974213" lon="7.053008666262031">
        <ele>1927.0999999999999</ele>
        <time>2014-07-13T09:56:20Z</time>
      </trkpt>
      <trkpt lat="46.04950999841094" lon="7.053018976002932">
        <ele>1927.0999999999999</ele>
        <time>2014-07-13T09:56:38Z</time>
      </trkpt>
      <trkpt lat="46.049513099715114" lon="7.053011683747172">
        <ele>1927.5799999999999</ele>
        <time>2014-07-13T09:56:56Z</time>
      </trkpt>
      <trkpt lat="46.049515781924129" lon="7.053023669868708">
        <ele>1927.0999999999999</ele>
        <time>2014-07-13T09:57:19Z</time>
      </trkpt>
      <trkpt lat="46.049525337293744" lon="7.053001960739493">
        <ele>1927.0999999999999</ele>
        <time>2014-07-13T09:57:22Z</time>
      </trkpt>
      <trkpt lat="46.049539502710104" lon="7.052991315722466">
        <ele>1927.5799999999999</ele>
        <time>2014-07-13T09:57:24Z</time>
      </trkpt>
      <trkpt lat="46.049559200182557" lon="7.05297346226871">
        <ele>1927.5799999999999</ele>
        <time>2014-07-13T09:57:27Z</time>
      </trkpt>
      <trkpt lat="46.04967076331377" lon="7.052904395386577">
        <ele>1928.54</ele>
        <time>2014-07-13T09:57:41Z</time>
      </trkpt>
      <trkpt lat="46.049737818539143" lon="7.052899450063705">
        <ele>1928.54</ele>
        <time>2014-07-13T09:57:48Z</time>
      </trkpt>
      <trkpt lat="46.049823816865683" lon="7.05290699377656">
        <ele>1928.54</ele>
        <time>2014-07-13T09:57:56Z</time>
      </trkpt>
      <trkpt lat="46.049902103841305" lon="7.052903389558196">
        <ele>1929.02</ele>
        <time>2014-07-13T09:58:04Z</time>
      </trkpt>
      <trkpt lat="46.050061192363501" lon="7.052931636571884">
        <ele>1929.5</ele>
        <time>2014-07-13T09:58:20Z</time>
      </trkpt>
      <trkpt lat="46.050193123519421" lon="7.052946388721466">
        <ele>1929.98</ele>
        <time>2014-07-13T09:58:34Z</time>
      </trkpt>
      <trkpt lat="46.050347434356809" lon="7.052984610199928">
        <ele>1930.95</ele>
        <time>2014-07-13T09:58:50Z</time>
      </trkpt>
      <trkpt lat="46.05045254342258" lon="7.053086701780558">
        <ele>1931.4300000000001</ele>
        <time>2014-07-13T09:59:04Z</time>
      </trkpt>
      <trkpt lat="46.050566453486681" lon="7.053229361772537">
        <ele>1931.9100000000001</ele>
        <time>2014-07-13T09:59:19Z</time>
      </trkpt>
      <trkpt lat="46.05063577182591" lon="7.053294321522117">
        <ele>1932.8699999999999</ele>
        <time>2014-07-13T09:59:29Z</time>
      </trkpt>
      <trkpt lat="46.050649266690016" lon="7.053319048136473">
        <ele>1932.8699999999999</ele>
        <time>2014-07-13T09:59:31Z</time>
      </trkpt>
      <trkpt lat="46.050749681890011" lon="7.053409069776535">
        <ele>1933.8299999999999</ele>
        <time>2014-07-13T09:59:46Z</time>
      </trkpt>
      <trkpt lat="46.050856718793511" lon="7.053506132215262">
        <ele>1934.79</ele>
        <time>2014-07-13T10:00:01Z</time>
      </trkpt>
      <trkpt lat="46.050927797332406" lon="7.0535974111408">
        <ele>1935.27</ele>
        <time>2014-07-13T10:00:12Z</time>
      </trkpt>
      <trkpt lat="46.051005497574806" lon="7.053676033392549">
        <ele>1935.75</ele>
        <time>2014-07-13T10:00:23Z</time>
      </trkpt>
      <trkpt lat="46.051084455102682" lon="7.053759852424264">
        <ele>1936.71</ele>
        <time>2014-07-13T10:00:34Z</time>
      </trkpt>
      <trkpt lat="46.051192581653595" lon="7.053874852135778">
        <ele>1937.1900000000001</ele>
        <time>2014-07-13T10:00:49Z</time>
      </trkpt>
      <trkpt lat="46.05131353251636" lon="7.053998736664653">
        <ele>1938.6400000000001</ele>
        <time>2014-07-13T10:01:06Z</time>
      </trkpt>
      <trkpt lat="46.051445379853249" lon="7.054117508232594">
        <ele>1940.0799999999999</ele>
        <time>2014-07-13T10:01:24Z</time>
      </trkpt>
      <trkpt lat="46.051542777568102" lon="7.054186910390854">
        <ele>1941.04</ele>
        <time>2014-07-13T10:01:37Z</time>
      </trkpt>
      <trkpt lat="46.051655430346727" lon="7.054242063313723">
        <ele>1942.48</ele>
        <time>2014-07-13T10:01:51Z</time>
      </trkpt>
      <trkpt lat="46.051792725920677" lon="7.054267544299364">
        <ele>1943.4400000000001</ele>
        <time>2014-07-13T10:02:07Z</time>
      </trkpt>
      <trkpt lat="46.051893057301641" lon="7.054278524592519">
        <ele>1944.4000000000001</ele>
        <time>2014-07-13T10:02:20Z</time>
      </trkpt>
      <trkpt lat="46.052000345662236" lon="7.054296629503369">
        <ele>1945.3599999999999</ele>
        <time>2014-07-13T10:02:35Z</time>
      </trkpt>
      <trkpt lat="46.052000680938363" lon="7.054334012791514">
        <ele>1945.3599999999999</ele>
        <time>2014-07-13T10:02:49Z</time>
      </trkpt>
      <trkpt lat="46.052009733393788" lon="7.054308615624905">
        <ele>1945.3599999999999</ele>
        <time>2014-07-13T10:03:10Z</time>
      </trkpt>
      <trkpt lat="46.052135545760393" lon="7.054315907880664">
        <ele>1946.3299999999999</ele>
        <time>2014-07-13T10:03:25Z</time>
      </trkpt>
      <trkpt lat="46.05227124877274" lon="7.054329654201865">
        <ele>1946.8099999999999</ele>
        <time>2014-07-13T10:03:40Z</time>
      </trkpt>
      <trkpt lat="46.052409969270229" lon="7.054356224834919">
        <ele>1947.29</ele>
        <time>2014-07-13T10:03:54Z</time>
      </trkpt>
      <trkpt lat="46.052550114691257" lon="7.054387237876654">
        <ele>1948.73</ele>
        <time>2014-07-13T10:04:10Z</time>
      </trkpt>
      <trkpt lat="46.052698390558362" lon="7.054398721083999">
        <ele>1949.6900000000001</ele>
        <time>2014-07-13T10:04:26Z</time>
      </trkpt>
      <trkpt lat="46.052808696404099" lon="7.054429147392511">
        <ele>1950.6500000000001</ele>
        <time>2014-07-13T10:04:40Z</time>
      </trkpt>
      <trkpt lat="46.052930150181055" lon="7.054435769096017">
        <ele>1951.1300000000001</ele>
        <time>2014-07-13T10:04:53Z</time>
      </trkpt>
      <trkpt lat="46.05305403470993" lon="7.054469045251608">
        <ele>1952.0899999999999</ele>
        <time>2014-07-13T10:05:07Z</time>
      </trkpt>
      <trkpt lat="46.053192336112261" lon="7.054516151547432">
        <ele>1953.0599999999999</ele>
        <time>2014-07-13T10:05:22Z</time>
      </trkpt>
      <trkpt lat="46.053357543423772" lon="7.054537106305361">
        <ele>1954.02</ele>
        <time>2014-07-13T10:05:40Z</time>
      </trkpt>
      <trkpt lat="46.053476231172681" lon="7.054550349712372">
        <ele>1954.02</ele>
        <time>2014-07-13T10:05:53Z</time>
      </trkpt>
      <trkpt lat="46.053580082952976" lon="7.054551942273974">
        <ele>1955.46</ele>
        <time>2014-07-13T10:06:05Z</time>
      </trkpt>
      <trkpt lat="46.053734645247459" lon="7.054570382460952">
        <ele>1955.9400000000001</ele>
        <time>2014-07-13T10:06:20Z</time>
      </trkpt>
      <trkpt lat="46.053848890587687" lon="7.054542722180486">
        <ele>1956.9000000000001</ele>
        <time>2014-07-13T10:06:33Z</time>
      </trkpt>
      <trkpt lat="46.054003620520234" lon="7.054536016657949">
        <ele>1957.8599999999999</ele>
        <time>2014-07-13T10:06:49Z</time>
      </trkpt>
      <trkpt lat="46.054145190864801" lon="7.054527970030904">
        <ele>1958.8199999999999</ele>
        <time>2014-07-13T10:07:03Z</time>
      </trkpt>
      <trkpt lat="46.054270248860121" lon="7.054526042193174">
        <ele>1959.3</ele>
        <time>2014-07-13T10:07:16Z</time>
      </trkpt>
      <trkpt lat="46.054297406226397" lon="7.054522018879652">
        <ele>1959.3</ele>
        <time>2014-07-13T10:07:19Z</time>
      </trkpt>
      <trkpt lat="46.054448783397675" lon="7.054520510137081">
        <ele>1960.27</ele>
        <time>2014-07-13T10:07:34Z</time>
      </trkpt>
      <trkpt lat="46.054590940475464" lon="7.054505757987499">
        <ele>1960.27</ele>
        <time>2014-07-13T10:07:48Z</time>
      </trkpt>
      <trkpt lat="46.054733349010348" lon="7.054504584521055">
        <ele>1960.75</ele>
        <time>2014-07-13T10:08:02Z</time>
      </trkpt>
      <trkpt lat="46.054869890213013" lon="7.054484216496348">
        <ele>1961.71</ele>
        <time>2014-07-13T10:08:16Z</time>
      </trkpt>
      <trkpt lat="46.055012550204992" lon="7.05444666557014">
        <ele>1962.1900000000001</ele>
        <time>2014-07-13T10:08:31Z</time>
      </trkpt>
      <trkpt lat="46.055159820243716" lon="7.05440022982657">
        <ele>1962.6700000000001</ele>
        <time>2014-07-13T10:08:46Z</time>
      </trkpt>
      <trkpt lat="46.055274233222008" lon="7.054350944235921">
        <ele>1962.6700000000001</ele>
        <time>2014-07-13T10:08:58Z</time>
      </trkpt>
      <trkpt lat="46.055314047262073" lon="7.054306855425239">
        <ele>1963.1500000000001</ele>
        <time>2014-07-13T10:09:03Z</time>
      </trkpt>
      <trkpt lat="46.055326787754893" lon="7.054255725815892">
        <ele>1963.1500000000001</ele>
        <time>2014-07-13T10:09:07Z</time>
      </trkpt>
      <trkpt lat="46.055340450257063" lon="7.054178193211556">
        <ele>1963.6300000000001</ele>
        <time>2014-07-13T10:09:14Z</time>
      </trkpt>
      <trkpt lat="46.055294685065746" lon="7.053951378911734">
        <ele>1964.5899999999999</ele>
        <time>2014-07-13T10:09:30Z</time>
      </trkpt>
      <trkpt lat="46.055285548791289" lon="7.053728168830276">
        <ele>1964.1099999999999</ele>
        <time>2014-07-13T10:09:45Z</time>
      </trkpt>
      <trkpt lat="46.05530608445406" lon="7.053608978167176">
        <ele>1965.0699999999999</ele>
        <time>2014-07-13T10:10:00Z</time>
      </trkpt>
      <trkpt lat="46.055312706157565" lon="7.053579473868012">
        <ele>1965.55</ele>
        <time>2014-07-13T10:10:03Z</time>
      </trkpt>
      <trkpt lat="46.055393256247044" lon="7.05340588465333">
        <ele>1966.03</ele>
        <time>2014-07-13T10:10:17Z</time>
      </trkpt>
      <trkpt lat="46.055416809394956" lon="7.053230535238981">
        <ele>1966.03</ele>
        <time>2014-07-13T10:10:29Z</time>
      </trkpt>
      <trkpt lat="46.055450504645705" lon="7.052942533046007">
        <ele>1966.03</ele>
        <time>2014-07-13T10:10:48Z</time>
      </trkpt>
      <trkpt lat="46.055496102198958" lon="7.052690824493766">
        <ele>1966.51</ele>
        <time>2014-07-13T10:11:05Z</time>
      </trkpt>
      <trkpt lat="46.055510016158223" lon="7.052575321868062">
        <ele>1966.99</ele>
        <time>2014-07-13T10:11:13Z</time>
      </trkpt>
      <trkpt lat="46.055497527122498" lon="7.052403409034014">
        <ele>1966.99</ele>
        <time>2014-07-13T10:11:27Z</time>
      </trkpt>
      <trkpt lat="46.055480847135186" lon="7.052263515070081">
        <ele>1967.48</ele>
        <time>2014-07-13T10:11:37Z</time>
      </trkpt>
      <trkpt lat="46.055556954815984" lon="7.052027229219675">
        <ele>1968.4400000000001</ele>
        <time>2014-07-13T10:11:55Z</time>
      </trkpt>
      <trkpt lat="46.0556027200073" lon="7.051845761016011">
        <ele>1968.4400000000001</ele>
        <time>2014-07-13T10:12:10Z</time>
      </trkpt>
      <trkpt lat="46.055631889030337" lon="7.051741909235716">
        <ele>1968.4400000000001</ele>
        <time>2014-07-13T10:12:17Z</time>
      </trkpt>
      <trkpt lat="46.055614789947867" lon="7.051569409668446">
        <ele>1969.4000000000001</ele>
        <time>2014-07-13T10:12:32Z</time>
      </trkpt>
      <trkpt lat="46.055570533499122" lon="7.051404872909188">
        <ele>1970.3599999999999</ele>
        <time>2014-07-13T10:12:47Z</time>
      </trkpt>
      <trkpt lat="46.055555446073413" lon="7.051359442993999">
        <ele>1970.3599999999999</ele>
        <time>2014-07-13T10:12:51Z</time>
      </trkpt>
      <trkpt lat="46.055504567921162" lon="7.051170095801354">
        <ele>1970.8399999999999</ele>
        <time>2014-07-13T10:13:06Z</time>
      </trkpt>
      <trkpt lat="46.0554991196841" lon="7.051148135215044">
        <ele>1971.3199999999999</ele>
        <time>2014-07-13T10:13:08Z</time>
      </trkpt>
      <trkpt lat="46.055488893762231" lon="7.051109243184328">
        <ele>1971.3199999999999</ele>
        <time>2014-07-13T10:13:11Z</time>
      </trkpt>
      <trkpt lat="46.055494174361229" lon="7.051036236807704">
        <ele>1970.8399999999999</ele>
        <time>2014-07-13T10:13:16Z</time>
      </trkpt>
      <trkpt lat="46.055563157424331" lon="7.050862312316895">
        <ele>1971.8</ele>
        <time>2014-07-13T10:13:32Z</time>
      </trkpt>
      <trkpt lat="46.055560223758221" lon="7.0508205704391">
        <ele>1971.8</ele>
        <time>2014-07-13T10:13:35Z</time>
      </trkpt>
      <trkpt lat="46.055541364476085" lon="7.050611022859812">
        <ele>1971.8</ele>
        <time>2014-07-13T10:13:50Z</time>
      </trkpt>
      <trkpt lat="46.055525271221995" lon="7.050406588241458">
        <ele>1972.28</ele>
        <time>2014-07-13T10:14:06Z</time>
      </trkpt>
      <trkpt lat="46.055523259565234" lon="7.050356045365334">
        <ele>1973.24</ele>
        <time>2014-07-13T10:14:18Z</time>
      </trkpt>
      <trkpt lat="46.055504567921162" lon="7.050223359838128">
        <ele>1973.72</ele>
        <time>2014-07-13T10:14:32Z</time>
      </trkpt>
      <trkpt lat="46.055501969531178" lon="7.050074245780706">
        <ele>1975.1700000000001</ele>
        <time>2014-07-13T10:14:47Z</time>
      </trkpt>
      <trkpt lat="46.055499706417322" lon="7.050050273537636">
        <ele>1975.1700000000001</ele>
        <time>2014-07-13T10:14:50Z</time>
      </trkpt>
      <trkpt lat="46.055477159097791" lon="7.049975506961346">
        <ele>1975.6500000000001</ele>
        <time>2014-07-13T10:14:56Z</time>
      </trkpt>
      <trkpt lat="46.055450169369578" lon="7.049848772585392">
        <ele>1976.1300000000001</ele>
        <time>2014-07-13T10:15:08Z</time>
      </trkpt>
      <trkpt lat="46.055428292602301" lon="7.04971625469625">
        <ele>1976.6099999999999</ele>
        <time>2014-07-13T10:15:21Z</time>
      </trkpt>
      <trkpt lat="46.055454611778259" lon="7.049720948562026">
        <ele>1976.6099999999999</ele>
        <time>2014-07-13T10:15:33Z</time>
      </trkpt>
      <trkpt lat="46.055454108864069" lon="7.049758583307266">
        <ele>1976.6099999999999</ele>
        <time>2014-07-13T10:15:51Z</time>
      </trkpt>
      <trkpt lat="46.055451929569244" lon="7.049760259687901">
        <ele>1976.6099999999999</ele>
        <time>2014-07-13T10:16:08Z</time>
      </trkpt>
      <trkpt lat="46.055452432483435" lon="7.04976512119174">
        <ele>1976.1300000000001</ele>
        <time>2014-07-13T10:16:23Z</time>
      </trkpt>
      <trkpt lat="46.055466094985604" lon="7.049771910533309">
        <ele>1976.1300000000001</ele>
        <time>2014-07-13T10:16:44Z</time>
      </trkpt>
      <trkpt lat="46.055477494373918" lon="7.049768222495914">
        <ele>1976.1300000000001</ele>
        <time>2014-07-13T10:17:09Z</time>
      </trkpt>
      <trkpt lat="46.055482607334852" lon="7.049737880006433">
        <ele>1976.1300000000001</ele>
        <time>2014-07-13T10:17:32Z</time>
      </trkpt>
      <trkpt lat="46.055481266230345" lon="7.049754727631807">
        <ele>1976.6099999999999</ele>
        <time>2014-07-13T10:17:57Z</time>
      </trkpt>
      <trkpt lat="46.055497610941529" lon="7.049757661297917">
        <ele>1976.1300000000001</ele>
        <time>2014-07-13T10:18:25Z</time>
      </trkpt>
      <trkpt lat="46.055498868227005" lon="7.04976269043982">
        <ele>1976.6099999999999</ele>
        <time>2014-07-13T10:18:48Z</time>
      </trkpt>
      <trkpt lat="46.055506663396955" lon="7.049757242202759">
        <ele>1976.1300000000001</ele>
        <time>2014-07-13T10:19:25Z</time>
      </trkpt>
      <trkpt lat="46.055508507415652" lon="7.049769647419453">
        <ele>1976.1300000000001</ele>
        <time>2014-07-13T10:19:53Z</time>
      </trkpt>
      <trkpt lat="46.055498365312815" lon="7.049768390133977">
        <ele>1976.6099999999999</ele>
        <time>2014-07-13T10:20:17Z</time>
      </trkpt>
      <trkpt lat="46.055493000894785" lon="7.0497533865273">
        <ele>1977.0899999999999</ele>
        <time>2014-07-13T10:20:43Z</time>
      </trkpt>
      <trkpt lat="46.055496940389276" lon="7.049759421497583">
        <ele>1977.0899999999999</ele>
        <time>2014-07-13T10:21:06Z</time>
      </trkpt>
      <trkpt lat="46.055488809943199" lon="7.049765037372708">
        <ele>1977.0899999999999</ele>
        <time>2014-07-13T10:21:35Z</time>
      </trkpt>
      <trkpt lat="46.055495766922832" lon="7.04976855777204">
        <ele>1977.0899999999999</ele>
        <time>2014-07-13T10:22:05Z</time>
      </trkpt>
      <trkpt lat="46.055499538779259" lon="7.049761181697249">
        <ele>1977.0899999999999</ele>
        <time>2014-07-13T10:22:34Z</time>
      </trkpt>
      <trkpt lat="46.055487133562565" lon="7.049767468124628">
        <ele>1977.0899999999999</ele>
        <time>2014-07-13T10:23:06Z</time>
      </trkpt>
      <trkpt lat="46.055469950661063" lon="7.04975632019341">
        <ele>1977.0899999999999</ele>
        <time>2014-07-13T10:23:30Z</time>
      </trkpt>
      <trkpt lat="46.05547221377492" lon="7.049753218889237">
        <ele>1977.5699999999999</ele>
        <time>2014-07-13T10:23:58Z</time>
      </trkpt>
      <trkpt lat="46.055450001731515" lon="7.049764702096582">
        <ele>1977.5699999999999</ele>
        <time>2014-07-13T10:24:26Z</time>
      </trkpt>
      <trkpt lat="46.055446732789278" lon="7.049750536680222">
        <ele>1977.0899999999999</ele>
        <time>2014-07-13T10:24:56Z</time>
      </trkpt>
      <trkpt lat="46.055462323129177" lon="7.049740562215447">
        <ele>1977.5699999999999</ele>
        <time>2014-07-13T10:25:22Z</time>
      </trkpt>
      <trkpt lat="46.055450169369578" lon="7.049758583307266">
        <ele>1977.5699999999999</ele>
        <time>2014-07-13T10:25:58Z</time>
      </trkpt>
      <trkpt lat="46.055455869063735" lon="7.049751961603761">
        <ele>1977.5699999999999</ele>
        <time>2014-07-13T10:26:34Z</time>
      </trkpt>
      <trkpt lat="46.055464083328843" lon="7.049749698489904">
        <ele>1977.5699999999999</ele>
        <time>2014-07-13T10:27:01Z</time>
      </trkpt>
      <trkpt lat="46.05546492151916" lon="7.049750369042158">
        <ele>1977.5699999999999</ele>
        <time>2014-07-13T10:27:23Z</time>
      </trkpt>
      <trkpt lat="46.055463580414653" lon="7.04975975677371">
        <ele>1977.5699999999999</ele>
        <time>2014-07-13T10:27:42Z</time>
      </trkpt>
      <trkpt lat="46.055467184633017" lon="7.049754811450839">
        <ele>1977.5699999999999</ele>
        <time>2014-07-13T10:28:07Z</time>
      </trkpt>
      <trkpt lat="46.055484032258391" lon="7.049744250252843">
        <ele>1978.05</ele>
        <time>2014-07-13T10:28:37Z</time>
      </trkpt>
      <trkpt lat="46.055481936782598" lon="7.049746345728636">
        <ele>1978.05</ele>
        <time>2014-07-13T10:29:10Z</time>
      </trkpt>
      <trkpt lat="46.055484870448709" lon="7.049745256081224">
        <ele>1978.05</ele>
        <time>2014-07-13T10:29:37Z</time>
      </trkpt>
      <trkpt lat="46.055481852963567" lon="7.049739807844162">
        <ele>1978.05</ele>
        <time>2014-07-13T10:30:06Z</time>
      </trkpt>
      <trkpt lat="46.055471627041698" lon="7.049749447032809">
        <ele>1978.53</ele>
        <time>2014-07-13T10:30:33Z</time>
      </trkpt>
      <trkpt lat="46.05548495426774" lon="7.049750033766031">
        <ele>1978.53</ele>
        <time>2014-07-13T10:30:57Z</time>
      </trkpt>
      <trkpt lat="46.055491324514151" lon="7.049744417890906">
        <ele>1978.53</ele>
        <time>2014-07-13T10:31:15Z</time>
      </trkpt>
      <trkpt lat="46.055495766922832" lon="7.049754643812776">
        <ele>1978.53</ele>
        <time>2014-07-13T10:31:46Z</time>
      </trkpt>
      <trkpt lat="46.055486714467406" lon="7.049757074564695">
        <ele>1978.53</ele>
        <time>2014-07-13T10:32:17Z</time>
      </trkpt>
      <trkpt lat="46.055475566536188" lon="7.049760343506932">
        <ele>1978.53</ele>
        <time>2014-07-13T10:32:38Z</time>
      </trkpt>
      <trkpt lat="46.055471459403634" lon="7.04974458552897">
        <ele>1978.53</ele>
        <time>2014-07-13T10:33:08Z</time>
      </trkpt>
      <trkpt lat="46.055468022823334" lon="7.04974802210927">
        <ele>1979.01</ele>
        <time>2014-07-13T10:33:27Z</time>
      </trkpt>
      <trkpt lat="46.055469196289778" lon="7.049749027937651">
        <ele>1979.01</ele>
        <time>2014-07-13T10:33:46Z</time>
      </trkpt>
      <trkpt lat="46.055475566536188" lon="7.049761265516281">
        <ele>1979.01</ele>
        <time>2014-07-13T10:34:17Z</time>
      </trkpt>
      <trkpt lat="46.055468609556556" lon="7.049749614670873">
        <ele>1979.01</ele>
        <time>2014-07-13T10:34:53Z</time>
      </trkpt>
      <trkpt lat="46.055466262623668" lon="7.049757912755013">
        <ele>1979.49</ele>
        <time>2014-07-13T10:35:31Z</time>
      </trkpt>
      <trkpt lat="46.055475566536188" lon="7.049748692661524">
        <ele>1979.01</ele>
        <time>2014-07-13T10:36:03Z</time>
      </trkpt>
      <trkpt lat="46.055468441918492" lon="7.049752632156014">
        <ele>1979.49</ele>
        <time>2014-07-13T10:36:36Z</time>
      </trkpt>
      <trkpt lat="46.055473471060395" lon="7.049754811450839">
        <ele>1979.49</ele>
        <time>2014-07-13T10:37:16Z</time>
      </trkpt>
      <trkpt lat="46.055461652576923" lon="7.049752632156014">
        <ele>1979.49</ele>
        <time>2014-07-13T10:37:48Z</time>
      </trkpt>
      <trkpt lat="46.055458299815655" lon="7.049747267737985">
        <ele>1979.97</ele>
        <time>2014-07-13T10:38:14Z</time>
      </trkpt>
      <trkpt lat="46.05545561760664" lon="7.049739304929972">
        <ele>1979.97</ele>
        <time>2014-07-13T10:38:52Z</time>
      </trkpt>
      <trkpt lat="46.055466933175921" lon="7.049751542508602">
        <ele>1979.97</ele>
        <time>2014-07-13T10:39:24Z</time>
      </trkpt>
      <trkpt lat="46.055452600121498" lon="7.049743998795748">
        <ele>1979.49</ele>
        <time>2014-07-13T10:39:55Z</time>
      </trkpt>
      <trkpt lat="46.055454276502132" lon="7.049741232767701">
        <ele>1979.97</ele>
        <time>2014-07-13T10:40:31Z</time>
      </trkpt>
      <trkpt lat="46.055455701425672" lon="7.049735113978386">
        <ele>1979.97</ele>
        <time>2014-07-13T10:41:08Z</time>
      </trkpt>
      <trkpt lat="46.055453438311815" lon="7.04974701628089">
        <ele>1979.49</ele>
        <time>2014-07-13T10:41:44Z</time>
      </trkpt>
      <trkpt lat="46.055460646748543" lon="7.049749111756682">
        <ele>1979.49</ele>
        <time>2014-07-13T10:42:18Z</time>
      </trkpt>
      <trkpt lat="46.055463161319494" lon="7.049747267737985">
        <ele>1979.49</ele>
        <time>2014-07-13T10:42:41Z</time>
      </trkpt>
      <trkpt lat="46.055458886548877" lon="7.049742741510272">
        <ele>1979.49</ele>
        <time>2014-07-13T10:43:08Z</time>
      </trkpt>
      <trkpt lat="46.055468944832683" lon="7.0497309230268">
        <ele>1979.01</ele>
        <time>2014-07-13T10:43:43Z</time>
      </trkpt>
      <trkpt lat="46.055470034480095" lon="7.049743160605431">
        <ele>1979.49</ele>
        <time>2014-07-13T10:44:14Z</time>
      </trkpt>
      <trkpt lat="46.055462742224336" lon="7.049740059301257">
        <ele>1979.49</ele>
        <time>2014-07-13T10:44:52Z</time>
      </trkpt>
      <trkpt lat="46.055469866842031" lon="7.04973922111094">
        <ele>1979.97</ele>
        <time>2014-07-13T10:45:27Z</time>
      </trkpt>
      <trkpt lat="46.05547858402133" lon="7.049738382920623">
        <ele>1979.97</ele>
        <time>2014-07-13T10:45:54Z</time>
      </trkpt>
      <trkpt lat="46.055478416383266" lon="7.049739472568035">
        <ele>1979.97</ele>
        <time>2014-07-13T10:46:28Z</time>
      </trkpt>
      <trkpt lat="46.055469196289778" lon="7.049738382920623">
        <ele>1979.97</ele>
        <time>2014-07-13T10:46:56Z</time>
      </trkpt>
      <trkpt lat="46.055465340614319" lon="7.049741819500923">
        <ele>1979.97</ele>
        <time>2014-07-13T10:47:35Z</time>
      </trkpt>
      <trkpt lat="46.055448157712817" lon="7.049749111756682">
        <ele>1979.97</ele>
        <time>2014-07-13T10:48:09Z</time>
      </trkpt>
      <trkpt lat="46.055452600121498" lon="7.049748860299587">
        <ele>1979.49</ele>
        <time>2014-07-13T10:48:35Z</time>
      </trkpt>
      <trkpt lat="46.055461233481765" lon="7.049741903319955">
        <ele>1979.49</ele>
        <time>2014-07-13T10:49:11Z</time>
      </trkpt>
      <trkpt lat="46.055436674505472" lon="7.049733605235815">
        <ele>1979.49</ele>
        <time>2014-07-13T10:49:42Z</time>
      </trkpt>
      <trkpt lat="46.055441116914153" lon="7.049742070958018">
        <ele>1979.97</ele>
        <time>2014-07-13T10:50:18Z</time>
      </trkpt>
      <trkpt lat="46.055423347279429" lon="7.049744417890906">
        <ele>1979.97</ele>
        <time>2014-07-13T10:50:43Z</time>
      </trkpt>
      <trkpt lat="46.055426029488444" lon="7.049743412062526">
        <ele>1979.97</ele>
        <time>2014-07-13T10:51:16Z</time>
      </trkpt>
      <trkpt lat="46.055436842143536" lon="7.049738299101591">
        <ele>1979.97</ele>
        <time>2014-07-13T10:51:44Z</time>
      </trkpt>
      <trkpt lat="46.055437428876758" lon="7.049728240817785">
        <ele>1979.97</ele>
        <time>2014-07-13T10:52:05Z</time>
      </trkpt>
      <trkpt lat="46.055435333400965" lon="7.049731593579054">
        <ele>1980.45</ele>
        <time>2014-07-13T10:52:26Z</time>
      </trkpt>
      <trkpt lat="46.055424604564905" lon="7.04973285086453">
        <ele>1980.45</ele>
        <time>2014-07-13T10:53:03Z</time>
      </trkpt>
      <trkpt lat="46.055425861850381" lon="7.049726396799088">
        <ele>1980.45</ele>
        <time>2014-07-13T10:53:24Z</time>
      </trkpt>
      <trkpt lat="46.055433237925172" lon="7.049727905541658">
        <ele>1980.9300000000001</ele>
        <time>2014-07-13T10:53:48Z</time>
      </trkpt>
      <trkpt lat="46.055427370592952" lon="7.04972455278039">
        <ele>1980.9300000000001</ele>
        <time>2014-07-13T10:54:16Z</time>
      </trkpt>
      <trkpt lat="46.0554214194417" lon="7.049723798409104">
        <ele>1978.53</ele>
        <time>2014-07-13T10:54:30Z</time>
      </trkpt>
      <trkpt lat="46.05542435310781" lon="7.049726648256183">
        <ele>1980.9300000000001</ele>
        <time>2014-07-13T10:54:42Z</time>
      </trkpt>
      <trkpt lat="46.055428627878428" lon="7.049729665741324">
        <ele>1980.45</ele>
        <time>2014-07-13T10:55:18Z</time>
      </trkpt>
      <trkpt lat="46.055435668677092" lon="7.049745004624128">
        <ele>1980.45</ele>
        <time>2014-07-13T10:55:39Z</time>
      </trkpt>
      <trkpt lat="46.055448492988944" lon="7.049755230545998">
        <ele>1980.45</ele>
        <time>2014-07-13T10:56:17Z</time>
      </trkpt>
      <trkpt lat="46.055445056408644" lon="7.049741568043828">
        <ele>1979.97</ele>
        <time>2014-07-13T10:56:47Z</time>
      </trkpt>
      <trkpt lat="46.055443463847041" lon="7.04973335377872">
        <ele>1980.45</ele>
        <time>2014-07-13T10:57:17Z</time>
      </trkpt>
      <trkpt lat="46.055430890992284" lon="7.049757661297917">
        <ele>1980.45</ele>
        <time>2014-07-13T10:57:38Z</time>
      </trkpt>
      <trkpt lat="46.055441787466407" lon="7.04974559135735">
        <ele>1979.97</ele>
        <time>2014-07-13T10:58:14Z</time>
      </trkpt>
      <trkpt lat="46.055444721132517" lon="7.04974508844316">
        <ele>1979.97</ele>
        <time>2014-07-13T10:58:48Z</time>
      </trkpt>
      <trkpt lat="46.055449414998293" lon="7.04975925385952">
        <ele>1979.97</ele>
        <time>2014-07-13T10:59:25Z</time>
      </trkpt>
      <trkpt lat="46.055447235703468" lon="7.04975875094533">
        <ele>1979.97</ele>
        <time>2014-07-13T11:00:00Z</time>
      </trkpt>
      <trkpt lat="46.055459389463067" lon="7.049743747338653">
        <ele>1980.9300000000001</ele>
        <time>2014-07-13T11:00:25Z</time>
      </trkpt>
      <trkpt lat="46.055458299815655" lon="7.049761097878218">
        <ele>1980.45</ele>
        <time>2014-07-13T11:00:41Z</time>
      </trkpt>
      <trkpt lat="46.055454611778259" lon="7.049726061522961">
        <ele>1980.45</ele>
        <time>2014-07-13T11:00:57Z</time>
      </trkpt>
      <trkpt lat="46.055468861013651" lon="7.049721786752343">
        <ele>1980.9300000000001</ele>
        <time>2014-07-13T11:01:18Z</time>
      </trkpt>
      <trkpt lat="46.055472381412983" lon="7.049739388749003">
        <ele>1979.97</ele>
        <time>2014-07-13T11:01:37Z</time>
      </trkpt>
      <trkpt lat="46.055452935397625" lon="7.049753135070205">
        <ele>1979.97</ele>
        <time>2014-07-13T11:01:52Z</time>
      </trkpt>
      <trkpt lat="46.055460730567575" lon="7.049771575257182">
        <ele>1979.97</ele>
        <time>2014-07-13T11:02:18Z</time>
      </trkpt>
      <trkpt lat="46.055430388078094" lon="7.049742909148336">
        <ele>1980.45</ele>
        <time>2014-07-13T11:02:36Z</time>
      </trkpt>
      <trkpt lat="46.055437847971916" lon="7.049735449254513">
        <ele>1979.97</ele>
        <time>2014-07-13T11:02:55Z</time>
      </trkpt>
      <trkpt lat="46.055457293987274" lon="7.049742490053177">
        <ele>1979.97</ele>
        <time>2014-07-13T11:03:15Z</time>
      </trkpt>
      <trkpt lat="46.055439524352551" lon="7.049740897491574">
        <ele>1979.97</ele>
        <time>2014-07-13T11:03:41Z</time>
      </trkpt>
      <trkpt lat="46.055446648970246" lon="7.049736371263862">
        <ele>1979.49</ele>
        <time>2014-07-13T11:03:59Z</time>
      </trkpt>
      <trkpt lat="46.055442960932851" lon="7.049716087058187">
        <ele>1979.49</ele>
        <time>2014-07-13T11:04:22Z</time>
      </trkpt>
      <trkpt lat="46.055414881557226" lon="7.049619778990746">
        <ele>1980.9300000000001</ele>
        <time>2014-07-13T11:04:35Z</time>
      </trkpt>
      <trkpt lat="46.055374480783939" lon="7.049587592482567">
        <ele>1981.9000000000001</ele>
        <time>2014-07-13T11:04:43Z</time>
      </trkpt>
      <trkpt lat="46.055315556004643" lon="7.049450548365712">
        <ele>1980.9300000000001</ele>
        <time>2014-07-13T11:04:57Z</time>
      </trkpt>
      <trkpt lat="46.055259313434362" lon="7.049350384622812">
        <ele>1983.3399999999999</ele>
        <time>2014-07-13T11:05:13Z</time>
      </trkpt>
      <trkpt lat="46.055282363668084" lon="7.049239743500948">
        <ele>1985.26</ele>
        <time>2014-07-13T11:05:23Z</time>
      </trkpt>
      <trkpt lat="46.05528705753386" lon="7.049092305824161">
        <ele>1986.7</ele>
        <time>2014-07-13T11:05:38Z</time>
      </trkpt>
      <trkpt lat="46.055305581539869" lon="7.048922991380096">
        <ele>1988.1400000000001</ele>
        <time>2014-07-13T11:05:53Z</time>
      </trkpt>
      <trkpt lat="46.055337684229016" lon="7.048783767968416">
        <ele>1988.6199999999999</ele>
        <time>2014-07-13T11:06:06Z</time>
      </trkpt>
      <trkpt lat="46.055402979254723" lon="7.048724507912993">
        <ele>1989.5899999999999</ele>
        <time>2014-07-13T11:06:17Z</time>
      </trkpt>
      <trkpt lat="46.055422676727176" lon="7.048574723303318">
        <ele>1991.99</ele>
        <time>2014-07-13T11:06:31Z</time>
      </trkpt>
      <trkpt lat="46.055430890992284" lon="7.048392668366432">
        <ele>1993.9100000000001</ele>
        <time>2014-07-13T11:06:49Z</time>
      </trkpt>
      <trkpt lat="46.055428879335523" lon="7.048365846276283">
        <ele>1994.3900000000001</ele>
        <time>2014-07-13T11:06:52Z</time>
      </trkpt>
      <trkpt lat="46.055426616221666" lon="7.048339191824198">
        <ele>1994.3900000000001</ele>
        <time>2014-07-13T11:06:54Z</time>
      </trkpt>
      <trkpt lat="46.055418150499463" lon="7.048205751925707">
        <ele>1995.8299999999999</ele>
        <time>2014-07-13T11:07:07Z</time>
      </trkpt>
      <trkpt lat="46.055367439985275" lon="7.047990504652262">
        <ele>1997.28</ele>
        <time>2014-07-13T11:07:25Z</time>
      </trkpt>
      <trkpt lat="46.055331649258733" lon="7.047810042276979">
        <ele>1997.76</ele>
        <time>2014-07-13T11:07:41Z</time>
      </trkpt>
      <trkpt lat="46.05528412386775" lon="7.047624802216888">
        <ele>1998.72</ele>
        <time>2014-07-13T11:07:56Z</time>
      </trkpt>
      <trkpt lat="46.055276831611991" lon="7.047469904646277">
        <ele>1999.6800000000001</ele>
        <time>2014-07-13T11:08:09Z</time>
      </trkpt>
      <trkpt lat="46.055339695885777" lon="7.047280557453632">
        <ele>2000.6400000000001</ele>
        <time>2014-07-13T11:08:25Z</time>
      </trkpt>
      <trkpt lat="46.055345647037029" lon="7.047173352912068">
        <ele>2001.5999999999999</ele>
        <time>2014-07-13T11:08:34Z</time>
      </trkpt>
      <trkpt lat="46.055351011455059" lon="7.046965816989541">
        <ele>2003.04</ele>
        <time>2014-07-13T11:08:50Z</time>
      </trkpt>
      <trkpt lat="46.055359896272421" lon="7.046822570264339">
        <ele>2003.52</ele>
        <time>2014-07-13T11:09:00Z</time>
      </trkpt>
      <trkpt lat="46.055408595129848" lon="7.046646969392896">
        <ele>2004.01</ele>
        <time>2014-07-13T11:09:13Z</time>
      </trkpt>
      <trkpt lat="46.055410355329514" lon="7.046591900289059">
        <ele>2004.97</ele>
        <time>2014-07-13T11:09:18Z</time>
      </trkpt>
      <trkpt lat="46.055516302585602" lon="7.04640481621027">
        <ele>2004.97</ele>
        <time>2014-07-13T11:09:35Z</time>
      </trkpt>
      <trkpt lat="46.055621830746531" lon="7.046280596405268">
        <ele>2005.9300000000001</ele>
        <time>2014-07-13T11:09:51Z</time>
      </trkpt>
      <trkpt lat="46.055637672543526" lon="7.046269113197923">
        <ele>2005.9300000000001</ele>
        <time>2014-07-13T11:09:53Z</time>
      </trkpt>
      <trkpt lat="46.055690729990602" lon="7.046237848699093">
        <ele>2005.9300000000001</ele>
        <time>2014-07-13T11:09:59Z</time>
      </trkpt>
      <trkpt lat="46.055735740810633" lon="7.046237010508776">
        <ele>2005.9300000000001</ele>
        <time>2014-07-13T11:10:03Z</time>
      </trkpt>
      <trkpt lat="46.055767340585589" lon="7.046222509816289">
        <ele>2005.45</ele>
        <time>2014-07-13T11:10:06Z</time>
      </trkpt>
      <trkpt lat="46.055852500721812" lon="7.046232903376222">
        <ele>2006.4100000000001</ele>
        <time>2014-07-13T11:10:22Z</time>
      </trkpt>
      <trkpt lat="46.055951993912458" lon="7.046294091269374">
        <ele>2007.8499999999999</ele>
        <time>2014-07-13T11:10:37Z</time>
      </trkpt>
      <trkpt lat="46.056046038866043" lon="7.046254780143499">
        <ele>2008.8099999999999</ele>
        <time>2014-07-13T11:10:49Z</time>
      </trkpt>
      <trkpt lat="46.056136731058359" lon="7.046110862866044">
        <ele>2009.77</ele>
        <time>2014-07-13T11:11:05Z</time>
      </trkpt>
      <trkpt lat="46.05625256896019" lon="7.046021427959204">
        <ele>2009.29</ele>
        <time>2014-07-13T11:11:20Z</time>
      </trkpt>
      <trkpt lat="46.056350553408265" lon="7.045900477096438">
        <ele>2010.73</ele>
        <time>2014-07-13T11:11:35Z</time>
      </trkpt>
      <trkpt lat="46.056458596140146" lon="7.045783381909132">
        <ele>2010.73</ele>
        <time>2014-07-13T11:11:51Z</time>
      </trkpt>
      <trkpt lat="46.056467900052667" lon="7.045764354988933">
        <ele>2010.73</ele>
        <time>2014-07-13T11:11:53Z</time>
      </trkpt>
      <trkpt lat="46.056498661637306" lon="7.045644661411643">
        <ele>2011.7</ele>
        <time>2014-07-13T11:12:07Z</time>
      </trkpt>
      <trkpt lat="46.056523639708757" lon="7.045588754117489">
        <ele>2012.6600000000001</ele>
        <time>2014-07-13T11:12:19Z</time>
      </trkpt>
      <trkpt lat="46.056560687720776" lon="7.045546006411314">
        <ele>2012.6600000000001</ele>
        <time>2014-07-13T11:12:28Z</time>
      </trkpt>
      <trkpt lat="46.056660683825612" lon="7.045401502400637">
        <ele>2013.1400000000001</ele>
        <time>2014-07-13T11:12:44Z</time>
      </trkpt>
      <trkpt lat="46.056673508137465" lon="7.045385744422674">
        <ele>2013.6199999999999</ele>
        <time>2014-07-13T11:12:46Z</time>
      </trkpt>
      <trkpt lat="46.056754058226943" lon="7.045250628143549">
        <ele>2015.54</ele>
        <time>2014-07-13T11:13:02Z</time>
      </trkpt>
      <trkpt lat="46.056825388222933" lon="7.045128084719181">
        <ele>2017.46</ele>
        <time>2014-07-13T11:13:19Z</time>
      </trkpt>
      <trkpt lat="46.056886157020926" lon="7.045013252645731">
        <ele>2020.8299999999999</ele>
        <time>2014-07-13T11:13:38Z</time>
      </trkpt>
      <trkpt lat="46.056956648826599" lon="7.04492574557662">
        <ele>2022.27</ele>
        <time>2014-07-13T11:13:53Z</time>
      </trkpt>
      <trkpt lat="46.056995624676347" lon="7.044875873252749">
        <ele>2024.1900000000001</ele>
        <time>2014-07-13T11:14:05Z</time>
      </trkpt>
      <trkpt lat="46.057046167552471" lon="7.044789791107178">
        <ele>2025.6400000000001</ele>
        <time>2014-07-13T11:14:18Z</time>
      </trkpt>
      <trkpt lat="46.057120934128761" lon="7.044708486646414">
        <ele>2027.5599999999999</ele>
        <time>2014-07-13T11:14:33Z</time>
      </trkpt>
      <trkpt lat="46.057193521410227" lon="7.044660625979304">
        <ele>2029.48</ele>
        <time>2014-07-13T11:14:47Z</time>
      </trkpt>
      <trkpt lat="46.057298881933093" lon="7.044591056182981">
        <ele>2030.9200000000001</ele>
        <time>2014-07-13T11:15:03Z</time>
      </trkpt>
      <trkpt lat="46.057370211929083" lon="7.044574543833733">
        <ele>2032.3599999999999</ele>
        <time>2014-07-13T11:15:13Z</time>
      </trkpt>
      <trkpt lat="46.057461490854621" lon="7.044537495821714">
        <ele>2034.29</ele>
        <time>2014-07-13T11:15:28Z</time>
      </trkpt>
      <trkpt lat="46.057524690404534" lon="7.044507069513202">
        <ele>2035.73</ele>
        <time>2014-07-13T11:15:42Z</time>
      </trkpt>
      <trkpt lat="46.057547573000193" lon="7.044484186917543">
        <ele>2038.1300000000001</ele>
        <time>2014-07-13T11:15:56Z</time>
      </trkpt>
      <trkpt lat="46.057562157511711" lon="7.044482929632068">
        <ele>2037.1700000000001</ele>
        <time>2014-07-13T11:16:06Z</time>
      </trkpt>
      <trkpt lat="46.057566683739424" lon="7.044473206624389">
        <ele>2037.1700000000001</ele>
        <time>2014-07-13T11:16:34Z</time>
      </trkpt>
      <trkpt lat="46.057576239109039" lon="7.044459460303187">
        <ele>2038.1300000000001</ele>
        <time>2014-07-13T11:16:45Z</time>
      </trkpt>
      <trkpt lat="46.057555871084332" lon="7.044447725638747">
        <ele>2038.1300000000001</ele>
        <time>2014-07-13T11:17:03Z</time>
      </trkpt>
      <trkpt lat="46.057539442554116" lon="7.04442978836596">
        <ele>2039.0899999999999</ele>
        <time>2014-07-13T11:17:19Z</time>
      </trkpt>
      <trkpt lat="46.057535503059626" lon="7.044410593807697">
        <ele>2039.5699999999999</ele>
        <time>2014-07-13T11:17:39Z</time>
      </trkpt>
      <trkpt lat="46.057453695684671" lon="7.044380335137248">
        <ele>2041.98</ele>
        <time>2014-07-13T11:17:53Z</time>
      </trkpt>
      <trkpt lat="46.057420251891017" lon="7.044340437278152">
        <ele>2043.4200000000001</ele>
        <time>2014-07-13T11:18:08Z</time>
      </trkpt>
      <trkpt lat="46.057357806712389" lon="7.044258713722229">
        <ele>2046.78</ele>
        <time>2014-07-13T11:18:25Z</time>
      </trkpt>
      <trkpt lat="46.057310868054628" lon="7.044208673760295">
        <ele>2049.1900000000001</ele>
        <time>2014-07-13T11:18:39Z</time>
      </trkpt>
      <trkpt lat="46.057316986843944" lon="7.044123848900199">
        <ele>2049.6700000000001</ele>
        <time>2014-07-13T11:18:55Z</time>
      </trkpt>
      <trkpt lat="46.057312963530421" lon="7.044070875272155">
        <ele>2049.6700000000001</ele>
        <time>2014-07-13T11:19:10Z</time>
      </trkpt>
      <trkpt lat="46.057260241359472" lon="7.043926035985351">
        <ele>2046.3</ele>
        <time>2014-07-13T11:19:23Z</time>
      </trkpt>
      <trkpt lat="46.057256469503045" lon="7.043913882225752">
        <ele>2046.3</ele>
        <time>2014-07-13T11:19:24Z</time>
      </trkpt>
      <trkpt lat="46.057230401784182" lon="7.043771892786026">
        <ele>2044.3800000000001</ele>
        <time>2014-07-13T11:19:34Z</time>
      </trkpt>
      <trkpt lat="46.057288991287351" lon="7.043538372963667">
        <ele>2041.5</ele>
        <time>2014-07-13T11:19:50Z</time>
      </trkpt>
      <trkpt lat="46.057313298806548" lon="7.043395293876529">
        <ele>2039.5699999999999</ele>
        <time>2014-07-13T11:20:01Z</time>
      </trkpt>
      <trkpt lat="46.057374319061637" lon="7.043259171769023">
        <ele>2038.1300000000001</ele>
        <time>2014-07-13T11:20:14Z</time>
      </trkpt>
      <trkpt lat="46.057489905506372" lon="7.043146435171366">
        <ele>2036.21</ele>
        <time>2014-07-13T11:20:30Z</time>
      </trkpt>
      <trkpt lat="46.05755771510303" lon="7.042961530387402">
        <ele>2035.25</ele>
        <time>2014-07-13T11:20:48Z</time>
      </trkpt>
      <trkpt lat="46.057513458654284" lon="7.042832281440496">
        <ele>2031.8800000000001</ele>
        <time>2014-07-13T11:21:02Z</time>
      </trkpt>
      <trkpt lat="46.057527288794518" lon="7.042731698602438">
        <ele>2029.48</ele>
        <time>2014-07-13T11:21:11Z</time>
      </trkpt>
      <trkpt lat="46.057541035115719" lon="7.04254562035203">
        <ele>2026.5999999999999</ele>
        <time>2014-07-13T11:21:26Z</time>
      </trkpt>
      <trkpt lat="46.057573389261961" lon="7.042366750538349">
        <ele>2025.6400000000001</ele>
        <time>2014-07-13T11:21:40Z</time>
      </trkpt>
      <trkpt lat="46.057641617953777" lon="7.042235154658556">
        <ele>2024.1900000000001</ele>
        <time>2014-07-13T11:21:56Z</time>
      </trkpt>
      <trkpt lat="46.057670200243592" lon="7.042115041986108">
        <ele>2024.1900000000001</ele>
        <time>2014-07-13T11:22:10Z</time>
      </trkpt>
      <trkpt lat="46.057767933234572" lon="7.041999958455563">
        <ele>2024.6700000000001</ele>
        <time>2014-07-13T11:22:25Z</time>
      </trkpt>
      <trkpt lat="46.057850494980812" lon="7.041823351755738">
        <ele>2025.1500000000001</ele>
        <time>2014-07-13T11:22:41Z</time>
      </trkpt>
      <trkpt lat="46.057869354262948" lon="7.041655713692308">
        <ele>2025.6400000000001</ele>
        <time>2014-07-13T11:22:55Z</time>
      </trkpt>
      <trkpt lat="46.057858793064952" lon="7.041558567434549">
        <ele>2026.1199999999999</ele>
        <time>2014-07-13T11:23:04Z</time>
      </trkpt>
      <trkpt lat="46.057866839691997" lon="7.041455805301666">
        <ele>2025.6400000000001</ele>
        <time>2014-07-13T11:23:12Z</time>
      </trkpt>
      <trkpt lat="46.057874215766788" lon="7.041258411481977">
        <ele>2025.6400000000001</ele>
        <time>2014-07-13T11:23:26Z</time>
      </trkpt>
      <trkpt lat="46.057865414768457" lon="7.04117794521153">
        <ele>2025.6400000000001</ele>
        <time>2014-07-13T11:23:32Z</time>
      </trkpt>
      <trkpt lat="46.057875473052263" lon="7.040950208902359">
        <ele>2025.1500000000001</ele>
        <time>2014-07-13T11:23:46Z</time>
      </trkpt>
      <trkpt lat="46.057880921289325" lon="7.04074208624661">
        <ele>2024.1900000000001</ele>
        <time>2014-07-13T11:24:01Z</time>
      </trkpt>
      <trkpt lat="46.057840520516038" lon="7.040635468438268">
        <ele>2023.71</ele>
        <time>2014-07-13T11:24:10Z</time>
      </trkpt>
      <trkpt lat="46.057741530239582" lon="7.040522815659642">
        <ele>2020.8299999999999</ele>
        <time>2014-07-13T11:24:25Z</time>
      </trkpt>
      <trkpt lat="46.057700961828232" lon="7.040455844253302">
        <ele>2019.3900000000001</ele>
        <time>2014-07-13T11:24:33Z</time>
      </trkpt>
      <trkpt lat="46.057604905217886" lon="7.040245542302728">
        <ele>2016.5</ele>
        <time>2014-07-13T11:24:50Z</time>
      </trkpt>
      <trkpt lat="46.057587889954448" lon="7.04021142795682">
        <ele>2016.02</ele>
        <time>2014-07-13T11:24:53Z</time>
      </trkpt>
      <trkpt lat="46.057519996538758" lon="7.040088381618261">
        <ele>2014.5799999999999</ele>
        <time>2014-07-13T11:25:04Z</time>
      </trkpt>
      <trkpt lat="46.057495940476656" lon="7.039903057739139">
        <ele>2011.22</ele>
        <time>2014-07-13T11:25:19Z</time>
      </trkpt>
      <trkpt lat="46.057450426742435" lon="7.039737263694406">
        <ele>2008.8099999999999</ele>
        <time>2014-07-13T11:25:31Z</time>
      </trkpt>
      <trkpt lat="46.057452438399196" lon="7.039555292576551">
        <ele>2005.9300000000001</ele>
        <time>2014-07-13T11:25:46Z</time>
      </trkpt>
      <trkpt lat="46.057483786717057" lon="7.039401400834322">
        <ele>2004.01</ele>
        <time>2014-07-13T11:25:59Z</time>
      </trkpt>
      <trkpt lat="46.057514296844602" lon="7.039225213229656">
        <ele>2000.6400000000001</ele>
        <time>2014-07-13T11:26:14Z</time>
      </trkpt>
      <trkpt lat="46.057538352906704" lon="7.039081547409296">
        <ele>1997.28</ele>
        <time>2014-07-13T11:26:26Z</time>
      </trkpt>
      <trkpt lat="46.05754304677248" lon="7.039025388658047">
        <ele>1996.3199999999999</ele>
        <time>2014-07-13T11:26:31Z</time>
      </trkpt>
      <trkpt lat="46.057594763115048" lon="7.038868647068739">
        <ele>1992.95</ele>
        <time>2014-07-13T11:26:44Z</time>
      </trkpt>
      <trkpt lat="46.05759241618216" lon="7.038789270445705">
        <ele>1991.99</ele>
        <time>2014-07-13T11:26:56Z</time>
      </trkpt>
      <trkpt lat="46.05758554302156" lon="7.03866446390748">
        <ele>1991.51</ele>
        <time>2014-07-13T11:27:10Z</time>
      </trkpt>
      <trkpt lat="46.057586465030909" lon="7.038631942123175">
        <ele>1990.55</ele>
        <time>2014-07-13T11:27:14Z</time>
      </trkpt>
      <trkpt lat="46.057569198310375" lon="7.038498669862747">
        <ele>1987.6600000000001</ele>
        <time>2014-07-13T11:27:28Z</time>
      </trkpt>
      <trkpt lat="46.057610353454947" lon="7.038323320448399">
        <ele>1984.78</ele>
        <time>2014-07-13T11:27:44Z</time>
      </trkpt>
      <trkpt lat="46.057630889117718" lon="7.038208991289139">
        <ele>1982.3800000000001</ele>
        <time>2014-07-13T11:27:56Z</time>
      </trkpt>
      <trkpt lat="46.057613706216216" lon="7.03807907178998">
        <ele>1979.97</ele>
        <time>2014-07-13T11:28:08Z</time>
      </trkpt>
      <trkpt lat="46.057626195251942" lon="7.037909422069788">
        <ele>1977.0899999999999</ele>
        <time>2014-07-13T11:28:22Z</time>
      </trkpt>
      <trkpt lat="46.057632984593511" lon="7.037757374346256">
        <ele>1974.6900000000001</ele>
        <time>2014-07-13T11:28:35Z</time>
      </trkpt>
      <trkpt lat="46.057645473629236" lon="7.037630304694176">
        <ele>1971.3199999999999</ele>
        <time>2014-07-13T11:28:47Z</time>
      </trkpt>
      <trkpt lat="46.057646060362458" lon="7.037594011053443">
        <ele>1970.8399999999999</ele>
        <time>2014-07-13T11:28:51Z</time>
      </trkpt>
      <trkpt lat="46.057642791420221" lon="7.037407094612718">
        <ele>1968.4400000000001</ele>
        <time>2014-07-13T11:29:05Z</time>
      </trkpt>
      <trkpt lat="46.057640444487333" lon="7.03722252510488">
        <ele>1966.99</ele>
        <time>2014-07-13T11:29:18Z</time>
      </trkpt>
      <trkpt lat="46.057633571326733" lon="7.037058491259813">
        <ele>1965.0699999999999</ele>
        <time>2014-07-13T11:29:33Z</time>
      </trkpt>
      <trkpt lat="46.057655783370137" lon="7.036930415779352">
        <ele>1961.71</ele>
        <time>2014-07-13T11:29:46Z</time>
      </trkpt>
      <trkpt lat="46.057647150009871" lon="7.036788929253817">
        <ele>1958.8199999999999</ele>
        <time>2014-07-13T11:30:00Z</time>
      </trkpt>
      <trkpt lat="46.057676067575812" lon="7.03667133115232">
        <ele>1955.9400000000001</ele>
        <time>2014-07-13T11:30:13Z</time>
      </trkpt>
      <trkpt lat="46.057681683450937" lon="7.036555241793394">
        <ele>1952.5699999999999</ele>
        <time>2014-07-13T11:30:25Z</time>
      </trkpt>
      <trkpt lat="46.057668104767799" lon="7.036437643691897">
        <ele>1950.1700000000001</ele>
        <time>2014-07-13T11:30:37Z</time>
      </trkpt>
      <trkpt lat="46.05768277309835" lon="7.036294480785728">
        <ele>1947.77</ele>
        <time>2014-07-13T11:30:51Z</time>
      </trkpt>
      <trkpt lat="46.057664835825562" lon="7.036134637892246">
        <ele>1944.4000000000001</ele>
        <time>2014-07-13T11:31:05Z</time>
      </trkpt>
      <trkpt lat="46.05765980668366" lon="7.036122400313616">
        <ele>1944.4000000000001</ele>
        <time>2014-07-13T11:31:06Z</time>
      </trkpt>
      <trkpt lat="46.057611107826233" lon="7.03599700704217">
        <ele>1942.48</ele>
        <time>2014-07-13T11:31:20Z</time>
      </trkpt>
      <trkpt lat="46.057609096169472" lon="7.035986194387078">
        <ele>1942</ele>
        <time>2014-07-13T11:31:22Z</time>
      </trkpt>
      <trkpt lat="46.05755721218884" lon="7.035825932398439">
        <ele>1939.5999999999999</ele>
        <time>2014-07-13T11:31:37Z</time>
      </trkpt>
      <trkpt lat="46.05748294852674" lon="7.035748399794102">
        <ele>1938.1600000000001</ele>
        <time>2014-07-13T11:31:52Z</time>
      </trkpt>
      <trkpt lat="46.057396866381168" lon="7.03569995239377">
        <ele>1935.27</ele>
        <time>2014-07-13T11:32:05Z</time>
      </trkpt>
      <trkpt lat="46.057364428415895" lon="7.035645050927997">
        <ele>1933.8299999999999</ele>
        <time>2014-07-13T11:32:18Z</time>
      </trkpt>
      <trkpt lat="46.057284967973828" lon="7.035587802529335">
        <ele>1930.95</ele>
        <time>2014-07-13T11:32:30Z</time>
      </trkpt>
      <trkpt lat="46.057197460904717" lon="7.035560896620154">
        <ele>1928.0599999999999</ele>
        <time>2014-07-13T11:32:44Z</time>
      </trkpt>
      <trkpt lat="46.057099308818579" lon="7.035520412027836">
        <ele>1924.7</ele>
        <time>2014-07-13T11:32:57Z</time>
      </trkpt>
      <trkpt lat="46.056989505887032" lon="7.035491829738021">
        <ele>1922.29</ele>
        <time>2014-07-13T11:33:11Z</time>
      </trkpt>
      <trkpt lat="46.056957319378853" lon="7.035484788939357">
        <ele>1920.8499999999999</ele>
        <time>2014-07-13T11:33:17Z</time>
      </trkpt>
      <trkpt lat="46.056814994663" lon="7.035483196377754">
        <ele>1917.97</ele>
        <time>2014-07-13T11:33:33Z</time>
      </trkpt>
      <trkpt lat="46.056698318570852" lon="7.035433240234852">
        <ele>1915.5599999999999</ele>
        <time>2014-07-13T11:33:46Z</time>
      </trkpt>
      <trkpt lat="46.056606536731124" lon="7.035424690693617">
        <ele>1912.6800000000001</ele>
        <time>2014-07-13T11:33:59Z</time>
      </trkpt>
      <trkpt lat="46.056522969156504" lon="7.035352354869247">
        <ele>1909.8</ele>
        <time>2014-07-13T11:34:13Z</time>
      </trkpt>
      <trkpt lat="46.05643043294549" lon="7.035306170582771">
        <ele>1906.9100000000001</ele>
        <time>2014-07-13T11:34:26Z</time>
      </trkpt>
      <trkpt lat="46.056327000260353" lon="7.035209611058235">
        <ele>1904.03</ele>
        <time>2014-07-13T11:34:41Z</time>
      </trkpt>
      <trkpt lat="46.056336639449" lon="7.035219920799136">
        <ele>1903.55</ele>
        <time>2014-07-13T11:34:55Z</time>
      </trkpt>
      <trkpt lat="46.056262878701091" lon="7.035153284668922">
        <ele>1902.5899999999999</ele>
        <time>2014-07-13T11:35:14Z</time>
      </trkpt>
      <trkpt lat="46.056183837354183" lon="7.035054713487625">
        <ele>1899.22</ele>
        <time>2014-07-13T11:35:28Z</time>
      </trkpt>
      <trkpt lat="46.05611770413816" lon="7.034991262480617">
        <ele>1896.8199999999999</ele>
        <time>2014-07-13T11:35:41Z</time>
      </trkpt>
      <trkpt lat="46.056118290871382" lon="7.034979946911335">
        <ele>1896.3399999999999</ele>
        <time>2014-07-13T11:35:42Z</time>
      </trkpt>
      <trkpt lat="46.05604394339025" lon="7.034835610538721">
        <ele>1892.97</ele>
        <time>2014-07-13T11:35:57Z</time>
      </trkpt>
      <trkpt lat="46.05596574023366" lon="7.034733183681965">
        <ele>1891.05</ele>
        <time>2014-07-13T11:36:10Z</time>
      </trkpt>
      <trkpt lat="46.05595744214952" lon="7.034733183681965">
        <ele>1890.5699999999999</ele>
        <time>2014-07-13T11:36:11Z</time>
      </trkpt>
      <trkpt lat="46.055900529026985" lon="7.034674594178796">
        <ele>1889.6099999999999</ele>
        <time>2014-07-13T11:36:19Z</time>
      </trkpt>
      <trkpt lat="46.05584898032248" lon="7.034510811790824">
        <ele>1887.6900000000001</ele>
        <time>2014-07-13T11:36:32Z</time>
      </trkpt>
      <trkpt lat="46.055846884846687" lon="7.034312495961785">
        <ele>1886.72</ele>
        <time>2014-07-13T11:36:45Z</time>
      </trkpt>
      <trkpt lat="46.055805562064052" lon="7.034120969474316">
        <ele>1885.28</ele>
        <time>2014-07-13T11:37:00Z</time>
      </trkpt>
      <trkpt lat="46.055820984765887" lon="7.034058440476656">
        <ele>1884.8</ele>
        <time>2014-07-13T11:37:15Z</time>
      </trkpt>
      <trkpt lat="46.055833641439676" lon="7.033928772434592">
        <ele>1883.8399999999999</ele>
        <time>2014-07-13T11:37:28Z</time>
      </trkpt>
      <trkpt lat="46.05585778132081" lon="7.033828608691692">
        <ele>1882.8800000000001</ele>
        <time>2014-07-13T11:37:36Z</time>
      </trkpt>
      <trkpt lat="46.055916287004948" lon="7.03371754847467">
        <ele>1880.96</ele>
        <time>2014-07-13T11:37:46Z</time>
      </trkpt>
      <trkpt lat="46.055936738848686" lon="7.033569356426597">
        <ele>1880.48</ele>
        <time>2014-07-13T11:37:56Z</time>
      </trkpt>
      <trkpt lat="46.055975127965212" lon="7.033542701974511">
        <ele>1880.48</ele>
        <time>2014-07-13T11:38:00Z</time>
      </trkpt>
      <trkpt lat="46.056005721911788" lon="7.033521998673677">
        <ele>1880</ele>
        <time>2014-07-13T11:38:03Z</time>
      </trkpt>
      <trkpt lat="46.0560810752213" lon="7.033544378355146">
        <ele>1880</ele>
        <time>2014-07-13T11:38:11Z</time>
      </trkpt>
      <trkpt lat="46.056100185960531" lon="7.033574134111404">
        <ele>1880</ele>
        <time>2014-07-13T11:38:24Z</time>
      </trkpt>
      <trkpt lat="46.056127343326807" lon="7.033570362254977">
        <ele>1880</ele>
        <time>2014-07-13T11:38:52Z</time>
      </trkpt>
      <trkpt lat="46.056096497923136" lon="7.033555945381522">
        <ele>1880</ele>
        <time>2014-07-13T11:39:03Z</time>
      </trkpt>
      <trkpt lat="46.056037992238998" lon="7.033495008945465">
        <ele>1880.48</ele>
        <time>2014-07-13T11:39:11Z</time>
      </trkpt>
      <trkpt lat="46.055992394685745" lon="7.033375902101398">
        <ele>1880.48</ele>
        <time>2014-07-13T11:39:26Z</time>
      </trkpt>
      <trkpt lat="46.056006979197264" lon="7.033347655087709">
        <ele>1880.48</ele>
        <time>2014-07-13T11:39:29Z</time>
      </trkpt>
      <trkpt lat="46.056048972532153" lon="7.033253107219935">
        <ele>1880</ele>
        <time>2014-07-13T11:39:43Z</time>
      </trkpt>
      <trkpt lat="46.056067496538162" lon="7.033243551850319">
        <ele>1880</ele>
        <time>2014-07-13T11:39:55Z</time>
      </trkpt>
      <trkpt lat="46.056062551215291" lon="7.033239109441638">
        <ele>1880</ele>
        <time>2014-07-13T11:40:13Z</time>
      </trkpt>
      <trkpt lat="46.056066155433655" lon="7.033247994259">
        <ele>1880</ele>
        <time>2014-07-13T11:40:33Z</time>
      </trkpt>
      <trkpt lat="46.056056600064039" lon="7.033260734751821">
        <ele>1880.48</ele>
        <time>2014-07-13T11:40:58Z</time>
      </trkpt>
      <trkpt lat="46.056062048301101" lon="7.033251095563173">
        <ele>1880</ele>
        <time>2014-07-13T11:41:18Z</time>
      </trkpt>
      <trkpt lat="46.056058276444674" lon="7.033267607912421">
        <ele>1880</ele>
        <time>2014-07-13T11:41:42Z</time>
      </trkpt>
      <trkpt lat="46.05609230697155" lon="7.033211532980204">
        <ele>1880</ele>
        <time>2014-07-13T11:42:00Z</time>
      </trkpt>
      <trkpt lat="46.056136060506105" lon="7.033091420307756">
        <ele>1880</ele>
        <time>2014-07-13T11:42:10Z</time>
      </trkpt>
      <trkpt lat="46.056153494864702" lon="7.03306962735951">
        <ele>1880</ele>
        <time>2014-07-13T11:42:12Z</time>
      </trkpt>
      <trkpt lat="46.056190375238657" lon="7.032960997894406">
        <ele>1880</ele>
        <time>2014-07-13T11:42:21Z</time>
      </trkpt>
      <trkpt lat="46.056200601160526" lon="7.032885225489736">
        <ele>1880</ele>
        <time>2014-07-13T11:42:27Z</time>
      </trkpt>
      <trkpt lat="46.056193560361862" lon="7.032862175256014">
        <ele>1880</ele>
        <time>2014-07-13T11:42:29Z</time>
      </trkpt>
      <trkpt lat="46.056225579231977" lon="7.032643491402268">
        <ele>1878.55</ele>
        <time>2014-07-13T11:42:44Z</time>
      </trkpt>
      <trkpt lat="46.056223902851343" lon="7.032603258267045">
        <ele>1878.55</ele>
        <time>2014-07-13T11:42:47Z</time>
      </trkpt>
      <trkpt lat="46.056241169571877" lon="7.03238314948976">
        <ele>1877.5899999999999</ele>
        <time>2014-07-13T11:43:01Z</time>
      </trkpt>
      <trkpt lat="46.056254915893078" lon="7.032345766201615">
        <ele>1877.5899999999999</ele>
        <time>2014-07-13T11:43:13Z</time>
      </trkpt>
      <trkpt lat="46.056258771568537" lon="7.032283572480083">
        <ele>1877.5899999999999</ele>
        <time>2014-07-13T11:43:38Z</time>
      </trkpt>
      <trkpt lat="46.056246114894748" lon="7.032203190028667">
        <ele>1877.5899999999999</ele>
        <time>2014-07-13T11:43:43Z</time>
      </trkpt>
      <trkpt lat="46.056239744648337" lon="7.032080395147204">
        <ele>1875.6700000000001</ele>
        <time>2014-07-13T11:43:59Z</time>
      </trkpt>
      <trkpt lat="46.05627209879458" lon="7.031929520890117">
        <ele>1872.3</ele>
        <time>2014-07-13T11:44:11Z</time>
      </trkpt>
      <trkpt lat="46.056277463212609" lon="7.031880151480436">
        <ele>1871.3399999999999</ele>
        <time>2014-07-13T11:44:15Z</time>
      </trkpt>
      <trkpt lat="46.056349463760853" lon="7.03169465996325">
        <ele>1868.9400000000001</ele>
        <time>2014-07-13T11:44:29Z</time>
      </trkpt>
      <trkpt lat="46.056348374113441" lon="7.031676387414336">
        <ele>1867.02</ele>
        <time>2014-07-13T11:44:31Z</time>
      </trkpt>
      <trkpt lat="46.056398078799248" lon="7.031434653326869">
        <ele>1866.0599999999999</ele>
        <time>2014-07-13T11:44:46Z</time>
      </trkpt>
      <trkpt lat="46.056465469300747" lon="7.031316552311182">
        <ele>1864.6099999999999</ele>
        <time>2014-07-13T11:44:56Z</time>
      </trkpt>
      <trkpt lat="46.056491788476706" lon="7.031261818483472">
        <ele>1863.6500000000001</ele>
        <time>2014-07-13T11:45:00Z</time>
      </trkpt>
      <trkpt lat="46.056513665243983" lon="7.031199289485812">
        <ele>1860.77</ele>
        <time>2014-07-13T11:45:06Z</time>
      </trkpt>
      <trkpt lat="46.056523052975535" lon="7.031170120462775">
        <ele>1859.8099999999999</ele>
        <time>2014-07-13T11:45:09Z</time>
      </trkpt>
      <trkpt lat="46.056579211726785" lon="7.030983371660113">
        <ele>1858.3699999999999</ele>
        <time>2014-07-13T11:45:22Z</time>
      </trkpt>
      <trkpt lat="46.056626318022609" lon="7.030917657539249">
        <ele>1857.4000000000001</ele>
        <time>2014-07-13T11:45:28Z</time>
      </trkpt>
      <trkpt lat="46.056698234751821" lon="7.030679360032082">
        <ele>1856.9200000000001</ele>
        <time>2014-07-13T11:45:45Z</time>
      </trkpt>
      <trkpt lat="46.056729163974524" lon="7.030583890154958">
        <ele>1856.9200000000001</ele>
        <time>2014-07-13T11:45:52Z</time>
      </trkpt>
      <trkpt lat="46.056760679930449" lon="7.030532928183675">
        <ele>1856.4400000000001</ele>
        <time>2014-07-13T11:45:56Z</time>
      </trkpt>
      <trkpt lat="46.056825639680028" lon="7.030414324253798">
        <ele>1855.96</ele>
        <time>2014-07-13T11:46:05Z</time>
      </trkpt>
      <trkpt lat="46.056844582781196" lon="7.030381048098207">
        <ele>1855.96</ele>
        <time>2014-07-13T11:46:08Z</time>
      </trkpt>
      <trkpt lat="46.056871572509408" lon="7.030311226844788">
        <ele>1855.48</ele>
        <time>2014-07-13T11:46:12Z</time>
      </trkpt>
      <trkpt lat="46.056939130648971" lon="7.030177032575011">
        <ele>1854.52</ele>
        <time>2014-07-13T11:46:22Z</time>
      </trkpt>
      <trkpt lat="46.057003252208233" lon="7.030086843296886">
        <ele>1854.04</ele>
        <time>2014-07-13T11:46:31Z</time>
      </trkpt>
      <trkpt lat="46.057040970772505" lon="7.030054153874517">
        <ele>1854.04</ele>
        <time>2014-07-13T11:46:35Z</time>
      </trkpt>
      <trkpt lat="46.057157982140779" lon="7.029913756996393">
        <ele>1852.5999999999999</ele>
        <time>2014-07-13T11:46:51Z</time>
      </trkpt>
      <trkpt lat="46.057174243032932" lon="7.029887270182371">
        <ele>1851.6400000000001</ele>
        <time>2014-07-13T11:46:55Z</time>
      </trkpt>
      <trkpt lat="46.057237610220909" lon="7.029845109209418">
        <ele>1850.6800000000001</ele>
        <time>2014-07-13T11:47:07Z</time>
      </trkpt>
      <trkpt lat="46.057314556092024" lon="7.029824992641807">
        <ele>1850.6800000000001</ele>
        <time>2014-07-13T11:47:22Z</time>
      </trkpt>
      <trkpt lat="46.057334169745445" lon="7.029785346239805">
        <ele>1848.75</ele>
        <time>2014-07-13T11:47:25Z</time>
      </trkpt>
      <trkpt lat="46.057443721219897" lon="7.029652073979378">
        <ele>1846.8299999999999</ele>
        <time>2014-07-13T11:47:39Z</time>
      </trkpt>
      <trkpt lat="46.05745361186564" lon="7.029647547751665">
        <ele>1846.8299999999999</ele>
        <time>2014-07-13T11:47:40Z</time>
      </trkpt>
      <trkpt lat="46.057489486411214" lon="7.029640506953001">
        <ele>1846.3499999999999</ele>
        <time>2014-07-13T11:47:44Z</time>
      </trkpt>
      <trkpt lat="46.057529803365469" lon="7.029610332101584">
        <ele>1845.8699999999999</ele>
        <time>2014-07-13T11:47:48Z</time>
      </trkpt>
      <trkpt lat="46.057622255757451" lon="7.029547886922956">
        <ele>1844.4300000000001</ele>
        <time>2014-07-13T11:48:02Z</time>
      </trkpt>
      <trkpt lat="46.057656789198518" lon="7.029532631859183">
        <ele>1843.95</ele>
        <time>2014-07-13T11:48:06Z</time>
      </trkpt>
      <trkpt lat="46.057753348723054" lon="7.029409417882562">
        <ele>1842.5</ele>
        <time>2014-07-13T11:48:20Z</time>
      </trkpt>
      <trkpt lat="46.057865163311362" lon="7.029355773702264">
        <ele>1842.02</ele>
        <time>2014-07-13T11:48:33Z</time>
      </trkpt>
      <trkpt lat="46.058026598766446" lon="7.029353091493249">
        <ele>1841.54</ele>
        <time>2014-07-13T11:48:48Z</time>
      </trkpt>
      <trkpt lat="46.058170096948743" lon="7.029261393472552">
        <ele>1841.54</ele>
        <time>2014-07-13T11:49:03Z</time>
      </trkpt>
      <trkpt lat="46.058232458308339" lon="7.029060982167721">
        <ele>1841.54</ele>
        <time>2014-07-13T11:49:18Z</time>
      </trkpt>
      <trkpt lat="46.058264477178454" lon="7.028837269172072">
        <ele>1841.0599999999999</ele>
        <time>2014-07-13T11:49:36Z</time>
      </trkpt>
      <trkpt lat="46.058312337845564" lon="7.028597882017493">
        <ele>1839.6199999999999</ele>
        <time>2014-07-13T11:49:52Z</time>
      </trkpt>
      <trkpt lat="46.058343518525362" lon="7.028482127934694">
        <ele>1839.1400000000001</ele>
        <time>2014-07-13T11:50:01Z</time>
      </trkpt>
      <trkpt lat="46.05839716270566" lon="7.028314238414168">
        <ele>1837.22</ele>
        <time>2014-07-13T11:50:16Z</time>
      </trkpt>
      <trkpt lat="46.058427924290299" lon="7.028135703876615">
        <ele>1834.8099999999999</ele>
        <time>2014-07-13T11:50:32Z</time>
      </trkpt>
      <trkpt lat="46.058463463559747" lon="7.027947278693318">
        <ele>1832.4100000000001</ele>
        <time>2014-07-13T11:50:46Z</time>
      </trkpt>
      <trkpt lat="46.058451225981116" lon="7.027862872928381">
        <ele>1830.97</ele>
        <time>2014-07-13T11:50:53Z</time>
      </trkpt>
      <trkpt lat="46.05843672528863" lon="7.027838062494993">
        <ele>1830.49</ele>
        <time>2014-07-13T11:50:56Z</time>
      </trkpt>
      <trkpt lat="46.05844946578145" lon="7.027736306190491">
        <ele>1829.05</ele>
        <time>2014-07-13T11:51:04Z</time>
      </trkpt>
      <trkpt lat="46.05845969170332" lon="7.027577804401517">
        <ele>1827.1199999999999</ele>
        <time>2014-07-13T11:51:13Z</time>
      </trkpt>
      <trkpt lat="46.058467067778111" lon="7.027541678398848">
        <ele>1826.6400000000001</ele>
        <time>2014-07-13T11:51:15Z</time>
      </trkpt>
      <trkpt lat="46.058480814099312" lon="7.027319222688675">
        <ele>1823.28</ele>
        <time>2014-07-13T11:51:31Z</time>
      </trkpt>
      <trkpt lat="46.058481317013502" lon="7.027309415861964">
        <ele>1823.28</ele>
        <time>2014-07-13T11:51:32Z</time>
      </trkpt>
      <trkpt lat="46.05847436003387" lon="7.027127193287015">
        <ele>1819.9100000000001</ele>
        <time>2014-07-13T11:51:47Z</time>
      </trkpt>
      <trkpt lat="46.058473521843553" lon="7.0269915740937">
        <ele>1817.03</ele>
        <time>2014-07-13T11:51:59Z</time>
      </trkpt>
      <trkpt lat="46.058461535722017" lon="7.026885291561484">
        <ele>1814.6300000000001</ele>
        <time>2014-07-13T11:52:07Z</time>
      </trkpt>
      <trkpt lat="46.058363215997815" lon="7.02674531377852">
        <ele>1811.74</ele>
        <time>2014-07-13T11:52:23Z</time>
      </trkpt>
      <trkpt lat="46.058289119973779" lon="7.026639534160495">
        <ele>1808.8599999999999</ele>
        <time>2014-07-13T11:52:36Z</time>
      </trkpt>
      <trkpt lat="46.058234889060259" lon="7.026536855846643">
        <ele>1805.49</ele>
        <time>2014-07-13T11:52:50Z</time>
      </trkpt>
      <trkpt lat="46.058171857148409" lon="7.026469800621271">
        <ele>1803.5699999999999</ele>
        <time>2014-07-13T11:53:05Z</time>
      </trkpt>
      <trkpt lat="46.05815727263689" lon="7.02635589055717">
        <ele>1800.6900000000001</ele>
        <time>2014-07-13T11:53:19Z</time>
      </trkpt>
      <trkpt lat="46.058126846328378" lon="7.026245752349496">
        <ele>1798.28</ele>
        <time>2014-07-13T11:53:31Z</time>
      </trkpt>
      <trkpt lat="46.058064233511686" lon="7.026136787608266">
        <ele>1795.8800000000001</ele>
        <time>2014-07-13T11:53:46Z</time>
      </trkpt>
      <trkpt lat="46.05801310390234" lon="7.02606906183064">
        <ele>1793.48</ele>
        <time>2014-07-13T11:54:01Z</time>
      </trkpt>
      <trkpt lat="46.057961471378803" lon="7.025967389345169">
        <ele>1791.55</ele>
        <time>2014-07-13T11:54:14Z</time>
      </trkpt>
      <trkpt lat="46.057922327890992" lon="7.025810061022639">
        <ele>1788.1900000000001</ele>
        <time>2014-07-13T11:54:26Z</time>
      </trkpt>
      <trkpt lat="46.057910760864615" lon="7.025639237836003">
        <ele>1785.3099999999999</ele>
        <time>2014-07-13T11:54:40Z</time>
      </trkpt>
      <trkpt lat="46.057867761701345" lon="7.025574697181583">
        <ele>1783.8599999999999</ele>
        <time>2014-07-13T11:54:53Z</time>
      </trkpt>
      <trkpt lat="46.057853931561112" lon="7.02552524395287">
        <ele>1782.9000000000001</ele>
        <time>2014-07-13T11:55:07Z</time>
      </trkpt>
      <trkpt lat="46.057788301259279" lon="7.025480233132839">
        <ele>1781.9400000000001</ele>
        <time>2014-07-13T11:55:21Z</time>
      </trkpt>
      <trkpt lat="46.057694340124726" lon="7.025457601994276">
        <ele>1779.54</ele>
        <time>2014-07-13T11:55:36Z</time>
      </trkpt>
      <trkpt lat="46.057622171938419" lon="7.025415943935514">
        <ele>1776.1700000000001</ele>
        <time>2014-07-13T11:55:48Z</time>
      </trkpt>
      <trkpt lat="46.057552266865969" lon="7.025356600061059">
        <ele>1772.8099999999999</ele>
        <time>2014-07-13T11:55:58Z</time>
      </trkpt>
      <trkpt lat="46.057544471696019" lon="7.025352660566568">
        <ele>1772.8099999999999</ele>
        <time>2014-07-13T11:55:59Z</time>
      </trkpt>
      <trkpt lat="46.057512704282999" lon="7.025335477665067">
        <ele>1771.3699999999999</ele>
        <time>2014-07-13T11:56:02Z</time>
      </trkpt>
      <trkpt lat="46.05749761685729" lon="7.02531318180263">
        <ele>1769.9200000000001</ele>
        <time>2014-07-13T11:56:14Z</time>
      </trkpt>
      <trkpt lat="46.057453360408545" lon="7.025298345834017">
        <ele>1767.52</ele>
        <time>2014-07-13T11:56:25Z</time>
      </trkpt>
      <trkpt lat="46.057402230799198" lon="7.025229949504137">
        <ele>1764.6400000000001</ele>
        <time>2014-07-13T11:56:35Z</time>
      </trkpt>
      <trkpt lat="46.057305419817567" lon="7.025171862915158">
        <ele>1761.75</ele>
        <time>2014-07-13T11:56:49Z</time>
      </trkpt>
      <trkpt lat="46.057228054851294" lon="7.02508938498795">
        <ele>1758.3900000000001</ele>
        <time>2014-07-13T11:57:01Z</time>
      </trkpt>
      <trkpt lat="46.057125376537442" lon="7.025038842111826">
        <ele>1755.99</ele>
        <time>2014-07-13T11:57:14Z</time>
      </trkpt>
      <trkpt lat="46.057065948843956" lon="7.024957286193967">
        <ele>1754.0599999999999</ele>
        <time>2014-07-13T11:57:24Z</time>
      </trkpt>
      <trkpt lat="46.057045077905059" lon="7.024897439405322">
        <ele>1754.0599999999999</ele>
        <time>2014-07-13T11:57:28Z</time>
      </trkpt>
      <trkpt lat="46.057018004357815" lon="7.024888386949897">
        <ele>1751.6600000000001</ele>
        <time>2014-07-13T11:57:31Z</time>
      </trkpt>
      <trkpt lat="46.056963689625263" lon="7.024868186563253">
        <ele>1750.7</ele>
        <time>2014-07-13T11:57:37Z</time>
      </trkpt>
      <trkpt lat="46.05680862441659" lon="7.024768441915512">
        <ele>1747.8099999999999</ele>
        <time>2014-07-13T11:57:52Z</time>
      </trkpt>
      <trkpt lat="46.056744502857327" lon="7.02472728677094">
        <ele>1746.3699999999999</ele>
        <time>2014-07-13T11:58:00Z</time>
      </trkpt>
      <trkpt lat="46.056667221710086" lon="7.02469015493989">
        <ele>1745.4100000000001</ele>
        <time>2014-07-13T11:58:11Z</time>
      </trkpt>
      <trkpt lat="46.056631347164512" lon="7.024648999795318">
        <ele>1744.9300000000001</ele>
        <time>2014-07-13T11:58:15Z</time>
      </trkpt>
      <trkpt lat="46.056455913931131" lon="7.024567862972617">
        <ele>1741.5699999999999</ele>
        <time>2014-07-13T11:58:33Z</time>
      </trkpt>
      <trkpt lat="46.056416183710098" lon="7.024567443877459">
        <ele>1741.5699999999999</ele>
        <time>2014-07-13T11:58:37Z</time>
      </trkpt>
      <trkpt lat="46.056392546743155" lon="7.024545483291149">
        <ele>1741.0799999999999</ele>
        <time>2014-07-13T11:58:40Z</time>
      </trkpt>
      <trkpt lat="46.056269416585565" lon="7.024493766948581">
        <ele>1739.6400000000001</ele>
        <time>2014-07-13T11:58:52Z</time>
      </trkpt>
      <trkpt lat="46.056120553985238" lon="7.024340713396668">
        <ele>1737.24</ele>
        <time>2014-07-13T11:59:08Z</time>
      </trkpt>
      <trkpt lat="46.056020306423306" lon="7.024219427257776">
        <ele>1735.8</ele>
        <time>2014-07-13T11:59:20Z</time>
      </trkpt>
      <trkpt lat="46.055925171822309" lon="7.024040725082159">
        <ele>1733.8800000000001</ele>
        <time>2014-07-13T11:59:35Z</time>
      </trkpt>
      <trkpt lat="46.055870354175568" lon="7.023850288242102">
        <ele>1732.4300000000001</ele>
        <time>2014-07-13T11:59:49Z</time>
      </trkpt>
      <trkpt lat="46.055861217901111" lon="7.023634370416403">
        <ele>1730.51</ele>
        <time>2014-07-13T12:00:04Z</time>
      </trkpt>
      <trkpt lat="46.055835401639342" lon="7.023456925526261">
        <ele>1729.0699999999999</ele>
        <time>2014-07-13T12:00:18Z</time>
      </trkpt>
      <trkpt lat="46.055817380547523" lon="7.023533368483186">
        <ele>1728.1099999999999</ele>
        <time>2014-07-13T12:00:32Z</time>
      </trkpt>
      <trkpt lat="46.055770358070731" lon="7.023349637165666">
        <ele>1727.1500000000001</ele>
        <time>2014-07-13T12:00:46Z</time>
      </trkpt>
      <trkpt lat="46.055760299786925" lon="7.023098934441805">
        <ele>1725.22</ele>
        <time>2014-07-13T12:01:01Z</time>
      </trkpt>
      <trkpt lat="46.055788546800613" lon="7.022894583642483">
        <ele>1724.26</ele>
        <time>2014-07-13T12:01:16Z</time>
      </trkpt>
      <trkpt lat="46.055831043049693" lon="7.022696770727634">
        <ele>1723.78</ele>
        <time>2014-07-13T12:01:32Z</time>
      </trkpt>
      <trkpt lat="46.055833557620645" lon="7.022427292540669">
        <ele>1721.8599999999999</ele>
        <time>2014-07-13T12:01:50Z</time>
      </trkpt>
      <trkpt lat="46.055828025564551" lon="7.022219086065888">
        <ele>1720.9000000000001</ele>
        <time>2014-07-13T12:02:06Z</time>
      </trkpt>
      <trkpt lat="46.055835066363215" lon="7.022128310054541">
        <ele>1720.4200000000001</ele>
        <time>2014-07-13T12:02:13Z</time>
      </trkpt>
      <trkpt lat="46.055889129638672" lon="7.02193477191031">
        <ele>1718.97</ele>
        <time>2014-07-13T12:02:26Z</time>
      </trkpt>
      <trkpt lat="46.055916454643011" lon="7.021775683388114">
        <ele>1718.49</ele>
        <time>2014-07-13T12:02:40Z</time>
      </trkpt>
      <trkpt lat="46.055979486554861" lon="7.021621204912663">
        <ele>1717.05</ele>
        <time>2014-07-13T12:02:54Z</time>
      </trkpt>
      <trkpt lat="46.05603170581162" lon="7.02151014469564">
        <ele>1714.6500000000001</ele>
        <time>2014-07-13T12:03:06Z</time>
      </trkpt>
      <trkpt lat="46.056081326678395" lon="7.021362958475947">
        <ele>1713.21</ele>
        <time>2014-07-13T12:03:19Z</time>
      </trkpt>
      <trkpt lat="46.056156009435654" lon="7.021218203008175">
        <ele>1713.6900000000001</ele>
        <time>2014-07-13T12:03:32Z</time>
      </trkpt>
      <trkpt lat="46.056242175400257" lon="7.021017288789153">
        <ele>1711.28</ele>
        <time>2014-07-13T12:03:49Z</time>
      </trkpt>
      <trkpt lat="46.056325156241655" lon="7.020808076485992">
        <ele>1710.8</ele>
        <time>2014-07-13T12:04:06Z</time>
      </trkpt>
      <trkpt lat="46.056424817070365" lon="7.020641611889005">
        <ele>1711.28</ele>
        <time>2014-07-13T12:04:20Z</time>
      </trkpt>
      <trkpt lat="46.056553982198238" lon="7.020446313545108">
        <ele>1708.8800000000001</ele>
        <time>2014-07-13T12:04:37Z</time>
      </trkpt>
      <trkpt lat="46.056653140112758" lon="7.020317567512393">
        <ele>1706</ele>
        <time>2014-07-13T12:04:53Z</time>
      </trkpt>
      <trkpt lat="46.056720362976193" lon="7.02014347538352">
        <ele>1703.1099999999999</ele>
        <time>2014-07-13T12:05:05Z</time>
      </trkpt>
      <trkpt lat="46.05675145983696" lon="7.020027888938785">
        <ele>1699.75</ele>
        <time>2014-07-13T12:05:16Z</time>
      </trkpt>
      <trkpt lat="46.056715082377195" lon="7.019884642213583">
        <ele>1696.8599999999999</ele>
        <time>2014-07-13T12:05:27Z</time>
      </trkpt>
      <trkpt lat="46.056676441803575" lon="7.019777353852987">
        <ele>1697.3399999999999</ele>
        <time>2014-07-13T12:05:33Z</time>
      </trkpt>
      <trkpt lat="46.056661019101739" lon="7.019736366346479">
        <ele>1695.9000000000001</ele>
        <time>2014-07-13T12:05:35Z</time>
      </trkpt>
      <trkpt lat="46.056638555601239" lon="7.019625809043646">
        <ele>1693.98</ele>
        <time>2014-07-13T12:05:48Z</time>
      </trkpt>
      <trkpt lat="46.056646099314094" lon="7.019618432968855">
        <ele>1693.98</ele>
        <time>2014-07-13T12:05:49Z</time>
      </trkpt>
      <trkpt lat="46.056735031306744" lon="7.019585743546486">
        <ele>1693.02</ele>
        <time>2014-07-13T12:05:58Z</time>
      </trkpt>
      <trkpt lat="46.056768894195557" lon="7.019501002505422">
        <ele>1691.0999999999999</ele>
        <time>2014-07-13T12:06:05Z</time>
      </trkpt>
      <trkpt lat="46.056776354089379" lon="7.019331520423293">
        <ele>1688.6900000000001</ele>
        <time>2014-07-13T12:06:18Z</time>
      </trkpt>
      <trkpt lat="46.056893952190876" lon="7.019146112725139">
        <ele>1687.73</ele>
        <time>2014-07-13T12:06:32Z</time>
      </trkpt>
      <trkpt lat="46.056931335479021" lon="7.019002446904779">
        <ele>1685.3299999999999</ele>
        <time>2014-07-13T12:06:48Z</time>
      </trkpt>
      <trkpt lat="46.057079024612904" lon="7.018954083323479">
        <ele>1683.8900000000001</ele>
        <time>2014-07-13T12:07:02Z</time>
      </trkpt>
      <trkpt lat="46.057217828929424" lon="7.018693406134844">
        <ele>1682.4400000000001</ele>
        <time>2014-07-13T12:07:21Z</time>
      </trkpt>
      <trkpt lat="46.057256134226918" lon="7.018525348976255">
        <ele>1679.5599999999999</ele>
        <time>2014-07-13T12:07:35Z</time>
      </trkpt>
      <trkpt lat="46.057306006550789" lon="7.018419736996293">
        <ele>1676.6800000000001</ele>
        <time>2014-07-13T12:07:46Z</time>
      </trkpt>
      <trkpt lat="46.057306677103043" lon="7.018238101154566">
        <ele>1673.3099999999999</ele>
        <time>2014-07-13T12:08:01Z</time>
      </trkpt>
      <trkpt lat="46.057308185845613" lon="7.018052693456411">
        <ele>1670.9100000000001</ele>
        <time>2014-07-13T12:08:16Z</time>
      </trkpt>
      <trkpt lat="46.057316148653626" lon="7.017843062058091">
        <ele>1668.51</ele>
        <time>2014-07-13T12:08:32Z</time>
      </trkpt>
      <trkpt lat="46.057271054014564" lon="7.017643321305513">
        <ele>1667.54</ele>
        <time>2014-07-13T12:08:48Z</time>
      </trkpt>
      <trkpt lat="46.057264013215899" lon="7.017418518662453">
        <ele>1664.6600000000001</ele>
        <time>2014-07-13T12:09:04Z</time>
      </trkpt>
      <trkpt lat="46.057252110913396" lon="7.017268650233746">
        <ele>1663.7</ele>
        <time>2014-07-13T12:09:13Z</time>
      </trkpt>
      <trkpt lat="46.05725135654211" lon="7.017172928899527">
        <ele>1662.74</ele>
        <time>2014-07-13T12:09:19Z</time>
      </trkpt>
      <trkpt lat="46.057294188067317" lon="7.01700939796865">
        <ele>1660.3299999999999</ele>
        <time>2014-07-13T12:09:33Z</time>
      </trkpt>
      <trkpt lat="46.0573158133775" lon="7.016840167343617">
        <ele>1656.97</ele>
        <time>2014-07-13T12:09:47Z</time>
      </trkpt>
      <trkpt lat="46.057319585233927" lon="7.016600277274847">
        <ele>1654.5699999999999</ele>
        <time>2014-07-13T12:10:03Z</time>
      </trkpt>
      <trkpt lat="46.057305755093694" lon="7.016435405239463">
        <ele>1654.5699999999999</ele>
        <time>2014-07-13T12:10:15Z</time>
      </trkpt>
      <trkpt lat="46.057309191673994" lon="7.016218900680542">
        <ele>1654.0899999999999</ele>
        <time>2014-07-13T12:10:29Z</time>
      </trkpt>
      <trkpt lat="46.057303240522742" lon="7.015960067510605">
        <ele>1653.1199999999999</ele>
        <time>2014-07-13T12:10:46Z</time>
      </trkpt>
      <trkpt lat="46.057272143661976" lon="7.015841463580728">
        <ele>1653.5999999999999</ele>
        <time>2014-07-13T12:10:59Z</time>
      </trkpt>
      <trkpt lat="46.057239873334765" lon="7.015722021460533">
        <ele>1649.76</ele>
        <time>2014-07-13T12:11:12Z</time>
      </trkpt>
      <trkpt lat="46.057191342115402" lon="7.015594448894262">
        <ele>1646.8800000000001</ele>
        <time>2014-07-13T12:11:25Z</time>
      </trkpt>
      <trkpt lat="46.057146247476339" lon="7.015491267666221">
        <ele>1644.47</ele>
        <time>2014-07-13T12:11:39Z</time>
      </trkpt>
      <trkpt lat="46.057108864188194" lon="7.015338968485594">
        <ele>1641.1099999999999</ele>
        <time>2014-07-13T12:11:50Z</time>
      </trkpt>
      <trkpt lat="46.057097800076008" lon="7.015126487240195">
        <ele>1640.6300000000001</ele>
        <time>2014-07-13T12:12:03Z</time>
      </trkpt>
      <trkpt lat="46.057126969099045" lon="7.014994220808148">
        <ele>1641.1099999999999</ele>
        <time>2014-07-13T12:12:15Z</time>
      </trkpt>
      <trkpt lat="46.057085394859314" lon="7.014820966869593">
        <ele>1642.55</ele>
        <time>2014-07-13T12:12:29Z</time>
      </trkpt>
      <trkpt lat="46.057044239714742" lon="7.014683838933706">
        <ele>1642.0699999999999</ele>
        <time>2014-07-13T12:12:42Z</time>
      </trkpt>
      <trkpt lat="46.056999815627933" lon="7.01460043899715">
        <ele>1640.6300000000001</ele>
        <time>2014-07-13T12:12:49Z</time>
      </trkpt>
      <trkpt lat="46.05694935657084" lon="7.014533132314682">
        <ele>1639.1900000000001</ele>
        <time>2014-07-13T12:12:56Z</time>
      </trkpt>
      <trkpt lat="46.056961175054312" lon="7.014390220865607">
        <ele>1636.78</ele>
        <time>2014-07-13T12:13:11Z</time>
      </trkpt>
      <trkpt lat="46.056971903890371" lon="7.014387035742402">
        <ele>1636.78</ele>
        <time>2014-07-13T12:13:12Z</time>
      </trkpt>
      <trkpt lat="46.057022698223591" lon="7.01432878151536">
        <ele>1636.3</ele>
        <time>2014-07-13T12:13:27Z</time>
      </trkpt>
      <trkpt lat="46.057096961885691" lon="7.01434344984591">
        <ele>1633.9000000000001</ele>
        <time>2014-07-13T12:13:39Z</time>
      </trkpt>
      <trkpt lat="46.057146331295371" lon="7.014314783737063">
        <ele>1631.98</ele>
        <time>2014-07-13T12:13:43Z</time>
      </trkpt>
      <trkpt lat="46.057172399014235" lon="7.014278322458267">
        <ele>1631.49</ele>
        <time>2014-07-13T12:13:46Z</time>
      </trkpt>
      <trkpt lat="46.057228138670325" lon="7.014110097661614">
        <ele>1629.0899999999999</ele>
        <time>2014-07-13T12:13:59Z</time>
      </trkpt>
      <trkpt lat="46.057260995730758" lon="7.014031475409865">
        <ele>1629.5699999999999</ele>
        <time>2014-07-13T12:14:08Z</time>
      </trkpt>
      <trkpt lat="46.05733877979219" lon="7.013875488191843">
        <ele>1631.49</ele>
        <time>2014-07-13T12:14:23Z</time>
      </trkpt>
      <trkpt lat="46.057379264384508" lon="7.013694019988179">
        <ele>1631.98</ele>
        <time>2014-07-13T12:14:38Z</time>
      </trkpt>
      <trkpt lat="46.057356130331755" lon="7.013486064970493">
        <ele>1631.98</ele>
        <time>2014-07-13T12:14:54Z</time>
      </trkpt>
      <trkpt lat="46.057343054562807" lon="7.013295041397214">
        <ele>1633.9000000000001</ele>
        <time>2014-07-13T12:15:08Z</time>
      </trkpt>
      <trkpt lat="46.057373564690351" lon="7.013136455789208">
        <ele>1636.3</ele>
        <time>2014-07-13T12:15:23Z</time>
      </trkpt>
      <trkpt lat="46.057363925501704" lon="7.012967057526112">
        <ele>1638.7</ele>
        <time>2014-07-13T12:15:39Z</time>
      </trkpt>
      <trkpt lat="46.05736568570137" lon="7.012843089178205">
        <ele>1637.74</ele>
        <time>2014-07-13T12:15:51Z</time>
      </trkpt>
      <trkpt lat="46.057351101189852" lon="7.012629937380552">
        <ele>1634.3800000000001</ele>
        <time>2014-07-13T12:16:07Z</time>
      </trkpt>
      <trkpt lat="46.057323860004544" lon="7.012514602392912">
        <ele>1631.98</ele>
        <time>2014-07-13T12:16:16Z</time>
      </trkpt>
      <trkpt lat="46.057311538606882" lon="7.012355597689748">
        <ele>1628.6099999999999</ele>
        <time>2014-07-13T12:16:28Z</time>
      </trkpt>
      <trkpt lat="46.057291254401207" lon="7.012263396754861">
        <ele>1625.73</ele>
        <time>2014-07-13T12:16:40Z</time>
      </trkpt>
      <trkpt lat="46.057257559150457" lon="7.012179829180241">
        <ele>1624.28</ele>
        <time>2014-07-13T12:16:57Z</time>
      </trkpt>
      <trkpt lat="46.057279100641608" lon="7.012187540531158">
        <ele>1624.77</ele>
        <time>2014-07-13T12:17:19Z</time>
      </trkpt>
      <trkpt lat="46.057287147268653" lon="7.012181840837002">
        <ele>1624.77</ele>
        <time>2014-07-13T12:17:45Z</time>
      </trkpt>
      <trkpt lat="46.057277675718069" lon="7.012169100344181">
        <ele>1624.77</ele>
        <time>2014-07-13T12:18:11Z</time>
      </trkpt>
      <trkpt lat="46.057282034307718" lon="7.012157114222646">
        <ele>1625.25</ele>
        <time>2014-07-13T12:18:30Z</time>
      </trkpt>
      <trkpt lat="46.05729385279119" lon="7.01218125410378">
        <ele>1626.21</ele>
        <time>2014-07-13T12:18:57Z</time>
      </trkpt>
      <trkpt lat="46.057285973802209" lon="7.01218125410378">
        <ele>1626.6900000000001</ele>
        <time>2014-07-13T12:19:21Z</time>
      </trkpt>
      <trkpt lat="46.057262755930424" lon="7.012145379558206">
        <ele>1628.1300000000001</ele>
        <time>2014-07-13T12:19:42Z</time>
      </trkpt>
      <trkpt lat="46.057266192510724" lon="7.012137500569224">
        <ele>1626.6900000000001</ele>
        <time>2014-07-13T12:20:07Z</time>
      </trkpt>
      <trkpt lat="46.057267701253295" lon="7.012120150029659">
        <ele>1626.6900000000001</ele>
        <time>2014-07-13T12:20:31Z</time>
      </trkpt>
      <trkpt lat="46.057260408997536" lon="7.012144038453698">
        <ele>1626.6900000000001</ele>
        <time>2014-07-13T12:20:48Z</time>
      </trkpt>
      <trkpt lat="46.057226713746786" lon="7.012020656839013">
        <ele>1625.73</ele>
        <time>2014-07-13T12:21:04Z</time>
      </trkpt>
      <trkpt lat="46.057218834757805" lon="7.011987129226327">
        <ele>1624.77</ele>
        <time>2014-07-13T12:21:08Z</time>
      </trkpt>
      <trkpt lat="46.057198718190193" lon="7.011860981583595">
        <ele>1623.8</ele>
        <time>2014-07-13T12:21:22Z</time>
      </trkpt>
      <trkpt lat="46.057199640199542" lon="7.011763080954552">
        <ele>1620.4400000000001</ele>
        <time>2014-07-13T12:21:36Z</time>
      </trkpt>
      <trkpt lat="46.057159574702382" lon="7.011659983545542">
        <ele>1618.52</ele>
        <time>2014-07-13T12:21:49Z</time>
      </trkpt>
      <trkpt lat="46.05716091580689" lon="7.011552695184946">
        <ele>1616.1099999999999</ele>
        <time>2014-07-13T12:22:02Z</time>
      </trkpt>
      <trkpt lat="46.057238448411226" lon="7.011603573337197">
        <ele>1613.71</ele>
        <time>2014-07-13T12:22:16Z</time>
      </trkpt>
      <trkpt lat="46.057261498644948" lon="7.011576583608985">
        <ele>1610.8299999999999</ele>
        <time>2014-07-13T12:22:29Z</time>
      </trkpt>
      <trkpt lat="46.057240124791861" lon="7.01142780482769">
        <ele>1607.9400000000001</ele>
        <time>2014-07-13T12:22:43Z</time>
      </trkpt>
      <trkpt lat="46.057254122570157" lon="7.011337280273438">
        <ele>1604.5799999999999</ele>
        <time>2014-07-13T12:22:54Z</time>
      </trkpt>
      <trkpt lat="46.057224785909057" lon="7.011214233934879">
        <ele>1601.6900000000001</ele>
        <time>2014-07-13T12:23:08Z</time>
      </trkpt>
      <trkpt lat="46.05723082087934" lon="7.011100659146905">
        <ele>1598.3299999999999</ele>
        <time>2014-07-13T12:23:19Z</time>
      </trkpt>
      <trkpt lat="46.057272478938103" lon="7.010934948921204">
        <ele>1595.45</ele>
        <time>2014-07-13T12:23:32Z</time>
      </trkpt>
      <trkpt lat="46.057282201945782" lon="7.010673936456442">
        <ele>1592.5599999999999</ele>
        <time>2014-07-13T12:23:49Z</time>
      </trkpt>
      <trkpt lat="46.057318495586514" lon="7.010633200407028">
        <ele>1591.5999999999999</ele>
        <time>2014-07-13T12:23:54Z</time>
      </trkpt>
      <trkpt lat="46.05740474537015" lon="7.010515267029405">
        <ele>1589.6800000000001</ele>
        <time>2014-07-13T12:24:09Z</time>
      </trkpt>
      <trkpt lat="46.057490576058626" lon="7.010386437177658">
        <ele>1588.72</ele>
        <time>2014-07-13T12:24:22Z</time>
      </trkpt>
      <trkpt lat="46.057576574385166" lon="7.010183176025748">
        <ele>1587.75</ele>
        <time>2014-07-13T12:24:39Z</time>
      </trkpt>
      <trkpt lat="46.057679587975144" lon="7.010002378374338">
        <ele>1585.8299999999999</ele>
        <time>2014-07-13T12:24:55Z</time>
      </trkpt>
      <trkpt lat="46.057690735906363" lon="7.009938089177012">
        <ele>1585.3499999999999</ele>
        <time>2014-07-13T12:25:01Z</time>
      </trkpt>
      <trkpt lat="46.057738848030567" lon="7.009817138314247">
        <ele>1584.8699999999999</ele>
        <time>2014-07-13T12:25:10Z</time>
      </trkpt>
      <trkpt lat="46.057774052023888" lon="7.009682022035122">
        <ele>1583.9100000000001</ele>
        <time>2014-07-13T12:25:20Z</time>
      </trkpt>
      <trkpt lat="46.057778829708695" lon="7.009524023160338">
        <ele>1582.47</ele>
        <time>2014-07-13T12:25:34Z</time>
      </trkpt>
      <trkpt lat="46.057748068124056" lon="7.009346913546324">
        <ele>1583.4300000000001</ele>
        <time>2014-07-13T12:25:49Z</time>
      </trkpt>
      <trkpt lat="46.057753683999181" lon="7.009265525266528">
        <ele>1583.4300000000001</ele>
        <time>2014-07-13T12:25:54Z</time>
      </trkpt>
      <trkpt lat="46.05773750692606" lon="7.008994789794087">
        <ele>1581.51</ele>
        <time>2014-07-13T12:26:10Z</time>
      </trkpt>
      <trkpt lat="46.057770699262619" lon="7.008834611624479">
        <ele>1581.03</ele>
        <time>2014-07-13T12:26:22Z</time>
      </trkpt>
      <trkpt lat="46.057732561603189" lon="7.008696058765054">
        <ele>1577.6600000000001</ele>
        <time>2014-07-13T12:26:36Z</time>
      </trkpt>
      <trkpt lat="46.057701213285327" lon="7.008501263335347">
        <ele>1575.26</ele>
        <time>2014-07-13T12:26:50Z</time>
      </trkpt>
      <trkpt lat="46.057725939899683" lon="7.008357848972082">
        <ele>1573.8199999999999</ele>
        <time>2014-07-13T12:27:01Z</time>
      </trkpt>
      <trkpt lat="46.057724012061954" lon="7.008257182314992">
        <ele>1570.9300000000001</ele>
        <time>2014-07-13T12:27:14Z</time>
      </trkpt>
      <trkpt lat="46.057735746726394" lon="7.008137153461576">
        <ele>1568.05</ele>
        <time>2014-07-13T12:27:26Z</time>
      </trkpt>
      <trkpt lat="46.057749073952436" lon="7.008012598380446">
        <ele>1564.6800000000001</ele>
        <time>2014-07-13T12:27:41Z</time>
      </trkpt>
      <trkpt lat="46.057756617665291" lon="7.007985860109329">
        <ele>1564.2</ele>
        <time>2014-07-13T12:27:43Z</time>
      </trkpt>
      <trkpt lat="46.057852758094668" lon="7.007896425202489">
        <ele>1560.3599999999999</ele>
        <time>2014-07-13T12:27:54Z</time>
      </trkpt>
      <trkpt lat="46.057823840528727" lon="7.007783688604832">
        <ele>1557.95</ele>
        <time>2014-07-13T12:28:06Z</time>
      </trkpt>
      <trkpt lat="46.057856278494" lon="7.007688134908676">
        <ele>1555.55</ele>
        <time>2014-07-13T12:28:19Z</time>
      </trkpt>
      <trkpt lat="46.0578787419945" lon="7.007610350847244">
        <ele>1555.55</ele>
        <time>2014-07-13T12:28:34Z</time>
      </trkpt>
      <trkpt lat="46.057783188298345" lon="7.007426787167788">
        <ele>1555.55</ele>
        <time>2014-07-13T12:28:50Z</time>
      </trkpt>
      <trkpt lat="46.057745972648263" lon="7.007306171581149">
        <ele>1552.6700000000001</ele>
        <time>2014-07-13T12:29:01Z</time>
      </trkpt>
      <trkpt lat="46.057724934071302" lon="7.007146328687668">
        <ele>1550.26</ele>
        <time>2014-07-13T12:29:13Z</time>
      </trkpt>
      <trkpt lat="46.057710433378816" lon="7.006923034787178">
        <ele>1546.4200000000001</ele>
        <time>2014-07-13T12:29:27Z</time>
      </trkpt>
      <trkpt lat="46.057694004848599" lon="7.006766544654965">
        <ele>1545.9400000000001</ele>
        <time>2014-07-13T12:29:39Z</time>
      </trkpt>
      <trkpt lat="46.057705907151103" lon="7.006713906303048">
        <ele>1545.9400000000001</ele>
        <time>2014-07-13T12:29:45Z</time>
      </trkpt>
      <trkpt lat="46.057689730077982" lon="7.006527408957481">
        <ele>1543.53</ele>
        <time>2014-07-13T12:30:00Z</time>
      </trkpt>
      <trkpt lat="46.057681180536747" lon="7.006374271586537">
        <ele>1541.1300000000001</ele>
        <time>2014-07-13T12:30:15Z</time>
      </trkpt>
      <trkpt lat="46.057615550234914" lon="7.006203951314092">
        <ele>1541.1300000000001</ele>
        <time>2014-07-13T12:30:31Z</time>
      </trkpt>
      <trkpt lat="46.057562911882997" lon="7.006054669618607">
        <ele>1539.6900000000001</ele>
        <time>2014-07-13T12:30:47Z</time>
      </trkpt>
      <trkpt lat="46.057483032345772" lon="7.005867836996913">
        <ele>1537.77</ele>
        <time>2014-07-13T12:31:02Z</time>
      </trkpt>
      <trkpt lat="46.05750834569335" lon="7.005745125934482">
        <ele>1535.3599999999999</ele>
        <time>2014-07-13T12:31:12Z</time>
      </trkpt>
      <trkpt lat="46.057497952133417" lon="7.005682345479727">
        <ele>1534.4000000000001</ele>
        <time>2014-07-13T12:31:16Z</time>
      </trkpt>
      <trkpt lat="46.057492755353451" lon="7.005504816770554">
        <ele>1532.96</ele>
        <time>2014-07-13T12:31:30Z</time>
      </trkpt>
      <trkpt lat="46.057477165013552" lon="7.005312703549862">
        <ele>1531.52</ele>
        <time>2014-07-13T12:31:45Z</time>
      </trkpt>
      <trkpt lat="46.057454701513052" lon="7.00509125366807">
        <ele>1530.5599999999999</ele>
        <time>2014-07-13T12:32:00Z</time>
      </trkpt>
      <trkpt lat="46.057457718998194" lon="7.004959657788277">
        <ele>1527.6700000000001</ele>
        <time>2014-07-13T12:32:08Z</time>
      </trkpt>
      <trkpt lat="46.057462077587843" lon="7.004782045260072">
        <ele>1526.23</ele>
        <time>2014-07-13T12:32:21Z</time>
      </trkpt>
      <trkpt lat="46.057434165850282" lon="7.00452589429915">
        <ele>1524.3099999999999</ele>
        <time>2014-07-13T12:32:37Z</time>
      </trkpt>
      <trkpt lat="46.057397201657295" lon="7.004406535997987">
        <ele>1524.3099999999999</ele>
        <time>2014-07-13T12:32:48Z</time>
      </trkpt>
      <trkpt lat="46.057355627417564" lon="7.004200257360935">
        <ele>1522.8699999999999</ele>
        <time>2014-07-13T12:33:02Z</time>
      </trkpt>
      <trkpt lat="46.057340372353792" lon="7.003968581557274">
        <ele>1522.3900000000001</ele>
        <time>2014-07-13T12:33:16Z</time>
      </trkpt>
      <trkpt lat="46.057368535548449" lon="7.003828855231404">
        <ele>1521.9000000000001</ele>
        <time>2014-07-13T12:33:28Z</time>
      </trkpt>
      <trkpt lat="46.057336935773492" lon="7.003594245761633">
        <ele>1521.9000000000001</ele>
        <time>2014-07-13T12:33:45Z</time>
      </trkpt>
      <trkpt lat="46.057326206937432" lon="7.003382854163647">
        <ele>1523.8299999999999</ele>
        <time>2014-07-13T12:34:00Z</time>
      </trkpt>
      <trkpt lat="46.057381024584174" lon="7.003165259957314">
        <ele>1525.27</ele>
        <time>2014-07-13T12:34:17Z</time>
      </trkpt>
      <trkpt lat="46.057480769231915" lon="7.003064760938287">
        <ele>1527.1900000000001</ele>
        <time>2014-07-13T12:34:33Z</time>
      </trkpt>
      <trkpt lat="46.057484205812216" lon="7.003047997131944">
        <ele>1527.6700000000001</ele>
        <time>2014-07-13T12:34:35Z</time>
      </trkpt>
      <trkpt lat="46.057577077299356" lon="7.002971470355988">
        <ele>1530.0799999999999</ele>
        <time>2014-07-13T12:34:50Z</time>
      </trkpt>
      <trkpt lat="46.057634074240923" lon="7.002858398482204">
        <ele>1529.5899999999999</ele>
        <time>2014-07-13T12:34:59Z</time>
      </trkpt>
      <trkpt lat="46.057652430608869" lon="7.002671733498573">
        <ele>1532.48</ele>
        <time>2014-07-13T12:35:15Z</time>
      </trkpt>
      <trkpt lat="46.057661231607199" lon="7.002485487610102">
        <ele>1531.52</ele>
        <time>2014-07-13T12:35:31Z</time>
      </trkpt>
      <trkpt lat="46.057645305991173" lon="7.002474339678884">
        <ele>1532.48</ele>
        <time>2014-07-13T12:35:36Z</time>
      </trkpt>
      <trkpt lat="46.057611694559455" lon="7.002374678850174">
        <ele>1534.4000000000001</ele>
        <time>2014-07-13T12:35:53Z</time>
      </trkpt>
      <trkpt lat="46.057617394253612" lon="7.00232807546854">
        <ele>1534.8800000000001</ele>
        <time>2014-07-13T12:35:59Z</time>
      </trkpt>
      <trkpt lat="46.057628793641925" lon="7.002237550914288">
        <ele>1534.8800000000001</ele>
        <time>2014-07-13T12:36:12Z</time>
      </trkpt>
      <trkpt lat="46.057629799470305" lon="7.00211207382381">
        <ele>1535.3599999999999</ele>
        <time>2014-07-13T12:36:23Z</time>
      </trkpt>
      <trkpt lat="46.057585878297687" lon="7.001899257302284">
        <ele>1535.8399999999999</ele>
        <time>2014-07-13T12:36:38Z</time>
      </trkpt>
      <trkpt lat="46.057616304606199" lon="7.001740587875247">
        <ele>1536.3199999999999</ele>
        <time>2014-07-13T12:36:52Z</time>
      </trkpt>
      <trkpt lat="46.057620663195848" lon="7.001710077747703">
        <ele>1536.3199999999999</ele>
        <time>2014-07-13T12:37:03Z</time>
      </trkpt>
      <trkpt lat="46.057597864419222" lon="7.001600190997124">
        <ele>1537.77</ele>
        <time>2014-07-13T12:37:16Z</time>
      </trkpt>
      <trkpt lat="46.057607587426901" lon="7.001608740538359">
        <ele>1538.25</ele>
        <time>2014-07-13T12:37:30Z</time>
      </trkpt>
      <trkpt lat="46.057603480294347" lon="7.001596167683601">
        <ele>1537.29</ele>
        <time>2014-07-13T12:37:32Z</time>
      </trkpt>
      <trkpt lat="46.057612365111709" lon="7.001629276201129">
        <ele>1537.77</ele>
        <time>2014-07-13T12:37:49Z</time>
      </trkpt>
      <trkpt lat="46.057664332911372" lon="7.001611338928342">
        <ele>1538.73</ele>
        <time>2014-07-13T12:38:14Z</time>
      </trkpt>
      <trkpt lat="46.057660896331072" lon="7.001616284251213">
        <ele>1536.3199999999999</ele>
        <time>2014-07-13T12:38:27Z</time>
      </trkpt>
      <trkpt lat="46.057671289891005" lon="7.001609411090612">
        <ele>1538.25</ele>
        <time>2014-07-13T12:38:32Z</time>
      </trkpt>
      <trkpt lat="46.057666596025229" lon="7.001593317836523">
        <ele>1537.77</ele>
        <time>2014-07-13T12:38:54Z</time>
      </trkpt>
      <trkpt lat="46.057659387588501" lon="7.001615110784769">
        <ele>1537.77</ele>
        <time>2014-07-13T12:39:07Z</time>
      </trkpt>
      <trkpt lat="46.057661147788167" lon="7.001611925661564">
        <ele>1536.8</ele>
        <time>2014-07-13T12:39:31Z</time>
      </trkpt>
      <trkpt lat="46.05763784609735" lon="7.001589378342032">
        <ele>1537.77</ele>
        <time>2014-07-13T12:39:49Z</time>
      </trkpt>
      <trkpt lat="46.057663913816214" lon="7.001631539314985">
        <ele>1537.77</ele>
        <time>2014-07-13T12:40:22Z</time>
      </trkpt>
      <trkpt lat="46.057668523862958" lon="7.001614272594452">
        <ele>1537.77</ele>
        <time>2014-07-13T12:40:45Z</time>
      </trkpt>
      <trkpt lat="46.057699955999851" lon="7.001612009480596">
        <ele>1537.77</ele>
        <time>2014-07-13T12:41:02Z</time>
      </trkpt>
      <trkpt lat="46.057706410065293" lon="7.00159708969295">
        <ele>1537.77</ele>
        <time>2014-07-13T12:41:26Z</time>
      </trkpt>
      <trkpt lat="46.057697189971805" lon="7.001585606485605">
        <ele>1538.73</ele>
        <time>2014-07-13T12:41:58Z</time>
      </trkpt>
      <trkpt lat="46.057719485834241" lon="7.001572530716658">
        <ele>1538.73</ele>
        <time>2014-07-13T12:42:23Z</time>
      </trkpt>
      <trkpt lat="46.057704230770469" lon="7.001573955640197">
        <ele>1538.73</ele>
        <time>2014-07-13T12:42:46Z</time>
      </trkpt>
      <trkpt lat="46.057706158608198" lon="7.001595916226506">
        <ele>1538.73</ele>
        <time>2014-07-13T12:43:08Z</time>
      </trkpt>
      <trkpt lat="46.057727197185159" lon="7.001583091914654">
        <ele>1538.73</ele>
        <time>2014-07-13T12:43:31Z</time>
      </trkpt>
      <trkpt lat="46.057714456692338" lon="7.001581583172083">
        <ele>1538.73</ele>
        <time>2014-07-13T12:43:54Z</time>
      </trkpt>
      <trkpt lat="46.057713534682989" lon="7.001593401655555">
        <ele>1538.73</ele>
        <time>2014-07-13T12:44:12Z</time>
      </trkpt>
      <trkpt lat="46.057714289054275" lon="7.001586277037859">
        <ele>1538.73</ele>
        <time>2014-07-13T12:44:44Z</time>
      </trkpt>
      <trkpt lat="46.057742536067963" lon="7.001568926498294">
        <ele>1539.21</ele>
        <time>2014-07-13T12:45:08Z</time>
      </trkpt>
      <trkpt lat="46.057747816666961" lon="7.001584684476256">
        <ele>1539.6900000000001</ele>
        <time>2014-07-13T12:45:30Z</time>
      </trkpt>
      <trkpt lat="46.057742033153772" lon="7.001588204875588">
        <ele>1540.1700000000001</ele>
        <time>2014-07-13T12:45:52Z</time>
      </trkpt>
      <trkpt lat="46.057749660685658" lon="7.001590467989445">
        <ele>1540.6500000000001</ele>
        <time>2014-07-13T12:46:29Z</time>
      </trkpt>
      <trkpt lat="46.057753097265959" lon="7.00160295702517">
        <ele>1541.1300000000001</ele>
        <time>2014-07-13T12:46:50Z</time>
      </trkpt>
      <trkpt lat="46.05775854550302" lon="7.001618212088943">
        <ele>1541.1300000000001</ele>
        <time>2014-07-13T12:47:14Z</time>
      </trkpt>
      <trkpt lat="46.057764329016209" lon="7.00159315019846">
        <ele>1541.1300000000001</ele>
        <time>2014-07-13T12:47:31Z</time>
      </trkpt>
      <trkpt lat="46.057771537452936" lon="7.001591054722667">
        <ele>1541.1300000000001</ele>
        <time>2014-07-13T12:48:02Z</time>
      </trkpt>
      <trkpt lat="46.05764027684927" lon="7.001661881804466">
        <ele>1541.6099999999999</ele>
        <time>2014-07-13T12:48:18Z</time>
      </trkpt>
      <trkpt lat="46.05762024410069" lon="7.001640507951379">
        <ele>1545.46</ele>
        <time>2014-07-13T12:48:32Z</time>
      </trkpt>
      <trkpt lat="46.057622339576483" lon="7.001640424132347">
        <ele>1542.5699999999999</ele>
        <time>2014-07-13T12:48:33Z</time>
      </trkpt>
      <trkpt lat="46.057632314041257" lon="7.001629360020161">
        <ele>1542.5699999999999</ele>
        <time>2014-07-13T12:48:55Z</time>
      </trkpt>
      <trkpt lat="46.057628123089671" lon="7.001612763851881">
        <ele>1542.5699999999999</ele>
        <time>2014-07-13T12:49:14Z</time>
      </trkpt>
      <trkpt lat="46.057638851925731" lon="7.001623995602131">
        <ele>1542.5699999999999</ele>
        <time>2014-07-13T12:49:50Z</time>
      </trkpt>
      <trkpt lat="46.057636253535748" lon="7.001631371676922">
        <ele>1542.5699999999999</ele>
        <time>2014-07-13T12:50:11Z</time>
      </trkpt>
      <trkpt lat="46.057643294334412" lon="7.001617960631847">
        <ele>1542.0899999999999</ele>
        <time>2014-07-13T12:50:33Z</time>
      </trkpt>
      <trkpt lat="46.057605156674981" lon="7.001593904569745">
        <ele>1542.0899999999999</ele>
        <time>2014-07-13T12:51:10Z</time>
      </trkpt>
      <trkpt lat="46.057602725923061" lon="7.001606477424502">
        <ele>1541.6099999999999</ele>
        <time>2014-07-13T12:51:41Z</time>
      </trkpt>
      <trkpt lat="46.057624854147434" lon="7.001626007258892">
        <ele>1541.6099999999999</ele>
        <time>2014-07-13T12:52:22Z</time>
      </trkpt>
      <trkpt lat="46.05762904509902" lon="7.001606980338693">
        <ele>1541.1300000000001</ele>
        <time>2014-07-13T12:53:02Z</time>
      </trkpt>
      <trkpt lat="46.057624267414212" lon="7.001618295907974">
        <ele>1541.1300000000001</ele>
        <time>2014-07-13T12:53:22Z</time>
      </trkpt>
      <trkpt lat="46.057601133361459" lon="7.001616703346372">
        <ele>1541.6099999999999</ele>
        <time>2014-07-13T12:53:56Z</time>
      </trkpt>
      <trkpt lat="46.057614292949438" lon="7.001610081642866">
        <ele>1541.6099999999999</ele>
        <time>2014-07-13T12:54:22Z</time>
      </trkpt>
      <trkpt lat="46.05761387385428" lon="7.001620726659894">
        <ele>1541.1300000000001</ele>
        <time>2014-07-13T12:54:51Z</time>
      </trkpt>
      <trkpt lat="46.057618232443929" lon="7.001619217917323">
        <ele>1540.6500000000001</ele>
        <time>2014-07-13T12:55:20Z</time>
      </trkpt>
      <trkpt lat="46.057606330141425" lon="7.001630198210478">
        <ele>1540.6500000000001</ele>
        <time>2014-07-13T12:55:48Z</time>
      </trkpt>
      <trkpt lat="46.057611862197518" lon="7.001631874591112">
        <ele>1540.1700000000001</ele>
        <time>2014-07-13T12:56:21Z</time>
      </trkpt>
      <trkpt lat="46.057603312656283" lon="7.001619804650545">
        <ele>1540.1700000000001</ele>
        <time>2014-07-13T12:56:54Z</time>
      </trkpt>
      <trkpt lat="46.057615131139755" lon="7.001605303958058">
        <ele>1540.6500000000001</ele>
        <time>2014-07-13T12:57:50Z</time>
      </trkpt>
      <trkpt lat="46.057622507214546" lon="7.00160438194871">
        <ele>1541.1300000000001</ele>
        <time>2014-07-13T12:58:22Z</time>
      </trkpt>
      <trkpt lat="46.057623764500022" lon="7.00161368586123">
        <ele>1540.6500000000001</ele>
        <time>2014-07-13T12:59:02Z</time>
      </trkpt>
      <trkpt lat="46.057628458365798" lon="7.001650063320994">
        <ele>1540.6500000000001</ele>
        <time>2014-07-13T12:59:32Z</time>
      </trkpt>
      <trkpt lat="46.057624435052276" lon="7.001634137704969">
        <ele>1540.1700000000001</ele>
        <time>2014-07-13T13:00:19Z</time>
      </trkpt>
      <trkpt lat="46.057620160281658" lon="7.001637071371079">
        <ele>1539.6900000000001</ele>
        <time>2014-07-13T13:01:01Z</time>
      </trkpt>
      <trkpt lat="46.057630218565464" lon="7.001596419140697">
        <ele>1539.6900000000001</ele>
        <time>2014-07-13T13:01:48Z</time>
      </trkpt>
      <trkpt lat="46.057636002078652" lon="7.001626845449209">
        <ele>1539.21</ele>
        <time>2014-07-13T13:02:31Z</time>
      </trkpt>
      <trkpt lat="46.057620076462626" lon="7.001614775508642">
        <ele>1539.21</ele>
        <time>2014-07-13T13:03:04Z</time>
      </trkpt>
      <trkpt lat="46.057629715651274" lon="7.001638663932681">
        <ele>1539.21</ele>
        <time>2014-07-13T13:03:32Z</time>
      </trkpt>
      <trkpt lat="46.057599540799856" lon="7.001613853499293">
        <ele>1538.73</ele>
        <time>2014-07-13T13:04:08Z</time>
      </trkpt>
      <trkpt lat="46.05761781334877" lon="7.001606393605471">
        <ele>1538.25</ele>
        <time>2014-07-13T13:04:38Z</time>
      </trkpt>
      <trkpt lat="46.057627284899354" lon="7.001607483252883">
        <ele>1538.25</ele>
        <time>2014-07-13T13:05:07Z</time>
      </trkpt>
      <trkpt lat="46.057608090341091" lon="7.001598598435521">
        <ele>1538.25</ele>
        <time>2014-07-13T13:05:37Z</time>
      </trkpt>
      <trkpt lat="46.057624015957117" lon="7.001588372513652">
        <ele>1537.77</ele>
        <time>2014-07-13T13:06:11Z</time>
      </trkpt>
      <trkpt lat="46.057611694559455" lon="7.001615026965737">
        <ele>1537.77</ele>
        <time>2014-07-13T13:06:46Z</time>
      </trkpt>
      <trkpt lat="46.057619238272309" lon="7.001613602042198">
        <ele>1537.29</ele>
        <time>2014-07-13T13:07:24Z</time>
      </trkpt>
      <trkpt lat="46.057622088119388" lon="7.00163321569562">
        <ele>1537.77</ele>
        <time>2014-07-13T13:08:01Z</time>
      </trkpt>
      <trkpt lat="46.057629799470305" lon="7.001620391383767">
        <ele>1537.77</ele>
        <time>2014-07-13T13:08:24Z</time>
      </trkpt>
      <trkpt lat="46.057614460587502" lon="7.001627599820495">
        <ele>1537.77</ele>
        <time>2014-07-13T13:09:00Z</time>
      </trkpt>
      <trkpt lat="46.057601803913713" lon="7.001623073592782">
        <ele>1537.77</ele>
        <time>2014-07-13T13:09:36Z</time>
      </trkpt>
      <trkpt lat="46.057617897167802" lon="7.00160295702517">
        <ele>1538.73</ele>
        <time>2014-07-13T13:10:08Z</time>
      </trkpt>
      <trkpt lat="46.057616220787168" lon="7.001630617305636">
        <ele>1536.8</ele>
        <time>2014-07-13T13:10:38Z</time>
      </trkpt>
      <trkpt lat="46.057630050927401" lon="7.001656349748373">
        <ele>1536.8</ele>
        <time>2014-07-13T13:11:05Z</time>
      </trkpt>
      <trkpt lat="46.057624854147434" lon="7.001647967845202">
        <ele>1537.77</ele>
        <time>2014-07-13T13:11:45Z</time>
      </trkpt>
      <trkpt lat="46.057629631832242" lon="7.00166498310864">
        <ele>1537.29</ele>
        <time>2014-07-13T13:12:18Z</time>
      </trkpt>
      <trkpt lat="46.057628877460957" lon="7.001625085249543">
        <ele>1536.8</ele>
        <time>2014-07-13T13:12:49Z</time>
      </trkpt>
      <trkpt lat="46.05760314501822" lon="7.001643609255552">
        <ele>1536.8</ele>
        <time>2014-07-13T13:13:19Z</time>
      </trkpt>
      <trkpt lat="46.057626027613878" lon="7.0016566850245">
        <ele>1536.8</ele>
        <time>2014-07-13T13:13:49Z</time>
      </trkpt>
      <trkpt lat="46.057611191645265" lon="7.001634053885937">
        <ele>1536.8</ele>
        <time>2014-07-13T13:14:17Z</time>
      </trkpt>
      <trkpt lat="46.057614041492343" lon="7.001645034179092">
        <ele>1537.29</ele>
        <time>2014-07-13T13:14:48Z</time>
      </trkpt>
      <trkpt lat="46.057627955451608" lon="7.001641262322664">
        <ele>1537.77</ele>
        <time>2014-07-13T13:15:14Z</time>
      </trkpt>
      <trkpt lat="46.05762904509902" lon="7.001631539314985">
        <ele>1537.29</ele>
        <time>2014-07-13T13:15:46Z</time>
      </trkpt>
      <trkpt lat="46.057620914652944" lon="7.001591306179762">
        <ele>1536.8</ele>
        <time>2014-07-13T13:16:20Z</time>
      </trkpt>
      <trkpt lat="46.057612197473645" lon="7.00158778578043">
        <ele>1536.8</ele>
        <time>2014-07-13T13:16:43Z</time>
      </trkpt>
      <trkpt lat="46.057620914652944" lon="7.001600358635187">
        <ele>1536.8</ele>
        <time>2014-07-13T13:17:20Z</time>
      </trkpt>
      <trkpt lat="46.057623764500022" lon="7.001588707789779">
        <ele>1536.3199999999999</ele>
        <time>2014-07-13T13:17:56Z</time>
      </trkpt>
      <trkpt lat="46.05760264210403" lon="7.001596419140697">
        <ele>1536.3199999999999</ele>
        <time>2014-07-13T13:18:28Z</time>
      </trkpt>
      <trkpt lat="46.057642456144094" lon="7.001620307564735">
        <ele>1536.8</ele>
        <time>2014-07-13T13:19:01Z</time>
      </trkpt>
      <trkpt lat="46.057622423395514" lon="7.001627180725336">
        <ele>1535.8399999999999</ele>
        <time>2014-07-13T13:19:35Z</time>
      </trkpt>
      <trkpt lat="46.057624854147434" lon="7.001611338928342">
        <ele>1536.3199999999999</ele>
        <time>2014-07-13T13:19:58Z</time>
      </trkpt>
      <trkpt lat="46.057630721479654" lon="7.001626426354051">
        <ele>1536.3199999999999</ele>
        <time>2014-07-13T13:20:38Z</time>
      </trkpt>
      <trkpt lat="46.057628709822893" lon="7.001662217080593">
        <ele>1536.8</ele>
        <time>2014-07-13T13:21:10Z</time>
      </trkpt>
      <trkpt lat="46.057677241042256" lon="7.0016860216856">
        <ele>1536.3199999999999</ele>
        <time>2014-07-13T13:21:50Z</time>
      </trkpt>
      <trkpt lat="46.057653017342091" lon="7.001677807420492">
        <ele>1536.3199999999999</ele>
        <time>2014-07-13T13:22:21Z</time>
      </trkpt>
      <trkpt lat="46.057632062584162" lon="7.001679316163063">
        <ele>1536.8</ele>
        <time>2014-07-13T13:22:59Z</time>
      </trkpt>
      <trkpt lat="46.057652430608869" lon="7.001665402203798">
        <ele>1536.8</ele>
        <time>2014-07-13T13:23:35Z</time>
      </trkpt>
      <trkpt lat="46.057627033442259" lon="7.00160002335906">
        <ele>1536.3199999999999</ele>
        <time>2014-07-13T13:24:08Z</time>
      </trkpt>
      <trkpt lat="46.057646730914712" lon="7.001620726659894">
        <ele>1536.3199999999999</ele>
        <time>2014-07-13T13:24:36Z</time>
      </trkpt>
      <trkpt lat="46.057646898552775" lon="7.001626091077924">
        <ele>1536.3199999999999</ele>
        <time>2014-07-13T13:25:15Z</time>
      </trkpt>
      <trkpt lat="46.057653268799186" lon="7.001612931489945">
        <ele>1536.3199999999999</ele>
        <time>2014-07-13T13:25:44Z</time>
      </trkpt>
      <trkpt lat="46.057635080069304" lon="7.001615110784769">
        <ele>1536.3199999999999</ele>
        <time>2014-07-13T13:26:08Z</time>
      </trkpt>
      <trkpt lat="46.057640528306365" lon="7.001615446060896">
        <ele>1536.8</ele>
        <time>2014-07-13T13:26:38Z</time>
      </trkpt>
      <trkpt lat="46.057629631832242" lon="7.001667749136686">
        <ele>1536.3199999999999</ele>
        <time>2014-07-13T13:27:19Z</time>
      </trkpt>
      <trkpt lat="46.0576266143471" lon="7.001640591770411">
        <ele>1534.8800000000001</ele>
        <time>2014-07-13T13:27:44Z</time>
      </trkpt>
      <trkpt lat="46.057624099776149" lon="7.00163908302784">
        <ele>1538.25</ele>
        <time>2014-07-13T13:27:45Z</time>
      </trkpt>
      <trkpt lat="46.057618567720056" lon="7.001595748588443">
        <ele>1536.8</ele>
        <time>2014-07-13T13:28:01Z</time>
      </trkpt>
      <trkpt lat="46.057618064805865" lon="7.001572363078594">
        <ele>1536.3199999999999</ele>
        <time>2014-07-13T13:28:22Z</time>
      </trkpt>
      <trkpt lat="46.057630972936749" lon="7.001572111621499">
        <ele>1535.8399999999999</ele>
        <time>2014-07-13T13:28:56Z</time>
      </trkpt>
      <trkpt lat="46.057624770328403" lon="7.001611925661564">
        <ele>1536.3199999999999</ele>
        <time>2014-07-13T13:29:16Z</time>
      </trkpt>
      <trkpt lat="46.057600630447268" lon="7.001589713618159">
        <ele>1535.8399999999999</ele>
        <time>2014-07-13T13:29:45Z</time>
      </trkpt>
      <trkpt lat="46.057611191645265" lon="7.001595245674253">
        <ele>1535.8399999999999</ele>
        <time>2014-07-13T13:30:11Z</time>
      </trkpt>
      <trkpt lat="46.057616639882326" lon="7.001591641455889">
        <ele>1536.3199999999999</ele>
        <time>2014-07-13T13:30:35Z</time>
      </trkpt>
      <trkpt lat="46.057625021785498" lon="7.001601029187441">
        <ele>1536.8</ele>
        <time>2014-07-13T13:30:46Z</time>
      </trkpt>
      <trkpt lat="46.057675313204527" lon="7.001626258715987">
        <ele>1535.3599999999999</ele>
        <time>2014-07-13T13:30:58Z</time>
      </trkpt>
      <trkpt lat="46.057711020112038" lon="7.001579906791449">
        <ele>1534.4000000000001</ele>
        <time>2014-07-13T13:31:10Z</time>
      </trkpt>
      <trkpt lat="46.057708337903023" lon="7.001565573737025">
        <ele>1534.4000000000001</ele>
        <time>2014-07-13T13:31:12Z</time>
      </trkpt>
      <trkpt lat="46.057696519419551" lon="7.001454597339034">
        <ele>1536.3199999999999</ele>
        <time>2014-07-13T13:31:29Z</time>
      </trkpt>
      <trkpt lat="46.057692999020219" lon="7.001468176022172">
        <ele>1535.8399999999999</ele>
        <time>2014-07-13T13:31:45Z</time>
      </trkpt>
      <trkpt lat="46.057660561054945" lon="7.001494159922004">
        <ele>1535.3599999999999</ele>
        <time>2014-07-13T13:32:12Z</time>
      </trkpt>
      <trkpt lat="46.057685539126396" lon="7.001482844352722">
        <ele>1535.3599999999999</ele>
        <time>2014-07-13T13:32:34Z</time>
      </trkpt>
      <trkpt lat="46.057695681229234" lon="7.001478234305978">
        <ele>1535.3599999999999</ele>
        <time>2014-07-13T13:32:56Z</time>
      </trkpt>
      <trkpt lat="46.057699620723724" lon="7.001457028090954">
        <ele>1534.8800000000001</ele>
        <time>2014-07-13T13:33:24Z</time>
      </trkpt>
      <trkpt lat="46.057719653472304" lon="7.001244965940714">
        <ele>1534.4000000000001</ele>
        <time>2014-07-13T13:33:38Z</time>
      </trkpt>
      <trkpt lat="46.05765494517982" lon="7.00121445581317">
        <ele>1533.9200000000001</ele>
        <time>2014-07-13T13:33:50Z</time>
      </trkpt>
      <trkpt lat="46.057575736194849" lon="7.001235913485289">
        <ele>1533.4400000000001</ele>
        <time>2014-07-13T13:34:00Z</time>
      </trkpt>
      <trkpt lat="46.057597026228905" lon="7.0010971929878">
        <ele>1533.4400000000001</ele>
        <time>2014-07-13T13:34:08Z</time>
      </trkpt>
      <trkpt lat="46.057522008195519" lon="7.001082357019186">
        <ele>1533.4400000000001</ele>
        <time>2014-07-13T13:34:23Z</time>
      </trkpt>
      <trkpt lat="46.057422431185842" lon="7.001081854104996">
        <ele>1534.4000000000001</ele>
        <time>2014-07-13T13:34:40Z</time>
      </trkpt>
      <trkpt lat="46.057375408709049" lon="7.001087637618184">
        <ele>1534.4000000000001</ele>
        <time>2014-07-13T13:34:56Z</time>
      </trkpt>
      <trkpt lat="46.057387394830585" lon="7.001107502728701">
        <ele>1534.8800000000001</ele>
        <time>2014-07-13T13:35:27Z</time>
      </trkpt>
      <trkpt lat="46.057393345981836" lon="7.001081686466932">
        <ele>1533.9200000000001</ele>
        <time>2014-07-13T13:35:45Z</time>
      </trkpt>
      <trkpt lat="46.057349424809217" lon="7.00104589574039">
        <ele>1534.4000000000001</ele>
        <time>2014-07-13T13:36:03Z</time>
      </trkpt>
      <trkpt lat="46.057263007387519" lon="7.001024521887302">
        <ele>1534.4000000000001</ele>
        <time>2014-07-13T13:36:19Z</time>
      </trkpt>
      <trkpt lat="46.057225288823247" lon="7.000992419198155">
        <ele>1534.8800000000001</ele>
        <time>2014-07-13T13:36:24Z</time>
      </trkpt>
      <trkpt lat="46.057128561660647" lon="7.000885047018528">
        <ele>1534.4000000000001</ele>
        <time>2014-07-13T13:36:39Z</time>
      </trkpt>
      <trkpt lat="46.057100398465991" lon="7.000845819711685">
        <ele>1534.4000000000001</ele>
        <time>2014-07-13T13:36:43Z</time>
      </trkpt>
      <trkpt lat="46.056954469531775" lon="7.000707685947418">
        <ele>1534.4000000000001</ele>
        <time>2014-07-13T13:37:01Z</time>
      </trkpt>
      <trkpt lat="46.056784065440297" lon="7.000751020386815">
        <ele>1534.4000000000001</ele>
        <time>2014-07-13T13:37:17Z</time>
      </trkpt>
      <trkpt lat="46.056627407670021" lon="7.000902062281966">
        <ele>1534.8800000000001</ele>
        <time>2014-07-13T13:37:33Z</time>
      </trkpt>
      <trkpt lat="46.05641970410943" lon="7.000798545777798">
        <ele>1534.4000000000001</ele>
        <time>2014-07-13T13:37:52Z</time>
      </trkpt>
      <trkpt lat="46.056310320273042" lon="7.000708607956767">
        <ele>1534.4000000000001</ele>
        <time>2014-07-13T13:38:03Z</time>
      </trkpt>
      <trkpt lat="46.056127091869712" lon="7.000644821673632">
        <ele>1533.9200000000001</ele>
        <time>2014-07-13T13:38:20Z</time>
      </trkpt>
      <trkpt lat="46.055954676121473" lon="7.000478859990835">
        <ele>1533.9200000000001</ele>
        <time>2014-07-13T13:38:38Z</time>
      </trkpt>
      <trkpt lat="46.055816961452365" lon="7.000341648235917">
        <ele>1534.8800000000001</ele>
        <time>2014-07-13T13:38:54Z</time>
      </trkpt>
      <trkpt lat="46.055755270645022" lon="7.000307617709041">
        <ele>1534.4000000000001</ele>
        <time>2014-07-13T13:39:01Z</time>
      </trkpt>
      <trkpt lat="46.055725179612637" lon="7.000297475606203">
        <ele>1534.8800000000001</ele>
        <time>2014-07-13T13:39:04Z</time>
      </trkpt>
      <trkpt lat="46.055598612874746" lon="7.000232767313719">
        <ele>1534.4000000000001</ele>
        <time>2014-07-13T13:39:19Z</time>
      </trkpt>
      <trkpt lat="46.055484032258391" lon="7.000164706259966">
        <ele>1533.4400000000001</ele>
        <time>2014-07-13T13:39:34Z</time>
      </trkpt>
      <trkpt lat="46.055382024496794" lon="7.00015707872808">
        <ele>1532.96</ele>
        <time>2014-07-13T13:39:51Z</time>
      </trkpt>
      <trkpt lat="46.055282196030021" lon="7.000145427882671">
        <ele>1533.4400000000001</ele>
        <time>2014-07-13T13:40:03Z</time>
      </trkpt>
      <trkpt lat="46.055165687575936" lon="7.000249782577157">
        <ele>1533.4400000000001</ele>
        <time>2014-07-13T13:40:18Z</time>
      </trkpt>
      <trkpt lat="46.055050184950233" lon="7.000395711511374">
        <ele>1533.4400000000001</ele>
        <time>2014-07-13T13:40:33Z</time>
      </trkpt>
      <trkpt lat="46.054898556321859" lon="7.000514315441251">
        <ele>1533.4400000000001</ele>
        <time>2014-07-13T13:40:49Z</time>
      </trkpt>
      <trkpt lat="46.054708790034056" lon="7.000561757013202">
        <ele>1533.4400000000001</ele>
        <time>2014-07-13T13:41:05Z</time>
      </trkpt>
      <trkpt lat="46.054531764239073" lon="7.00059000402689">
        <ele>1532.48</ele>
        <time>2014-07-13T13:41:19Z</time>
      </trkpt>
      <trkpt lat="46.054414752870798" lon="7.000549100339413">
        <ele>1532.48</ele>
        <time>2014-07-13T13:41:29Z</time>
      </trkpt>
      <trkpt lat="46.054252982139587" lon="7.000563768669963">
        <ele>1532.48</ele>
        <time>2014-07-13T13:41:43Z</time>
      </trkpt>
      <trkpt lat="46.05411384254694" lon="7.000560248270631">
        <ele>1533.4400000000001</ele>
        <time>2014-07-13T13:41:57Z</time>
      </trkpt>
      <trkpt lat="46.053941762074828" lon="7.000595284625888">
        <ele>1533.4400000000001</ele>
        <time>2014-07-13T13:42:12Z</time>
      </trkpt>
      <trkpt lat="46.053754426538944" lon="7.00061053968966">
        <ele>1532.96</ele>
        <time>2014-07-13T13:42:28Z</time>
      </trkpt>
      <trkpt lat="46.053662644699216" lon="7.000584052875638">
        <ele>1532.96</ele>
        <time>2014-07-13T13:42:36Z</time>
      </trkpt>
      <trkpt lat="46.053554518148303" lon="7.000607270747423">
        <ele>1533.4400000000001</ele>
        <time>2014-07-13T13:42:45Z</time>
      </trkpt>
      <trkpt lat="46.05343759059906" lon="7.000619759783149">
        <ele>1532.96</ele>
        <time>2014-07-13T13:42:56Z</time>
      </trkpt>
      <trkpt lat="46.053259894251823" lon="7.000644821673632">
        <ele>1533.4400000000001</ele>
        <time>2014-07-13T13:43:12Z</time>
      </trkpt>
      <trkpt lat="46.053097788244486" lon="7.000703327357769">
        <ele>1534.4000000000001</ele>
        <time>2014-07-13T13:43:28Z</time>
      </trkpt>
      <trkpt lat="46.053082784637809" lon="7.000700226053596">
        <ele>1533.9200000000001</ele>
        <time>2014-07-13T13:43:29Z</time>
      </trkpt>
      <trkpt lat="46.05306526646018" lon="7.000713972374797">
        <ele>1533.9200000000001</ele>
        <time>2014-07-13T13:43:31Z</time>
      </trkpt>
      <trkpt lat="46.053046239539981" lon="7.000728389248252">
        <ele>1533.9200000000001</ele>
        <time>2014-07-13T13:43:32Z</time>
      </trkpt>
      <trkpt lat="46.052985303103924" lon="7.00074196793139">
        <ele>1534.8800000000001</ele>
        <time>2014-07-13T13:43:38Z</time>
      </trkpt>
      <trkpt lat="46.052802158519626" lon="7.000818327069283">
        <ele>1533.9200000000001</ele>
        <time>2014-07-13T13:43:56Z</time>
      </trkpt>
      <trkpt lat="46.052726302295923" lon="7.000844730064273">
        <ele>1533.9200000000001</ele>
        <time>2014-07-13T13:44:09Z</time>
      </trkpt>
      <trkpt lat="46.052733091637492" lon="7.000789996236563">
        <ele>1532</ele>
        <time>2014-07-13T13:44:22Z</time>
      </trkpt>
      <trkpt lat="46.05276083573699" lon="7.000750852748752">
        <ele>1530.5599999999999</ele>
        <time>2014-07-13T13:44:31Z</time>
      </trkpt>
      <trkpt lat="46.052765529602766" lon="7.000703997910023">
        <ele>1527.6700000000001</ele>
        <time>2014-07-13T13:44:41Z</time>
      </trkpt>
      <trkpt lat="46.052797632291913" lon="7.000646162778139">
        <ele>1524.3099999999999</ele>
        <time>2014-07-13T13:44:52Z</time>
      </trkpt>
      <trkpt lat="46.052833674475551" lon="7.000592937693">
        <ele>1521.4200000000001</ele>
        <time>2014-07-13T13:45:05Z</time>
      </trkpt>
      <trkpt lat="46.052859323099256" lon="7.000533426180482">
        <ele>1518.0599999999999</ele>
        <time>2014-07-13T13:45:16Z</time>
      </trkpt>
      <trkpt lat="46.052884636446834" lon="7.000449104234576">
        <ele>1515.6600000000001</ele>
        <time>2014-07-13T13:45:31Z</time>
      </trkpt>
      <trkpt lat="46.05280676856637" lon="7.000453881919384">
        <ele>1512.29</ele>
        <time>2014-07-13T13:45:46Z</time>
      </trkpt>
      <trkpt lat="46.052732169628143" lon="7.000419767573476">
        <ele>1510.3699999999999</ele>
        <time>2014-07-13T13:45:59Z</time>
      </trkpt>
      <trkpt lat="46.052652038633823" lon="7.000375762581825">
        <ele>1507</ele>
        <time>2014-07-13T13:46:13Z</time>
      </trkpt>
      <trkpt lat="46.052620355039835" lon="7.000304013490677">
        <ele>1504.5999999999999</ele>
        <time>2014-07-13T13:46:25Z</time>
      </trkpt>
      <trkpt lat="46.052579786628485" lon="7.000243747606874">
        <ele>1502.2</ele>
        <time>2014-07-13T13:46:40Z</time>
      </trkpt>
      <trkpt lat="46.052526645362377" lon="7.000173004344106">
        <ele>1499.3099999999999</ele>
        <time>2014-07-13T13:46:58Z</time>
      </trkpt>
      <trkpt lat="46.052533015608788" lon="7.000133274123073">
        <ele>1497.8699999999999</ele>
        <time>2014-07-13T13:47:17Z</time>
      </trkpt>
      <trkpt lat="46.052487501874566" lon="7.000101925805211">
        <ele>1494.51</ele>
        <time>2014-07-13T13:47:30Z</time>
      </trkpt>
      <trkpt lat="46.052492698654532" lon="7.000040402635932">
        <ele>1491.6199999999999</ele>
        <time>2014-07-13T13:47:45Z</time>
      </trkpt>
      <trkpt lat="46.052523041144013" lon="7.000006372109056">
        <ele>1489.22</ele>
        <time>2014-07-13T13:48:04Z</time>
      </trkpt>
      <trkpt lat="46.052586827427149" lon="6.999986423179507">
        <ele>1486.3399999999999</ele>
        <time>2014-07-13T13:48:22Z</time>
      </trkpt>
      <trkpt lat="46.052619013935328" lon="6.999945603311062">
        <ele>1483.45</ele>
        <time>2014-07-13T13:48:44Z</time>
      </trkpt>
      <trkpt lat="46.052601411938667" lon="6.999925067648292">
        <ele>1481.53</ele>
        <time>2014-07-13T13:48:58Z</time>
      </trkpt>
      <trkpt lat="46.052541481330991" lon="6.999844601377845">
        <ele>1479.1300000000001</ele>
        <time>2014-07-13T13:49:15Z</time>
      </trkpt>
      <trkpt lat="46.052544750273228" lon="6.999679310247302">
        <ele>1479.1300000000001</ele>
        <time>2014-07-13T13:49:28Z</time>
      </trkpt>
      <trkpt lat="46.052544331178069" lon="6.999597335234284">
        <ele>1477.6800000000001</ele>
        <time>2014-07-13T13:49:39Z</time>
      </trkpt>
      <trkpt lat="46.052602920681238" lon="6.999593898653984">
        <ele>1474.3199999999999</ele>
        <time>2014-07-13T13:49:51Z</time>
      </trkpt>
      <trkpt lat="46.052685817703605" lon="6.999562047421932">
        <ele>1471.9200000000001</ele>
        <time>2014-07-13T13:50:02Z</time>
      </trkpt>
      <trkpt lat="46.052752789109945" lon="6.999519215896726">
        <ele>1469.03</ele>
        <time>2014-07-13T13:50:15Z</time>
      </trkpt>
      <trkpt lat="46.052854126319289" lon="6.999466242268682">
        <ele>1466.1500000000001</ele>
        <time>2014-07-13T13:50:27Z</time>
      </trkpt>
      <trkpt lat="46.052902154624462" lon="6.999356187880039">
        <ele>1462.78</ele>
        <time>2014-07-13T13:50:42Z</time>
      </trkpt>
      <trkpt lat="46.052865358069539" lon="6.999344620853663">
        <ele>1461.8199999999999</ele>
        <time>2014-07-13T13:50:48Z</time>
      </trkpt>
      <trkpt lat="46.052781203761697" lon="6.999318553134799">
        <ele>1458.46</ele>
        <time>2014-07-13T13:50:56Z</time>
      </trkpt>
      <trkpt lat="46.052714986726642" lon="6.99935182929039">
        <ele>1456.05</ele>
        <time>2014-07-13T13:51:07Z</time>
      </trkpt>
      <trkpt lat="46.052687829360366" lon="6.999265579506755">
        <ele>1452.6900000000001</ele>
        <time>2014-07-13T13:51:20Z</time>
      </trkpt>
      <trkpt lat="46.05272127315402" lon="6.999213360249996">
        <ele>1449.3199999999999</ele>
        <time>2014-07-13T13:51:30Z</time>
      </trkpt>
      <trkpt lat="46.052715489640832" lon="6.999165751039982">
        <ele>1448.3599999999999</ele>
        <time>2014-07-13T13:51:41Z</time>
      </trkpt>
      <trkpt lat="46.052693445235491" lon="6.999155944213271">
        <ele>1448.3599999999999</ele>
        <time>2014-07-13T13:51:48Z</time>
      </trkpt>
      <trkpt lat="46.052564447745681" lon="6.999144544824958">
        <ele>1445</ele>
        <time>2014-07-13T13:52:02Z</time>
      </trkpt>
      <trkpt lat="46.052592024207115" lon="6.999039268121123">
        <ele>1442.5999999999999</ele>
        <time>2014-07-13T13:52:14Z</time>
      </trkpt>
      <trkpt lat="46.05258397758007" lon="6.998980930075049">
        <ele>1439.71</ele>
        <time>2014-07-13T13:52:29Z</time>
      </trkpt>
      <trkpt lat="46.052602669224143" lon="6.998910941183567">
        <ele>1436.8299999999999</ele>
        <time>2014-07-13T13:52:43Z</time>
      </trkpt>
      <trkpt lat="46.05256101116538" lon="6.998876575380564">
        <ele>1434.9100000000001</ele>
        <time>2014-07-13T13:52:57Z</time>
      </trkpt>
      <trkpt lat="46.052513234317303" lon="6.998875150457025">
        <ele>1431.54</ele>
        <time>2014-07-13T13:53:10Z</time>
      </trkpt>
      <trkpt lat="46.052511725574732" lon="6.998774148523808">
        <ele>1428.6600000000001</ele>
        <time>2014-07-13T13:53:22Z</time>
      </trkpt>
      <trkpt lat="46.052555395290256" lon="6.998658645898104">
        <ele>1425.77</ele>
        <time>2014-07-13T13:53:37Z</time>
      </trkpt>
      <trkpt lat="46.052554221823812" lon="6.998584466055036">
        <ele>1423.3699999999999</ele>
        <time>2014-07-13T13:53:53Z</time>
      </trkpt>
      <trkpt lat="46.052532931789756" lon="6.998535851016641">
        <ele>1420</ele>
        <time>2014-07-13T13:54:06Z</time>
      </trkpt>
      <trkpt lat="46.052480628713965" lon="6.998516572639346">
        <ele>1417.1199999999999</ele>
        <time>2014-07-13T13:54:18Z</time>
      </trkpt>
      <trkpt lat="46.052443496882915" lon="6.998446332290769">
        <ele>1414.24</ele>
        <time>2014-07-13T13:54:33Z</time>
      </trkpt>
      <trkpt lat="46.052374010905623" lon="6.9984395429492">
        <ele>1410.8699999999999</ele>
        <time>2014-07-13T13:54:45Z</time>
      </trkpt>
      <trkpt lat="46.052397228777409" lon="6.99838874861598">
        <ele>1407.99</ele>
        <time>2014-07-13T13:54:56Z</time>
      </trkpt>
      <trkpt lat="46.052438048645854" lon="6.998333428055048">
        <ele>1405.0999999999999</ele>
        <time>2014-07-13T13:55:06Z</time>
      </trkpt>
      <trkpt lat="46.052372418344021" lon="6.998296128585935">
        <ele>1402.22</ele>
        <time>2014-07-13T13:55:19Z</time>
      </trkpt>
      <trkpt lat="46.052299328148365" lon="6.998147768899798">
        <ele>1399.8199999999999</ele>
        <time>2014-07-13T13:55:32Z</time>
      </trkpt>
      <trkpt lat="46.052239900454879" lon="6.99806671589613">
        <ele>1396.9300000000001</ele>
        <time>2014-07-13T13:55:43Z</time>
      </trkpt>
      <trkpt lat="46.052255658432841" lon="6.997984824702144">
        <ele>1393.5699999999999</ele>
        <time>2014-07-13T13:55:57Z</time>
      </trkpt>
      <trkpt lat="46.052196985110641" lon="6.997876279056072">
        <ele>1390.2</ele>
        <time>2014-07-13T13:56:08Z</time>
      </trkpt>
      <trkpt lat="46.052238056436181" lon="6.997812241315842">
        <ele>1387.3199999999999</ele>
        <time>2014-07-13T13:56:21Z</time>
      </trkpt>
      <trkpt lat="46.052270494401455" lon="6.997678298503161">
        <ele>1384.9200000000001</ele>
        <time>2014-07-13T13:56:35Z</time>
      </trkpt>
      <trkpt lat="46.052250545471907" lon="6.997681483626366">
        <ele>1382.03</ele>
        <time>2014-07-13T13:56:47Z</time>
      </trkpt>
      <trkpt lat="46.052226992323995" lon="6.997621469199657">
        <ele>1378.6700000000001</ele>
        <time>2014-07-13T13:57:00Z</time>
      </trkpt>
      <trkpt lat="46.052203355357051" lon="6.99748819693923">
        <ele>1375.78</ele>
        <time>2014-07-13T13:57:11Z</time>
      </trkpt>
      <trkpt lat="46.052201511338353" lon="6.997453747317195">
        <ele>1374.3399999999999</ele>
        <time>2014-07-13T13:57:17Z</time>
      </trkpt>
      <trkpt lat="46.05219111777842" lon="6.997432038187981">
        <ele>1374.3399999999999</ele>
        <time>2014-07-13T13:57:18Z</time>
      </trkpt>
      <trkpt lat="46.052244426682591" lon="6.997403120622039">
        <ele>1372.9000000000001</ele>
        <time>2014-07-13T13:57:28Z</time>
      </trkpt>
      <trkpt lat="46.05226144194603" lon="6.99735576286912">
        <ele>1372.9000000000001</ele>
        <time>2014-07-13T13:57:42Z</time>
      </trkpt>
      <trkpt lat="46.052325312048197" lon="6.997319888323546">
        <ele>1371.9400000000001</ele>
        <time>2014-07-13T13:57:58Z</time>
      </trkpt>
      <trkpt lat="46.052323970943689" lon="6.997304297983646">
        <ele>1371.9400000000001</ele>
        <time>2014-07-13T13:58:21Z</time>
      </trkpt>
      <trkpt lat="46.052332939580083" lon="6.997320307418704">
        <ele>1371.9400000000001</ele>
        <time>2014-07-13T13:58:41Z</time>
      </trkpt>
      <trkpt lat="46.052358169108629" lon="6.99731913395226">
        <ele>1372.4200000000001</ele>
        <time>2014-07-13T13:59:01Z</time>
      </trkpt>
      <trkpt lat="46.052323300391436" lon="6.997354757040739">
        <ele>1372.4200000000001</ele>
        <time>2014-07-13T13:59:18Z</time>
      </trkpt>
      <trkpt lat="46.052344590425491" lon="6.997361127287149">
        <ele>1372.4200000000001</ele>
        <time>2014-07-13T13:59:34Z</time>
      </trkpt>
      <trkpt lat="46.052356995642185" lon="6.997257526963949">
        <ele>1372.4200000000001</ele>
        <time>2014-07-13T13:59:49Z</time>
      </trkpt>
      <trkpt lat="46.052373759448528" lon="6.997250989079475">
        <ele>1371.9400000000001</ele>
        <time>2014-07-13T14:00:10Z</time>
      </trkpt>
      <trkpt lat="46.052442574873567" lon="6.997224166989327">
        <ele>1370.98</ele>
        <time>2014-07-13T14:00:22Z</time>
      </trkpt>
      <trkpt lat="46.052558580413461" lon="6.997288623824716">
        <ele>1369.54</ele>
        <time>2014-07-13T14:00:36Z</time>
      </trkpt>
      <trkpt lat="46.05259520933032" lon="6.997366156429052">
        <ele>1368.5699999999999</ele>
        <time>2014-07-13T14:00:42Z</time>
      </trkpt>
      <trkpt lat="46.052599232643843" lon="6.997412005439401">
        <ele>1368.0899999999999</ele>
        <time>2014-07-13T14:00:44Z</time>
      </trkpt>
      <trkpt lat="46.052622366696596" lon="6.997532621026039">
        <ele>1366.1700000000001</ele>
        <time>2014-07-13T14:01:00Z</time>
      </trkpt>
      <trkpt lat="46.052756225690246" lon="6.997512755915523">
        <ele>1364.73</ele>
        <time>2014-07-13T14:01:12Z</time>
      </trkpt>
      <trkpt lat="46.052851611748338" lon="6.997492806985974">
        <ele>1362.8099999999999</ele>
        <time>2014-07-13T14:01:20Z</time>
      </trkpt>
      <trkpt lat="46.053022015839815" lon="6.997475037351251">
        <ele>1360.8800000000001</ele>
        <time>2014-07-13T14:01:34Z</time>
      </trkpt>
      <trkpt lat="46.05316836386919" lon="6.997411753982306">
        <ele>1358.96</ele>
        <time>2014-07-13T14:01:48Z</time>
      </trkpt>
      <trkpt lat="46.053204238414764" lon="6.997414939105511">
        <ele>1358.48</ele>
        <time>2014-07-13T14:01:52Z</time>
      </trkpt>
      <trkpt lat="46.053321333602071" lon="6.997385686263442">
        <ele>1356.5599999999999</ele>
        <time>2014-07-13T14:02:04Z</time>
      </trkpt>
      <trkpt lat="46.05337799526751" lon="6.997379148378968">
        <ele>1355.5999999999999</ele>
        <time>2014-07-13T14:02:09Z</time>
      </trkpt>
      <trkpt lat="46.053570527583361" lon="6.997343692928553">
        <ele>1352.23</ele>
        <time>2014-07-13T14:02:24Z</time>
      </trkpt>
      <trkpt lat="46.053654849529266" lon="6.997373281046748">
        <ele>1350.3099999999999</ele>
        <time>2014-07-13T14:02:36Z</time>
      </trkpt>
      <trkpt lat="46.053760210052133" lon="6.997339418157935">
        <ele>1348.8699999999999</ele>
        <time>2014-07-13T14:02:53Z</time>
      </trkpt>
      <trkpt lat="46.053935475647449" lon="6.997301615774632">
        <ele>1345.98</ele>
        <time>2014-07-13T14:03:09Z</time>
      </trkpt>
      <trkpt lat="46.053995657712221" lon="6.997296335175633">
        <ele>1345.02</ele>
        <time>2014-07-13T14:03:16Z</time>
      </trkpt>
      <trkpt lat="46.054024659097195" lon="6.997287450358272">
        <ele>1344.54</ele>
        <time>2014-07-13T14:03:20Z</time>
      </trkpt>
      <trkpt lat="46.05407671071589" lon="6.997271776199341">
        <ele>1343.5799999999999</ele>
        <time>2014-07-13T14:03:25Z</time>
      </trkpt>
      <trkpt lat="46.054120464250445" lon="6.997310081496835">
        <ele>1343.0999999999999</ele>
        <time>2014-07-13T14:03:39Z</time>
      </trkpt>
      <trkpt lat="46.054130187258124" lon="6.997286779806018">
        <ele>1343.0999999999999</ele>
        <time>2014-07-13T14:03:45Z</time>
      </trkpt>
      <trkpt lat="46.054298244416714" lon="6.997189465910196">
        <ele>1340.22</ele>
        <time>2014-07-13T14:04:03Z</time>
      </trkpt>
      <trkpt lat="46.054464625194669" lon="6.997182928025723">
        <ele>1337.3299999999999</ele>
        <time>2014-07-13T14:04:18Z</time>
      </trkpt>
      <trkpt lat="46.054553473368287" lon="6.997214863076806">
        <ele>1335.4100000000001</ele>
        <time>2014-07-13T14:04:31Z</time>
      </trkpt>
      <trkpt lat="46.054669395089149" lon="6.997259287163615">
        <ele>1333.97</ele>
        <time>2014-07-13T14:04:46Z</time>
      </trkpt>
      <trkpt lat="46.054724715650082" lon="6.997249480336905">
        <ele>1333.97</ele>
        <time>2014-07-13T14:05:02Z</time>
      </trkpt>
      <trkpt lat="46.054755058139563" lon="6.997213857248426">
        <ele>1333.01</ele>
        <time>2014-07-13T14:05:17Z</time>
      </trkpt>
      <trkpt lat="46.054840469732881" lon="6.997206145897508">
        <ele>1333.01</ele>
        <time>2014-07-13T14:05:34Z</time>
      </trkpt>
      <trkpt lat="46.054803589358926" lon="6.99722777120769">
        <ele>1333.01</ele>
        <time>2014-07-13T14:05:59Z</time>
      </trkpt>
      <trkpt lat="46.054780120030046" lon="6.997222490608692">
        <ele>1333.01</ele>
        <time>2014-07-13T14:06:03Z</time>
      </trkpt>
      <trkpt lat="46.054659839719534" lon="6.997030545026064">
        <ele>1331.0799999999999</ele>
        <time>2014-07-13T14:06:16Z</time>
      </trkpt>
      <trkpt lat="46.054523633792996" lon="6.996890902519226">
        <ele>1328.2</ele>
        <time>2014-07-13T14:06:26Z</time>
      </trkpt>
      <trkpt lat="46.054485915228724" lon="6.996876234188676">
        <ele>1327.24</ele>
        <time>2014-07-13T14:06:32Z</time>
      </trkpt>
      <trkpt lat="46.054379884153605" lon="6.996606336906552">
        <ele>1324.3499999999999</ele>
        <time>2014-07-13T14:06:49Z</time>
      </trkpt>
      <trkpt lat="46.054468313232064" lon="6.996457725763321">
        <ele>1323.3900000000001</ele>
        <time>2014-07-13T14:06:57Z</time>
      </trkpt>
      <trkpt lat="46.054726056754589" lon="6.996404500678182">
        <ele>1322.4300000000001</ele>
        <time>2014-07-13T14:07:13Z</time>
      </trkpt>
      <trkpt lat="46.054985225200653" lon="6.996332751587033">
        <ele>1320.03</ele>
        <time>2014-07-13T14:07:33Z</time>
      </trkpt>
      <trkpt lat="46.055056806653738" lon="6.996296206489205">
        <ele>1319.0699999999999</ele>
        <time>2014-07-13T14:07:40Z</time>
      </trkpt>
      <trkpt lat="46.055253110826015" lon="6.996102081611753">
        <ele>1317.6199999999999</ele>
        <time>2014-07-13T14:07:58Z</time>
      </trkpt>
      <trkpt lat="46.055405493825674" lon="6.996047934517264">
        <ele>1316.1800000000001</ele>
        <time>2014-07-13T14:08:12Z</time>
      </trkpt>
      <trkpt lat="46.055559888482094" lon="6.995925726369023">
        <ele>1315.22</ele>
        <time>2014-07-13T14:08:28Z</time>
      </trkpt>
      <trkpt lat="46.055527618154883" lon="6.996003426611424">
        <ele>1314.26</ele>
        <time>2014-07-13T14:08:40Z</time>
      </trkpt>
      <trkpt lat="46.055637924000621" lon="6.995824221521616">
        <ele>1312.8199999999999</ele>
        <time>2014-07-13T14:08:55Z</time>
      </trkpt>
      <trkpt lat="46.055995915085077" lon="6.995548792183399">
        <ele>1309.9300000000001</ele>
        <time>2014-07-13T14:09:09Z</time>
      </trkpt>
      <trkpt lat="46.056184256449342" lon="6.995310243219137">
        <ele>1308.01</ele>
        <time>2014-07-13T14:09:26Z</time>
      </trkpt>
      <trkpt lat="46.056274864822626" lon="6.995103377848864">
        <ele>1304.6500000000001</ele>
        <time>2014-07-13T14:09:42Z</time>
      </trkpt>
      <trkpt lat="46.056425990536809" lon="6.994824092835188">
        <ele>1302.72</ele>
        <time>2014-07-13T14:10:00Z</time>
      </trkpt>
      <trkpt lat="46.056529255583882" lon="6.994582442566752">
        <ele>1300.3199999999999</ele>
        <time>2014-07-13T14:10:15Z</time>
      </trkpt>
      <trkpt lat="46.056561274453998" lon="6.994364513084292">
        <ele>1298.4000000000001</ele>
        <time>2014-07-13T14:10:28Z</time>
      </trkpt>
      <trkpt lat="46.056578122079372" lon="6.994150942191482">
        <ele>1295.51</ele>
        <time>2014-07-13T14:10:40Z</time>
      </trkpt>
      <trkpt lat="46.056765038520098" lon="6.99403895996511">
        <ele>1294.0699999999999</ele>
        <time>2014-07-13T14:10:57Z</time>
      </trkpt>
      <trkpt lat="46.056964863091707" lon="6.994099477306008">
        <ele>1293.1099999999999</ele>
        <time>2014-07-13T14:11:14Z</time>
      </trkpt>
      <trkpt lat="46.05719025246799" lon="6.994082881137729">
        <ele>1292.1500000000001</ele>
        <time>2014-07-13T14:11:33Z</time>
      </trkpt>
      <trkpt lat="46.057380605489016" lon="6.994009874761105">
        <ele>1291.6700000000001</ele>
        <time>2014-07-13T14:11:50Z</time>
      </trkpt>
      <trkpt lat="46.057558720931411" lon="6.993917003273964">
        <ele>1291.6700000000001</ele>
        <time>2014-07-13T14:12:07Z</time>
      </trkpt>
      <trkpt lat="46.057606330141425" lon="6.993847768753767">
        <ele>1291.1900000000001</ele>
        <time>2014-07-13T14:12:20Z</time>
      </trkpt>
      <trkpt lat="46.057625189423561" lon="6.993858329951763">
        <ele>1291.1900000000001</ele>
        <time>2014-07-13T14:12:22Z</time>
      </trkpt>
      <trkpt lat="46.057744966819882" lon="6.993922367691994">
        <ele>1291.1900000000001</ele>
        <time>2014-07-13T14:12:38Z</time>
      </trkpt>
      <trkpt lat="46.057691490277648" lon="6.993890600278974">
        <ele>1292.1500000000001</ele>
        <time>2014-07-13T14:12:54Z</time>
      </trkpt>
      <trkpt lat="46.05746291577816" lon="6.993685411289334">
        <ele>1291.6700000000001</ele>
        <time>2014-07-13T14:13:29Z</time>
      </trkpt>
      <trkpt lat="46.057747481390834" lon="6.993897892534733">
        <ele>1291.6700000000001</ele>
        <time>2014-07-13T14:13:42Z</time>
      </trkpt>
      <trkpt lat="46.057750415056944" lon="6.993891354650259">
        <ele>1291.6700000000001</ele>
        <time>2014-07-13T14:13:43Z</time>
      </trkpt>
      <trkpt lat="46.057914029806852" lon="6.99397349730134">
        <ele>1291.1900000000001</ele>
        <time>2014-07-13T14:13:58Z</time>
      </trkpt>
      <trkpt lat="46.057908665388823" lon="6.994004007428885">
        <ele>1290.23</ele>
        <time>2014-07-13T14:14:04Z</time>
      </trkpt>
    </trkseg>
  </trk>

  <trk>
    <name>3tmb2014-07-14</name>
    <extensions>
      <gpxx:TrackExtension>
        <gpxx:DisplayColor>Yellow</gpxx:DisplayColor>
      </gpxx:TrackExtension>
      <gpxtrkx:TrackStatsExtension xmlns:gpxtrkx="http://www.garmin.com/xmlschemas/TrackStatsExtension/v1">
        <gpxtrkx:Distance>22349</gpxtrkx:Distance>
        <gpxtrkx:TotalElapsedTime>33681</gpxtrkx:TotalElapsedTime>
        <gpxtrkx:MovingTime>22424</gpxtrkx:MovingTime>
        <gpxtrkx:StoppedTime>10961</gpxtrkx:StoppedTime>
        <gpxtrkx:MovingSpeed>1</gpxtrkx:MovingSpeed>
        <gpxtrkx:MaxSpeed>2</gpxtrkx:MaxSpeed>
        <gpxtrkx:MaxElevation>2218</gpxtrkx:MaxElevation>
        <gpxtrkx:MinElevation>1286</gpxtrkx:MinElevation>
        <gpxtrkx:Ascent>1201</gpxtrkx:Ascent>
        <gpxtrkx:Descent>1152</gpxtrkx:Descent>
        <gpxtrkx:AvgAscentRate>0</gpxtrkx:AvgAscentRate>
        <gpxtrkx:MaxAscentRate>0</gpxtrkx:MaxAscentRate>
        <gpxtrkx:AvgDescentRate>0</gpxtrkx:AvgDescentRate>
        <gpxtrkx:MaxDescentRate>-1</gpxtrkx:MaxDescentRate>
      </gpxtrkx:TrackStatsExtension>
    </extensions>
    <trkseg>
      <trkpt lat="46.057672798633575" lon="6.993792029097676">
        <ele>1286.8599999999999</ele>
        <time>2014-07-14T05:57:20Z</time>
      </trkpt>
      <trkpt lat="46.057662069797516" lon="6.993763530626893">
        <ele>1286.3800000000001</ele>
        <time>2014-07-14T05:57:41Z</time>
      </trkpt>
      <trkpt lat="46.057655699551105" lon="6.993745677173138">
        <ele>1285.9000000000001</ele>
        <time>2014-07-14T05:58:04Z</time>
      </trkpt>
      <trkpt lat="46.057671876624227" lon="6.993669401854277">
        <ele>1285.9000000000001</ele>
        <time>2014-07-14T05:58:32Z</time>
      </trkpt>
      <trkpt lat="46.057672882452607" lon="6.993653140962124">
        <ele>1285.9000000000001</ele>
        <time>2014-07-14T05:58:57Z</time>
      </trkpt>
      <trkpt lat="46.057636085897684" lon="6.993602598086">
        <ele>1285.9000000000001</ele>
        <time>2014-07-14T05:59:24Z</time>
      </trkpt>
      <trkpt lat="46.057598451152444" lon="6.993525484576821">
        <ele>1285.9000000000001</ele>
        <time>2014-07-14T05:59:57Z</time>
      </trkpt>
      <trkpt lat="46.057568108662963" lon="6.993395313620567">
        <ele>1289.75</ele>
        <time>2014-07-14T06:00:25Z</time>
      </trkpt>
      <trkpt lat="46.057566599920392" lon="6.993390284478664">
        <ele>1294.0699999999999</ele>
        <time>2014-07-14T06:00:27Z</time>
      </trkpt>
      <trkpt lat="46.057563498616219" lon="6.993385590612888">
        <ele>1297.9200000000001</ele>
        <time>2014-07-14T06:00:29Z</time>
      </trkpt>
      <trkpt lat="46.057559475302696" lon="6.993364384397864">
        <ele>1301.28</ele>
        <time>2014-07-14T06:00:31Z</time>
      </trkpt>
      <trkpt lat="46.057561403140426" lon="6.993363797664642">
        <ele>1303.2</ele>
        <time>2014-07-14T06:00:32Z</time>
      </trkpt>
      <trkpt lat="46.057550255209208" lon="6.993358517065644">
        <ele>1303.2</ele>
        <time>2014-07-14T06:00:59Z</time>
      </trkpt>
      <trkpt lat="46.05754304677248" lon="6.993359355255961">
        <ele>1306.5699999999999</ele>
        <time>2014-07-14T06:01:03Z</time>
      </trkpt>
      <trkpt lat="46.057544471696019" lon="6.993357930332422">
        <ele>1310.4100000000001</ele>
        <time>2014-07-14T06:01:05Z</time>
      </trkpt>
      <trkpt lat="46.057547656819224" lon="6.993358349427581">
        <ele>1313.3</ele>
        <time>2014-07-14T06:01:07Z</time>
      </trkpt>
      <trkpt lat="46.0575489141047" lon="6.993348794057965">
        <ele>1317.6199999999999</ele>
        <time>2014-07-14T06:01:10Z</time>
      </trkpt>
      <trkpt lat="46.057546399533749" lon="6.993346447125077">
        <ele>1321.95</ele>
        <time>2014-07-14T06:01:13Z</time>
      </trkpt>
      <trkpt lat="46.057553021237254" lon="6.993364971131086">
        <ele>1325.8</ele>
        <time>2014-07-14T06:01:16Z</time>
      </trkpt>
      <trkpt lat="46.057555451989174" lon="6.993374694138765">
        <ele>1329.1600000000001</ele>
        <time>2014-07-14T06:01:19Z</time>
      </trkpt>
      <trkpt lat="46.057554697617888" lon="6.993366898968816">
        <ele>1332.52</ele>
        <time>2014-07-14T06:01:22Z</time>
      </trkpt>
      <trkpt lat="46.05755377560854" lon="6.993373688310385">
        <ele>1335.4100000000001</ele>
        <time>2014-07-14T06:01:25Z</time>
      </trkpt>
      <trkpt lat="46.057562911882997" lon="6.99340034276247">
        <ele>1338.77</ele>
        <time>2014-07-14T06:01:30Z</time>
      </trkpt>
      <trkpt lat="46.05755821801722" lon="6.993399756029248">
        <ele>1341.6600000000001</ele>
        <time>2014-07-14T06:01:36Z</time>
      </trkpt>
      <trkpt lat="46.057551428675652" lon="6.993397744372487">
        <ele>1345.02</ele>
        <time>2014-07-14T06:01:46Z</time>
      </trkpt>
      <trkpt lat="46.057544723153114" lon="6.993436133489013">
        <ele>1347.4300000000001</ele>
        <time>2014-07-14T06:02:18Z</time>
      </trkpt>
      <trkpt lat="46.057546567171812" lon="6.993400594219565">
        <ele>1347.9100000000001</ele>
        <time>2014-07-14T06:02:44Z</time>
      </trkpt>
      <trkpt lat="46.057549500837922" lon="6.993409898132086">
        <ele>1350.79</ele>
        <time>2014-07-14T06:03:13Z</time>
      </trkpt>
      <trkpt lat="46.057533156126738" lon="6.993373772129417">
        <ele>1352.71</ele>
        <time>2014-07-14T06:03:41Z</time>
      </trkpt>
      <trkpt lat="46.0575005505234" lon="6.993259945884347">
        <ele>1355.1199999999999</ele>
        <time>2014-07-14T06:04:14Z</time>
      </trkpt>
      <trkpt lat="46.057479931041598" lon="6.993225999176502">
        <ele>1355.1199999999999</ele>
        <time>2014-07-14T06:04:46Z</time>
      </trkpt>
      <trkpt lat="46.057458808645606" lon="6.993228010833263">
        <ele>1355.5999999999999</ele>
        <time>2014-07-14T06:05:11Z</time>
      </trkpt>
      <trkpt lat="46.057459563016891" lon="6.993242930620909">
        <ele>1355.5999999999999</ele>
        <time>2014-07-14T06:05:31Z</time>
      </trkpt>
      <trkpt lat="46.057492000982165" lon="6.993360947817564">
        <ele>1356.0799999999999</ele>
        <time>2014-07-14T06:05:41Z</time>
      </trkpt>
      <trkpt lat="46.057480685412884" lon="6.993326665833592">
        <ele>1356.0799999999999</ele>
        <time>2014-07-14T06:06:00Z</time>
      </trkpt>
      <trkpt lat="46.057474063709378" lon="6.993320714682341">
        <ele>1356.0799999999999</ele>
        <time>2014-07-14T06:06:22Z</time>
      </trkpt>
      <trkpt lat="46.057470794767141" lon="6.993269249796867">
        <ele>1356.0799999999999</ele>
        <time>2014-07-14T06:06:52Z</time>
      </trkpt>
      <trkpt lat="46.057477919384837" lon="6.993275536224246">
        <ele>1356.0799999999999</ele>
        <time>2014-07-14T06:07:15Z</time>
      </trkpt>
      <trkpt lat="46.057481188327074" lon="6.993270507082343">
        <ele>1358</ele>
        <time>2014-07-14T06:07:20Z</time>
      </trkpt>
      <trkpt lat="46.057468699291348" lon="6.99319071136415">
        <ele>1356.5599999999999</ele>
        <time>2014-07-14T06:07:32Z</time>
      </trkpt>
      <trkpt lat="46.057430310174823" lon="6.993202613666654">
        <ele>1356.5599999999999</ele>
        <time>2014-07-14T06:07:35Z</time>
      </trkpt>
      <trkpt lat="46.05739108286798" lon="6.993227759376168">
        <ele>1357.04</ele>
        <time>2014-07-14T06:07:39Z</time>
      </trkpt>
      <trkpt lat="46.057267198339105" lon="6.993524394929409">
        <ele>1357.04</ele>
        <time>2014-07-14T06:07:55Z</time>
      </trkpt>
      <trkpt lat="46.057229898869991" lon="6.993730925023556">
        <ele>1357.52</ele>
        <time>2014-07-14T06:07:59Z</time>
      </trkpt>
      <trkpt lat="46.057092351838946" lon="6.994066033512354">
        <ele>1358</ele>
        <time>2014-07-14T06:08:13Z</time>
      </trkpt>
      <trkpt lat="46.056891437619925" lon="6.994228977710009">
        <ele>1358.96</ele>
        <time>2014-07-14T06:08:27Z</time>
      </trkpt>
      <trkpt lat="46.056704521179199" lon="6.994286142289639">
        <ele>1359.4400000000001</ele>
        <time>2014-07-14T06:08:41Z</time>
      </trkpt>
      <trkpt lat="46.056527243927121" lon="6.994274072349072">
        <ele>1359.9200000000001</ele>
        <time>2014-07-14T06:08:56Z</time>
      </trkpt>
      <trkpt lat="46.056398078799248" lon="6.994261583313346">
        <ele>1360.8800000000001</ele>
        <time>2014-07-14T06:09:09Z</time>
      </trkpt>
      <trkpt lat="46.056331861764193" lon="6.994264516979456">
        <ele>1361.3599999999999</ele>
        <time>2014-07-14T06:09:15Z</time>
      </trkpt>
      <trkpt lat="46.056200433522463" lon="6.994253704324365">
        <ele>1362.3299999999999</ele>
        <time>2014-07-14T06:09:29Z</time>
      </trkpt>
      <trkpt lat="46.056351475417614" lon="6.99393049813807">
        <ele>1361.8399999999999</ele>
        <time>2014-07-14T06:09:48Z</time>
      </trkpt>
      <trkpt lat="46.056320881471038" lon="6.993854558095336">
        <ele>1362.3299999999999</ele>
        <time>2014-07-14T06:10:00Z</time>
      </trkpt>
      <trkpt lat="46.056327000260353" lon="6.994068464264274">
        <ele>1361.3599999999999</ele>
        <time>2014-07-14T06:10:13Z</time>
      </trkpt>
      <trkpt lat="46.056320462375879" lon="6.994006270542741">
        <ele>1362.3299999999999</ele>
        <time>2014-07-14T06:10:28Z</time>
      </trkpt>
      <trkpt lat="46.056313421577215" lon="6.993910884484649">
        <ele>1362.8099999999999</ele>
        <time>2014-07-14T06:10:36Z</time>
      </trkpt>
      <trkpt lat="46.056251060217619" lon="6.9938874989748">
        <ele>1362.8099999999999</ele>
        <time>2014-07-14T06:10:44Z</time>
      </trkpt>
      <trkpt lat="46.05610404163599" lon="6.993851624429226">
        <ele>1362.8099999999999</ele>
        <time>2014-07-14T06:11:00Z</time>
      </trkpt>
      <trkpt lat="46.056028017774224" lon="6.993849696591497">
        <ele>1362.8099999999999</ele>
        <time>2014-07-14T06:11:08Z</time>
      </trkpt>
      <trkpt lat="46.056000525131822" lon="6.993855061009526">
        <ele>1362.8099999999999</ele>
        <time>2014-07-14T06:11:11Z</time>
      </trkpt>
      <trkpt lat="46.055985856801271" lon="6.99385522864759">
        <ele>1362.8099999999999</ele>
        <time>2014-07-14T06:11:23Z</time>
      </trkpt>
      <trkpt lat="46.055926932021976" lon="6.993851037696004">
        <ele>1362.8099999999999</ele>
        <time>2014-07-14T06:11:32Z</time>
      </trkpt>
      <trkpt lat="46.055750912055373" lon="6.993804015219212">
        <ele>1362.8099999999999</ele>
        <time>2014-07-14T06:11:46Z</time>
      </trkpt>
      <trkpt lat="46.055737333372235" lon="6.993803512305021">
        <ele>1362.8099999999999</ele>
        <time>2014-07-14T06:11:49Z</time>
      </trkpt>
      <trkpt lat="46.055544298142195" lon="6.993708126246929">
        <ele>1362.8099999999999</ele>
        <time>2014-07-14T06:12:07Z</time>
      </trkpt>
      <trkpt lat="46.055379426106811" lon="6.993659427389503">
        <ele>1362.8099999999999</ele>
        <time>2014-07-14T06:12:22Z</time>
      </trkpt>
      <trkpt lat="46.055230731144547" lon="6.99369790032506">
        <ele>1362.8099999999999</ele>
        <time>2014-07-14T06:12:38Z</time>
      </trkpt>
      <trkpt lat="46.055090418085456" lon="6.993705611675978">
        <ele>1361.3599999999999</ele>
        <time>2014-07-14T06:12:51Z</time>
      </trkpt>
      <trkpt lat="46.054920181632042" lon="6.993720699101687">
        <ele>1362.8099999999999</ele>
        <time>2014-07-14T06:13:10Z</time>
      </trkpt>
      <trkpt lat="46.05482286773622" lon="6.9937355350703">
        <ele>1362.8099999999999</ele>
        <time>2014-07-14T06:13:20Z</time>
      </trkpt>
      <trkpt lat="46.054797889664769" lon="6.993733355775476">
        <ele>1362.8099999999999</ele>
        <time>2014-07-14T06:13:23Z</time>
      </trkpt>
      <trkpt lat="46.054637040942907" lon="6.993708964437246">
        <ele>1363.29</ele>
        <time>2014-07-14T06:13:39Z</time>
      </trkpt>
      <trkpt lat="46.054471079260111" lon="6.993680130690336">
        <ele>1363.29</ele>
        <time>2014-07-14T06:13:56Z</time>
      </trkpt>
      <trkpt lat="46.054427912458777" lon="6.993612572550774">
        <ele>1363.29</ele>
        <time>2014-07-14T06:14:10Z</time>
      </trkpt>
      <trkpt lat="46.054400755092502" lon="6.993613410741091">
        <ele>1363.29</ele>
        <time>2014-07-14T06:14:13Z</time>
      </trkpt>
      <trkpt lat="46.054355995729566" lon="6.99361483566463">
        <ele>1363.29</ele>
        <time>2014-07-14T06:14:17Z</time>
      </trkpt>
      <trkpt lat="46.054162960499525" lon="6.993580386042595">
        <ele>1363.77</ele>
        <time>2014-07-14T06:14:35Z</time>
      </trkpt>
      <trkpt lat="46.054024323821068" lon="6.993591785430908">
        <ele>1363.77</ele>
        <time>2014-07-14T06:14:48Z</time>
      </trkpt>
      <trkpt lat="46.053883507847786" lon="6.993654482066631">
        <ele>1363.29</ele>
        <time>2014-07-14T06:15:02Z</time>
      </trkpt>
      <trkpt lat="46.053717546164989" lon="6.993701001629233">
        <ele>1363.29</ele>
        <time>2014-07-14T06:15:17Z</time>
      </trkpt>
      <trkpt lat="46.053561726585031" lon="6.993744252249599">
        <ele>1363.29</ele>
        <time>2014-07-14T06:15:31Z</time>
      </trkpt>
      <trkpt lat="46.053400123491883" lon="6.993775935843587">
        <ele>1363.29</ele>
        <time>2014-07-14T06:15:46Z</time>
      </trkpt>
      <trkpt lat="46.053276238963008" lon="6.993765374645591">
        <ele>1363.29</ele>
        <time>2014-07-14T06:16:00Z</time>
      </trkpt>
      <trkpt lat="46.053129723295569" lon="6.993791442364454">
        <ele>1363.77</ele>
        <time>2014-07-14T06:16:15Z</time>
      </trkpt>
      <trkpt lat="46.052928725257516" lon="6.993825389072299">
        <ele>1363.77</ele>
        <time>2014-07-14T06:16:33Z</time>
      </trkpt>
      <trkpt lat="46.052890084683895" lon="6.993847182020545">
        <ele>1363.77</ele>
        <time>2014-07-14T06:16:37Z</time>
      </trkpt>
      <trkpt lat="46.052760668098927" lon="6.994007611647248">
        <ele>1364.25</ele>
        <time>2014-07-14T06:16:54Z</time>
      </trkpt>
      <trkpt lat="46.052609458565712" lon="6.994196455925703">
        <ele>1365.21</ele>
        <time>2014-07-14T06:17:12Z</time>
      </trkpt>
      <trkpt lat="46.052518095821142" lon="6.994151277467609">
        <ele>1365.21</ele>
        <time>2014-07-14T06:17:26Z</time>
      </trkpt>
      <trkpt lat="46.052513318136334" lon="6.994136441498995">
        <ele>1365.21</ele>
        <time>2014-07-14T06:17:27Z</time>
      </trkpt>
      <trkpt lat="46.052434863522649" lon="6.994026890024543">
        <ele>1364.73</ele>
        <time>2014-07-14T06:17:38Z</time>
      </trkpt>
      <trkpt lat="46.052409550175071" lon="6.994017502292991">
        <ele>1364.73</ele>
        <time>2014-07-14T06:17:41Z</time>
      </trkpt>
      <trkpt lat="46.052393121644855" lon="6.994009874761105">
        <ele>1364.25</ele>
        <time>2014-07-14T06:17:43Z</time>
      </trkpt>
      <trkpt lat="46.052357666194439" lon="6.994009455665946">
        <ele>1364.73</ele>
        <time>2014-07-14T06:17:47Z</time>
      </trkpt>
      <trkpt lat="46.052180724218488" lon="6.993994787335396">
        <ele>1364.73</ele>
        <time>2014-07-14T06:18:04Z</time>
      </trkpt>
      <trkpt lat="46.052008140832186" lon="6.993985315784812">
        <ele>1365.21</ele>
        <time>2014-07-14T06:18:21Z</time>
      </trkpt>
      <trkpt lat="46.051833210512996" lon="6.993980370461941">
        <ele>1365.6900000000001</ele>
        <time>2014-07-14T06:18:37Z</time>
      </trkpt>
      <trkpt lat="46.051662471145391" lon="6.993985315784812">
        <ele>1366.1700000000001</ele>
        <time>2014-07-14T06:18:54Z</time>
      </trkpt>
      <trkpt lat="46.05161695741117" lon="6.993999481201172">
        <ele>1366.1700000000001</ele>
        <time>2014-07-14T06:18:58Z</time>
      </trkpt>
      <trkpt lat="46.05145376175642" lon="6.994035607203841">
        <ele>1366.6500000000001</ele>
        <time>2014-07-14T06:19:14Z</time>
      </trkpt>
      <trkpt lat="46.05130716226995" lon="6.994068464264274">
        <ele>1367.6099999999999</ele>
        <time>2014-07-14T06:19:27Z</time>
      </trkpt>
      <trkpt lat="46.051124939695001" lon="6.994056729599834">
        <ele>1367.6099999999999</ele>
        <time>2014-07-14T06:19:43Z</time>
      </trkpt>
      <trkpt lat="46.050963085144758" lon="6.993980873376131">
        <ele>1367.6099999999999</ele>
        <time>2014-07-14T06:19:59Z</time>
      </trkpt>
      <trkpt lat="46.05080190114677" lon="6.993934689089656">
        <ele>1368.0899999999999</ele>
        <time>2014-07-14T06:20:15Z</time>
      </trkpt>
      <trkpt lat="46.050654631108046" lon="6.993859419599176">
        <ele>1368.5699999999999</ele>
        <time>2014-07-14T06:20:31Z</time>
      </trkpt>
      <trkpt lat="46.050505014136434" lon="6.993804518133402">
        <ele>1369.05</ele>
        <time>2014-07-14T06:20:46Z</time>
      </trkpt>
      <trkpt lat="46.050359671935439" lon="6.993738887831569">
        <ele>1370.02</ele>
        <time>2014-07-14T06:21:01Z</time>
      </trkpt>
      <trkpt lat="46.050256155431271" lon="6.993701085448265">
        <ele>1370.02</ele>
        <time>2014-07-14T06:21:11Z</time>
      </trkpt>
      <trkpt lat="46.050112405791879" lon="6.993657751008868">
        <ele>1370.02</ele>
        <time>2014-07-14T06:21:25Z</time>
      </trkpt>
      <trkpt lat="46.050082901492715" lon="6.993656996637583">
        <ele>1370.5</ele>
        <time>2014-07-14T06:21:28Z</time>
      </trkpt>
      <trkpt lat="46.049916604533792" lon="6.993652638047934">
        <ele>1370.5</ele>
        <time>2014-07-14T06:21:44Z</time>
      </trkpt>
      <trkpt lat="46.049736309796572" lon="6.993668312206864">
        <ele>1370.5</ele>
        <time>2014-07-14T06:22:01Z</time>
      </trkpt>
      <trkpt lat="46.049635810777545" lon="6.993684908375144">
        <ele>1370.98</ele>
        <time>2014-07-14T06:22:11Z</time>
      </trkpt>
      <trkpt lat="46.049615107476711" lon="6.993696223944426">
        <ele>1370.98</ele>
        <time>2014-07-14T06:22:13Z</time>
      </trkpt>
      <trkpt lat="46.049484517425299" lon="6.993697229772806">
        <ele>1370.98</ele>
        <time>2014-07-14T06:22:25Z</time>
      </trkpt>
      <trkpt lat="46.049349149689078" lon="6.993710640817881">
        <ele>1370.98</ele>
        <time>2014-07-14T06:22:39Z</time>
      </trkpt>
      <trkpt lat="46.049159383401275" lon="6.993740228936076">
        <ele>1371.46</ele>
        <time>2014-07-14T06:22:57Z</time>
      </trkpt>
      <trkpt lat="46.049001887440681" lon="6.993758166208863">
        <ele>1371.9400000000001</ele>
        <time>2014-07-14T06:23:12Z</time>
      </trkpt>
      <trkpt lat="46.048828130587935" lon="6.993767721578479">
        <ele>1371.9400000000001</ele>
        <time>2014-07-14T06:23:28Z</time>
      </trkpt>
      <trkpt lat="46.048667365685105" lon="6.993791190907359">
        <ele>1371.9400000000001</ele>
        <time>2014-07-14T06:23:44Z</time>
      </trkpt>
      <trkpt lat="46.04847801849246" lon="6.993807200342417">
        <ele>1372.4200000000001</ele>
        <time>2014-07-14T06:24:01Z</time>
      </trkpt>
      <trkpt lat="46.048397049307823" lon="6.993807116523385">
        <ele>1372.4200000000001</ele>
        <time>2014-07-14T06:24:17Z</time>
      </trkpt>
      <trkpt lat="46.048377938568592" lon="6.993811307474971">
        <ele>1372.4200000000001</ele>
        <time>2014-07-14T06:24:19Z</time>
      </trkpt>
      <trkpt lat="46.048184735700488" lon="6.993832681328058">
        <ele>1372.4200000000001</ele>
        <time>2014-07-14T06:24:37Z</time>
      </trkpt>
      <trkpt lat="46.048013577237725" lon="6.993852378800511">
        <ele>1372.4200000000001</ele>
        <time>2014-07-14T06:24:54Z</time>
      </trkpt>
      <trkpt lat="46.047832863405347" lon="6.993881380185485">
        <ele>1373.3800000000001</ele>
        <time>2014-07-14T06:25:10Z</time>
      </trkpt>
      <trkpt lat="46.047822134569287" lon="6.993886660784483">
        <ele>1373.3800000000001</ele>
        <time>2014-07-14T06:25:11Z</time>
      </trkpt>
      <trkpt lat="46.047676289454103" lon="6.993883978575468">
        <ele>1373.8599999999999</ele>
        <time>2014-07-14T06:25:25Z</time>
      </trkpt>
      <trkpt lat="46.04759749956429" lon="6.99390359222889">
        <ele>1373.8599999999999</ele>
        <time>2014-07-14T06:25:33Z</time>
      </trkpt>
      <trkpt lat="46.047518625855446" lon="6.993940891698003">
        <ele>1374.3399999999999</ele>
        <time>2014-07-14T06:25:41Z</time>
      </trkpt>
      <trkpt lat="46.047317879274487" lon="6.993954805657268">
        <ele>1376.75</ele>
        <time>2014-07-14T06:25:56Z</time>
      </trkpt>
      <trkpt lat="46.047129621729255" lon="6.993958661332727">
        <ele>1375.3</ele>
        <time>2014-07-14T06:26:14Z</time>
      </trkpt>
      <trkpt lat="46.047008335590363" lon="6.994010964408517">
        <ele>1375.78</ele>
        <time>2014-07-14T06:26:28Z</time>
      </trkpt>
      <trkpt lat="46.046946980059147" lon="6.994010964408517">
        <ele>1376.26</ele>
        <time>2014-07-14T06:26:34Z</time>
      </trkpt>
      <trkpt lat="46.046792920678854" lon="6.993998726829886">
        <ele>1376.26</ele>
        <time>2014-07-14T06:26:48Z</time>
      </trkpt>
      <trkpt lat="46.046625785529613" lon="6.994017753750086">
        <ele>1376.75</ele>
        <time>2014-07-14T06:27:04Z</time>
      </trkpt>
      <trkpt lat="46.046463260427117" lon="6.994100902229548">
        <ele>1377.23</ele>
        <time>2014-07-14T06:27:21Z</time>
      </trkpt>
      <trkpt lat="46.046459237113595" lon="6.994109200313687">
        <ele>1377.23</ele>
        <time>2014-07-14T06:27:22Z</time>
      </trkpt>
      <trkpt lat="46.046466194093227" lon="6.994132921099663">
        <ele>1377.23</ele>
        <time>2014-07-14T06:27:24Z</time>
      </trkpt>
      <trkpt lat="46.046507516875863" lon="6.994146918877959">
        <ele>1376.75</ele>
        <time>2014-07-14T06:27:34Z</time>
      </trkpt>
      <trkpt lat="46.046491926535964" lon="6.994145242497325">
        <ele>1376.26</ele>
        <time>2014-07-14T06:27:58Z</time>
      </trkpt>
      <trkpt lat="46.046475330367684" lon="6.994078019633889">
        <ele>1376.26</ele>
        <time>2014-07-14T06:28:11Z</time>
      </trkpt>
      <trkpt lat="46.046426044777036" lon="6.994079612195492">
        <ele>1376.26</ele>
        <time>2014-07-14T06:28:16Z</time>
      </trkpt>
      <trkpt lat="46.046259747818112" lon="6.994086485356093">
        <ele>1376.26</ele>
        <time>2014-07-14T06:28:34Z</time>
      </trkpt>
      <trkpt lat="46.046214736998081" lon="6.994095202535391">
        <ele>1376.26</ele>
        <time>2014-07-14T06:28:39Z</time>
      </trkpt>
      <trkpt lat="46.046085571870208" lon="6.994170639663935">
        <ele>1377.71</ele>
        <time>2014-07-14T06:28:53Z</time>
      </trkpt>
      <trkpt lat="46.045909970998764" lon="6.994155133143067">
        <ele>1378.1900000000001</ele>
        <time>2014-07-14T06:29:10Z</time>
      </trkpt>
      <trkpt lat="46.045850962400436" lon="6.994128059595823">
        <ele>1378.6700000000001</ele>
        <time>2014-07-14T06:29:16Z</time>
      </trkpt>
      <trkpt lat="46.045805616304278" lon="6.994106182828546">
        <ele>1379.1500000000001</ele>
        <time>2014-07-14T06:29:21Z</time>
      </trkpt>
      <trkpt lat="46.045651389285922" lon="6.994062177836895">
        <ele>1380.5899999999999</ele>
        <time>2014-07-14T06:29:37Z</time>
      </trkpt>
      <trkpt lat="46.045622052624822" lon="6.994063518941402">
        <ele>1380.5899999999999</ele>
        <time>2014-07-14T06:29:40Z</time>
      </trkpt>
      <trkpt lat="46.04547000490129" lon="6.994054550305009">
        <ele>1382.99</ele>
        <time>2014-07-14T06:29:57Z</time>
      </trkpt>
      <trkpt lat="46.045344863086939" lon="6.994082713499665">
        <ele>1384.9200000000001</ele>
        <time>2014-07-14T06:30:11Z</time>
      </trkpt>
      <trkpt lat="46.045217290520668" lon="6.994080869480968">
        <ele>1386.8399999999999</ele>
        <time>2014-07-14T06:30:26Z</time>
      </trkpt>
      <trkpt lat="46.045048730447888" lon="6.994046419858933">
        <ele>1388.76</ele>
        <time>2014-07-14T06:30:44Z</time>
      </trkpt>
      <trkpt lat="46.044905316084623" lon="6.994029656052589">
        <ele>1389.72</ele>
        <time>2014-07-14T06:30:59Z</time>
      </trkpt>
      <trkpt lat="46.044781180098653" lon="6.994013395160437">
        <ele>1391.1700000000001</ele>
        <time>2014-07-14T06:31:14Z</time>
      </trkpt>
      <trkpt lat="46.044629886746407" lon="6.993998643010855">
        <ele>1392.6099999999999</ele>
        <time>2014-07-14T06:31:32Z</time>
      </trkpt>
      <trkpt lat="46.044504158198833" lon="6.993956733494997">
        <ele>1394.05</ele>
        <time>2014-07-14T06:31:49Z</time>
      </trkpt>
      <trkpt lat="46.044513545930386" lon="6.993992021307349">
        <ele>1394.05</ele>
        <time>2014-07-14T06:32:14Z</time>
      </trkpt>
      <trkpt lat="46.044476414099336" lon="6.993980454280973">
        <ele>1394.05</ele>
        <time>2014-07-14T06:32:31Z</time>
      </trkpt>
      <trkpt lat="46.044314643368125" lon="6.993955140933394">
        <ele>1395.97</ele>
        <time>2014-07-14T06:32:49Z</time>
      </trkpt>
      <trkpt lat="46.044172318652272" lon="6.993977352976799">
        <ele>1397.4100000000001</ele>
        <time>2014-07-14T06:33:04Z</time>
      </trkpt>
      <trkpt lat="46.044050026684999" lon="6.993976514786482">
        <ele>1398.8599999999999</ele>
        <time>2014-07-14T06:33:19Z</time>
      </trkpt>
      <trkpt lat="46.043917592614889" lon="6.993969641625881">
        <ele>1400.78</ele>
        <time>2014-07-14T06:33:34Z</time>
      </trkpt>
      <trkpt lat="46.04381357319653" lon="6.993937203660607">
        <ele>1402.22</ele>
        <time>2014-07-14T06:33:48Z</time>
      </trkpt>
      <trkpt lat="46.043680217117071" lon="6.993907447904348">
        <ele>1404.6199999999999</ele>
        <time>2014-07-14T06:34:03Z</time>
      </trkpt>
      <trkpt lat="46.043554404750466" lon="6.993911135941744">
        <ele>1406.0699999999999</ele>
        <time>2014-07-14T06:34:17Z</time>
      </trkpt>
      <trkpt lat="46.043429179117084" lon="6.993902754038572">
        <ele>1407.99</ele>
        <time>2014-07-14T06:34:31Z</time>
      </trkpt>
      <trkpt lat="46.043259026482701" lon="6.993904514238238">
        <ele>1409.9100000000001</ele>
        <time>2014-07-14T06:34:49Z</time>
      </trkpt>
      <trkpt lat="46.043149475008249" lon="6.993898479267955">
        <ele>1411.8299999999999</ele>
        <time>2014-07-14T06:35:02Z</time>
      </trkpt>
      <trkpt lat="46.043064733967185" lon="6.993881715461612">
        <ele>1412.3099999999999</ele>
        <time>2014-07-14T06:35:19Z</time>
      </trkpt>
      <trkpt lat="46.042966833338141" lon="6.993848606944084">
        <ele>1413.76</ele>
        <time>2014-07-14T06:35:33Z</time>
      </trkpt>
      <trkpt lat="46.042872536927462" lon="6.993844164535403">
        <ele>1415.2</ele>
        <time>2014-07-14T06:35:43Z</time>
      </trkpt>
      <trkpt lat="46.042847726494074" lon="6.99384156614542">
        <ele>1415.6800000000001</ele>
        <time>2014-07-14T06:35:45Z</time>
      </trkpt>
      <trkpt lat="46.042720824480057" lon="6.993836117908359">
        <ele>1416.6400000000001</ele>
        <time>2014-07-14T06:35:57Z</time>
      </trkpt>
      <trkpt lat="46.042630635201931" lon="6.993802506476641">
        <ele>1418.0799999999999</ele>
        <time>2014-07-14T06:36:07Z</time>
      </trkpt>
      <trkpt lat="46.042559389024973" lon="6.993768978863955">
        <ele>1418.0799999999999</ele>
        <time>2014-07-14T06:36:20Z</time>
      </trkpt>
      <trkpt lat="46.042557628825307" lon="6.993769397959113">
        <ele>1419.52</ele>
        <time>2014-07-14T06:36:22Z</time>
      </trkpt>
      <trkpt lat="46.042524687945843" lon="6.993793621659279">
        <ele>1419.52</ele>
        <time>2014-07-14T06:36:45Z</time>
      </trkpt>
      <trkpt lat="46.042529381811619" lon="6.993789095431566">
        <ele>1419.04</ele>
        <time>2014-07-14T06:37:06Z</time>
      </trkpt>
      <trkpt lat="46.04254798963666" lon="6.993775684386492">
        <ele>1419.52</ele>
        <time>2014-07-14T06:37:26Z</time>
      </trkpt>
      <trkpt lat="46.042525609955192" lon="6.993794543668628">
        <ele>1420</ele>
        <time>2014-07-14T06:37:42Z</time>
      </trkpt>
      <trkpt lat="46.04245176538825" lon="6.99375020340085">
        <ele>1421.45</ele>
        <time>2014-07-14T06:37:53Z</time>
      </trkpt>
      <trkpt lat="46.042293850332499" lon="6.993652638047934">
        <ele>1424.8099999999999</ele>
        <time>2014-07-14T06:38:11Z</time>
      </trkpt>
      <trkpt lat="46.042157812044024" lon="6.993668815121055">
        <ele>1426.73</ele>
        <time>2014-07-14T06:38:30Z</time>
      </trkpt>
      <trkpt lat="46.042115483433008" lon="6.993685159832239">
        <ele>1427.21</ele>
        <time>2014-07-14T06:38:34Z</time>
      </trkpt>
      <trkpt lat="46.041926052421331" lon="6.993688261136413">
        <ele>1429.1400000000001</ele>
        <time>2014-07-14T06:38:51Z</time>
      </trkpt>
      <trkpt lat="46.041770232841372" lon="6.993608800694346">
        <ele>1431.54</ele>
        <time>2014-07-14T06:39:09Z</time>
      </trkpt>
      <trkpt lat="46.0416513774544" lon="6.993494722992182">
        <ele>1434.4200000000001</ele>
        <time>2014-07-14T06:39:27Z</time>
      </trkpt>
      <trkpt lat="46.041486756876111" lon="6.993421716615558">
        <ele>1437.3099999999999</ele>
        <time>2014-07-14T06:39:48Z</time>
      </trkpt>
      <trkpt lat="46.041365470737219" lon="6.993415765464306">
        <ele>1440.1900000000001</ele>
        <time>2014-07-14T06:40:06Z</time>
      </trkpt>
      <trkpt lat="46.041222391650081" lon="6.993375783786178">
        <ele>1443.0799999999999</ele>
        <time>2014-07-14T06:40:23Z</time>
      </trkpt>
      <trkpt lat="46.041118204593658" lon="6.993355164304376">
        <ele>1445.48</ele>
        <time>2014-07-14T06:40:37Z</time>
      </trkpt>
      <trkpt lat="46.041009910404682" lon="6.993301771581173">
        <ele>1447.4000000000001</ele>
        <time>2014-07-14T06:40:52Z</time>
      </trkpt>
      <trkpt lat="46.040883846580982" lon="6.993236728012562">
        <ele>1449.8099999999999</ele>
        <time>2014-07-14T06:41:10Z</time>
      </trkpt>
      <trkpt lat="46.040756776928902" lon="6.993185933679342">
        <ele>1453.1700000000001</ele>
        <time>2014-07-14T06:41:28Z</time>
      </trkpt>
      <trkpt lat="46.040650410577655" lon="6.993191046640277">
        <ele>1456.05</ele>
        <time>2014-07-14T06:41:47Z</time>
      </trkpt>
      <trkpt lat="46.040606070309877" lon="6.993141928687692">
        <ele>1456.53</ele>
        <time>2014-07-14T06:41:59Z</time>
      </trkpt>
      <trkpt lat="46.040619816631079" lon="6.993144191801548">
        <ele>1456.53</ele>
        <time>2014-07-14T06:42:18Z</time>
      </trkpt>
      <trkpt lat="46.04062182828784" lon="6.993110328912735">
        <ele>1457.02</ele>
        <time>2014-07-14T06:42:38Z</time>
      </trkpt>
      <trkpt lat="46.040567262098193" lon="6.993114855140448">
        <ele>1457.98</ele>
        <time>2014-07-14T06:42:49Z</time>
      </trkpt>
      <trkpt lat="46.040551671758294" lon="6.993171852082014">
        <ele>1459.4200000000001</ele>
        <time>2014-07-14T06:43:02Z</time>
      </trkpt>
      <trkpt lat="46.040564998984337" lon="6.993175121024251">
        <ele>1458.9400000000001</ele>
        <time>2014-07-14T06:43:18Z</time>
      </trkpt>
      <trkpt lat="46.040565418079495" lon="6.993180066347122">
        <ele>1459.4200000000001</ele>
        <time>2014-07-14T06:43:36Z</time>
      </trkpt>
      <trkpt lat="46.040554689243436" lon="6.993168666958809">
        <ele>1459.4200000000001</ele>
        <time>2014-07-14T06:43:45Z</time>
      </trkpt>
      <trkpt lat="46.040549827739596" lon="6.993166152387857">
        <ele>1458.9400000000001</ele>
        <time>2014-07-14T06:43:46Z</time>
      </trkpt>
      <trkpt lat="46.040525520220399" lon="6.993132205680013">
        <ele>1458.46</ele>
        <time>2014-07-14T06:43:50Z</time>
      </trkpt>
      <trkpt lat="46.040519149973989" lon="6.993117453530431">
        <ele>1458.46</ele>
        <time>2014-07-14T06:43:51Z</time>
      </trkpt>
      <trkpt lat="46.040446311235428" lon="6.993108484894037">
        <ele>1458.9400000000001</ele>
        <time>2014-07-14T06:44:02Z</time>
      </trkpt>
      <trkpt lat="46.040445556864142" lon="6.993121476843953">
        <ele>1459.4200000000001</ele>
        <time>2014-07-14T06:44:04Z</time>
      </trkpt>
      <trkpt lat="46.040454022586346" lon="6.993226502090693">
        <ele>1459.4200000000001</ele>
        <time>2014-07-14T06:44:12Z</time>
      </trkpt>
      <trkpt lat="46.040442623198032" lon="6.993247205391526">
        <ele>1459.4200000000001</ele>
        <time>2014-07-14T06:44:14Z</time>
      </trkpt>
      <trkpt lat="46.040356373414397" lon="6.993237985298038">
        <ele>1461.3399999999999</ele>
        <time>2014-07-14T06:44:24Z</time>
      </trkpt>
      <trkpt lat="46.040337597951293" lon="6.993157016113401">
        <ele>1462.78</ele>
        <time>2014-07-14T06:44:35Z</time>
      </trkpt>
      <trkpt lat="46.040259646251798" lon="6.993052158504725">
        <ele>1464.23</ele>
        <time>2014-07-14T06:44:48Z</time>
      </trkpt>
      <trkpt lat="46.040237853303552" lon="6.993014607578516">
        <ele>1464.71</ele>
        <time>2014-07-14T06:44:52Z</time>
      </trkpt>
      <trkpt lat="46.040235925465822" lon="6.992925591766834">
        <ele>1465.6700000000001</ele>
        <time>2014-07-14T06:45:04Z</time>
      </trkpt>
      <trkpt lat="46.040241541340947" lon="6.992910671979189">
        <ele>1466.6300000000001</ele>
        <time>2014-07-14T06:45:18Z</time>
      </trkpt>
      <trkpt lat="46.040241457521915" lon="6.992920646443963">
        <ele>1466.1500000000001</ele>
        <time>2014-07-14T06:45:21Z</time>
      </trkpt>
      <trkpt lat="46.040240870788693" lon="6.992904217913747">
        <ele>1466.6300000000001</ele>
        <time>2014-07-14T06:45:31Z</time>
      </trkpt>
      <trkpt lat="46.040282947942615" lon="6.993063809350133">
        <ele>1464.71</ele>
        <time>2014-07-14T06:45:40Z</time>
      </trkpt>
      <trkpt lat="46.040291832759976" lon="6.993071520701051">
        <ele>1464.23</ele>
        <time>2014-07-14T06:45:41Z</time>
      </trkpt>
      <trkpt lat="46.040302393957973" lon="6.99307294562459">
        <ele>1464.23</ele>
        <time>2014-07-14T06:45:42Z</time>
      </trkpt>
      <trkpt lat="46.040314044803381" lon="6.99307831004262">
        <ele>1464.23</ele>
        <time>2014-07-14T06:45:43Z</time>
      </trkpt>
      <trkpt lat="46.040404736995697" lon="6.993235470727086">
        <ele>1460.8599999999999</ele>
        <time>2014-07-14T06:45:58Z</time>
      </trkpt>
      <trkpt lat="46.040456285700202" lon="6.993239410221577">
        <ele>1459.4200000000001</ele>
        <time>2014-07-14T06:46:11Z</time>
      </trkpt>
      <trkpt lat="46.040451088920236" lon="6.993232872337103">
        <ele>1459.4200000000001</ele>
        <time>2014-07-14T06:46:12Z</time>
      </trkpt>
      <trkpt lat="46.040429882705212" lon="6.993285929784179">
        <ele>1459.4200000000001</ele>
        <time>2014-07-14T06:46:28Z</time>
      </trkpt>
      <trkpt lat="46.04049333371222" lon="6.99327327311039">
        <ele>1459.4200000000001</ele>
        <time>2014-07-14T06:46:58Z</time>
      </trkpt>
      <trkpt lat="46.040462404489517" lon="6.993252485990524">
        <ele>1458.9400000000001</ele>
        <time>2014-07-14T06:47:28Z</time>
      </trkpt>
      <trkpt lat="46.040451005101204" lon="6.993250222876668">
        <ele>1458.9400000000001</ele>
        <time>2014-07-14T06:47:49Z</time>
      </trkpt>
      <trkpt lat="46.040481347590685" lon="6.993255000561476">
        <ele>1458.46</ele>
        <time>2014-07-14T06:48:22Z</time>
      </trkpt>
      <trkpt lat="46.040521413087845" lon="6.993311243131757">
        <ele>1458.46</ele>
        <time>2014-07-14T06:48:43Z</time>
      </trkpt>
      <trkpt lat="46.040543625131249" lon="6.993324905633926">
        <ele>1458.46</ele>
        <time>2014-07-14T06:49:07Z</time>
      </trkpt>
      <trkpt lat="46.040552593767643" lon="6.993286265060306">
        <ele>1458.46</ele>
        <time>2014-07-14T06:49:19Z</time>
      </trkpt>
      <trkpt lat="46.040527196601033" lon="6.993321133777499">
        <ele>1458.9400000000001</ele>
        <time>2014-07-14T06:49:25Z</time>
      </trkpt>
      <trkpt lat="46.04049040004611" lon="6.993328258395195">
        <ele>1459.4200000000001</ele>
        <time>2014-07-14T06:49:28Z</time>
      </trkpt>
      <trkpt lat="46.040369616821408" lon="6.993429427966476">
        <ele>1458.46</ele>
        <time>2014-07-14T06:49:40Z</time>
      </trkpt>
      <trkpt lat="46.040278254076838" lon="6.993465134873986">
        <ele>1457.02</ele>
        <time>2014-07-14T06:49:49Z</time>
      </trkpt>
      <trkpt lat="46.040212791413069" lon="6.993538308888674">
        <ele>1455.0899999999999</ele>
        <time>2014-07-14T06:49:55Z</time>
      </trkpt>
      <trkpt lat="46.04013810865581" lon="6.99367493391037">
        <ele>1452.21</ele>
        <time>2014-07-14T06:50:08Z</time>
      </trkpt>
      <trkpt lat="46.040068957954645" lon="6.993764536455274">
        <ele>1450.77</ele>
        <time>2014-07-14T06:50:17Z</time>
      </trkpt>
      <trkpt lat="46.040056217461824" lon="6.993785407394171">
        <ele>1448.3599999999999</ele>
        <time>2014-07-14T06:50:27Z</time>
      </trkpt>
      <trkpt lat="46.040056888014078" lon="6.993765039369464">
        <ele>1450.29</ele>
        <time>2014-07-14T06:50:28Z</time>
      </trkpt>
      <trkpt lat="46.040084967389703" lon="6.993828322738409">
        <ele>1449.3199999999999</ele>
        <time>2014-07-14T06:50:41Z</time>
      </trkpt>
      <trkpt lat="46.040081111714244" lon="6.993838045746088">
        <ele>1448.8399999999999</ele>
        <time>2014-07-14T06:50:42Z</time>
      </trkpt>
      <trkpt lat="46.040068622678518" lon="6.993860676884651">
        <ele>1448.3599999999999</ele>
        <time>2014-07-14T06:50:44Z</time>
      </trkpt>
      <trkpt lat="46.040065186098218" lon="6.993937203660607">
        <ele>1447.8800000000001</ele>
        <time>2014-07-14T06:50:49Z</time>
      </trkpt>
      <trkpt lat="46.040029563009739" lon="6.994127305224538">
        <ele>1444.52</ele>
        <time>2014-07-14T06:51:02Z</time>
      </trkpt>
      <trkpt lat="46.040012296289206" lon="6.994234006851912">
        <ele>1442.5999999999999</ele>
        <time>2014-07-14T06:51:11Z</time>
      </trkpt>
      <trkpt lat="46.039983127266169" lon="6.994320843368769">
        <ele>1440.6700000000001</ele>
        <time>2014-07-14T06:51:20Z</time>
      </trkpt>
      <trkpt lat="46.039936942979693" lon="6.994481021538377">
        <ele>1437.3099999999999</ele>
        <time>2014-07-14T06:51:34Z</time>
      </trkpt>
      <trkpt lat="46.03992898017168" lon="6.994528127834201">
        <ele>1436.8299999999999</ele>
        <time>2014-07-14T06:51:37Z</time>
      </trkpt>
      <trkpt lat="46.039913473650813" lon="6.994729544967413">
        <ele>1432.98</ele>
        <time>2014-07-14T06:51:51Z</time>
      </trkpt>
      <trkpt lat="46.039925375953317" lon="6.994774807244539">
        <ele>1432.02</ele>
        <time>2014-07-14T06:51:55Z</time>
      </trkpt>
      <trkpt lat="46.039931243285537" lon="6.994829457253218">
        <ele>1431.0599999999999</ele>
        <time>2014-07-14T06:52:05Z</time>
      </trkpt>
      <trkpt lat="46.039929063990712" lon="6.994794337078929">
        <ele>1431.0599999999999</ele>
        <time>2014-07-14T06:52:08Z</time>
      </trkpt>
      <trkpt lat="46.039935853332281" lon="6.994708925485611">
        <ele>1432.98</ele>
        <time>2014-07-14T06:52:14Z</time>
      </trkpt>
      <trkpt lat="46.039926130324602" lon="6.99461848475039">
        <ele>1434.4200000000001</ele>
        <time>2014-07-14T06:52:19Z</time>
      </trkpt>
      <trkpt lat="46.039982540532947" lon="6.994400806725025">
        <ele>1437.3099999999999</ele>
        <time>2014-07-14T06:52:32Z</time>
      </trkpt>
      <trkpt lat="46.040030904114246" lon="6.994300223886967">
        <ele>1438.75</ele>
        <time>2014-07-14T06:52:40Z</time>
      </trkpt>
      <trkpt lat="46.040081279352307" lon="6.994214057922363">
        <ele>1441.1500000000001</ele>
        <time>2014-07-14T06:52:52Z</time>
      </trkpt>
      <trkpt lat="46.040124278515577" lon="6.994096543639898">
        <ele>1443.5599999999999</ele>
        <time>2014-07-14T06:53:04Z</time>
      </trkpt>
      <trkpt lat="46.040153531357646" lon="6.994001576676965">
        <ele>1445.48</ele>
        <time>2014-07-14T06:53:16Z</time>
      </trkpt>
      <trkpt lat="46.040184628218412" lon="6.993890265002847">
        <ele>1446.9200000000001</ele>
        <time>2014-07-14T06:53:28Z</time>
      </trkpt>
      <trkpt lat="46.040199548006058" lon="6.993810217827559">
        <ele>1448.3599999999999</ele>
        <time>2014-07-14T06:53:40Z</time>
      </trkpt>
      <trkpt lat="46.040178844705224" lon="6.993735786527395">
        <ele>1449.3199999999999</ele>
        <time>2014-07-14T06:53:49Z</time>
      </trkpt>
      <trkpt lat="46.040246654301882" lon="6.993640149012208">
        <ele>1451.25</ele>
        <time>2014-07-14T06:54:01Z</time>
      </trkpt>
      <trkpt lat="46.040281690657139" lon="6.993569321930409">
        <ele>1452.21</ele>
        <time>2014-07-14T06:54:08Z</time>
      </trkpt>
      <trkpt lat="46.04034430347383" lon="6.993453148752451">
        <ele>1454.1300000000001</ele>
        <time>2014-07-14T06:54:21Z</time>
      </trkpt>
      <trkpt lat="46.040365593507886" lon="6.993378214538097">
        <ele>1454.6099999999999</ele>
        <time>2014-07-14T06:54:28Z</time>
      </trkpt>
      <trkpt lat="46.040362156927586" lon="6.993342926725745">
        <ele>1455.0899999999999</ele>
        <time>2014-07-14T06:54:31Z</time>
      </trkpt>
      <trkpt lat="46.040443209931254" lon="6.993267573416233">
        <ele>1456.05</ele>
        <time>2014-07-14T06:54:41Z</time>
      </trkpt>
      <trkpt lat="46.040483359247446" lon="6.993310321122408">
        <ele>1455.5699999999999</ele>
        <time>2014-07-14T06:54:51Z</time>
      </trkpt>
      <trkpt lat="46.040474306792021" lon="6.993517354130745">
        <ele>1453.1700000000001</ele>
        <time>2014-07-14T06:55:04Z</time>
      </trkpt>
      <trkpt lat="46.04050456546247" lon="6.993571752682328">
        <ele>1452.21</ele>
        <time>2014-07-14T06:55:09Z</time>
      </trkpt>
      <trkpt lat="46.040489058941603" lon="6.993656409904361">
        <ele>1450.29</ele>
        <time>2014-07-14T06:55:14Z</time>
      </trkpt>
      <trkpt lat="46.04046349413693" lon="6.993685578927398">
        <ele>1449.8099999999999</ele>
        <time>2014-07-14T06:55:17Z</time>
      </trkpt>
      <trkpt lat="46.040408927947283" lon="6.993758752942085">
        <ele>1449.3199999999999</ele>
        <time>2014-07-14T06:55:23Z</time>
      </trkpt>
      <trkpt lat="46.040296358987689" lon="6.993905352428556">
        <ele>1446.9200000000001</ele>
        <time>2014-07-14T06:55:36Z</time>
      </trkpt>
      <trkpt lat="46.040263082832098" lon="6.99389923363924">
        <ele>1446.9200000000001</ele>
        <time>2014-07-14T06:55:40Z</time>
      </trkpt>
      <trkpt lat="46.040233662351966" lon="6.993872411549091">
        <ele>1446.9200000000001</ele>
        <time>2014-07-14T06:55:43Z</time>
      </trkpt>
      <trkpt lat="46.040198625996709" lon="6.993851289153099">
        <ele>1446.4400000000001</ele>
        <time>2014-07-14T06:55:55Z</time>
      </trkpt>
      <trkpt lat="46.04018840007484" lon="6.993897305801511">
        <ele>1445.96</ele>
        <time>2014-07-14T06:56:01Z</time>
      </trkpt>
      <trkpt lat="46.040167529135942" lon="6.994004929438233">
        <ele>1444.52</ele>
        <time>2014-07-14T06:56:07Z</time>
      </trkpt>
      <trkpt lat="46.040105251595378" lon="6.994186481460929">
        <ele>1441.1500000000001</ele>
        <time>2014-07-14T06:56:20Z</time>
      </trkpt>
      <trkpt lat="46.040079770609736" lon="6.994247920811176">
        <ele>1439.71</ele>
        <time>2014-07-14T06:56:25Z</time>
      </trkpt>
      <trkpt lat="46.040063593536615" lon="6.99430231936276">
        <ele>1438.75</ele>
        <time>2014-07-14T06:56:29Z</time>
      </trkpt>
      <trkpt lat="46.040024282410741" lon="6.994359232485294">
        <ele>1437.3099999999999</ele>
        <time>2014-07-14T06:56:34Z</time>
      </trkpt>
      <trkpt lat="46.039935518056154" lon="6.994515471160412">
        <ele>1433.9400000000001</ele>
        <time>2014-07-14T06:56:47Z</time>
      </trkpt>
      <trkpt lat="46.039874162524939" lon="6.99466785416007">
        <ele>1431.0599999999999</ele>
        <time>2014-07-14T06:56:58Z</time>
      </trkpt>
      <trkpt lat="46.039881119504571" lon="6.994723845273256">
        <ele>1429.6199999999999</ele>
        <time>2014-07-14T06:57:02Z</time>
      </trkpt>
      <trkpt lat="46.039842143654823" lon="6.994911851361394">
        <ele>1425.77</ele>
        <time>2014-07-14T06:57:14Z</time>
      </trkpt>
      <trkpt lat="46.039829570800066" lon="6.994961807504296">
        <ele>1425.29</ele>
        <time>2014-07-14T06:57:20Z</time>
      </trkpt>
      <trkpt lat="46.039837701246142" lon="6.995006063953042">
        <ele>1424.3299999999999</ele>
        <time>2014-07-14T06:57:24Z</time>
      </trkpt>
      <trkpt lat="46.039873911067843" lon="6.995093654841185">
        <ele>1422.8900000000001</ele>
        <time>2014-07-14T06:57:31Z</time>
      </trkpt>
      <trkpt lat="46.03983853943646" lon="6.995339579880238">
        <ele>1420</ele>
        <time>2014-07-14T06:57:45Z</time>
      </trkpt>
      <trkpt lat="46.03980434127152" lon="6.995612075552344">
        <ele>1416.6400000000001</ele>
        <time>2014-07-14T06:58:01Z</time>
      </trkpt>
      <trkpt lat="46.039794953539968" lon="6.995874512940645">
        <ele>1414.72</ele>
        <time>2014-07-14T06:58:16Z</time>
      </trkpt>
      <trkpt lat="46.039777267724276" lon="6.995992865413427">
        <ele>1412.79</ele>
        <time>2014-07-14T06:58:24Z</time>
      </trkpt>
      <trkpt lat="46.039727563038468" lon="6.996117504313588">
        <ele>1411.3499999999999</ele>
        <time>2014-07-14T06:58:37Z</time>
      </trkpt>
      <trkpt lat="46.03966360911727" lon="6.996216829866171">
        <ele>1409.9100000000001</ele>
        <time>2014-07-14T06:58:44Z</time>
      </trkpt>
      <trkpt lat="46.039629075676203" lon="6.996429394930601">
        <ele>1408.95</ele>
        <time>2014-07-14T06:59:01Z</time>
      </trkpt>
      <trkpt lat="46.039645336568356" lon="6.996396202594042">
        <ele>1408.95</ele>
        <time>2014-07-14T06:59:14Z</time>
      </trkpt>
      <trkpt lat="46.039654975757003" lon="6.996407601982355">
        <ele>1408.95</ele>
        <time>2014-07-14T06:59:29Z</time>
      </trkpt>
      <trkpt lat="46.039633685722947" lon="6.996420677751303">
        <ele>1408.95</ele>
        <time>2014-07-14T06:59:44Z</time>
      </trkpt>
      <trkpt lat="46.039685904979706" lon="6.996533079072833">
        <ele>1408.47</ele>
        <time>2014-07-14T06:59:51Z</time>
      </trkpt>
      <trkpt lat="46.039725719019771" lon="6.996606504544616">
        <ele>1407.99</ele>
        <time>2014-07-14T06:59:57Z</time>
      </trkpt>
      <trkpt lat="46.039642989635468" lon="6.996746901422739">
        <ele>1407.99</ele>
        <time>2014-07-14T07:00:11Z</time>
      </trkpt>
      <trkpt lat="46.039625303819776" lon="6.996762407943606">
        <ele>1408.47</ele>
        <time>2014-07-14T07:00:13Z</time>
      </trkpt>
      <trkpt lat="46.03958934545517" lon="6.996812196448445">
        <ele>1408.95</ele>
        <time>2014-07-14T07:00:18Z</time>
      </trkpt>
      <trkpt lat="46.039432268589735" lon="6.996947228908539">
        <ele>1409.9100000000001</ele>
        <time>2014-07-14T07:00:34Z</time>
      </trkpt>
      <trkpt lat="46.039293967187405" lon="6.997032640501857">
        <ele>1410.8699999999999</ele>
        <time>2014-07-14T07:00:48Z</time>
      </trkpt>
      <trkpt lat="46.0392233915627" lon="6.997087458148599">
        <ele>1411.3499999999999</ele>
        <time>2014-07-14T07:00:56Z</time>
      </trkpt>
      <trkpt lat="46.039187600836158" lon="6.997118052095175">
        <ele>1409.9100000000001</ele>
        <time>2014-07-14T07:01:00Z</time>
      </trkpt>
      <trkpt lat="46.039127921685576" lon="6.997162979096174">
        <ele>1411.8299999999999</ele>
        <time>2014-07-14T07:01:06Z</time>
      </trkpt>
      <trkpt lat="46.038991045206785" lon="6.997289462015033">
        <ele>1412.3099999999999</ele>
        <time>2014-07-14T07:01:21Z</time>
      </trkpt>
      <trkpt lat="46.038896581158042" lon="6.997347297146916">
        <ele>1412.79</ele>
        <time>2014-07-14T07:01:31Z</time>
      </trkpt>
      <trkpt lat="46.03878359310329" lon="6.997494231909514">
        <ele>1413.76</ele>
        <time>2014-07-14T07:01:46Z</time>
      </trkpt>
      <trkpt lat="46.038751658052206" lon="6.99754293076694">
        <ele>1413.76</ele>
        <time>2014-07-14T07:01:50Z</time>
      </trkpt>
      <trkpt lat="46.038627102971077" lon="6.997722471132875">
        <ele>1414.72</ele>
        <time>2014-07-14T07:02:07Z</time>
      </trkpt>
      <trkpt lat="46.038499530404806" lon="6.99792455881834">
        <ele>1416.1600000000001</ele>
        <time>2014-07-14T07:02:25Z</time>
      </trkpt>
      <trkpt lat="46.038422584533691" lon="6.998063530772924">
        <ele>1418.0799999999999</ele>
        <time>2014-07-14T07:02:39Z</time>
      </trkpt>
      <trkpt lat="46.03841713629663" lon="6.998069984838367">
        <ele>1418.0799999999999</ele>
        <time>2014-07-14T07:02:40Z</time>
      </trkpt>
      <trkpt lat="46.038300041109324" lon="6.998143997043371">
        <ele>1419.52</ele>
        <time>2014-07-14T07:02:53Z</time>
      </trkpt>
      <trkpt lat="46.038275063037872" lon="6.998155061155558">
        <ele>1419.52</ele>
        <time>2014-07-14T07:02:55Z</time>
      </trkpt>
      <trkpt lat="46.038161823526025" lon="6.998129161074758">
        <ele>1421.45</ele>
        <time>2014-07-14T07:03:09Z</time>
      </trkpt>
      <trkpt lat="46.038155369460583" lon="6.998129831627011">
        <ele>1421.9300000000001</ele>
        <time>2014-07-14T07:03:10Z</time>
      </trkpt>
      <trkpt lat="46.038080686703324" lon="6.998146763071418">
        <ele>1424.3299999999999</ele>
        <time>2014-07-14T07:03:24Z</time>
      </trkpt>
      <trkpt lat="46.038005584850907" lon="6.998134860768914">
        <ele>1426.25</ele>
        <time>2014-07-14T07:03:37Z</time>
      </trkpt>
      <trkpt lat="46.037956131622195" lon="6.998096723109484">
        <ele>1428.6600000000001</ele>
        <time>2014-07-14T07:03:51Z</time>
      </trkpt>
      <trkpt lat="46.037913803011179" lon="6.998040648177266">
        <ele>1432.98</ele>
        <time>2014-07-14T07:04:05Z</time>
      </trkpt>
      <trkpt lat="46.037910534068942" lon="6.99804182164371">
        <ele>1432.02</ele>
        <time>2014-07-14T07:04:06Z</time>
      </trkpt>
      <trkpt lat="46.037862673401833" lon="6.998064620420337">
        <ele>1432.98</ele>
        <time>2014-07-14T07:04:16Z</time>
      </trkpt>
      <trkpt lat="46.037755217403173" lon="6.99812731705606">
        <ele>1434.9100000000001</ele>
        <time>2014-07-14T07:04:32Z</time>
      </trkpt>
      <trkpt lat="46.037658071145415" lon="6.998149026185274">
        <ele>1436.8299999999999</ele>
        <time>2014-07-14T07:04:47Z</time>
      </trkpt>
      <trkpt lat="46.037604091688991" lon="6.998199317604303">
        <ele>1438.75</ele>
        <time>2014-07-14T07:05:00Z</time>
      </trkpt>
      <trkpt lat="46.03752538561821" lon="6.998261762782931">
        <ele>1439.71</ele>
        <time>2014-07-14T07:05:13Z</time>
      </trkpt>
      <trkpt lat="46.037365878000855" lon="6.998355053365231">
        <ele>1440.6700000000001</ele>
        <time>2014-07-14T07:05:29Z</time>
      </trkpt>
      <trkpt lat="46.037307875230908" lon="6.998486733064055">
        <ele>1442.1099999999999</ele>
        <time>2014-07-14T07:05:43Z</time>
      </trkpt>
      <trkpt lat="46.037244508042932" lon="6.99857977218926">
        <ele>1443.5599999999999</ele>
        <time>2014-07-14T07:05:56Z</time>
      </trkpt>
      <trkpt lat="46.037205196917057" lon="6.998641295358539">
        <ele>1444.04</ele>
        <time>2014-07-14T07:06:09Z</time>
      </trkpt>
      <trkpt lat="46.037174267694354" lon="6.998729137703776">
        <ele>1444.52</ele>
        <time>2014-07-14T07:06:23Z</time>
      </trkpt>
      <trkpt lat="46.037127077579498" lon="6.998850256204605">
        <ele>1446.4400000000001</ele>
        <time>2014-07-14T07:06:37Z</time>
      </trkpt>
      <trkpt lat="46.037121880799532" lon="6.99899660423398">
        <ele>1447.8800000000001</ele>
        <time>2014-07-14T07:06:53Z</time>
      </trkpt>
      <trkpt lat="46.037080893293023" lon="6.999156782403588">
        <ele>1449.3199999999999</ele>
        <time>2014-07-14T07:07:09Z</time>
      </trkpt>
      <trkpt lat="46.037043929100037" lon="6.999264825135469">
        <ele>1450.77</ele>
        <time>2014-07-14T07:07:21Z</time>
      </trkpt>
      <trkpt lat="46.037029679864645" lon="6.999435648322105">
        <ele>1452.21</ele>
        <time>2014-07-14T07:07:39Z</time>
      </trkpt>
      <trkpt lat="46.03702892549336" lon="6.999618792906404">
        <ele>1454.1300000000001</ele>
        <time>2014-07-14T07:07:57Z</time>
      </trkpt>
      <trkpt lat="46.037026410922408" lon="6.999747287482023">
        <ele>1455.0899999999999</ele>
        <time>2014-07-14T07:08:10Z</time>
      </trkpt>
      <trkpt lat="46.036973604932427" lon="6.999902939423919">
        <ele>1456.53</ele>
        <time>2014-07-14T07:08:25Z</time>
      </trkpt>
      <trkpt lat="46.036885092034936" lon="7.000033529475331">
        <ele>1457.98</ele>
        <time>2014-07-14T07:08:38Z</time>
      </trkpt>
      <trkpt lat="46.036765733733773" lon="7.000244334340096">
        <ele>1459.9000000000001</ele>
        <time>2014-07-14T07:08:55Z</time>
      </trkpt>
      <trkpt lat="46.036722147837281" lon="7.000332763418555">
        <ele>1461.3399999999999</ele>
        <time>2014-07-14T07:09:09Z</time>
      </trkpt>
      <trkpt lat="46.036692978814244" lon="7.000451702624559">
        <ele>1462.78</ele>
        <time>2014-07-14T07:09:23Z</time>
      </trkpt>
      <trkpt lat="46.036640843376517" lon="7.000596625730395">
        <ele>1464.71</ele>
        <time>2014-07-14T07:09:36Z</time>
      </trkpt>
      <trkpt lat="46.036611758172512" lon="7.000653790310025">
        <ele>1464.71</ele>
        <time>2014-07-14T07:09:49Z</time>
      </trkpt>
      <trkpt lat="46.036599688231945" lon="7.000602828338742">
        <ele>1464.23</ele>
        <time>2014-07-14T07:09:53Z</time>
      </trkpt>
      <trkpt lat="46.036544367671013" lon="7.000466203317046">
        <ele>1464.71</ele>
        <time>2014-07-14T07:10:04Z</time>
      </trkpt>
      <trkpt lat="46.036591557785869" lon="7.000178452581167">
        <ele>1467.1099999999999</ele>
        <time>2014-07-14T07:10:25Z</time>
      </trkpt>
      <trkpt lat="46.036549564450979" lon="7.000006791204214">
        <ele>1469.03</ele>
        <time>2014-07-14T07:10:40Z</time>
      </trkpt>
      <trkpt lat="46.036480162292719" lon="6.999795651063323">
        <ele>1470.95</ele>
        <time>2014-07-14T07:10:57Z</time>
      </trkpt>
      <trkpt lat="46.036547385156155" lon="6.999952225014567">
        <ele>1473.3599999999999</ele>
        <time>2014-07-14T07:11:14Z</time>
      </trkpt>
      <trkpt lat="46.036471361294389" lon="7.000089436769486">
        <ele>1476.24</ele>
        <time>2014-07-14T07:11:31Z</time>
      </trkpt>
      <trkpt lat="46.036367174237967" lon="7.000206867232919">
        <ele>1479.1300000000001</ele>
        <time>2014-07-14T07:11:50Z</time>
      </trkpt>
      <trkpt lat="46.03630430996418" lon="6.999989524483681">
        <ele>1481.53</ele>
        <time>2014-07-14T07:12:07Z</time>
      </trkpt>
      <trkpt lat="46.036236751824617" lon="7.000002600252628">
        <ele>1483.9300000000001</ele>
        <time>2014-07-14T07:12:26Z</time>
      </trkpt>
      <trkpt lat="46.036209175363183" lon="7.000157749280334">
        <ele>1486.8199999999999</ele>
        <time>2014-07-14T07:12:45Z</time>
      </trkpt>
      <trkpt lat="46.036153435707092" lon="7.000317256897688">
        <ele>1489.22</ele>
        <time>2014-07-14T07:13:04Z</time>
      </trkpt>
      <trkpt lat="46.036108592525125" lon="7.000442817807198">
        <ele>1492.0999999999999</ele>
        <time>2014-07-14T07:13:20Z</time>
      </trkpt>
      <trkpt lat="46.036105575039983" lon="7.00058707036078">
        <ele>1494.51</ele>
        <time>2014-07-14T07:13:35Z</time>
      </trkpt>
      <trkpt lat="46.036026198416948" lon="7.00060416944325">
        <ele>1497.3900000000001</ele>
        <time>2014-07-14T07:13:50Z</time>
      </trkpt>
      <trkpt lat="46.035968866199255" lon="7.000453965738416">
        <ele>1499.79</ele>
        <time>2014-07-14T07:14:03Z</time>
      </trkpt>
      <trkpt lat="46.035917988047004" lon="7.000320358201861">
        <ele>1500.76</ele>
        <time>2014-07-14T07:14:14Z</time>
      </trkpt>
      <trkpt lat="46.035931902006269" lon="7.000341229140759">
        <ele>1501.24</ele>
        <time>2014-07-14T07:14:27Z</time>
      </trkpt>
      <trkpt lat="46.035901559516788" lon="7.000506184995174">
        <ele>1502.6800000000001</ele>
        <time>2014-07-14T07:14:41Z</time>
      </trkpt>
      <trkpt lat="46.035899464040995" lon="7.000514902174473">
        <ele>1502.6800000000001</ele>
        <time>2014-07-14T07:14:42Z</time>
      </trkpt>
      <trkpt lat="46.035820171236992" lon="7.000608947128058">
        <ele>1503.6400000000001</ele>
        <time>2014-07-14T07:14:57Z</time>
      </trkpt>
      <trkpt lat="46.035798126831651" lon="7.000637110322714">
        <ele>1503.6400000000001</ele>
        <time>2014-07-14T07:15:08Z</time>
      </trkpt>
      <trkpt lat="46.035756217315793" lon="7.000681199133396">
        <ele>1504.5999999999999</ele>
        <time>2014-07-14T07:15:21Z</time>
      </trkpt>
      <trkpt lat="46.035655802115798" lon="7.000662507489324">
        <ele>1506.04</ele>
        <time>2014-07-14T07:15:34Z</time>
      </trkpt>
      <trkpt lat="46.035568546503782" lon="7.000688156113029">
        <ele>1507.48</ele>
        <time>2014-07-14T07:15:45Z</time>
      </trkpt>
      <trkpt lat="46.035543903708458" lon="7.000726042315364">
        <ele>1507.97</ele>
        <time>2014-07-14T07:15:50Z</time>
      </trkpt>
      <trkpt lat="46.035528648644686" lon="7.000778010115027">
        <ele>1507.48</ele>
        <time>2014-07-14T07:16:06Z</time>
      </trkpt>
      <trkpt lat="46.035506688058376" lon="7.000839533284307">
        <ele>1507.97</ele>
        <time>2014-07-14T07:16:11Z</time>
      </trkpt>
      <trkpt lat="46.035466706380248" lon="7.0009486656636">
        <ele>1509.8900000000001</ele>
        <time>2014-07-14T07:16:22Z</time>
      </trkpt>
      <trkpt lat="46.035431502386928" lon="7.001071712002158">
        <ele>1510.3699999999999</ele>
        <time>2014-07-14T07:16:34Z</time>
      </trkpt>
      <trkpt lat="46.035352628678083" lon="7.001188388094306">
        <ele>1511.3299999999999</ele>
        <time>2014-07-14T07:16:47Z</time>
      </trkpt>
      <trkpt lat="46.035230001434684" lon="7.001287713646889">
        <ele>1512.77</ele>
        <time>2014-07-14T07:17:03Z</time>
      </trkpt>
      <trkpt lat="46.035132519900799" lon="7.001362983137369">
        <ele>1513.73</ele>
        <time>2014-07-14T07:17:16Z</time>
      </trkpt>
      <trkpt lat="46.035022968426347" lon="7.001441940665245">
        <ele>1514.6900000000001</ele>
        <time>2014-07-14T07:17:29Z</time>
      </trkpt>
      <trkpt lat="46.034934120252728" lon="7.001584265381098">
        <ele>1515.6600000000001</ele>
        <time>2014-07-14T07:17:44Z</time>
      </trkpt>
      <trkpt lat="46.034867651760578" lon="7.001707144081593">
        <ele>1517.0999999999999</ele>
        <time>2014-07-14T07:17:59Z</time>
      </trkpt>
      <trkpt lat="46.034803614020348" lon="7.001863215118647">
        <ele>1518.54</ele>
        <time>2014-07-14T07:18:12Z</time>
      </trkpt>
      <trkpt lat="46.034744856879115" lon="7.001996738836169">
        <ele>1519.98</ele>
        <time>2014-07-14T07:18:25Z</time>
      </trkpt>
      <trkpt lat="46.034723315387964" lon="7.002048371359706">
        <ele>1520.46</ele>
        <time>2014-07-14T07:18:30Z</time>
      </trkpt>
      <trkpt lat="46.034678556025028" lon="7.002201676368713">
        <ele>1522.3900000000001</ele>
        <time>2014-07-14T07:18:46Z</time>
      </trkpt>
      <trkpt lat="46.03464100509882" lon="7.002317262813449">
        <ele>1524.3099999999999</ele>
        <time>2014-07-14T07:18:58Z</time>
      </trkpt>
      <trkpt lat="46.034636311233044" lon="7.002326902002096">
        <ele>1524.3099999999999</ele>
        <time>2014-07-14T07:18:59Z</time>
      </trkpt>
      <trkpt lat="46.034598257392645" lon="7.002393202856183">
        <ele>1524.3099999999999</ele>
        <time>2014-07-14T07:19:06Z</time>
      </trkpt>
      <trkpt lat="46.034510666504502" lon="7.002531420439482">
        <ele>1526.23</ele>
        <time>2014-07-14T07:19:20Z</time>
      </trkpt>
      <trkpt lat="46.034453753381968" lon="7.002728562802076">
        <ele>1526.23</ele>
        <time>2014-07-14T07:19:36Z</time>
      </trkpt>
      <trkpt lat="46.034392733126879" lon="7.002851525321603">
        <ele>1529.1099999999999</ele>
        <time>2014-07-14T07:19:53Z</time>
      </trkpt>
      <trkpt lat="46.034375717863441" lon="7.00285823084414">
        <ele>1529.5899999999999</ele>
        <time>2014-07-14T07:19:55Z</time>
      </trkpt>
      <trkpt lat="46.034302292391658" lon="7.002924615517259">
        <ele>1531.52</ele>
        <time>2014-07-14T07:20:10Z</time>
      </trkpt>
      <trkpt lat="46.034280247986317" lon="7.003046404570341">
        <ele>1533.9200000000001</ele>
        <time>2014-07-14T07:20:25Z</time>
      </trkpt>
      <trkpt lat="46.034193327650428" lon="7.003180766478181">
        <ele>1534.8800000000001</ele>
        <time>2014-07-14T07:20:42Z</time>
      </trkpt>
      <trkpt lat="46.034139264374971" lon="7.003285204991698">
        <ele>1536.8</ele>
        <time>2014-07-14T07:21:00Z</time>
      </trkpt>
      <trkpt lat="46.034057205542922" lon="7.003366006538272">
        <ele>1539.21</ele>
        <time>2014-07-14T07:21:14Z</time>
      </trkpt>
      <trkpt lat="46.033990569412708" lon="7.003405317664146">
        <ele>1542.0899999999999</ele>
        <time>2014-07-14T07:21:31Z</time>
      </trkpt>
      <trkpt lat="46.033942122012377" lon="7.003561975434423">
        <ele>1544.98</ele>
        <time>2014-07-14T07:21:49Z</time>
      </trkpt>
      <trkpt lat="46.033919155597687" lon="7.003631629049778">
        <ele>1546.9000000000001</ele>
        <time>2014-07-14T07:22:00Z</time>
      </trkpt>
      <trkpt lat="46.033889148384333" lon="7.003661300987005">
        <ele>1547.3800000000001</ele>
        <time>2014-07-14T07:22:15Z</time>
      </trkpt>
      <trkpt lat="46.033873474225402" lon="7.003685776144266">
        <ele>1547.3800000000001</ele>
        <time>2014-07-14T07:22:29Z</time>
      </trkpt>
      <trkpt lat="46.033886969089508" lon="7.003649147227407">
        <ele>1547.3800000000001</ele>
        <time>2014-07-14T07:22:45Z</time>
      </trkpt>
      <trkpt lat="46.033850004896522" lon="7.003655266016722">
        <ele>1548.3399999999999</ele>
        <time>2014-07-14T07:22:57Z</time>
      </trkpt>
      <trkpt lat="46.03379032574594" lon="7.003710083663464">
        <ele>1550.26</ele>
        <time>2014-07-14T07:23:12Z</time>
      </trkpt>
      <trkpt lat="46.03375026024878" lon="7.003704132512212">
        <ele>1552.1900000000001</ele>
        <time>2014-07-14T07:23:22Z</time>
      </trkpt>
      <trkpt lat="46.033658059313893" lon="7.003679070621729">
        <ele>1554.5899999999999</ele>
        <time>2014-07-14T07:23:36Z</time>
      </trkpt>
      <trkpt lat="46.033624112606049" lon="7.003696504980326">
        <ele>1556.99</ele>
        <time>2014-07-14T07:23:47Z</time>
      </trkpt>
      <trkpt lat="46.033583544194698" lon="7.003673287108541">
        <ele>1558.4300000000001</ele>
        <time>2014-07-14T07:23:55Z</time>
      </trkpt>
      <trkpt lat="46.033471310511231" lon="7.00364101678133">
        <ele>1560.8399999999999</ele>
        <time>2014-07-14T07:24:12Z</time>
      </trkpt>
      <trkpt lat="46.033456390723586" lon="7.003796668723226">
        <ele>1561.8</ele>
        <time>2014-07-14T07:24:26Z</time>
      </trkpt>
      <trkpt lat="46.03343702852726" lon="7.003914937376976">
        <ele>1562.76</ele>
        <time>2014-07-14T07:24:39Z</time>
      </trkpt>
      <trkpt lat="46.033439878374338" lon="7.003968497738242">
        <ele>1563.24</ele>
        <time>2014-07-14T07:24:43Z</time>
      </trkpt>
      <trkpt lat="46.033436190336943" lon="7.0041364710778">
        <ele>1565.1600000000001</ele>
        <time>2014-07-14T07:24:57Z</time>
      </trkpt>
      <trkpt lat="46.033400483429432" lon="7.004235964268446">
        <ele>1565.6400000000001</ele>
        <time>2014-07-14T07:25:10Z</time>
      </trkpt>
      <trkpt lat="46.033373745158315" lon="7.004312658682466">
        <ele>1566.1199999999999</ele>
        <time>2014-07-14T07:25:16Z</time>
      </trkpt>
      <trkpt lat="46.033275509253144" lon="7.004419947043061">
        <ele>1567.0899999999999</ele>
        <time>2014-07-14T07:25:30Z</time>
      </trkpt>
      <trkpt lat="46.033174255862832" lon="7.004499323666096">
        <ele>1567.5699999999999</ele>
        <time>2014-07-14T07:25:42Z</time>
      </trkpt>
      <trkpt lat="46.033136118203402" lon="7.004518853500485">
        <ele>1567.5699999999999</ele>
        <time>2014-07-14T07:25:46Z</time>
      </trkpt>
      <trkpt lat="46.033043162897229" lon="7.00466176494956">
        <ele>1569.01</ele>
        <time>2014-07-14T07:26:00Z</time>
      </trkpt>
      <trkpt lat="46.032957164570689" lon="7.004785565659404">
        <ele>1569.97</ele>
        <time>2014-07-14T07:26:13Z</time>
      </trkpt>
      <trkpt lat="46.032924726605415" lon="7.004846083000302">
        <ele>1569.49</ele>
        <time>2014-07-14T07:26:17Z</time>
      </trkpt>
      <trkpt lat="46.032911147922277" lon="7.0048997271806">
        <ele>1569.97</ele>
        <time>2014-07-14T07:26:21Z</time>
      </trkpt>
      <trkpt lat="46.032924558967352" lon="7.004974745213985">
        <ele>1570.45</ele>
        <time>2014-07-14T07:26:26Z</time>
      </trkpt>
      <trkpt lat="46.032948112115264" lon="7.005121596157551">
        <ele>1569.49</ele>
        <time>2014-07-14T07:26:35Z</time>
      </trkpt>
      <trkpt lat="46.032944088801742" lon="7.005356708541513">
        <ele>1568.05</ele>
        <time>2014-07-14T07:26:50Z</time>
      </trkpt>
      <trkpt lat="46.032916260883212" lon="7.005422003567219">
        <ele>1569.01</ele>
        <time>2014-07-14T07:26:55Z</time>
      </trkpt>
      <trkpt lat="46.032858174294233" lon="7.005577320232987">
        <ele>1569.49</ele>
        <time>2014-07-14T07:27:10Z</time>
      </trkpt>
      <trkpt lat="46.032833280041814" lon="7.005635993555188">
        <ele>1570.9300000000001</ele>
        <time>2014-07-14T07:27:17Z</time>
      </trkpt>
      <trkpt lat="46.032775947824121" lon="7.005748897790909">
        <ele>1573.3299999999999</ele>
        <time>2014-07-14T07:27:32Z</time>
      </trkpt>
      <trkpt lat="46.032691206783056" lon="7.00585350394249">
        <ele>1573.8199999999999</ele>
        <time>2014-07-14T07:27:45Z</time>
      </trkpt>
      <trkpt lat="46.032646866515279" lon="7.005889965221286">
        <ele>1573.8199999999999</ele>
        <time>2014-07-14T07:27:51Z</time>
      </trkpt>
      <trkpt lat="46.032616859301925" lon="7.006014939397574">
        <ele>1575.74</ele>
        <time>2014-07-14T07:28:05Z</time>
      </trkpt>
      <trkpt lat="46.032652985304594" lon="7.006071181967855">
        <ele>1576.22</ele>
        <time>2014-07-14T07:28:12Z</time>
      </trkpt>
      <trkpt lat="46.03267134167254" lon="7.006087526679039">
        <ele>1576.7</ele>
        <time>2014-07-14T07:28:15Z</time>
      </trkpt>
      <trkpt lat="46.032677041366696" lon="7.00621853582561">
        <ele>1578.6199999999999</ele>
        <time>2014-07-14T07:28:29Z</time>
      </trkpt>
      <trkpt lat="46.032617865130305" lon="7.00630503706634">
        <ele>1580.54</ele>
        <time>2014-07-14T07:28:43Z</time>
      </trkpt>
      <trkpt lat="46.032611578702927" lon="7.006389694288373">
        <ele>1581.99</ele>
        <time>2014-07-14T07:28:56Z</time>
      </trkpt>
      <trkpt lat="46.032658433541656" lon="7.006551716476679">
        <ele>1582.47</ele>
        <time>2014-07-14T07:29:09Z</time>
      </trkpt>
      <trkpt lat="46.032655918970704" lon="7.00656152330339">
        <ele>1582.47</ele>
        <time>2014-07-14T07:29:10Z</time>
      </trkpt>
      <trkpt lat="46.032579392194748" lon="7.006674762815237">
        <ele>1581.51</ele>
        <time>2014-07-14T07:29:23Z</time>
      </trkpt>
      <trkpt lat="46.032527089118958" lon="7.006715331226587">
        <ele>1581.51</ele>
        <time>2014-07-14T07:29:28Z</time>
      </trkpt>
      <trkpt lat="46.032491466030478" lon="7.006827229633927">
        <ele>1581.03</ele>
        <time>2014-07-14T07:29:37Z</time>
      </trkpt>
      <trkpt lat="46.032468918710947" lon="7.00685229152441">
        <ele>1581.03</ele>
        <time>2014-07-14T07:29:40Z</time>
      </trkpt>
      <trkpt lat="46.032464057207108" lon="7.006877772510052">
        <ele>1581.51</ele>
        <time>2014-07-14T07:29:42Z</time>
      </trkpt>
      <trkpt lat="46.032402282580733" lon="7.00699595734477">
        <ele>1581.51</ele>
        <time>2014-07-14T07:29:54Z</time>
      </trkpt>
      <trkpt lat="46.032292898744345" lon="7.007113639265299">
        <ele>1581.99</ele>
        <time>2014-07-14T07:30:08Z</time>
      </trkpt>
      <trkpt lat="46.032257024198771" lon="7.007221262902021">
        <ele>1581.99</ele>
        <time>2014-07-14T07:30:22Z</time>
      </trkpt>
      <trkpt lat="46.032282589003444" lon="7.007426870986819">
        <ele>1581.51</ele>
        <time>2014-07-14T07:30:36Z</time>
      </trkpt>
      <trkpt lat="46.032208576798439" lon="7.007556622847915">
        <ele>1581.51</ele>
        <time>2014-07-14T07:30:47Z</time>
      </trkpt>
      <trkpt lat="46.032174630090594" lon="7.007678914815188">
        <ele>1582.95</ele>
        <time>2014-07-14T07:31:01Z</time>
      </trkpt>
      <trkpt lat="46.032171277329326" lon="7.007798356935382">
        <ele>1584.3900000000001</ele>
        <time>2014-07-14T07:31:15Z</time>
      </trkpt>
      <trkpt lat="46.032237410545349" lon="7.007932048290968">
        <ele>1586.3099999999999</ele>
        <time>2014-07-14T07:31:30Z</time>
      </trkpt>
      <trkpt lat="46.032188460230827" lon="7.008084934204817">
        <ele>1587.75</ele>
        <time>2014-07-14T07:31:44Z</time>
      </trkpt>
      <trkpt lat="46.032178653404117" lon="7.008103374391794">
        <ele>1588.72</ele>
        <time>2014-07-14T07:31:46Z</time>
      </trkpt>
      <trkpt lat="46.032209247350693" lon="7.008255589753389">
        <ele>1586.79</ele>
        <time>2014-07-14T07:32:02Z</time>
      </trkpt>
      <trkpt lat="46.03211629204452" lon="7.008335469290614">
        <ele>1586.79</ele>
        <time>2014-07-14T07:32:12Z</time>
      </trkpt>
      <trkpt lat="46.032088128849864" lon="7.008343013003469">
        <ele>1586.3099999999999</ele>
        <time>2014-07-14T07:32:31Z</time>
      </trkpt>
      <trkpt lat="46.032103300094604" lon="7.008280400186777">
        <ele>1586.79</ele>
        <time>2014-07-14T07:32:43Z</time>
      </trkpt>
      <trkpt lat="46.032049739733338" lon="7.00834016315639">
        <ele>1586.3099999999999</ele>
        <time>2014-07-14T07:33:02Z</time>
      </trkpt>
      <trkpt lat="46.032044626772404" lon="7.008279226720333">
        <ele>1586.79</ele>
        <time>2014-07-14T07:33:19Z</time>
      </trkpt>
      <trkpt lat="46.03201319463551" lon="7.00838902965188">
        <ele>1585.3499999999999</ele>
        <time>2014-07-14T07:33:35Z</time>
      </trkpt>
      <trkpt lat="46.032056529074907" lon="7.008430436253548">
        <ele>1584.8699999999999</ele>
        <time>2014-07-14T07:33:48Z</time>
      </trkpt>
      <trkpt lat="46.032132720574737" lon="7.008448457345367">
        <ele>1585.8299999999999</ele>
        <time>2014-07-14T07:34:02Z</time>
      </trkpt>
      <trkpt lat="46.032215701416135" lon="7.008508639410138">
        <ele>1585.8299999999999</ele>
        <time>2014-07-14T07:34:16Z</time>
      </trkpt>
      <trkpt lat="46.032223328948021" lon="7.008559936657548">
        <ele>1585.3499999999999</ele>
        <time>2014-07-14T07:34:27Z</time>
      </trkpt>
      <trkpt lat="46.032274207100272" lon="7.008639648556709">
        <ele>1586.3099999999999</ele>
        <time>2014-07-14T07:34:41Z</time>
      </trkpt>
      <trkpt lat="46.032290887087584" lon="7.008715756237507">
        <ele>1588.72</ele>
        <time>2014-07-14T07:34:51Z</time>
      </trkpt>
      <trkpt lat="46.03230538778007" lon="7.008677702397108">
        <ele>1589.2</ele>
        <time>2014-07-14T07:34:56Z</time>
      </trkpt>
      <trkpt lat="46.032313434407115" lon="7.008678875863552">
        <ele>1589.6800000000001</ele>
        <time>2014-07-14T07:34:58Z</time>
      </trkpt>
      <trkpt lat="46.032351907342672" lon="7.008732436224818">
        <ele>1591.5999999999999</ele>
        <time>2014-07-14T07:35:06Z</time>
      </trkpt>
      <trkpt lat="46.032329443842173" lon="7.008737046271563">
        <ele>1591.5999999999999</ele>
        <time>2014-07-14T07:35:18Z</time>
      </trkpt>
      <trkpt lat="46.032058959826827" lon="7.008532276377082">
        <ele>1591.5999999999999</ele>
        <time>2014-07-14T07:35:44Z</time>
      </trkpt>
      <trkpt lat="46.031927531585097" lon="7.008430687710643">
        <ele>1592.0799999999999</ele>
        <time>2014-07-14T07:36:05Z</time>
      </trkpt>
      <trkpt lat="46.032020319253206" lon="7.008633278310299">
        <ele>1592.5599999999999</ele>
        <time>2014-07-14T07:36:20Z</time>
      </trkpt>
      <trkpt lat="46.032153675332665" lon="7.008905522525311">
        <ele>1593.04</ele>
        <time>2014-07-14T07:36:32Z</time>
      </trkpt>
      <trkpt lat="46.032167337834835" lon="7.008939050137997">
        <ele>1593.52</ele>
        <time>2014-07-14T07:36:48Z</time>
      </trkpt>
      <trkpt lat="46.032154178246856" lon="7.00901985168457">
        <ele>1594</ele>
        <time>2014-07-14T07:37:02Z</time>
      </trkpt>
      <trkpt lat="46.032157028093934" lon="7.009001495316625">
        <ele>1595.45</ele>
        <time>2014-07-14T07:37:13Z</time>
      </trkpt>
      <trkpt lat="46.03217345662415" lon="7.00901985168457">
        <ele>1595.45</ele>
        <time>2014-07-14T07:37:18Z</time>
      </trkpt>
      <trkpt lat="46.032145628705621" lon="7.009094869717956">
        <ele>1595.9300000000001</ele>
        <time>2014-07-14T07:37:33Z</time>
      </trkpt>
      <trkpt lat="46.03214948438108" lon="7.00909118168056">
        <ele>1595.45</ele>
        <time>2014-07-14T07:37:35Z</time>
      </trkpt>
      <trkpt lat="46.032193908467889" lon="7.009142311289907">
        <ele>1595.9300000000001</ele>
        <time>2014-07-14T07:37:50Z</time>
      </trkpt>
      <trkpt lat="46.032249815762043" lon="7.009119428694248">
        <ele>1595.9300000000001</ele>
        <time>2014-07-14T07:38:21Z</time>
      </trkpt>
      <trkpt lat="46.03227018378675" lon="7.009135102853179">
        <ele>1595.9300000000001</ele>
        <time>2014-07-14T07:38:47Z</time>
      </trkpt>
      <trkpt lat="46.032134061679244" lon="7.009064527228475">
        <ele>1595.9300000000001</ele>
        <time>2014-07-14T07:39:08Z</time>
      </trkpt>
      <trkpt lat="46.032183347269893" lon="7.009047847241163">
        <ele>1595.9300000000001</ele>
        <time>2014-07-14T07:39:30Z</time>
      </trkpt>
      <trkpt lat="46.032263478264213" lon="7.009123535826802">
        <ele>1595.9300000000001</ele>
        <time>2014-07-14T07:40:00Z</time>
      </trkpt>
      <trkpt lat="46.032340591773391" lon="7.009139796718955">
        <ele>1595.9300000000001</ele>
        <time>2014-07-14T07:40:32Z</time>
      </trkpt>
      <trkpt lat="46.032156608998775" lon="7.00905161909759">
        <ele>1595.9300000000001</ele>
        <time>2014-07-14T07:41:02Z</time>
      </trkpt>
      <trkpt lat="46.032062815502286" lon="7.008944246917963">
        <ele>1595.9300000000001</ele>
        <time>2014-07-14T07:41:26Z</time>
      </trkpt>
      <trkpt lat="46.031986875459552" lon="7.008862188085914">
        <ele>1595.9300000000001</ele>
        <time>2014-07-14T07:41:39Z</time>
      </trkpt>
      <trkpt lat="46.031674984842539" lon="7.008578041568399">
        <ele>1595.9300000000001</ele>
        <time>2014-07-14T07:42:04Z</time>
      </trkpt>
      <trkpt lat="46.031794929876924" lon="7.008674768730998">
        <ele>1595.9300000000001</ele>
        <time>2014-07-14T07:42:31Z</time>
      </trkpt>
      <trkpt lat="46.031939936801791" lon="7.008842071518302">
        <ele>1595.9300000000001</ele>
        <time>2014-07-14T07:42:52Z</time>
      </trkpt>
      <trkpt lat="46.032044542953372" lon="7.008901163935661">
        <ele>1595.9300000000001</ele>
        <time>2014-07-14T07:43:15Z</time>
      </trkpt>
      <trkpt lat="46.032117884606123" lon="7.008982803672552">
        <ele>1595.9300000000001</ele>
        <time>2014-07-14T07:43:34Z</time>
      </trkpt>
      <trkpt lat="46.032151579856873" lon="7.00898758135736">
        <ele>1595.9300000000001</ele>
        <time>2014-07-14T07:44:01Z</time>
      </trkpt>
      <trkpt lat="46.032086284831166" lon="7.008966458961368">
        <ele>1595.9300000000001</ele>
        <time>2014-07-14T07:44:25Z</time>
      </trkpt>
      <trkpt lat="46.032014451920986" lon="7.008894206956029">
        <ele>1596.4100000000001</ele>
        <time>2014-07-14T07:44:44Z</time>
      </trkpt>
      <trkpt lat="46.03209332562983" lon="7.008955059573054">
        <ele>1596.4100000000001</ele>
        <time>2014-07-14T07:45:08Z</time>
      </trkpt>
      <trkpt lat="46.03207522071898" lon="7.008926058188081">
        <ele>1595.9300000000001</ele>
        <time>2014-07-14T07:45:28Z</time>
      </trkpt>
      <trkpt lat="46.032102294266224" lon="7.008894123136997">
        <ele>1595.9300000000001</ele>
        <time>2014-07-14T07:45:54Z</time>
      </trkpt>
      <trkpt lat="46.032075555995107" lon="7.008903929963708">
        <ele>1595.9300000000001</ele>
        <time>2014-07-14T07:46:20Z</time>
      </trkpt>
      <trkpt lat="46.032086703926325" lon="7.00885858386755">
        <ele>1595.9300000000001</ele>
        <time>2014-07-14T07:46:39Z</time>
      </trkpt>
      <trkpt lat="46.03201612830162" lon="7.008849866688252">
        <ele>1595.9300000000001</ele>
        <time>2014-07-14T07:46:58Z</time>
      </trkpt>
      <trkpt lat="46.031988551840186" lon="7.008850872516632">
        <ele>1596.4100000000001</ele>
        <time>2014-07-14T07:47:18Z</time>
      </trkpt>
      <trkpt lat="46.032010177150369" lon="7.008962770923972">
        <ele>1596.4100000000001</ele>
        <time>2014-07-14T07:47:36Z</time>
      </trkpt>
      <trkpt lat="46.032044710591435" lon="7.00901105068624">
        <ele>1596.4100000000001</ele>
        <time>2014-07-14T07:47:58Z</time>
      </trkpt>
      <trkpt lat="46.031991485506296" lon="7.009019767865539">
        <ele>1596.4100000000001</ele>
        <time>2014-07-14T07:48:18Z</time>
      </trkpt>
      <trkpt lat="46.031963154673576" lon="7.008931003510952">
        <ele>1596.4100000000001</ele>
        <time>2014-07-14T07:48:31Z</time>
      </trkpt>
      <trkpt lat="46.031871121376753" lon="7.008842155337334">
        <ele>1596.4100000000001</ele>
        <time>2014-07-14T07:48:47Z</time>
      </trkpt>
      <trkpt lat="46.032033730298281" lon="7.009019684046507">
        <ele>1595.9300000000001</ele>
        <time>2014-07-14T07:49:07Z</time>
      </trkpt>
      <trkpt lat="46.031980589032173" lon="7.009003004059196">
        <ele>1596.4100000000001</ele>
        <time>2014-07-14T07:49:34Z</time>
      </trkpt>
      <trkpt lat="46.032017972320318" lon="7.009049942716956">
        <ele>1596.4100000000001</ele>
        <time>2014-07-14T07:50:00Z</time>
      </trkpt>
      <trkpt lat="46.031959550455213" lon="7.008802425116301">
        <ele>1596.8900000000001</ele>
        <time>2014-07-14T07:50:28Z</time>
      </trkpt>
      <trkpt lat="46.032097181305289" lon="7.00902278535068">
        <ele>1596.8900000000001</ele>
        <time>2014-07-14T07:50:58Z</time>
      </trkpt>
      <trkpt lat="46.032082680612803" lon="7.009009290486574">
        <ele>1597.3699999999999</ele>
        <time>2014-07-14T07:51:29Z</time>
      </trkpt>
      <trkpt lat="46.032089469954371" lon="7.008944833651185">
        <ele>1597.3699999999999</ele>
        <time>2014-07-14T07:52:00Z</time>
      </trkpt>
      <trkpt lat="46.032080249860883" lon="7.008973080664873">
        <ele>1597.3699999999999</ele>
        <time>2014-07-14T07:52:26Z</time>
      </trkpt>
      <trkpt lat="46.032104305922985" lon="7.008962016552687">
        <ele>1597.8499999999999</ele>
        <time>2014-07-14T07:52:52Z</time>
      </trkpt>
      <trkpt lat="46.032252497971058" lon="7.009195704013109">
        <ele>1597.8499999999999</ele>
        <time>2014-07-14T07:53:20Z</time>
      </trkpt>
      <trkpt lat="46.032228693366051" lon="7.009148010984063">
        <ele>1597.8499999999999</ele>
        <time>2014-07-14T07:53:46Z</time>
      </trkpt>
      <trkpt lat="46.032178066670895" lon="7.009059581905603">
        <ele>1598.3299999999999</ele>
        <time>2014-07-14T07:54:16Z</time>
      </trkpt>
      <trkpt lat="46.032157447189093" lon="7.009053379297257">
        <ele>1598.3299999999999</ele>
        <time>2014-07-14T07:54:38Z</time>
      </trkpt>
      <trkpt lat="46.032134313136339" lon="7.008977439254522">
        <ele>1598.3299999999999</ele>
        <time>2014-07-14T07:54:58Z</time>
      </trkpt>
      <trkpt lat="46.032250234857202" lon="7.009233087301254">
        <ele>1598.3299999999999</ele>
        <time>2014-07-14T07:55:28Z</time>
      </trkpt>
      <trkpt lat="46.032355260103941" lon="7.009410029277206">
        <ele>1598.3299999999999</ele>
        <time>2014-07-14T07:55:50Z</time>
      </trkpt>
      <trkpt lat="46.032358529046178" lon="7.009423356503248">
        <ele>1599.77</ele>
        <time>2014-07-14T07:55:54Z</time>
      </trkpt>
      <trkpt lat="46.032309830188751" lon="7.009295783936977">
        <ele>1598.8099999999999</ele>
        <time>2014-07-14T07:56:25Z</time>
      </trkpt>
      <trkpt lat="46.032275296747684" lon="7.009281367063522">
        <ele>1598.8099999999999</ele>
        <time>2014-07-14T07:56:46Z</time>
      </trkpt>
      <trkpt lat="46.032226514071226" lon="7.009194446727634">
        <ele>1598.3299999999999</ele>
        <time>2014-07-14T07:56:57Z</time>
      </trkpt>
      <trkpt lat="46.032132972031832" lon="7.009112555533648">
        <ele>1598.8099999999999</ele>
        <time>2014-07-14T07:57:07Z</time>
      </trkpt>
      <trkpt lat="46.032060133293271" lon="7.009112890809774">
        <ele>1599.29</ele>
        <time>2014-07-14T07:57:26Z</time>
      </trkpt>
      <trkpt lat="46.032092152163386" lon="7.009126553311944">
        <ele>1599.29</ele>
        <time>2014-07-14T07:57:40Z</time>
      </trkpt>
      <trkpt lat="46.032061893492937" lon="7.009000321850181">
        <ele>1598.8099999999999</ele>
        <time>2014-07-14T07:57:55Z</time>
      </trkpt>
      <trkpt lat="46.032061306759715" lon="7.008999483659864">
        <ele>1600.25</ele>
        <time>2014-07-14T07:57:56Z</time>
      </trkpt>
      <trkpt lat="46.032068263739347" lon="7.009008536115289">
        <ele>1598.8099999999999</ele>
        <time>2014-07-14T07:58:10Z</time>
      </trkpt>
      <trkpt lat="46.032047895714641" lon="7.009024545550346">
        <ele>1599.29</ele>
        <time>2014-07-14T07:58:29Z</time>
      </trkpt>
      <trkpt lat="46.032071113586426" lon="7.008996969088912">
        <ele>1599.29</ele>
        <time>2014-07-14T07:58:42Z</time>
      </trkpt>
      <trkpt lat="46.032058708369732" lon="7.008931674063206">
        <ele>1598.8099999999999</ele>
        <time>2014-07-14T07:58:56Z</time>
      </trkpt>
      <trkpt lat="46.032034149393439" lon="7.008941313251853">
        <ele>1600.25</ele>
        <time>2014-07-14T07:59:06Z</time>
      </trkpt>
      <trkpt lat="46.03202149271965" lon="7.008894458413124">
        <ele>1598.3299999999999</ele>
        <time>2014-07-14T07:59:12Z</time>
      </trkpt>
      <trkpt lat="46.032025432214141" lon="7.008876269683242">
        <ele>1597.8499999999999</ele>
        <time>2014-07-14T07:59:13Z</time>
      </trkpt>
      <trkpt lat="46.032035825774074" lon="7.008840227499604">
        <ele>1596.8900000000001</ele>
        <time>2014-07-14T07:59:15Z</time>
      </trkpt>
      <trkpt lat="46.032030545175076" lon="7.008789014071226">
        <ele>1596.4100000000001</ele>
        <time>2014-07-14T07:59:18Z</time>
      </trkpt>
      <trkpt lat="46.032068515196443" lon="7.008701590821147">
        <ele>1595.9300000000001</ele>
        <time>2014-07-14T07:59:24Z</time>
      </trkpt>
      <trkpt lat="46.032066671177745" lon="7.008681055158377">
        <ele>1595.9300000000001</ele>
        <time>2014-07-14T07:59:25Z</time>
      </trkpt>
      <trkpt lat="46.032069604843855" lon="7.008662866428495">
        <ele>1595.45</ele>
        <time>2014-07-14T07:59:26Z</time>
      </trkpt>
      <trkpt lat="46.032067677006125" lon="7.008644761517644">
        <ele>1595.45</ele>
        <time>2014-07-14T07:59:27Z</time>
      </trkpt>
      <trkpt lat="46.032087961211801" lon="7.008592123165727">
        <ele>1595.45</ele>
        <time>2014-07-14T07:59:31Z</time>
      </trkpt>
      <trkpt lat="46.032130708917975" lon="7.008562535047531">
        <ele>1594.96</ele>
        <time>2014-07-14T07:59:35Z</time>
      </trkpt>
      <trkpt lat="46.032164739444852" lon="7.008520374074578">
        <ele>1594.48</ele>
        <time>2014-07-14T07:59:43Z</time>
      </trkpt>
      <trkpt lat="46.032141605392098" lon="7.008511237800121">
        <ele>1592.0799999999999</ele>
        <time>2014-07-14T07:59:54Z</time>
      </trkpt>
      <trkpt lat="46.032132636755705" lon="7.008554991334677">
        <ele>1591.5999999999999</ele>
        <time>2014-07-14T07:59:58Z</time>
      </trkpt>
      <trkpt lat="46.03212752379477" lon="7.008482739329338">
        <ele>1590.6400000000001</ele>
        <time>2014-07-14T08:00:03Z</time>
      </trkpt>
      <trkpt lat="46.032086117193103" lon="7.008362794294953">
        <ele>1588.72</ele>
        <time>2014-07-14T08:00:13Z</time>
      </trkpt>
      <trkpt lat="46.03197505697608" lon="7.008323818445206">
        <ele>1588.24</ele>
        <time>2014-07-14T08:00:29Z</time>
      </trkpt>
      <trkpt lat="46.032024677842855" lon="7.008366566151381">
        <ele>1588.24</ele>
        <time>2014-07-14T08:00:44Z</time>
      </trkpt>
      <trkpt lat="46.03212165646255" lon="7.008359860628843">
        <ele>1588.24</ele>
        <time>2014-07-14T08:01:10Z</time>
      </trkpt>
      <trkpt lat="46.032107658684254" lon="7.008396070450544">
        <ele>1588.24</ele>
        <time>2014-07-14T08:01:34Z</time>
      </trkpt>
      <trkpt lat="46.032003723084927" lon="7.008245447650552">
        <ele>1588.72</ele>
        <time>2014-07-14T08:01:58Z</time>
      </trkpt>
      <trkpt lat="46.032052673399448" lon="7.008386263623834">
        <ele>1588.24</ele>
        <time>2014-07-14T08:02:22Z</time>
      </trkpt>
      <trkpt lat="46.032049404457211" lon="7.008402943611145">
        <ele>1588.24</ele>
        <time>2014-07-14T08:02:53Z</time>
      </trkpt>
      <trkpt lat="46.032055774703622" lon="7.008542167022824">
        <ele>1587.27</ele>
        <time>2014-07-14T08:03:09Z</time>
      </trkpt>
      <trkpt lat="46.032044375315309" lon="7.008436555042863">
        <ele>1587.27</ele>
        <time>2014-07-14T08:03:28Z</time>
      </trkpt>
      <trkpt lat="46.031988970935345" lon="7.008344857022166">
        <ele>1587.27</ele>
        <time>2014-07-14T08:03:47Z</time>
      </trkpt>
      <trkpt lat="46.032000537961721" lon="7.008336642757058">
        <ele>1587.27</ele>
        <time>2014-07-14T08:04:08Z</time>
      </trkpt>
      <trkpt lat="46.032013446092606" lon="7.008396405726671">
        <ele>1587.75</ele>
        <time>2014-07-14T08:04:28Z</time>
      </trkpt>
      <trkpt lat="46.031959466636181" lon="7.008422976359725">
        <ele>1589.2</ele>
        <time>2014-07-14T08:04:45Z</time>
      </trkpt>
      <trkpt lat="46.031875312328339" lon="7.008462538942695">
        <ele>1591.1199999999999</ele>
        <time>2014-07-14T08:04:59Z</time>
      </trkpt>
      <trkpt lat="46.031763833016157" lon="7.008492546156049">
        <ele>1593.04</ele>
        <time>2014-07-14T08:05:14Z</time>
      </trkpt>
      <trkpt lat="46.031698705628514" lon="7.008540239185095">
        <ele>1593.04</ele>
        <time>2014-07-14T08:05:30Z</time>
      </trkpt>
      <trkpt lat="46.031659981235862" lon="7.008578209206462">
        <ele>1594.96</ele>
        <time>2014-07-14T08:05:44Z</time>
      </trkpt>
      <trkpt lat="46.031594853848219" lon="7.008610395714641">
        <ele>1596.4100000000001</ele>
        <time>2014-07-14T08:05:56Z</time>
      </trkpt>
      <trkpt lat="46.031588902696967" lon="7.008614335209131">
        <ele>1596.4100000000001</ele>
        <time>2014-07-14T08:05:57Z</time>
      </trkpt>
      <trkpt lat="46.031515058130026" lon="7.008767556399107">
        <ele>1597.8499999999999</ele>
        <time>2014-07-14T08:06:13Z</time>
      </trkpt>
      <trkpt lat="46.031462419778109" lon="7.008878700435162">
        <ele>1598.3299999999999</ele>
        <time>2014-07-14T08:06:27Z</time>
      </trkpt>
      <trkpt lat="46.031412715092301" lon="7.008970566093922">
        <ele>1600.73</ele>
        <time>2014-07-14T08:06:45Z</time>
      </trkpt>
      <trkpt lat="46.031348342075944" lon="7.008967967703939">
        <ele>1602.1700000000001</ele>
        <time>2014-07-14T08:06:59Z</time>
      </trkpt>
      <trkpt lat="46.0312953684479" lon="7.009027479216456">
        <ele>1603.6199999999999</ele>
        <time>2014-07-14T08:07:12Z</time>
      </trkpt>
      <trkpt lat="46.031268797814846" lon="7.009048517793417">
        <ele>1604.5799999999999</ele>
        <time>2014-07-14T08:07:28Z</time>
      </trkpt>
      <trkpt lat="46.031230073422194" lon="7.009014319628477">
        <ele>1606.02</ele>
        <time>2014-07-14T08:07:42Z</time>
      </trkpt>
      <trkpt lat="46.031213141977787" lon="7.008998896926642">
        <ele>1607.9400000000001</ele>
        <time>2014-07-14T08:07:59Z</time>
      </trkpt>
      <trkpt lat="46.031143153086305" lon="7.00901105068624">
        <ele>1609.8599999999999</ele>
        <time>2014-07-14T08:08:13Z</time>
      </trkpt>
      <trkpt lat="46.031089760363102" lon="7.009021444246173">
        <ele>1611.3099999999999</ele>
        <time>2014-07-14T08:08:25Z</time>
      </trkpt>
      <trkpt lat="46.030995212495327" lon="7.009041560813785">
        <ele>1613.23</ele>
        <time>2014-07-14T08:08:39Z</time>
      </trkpt>
      <trkpt lat="46.030987668782473" lon="7.009007949382067">
        <ele>1613.71</ele>
        <time>2014-07-14T08:08:52Z</time>
      </trkpt>
      <trkpt lat="46.030926229432225" lon="7.009003842249513">
        <ele>1615.1500000000001</ele>
        <time>2014-07-14T08:09:14Z</time>
      </trkpt>
      <trkpt lat="46.030864790081978" lon="7.008973835036159">
        <ele>1617.5599999999999</ele>
        <time>2014-07-14T08:09:28Z</time>
      </trkpt>
      <trkpt lat="46.030794298276305" lon="7.008931590244174">
        <ele>1619.96</ele>
        <time>2014-07-14T08:09:41Z</time>
      </trkpt>
      <trkpt lat="46.030808128416538" lon="7.008951622992754">
        <ele>1620.4400000000001</ele>
        <time>2014-07-14T08:09:59Z</time>
      </trkpt>
      <trkpt lat="46.030717017129064" lon="7.00896754860878">
        <ele>1622.3599999999999</ele>
        <time>2014-07-14T08:10:12Z</time>
      </trkpt>
      <trkpt lat="46.030710395425558" lon="7.008976181969047">
        <ele>1622.3599999999999</ele>
        <time>2014-07-14T08:10:32Z</time>
      </trkpt>
      <trkpt lat="46.030651051551104" lon="7.009000573307276">
        <ele>1623.3199999999999</ele>
        <time>2014-07-14T08:10:47Z</time>
      </trkpt>
      <trkpt lat="46.030564298853278" lon="7.009016834199429">
        <ele>1626.21</ele>
        <time>2014-07-14T08:11:01Z</time>
      </trkpt>
      <trkpt lat="46.030550552532077" lon="7.009038040414453">
        <ele>1626.6900000000001</ele>
        <time>2014-07-14T08:11:05Z</time>
      </trkpt>
      <trkpt lat="46.030474109575152" lon="7.009033178910613">
        <ele>1629.5699999999999</ele>
        <time>2014-07-14T08:11:18Z</time>
      </trkpt>
      <trkpt lat="46.030423231422901" lon="7.009084308519959">
        <ele>1630.05</ele>
        <time>2014-07-14T08:11:34Z</time>
      </trkpt>
      <trkpt lat="46.030388781800866" lon="7.009120685979724">
        <ele>1631.49</ele>
        <time>2014-07-14T08:11:46Z</time>
      </trkpt>
      <trkpt lat="46.030320636928082" lon="7.009153626859188">
        <ele>1632.9400000000001</ele>
        <time>2014-07-14T08:12:01Z</time>
      </trkpt>
      <trkpt lat="46.03023748844862" lon="7.009212803095579">
        <ele>1634.8599999999999</ele>
        <time>2014-07-14T08:12:15Z</time>
      </trkpt>
      <trkpt lat="46.030157525092363" lon="7.009262926876545">
        <ele>1637.26</ele>
        <time>2014-07-14T08:12:28Z</time>
      </trkpt>
      <trkpt lat="46.030185436829925" lon="7.009154884144664">
        <ele>1639.1900000000001</ele>
        <time>2014-07-14T08:12:39Z</time>
      </trkpt>
      <trkpt lat="46.030186358839273" lon="7.009095288813114">
        <ele>1640.6300000000001</ele>
        <time>2014-07-14T08:12:54Z</time>
      </trkpt>
      <trkpt lat="46.030226508155465" lon="7.009006021544337">
        <ele>1642.55</ele>
        <time>2014-07-14T08:13:07Z</time>
      </trkpt>
      <trkpt lat="46.030220221728086" lon="7.008961597457528">
        <ele>1643.51</ele>
        <time>2014-07-14T08:13:26Z</time>
      </trkpt>
      <trkpt lat="46.030224999412894" lon="7.008919939398766">
        <ele>1644.95</ele>
        <time>2014-07-14T08:13:38Z</time>
      </trkpt>
      <trkpt lat="46.03024628944695" lon="7.008866127580404">
        <ele>1646.8800000000001</ele>
        <time>2014-07-14T08:13:52Z</time>
      </trkpt>
      <trkpt lat="46.030261795967817" lon="7.008845172822475">
        <ele>1647.3599999999999</ele>
        <time>2014-07-14T08:13:54Z</time>
      </trkpt>
      <trkpt lat="46.03030445985496" lon="7.008796725422144">
        <ele>1647.3599999999999</ele>
        <time>2014-07-14T08:14:07Z</time>
      </trkpt>
      <trkpt lat="46.030322313308716" lon="7.008731765672565">
        <ele>1647.8399999999999</ele>
        <time>2014-07-14T08:14:26Z</time>
      </trkpt>
      <trkpt lat="46.030310913920403" lon="7.00870368629694">
        <ele>1649.76</ele>
        <time>2014-07-14T08:14:39Z</time>
      </trkpt>
      <trkpt lat="46.030267495661974" lon="7.008777530863881">
        <ele>1651.2</ele>
        <time>2014-07-14T08:14:54Z</time>
      </trkpt>
      <trkpt lat="46.030256599187851" lon="7.008728496730328">
        <ele>1653.1199999999999</ele>
        <time>2014-07-14T08:15:08Z</time>
      </trkpt>
      <trkpt lat="46.030242769047618" lon="7.008635038509965">
        <ele>1655.53</ele>
        <time>2014-07-14T08:15:22Z</time>
      </trkpt>
      <trkpt lat="46.030209744349122" lon="7.008719025179744">
        <ele>1656.97</ele>
        <time>2014-07-14T08:15:37Z</time>
      </trkpt>
      <trkpt lat="46.030190298333764" lon="7.008687593042851">
        <ele>1658.8900000000001</ele>
        <time>2014-07-14T08:15:50Z</time>
      </trkpt>
      <trkpt lat="46.030179485678673" lon="7.008610395714641">
        <ele>1662.74</ele>
        <time>2014-07-14T08:16:06Z</time>
      </trkpt>
      <trkpt lat="46.030198931694031" lon="7.008514422923327">
        <ele>1662.74</ele>
        <time>2014-07-14T08:16:20Z</time>
      </trkpt>
      <trkpt lat="46.030179066583514" lon="7.008471172302961">
        <ele>1664.1800000000001</ele>
        <time>2014-07-14T08:16:35Z</time>
      </trkpt>
      <trkpt lat="46.030215192586184" lon="7.008410822600126">
        <ele>1666.0999999999999</ele>
        <time>2014-07-14T08:16:46Z</time>
      </trkpt>
      <trkpt lat="46.030193231999874" lon="7.008322393521667">
        <ele>1668.02</ele>
        <time>2014-07-14T08:17:01Z</time>
      </trkpt>
      <trkpt lat="46.030232543125749" lon="7.008213428780437">
        <ele>1669.95</ele>
        <time>2014-07-14T08:17:15Z</time>
      </trkpt>
      <trkpt lat="46.030228771269321" lon="7.008191635832191">
        <ele>1669.95</ele>
        <time>2014-07-14T08:17:18Z</time>
      </trkpt>
      <trkpt lat="46.030261879786849" lon="7.00805090367794">
        <ele>1670.9100000000001</ele>
        <time>2014-07-14T08:17:32Z</time>
      </trkpt>
      <trkpt lat="46.030277302488685" lon="7.007942022755742">
        <ele>1669.95</ele>
        <time>2014-07-14T08:17:47Z</time>
      </trkpt>
      <trkpt lat="46.030278727412224" lon="7.007922409102321">
        <ele>1671.8699999999999</ele>
        <time>2014-07-14T08:17:50Z</time>
      </trkpt>
      <trkpt lat="46.030344106256962" lon="7.007796345278621">
        <ele>1674.75</ele>
        <time>2014-07-14T08:18:08Z</time>
      </trkpt>
      <trkpt lat="46.03031468577683" lon="7.007778827100992">
        <ele>1675.72</ele>
        <time>2014-07-14T08:18:22Z</time>
      </trkpt>
      <trkpt lat="46.030271099880338" lon="7.007883517071605">
        <ele>1678.1199999999999</ele>
        <time>2014-07-14T08:18:39Z</time>
      </trkpt>
      <trkpt lat="46.030200272798538" lon="7.007944956421852">
        <ele>1680.04</ele>
        <time>2014-07-14T08:18:55Z</time>
      </trkpt>
      <trkpt lat="46.030148891732097" lon="7.007960714399815">
        <ele>1683.4100000000001</ele>
        <time>2014-07-14T08:19:06Z</time>
      </trkpt>
      <trkpt lat="46.030146209523082" lon="7.007957864552736">
        <ele>1681.96</ele>
        <time>2014-07-14T08:19:07Z</time>
      </trkpt>
      <trkpt lat="46.030091475695372" lon="7.00799273326993">
        <ele>1683.4100000000001</ele>
        <time>2014-07-14T08:19:26Z</time>
      </trkpt>
      <trkpt lat="46.030032383278012" lon="7.008068505674601">
        <ele>1685.8099999999999</ele>
        <time>2014-07-14T08:19:42Z</time>
      </trkpt>
      <trkpt lat="46.029970860108733" lon="7.008125670254231">
        <ele>1687.25</ele>
        <time>2014-07-14T08:19:57Z</time>
      </trkpt>
      <trkpt lat="46.029953509569168" lon="7.008149726316333">
        <ele>1687.73</ele>
        <time>2014-07-14T08:20:02Z</time>
      </trkpt>
      <trkpt lat="46.029924256727099" lon="7.008184678852558">
        <ele>1689.1700000000001</ele>
        <time>2014-07-14T08:20:09Z</time>
      </trkpt>
      <trkpt lat="46.029886621981859" lon="7.008189456537366">
        <ele>1688.21</ele>
        <time>2014-07-14T08:20:26Z</time>
      </trkpt>
      <trkpt lat="46.029831049963832" lon="7.00824486091733">
        <ele>1690.1400000000001</ele>
        <time>2014-07-14T08:20:38Z</time>
      </trkpt>
      <trkpt lat="46.029774891212583" lon="7.008281154558063">
        <ele>1692.0599999999999</ele>
        <time>2014-07-14T08:20:52Z</time>
      </trkpt>
      <trkpt lat="46.029726779088378" lon="7.008309317752719">
        <ele>1693.5</ele>
        <time>2014-07-14T08:21:05Z</time>
      </trkpt>
      <trkpt lat="46.029695011675358" lon="7.008354077115655">
        <ele>1695.4200000000001</ele>
        <time>2014-07-14T08:21:19Z</time>
      </trkpt>
      <trkpt lat="46.029651174321771" lon="7.008379558101296">
        <ele>1696.8599999999999</ele>
        <time>2014-07-14T08:21:32Z</time>
      </trkpt>
      <trkpt lat="46.029611276462674" lon="7.008404117077589">
        <ele>1698.79</ele>
        <time>2014-07-14T08:21:45Z</time>
      </trkpt>
      <trkpt lat="46.029581604525447" lon="7.008443931117654">
        <ele>1699.27</ele>
        <time>2014-07-14T08:22:00Z</time>
      </trkpt>
      <trkpt lat="46.029551094397902" lon="7.008475111797452">
        <ele>1702.6300000000001</ele>
        <time>2014-07-14T08:22:10Z</time>
      </trkpt>
      <trkpt lat="46.029522679746151" lon="7.008527498692274">
        <ele>1701.6700000000001</ele>
        <time>2014-07-14T08:22:24Z</time>
      </trkpt>
      <trkpt lat="46.029468784108758" lon="7.008567564189434">
        <ele>1702.6300000000001</ele>
        <time>2014-07-14T08:22:38Z</time>
      </trkpt>
      <trkpt lat="46.029414385557175" lon="7.008573096245527">
        <ele>1704.55</ele>
        <time>2014-07-14T08:22:53Z</time>
      </trkpt>
      <trkpt lat="46.029370632022619" lon="7.00864065438509">
        <ele>1706.48</ele>
        <time>2014-07-14T08:23:08Z</time>
      </trkpt>
      <trkpt lat="46.029312713071704" lon="7.008662531152368">
        <ele>1707.9200000000001</ele>
        <time>2014-07-14T08:23:22Z</time>
      </trkpt>
      <trkpt lat="46.029256721958518" lon="7.008683066815138">
        <ele>1708.8800000000001</ele>
        <time>2014-07-14T08:23:36Z</time>
      </trkpt>
      <trkpt lat="46.029226630926132" lon="7.008708212524653">
        <ele>1710.8</ele>
        <time>2014-07-14T08:23:54Z</time>
      </trkpt>
      <trkpt lat="46.029155300930142" lon="7.008747272193432">
        <ele>1713.21</ele>
        <time>2014-07-14T08:24:15Z</time>
      </trkpt>
      <trkpt lat="46.029089419171214" lon="7.008757079020143">
        <ele>1715.1300000000001</ele>
        <time>2014-07-14T08:24:32Z</time>
      </trkpt>
      <trkpt lat="46.029054718092084" lon="7.00885858386755">
        <ele>1717.53</ele>
        <time>2014-07-14T08:24:48Z</time>
      </trkpt>
      <trkpt lat="46.028974251821637" lon="7.00885908678174">
        <ele>1719.46</ele>
        <time>2014-07-14T08:25:05Z</time>
      </trkpt>
      <trkpt lat="46.028929492458701" lon="7.008879538625479">
        <ele>1721.3800000000001</ele>
        <time>2014-07-14T08:25:21Z</time>
      </trkpt>
      <trkpt lat="46.028910716995597" lon="7.008976684883237">
        <ele>1722.3399999999999</ele>
        <time>2014-07-14T08:25:37Z</time>
      </trkpt>
      <trkpt lat="46.028842823579907" lon="7.009034855291247">
        <ele>1723.78</ele>
        <time>2014-07-14T08:25:55Z</time>
      </trkpt>
      <trkpt lat="46.028805775567889" lon="7.008994370698929">
        <ele>1725.7</ele>
        <time>2014-07-14T08:26:11Z</time>
      </trkpt>
      <trkpt lat="46.028802338987589" lon="7.008907701820135">
        <ele>1727.6300000000001</ele>
        <time>2014-07-14T08:26:25Z</time>
      </trkpt>
      <trkpt lat="46.028825137764215" lon="7.008822709321976">
        <ele>1728.1099999999999</ele>
        <time>2014-07-14T08:26:41Z</time>
      </trkpt>
      <trkpt lat="46.028834106400609" lon="7.008766299113631">
        <ele>1729.55</ele>
        <time>2014-07-14T08:26:56Z</time>
      </trkpt>
      <trkpt lat="46.028858162462711" lon="7.008806532248855">
        <ele>1732.4300000000001</ele>
        <time>2014-07-14T08:27:15Z</time>
      </trkpt>
      <trkpt lat="46.028847768902779" lon="7.00885665602982">
        <ele>1732.4300000000001</ele>
        <time>2014-07-14T08:27:19Z</time>
      </trkpt>
      <trkpt lat="46.02878188714385" lon="7.008923962712288">
        <ele>1733.8800000000001</ele>
        <time>2014-07-14T08:27:34Z</time>
      </trkpt>
      <trkpt lat="46.02871298789978" lon="7.00894458219409">
        <ele>1735.8</ele>
        <time>2014-07-14T08:27:51Z</time>
      </trkpt>
      <trkpt lat="46.028661942109466" lon="7.009010966867209">
        <ele>1738.2</ele>
        <time>2014-07-14T08:28:11Z</time>
      </trkpt>
      <trkpt lat="46.028618104755878" lon="7.009015409275889">
        <ele>1739.6400000000001</ele>
        <time>2014-07-14T08:28:29Z</time>
      </trkpt>
      <trkpt lat="46.028532106429338" lon="7.009095540270209">
        <ele>1741.5699999999999</ele>
        <time>2014-07-14T08:28:46Z</time>
      </trkpt>
      <trkpt lat="46.02852632291615" lon="7.009104425087571">
        <ele>1741.5699999999999</ele>
        <time>2014-07-14T08:28:48Z</time>
      </trkpt>
      <trkpt lat="46.028515510261059" lon="7.009117165580392">
        <ele>1741.5699999999999</ele>
        <time>2014-07-14T08:28:51Z</time>
      </trkpt>
      <trkpt lat="46.028484497219324" lon="7.009182376787067">
        <ele>1743.01</ele>
        <time>2014-07-14T08:29:04Z</time>
      </trkpt>
      <trkpt lat="46.028387183323503" lon="7.009271308779717">
        <ele>1744.45</ele>
        <time>2014-07-14T08:29:19Z</time>
      </trkpt>
      <trkpt lat="46.028329348191619" lon="7.009364934638143">
        <ele>1744.9300000000001</ele>
        <time>2014-07-14T08:29:34Z</time>
      </trkpt>
      <trkpt lat="46.028244439512491" lon="7.009455375373364">
        <ele>1746.8499999999999</ele>
        <time>2014-07-14T08:29:49Z</time>
      </trkpt>
      <trkpt lat="46.028199261054397" lon="7.009499380365014">
        <ele>1747.8099999999999</ele>
        <time>2014-07-14T08:30:02Z</time>
      </trkpt>
      <trkpt lat="46.028158022090793" lon="7.009592251852155">
        <ele>1749.26</ele>
        <time>2014-07-14T08:30:18Z</time>
      </trkpt>
      <trkpt lat="46.028141090646386" lon="7.009659223258495">
        <ele>1749.74</ele>
        <time>2014-07-14T08:30:30Z</time>
      </trkpt>
      <trkpt lat="46.028082249686122" lon="7.009710017591715">
        <ele>1751.6600000000001</ele>
        <time>2014-07-14T08:30:47Z</time>
      </trkpt>
      <trkpt lat="46.028018882498145" lon="7.009786544367671">
        <ele>1752.1400000000001</ele>
        <time>2014-07-14T08:30:59Z</time>
      </trkpt>
      <trkpt lat="46.027954006567597" lon="7.009895090013742">
        <ele>1754.0599999999999</ele>
        <time>2014-07-14T08:31:16Z</time>
      </trkpt>
      <trkpt lat="46.027910085394979" lon="7.009983519092202">
        <ele>1755.02</ele>
        <time>2014-07-14T08:31:31Z</time>
      </trkpt>
      <trkpt lat="46.02786130271852" lon="7.010034061968327">
        <ele>1755.99</ele>
        <time>2014-07-14T08:31:45Z</time>
      </trkpt>
      <trkpt lat="46.027788799256086" lon="7.010135063901544">
        <ele>1757.4300000000001</ele>
        <time>2014-07-14T08:31:58Z</time>
      </trkpt>
      <trkpt lat="46.02768394164741" lon="7.010237239301205">
        <ele>1758.8699999999999</ele>
        <time>2014-07-14T08:32:14Z</time>
      </trkpt>
      <trkpt lat="46.027653515338898" lon="7.010297002270818">
        <ele>1759.3499999999999</ele>
        <time>2014-07-14T08:32:29Z</time>
      </trkpt>
      <trkpt lat="46.027649156749249" lon="7.010304545983672">
        <ele>1759.3499999999999</ele>
        <time>2014-07-14T08:32:30Z</time>
      </trkpt>
      <trkpt lat="46.027587298303843" lon="7.010347964242101">
        <ele>1760.3099999999999</ele>
        <time>2014-07-14T08:32:46Z</time>
      </trkpt>
      <trkpt lat="46.027545891702175" lon="7.010366739705205">
        <ele>1761.27</ele>
        <time>2014-07-14T08:32:58Z</time>
      </trkpt>
      <trkpt lat="46.027493672445416" lon="7.010452402755618">
        <ele>1761.75</ele>
        <time>2014-07-14T08:33:12Z</time>
      </trkpt>
      <trkpt lat="46.027434160932899" lon="7.010531947016716">
        <ele>1763.2</ele>
        <time>2014-07-14T08:33:26Z</time>
      </trkpt>
      <trkpt lat="46.027360986918211" lon="7.010565306991339">
        <ele>1764.6400000000001</ele>
        <time>2014-07-14T08:33:38Z</time>
      </trkpt>
      <trkpt lat="46.027317736297846" lon="7.010638313367963">
        <ele>1765.5999999999999</ele>
        <time>2014-07-14T08:33:54Z</time>
      </trkpt>
      <trkpt lat="46.027225451543927" lon="7.010702770203352">
        <ele>1766.5599999999999</ele>
        <time>2014-07-14T08:34:10Z</time>
      </trkpt>
      <trkpt lat="46.027160491794348" lon="7.010707883164287">
        <ele>1768.48</ele>
        <time>2014-07-14T08:34:27Z</time>
      </trkpt>
      <trkpt lat="46.027091341093183" lon="7.010791199281812">
        <ele>1770.4100000000001</ele>
        <time>2014-07-14T08:34:42Z</time>
      </trkpt>
      <trkpt lat="46.027032248675823" lon="7.010821038857102">
        <ele>1771.8499999999999</ele>
        <time>2014-07-14T08:34:56Z</time>
      </trkpt>
      <trkpt lat="46.026973659172654" lon="7.01094601303339">
        <ele>1773.77</ele>
        <time>2014-07-14T08:35:15Z</time>
      </trkpt>
      <trkpt lat="46.026940383017063" lon="7.011014577001333">
        <ele>1774.73</ele>
        <time>2014-07-14T08:35:33Z</time>
      </trkpt>
      <trkpt lat="46.026909118518233" lon="7.01109454035759">
        <ele>1776.6500000000001</ele>
        <time>2014-07-14T08:35:44Z</time>
      </trkpt>
      <trkpt lat="46.026952788233757" lon="7.011173330247402">
        <ele>1779.0599999999999</ele>
        <time>2014-07-14T08:36:00Z</time>
      </trkpt>
      <trkpt lat="46.026983382180333" lon="7.011246923357248">
        <ele>1780.5</ele>
        <time>2014-07-14T08:36:16Z</time>
      </trkpt>
      <trkpt lat="46.026843907311559" lon="7.011335017159581">
        <ele>1782.4200000000001</ele>
        <time>2014-07-14T08:36:31Z</time>
      </trkpt>
      <trkpt lat="46.026732511818409" lon="7.011392014101148">
        <ele>1783.8599999999999</ele>
        <time>2014-07-14T08:36:44Z</time>
      </trkpt>
      <trkpt lat="46.026760088279843" lon="7.011375082656741">
        <ele>1782.9000000000001</ele>
        <time>2014-07-14T08:37:00Z</time>
      </trkpt>
      <trkpt lat="46.026762435212731" lon="7.011411711573601">
        <ele>1783.3800000000001</ele>
        <time>2014-07-14T08:37:24Z</time>
      </trkpt>
      <trkpt lat="46.026804093271494" lon="7.011349182575941">
        <ele>1783.3800000000001</ele>
        <time>2014-07-14T08:38:05Z</time>
      </trkpt>
      <trkpt lat="46.026808619499207" lon="7.011411543935537">
        <ele>1783.8599999999999</ele>
        <time>2014-07-14T08:38:12Z</time>
      </trkpt>
      <trkpt lat="46.026640729978681" lon="7.011486813426018">
        <ele>1783.8599999999999</ele>
        <time>2014-07-14T08:38:29Z</time>
      </trkpt>
      <trkpt lat="46.02658205665648" lon="7.011570381000638">
        <ele>1784.3399999999999</ele>
        <time>2014-07-14T08:38:51Z</time>
      </trkpt>
      <trkpt lat="46.026605693623424" lon="7.011624025180936">
        <ele>1783.8599999999999</ele>
        <time>2014-07-14T08:39:11Z</time>
      </trkpt>
      <trkpt lat="46.026502931490541" lon="7.011710610240698">
        <ele>1784.3399999999999</ele>
        <time>2014-07-14T08:39:33Z</time>
      </trkpt>
      <trkpt lat="46.026528663933277" lon="7.011746065691114">
        <ele>1784.8199999999999</ele>
        <time>2014-07-14T08:39:53Z</time>
      </trkpt>
      <trkpt lat="46.026481054723263" lon="7.011845726519823">
        <ele>1785.3099999999999</ele>
        <time>2014-07-14T08:40:18Z</time>
      </trkpt>
      <trkpt lat="46.026516342535615" lon="7.011815719306469">
        <ele>1784.8199999999999</ele>
        <time>2014-07-14T08:40:40Z</time>
      </trkpt>
      <trkpt lat="46.026406371966004" lon="7.011855281889439">
        <ele>1785.3099999999999</ele>
        <time>2014-07-14T08:40:53Z</time>
      </trkpt>
      <trkpt lat="46.02632456459105" lon="7.011823430657387">
        <ele>1787.71</ele>
        <time>2014-07-14T08:41:06Z</time>
      </trkpt>
      <trkpt lat="46.026226161047816" lon="7.011766685172916">
        <ele>1790.1099999999999</ele>
        <time>2014-07-14T08:41:21Z</time>
      </trkpt>
      <trkpt lat="46.026185005903244" lon="7.011675490066409">
        <ele>1793</ele>
        <time>2014-07-14T08:41:34Z</time>
      </trkpt>
      <trkpt lat="46.026157848536968" lon="7.011603824794292">
        <ele>1795.4000000000001</ele>
        <time>2014-07-14T08:41:49Z</time>
      </trkpt>
      <trkpt lat="46.026202356442809" lon="7.01159686781466">
        <ele>1797.8</ele>
        <time>2014-07-14T08:42:01Z</time>
      </trkpt>
      <trkpt lat="46.026231357827783" lon="7.011427469551563">
        <ele>1799.24</ele>
        <time>2014-07-14T08:42:16Z</time>
      </trkpt>
      <trkpt lat="46.026253402233124" lon="7.011404922232032">
        <ele>1800.6900000000001</ele>
        <time>2014-07-14T08:42:30Z</time>
      </trkpt>
      <trkpt lat="46.026242338120937" lon="7.011337364092469">
        <ele>1803.0899999999999</ele>
        <time>2014-07-14T08:42:44Z</time>
      </trkpt>
      <trkpt lat="46.026190873235464" lon="7.011337196454406">
        <ele>1805.49</ele>
        <time>2014-07-14T08:43:00Z</time>
      </trkpt>
      <trkpt lat="46.026128511875868" lon="7.011298388242722">
        <ele>1807.4200000000001</ele>
        <time>2014-07-14T08:43:14Z</time>
      </trkpt>
      <trkpt lat="46.026208056136966" lon="7.011204091832042">
        <ele>1809.8199999999999</ele>
        <time>2014-07-14T08:43:29Z</time>
      </trkpt>
      <trkpt lat="46.026224819943309" lon="7.011234434321523">
        <ele>1811.74</ele>
        <time>2014-07-14T08:43:41Z</time>
      </trkpt>
      <trkpt lat="46.026153992861509" lon="7.011222532019019">
        <ele>1813.6600000000001</ele>
        <time>2014-07-14T08:43:58Z</time>
      </trkpt>
      <trkpt lat="46.026139240711927" lon="7.011211635544896">
        <ele>1814.1500000000001</ele>
        <time>2014-07-14T08:44:25Z</time>
      </trkpt>
      <trkpt lat="46.026060953736305" lon="7.011226387694478">
        <ele>1816.55</ele>
        <time>2014-07-14T08:44:42Z</time>
      </trkpt>
      <trkpt lat="46.025982331484556" lon="7.011188920587301">
        <ele>1819.4300000000001</ele>
        <time>2014-07-14T08:44:58Z</time>
      </trkpt>
      <trkpt lat="46.025909408926964" lon="7.011177353560925">
        <ele>1821.8399999999999</ele>
        <time>2014-07-14T08:45:13Z</time>
      </trkpt>
      <trkpt lat="46.025851909071207" lon="7.011129073798657">
        <ele>1823.76</ele>
        <time>2014-07-14T08:45:28Z</time>
      </trkpt>
      <trkpt lat="46.02578753605485" lon="7.011077776551247">
        <ele>1825.6800000000001</ele>
        <time>2014-07-14T08:45:41Z</time>
      </trkpt>
      <trkpt lat="46.025781836360693" lon="7.011053385213018">
        <ele>1826.6400000000001</ele>
        <time>2014-07-14T08:45:54Z</time>
      </trkpt>
      <trkpt lat="46.025842688977718" lon="7.011033017188311">
        <ele>1828.5599999999999</ele>
        <time>2014-07-14T08:46:08Z</time>
      </trkpt>
      <trkpt lat="46.025911588221788" lon="7.010948862880468">
        <ele>1830.97</ele>
        <time>2014-07-14T08:46:23Z</time>
      </trkpt>
      <trkpt lat="46.025904463604093" lon="7.010953892022371">
        <ele>1832.8900000000001</ele>
        <time>2014-07-14T08:46:34Z</time>
      </trkpt>
      <trkpt lat="46.025844868272543" lon="7.010895637795329">
        <ele>1835.77</ele>
        <time>2014-07-14T08:46:50Z</time>
      </trkpt>
      <trkpt lat="46.025795917958021" lon="7.010867977514863">
        <ele>1838.1800000000001</ele>
        <time>2014-07-14T08:47:04Z</time>
      </trkpt>
      <trkpt lat="46.025718469172716" lon="7.010881304740906">
        <ele>1840.5799999999999</ele>
        <time>2014-07-14T08:47:19Z</time>
      </trkpt>
      <trkpt lat="46.025737496092916" lon="7.010818859562278">
        <ele>1843.47</ele>
        <time>2014-07-14T08:47:35Z</time>
      </trkpt>
      <trkpt lat="46.025754176080227" lon="7.010761359706521">
        <ele>1846.3499999999999</ele>
        <time>2014-07-14T08:47:51Z</time>
      </trkpt>
      <trkpt lat="46.025732215493917" lon="7.010779045522213">
        <ele>1847.3099999999999</ele>
        <time>2014-07-14T08:48:08Z</time>
      </trkpt>
      <trkpt lat="46.025667088106275" lon="7.010722383856773">
        <ele>1850.1900000000001</ele>
        <time>2014-07-14T08:48:22Z</time>
      </trkpt>
      <trkpt lat="46.025677900761366" lon="7.010635463520885">
        <ele>1851.1600000000001</ele>
        <time>2014-07-14T08:48:39Z</time>
      </trkpt>
      <trkpt lat="46.025577988475561" lon="7.010589363053441">
        <ele>1854.04</ele>
        <time>2014-07-14T08:48:54Z</time>
      </trkpt>
      <trkpt lat="46.025531468912959" lon="7.010525325313211">
        <ele>1856.4400000000001</ele>
        <time>2014-07-14T08:49:08Z</time>
      </trkpt>
      <trkpt lat="46.02546994574368" lon="7.010448295623064">
        <ele>1858.8499999999999</ele>
        <time>2014-07-14T08:49:23Z</time>
      </trkpt>
      <trkpt lat="46.025404818356037" lon="7.010383838787675">
        <ele>1860.77</ele>
        <time>2014-07-14T08:49:37Z</time>
      </trkpt>
      <trkpt lat="46.025370955467224" lon="7.010353328660131">
        <ele>1861.25</ele>
        <time>2014-07-14T08:49:57Z</time>
      </trkpt>
      <trkpt lat="46.025340110063553" lon="7.01019206084311">
        <ele>1862.21</ele>
        <time>2014-07-14T08:50:12Z</time>
      </trkpt>
      <trkpt lat="46.025355197489262" lon="7.010201783850789">
        <ele>1863.6500000000001</ele>
        <time>2014-07-14T08:50:27Z</time>
      </trkpt>
      <trkpt lat="46.025371877476573" lon="7.01019792817533">
        <ele>1862.21</ele>
        <time>2014-07-14T08:50:43Z</time>
      </trkpt>
      <trkpt lat="46.025393335148692" lon="7.010143529623747">
        <ele>1862.21</ele>
        <time>2014-07-14T08:51:07Z</time>
      </trkpt>
      <trkpt lat="46.025360813364387" lon="7.01013682410121">
        <ele>1862.21</ele>
        <time>2014-07-14T08:51:31Z</time>
      </trkpt>
      <trkpt lat="46.025312282145023" lon="7.010072786360979">
        <ele>1864.6099999999999</ele>
        <time>2014-07-14T08:51:45Z</time>
      </trkpt>
      <trkpt lat="46.025235923007131" lon="7.009994583204389">
        <ele>1866.0599999999999</ele>
        <time>2014-07-14T08:51:58Z</time>
      </trkpt>
      <trkpt lat="46.025162748992443" lon="7.009860388934612">
        <ele>1869.4200000000001</ele>
        <time>2014-07-14T08:52:14Z</time>
      </trkpt>
      <trkpt lat="46.025100303813815" lon="7.009763577952981">
        <ele>1872.3</ele>
        <time>2014-07-14T08:52:28Z</time>
      </trkpt>
      <trkpt lat="46.025032242760062" lon="7.009695433080196">
        <ele>1873.75</ele>
        <time>2014-07-14T08:52:42Z</time>
      </trkpt>
      <trkpt lat="46.024950351566076" lon="7.009646398946643">
        <ele>1875.1900000000001</ele>
        <time>2014-07-14T08:52:55Z</time>
      </trkpt>
      <trkpt lat="46.02487726137042" lon="7.009603483602405">
        <ele>1878.0699999999999</ele>
        <time>2014-07-14T08:53:09Z</time>
      </trkpt>
      <trkpt lat="46.024789167568088" lon="7.009549839422107">
        <ele>1880</ele>
        <time>2014-07-14T08:53:24Z</time>
      </trkpt>
      <trkpt lat="46.024739379063249" lon="7.009517904371023">
        <ele>1881.4400000000001</ele>
        <time>2014-07-14T08:53:39Z</time>
      </trkpt>
      <trkpt lat="46.024651620537043" lon="7.009490914642811">
        <ele>1883.8399999999999</ele>
        <time>2014-07-14T08:53:56Z</time>
      </trkpt>
      <trkpt lat="46.024685399606824" lon="7.00942000374198">
        <ele>1885.28</ele>
        <time>2014-07-14T08:54:07Z</time>
      </trkpt>
      <trkpt lat="46.024741306900978" lon="7.009378848597407">
        <ele>1887.21</ele>
        <time>2014-07-14T08:54:21Z</time>
      </trkpt>
      <trkpt lat="46.024762094020844" lon="7.009371304884553">
        <ele>1887.21</ele>
        <time>2014-07-14T08:54:46Z</time>
      </trkpt>
      <trkpt lat="46.024763518944383" lon="7.009322103112936">
        <ele>1888.6500000000001</ele>
        <time>2014-07-14T08:55:00Z</time>
      </trkpt>
      <trkpt lat="46.024725465103984" lon="7.009288324043155">
        <ele>1890.5699999999999</ele>
        <time>2014-07-14T08:55:14Z</time>
      </trkpt>
      <trkpt lat="46.024719346314669" lon="7.009292598813772">
        <ele>1891.05</ele>
        <time>2014-07-14T08:55:15Z</time>
      </trkpt>
      <trkpt lat="46.024644579738379" lon="7.009254293516278">
        <ele>1892.97</ele>
        <time>2014-07-14T08:55:28Z</time>
      </trkpt>
      <trkpt lat="46.024547852575779" lon="7.009193859994412">
        <ele>1895.8599999999999</ele>
        <time>2014-07-14T08:55:44Z</time>
      </trkpt>
      <trkpt lat="46.024476271122694" lon="7.009138958528638">
        <ele>1898.26</ele>
        <time>2014-07-14T08:55:58Z</time>
      </trkpt>
      <trkpt lat="46.024411981925368" lon="7.009054888039827">
        <ele>1900.1800000000001</ele>
        <time>2014-07-14T08:56:12Z</time>
      </trkpt>
      <trkpt lat="46.024361941963434" lon="7.008995627984405">
        <ele>1901.6300000000001</ele>
        <time>2014-07-14T08:56:24Z</time>
      </trkpt>
      <trkpt lat="46.024315757676959" lon="7.008899236097932">
        <ele>1904.03</ele>
        <time>2014-07-14T08:56:37Z</time>
      </trkpt>
      <trkpt lat="46.024260520935059" lon="7.00884978286922">
        <ele>1905.95</ele>
        <time>2014-07-14T08:56:49Z</time>
      </trkpt>
      <trkpt lat="46.024172259494662" lon="7.00876914896071">
        <ele>1908.3499999999999</ele>
        <time>2014-07-14T08:57:05Z</time>
      </trkpt>
      <trkpt lat="46.024174690246582" lon="7.008730173110962">
        <ele>1910.76</ele>
        <time>2014-07-14T08:57:18Z</time>
      </trkpt>
      <trkpt lat="46.024208217859268" lon="7.008754312992096">
        <ele>1910.76</ele>
        <time>2014-07-14T08:57:35Z</time>
      </trkpt>
      <trkpt lat="46.024225652217865" lon="7.008732603862882">
        <ele>1911.72</ele>
        <time>2014-07-14T08:57:39Z</time>
      </trkpt>
      <trkpt lat="46.024319194257259" lon="7.008724389597774">
        <ele>1913.1600000000001</ele>
        <time>2014-07-14T08:57:53Z</time>
      </trkpt>
      <trkpt lat="46.024404186755419" lon="7.008744087070227">
        <ele>1915.0799999999999</ele>
        <time>2014-07-14T08:58:08Z</time>
      </trkpt>
      <trkpt lat="46.024512397125363" lon="7.008782224729657">
        <ele>1917.49</ele>
        <time>2014-07-14T08:58:27Z</time>
      </trkpt>
      <trkpt lat="46.024546176195145" lon="7.00874961912632">
        <ele>1919.8900000000001</ele>
        <time>2014-07-14T08:58:42Z</time>
      </trkpt>
      <trkpt lat="46.024505272507668" lon="7.008696561679244">
        <ele>1920.3699999999999</ele>
        <time>2014-07-14T08:59:10Z</time>
      </trkpt>
      <trkpt lat="46.02449563331902" lon="7.008696729317308">
        <ele>1921.8099999999999</ele>
        <time>2014-07-14T08:59:37Z</time>
      </trkpt>
      <trkpt lat="46.02441692724824" lon="7.00860008597374">
        <ele>1924.22</ele>
        <time>2014-07-14T08:59:52Z</time>
      </trkpt>
      <trkpt lat="46.024352554231882" lon="7.008544765412808">
        <ele>1927.0999999999999</ele>
        <time>2014-07-14T09:00:07Z</time>
      </trkpt>
      <trkpt lat="46.024307459592819" lon="7.008565720170736">
        <ele>1927.5799999999999</ele>
        <time>2014-07-14T09:00:13Z</time>
      </trkpt>
      <trkpt lat="46.024227496236563" lon="7.008480140939355">
        <ele>1930.46</ele>
        <time>2014-07-14T09:00:28Z</time>
      </trkpt>
      <trkpt lat="46.024134960025549" lon="7.008492210879922">
        <ele>1932.3900000000001</ele>
        <time>2014-07-14T09:00:44Z</time>
      </trkpt>
      <trkpt lat="46.024031946435571" lon="7.008530348539352">
        <ele>1935.27</ele>
        <time>2014-07-14T09:01:00Z</time>
      </trkpt>
      <trkpt lat="46.023934548720717" lon="7.008480811491609">
        <ele>1938.1600000000001</ele>
        <time>2014-07-14T09:01:18Z</time>
      </trkpt>
      <trkpt lat="46.023889118805528" lon="7.008467400446534">
        <ele>1940.0799999999999</ele>
        <time>2014-07-14T09:01:31Z</time>
      </trkpt>
      <trkpt lat="46.023820219561458" lon="7.00854049064219">
        <ele>1941.52</ele>
        <time>2014-07-14T09:01:44Z</time>
      </trkpt>
      <trkpt lat="46.023792391642928" lon="7.008511237800121">
        <ele>1943.4400000000001</ele>
        <time>2014-07-14T09:01:59Z</time>
      </trkpt>
      <trkpt lat="46.023717792704701" lon="7.00856052339077">
        <ele>1945.3599999999999</ele>
        <time>2014-07-14T09:02:13Z</time>
      </trkpt>
      <trkpt lat="46.02372114546597" lon="7.008458934724331">
        <ele>1946.8099999999999</ele>
        <time>2014-07-14T09:02:23Z</time>
      </trkpt>
      <trkpt lat="46.023760959506035" lon="7.008361285552383">
        <ele>1948.73</ele>
        <time>2014-07-14T09:02:38Z</time>
      </trkpt>
      <trkpt lat="46.023810328915715" lon="7.008290374651551">
        <ele>1949.21</ele>
        <time>2014-07-14T09:02:52Z</time>
      </trkpt>
      <trkpt lat="46.023834887892008" lon="7.008197586983442">
        <ele>1951.6099999999999</ele>
        <time>2014-07-14T09:03:06Z</time>
      </trkpt>
      <trkpt lat="46.023887107148767" lon="7.008134387433529">
        <ele>1952.5699999999999</ele>
        <time>2014-07-14T09:03:20Z</time>
      </trkpt>
      <trkpt lat="46.02383061312139" lon="7.008183756843209">
        <ele>1954.02</ele>
        <time>2014-07-14T09:03:36Z</time>
      </trkpt>
      <trkpt lat="46.023797588422894" lon="7.008221307769418">
        <ele>1954.98</ele>
        <time>2014-07-14T09:04:02Z</time>
      </trkpt>
      <trkpt lat="46.023765737190843" lon="7.008243603631854">
        <ele>1955.46</ele>
        <time>2014-07-14T09:04:05Z</time>
      </trkpt>
      <trkpt lat="46.023671943694353" lon="7.008236898109317">
        <ele>1957.3800000000001</ele>
        <time>2014-07-14T09:04:20Z</time>
      </trkpt>
      <trkpt lat="46.023731203749776" lon="7.008114606142044">
        <ele>1960.75</ele>
        <time>2014-07-14T09:04:35Z</time>
      </trkpt>
      <trkpt lat="46.023769341409206" lon="7.008006563410163">
        <ele>1961.71</ele>
        <time>2014-07-14T09:04:49Z</time>
      </trkpt>
      <trkpt lat="46.023693569004536" lon="7.008048472926021">
        <ele>1964.1099999999999</ele>
        <time>2014-07-14T09:05:04Z</time>
      </trkpt>
      <trkpt lat="46.023607570677996" lon="7.008077725768089">
        <ele>1966.51</ele>
        <time>2014-07-14T09:05:20Z</time>
      </trkpt>
      <trkpt lat="46.023614024743438" lon="7.007993990555406">
        <ele>1967.96</ele>
        <time>2014-07-14T09:05:36Z</time>
      </trkpt>
      <trkpt lat="46.023659622296691" lon="7.007945459336042">
        <ele>1969.4000000000001</ele>
        <time>2014-07-14T09:05:52Z</time>
      </trkpt>
      <trkpt lat="46.023637745529413" lon="7.007916541770101">
        <ele>1970.8399999999999</ele>
        <time>2014-07-14T09:06:08Z</time>
      </trkpt>
      <trkpt lat="46.023571779951453" lon="7.007908495143056">
        <ele>1972.76</ele>
        <time>2014-07-14T09:06:24Z</time>
      </trkpt>
      <trkpt lat="46.023481087759137" lon="7.007981250062585">
        <ele>1975.1700000000001</ele>
        <time>2014-07-14T09:06:40Z</time>
      </trkpt>
      <trkpt lat="46.02341135032475" lon="7.007927102968097">
        <ele>1976.1300000000001</ele>
        <time>2014-07-14T09:06:58Z</time>
      </trkpt>
      <trkpt lat="46.023378325626254" lon="7.007887456566095">
        <ele>1977.0899999999999</ele>
        <time>2014-07-14T09:07:14Z</time>
      </trkpt>
      <trkpt lat="46.023318143561482" lon="7.007884439080954">
        <ele>1978.53</ele>
        <time>2014-07-14T09:07:28Z</time>
      </trkpt>
      <trkpt lat="46.0232740547508" lon="7.007808415219188">
        <ele>1979.97</ele>
        <time>2014-07-14T09:07:40Z</time>
      </trkpt>
      <trkpt lat="46.023195935413241" lon="7.007778491824865">
        <ele>1981.4100000000001</ele>
        <time>2014-07-14T09:07:56Z</time>
      </trkpt>
      <trkpt lat="46.023102477192879" lon="7.007724680006504">
        <ele>1982.8599999999999</ele>
        <time>2014-07-14T09:08:12Z</time>
      </trkpt>
      <trkpt lat="46.023128796368837" lon="7.00768050737679">
        <ele>1984.78</ele>
        <time>2014-07-14T09:08:26Z</time>
      </trkpt>
      <trkpt lat="46.023202976211905" lon="7.007634993642569">
        <ele>1986.22</ele>
        <time>2014-07-14T09:08:43Z</time>
      </trkpt>
      <trkpt lat="46.023275898769498" lon="7.007589731365442">
        <ele>1987.1800000000001</ele>
        <time>2014-07-14T09:09:00Z</time>
      </trkpt>
      <trkpt lat="46.023294003680348" lon="7.007579505443573">
        <ele>1991.51</ele>
        <time>2014-07-14T09:09:05Z</time>
      </trkpt>
      <trkpt lat="46.023296266794205" lon="7.007585791870952">
        <ele>1988.1400000000001</ele>
        <time>2014-07-14T09:09:07Z</time>
      </trkpt>
      <trkpt lat="46.023370949551463" lon="7.00756031088531">
        <ele>1990.0699999999999</ele>
        <time>2014-07-14T09:09:23Z</time>
      </trkpt>
      <trkpt lat="46.023437920957804" lon="7.007545726373792">
        <ele>1991.51</ele>
        <time>2014-07-14T09:09:38Z</time>
      </trkpt>
      <trkpt lat="46.02336348965764" lon="7.007533656433225">
        <ele>1993.4300000000001</ele>
        <time>2014-07-14T09:09:52Z</time>
      </trkpt>
      <trkpt lat="46.023310096934438" lon="7.007452771067619">
        <ele>1995.3499999999999</ele>
        <time>2014-07-14T09:10:05Z</time>
      </trkpt>
      <trkpt lat="46.023266008123755" lon="7.007400635629892">
        <ele>1996.8</ele>
        <time>2014-07-14T09:10:18Z</time>
      </trkpt>
      <trkpt lat="46.023204987868667" lon="7.007371550425887">
        <ele>1998.24</ele>
        <time>2014-07-14T09:10:33Z</time>
      </trkpt>
      <trkpt lat="46.023177243769169" lon="7.007391499355435">
        <ele>1998.24</ele>
        <time>2014-07-14T09:10:55Z</time>
      </trkpt>
      <trkpt lat="46.023091580718756" lon="7.007337100803852">
        <ele>2000.6400000000001</ele>
        <time>2014-07-14T09:11:09Z</time>
      </trkpt>
      <trkpt lat="46.023019747808576" lon="7.007295191287994">
        <ele>2002.5599999999999</ele>
        <time>2014-07-14T09:11:22Z</time>
      </trkpt>
      <trkpt lat="46.022943304851651" lon="7.007288737222552">
        <ele>2004.01</ele>
        <time>2014-07-14T09:11:37Z</time>
      </trkpt>
      <trkpt lat="46.022875495254993" lon="7.007260071113706">
        <ele>2005.45</ele>
        <time>2014-07-14T09:11:49Z</time>
      </trkpt>
      <trkpt lat="46.022794861346483" lon="7.007221430540085">
        <ele>2006.8900000000001</ele>
        <time>2014-07-14T09:12:05Z</time>
      </trkpt>
      <trkpt lat="46.022735936567187" lon="7.007094109430909">
        <ele>2008.8099999999999</ele>
        <time>2014-07-14T09:12:20Z</time>
      </trkpt>
      <trkpt lat="46.02263392880559" lon="7.007009871304035">
        <ele>2011.7</ele>
        <time>2014-07-14T09:12:37Z</time>
      </trkpt>
      <trkpt lat="46.022576596587896" lon="7.006996544077992">
        <ele>2012.6600000000001</ele>
        <time>2014-07-14T09:12:52Z</time>
      </trkpt>
      <trkpt lat="46.022526975721121" lon="7.006970727816224">
        <ele>2014.0999999999999</ele>
        <time>2014-07-14T09:13:07Z</time>
      </trkpt>
      <trkpt lat="46.022486910223961" lon="7.006956394761801">
        <ele>2014.5799999999999</ele>
        <time>2014-07-14T09:13:23Z</time>
      </trkpt>
      <trkpt lat="46.022534435614944" lon="7.006881460547447">
        <ele>2016.5</ele>
        <time>2014-07-14T09:13:37Z</time>
      </trkpt>
      <trkpt lat="46.022555558010936" lon="7.006750116124749">
        <ele>2018.4300000000001</ele>
        <time>2014-07-14T09:13:53Z</time>
      </trkpt>
      <trkpt lat="46.022651866078377" lon="7.006755899637938">
        <ele>2019.8699999999999</ele>
        <time>2014-07-14T09:14:06Z</time>
      </trkpt>
      <trkpt lat="46.022707270458341" lon="7.006766209378839">
        <ele>2020.8299999999999</ele>
        <time>2014-07-14T09:14:18Z</time>
      </trkpt>
      <trkpt lat="46.022743480280042" lon="7.006755899637938">
        <ele>2021.79</ele>
        <time>2014-07-14T09:14:31Z</time>
      </trkpt>
      <trkpt lat="46.022752365097404" lon="7.006697142496705">
        <ele>2024.1900000000001</ele>
        <time>2014-07-14T09:14:41Z</time>
      </trkpt>
      <trkpt lat="46.022784719243646" lon="7.00662162154913">
        <ele>2024.1900000000001</ele>
        <time>2014-07-14T09:14:54Z</time>
      </trkpt>
      <trkpt lat="46.022837441414595" lon="7.006598403677344">
        <ele>2025.6400000000001</ele>
        <time>2014-07-14T09:15:07Z</time>
      </trkpt>
      <trkpt lat="46.02291589602828" lon="7.006619106978178">
        <ele>2026.5999999999999</ele>
        <time>2014-07-14T09:15:20Z</time>
      </trkpt>
      <trkpt lat="46.023016311228275" lon="7.006667302921414">
        <ele>2028.04</ele>
        <time>2014-07-14T09:15:37Z</time>
      </trkpt>
      <trkpt lat="46.023017317056656" lon="7.006639558821917">
        <ele>2029.96</ele>
        <time>2014-07-14T09:15:52Z</time>
      </trkpt>
      <trkpt lat="46.022966522723436" lon="7.006565714254975">
        <ele>2031.4000000000001</ele>
        <time>2014-07-14T09:16:06Z</time>
      </trkpt>
      <trkpt lat="46.022916566580534" lon="7.006550962105393">
        <ele>2032.8399999999999</ele>
        <time>2014-07-14T09:16:20Z</time>
      </trkpt>
      <trkpt lat="46.022881614044309" lon="7.006514919921756">
        <ele>2033.3299999999999</ele>
        <time>2014-07-14T09:16:32Z</time>
      </trkpt>
      <trkpt lat="46.022856803610921" lon="7.006476111710072">
        <ele>2036.21</ele>
        <time>2014-07-14T09:16:43Z</time>
      </trkpt>
      <trkpt lat="46.022833669558167" lon="7.006468316540122">
        <ele>2035.25</ele>
        <time>2014-07-14T09:16:58Z</time>
      </trkpt>
      <trkpt lat="46.022774577140808" lon="7.006398076191545">
        <ele>2037.1700000000001</ele>
        <time>2014-07-14T09:17:13Z</time>
      </trkpt>
      <trkpt lat="46.02268329821527" lon="7.006373768672347">
        <ele>2038.1300000000001</ele>
        <time>2014-07-14T09:17:28Z</time>
      </trkpt>
      <trkpt lat="46.022647004574537" lon="7.006314424797893">
        <ele>2039.5699999999999</ele>
        <time>2014-07-14T09:17:40Z</time>
      </trkpt>
      <trkpt lat="46.022589588537812" lon="7.006271174177527">
        <ele>2041.02</ele>
        <time>2014-07-14T09:17:54Z</time>
      </trkpt>
      <trkpt lat="46.022547846660018" lon="7.00621752999723">
        <ele>2041.5</ele>
        <time>2014-07-14T09:18:09Z</time>
      </trkpt>
      <trkpt lat="46.022493280470371" lon="7.006205292418599">
        <ele>2043.4200000000001</ele>
        <time>2014-07-14T09:18:25Z</time>
      </trkpt>
      <trkpt lat="46.022447682917118" lon="7.006102111190558">
        <ele>2044.8599999999999</ele>
        <time>2014-07-14T09:18:40Z</time>
      </trkpt>
      <trkpt lat="46.022389847785234" lon="7.00602114200592">
        <ele>2046.78</ele>
        <time>2014-07-14T09:18:55Z</time>
      </trkpt>
      <trkpt lat="46.022330839186907" lon="7.005938915535808">
        <ele>2048.23</ele>
        <time>2014-07-14T09:19:09Z</time>
      </trkpt>
      <trkpt lat="46.022272752597928" lon="7.005838584154844">
        <ele>2050.1500000000001</ele>
        <time>2014-07-14T09:19:25Z</time>
      </trkpt>
      <trkpt lat="46.022219443693757" lon="7.005763398483396">
        <ele>2052.0700000000002</ele>
        <time>2014-07-14T09:19:41Z</time>
      </trkpt>
      <trkpt lat="46.022151550278068" lon="7.005781922489405">
        <ele>2053.9899999999998</ele>
        <time>2014-07-14T09:19:58Z</time>
      </trkpt>
      <trkpt lat="46.022085249423981" lon="7.005766835063696">
        <ele>2055.4400000000001</ele>
        <time>2014-07-14T09:20:12Z</time>
      </trkpt>
      <trkpt lat="46.02202657610178" lon="7.005764404311776">
        <ele>2056.8800000000001</ele>
        <time>2014-07-14T09:20:30Z</time>
      </trkpt>
      <trkpt lat="46.021973351016641" lon="7.005771193653345">
        <ele>2057.8400000000001</ele>
        <time>2014-07-14T09:20:44Z</time>
      </trkpt>
      <trkpt lat="46.021909480914474" lon="7.005723249167204">
        <ele>2059.2800000000002</ele>
        <time>2014-07-14T09:20:58Z</time>
      </trkpt>
      <trkpt lat="46.021828344091773" lon="7.005627192556858">
        <ele>2061.1999999999998</ele>
        <time>2014-07-14T09:21:14Z</time>
      </trkpt>
      <trkpt lat="46.021790374070406" lon="7.005619062110782">
        <ele>2062.1700000000001</ele>
        <time>2014-07-14T09:21:33Z</time>
      </trkpt>
      <trkpt lat="46.021727761253715" lon="7.005577152594924">
        <ele>2064.0900000000001</ele>
        <time>2014-07-14T09:21:46Z</time>
      </trkpt>
      <trkpt lat="46.021686522290111" lon="7.005525436252356">
        <ele>2066.0100000000002</ele>
        <time>2014-07-14T09:22:03Z</time>
      </trkpt>
      <trkpt lat="46.02176858112216" lon="7.005485203117132">
        <ele>2067.9299999999998</ele>
        <time>2014-07-14T09:22:17Z</time>
      </trkpt>
      <trkpt lat="46.021794062107801" lon="7.005421416833997">
        <ele>2069.3800000000001</ele>
        <time>2014-07-14T09:22:29Z</time>
      </trkpt>
      <trkpt lat="46.021851310506463" lon="7.005326198413968">
        <ele>2071.3000000000002</ele>
        <time>2014-07-14T09:22:44Z</time>
      </trkpt>
      <trkpt lat="46.021912414580584" lon="7.005258556455374">
        <ele>2072.2600000000002</ele>
        <time>2014-07-14T09:22:56Z</time>
      </trkpt>
      <trkpt lat="46.021973518654704" lon="7.005251850932837">
        <ele>2073.6999999999998</ele>
        <time>2014-07-14T09:23:08Z</time>
      </trkpt>
      <trkpt lat="46.02202070876956" lon="7.005266854539514">
        <ele>2074.6599999999999</ele>
        <time>2014-07-14T09:23:27Z</time>
      </trkpt>
      <trkpt lat="46.022061947733164" lon="7.00528965331614">
        <ele>2075.1399999999999</ele>
        <time>2014-07-14T09:23:51Z</time>
      </trkpt>
      <trkpt lat="46.022093547508121" lon="7.005294850096107">
        <ele>2075.6199999999999</ele>
        <time>2014-07-14T09:24:03Z</time>
      </trkpt>
      <trkpt lat="46.022171918302774" lon="7.005302561447024">
        <ele>2078.0300000000002</ele>
        <time>2014-07-14T09:24:16Z</time>
      </trkpt>
      <trkpt lat="46.022256156429648" lon="7.005308764055371">
        <ele>2078.9899999999998</ele>
        <time>2014-07-14T09:24:32Z</time>
      </trkpt>
      <trkpt lat="46.022260179743171" lon="7.005380680784583">
        <ele>2080.4299999999998</ele>
        <time>2014-07-14T09:24:46Z</time>
      </trkpt>
      <trkpt lat="46.022267304360867" lon="7.00539811514318">
        <ele>2081.8699999999999</ele>
        <time>2014-07-14T09:24:48Z</time>
      </trkpt>
      <trkpt lat="46.02230510674417" lon="7.005424769595265">
        <ele>2083.79</ele>
        <time>2014-07-14T09:24:58Z</time>
      </trkpt>
      <trkpt lat="46.022317344322801" lon="7.005557874217629">
        <ele>2086.1999999999998</ele>
        <time>2014-07-14T09:25:13Z</time>
      </trkpt>
      <trkpt lat="46.022316757589579" lon="7.00569617561996">
        <ele>2087.6399999999999</ele>
        <time>2014-07-14T09:25:28Z</time>
      </trkpt>
      <trkpt lat="46.02238180115819" lon="7.005745796486735">
        <ele>2090.52</ele>
        <time>2014-07-14T09:25:43Z</time>
      </trkpt>
      <trkpt lat="46.022478360682726" lon="7.005536668002605">
        <ele>2092.9299999999998</ele>
        <time>2014-07-14T09:25:58Z</time>
      </trkpt>
      <trkpt lat="46.022532423958182" lon="7.005523340776563">
        <ele>2094.8499999999999</ele>
        <time>2014-07-14T09:26:16Z</time>
      </trkpt>
      <trkpt lat="46.022584391757846" lon="7.00556960888207">
        <ele>2095.8099999999999</ele>
        <time>2014-07-14T09:26:25Z</time>
      </trkpt>
      <trkpt lat="46.02265496738255" lon="7.005614954978228">
        <ele>2096.77</ele>
        <time>2014-07-14T09:26:38Z</time>
      </trkpt>
      <trkpt lat="46.022749934345484" lon="7.005618391558528">
        <ele>2098.6999999999998</ele>
        <time>2014-07-14T09:26:53Z</time>
      </trkpt>
      <trkpt lat="46.02280106395483" lon="7.005649153143168">
        <ele>2099.6599999999999</ele>
        <time>2014-07-14T09:27:07Z</time>
      </trkpt>
      <trkpt lat="46.022809948772192" lon="7.00561361387372">
        <ele>2100.1399999999999</ele>
        <time>2014-07-14T09:27:21Z</time>
      </trkpt>
      <trkpt lat="46.022798884660006" lon="7.005576984956861">
        <ele>2100.1399999999999</ele>
        <time>2014-07-14T09:27:26Z</time>
      </trkpt>
      <trkpt lat="46.022786730900407" lon="7.005485286936164">
        <ele>2099.6599999999999</ele>
        <time>2014-07-14T09:27:32Z</time>
      </trkpt>
      <trkpt lat="46.022802572697401" lon="7.005384536460042">
        <ele>2099.6599999999999</ele>
        <time>2014-07-14T09:27:40Z</time>
      </trkpt>
      <trkpt lat="46.022814726457" lon="7.005325946956873">
        <ele>2099.6599999999999</ele>
        <time>2014-07-14T09:27:52Z</time>
      </trkpt>
      <trkpt lat="46.022798717021942" lon="7.005225280299783">
        <ele>2101.5799999999999</ele>
        <time>2014-07-14T09:28:04Z</time>
      </trkpt>
      <trkpt lat="46.022794609889388" lon="7.005159817636013">
        <ele>2103.02</ele>
        <time>2014-07-14T09:28:16Z</time>
      </trkpt>
      <trkpt lat="46.022785138338804" lon="7.005136096850038">
        <ele>2103.5</ele>
        <time>2014-07-14T09:28:20Z</time>
      </trkpt>
      <trkpt lat="46.022780695930123" lon="7.005045656114817">
        <ele>2105.4200000000001</ele>
        <time>2014-07-14T09:28:33Z</time>
      </trkpt>
      <trkpt lat="46.022858312353492" lon="7.005093852058053">
        <ele>2107.8299999999999</ele>
        <time>2014-07-14T09:28:47Z</time>
      </trkpt>
      <trkpt lat="46.022905670106411" lon="7.005101982504129">
        <ele>2108.3099999999999</ele>
        <time>2014-07-14T09:28:59Z</time>
      </trkpt>
      <trkpt lat="46.022962247952819" lon="7.005120003595948">
        <ele>2110.23</ele>
        <time>2014-07-14T09:29:11Z</time>
      </trkpt>
      <trkpt lat="46.023035338148475" lon="7.00514548458159">
        <ele>2111.1900000000001</ele>
        <time>2014-07-14T09:29:27Z</time>
      </trkpt>
      <trkpt lat="46.023100716993213" lon="7.005143221467733">
        <ele>2111.6700000000001</ele>
        <time>2014-07-14T09:29:41Z</time>
      </trkpt>
      <trkpt lat="46.023051599040627" lon="7.005104832351208">
        <ele>2113.5999999999999</ele>
        <time>2014-07-14T09:29:59Z</time>
      </trkpt>
      <trkpt lat="46.023065848276019" lon="7.005040040239692">
        <ele>2115.04</ele>
        <time>2014-07-14T09:30:12Z</time>
      </trkpt>
      <trkpt lat="46.023044055327773" lon="7.004990922287107">
        <ele>2116.96</ele>
        <time>2014-07-14T09:30:25Z</time>
      </trkpt>
      <trkpt lat="46.022982532158494" lon="7.0049256272614">
        <ele>2118.8800000000001</ele>
        <time>2014-07-14T09:30:39Z</time>
      </trkpt>
      <trkpt lat="46.022975072264671" lon="7.004909031093121">
        <ele>2119.3600000000001</ele>
        <time>2014-07-14T09:30:59Z</time>
      </trkpt>
      <trkpt lat="46.022939616814256" lon="7.004837533459067">
        <ele>2120.8099999999999</ele>
        <time>2014-07-14T09:31:11Z</time>
      </trkpt>
      <trkpt lat="46.022916901856661" lon="7.004842143505812">
        <ele>2120.8099999999999</ele>
        <time>2014-07-14T09:31:28Z</time>
      </trkpt>
      <trkpt lat="46.022960487753153" lon="7.004831247031689">
        <ele>2120.8099999999999</ele>
        <time>2014-07-14T09:31:38Z</time>
      </trkpt>
      <trkpt lat="46.022963421419263" lon="7.004833510145545">
        <ele>2120.3200000000002</ele>
        <time>2014-07-14T09:31:56Z</time>
      </trkpt>
      <trkpt lat="46.023003235459328" lon="7.004803167656064">
        <ele>2120.8099999999999</ele>
        <time>2014-07-14T09:32:16Z</time>
      </trkpt>
      <trkpt lat="46.022991165518761" lon="7.004823535680771">
        <ele>2121.29</ele>
        <time>2014-07-14T09:32:31Z</time>
      </trkpt>
      <trkpt lat="46.02297892794013" lon="7.004820266738534">
        <ele>2121.29</ele>
        <time>2014-07-14T09:32:41Z</time>
      </trkpt>
      <trkpt lat="46.022996697574854" lon="7.004794618114829">
        <ele>2121.29</ele>
        <time>2014-07-14T09:32:57Z</time>
      </trkpt>
      <trkpt lat="46.023008935153484" lon="7.004800317808986">
        <ele>2121.29</ele>
        <time>2014-07-14T09:33:19Z</time>
      </trkpt>
      <trkpt lat="46.023015221580863" lon="7.004799898713827">
        <ele>2121.77</ele>
        <time>2014-07-14T09:33:49Z</time>
      </trkpt>
      <trkpt lat="46.022999295964837" lon="7.004798138514161">
        <ele>2121.29</ele>
        <time>2014-07-14T09:34:03Z</time>
      </trkpt>
      <trkpt lat="46.022990075871348" lon="7.00480392202735">
        <ele>2121.29</ele>
        <time>2014-07-14T09:34:19Z</time>
      </trkpt>
      <trkpt lat="46.022945819422603" lon="7.004847005009651">
        <ele>2121.29</ele>
        <time>2014-07-14T09:34:46Z</time>
      </trkpt>
      <trkpt lat="46.022963672876358" lon="7.004825379699469">
        <ele>2121.77</ele>
        <time>2014-07-14T09:35:10Z</time>
      </trkpt>
      <trkpt lat="46.022966941818595" lon="7.004787912592292">
        <ele>2121.77</ele>
        <time>2014-07-14T09:35:39Z</time>
      </trkpt>
      <trkpt lat="46.022955626249313" lon="7.00477609410882">
        <ele>2121.29</ele>
        <time>2014-07-14T09:36:05Z</time>
      </trkpt>
      <trkpt lat="46.023027626797557" lon="7.004803502932191">
        <ele>2122.25</ele>
        <time>2014-07-14T09:36:30Z</time>
      </trkpt>
      <trkpt lat="46.023020250722766" lon="7.004811968654394">
        <ele>2122.25</ele>
        <time>2014-07-14T09:36:52Z</time>
      </trkpt>
      <trkpt lat="46.023042127490044" lon="7.004799479618669">
        <ele>2122.73</ele>
        <time>2014-07-14T09:37:18Z</time>
      </trkpt>
      <trkpt lat="46.023037685081363" lon="7.004800317808986">
        <ele>2122.73</ele>
        <time>2014-07-14T09:37:44Z</time>
      </trkpt>
      <trkpt lat="46.022972473874688" lon="7.004828481003642">
        <ele>2122.25</ele>
        <time>2014-07-14T09:38:07Z</time>
      </trkpt>
      <trkpt lat="46.022956045344472" lon="7.004836611449719">
        <ele>2122.25</ele>
        <time>2014-07-14T09:38:36Z</time>
      </trkpt>
      <trkpt lat="46.022988399490714" lon="7.004795791581273">
        <ele>2122.25</ele>
        <time>2014-07-14T09:38:59Z</time>
      </trkpt>
      <trkpt lat="46.022963505238295" lon="7.004773747175932">
        <ele>2122.25</ele>
        <time>2014-07-14T09:39:29Z</time>
      </trkpt>
      <trkpt lat="46.022989405319095" lon="7.004771735519171">
        <ele>2122.25</ele>
        <time>2014-07-14T09:39:56Z</time>
      </trkpt>
      <trkpt lat="46.023019244894385" lon="7.004779446870089">
        <ele>2122.73</ele>
        <time>2014-07-14T09:40:20Z</time>
      </trkpt>
      <trkpt lat="46.023042127490044" lon="7.004779782146215">
        <ele>2122.73</ele>
        <time>2014-07-14T09:40:44Z</time>
      </trkpt>
      <trkpt lat="46.023062663152814" lon="7.004769137129188">
        <ele>2122.73</ele>
        <time>2014-07-14T09:41:11Z</time>
      </trkpt>
      <trkpt lat="46.023125275969505" lon="7.004775423556566">
        <ele>2123.21</ele>
        <time>2014-07-14T09:41:50Z</time>
      </trkpt>
      <trkpt lat="46.023131310939789" lon="7.004790427163243">
        <ele>2123.21</ele>
        <time>2014-07-14T09:42:11Z</time>
      </trkpt>
      <trkpt lat="46.02317146025598" lon="7.004796881228685">
        <ele>2123.6900000000001</ele>
        <time>2014-07-14T09:42:42Z</time>
      </trkpt>
      <trkpt lat="46.023163162171841" lon="7.004808615893126">
        <ele>2124.1700000000001</ele>
        <time>2014-07-14T09:43:07Z</time>
      </trkpt>
      <trkpt lat="46.02316458709538" lon="7.004803335294128">
        <ele>2124.6500000000001</ele>
        <time>2014-07-14T09:43:38Z</time>
      </trkpt>
      <trkpt lat="46.023144638165832" lon="7.004811549559236">
        <ele>2125.1300000000001</ele>
        <time>2014-07-14T09:44:03Z</time>
      </trkpt>
      <trkpt lat="46.0231738910079" lon="7.004805933684111">
        <ele>2125.1300000000001</ele>
        <time>2014-07-14T09:44:31Z</time>
      </trkpt>
      <trkpt lat="46.023154361173511" lon="7.00480492785573">
        <ele>2125.1300000000001</ele>
        <time>2014-07-14T09:44:56Z</time>
      </trkpt>
      <trkpt lat="46.023104237392545" lon="7.004799311980605">
        <ele>2125.6100000000001</ele>
        <time>2014-07-14T09:45:25Z</time>
      </trkpt>
      <trkpt lat="46.023036343976855" lon="7.004801323637366">
        <ele>2125.6100000000001</ele>
        <time>2014-07-14T09:45:46Z</time>
      </trkpt>
      <trkpt lat="46.023002732545137" lon="7.004795959219337">
        <ele>2125.6100000000001</ele>
        <time>2014-07-14T09:46:10Z</time>
      </trkpt>
      <trkpt lat="46.022922266274691" lon="7.004774753004313">
        <ele>2125.6100000000001</ele>
        <time>2014-07-14T09:46:38Z</time>
      </trkpt>
      <trkpt lat="46.022930480539799" lon="7.004775088280439">
        <ele>2125.6100000000001</ele>
        <time>2014-07-14T09:47:04Z</time>
      </trkpt>
      <trkpt lat="46.0228924266994" lon="7.004779111593962">
        <ele>2125.6100000000001</ele>
        <time>2014-07-14T09:47:40Z</time>
      </trkpt>
      <trkpt lat="46.02293886244297" lon="7.004786487668753">
        <ele>2125.6100000000001</ele>
        <time>2014-07-14T09:48:09Z</time>
      </trkpt>
      <trkpt lat="46.022919248789549" lon="7.00476829893887">
        <ele>2125.6100000000001</ele>
        <time>2014-07-14T09:48:38Z</time>
      </trkpt>
      <trkpt lat="46.022899635136127" lon="7.00476435944438">
        <ele>2127.0500000000002</ele>
        <time>2014-07-14T09:49:02Z</time>
      </trkpt>
      <trkpt lat="46.022868789732456" lon="7.004745500162244">
        <ele>2125.6100000000001</ele>
        <time>2014-07-14T09:49:32Z</time>
      </trkpt>
      <trkpt lat="46.022911285981536" lon="7.004739046096802">
        <ele>2126.0900000000001</ele>
        <time>2014-07-14T09:49:58Z</time>
      </trkpt>
      <trkpt lat="46.022861413657665" lon="7.004725635051727">
        <ele>2126.0900000000001</ele>
        <time>2014-07-14T09:50:18Z</time>
      </trkpt>
      <trkpt lat="46.022936264052987" lon="7.004735358059406">
        <ele>2126.0900000000001</ele>
        <time>2014-07-14T09:50:39Z</time>
      </trkpt>
      <trkpt lat="46.022963840514421" lon="7.004728736355901">
        <ele>2127.0500000000002</ele>
        <time>2014-07-14T09:51:02Z</time>
      </trkpt>
      <trkpt lat="46.022972390055656" lon="7.004722449928522">
        <ele>2126.0900000000001</ele>
        <time>2014-07-14T09:51:25Z</time>
      </trkpt>
      <trkpt lat="46.023030309006572" lon="7.004760000854731">
        <ele>2126.0900000000001</ele>
        <time>2014-07-14T09:51:49Z</time>
      </trkpt>
      <trkpt lat="46.023081103339791" lon="7.004771316424012">
        <ele>2126.0900000000001</ele>
        <time>2014-07-14T09:52:13Z</time>
      </trkpt>
      <trkpt lat="46.023034919053316" lon="7.004762683063746">
        <ele>2126.0900000000001</ele>
        <time>2014-07-14T09:52:37Z</time>
      </trkpt>
      <trkpt lat="46.023018658161163" lon="7.004802916198969">
        <ele>2126.0900000000001</ele>
        <time>2014-07-14T09:53:13Z</time>
      </trkpt>
      <trkpt lat="46.023024106398225" lon="7.004793360829353">
        <ele>2126.0900000000001</ele>
        <time>2014-07-14T09:53:44Z</time>
      </trkpt>
      <trkpt lat="46.023019831627607" lon="7.004794282838702">
        <ele>2126.0900000000001</ele>
        <time>2014-07-14T09:54:24Z</time>
      </trkpt>
      <trkpt lat="46.023057801648974" lon="7.004831247031689">
        <ele>2125.6100000000001</ele>
        <time>2014-07-14T09:55:02Z</time>
      </trkpt>
      <trkpt lat="46.022999798879027" lon="7.004777519032359">
        <ele>2125.6100000000001</ele>
        <time>2014-07-14T09:55:19Z</time>
      </trkpt>
      <trkpt lat="46.02296082302928" lon="7.004774417728186">
        <ele>2125.6100000000001</ele>
        <time>2014-07-14T09:55:44Z</time>
      </trkpt>
      <trkpt lat="46.022953195497394" lon="7.004782715812326">
        <ele>2125.6100000000001</ele>
        <time>2014-07-14T09:56:10Z</time>
      </trkpt>
      <trkpt lat="46.022961996495724" lon="7.004779279232025">
        <ele>2125.6100000000001</ele>
        <time>2014-07-14T09:56:34Z</time>
      </trkpt>
      <trkpt lat="46.022950513288379" lon="7.00477609410882">
        <ele>2125.6100000000001</ele>
        <time>2014-07-14T09:57:02Z</time>
      </trkpt>
      <trkpt lat="46.022961996495724" lon="7.004764443263412">
        <ele>2125.1300000000001</ele>
        <time>2014-07-14T09:57:26Z</time>
      </trkpt>
      <trkpt lat="46.022948585450649" lon="7.004774669185281">
        <ele>2125.1300000000001</ele>
        <time>2014-07-14T09:57:59Z</time>
      </trkpt>
      <trkpt lat="46.022994769737124" lon="7.004765029996634">
        <ele>2124.6500000000001</ele>
        <time>2014-07-14T09:58:31Z</time>
      </trkpt>
      <trkpt lat="46.023000720888376" lon="7.004776680842042">
        <ele>2124.6500000000001</ele>
        <time>2014-07-14T09:59:00Z</time>
      </trkpt>
      <trkpt lat="46.023002481088042" lon="7.004778105765581">
        <ele>2124.6500000000001</ele>
        <time>2014-07-14T09:59:09Z</time>
      </trkpt>
      <trkpt lat="46.023018574342132" lon="7.004846250638366">
        <ele>2125.1300000000001</ele>
        <time>2014-07-14T09:59:21Z</time>
      </trkpt>
      <trkpt lat="46.022988064214587" lon="7.004856141284108">
        <ele>2125.1300000000001</ele>
        <time>2014-07-14T09:59:36Z</time>
      </trkpt>
      <trkpt lat="46.023028632625937" lon="7.004886483773589">
        <ele>2123.6900000000001</ele>
        <time>2014-07-14T09:59:53Z</time>
      </trkpt>
      <trkpt lat="46.023081354796886" lon="7.004866283386946">
        <ele>2123.6900000000001</ele>
        <time>2014-07-14T10:00:05Z</time>
      </trkpt>
      <trkpt lat="46.023103818297386" lon="7.004869049414992">
        <ele>2123.21</ele>
        <time>2014-07-14T10:00:08Z</time>
      </trkpt>
      <trkpt lat="46.02308738976717" lon="7.004948342218995">
        <ele>2122.73</ele>
        <time>2014-07-14T10:00:19Z</time>
      </trkpt>
      <trkpt lat="46.023045983165503" lon="7.004916239529848">
        <ele>2123.21</ele>
        <time>2014-07-14T10:00:27Z</time>
      </trkpt>
      <trkpt lat="46.022976329550147" lon="7.004842227324843">
        <ele>2124.6500000000001</ele>
        <time>2014-07-14T10:00:38Z</time>
      </trkpt>
      <trkpt lat="46.022978676483035" lon="7.004782883450389">
        <ele>2125.1300000000001</ele>
        <time>2014-07-14T10:00:50Z</time>
      </trkpt>
      <trkpt lat="46.022960320115089" lon="7.004763772711158">
        <ele>2124.1700000000001</ele>
        <time>2014-07-14T10:01:03Z</time>
      </trkpt>
      <trkpt lat="46.02296962402761" lon="7.004774417728186">
        <ele>2124.1700000000001</ele>
        <time>2014-07-14T10:01:26Z</time>
      </trkpt>
      <trkpt lat="46.022991584613919" lon="7.004787912592292">
        <ele>2124.1700000000001</ele>
        <time>2014-07-14T10:01:38Z</time>
      </trkpt>
      <trkpt lat="46.022987645119429" lon="7.004840802401304">
        <ele>2124.6500000000001</ele>
        <time>2014-07-14T10:01:50Z</time>
      </trkpt>
      <trkpt lat="46.022991416975856" lon="7.004848681390286">
        <ele>2124.6500000000001</ele>
        <time>2014-07-14T10:01:51Z</time>
      </trkpt>
      <trkpt lat="46.023130724206567" lon="7.004876509308815">
        <ele>2123.21</ele>
        <time>2014-07-14T10:02:08Z</time>
      </trkpt>
      <trkpt lat="46.023105997592211" lon="7.004753798246384">
        <ele>2124.1700000000001</ele>
        <time>2014-07-14T10:02:21Z</time>
      </trkpt>
      <trkpt lat="46.023171041160822" lon="7.004725970327854">
        <ele>2125.6100000000001</ele>
        <time>2014-07-14T10:02:34Z</time>
      </trkpt>
      <trkpt lat="46.02320708334446" lon="7.004724713042378">
        <ele>2125.6100000000001</ele>
        <time>2014-07-14T10:02:51Z</time>
      </trkpt>
      <trkpt lat="46.023250836879015" lon="7.004699148237705">
        <ele>2127.5300000000002</ele>
        <time>2014-07-14T10:03:03Z</time>
      </trkpt>
      <trkpt lat="46.0232706181705" lon="7.004657657817006">
        <ele>2128.98</ele>
        <time>2014-07-14T10:03:17Z</time>
      </trkpt>
      <trkpt lat="46.023321077227592" lon="7.004602756351233">
        <ele>2130.9000000000001</ele>
        <time>2014-07-14T10:03:30Z</time>
      </trkpt>
      <trkpt lat="46.023361394181848" lon="7.004634272307158">
        <ele>2131.8600000000001</ele>
        <time>2014-07-14T10:03:40Z</time>
      </trkpt>
      <trkpt lat="46.023412607610226" lon="7.004624214023352">
        <ele>2133.3000000000002</ele>
        <time>2014-07-14T10:03:53Z</time>
      </trkpt>
      <trkpt lat="46.023484440520406" lon="7.004629746079445">
        <ele>2135.23</ele>
        <time>2014-07-14T10:04:10Z</time>
      </trkpt>
      <trkpt lat="46.023495756089687" lon="7.00463829562068">
        <ele>2135.23</ele>
        <time>2014-07-14T10:04:31Z</time>
      </trkpt>
      <trkpt lat="46.023529451340437" lon="7.004649024456739">
        <ele>2136.1900000000001</ele>
        <time>2014-07-14T10:04:47Z</time>
      </trkpt>
      <trkpt lat="46.023521572351456" lon="7.004633266478777">
        <ele>2135.71</ele>
        <time>2014-07-14T10:05:05Z</time>
      </trkpt>
      <trkpt lat="46.023539090529084" lon="7.004612563177943">
        <ele>2136.1900000000001</ele>
        <time>2014-07-14T10:05:16Z</time>
      </trkpt>
      <trkpt lat="46.023576809093356" lon="7.004622537642717">
        <ele>2136.6700000000001</ele>
        <time>2014-07-14T10:05:29Z</time>
      </trkpt>
      <trkpt lat="46.023595668375492" lon="7.004617676138878">
        <ele>2137.6300000000001</ele>
        <time>2014-07-14T10:05:46Z</time>
      </trkpt>
      <trkpt lat="46.023612348362803" lon="7.004616167396307">
        <ele>2139.5500000000002</ele>
        <time>2014-07-14T10:06:00Z</time>
      </trkpt>
      <trkpt lat="46.023606732487679" lon="7.004621867090464">
        <ele>2139.5500000000002</ele>
        <time>2014-07-14T10:06:20Z</time>
      </trkpt>
      <trkpt lat="46.02365861646831" lon="7.004681127145886">
        <ele>2140.9899999999998</ele>
        <time>2014-07-14T10:06:46Z</time>
      </trkpt>
      <trkpt lat="46.023679235950112" lon="7.004686826840043">
        <ele>2141.9499999999998</ele>
        <time>2014-07-14T10:07:04Z</time>
      </trkpt>
      <trkpt lat="46.023694826290011" lon="7.004688503220677">
        <ele>2144.8400000000001</ele>
        <time>2014-07-14T10:07:20Z</time>
      </trkpt>
      <trkpt lat="46.023727264255285" lon="7.004646174609661">
        <ele>2147.2399999999998</ele>
        <time>2014-07-14T10:07:31Z</time>
      </trkpt>
      <trkpt lat="46.023808233439922" lon="7.004662351682782">
        <ele>2147.2399999999998</ele>
        <time>2014-07-14T10:07:45Z</time>
      </trkpt>
      <trkpt lat="46.023876713588834" lon="7.004703423008323">
        <ele>2148.6799999999998</ele>
        <time>2014-07-14T10:08:01Z</time>
      </trkpt>
      <trkpt lat="46.023934129625559" lon="7.004745835438371">
        <ele>2149.1599999999999</ele>
        <time>2014-07-14T10:08:15Z</time>
      </trkpt>
      <trkpt lat="46.023950390517712" lon="7.004754384979606">
        <ele>2149.6500000000001</ele>
        <time>2014-07-14T10:08:18Z</time>
      </trkpt>
      <trkpt lat="46.024050051346421" lon="7.004807274788618">
        <ele>2150.6100000000001</ele>
        <time>2014-07-14T10:08:32Z</time>
      </trkpt>
      <trkpt lat="46.02402850985527" lon="7.004804844036698">
        <ele>2149.6500000000001</ele>
        <time>2014-07-14T10:08:46Z</time>
      </trkpt>
      <trkpt lat="46.024080058559775" lon="7.004824792966247">
        <ele>2150.6100000000001</ele>
        <time>2014-07-14T10:09:04Z</time>
      </trkpt>
      <trkpt lat="46.024135798215866" lon="7.004860835149884">
        <ele>2152.0500000000002</ele>
        <time>2014-07-14T10:09:15Z</time>
      </trkpt>
      <trkpt lat="46.024171588942409" lon="7.004880784079433">
        <ele>2152.5300000000002</ele>
        <time>2014-07-14T10:09:20Z</time>
      </trkpt>
      <trkpt lat="46.024256413802505" lon="7.004908444359899">
        <ele>2153.9699999999998</ele>
        <time>2014-07-14T10:09:35Z</time>
      </trkpt>
      <trkpt lat="46.024283487349749" lon="7.004913724958897">
        <ele>2155.4099999999999</ele>
        <time>2014-07-14T10:09:48Z</time>
      </trkpt>
      <trkpt lat="46.024346519261599" lon="7.004956640303135">
        <ele>2156.8600000000001</ele>
        <time>2014-07-14T10:10:01Z</time>
      </trkpt>
      <trkpt lat="46.02438373491168" lon="7.004948426038027">
        <ele>2158.7800000000002</ele>
        <time>2014-07-14T10:10:15Z</time>
      </trkpt>
      <trkpt lat="46.024395553395152" lon="7.004954125732184">
        <ele>2159.7399999999998</ele>
        <time>2014-07-14T10:10:26Z</time>
      </trkpt>
      <trkpt lat="46.024439390748739" lon="7.004988994449377">
        <ele>2159.7399999999998</ele>
        <time>2014-07-14T10:10:40Z</time>
      </trkpt>
      <trkpt lat="46.024565706029534" lon="7.00506635941565">
        <ele>2158.3000000000002</ele>
        <time>2014-07-14T10:10:56Z</time>
      </trkpt>
      <trkpt lat="46.02459479123354" lon="7.004993604496121">
        <ele>2159.7399999999998</ele>
        <time>2014-07-14T10:11:11Z</time>
      </trkpt>
      <trkpt lat="46.024635694921017" lon="7.004979941993952">
        <ele>2159.7399999999998</ele>
        <time>2014-07-14T10:11:31Z</time>
      </trkpt>
      <trkpt lat="46.024659834802151" lon="7.005020761862397">
        <ele>2158.3000000000002</ele>
        <time>2014-07-14T10:11:46Z</time>
      </trkpt>
      <trkpt lat="46.024664863944054" lon="7.005034927278757">
        <ele>2157.8200000000002</ele>
        <time>2014-07-14T10:11:59Z</time>
      </trkpt>
      <trkpt lat="46.024688836187124" lon="7.005095444619656">
        <ele>2155.4099999999999</ele>
        <time>2014-07-14T10:12:14Z</time>
      </trkpt>
      <trkpt lat="46.024707360193133" lon="7.005173396319151">
        <ele>2154.4499999999998</ele>
        <time>2014-07-14T10:12:29Z</time>
      </trkpt>
      <trkpt lat="46.024708701297641" lon="7.005217149853706">
        <ele>2152.5300000000002</ele>
        <time>2014-07-14T10:12:42Z</time>
      </trkpt>
      <trkpt lat="46.024727979674935" lon="7.00522905215621">
        <ele>2151.0900000000001</ele>
        <time>2014-07-14T10:12:56Z</time>
      </trkpt>
      <trkpt lat="46.024764943867922" lon="7.005257299169898">
        <ele>2149.6500000000001</ele>
        <time>2014-07-14T10:13:09Z</time>
      </trkpt>
      <trkpt lat="46.024804841727018" lon="7.005313709378243">
        <ele>2148.1999999999998</ele>
        <time>2014-07-14T10:13:21Z</time>
      </trkpt>
      <trkpt lat="46.024850690737367" lon="7.005348829552531">
        <ele>2147.7199999999998</ele>
        <time>2014-07-14T10:13:36Z</time>
      </trkpt>
      <trkpt lat="46.024941802024841" lon="7.005400210618973">
        <ele>2147.2399999999998</ele>
        <time>2014-07-14T10:13:49Z</time>
      </trkpt>
      <trkpt lat="46.025002487003803" lon="7.005456117913127">
        <ele>2146.7600000000002</ele>
        <time>2014-07-14T10:14:01Z</time>
      </trkpt>
      <trkpt lat="46.025018328800797" lon="7.005448993295431">
        <ele>2146.7600000000002</ele>
        <time>2014-07-14T10:14:20Z</time>
      </trkpt>
      <trkpt lat="46.025046827271581" lon="7.005469026044011">
        <ele>2146.7600000000002</ele>
        <time>2014-07-14T10:14:40Z</time>
      </trkpt>
      <trkpt lat="46.02507708594203" lon="7.005501883104444">
        <ele>2147.2399999999998</ele>
        <time>2014-07-14T10:14:59Z</time>
      </trkpt>
      <trkpt lat="46.025073230266571" lon="7.005542116239667">
        <ele>2146.2800000000002</ele>
        <time>2014-07-14T10:15:11Z</time>
      </trkpt>
      <trkpt lat="46.025076499208808" lon="7.005540356040001">
        <ele>2145.3200000000002</ele>
        <time>2014-07-14T10:15:25Z</time>
      </trkpt>
      <trkpt lat="46.025097034871578" lon="7.005592826753855">
        <ele>2143.4000000000001</ele>
        <time>2014-07-14T10:15:38Z</time>
      </trkpt>
      <trkpt lat="46.025112038478255" lon="7.005682932212949">
        <ele>2140.5100000000002</ele>
        <time>2014-07-14T10:15:50Z</time>
      </trkpt>
      <trkpt lat="46.02518655359745" lon="7.005706150084734">
        <ele>2139.5500000000002</ele>
        <time>2014-07-14T10:16:03Z</time>
      </trkpt>
      <trkpt lat="46.025189906358719" lon="7.005704641342163">
        <ele>2140.0300000000002</ele>
        <time>2014-07-14T10:16:04Z</time>
      </trkpt>
      <trkpt lat="46.025207340717316" lon="7.005718387663364">
        <ele>2140.0300000000002</ele>
        <time>2014-07-14T10:16:07Z</time>
      </trkpt>
      <trkpt lat="46.025258302688599" lon="7.005737582221627">
        <ele>2139.5500000000002</ele>
        <time>2014-07-14T10:16:19Z</time>
      </trkpt>
      <trkpt lat="46.025323262438178" lon="7.005786448717117">
        <ele>2137.6300000000001</ele>
        <time>2014-07-14T10:16:33Z</time>
      </trkpt>
      <trkpt lat="46.025386042892933" lon="7.005875967442989">
        <ele>2136.6700000000001</ele>
        <time>2014-07-14T10:16:46Z</time>
      </trkpt>
      <trkpt lat="46.025469610467553" lon="7.005918798968196">
        <ele>2137.1500000000001</ele>
        <time>2014-07-14T10:17:00Z</time>
      </trkpt>
      <trkpt lat="46.025546975433826" lon="7.005885606631637">
        <ele>2139.0700000000002</ele>
        <time>2014-07-14T10:17:20Z</time>
      </trkpt>
      <trkpt lat="46.025601625442505" lon="7.005933467298746">
        <ele>2138.1100000000001</ele>
        <time>2014-07-14T10:17:31Z</time>
      </trkpt>
      <trkpt lat="46.025628615170717" lon="7.005968000739813">
        <ele>2139.5500000000002</ele>
        <time>2014-07-14T10:17:36Z</time>
      </trkpt>
      <trkpt lat="46.025658873841166" lon="7.00600597076118">
        <ele>2137.1500000000001</ele>
        <time>2014-07-14T10:17:49Z</time>
      </trkpt>
      <trkpt lat="46.025649989023805" lon="7.006003959104419">
        <ele>2137.1500000000001</ele>
        <time>2014-07-14T10:18:02Z</time>
      </trkpt>
      <trkpt lat="46.025645043700933" lon="7.005993900820613">
        <ele>2137.1500000000001</ele>
        <time>2014-07-14T10:18:07Z</time>
      </trkpt>
      <trkpt lat="46.025660298764706" lon="7.006011586636305">
        <ele>2137.6300000000001</ele>
        <time>2014-07-14T10:18:20Z</time>
      </trkpt>
      <trkpt lat="46.025739591568708" lon="7.006066991016269">
        <ele>2135.71</ele>
        <time>2014-07-14T10:18:36Z</time>
      </trkpt>
      <trkpt lat="46.025840090587735" lon="7.006082832813263">
        <ele>2135.23</ele>
        <time>2014-07-14T10:18:46Z</time>
      </trkpt>
      <trkpt lat="46.025931369513273" lon="7.006139326840639">
        <ele>2133.3000000000002</ele>
        <time>2014-07-14T10:19:00Z</time>
      </trkpt>
      <trkpt lat="46.026001609861851" lon="7.006145277991891">
        <ele>2131.3800000000001</ele>
        <time>2014-07-14T10:19:15Z</time>
      </trkpt>
      <trkpt lat="46.026081908494234" lon="7.00609833933413">
        <ele>2130.9000000000001</ele>
        <time>2014-07-14T10:19:30Z</time>
      </trkpt>
      <trkpt lat="46.026092804968357" lon="7.006079144775868">
        <ele>2130.4200000000001</ele>
        <time>2014-07-14T10:19:42Z</time>
      </trkpt>
      <trkpt lat="46.026200596243143" lon="7.006015107035637">
        <ele>2128.98</ele>
        <time>2014-07-14T10:19:57Z</time>
      </trkpt>
      <trkpt lat="46.026210319250822" lon="7.006013514474034">
        <ele>2128.98</ele>
        <time>2014-07-14T10:19:58Z</time>
      </trkpt>
      <trkpt lat="46.026257509365678" lon="7.005980489775538">
        <ele>2128.5</ele>
        <time>2014-07-14T10:20:13Z</time>
      </trkpt>
      <trkpt lat="46.026277206838131" lon="7.005963558331132">
        <ele>2128.98</ele>
        <time>2014-07-14T10:20:31Z</time>
      </trkpt>
      <trkpt lat="46.026293467730284" lon="7.005909746512771">
        <ele>2130.4200000000001</ele>
        <time>2014-07-14T10:20:48Z</time>
      </trkpt>
      <trkpt lat="46.026298329234123" lon="7.005906645208597">
        <ele>2130.9000000000001</ele>
        <time>2014-07-14T10:20:49Z</time>
      </trkpt>
      <trkpt lat="46.026339400559664" lon="7.005834896117449">
        <ele>2130.4200000000001</ele>
        <time>2014-07-14T10:21:01Z</time>
      </trkpt>
      <trkpt lat="46.026321714743972" lon="7.005760297179222">
        <ele>2131.8600000000001</ele>
        <time>2014-07-14T10:21:15Z</time>
      </trkpt>
      <trkpt lat="46.02632062509656" lon="7.005738588050008">
        <ele>2132.8200000000002</ele>
        <time>2014-07-14T10:21:33Z</time>
      </trkpt>
      <trkpt lat="46.026290869340301" lon="7.005662061274052">
        <ele>2135.23</ele>
        <time>2014-07-14T10:21:47Z</time>
      </trkpt>
      <trkpt lat="46.026321295648813" lon="7.005620906129479">
        <ele>2137.1500000000001</ele>
        <time>2014-07-14T10:21:59Z</time>
      </trkpt>
      <trkpt lat="46.026331605389714" lon="7.005565166473389">
        <ele>2138.1100000000001</ele>
        <time>2014-07-14T10:22:11Z</time>
      </trkpt>
      <trkpt lat="46.026349207386374" lon="7.005528789013624">
        <ele>2138.1100000000001</ele>
        <time>2014-07-14T10:22:18Z</time>
      </trkpt>
      <trkpt lat="46.026388518512249" lon="7.005468858405948">
        <ele>2137.6300000000001</ele>
        <time>2014-07-14T10:22:30Z</time>
      </trkpt>
      <trkpt lat="46.026444174349308" lon="7.00545477680862">
        <ele>2134.7399999999998</ele>
        <time>2014-07-14T10:22:44Z</time>
      </trkpt>
      <trkpt lat="46.026517767459154" lon="7.0053780823946">
        <ele>2133.7800000000002</ele>
        <time>2014-07-14T10:22:57Z</time>
      </trkpt>
      <trkpt lat="46.026598652824759" lon="7.005295688286424">
        <ele>2133.3000000000002</ele>
        <time>2014-07-14T10:23:11Z</time>
      </trkpt>
      <trkpt lat="46.026620613411069" lon="7.005296107381582">
        <ele>2133.7800000000002</ele>
        <time>2014-07-14T10:23:14Z</time>
      </trkpt>
      <trkpt lat="46.026699738577008" lon="7.005264507606626">
        <ele>2133.3000000000002</ele>
        <time>2014-07-14T10:23:28Z</time>
      </trkpt>
      <trkpt lat="46.026715245097876" lon="7.005242211744189">
        <ele>2133.3000000000002</ele>
        <time>2014-07-14T10:23:31Z</time>
      </trkpt>
      <trkpt lat="46.026780121028423" lon="7.005210360512137">
        <ele>2133.7800000000002</ele>
        <time>2014-07-14T10:23:45Z</time>
      </trkpt>
      <trkpt lat="46.02685228921473" lon="7.005158895626664">
        <ele>2133.7800000000002</ele>
        <time>2014-07-14T10:24:02Z</time>
      </trkpt>
      <trkpt lat="46.026889756321907" lon="7.005151771008968">
        <ele>2133.7800000000002</ele>
        <time>2014-07-14T10:24:08Z</time>
      </trkpt>
      <trkpt lat="46.026937030255795" lon="7.005075747147203">
        <ele>2134.2600000000002</ele>
        <time>2014-07-14T10:24:21Z</time>
      </trkpt>
      <trkpt lat="46.026986986398697" lon="7.005035430192947">
        <ele>2134.7399999999998</ele>
        <time>2014-07-14T10:24:34Z</time>
      </trkpt>
      <trkpt lat="46.026981789618731" lon="7.005020594224334">
        <ele>2134.7399999999998</ele>
        <time>2014-07-14T10:24:48Z</time>
      </trkpt>
      <trkpt lat="46.027080863714218" lon="7.004971308633685">
        <ele>2133.7800000000002</ele>
        <time>2014-07-14T10:25:03Z</time>
      </trkpt>
      <trkpt lat="46.027118749916553" lon="7.004959657788277">
        <ele>2132.3400000000001</ele>
        <time>2014-07-14T10:25:16Z</time>
      </trkpt>
      <trkpt lat="46.027155378833413" lon="7.004933757707477">
        <ele>2130.4200000000001</ele>
        <time>2014-07-14T10:25:29Z</time>
      </trkpt>
      <trkpt lat="46.027159821242094" lon="7.00492462143302">
        <ele>2129.9400000000001</ele>
        <time>2014-07-14T10:25:43Z</time>
      </trkpt>
      <trkpt lat="46.027208603918552" lon="7.00487969443202">
        <ele>2128.5</ele>
        <time>2014-07-14T10:25:56Z</time>
      </trkpt>
      <trkpt lat="46.027219081297517" lon="7.004835940897465">
        <ele>2128.98</ele>
        <time>2014-07-14T10:26:08Z</time>
      </trkpt>
      <trkpt lat="46.02726710960269" lon="7.004800736904144">
        <ele>2127.5300000000002</ele>
        <time>2014-07-14T10:26:22Z</time>
      </trkpt>
      <trkpt lat="46.027313377708197" lon="7.004752121865749">
        <ele>2126.5700000000002</ele>
        <time>2014-07-14T10:26:38Z</time>
      </trkpt>
      <trkpt lat="46.027369704097509" lon="7.004647850990295">
        <ele>2124.6500000000001</ele>
        <time>2014-07-14T10:26:53Z</time>
      </trkpt>
      <trkpt lat="46.027416223660111" lon="7.004575515165925">
        <ele>2122.25</ele>
        <time>2014-07-14T10:27:06Z</time>
      </trkpt>
      <trkpt lat="46.027456792071462" lon="7.004541987553239">
        <ele>2120.3200000000002</ele>
        <time>2014-07-14T10:27:18Z</time>
      </trkpt>
      <trkpt lat="46.027495432645082" lon="7.004522792994976">
        <ele>2117.9200000000001</ele>
        <time>2014-07-14T10:27:30Z</time>
      </trkpt>
      <trkpt lat="46.027515884488821" lon="7.004447942599654">
        <ele>2116</ele>
        <time>2014-07-14T10:27:42Z</time>
      </trkpt>
      <trkpt lat="46.027544382959604" lon="7.004389436915517">
        <ele>2114.0799999999999</ele>
        <time>2014-07-14T10:27:54Z</time>
      </trkpt>
      <trkpt lat="46.027567768469453" lon="7.004322046414018">
        <ele>2112.1500000000001</ele>
        <time>2014-07-14T10:28:07Z</time>
      </trkpt>
      <trkpt lat="46.02760280482471" lon="7.004307461902499">
        <ele>2109.75</ele>
        <time>2014-07-14T10:28:19Z</time>
      </trkpt>
      <trkpt lat="46.027634823694825" lon="7.004400417208672">
        <ele>2106.8699999999999</ele>
        <time>2014-07-14T10:28:32Z</time>
      </trkpt>
      <trkpt lat="46.027661813423038" lon="7.004439812153578">
        <ele>2105.4200000000001</ele>
        <time>2014-07-14T10:28:50Z</time>
      </trkpt>
      <trkpt lat="46.027695424854755" lon="7.004355993121862">
        <ele>2102.54</ele>
        <time>2014-07-14T10:29:03Z</time>
      </trkpt>
      <trkpt lat="46.02767514064908" lon="7.004190785810351">
        <ele>2101.0999999999999</ele>
        <time>2014-07-14T10:29:17Z</time>
      </trkpt>
      <trkpt lat="46.027683522552252" lon="7.004109481349587">
        <ele>2098.6999999999998</ele>
        <time>2014-07-14T10:29:28Z</time>
      </trkpt>
      <trkpt lat="46.027685534209013" lon="7.004083916544914">
        <ele>2098.21</ele>
        <time>2014-07-14T10:29:30Z</time>
      </trkpt>
      <trkpt lat="46.027690814808011" lon="7.004023483023047">
        <ele>2097.73</ele>
        <time>2014-07-14T10:29:34Z</time>
      </trkpt>
      <trkpt lat="46.027686204761267" lon="7.003949638456106">
        <ele>2097.25</ele>
        <time>2014-07-14T10:29:40Z</time>
      </trkpt>
      <trkpt lat="46.027659801766276" lon="7.003912925720215">
        <ele>2097.73</ele>
        <time>2014-07-14T10:29:56Z</time>
      </trkpt>
      <trkpt lat="46.02766047231853" lon="7.003880236297846">
        <ele>2098.21</ele>
        <time>2014-07-14T10:30:10Z</time>
      </trkpt>
      <trkpt lat="46.027691066265106" lon="7.003808990120888">
        <ele>2098.6999999999998</ele>
        <time>2014-07-14T10:30:24Z</time>
      </trkpt>
      <trkpt lat="46.027663741260767" lon="7.00369818136096">
        <ele>2097.25</ele>
        <time>2014-07-14T10:30:38Z</time>
      </trkpt>
      <trkpt lat="46.027683774009347" lon="7.003640849143267">
        <ele>2095.3299999999999</ele>
        <time>2014-07-14T10:30:49Z</time>
      </trkpt>
      <trkpt lat="46.027712440118194" lon="7.003541607409716">
        <ele>2092.9299999999998</ele>
        <time>2014-07-14T10:31:03Z</time>
      </trkpt>
      <trkpt lat="46.027713781222701" lon="7.003532135859132">
        <ele>2092.4499999999998</ele>
        <time>2014-07-14T10:31:04Z</time>
      </trkpt>
      <trkpt lat="46.027721157297492" lon="7.003392912447453">
        <ele>2090.04</ele>
        <time>2014-07-14T10:31:16Z</time>
      </trkpt>
      <trkpt lat="46.027723839506507" lon="7.00336349196732">
        <ele>2088.1199999999999</ele>
        <time>2014-07-14T10:31:20Z</time>
      </trkpt>
      <trkpt lat="46.027744710445404" lon="7.003224771469832">
        <ele>2087.6399999999999</ele>
        <time>2014-07-14T10:31:32Z</time>
      </trkpt>
      <trkpt lat="46.027729790657759" lon="7.003086218610406">
        <ele>2089.0799999999999</ele>
        <time>2014-07-14T10:31:45Z</time>
      </trkpt>
      <trkpt lat="46.027711685746908" lon="7.003057971596718">
        <ele>2090.52</ele>
        <time>2014-07-14T10:31:48Z</time>
      </trkpt>
      <trkpt lat="46.027687545865774" lon="7.003037603572011">
        <ele>2090.52</ele>
        <time>2014-07-14T10:32:02Z</time>
      </trkpt>
      <trkpt lat="46.027664244174957" lon="7.003010949119926">
        <ele>2092.4499999999998</ele>
        <time>2014-07-14T10:32:17Z</time>
      </trkpt>
      <trkpt lat="46.027651922777295" lon="7.002902319654822">
        <ele>2092.9299999999998</ele>
        <time>2014-07-14T10:32:30Z</time>
      </trkpt>
      <trkpt lat="46.027643121778965" lon="7.002838784828782">
        <ele>2093.4099999999999</ele>
        <time>2014-07-14T10:32:43Z</time>
      </trkpt>
      <trkpt lat="46.027630632743239" lon="7.00279519893229">
        <ele>2092.9299999999998</ele>
        <time>2014-07-14T10:32:57Z</time>
      </trkpt>
      <trkpt lat="46.027637924998999" lon="7.002788744866848">
        <ele>2092.4499999999998</ele>
        <time>2014-07-14T10:33:05Z</time>
      </trkpt>
      <trkpt lat="46.027617054060102" lon="7.002744656056166">
        <ele>2090.52</ele>
        <time>2014-07-14T10:33:16Z</time>
      </trkpt>
      <trkpt lat="46.027604648843408" lon="7.002694616094232">
        <ele>2089.0799999999999</ele>
        <time>2014-07-14T10:33:28Z</time>
      </trkpt>
      <trkpt lat="46.027604313567281" lon="7.002676762640476">
        <ele>2089.5599999999999</ele>
        <time>2014-07-14T10:33:29Z</time>
      </trkpt>
      <trkpt lat="46.027589896693826" lon="7.002633679658175">
        <ele>2088.1199999999999</ele>
        <time>2014-07-14T10:33:32Z</time>
      </trkpt>
      <trkpt lat="46.027564331889153" lon="7.002485487610102">
        <ele>2088.1199999999999</ele>
        <time>2014-07-14T10:33:43Z</time>
      </trkpt>
      <trkpt lat="46.027503479272127" lon="7.002394963055849">
        <ele>2088.1199999999999</ele>
        <time>2014-07-14T10:33:57Z</time>
      </trkpt>
      <trkpt lat="46.027461988851428" lon="7.002287926152349">
        <ele>2089.5599999999999</ele>
        <time>2014-07-14T10:34:10Z</time>
      </trkpt>
      <trkpt lat="46.027449583634734" lon="7.002192540094256">
        <ele>2089.0799999999999</ele>
        <time>2014-07-14T10:34:22Z</time>
      </trkpt>
      <trkpt lat="46.027430472895503" lon="7.002163957804442">
        <ele>2089.5599999999999</ele>
        <time>2014-07-14T10:34:33Z</time>
      </trkpt>
      <trkpt lat="46.027404656633735" lon="7.002136884257197">
        <ele>2091</ele>
        <time>2014-07-14T10:34:52Z</time>
      </trkpt>
      <trkpt lat="46.027394346892834" lon="7.002114504575729">
        <ele>2091.9699999999998</ele>
        <time>2014-07-14T10:35:06Z</time>
      </trkpt>
      <trkpt lat="46.027395436540246" lon="7.002032781019807">
        <ele>2092.9299999999998</ele>
        <time>2014-07-14T10:35:21Z</time>
      </trkpt>
      <trkpt lat="46.027413876727223" lon="7.001967150717974">
        <ele>2092.9299999999998</ele>
        <time>2014-07-14T10:35:37Z</time>
      </trkpt>
      <trkpt lat="46.027427287772298" lon="7.00199288316071">
        <ele>2092.4499999999998</ele>
        <time>2014-07-14T10:35:54Z</time>
      </trkpt>
      <trkpt lat="46.027420666068792" lon="7.001992715522647">
        <ele>2092.4499999999998</ele>
        <time>2014-07-14T10:36:23Z</time>
      </trkpt>
      <trkpt lat="46.027412703260779" lon="7.00200310908258">
        <ele>2092.4499999999998</ele>
        <time>2014-07-14T10:36:51Z</time>
      </trkpt>
      <trkpt lat="46.027418151497841" lon="7.001986680552363">
        <ele>2092.9299999999998</ele>
        <time>2014-07-14T10:37:17Z</time>
      </trkpt>
      <trkpt lat="46.0274254437536" lon="7.001996655017138">
        <ele>2092.4499999999998</ele>
        <time>2014-07-14T10:37:40Z</time>
      </trkpt>
      <trkpt lat="46.027414128184319" lon="7.001978801563382">
        <ele>2092.9299999999998</ele>
        <time>2014-07-14T10:38:04Z</time>
      </trkpt>
      <trkpt lat="46.027417313307524" lon="7.001979304477572">
        <ele>2092.9299999999998</ele>
        <time>2014-07-14T10:38:28Z</time>
      </trkpt>
      <trkpt lat="46.027417564764619" lon="7.001882577314973">
        <ele>2092.4499999999998</ele>
        <time>2014-07-14T10:38:51Z</time>
      </trkpt>
      <trkpt lat="46.027423683553934" lon="7.00186237692833">
        <ele>2091.9699999999998</ele>
        <time>2014-07-14T10:38:53Z</time>
      </trkpt>
      <trkpt lat="46.02741027250886" lon="7.001747125759721">
        <ele>2091</ele>
        <time>2014-07-14T10:39:03Z</time>
      </trkpt>
      <trkpt lat="46.027403566986322" lon="7.001644028350711">
        <ele>2092.9299999999998</ele>
        <time>2014-07-14T10:39:14Z</time>
      </trkpt>
      <trkpt lat="46.027404656633735" lon="7.00161611661315">
        <ele>2092.4499999999998</ele>
        <time>2014-07-14T10:39:16Z</time>
      </trkpt>
      <trkpt lat="46.027378840371966" lon="7.001450909301639">
        <ele>2093.4099999999999</ele>
        <time>2014-07-14T10:39:29Z</time>
      </trkpt>
      <trkpt lat="46.027378337457776" lon="7.001384943723679">
        <ele>2093.4099999999999</ele>
        <time>2014-07-14T10:39:33Z</time>
      </trkpt>
      <trkpt lat="46.027367021888494" lon="7.001251000910997">
        <ele>2095.8099999999999</ele>
        <time>2014-07-14T10:39:46Z</time>
      </trkpt>
      <trkpt lat="46.02735411375761" lon="7.00114849023521">
        <ele>2095.3299999999999</ele>
        <time>2014-07-14T10:39:58Z</time>
      </trkpt>
      <trkpt lat="46.027306588366628" lon="7.001004992052913">
        <ele>2097.73</ele>
        <time>2014-07-14T10:40:14Z</time>
      </trkpt>
      <trkpt lat="46.027271468192339" lon="7.000832073390484">
        <ele>2096.77</ele>
        <time>2014-07-14T10:40:30Z</time>
      </trkpt>
      <trkpt lat="46.027234001085162" lon="7.000783625990152">
        <ele>2099.1799999999998</ele>
        <time>2014-07-14T10:40:45Z</time>
      </trkpt>
      <trkpt lat="46.027224026620388" lon="7.000710284337401">
        <ele>2101.5799999999999</ele>
        <time>2014-07-14T10:41:00Z</time>
      </trkpt>
      <trkpt lat="46.027221344411373" lon="7.000598553568125">
        <ele>2101.5799999999999</ele>
        <time>2014-07-14T10:41:13Z</time>
      </trkpt>
      <trkpt lat="46.027182871475816" lon="7.000552788376808">
        <ele>2103.02</ele>
        <time>2014-07-14T10:41:27Z</time>
      </trkpt>
      <trkpt lat="46.027165185660124" lon="7.000483805313706">
        <ele>2104.9400000000001</ele>
        <time>2014-07-14T10:41:39Z</time>
      </trkpt>
      <trkpt lat="46.027182368561625" lon="7.000471483916044">
        <ele>2104.46</ele>
        <time>2014-07-14T10:41:43Z</time>
      </trkpt>
      <trkpt lat="46.027186727151275" lon="7.000391352921724">
        <ele>2105.9099999999999</ele>
        <time>2014-07-14T10:41:53Z</time>
      </trkpt>
      <trkpt lat="46.027181195095181" lon="7.0003149099648">
        <ele>2106.3899999999999</ele>
        <time>2014-07-14T10:42:04Z</time>
      </trkpt>
      <trkpt lat="46.027176836505532" lon="7.000200748443604">
        <ele>2106.3899999999999</ele>
        <time>2014-07-14T10:42:16Z</time>
      </trkpt>
      <trkpt lat="46.02718798443675" lon="7.000116677954793">
        <ele>2107.3499999999999</ele>
        <time>2014-07-14T10:42:29Z</time>
      </trkpt>
      <trkpt lat="46.027192175388336" lon="7.000107038766146">
        <ele>2106.8699999999999</ele>
        <time>2014-07-14T10:42:30Z</time>
      </trkpt>
      <trkpt lat="46.027206256985664" lon="7.000035792589188">
        <ele>2105.9099999999999</ele>
        <time>2014-07-14T10:42:41Z</time>
      </trkpt>
      <trkpt lat="46.027201814576983" lon="6.999927163124085">
        <ele>2106.8699999999999</ele>
        <time>2014-07-14T10:42:54Z</time>
      </trkpt>
      <trkpt lat="46.027212040498853" lon="6.999877458438277">
        <ele>2105.9099999999999</ele>
        <time>2014-07-14T10:43:05Z</time>
      </trkpt>
      <trkpt lat="46.027223691344261" lon="6.999829262495041">
        <ele>2106.8699999999999</ele>
        <time>2014-07-14T10:43:11Z</time>
      </trkpt>
      <trkpt lat="46.027274318039417" lon="6.999707724899054">
        <ele>2107.3499999999999</ele>
        <time>2014-07-14T10:43:23Z</time>
      </trkpt>
      <trkpt lat="46.027317820116878" lon="6.999610494822264">
        <ele>2108.79</ele>
        <time>2014-07-14T10:43:37Z</time>
      </trkpt>
      <trkpt lat="46.027345061302185" lon="6.999482922255993">
        <ele>2110.23</ele>
        <time>2014-07-14T10:43:50Z</time>
      </trkpt>
      <trkpt lat="46.027373727411032" lon="6.999370520934463">
        <ele>2111.6700000000001</ele>
        <time>2014-07-14T10:44:03Z</time>
      </trkpt>
      <trkpt lat="46.02737070992589" lon="6.999348057433963">
        <ele>2111.6700000000001</ele>
        <time>2014-07-14T10:44:06Z</time>
      </trkpt>
      <trkpt lat="46.027427287772298" lon="6.999259544536471">
        <ele>2112.1500000000001</ele>
        <time>2014-07-14T10:44:20Z</time>
      </trkpt>
      <trkpt lat="46.027484200894833" lon="6.999156698584557">
        <ele>2114.0799999999999</ele>
        <time>2014-07-14T10:44:33Z</time>
      </trkpt>
      <trkpt lat="46.027517393231392" lon="6.999070951715112">
        <ele>2115.04</ele>
        <time>2014-07-14T10:44:43Z</time>
      </trkpt>
      <trkpt lat="46.027549495920539" lon="6.99894530698657">
        <ele>2116.96</ele>
        <time>2014-07-14T10:44:57Z</time>
      </trkpt>
      <trkpt lat="46.027575563639402" lon="6.998814381659031">
        <ele>2118.4000000000001</ele>
        <time>2014-07-14T10:45:11Z</time>
      </trkpt>
      <trkpt lat="46.027548406273127" lon="6.998743219301105">
        <ele>2119.3600000000001</ele>
        <time>2014-07-14T10:45:24Z</time>
      </trkpt>
      <trkpt lat="46.027547484263778" lon="6.998704746365547">
        <ele>2118.4000000000001</ele>
        <time>2014-07-14T10:45:36Z</time>
      </trkpt>
      <trkpt lat="46.02756517007947" lon="6.998668452724814">
        <ele>2116.48</ele>
        <time>2014-07-14T10:45:46Z</time>
      </trkpt>
      <trkpt lat="46.027563661336899" lon="6.998658645898104">
        <ele>2116.48</ele>
        <time>2014-07-14T10:45:47Z</time>
      </trkpt>
      <trkpt lat="46.027561984956264" lon="6.998543981462717">
        <ele>2115.04</ele>
        <time>2014-07-14T10:45:59Z</time>
      </trkpt>
      <trkpt lat="46.027584699913859" lon="6.998520428314805">
        <ele>2114.5599999999999</ele>
        <time>2014-07-14T10:46:04Z</time>
      </trkpt>
      <trkpt lat="46.027632644400001" lon="6.998462006449699">
        <ele>2115.04</ele>
        <time>2014-07-14T10:46:18Z</time>
      </trkpt>
      <trkpt lat="46.027652677148581" lon="6.998433172702789">
        <ele>2115.04</ele>
        <time>2014-07-14T10:46:24Z</time>
      </trkpt>
      <trkpt lat="46.027729287743568" lon="6.99842638336122">
        <ele>2116</ele>
        <time>2014-07-14T10:46:37Z</time>
      </trkpt>
      <trkpt lat="46.027760216966271" lon="6.998336110264063">
        <ele>2115.04</ele>
        <time>2014-07-14T10:46:50Z</time>
      </trkpt>
      <trkpt lat="46.027770191431046" lon="6.998301912099123">
        <ele>2114.5599999999999</ele>
        <time>2014-07-14T10:47:06Z</time>
      </trkpt>
      <trkpt lat="46.027794498950243" lon="6.998223625123501">
        <ele>2112.6300000000001</ele>
        <time>2014-07-14T10:47:20Z</time>
      </trkpt>
      <trkpt lat="46.027792654931545" lon="6.998160928487778">
        <ele>2112.6300000000001</ele>
        <time>2014-07-14T10:47:35Z</time>
      </trkpt>
      <trkpt lat="46.02783246897161" lon="6.998037714511156">
        <ele>2113.1199999999999</ele>
        <time>2014-07-14T10:47:49Z</time>
      </trkpt>
      <trkpt lat="46.027864571660757" lon="6.998027488589287">
        <ele>2112.1500000000001</ele>
        <time>2014-07-14T10:48:00Z</time>
      </trkpt>
      <trkpt lat="46.027885861694813" lon="6.99802765622735">
        <ele>2111.6700000000001</ele>
        <time>2014-07-14T10:48:33Z</time>
      </trkpt>
      <trkpt lat="46.027894327417016" lon="6.998011227697134">
        <ele>2111.6700000000001</ele>
        <time>2014-07-14T10:48:52Z</time>
      </trkpt>
      <trkpt lat="46.027909582480788" lon="6.99799002148211">
        <ele>2110.71</ele>
        <time>2014-07-14T10:49:07Z</time>
      </trkpt>
      <trkpt lat="46.027910672128201" lon="6.997989686205983">
        <ele>2110.71</ele>
        <time>2014-07-14T10:49:26Z</time>
      </trkpt>
      <trkpt lat="46.027919137850404" lon="6.997980969026685">
        <ele>2110.71</ele>
        <time>2014-07-14T10:49:42Z</time>
      </trkpt>
      <trkpt lat="46.027927435934544" lon="6.997968647629023">
        <ele>2110.71</ele>
        <time>2014-07-14T10:49:45Z</time>
      </trkpt>
      <trkpt lat="46.027949983254075" lon="6.997910896316171">
        <ele>2111.1900000000001</ele>
        <time>2014-07-14T10:49:56Z</time>
      </trkpt>
      <trkpt lat="46.028033718466759" lon="6.99784048832953">
        <ele>2111.1900000000001</ele>
        <time>2014-07-14T10:50:12Z</time>
      </trkpt>
      <trkpt lat="46.028074705973268" lon="6.997830513864756">
        <ele>2110.71</ele>
        <time>2014-07-14T10:50:20Z</time>
      </trkpt>
      <trkpt lat="46.028118962422013" lon="6.997786341235042">
        <ele>2110.23</ele>
        <time>2014-07-14T10:50:26Z</time>
      </trkpt>
      <trkpt lat="46.028180485591292" lon="6.997690200805664">
        <ele>2111.1900000000001</ele>
        <time>2014-07-14T10:50:39Z</time>
      </trkpt>
      <trkpt lat="46.028190795332193" lon="6.997687350958586">
        <ele>2111.1900000000001</ele>
        <time>2014-07-14T10:50:40Z</time>
      </trkpt>
      <trkpt lat="46.028278721496463" lon="6.997589282691479">
        <ele>2109.75</ele>
        <time>2014-07-14T10:50:53Z</time>
      </trkpt>
      <trkpt lat="46.028298251330853" lon="6.997530022636056">
        <ele>2109.75</ele>
        <time>2014-07-14T10:50:58Z</time>
      </trkpt>
      <trkpt lat="46.028322726488113" lon="6.997386189177632">
        <ele>2109.27</ele>
        <time>2014-07-14T10:51:10Z</time>
      </trkpt>
      <trkpt lat="46.028322139754891" lon="6.997361127287149">
        <ele>2108.79</ele>
        <time>2014-07-14T10:51:12Z</time>
      </trkpt>
      <trkpt lat="46.028356840834022" lon="6.997251491993666">
        <ele>2108.79</ele>
        <time>2014-07-14T10:51:22Z</time>
      </trkpt>
      <trkpt lat="46.028438229113817" lon="6.997225005179644">
        <ele>2106.3899999999999</ele>
        <time>2014-07-14T10:51:32Z</time>
      </trkpt>
      <trkpt lat="46.028468320146203" lon="6.997148143127561">
        <ele>2105.4200000000001</ele>
        <time>2014-07-14T10:51:41Z</time>
      </trkpt>
      <trkpt lat="46.028489442542195" lon="6.997082848101854">
        <ele>2105.4200000000001</ele>
        <time>2014-07-14T10:51:55Z</time>
      </trkpt>
      <trkpt lat="46.028539482504129" lon="6.996924178674817">
        <ele>2106.3899999999999</ele>
        <time>2014-07-14T10:52:11Z</time>
      </trkpt>
      <trkpt lat="46.028544930741191" lon="6.996902218088508">
        <ele>2106.3899999999999</ele>
        <time>2014-07-14T10:52:13Z</time>
      </trkpt>
      <trkpt lat="46.028612991794944" lon="6.996793169528246">
        <ele>2107.8299999999999</ele>
        <time>2014-07-14T10:52:27Z</time>
      </trkpt>
      <trkpt lat="46.028674514964223" lon="6.996694430708885">
        <ele>2107.3499999999999</ele>
        <time>2014-07-14T10:52:40Z</time>
      </trkpt>
      <trkpt lat="46.028677951544523" lon="6.99668001383543">
        <ele>2109.27</ele>
        <time>2014-07-14T10:52:42Z</time>
      </trkpt>
      <trkpt lat="46.0286636184901" lon="6.996580520644784">
        <ele>2108.79</ele>
        <time>2014-07-14T10:52:56Z</time>
      </trkpt>
      <trkpt lat="46.028664372861385" lon="6.996535509824753">
        <ele>2108.79</ele>
        <time>2014-07-14T10:53:00Z</time>
      </trkpt>
      <trkpt lat="46.028676945716143" lon="6.996448840945959">
        <ele>2108.79</ele>
        <time>2014-07-14T10:53:07Z</time>
      </trkpt>
      <trkpt lat="46.02871298789978" lon="6.996303666383028">
        <ele>2107.8299999999999</ele>
        <time>2014-07-14T10:53:19Z</time>
      </trkpt>
      <trkpt lat="46.028783479705453" lon="6.996262846514583">
        <ele>2107.3499999999999</ele>
        <time>2014-07-14T10:53:31Z</time>
      </trkpt>
      <trkpt lat="46.028812397271395" lon="6.996254213154316">
        <ele>2106.8699999999999</ele>
        <time>2014-07-14T10:53:34Z</time>
      </trkpt>
      <trkpt lat="46.028935275971889" lon="6.996191432699561">
        <ele>2105.9099999999999</ele>
        <time>2014-07-14T10:53:50Z</time>
      </trkpt>
      <trkpt lat="46.028975676745176" lon="6.996176596730948">
        <ele>2104.9400000000001</ele>
        <time>2014-07-14T10:53:55Z</time>
      </trkpt>
      <trkpt lat="46.029125796630979" lon="6.996092777699232">
        <ele>2103.02</ele>
        <time>2014-07-14T10:54:11Z</time>
      </trkpt>
      <trkpt lat="46.029156809672713" lon="6.996052796021104">
        <ele>2103.02</ele>
        <time>2014-07-14T10:54:17Z</time>
      </trkpt>
      <trkpt lat="46.029251776635647" lon="6.996043575927615">
        <ele>2101.5799999999999</ele>
        <time>2014-07-14T10:54:27Z</time>
      </trkpt>
      <trkpt lat="46.029357053339481" lon="6.996020190417767">
        <ele>2100.1399999999999</ele>
        <time>2014-07-14T10:54:40Z</time>
      </trkpt>
      <trkpt lat="46.029434837400913" lon="6.996045839041472">
        <ele>2098.21</ele>
        <time>2014-07-14T10:54:54Z</time>
      </trkpt>
      <trkpt lat="46.029496192932129" lon="6.99606042355299">
        <ele>2096.29</ele>
        <time>2014-07-14T10:55:07Z</time>
      </trkpt>
      <trkpt lat="46.029505245387554" lon="6.996080121025443">
        <ele>2095.3299999999999</ele>
        <time>2014-07-14T10:55:23Z</time>
      </trkpt>
      <trkpt lat="46.029511950910091" lon="6.996089173480868">
        <ele>2094.8499999999999</ele>
        <time>2014-07-14T10:55:46Z</time>
      </trkpt>
      <trkpt lat="46.029521087184548" lon="6.996093280613422">
        <ele>2094.8499999999999</ele>
        <time>2014-07-14T10:56:11Z</time>
      </trkpt>
      <trkpt lat="46.029545143246651" lon="6.996118510141969">
        <ele>2093.4099999999999</ele>
        <time>2014-07-14T10:56:24Z</time>
      </trkpt>
      <trkpt lat="46.029541119933128" lon="6.996139213442802">
        <ele>2092.9299999999998</ele>
        <time>2014-07-14T10:56:43Z</time>
      </trkpt>
      <trkpt lat="46.029540365561843" lon="6.996128316968679">
        <ele>2092.4499999999998</ele>
        <time>2014-07-14T10:57:08Z</time>
      </trkpt>
      <trkpt lat="46.029533408582211" lon="6.996119683608413">
        <ele>2093.4099999999999</ele>
        <time>2014-07-14T10:57:20Z</time>
      </trkpt>
      <trkpt lat="46.029624938964844" lon="6.996111636981368">
        <ele>2093.8899999999999</ele>
        <time>2014-07-14T10:57:35Z</time>
      </trkpt>
      <trkpt lat="46.029595267027617" lon="6.996117169037461">
        <ele>2093.8899999999999</ele>
        <time>2014-07-14T10:57:49Z</time>
      </trkpt>
      <trkpt lat="46.029623262584209" lon="6.996112558990717">
        <ele>2094.3699999999999</ele>
        <time>2014-07-14T10:58:06Z</time>
      </trkpt>
      <trkpt lat="46.029654946178198" lon="6.996096381917596">
        <ele>2093.8899999999999</ele>
        <time>2014-07-14T10:58:28Z</time>
      </trkpt>
      <trkpt lat="46.029642205685377" lon="6.996091268956661">
        <ele>2094.3699999999999</ele>
        <time>2014-07-14T10:58:55Z</time>
      </trkpt>
      <trkpt lat="46.029652431607246" lon="6.996091771870852">
        <ele>2094.3699999999999</ele>
        <time>2014-07-14T10:59:10Z</time>
      </trkpt>
      <trkpt lat="46.029640529304743" lon="6.996108451858163">
        <ele>2094.3699999999999</ele>
        <time>2014-07-14T10:59:37Z</time>
      </trkpt>
      <trkpt lat="46.029628962278366" lon="6.996113397181034">
        <ele>2094.3699999999999</ele>
        <time>2014-07-14T10:59:59Z</time>
      </trkpt>
      <trkpt lat="46.029623933136463" lon="6.99610048905015">
        <ele>2094.3699999999999</ele>
        <time>2014-07-14T11:00:18Z</time>
      </trkpt>
      <trkpt lat="46.029614545404911" lon="6.996085653081536">
        <ele>2094.3699999999999</ele>
        <time>2014-07-14T11:00:35Z</time>
      </trkpt>
      <trkpt lat="46.029633153229952" lon="6.996114738285542">
        <ele>2094.3699999999999</ele>
        <time>2014-07-14T11:00:51Z</time>
      </trkpt>
      <trkpt lat="46.029625106602907" lon="6.99602915905416">
        <ele>2094.8499999999999</ele>
        <time>2014-07-14T11:01:04Z</time>
      </trkpt>
      <trkpt lat="46.029625441879034" lon="6.996008204296231">
        <ele>2095.3299999999999</ele>
        <time>2014-07-14T11:01:16Z</time>
      </trkpt>
      <trkpt lat="46.029638852924109" lon="6.99588012881577">
        <ele>2095.8099999999999</ele>
        <time>2014-07-14T11:01:31Z</time>
      </trkpt>
      <trkpt lat="46.029634578153491" lon="6.995781725272536">
        <ele>2098.21</ele>
        <time>2014-07-14T11:01:45Z</time>
      </trkpt>
      <trkpt lat="46.029674392193556" lon="6.995667479932308">
        <ele>2098.6999999999998</ele>
        <time>2014-07-14T11:01:57Z</time>
      </trkpt>
      <trkpt lat="46.029715966433287" lon="6.995550720021129">
        <ele>2100.6199999999999</ele>
        <time>2014-07-14T11:02:12Z</time>
      </trkpt>
      <trkpt lat="46.029745051637292" lon="6.995430774986744">
        <ele>2102.0599999999999</ele>
        <time>2014-07-14T11:02:24Z</time>
      </trkpt>
      <trkpt lat="46.029778411611915" lon="6.995345028117299">
        <ele>2103.02</ele>
        <time>2014-07-14T11:02:36Z</time>
      </trkpt>
      <trkpt lat="46.02982560172677" lon="6.995249977335334">
        <ele>2101.5799999999999</ele>
        <time>2014-07-14T11:02:48Z</time>
      </trkpt>
      <trkpt lat="46.029856530949473" lon="6.995222819969058">
        <ele>2100.6199999999999</ele>
        <time>2014-07-14T11:02:52Z</time>
      </trkpt>
      <trkpt lat="46.029839431867003" lon="6.995156602934003">
        <ele>2099.6599999999999</ele>
        <time>2014-07-14T11:03:08Z</time>
      </trkpt>
      <trkpt lat="46.029886873438954" lon="6.995021319016814">
        <ele>2098.21</ele>
        <time>2014-07-14T11:03:19Z</time>
      </trkpt>
      <trkpt lat="46.02997069247067" lon="6.994860135018826">
        <ele>2095.8099999999999</ele>
        <time>2014-07-14T11:03:33Z</time>
      </trkpt>
      <trkpt lat="46.030011596158147" lon="6.994660813361406">
        <ele>2095.3299999999999</ele>
        <time>2014-07-14T11:03:49Z</time>
      </trkpt>
      <trkpt lat="46.030008913949132" lon="6.994567774236202">
        <ele>2094.8499999999999</ele>
        <time>2014-07-14T11:03:56Z</time>
      </trkpt>
      <trkpt lat="46.030056187883019" lon="6.994411116465926">
        <ele>2094.8499999999999</ele>
        <time>2014-07-14T11:04:09Z</time>
      </trkpt>
      <trkpt lat="46.03004353120923" lon="6.994267199188471">
        <ele>2094.3699999999999</ele>
        <time>2014-07-14T11:04:20Z</time>
      </trkpt>
      <trkpt lat="46.030070604756474" lon="6.994183044880629">
        <ele>2093.8899999999999</ele>
        <time>2014-07-14T11:04:34Z</time>
      </trkpt>
      <trkpt lat="46.030082758516073" lon="6.994080953299999">
        <ele>2092.4499999999998</ele>
        <time>2014-07-14T11:04:45Z</time>
      </trkpt>
      <trkpt lat="46.030082842335105" lon="6.994055388495326">
        <ele>2092.9299999999998</ele>
        <time>2014-07-14T11:04:47Z</time>
      </trkpt>
      <trkpt lat="46.03015199303627" lon="6.993915662169457">
        <ele>2093.4099999999999</ele>
        <time>2014-07-14T11:04:58Z</time>
      </trkpt>
      <trkpt lat="46.030244445428252" lon="6.99378197081387">
        <ele>2093.8899999999999</ele>
        <time>2014-07-14T11:05:14Z</time>
      </trkpt>
      <trkpt lat="46.030297502875328" lon="6.993689518421888">
        <ele>2094.8499999999999</ele>
        <time>2014-07-14T11:05:26Z</time>
      </trkpt>
      <trkpt lat="46.030385764315724" lon="6.993565633893013">
        <ele>2094.8499999999999</ele>
        <time>2014-07-14T11:05:40Z</time>
      </trkpt>
      <trkpt lat="46.030468828976154" lon="6.993446946144104">
        <ele>2093.4099999999999</ele>
        <time>2014-07-14T11:05:55Z</time>
      </trkpt>
      <trkpt lat="46.030515180900693" lon="6.993376035243273">
        <ele>2091.4899999999998</ele>
        <time>2014-07-14T11:06:07Z</time>
      </trkpt>
      <trkpt lat="46.030518785119057" lon="6.993337394669652">
        <ele>2090.52</ele>
        <time>2014-07-14T11:06:12Z</time>
      </trkpt>
      <trkpt lat="46.030617859214544" lon="6.993167325854302">
        <ele>2087.1599999999999</ele>
        <time>2014-07-14T11:06:27Z</time>
      </trkpt>
      <trkpt lat="46.030694972723722" lon="6.993085099384189">
        <ele>2086.6799999999998</ele>
        <time>2014-07-14T11:06:41Z</time>
      </trkpt>
      <trkpt lat="46.030681310221553" lon="6.99308811686933">
        <ele>2085.7199999999998</ele>
        <time>2014-07-14T11:07:00Z</time>
      </trkpt>
      <trkpt lat="46.030697990208864" lon="6.993091721087694">
        <ele>2086.1999999999998</ele>
        <time>2014-07-14T11:07:23Z</time>
      </trkpt>
      <trkpt lat="46.030840650200844" lon="6.992992563173175">
        <ele>2085.7199999999998</ele>
        <time>2014-07-14T11:07:39Z</time>
      </trkpt>
      <trkpt lat="46.030893875285983" lon="6.99293908663094">
        <ele>2084.2800000000002</ele>
        <time>2014-07-14T11:07:51Z</time>
      </trkpt>
      <trkpt lat="46.030932934954762" lon="6.99287454597652">
        <ele>2081.8699999999999</ele>
        <time>2014-07-14T11:08:05Z</time>
      </trkpt>
      <trkpt lat="46.030996888875961" lon="6.992758372798562">
        <ele>2078.9899999999998</ele>
        <time>2014-07-14T11:08:20Z</time>
      </trkpt>
      <trkpt lat="46.031116330996156" lon="6.992668686434627">
        <ele>2077.0700000000002</ele>
        <time>2014-07-14T11:08:36Z</time>
      </trkpt>
      <trkpt lat="46.031166706234217" lon="6.992644462734461">
        <ele>2077.0700000000002</ele>
        <time>2014-07-14T11:08:42Z</time>
      </trkpt>
      <trkpt lat="46.031235186383128" lon="6.992621328681707">
        <ele>2076.5900000000001</ele>
        <time>2014-07-14T11:08:49Z</time>
      </trkpt>
      <trkpt lat="46.031348425894976" lon="6.992589058354497">
        <ele>2076.0999999999999</ele>
        <time>2014-07-14T11:09:04Z</time>
      </trkpt>
      <trkpt lat="46.031431742012501" lon="6.992606827989221">
        <ele>2075.1399999999999</ele>
        <time>2014-07-14T11:09:18Z</time>
      </trkpt>
      <trkpt lat="46.031502988189459" lon="6.99260238558054">
        <ele>2073.6999999999998</ele>
        <time>2014-07-14T11:09:32Z</time>
      </trkpt>
      <trkpt lat="46.031551770865917" lon="6.992599116638303">
        <ele>2073.2199999999998</ele>
        <time>2014-07-14T11:09:43Z</time>
      </trkpt>
      <trkpt lat="46.03160566650331" lon="6.992603307589889">
        <ele>2072.7399999999998</ele>
        <time>2014-07-14T11:09:57Z</time>
      </trkpt>
      <trkpt lat="46.031644390895963" lon="6.992594841867685">
        <ele>2074.1799999999998</ele>
        <time>2014-07-14T11:10:10Z</time>
      </trkpt>
      <trkpt lat="46.031738938763738" lon="6.992592494934797">
        <ele>2073.6999999999998</ele>
        <time>2014-07-14T11:10:27Z</time>
      </trkpt>
      <trkpt lat="46.031797109171748" lon="6.992624178528786">
        <ele>2073.2199999999998</ele>
        <time>2014-07-14T11:10:42Z</time>
      </trkpt>
      <trkpt lat="46.031839437782764" lon="6.992536336183548">
        <ele>2073.2199999999998</ele>
        <time>2014-07-14T11:10:58Z</time>
      </trkpt>
      <trkpt lat="46.031822422519326" lon="6.99247581884265">
        <ele>2073.6999999999998</ele>
        <time>2014-07-14T11:11:11Z</time>
      </trkpt>
      <trkpt lat="46.031824769452214" lon="6.99247338809073">
        <ele>2074.1799999999998</ele>
        <time>2014-07-14T11:11:13Z</time>
      </trkpt>
      <trkpt lat="46.031803814694285" lon="6.992328967899084">
        <ele>2073.2199999999998</ele>
        <time>2014-07-14T11:11:26Z</time>
      </trkpt>
      <trkpt lat="46.0318064969033" lon="6.992251435294747">
        <ele>2073.2199999999998</ele>
        <time>2014-07-14T11:11:32Z</time>
      </trkpt>
      <trkpt lat="46.031789062544703" lon="6.99213769286871">
        <ele>2073.2199999999998</ele>
        <time>2014-07-14T11:11:45Z</time>
      </trkpt>
      <trkpt lat="46.031782608479261" lon="6.992035433650017">
        <ele>2071.3000000000002</ele>
        <time>2014-07-14T11:11:57Z</time>
      </trkpt>
      <trkpt lat="46.031751176342368" lon="6.991880116984248">
        <ele>2071.3000000000002</ele>
        <time>2014-07-14T11:12:11Z</time>
      </trkpt>
      <trkpt lat="46.031730892136693" lon="6.99179126881063">
        <ele>2072.2600000000002</ele>
        <time>2014-07-14T11:12:25Z</time>
      </trkpt>
      <trkpt lat="46.03172292932868" lon="6.991676688194275">
        <ele>2072.2600000000002</ele>
        <time>2014-07-14T11:12:36Z</time>
      </trkpt>
      <trkpt lat="46.03167993016541" lon="6.991579290479422">
        <ele>2073.2199999999998</ele>
        <time>2014-07-14T11:12:52Z</time>
      </trkpt>
      <trkpt lat="46.031652018427849" lon="6.991452891379595">
        <ele>2075.1399999999999</ele>
        <time>2014-07-14T11:13:08Z</time>
      </trkpt>
      <trkpt lat="46.031618406996131" lon="6.991364378482103">
        <ele>2076.0999999999999</ele>
        <time>2014-07-14T11:13:24Z</time>
      </trkpt>
      <trkpt lat="46.031573312357068" lon="6.991294389590621">
        <ele>2078.9899999999998</ele>
        <time>2014-07-14T11:13:38Z</time>
      </trkpt>
      <trkpt lat="46.031566103920341" lon="6.991204200312495">
        <ele>2079.9499999999998</ele>
        <time>2014-07-14T11:13:50Z</time>
      </trkpt>
      <trkpt lat="46.031553111970425" lon="6.99110277928412">
        <ele>2080.9099999999999</ele>
        <time>2014-07-14T11:14:03Z</time>
      </trkpt>
      <trkpt lat="46.031541293486953" lon="6.990995742380619">
        <ele>2080.4299999999998</ele>
        <time>2014-07-14T11:14:16Z</time>
      </trkpt>
      <trkpt lat="46.031535509973764" lon="6.99092541821301">
        <ele>2079.4699999999998</ele>
        <time>2014-07-14T11:14:33Z</time>
      </trkpt>
      <trkpt lat="46.031548837199807" lon="6.990890046581626">
        <ele>2078.9899999999998</ele>
        <time>2014-07-14T11:14:37Z</time>
      </trkpt>
      <trkpt lat="46.031537521630526" lon="6.990770855918527">
        <ele>2078.5100000000002</ele>
        <time>2014-07-14T11:14:50Z</time>
      </trkpt>
      <trkpt lat="46.031497288495302" lon="6.990627106279135">
        <ele>2078.0300000000002</ele>
        <time>2014-07-14T11:15:05Z</time>
      </trkpt>
      <trkpt lat="46.031455211341381" lon="6.990486038848758">
        <ele>2078.0300000000002</ele>
        <time>2014-07-14T11:15:21Z</time>
      </trkpt>
      <trkpt lat="46.031456384807825" lon="6.990378499031067">
        <ele>2078.5100000000002</ele>
        <time>2014-07-14T11:15:33Z</time>
      </trkpt>
      <trkpt lat="46.031383210793138" lon="6.990307001397014">
        <ele>2080.4299999999998</ele>
        <time>2014-07-14T11:15:47Z</time>
      </trkpt>
      <trkpt lat="46.031325878575444" lon="6.990229217335582">
        <ele>2082.3499999999999</ele>
        <time>2014-07-14T11:16:00Z</time>
      </trkpt>
      <trkpt lat="46.031310874968767" lon="6.990201389417052">
        <ele>2082.3499999999999</ele>
        <time>2014-07-14T11:16:03Z</time>
      </trkpt>
      <trkpt lat="46.031267959624529" lon="6.990073397755623">
        <ele>2083.79</ele>
        <time>2014-07-14T11:16:17Z</time>
      </trkpt>
      <trkpt lat="46.031234515830874" lon="6.989946663379669">
        <ele>2084.2800000000002</ele>
        <time>2014-07-14T11:16:30Z</time>
      </trkpt>
      <trkpt lat="46.031222613528371" lon="6.989821773022413">
        <ele>2085.2399999999998</ele>
        <time>2014-07-14T11:16:44Z</time>
      </trkpt>
      <trkpt lat="46.031202413141727" lon="6.989684393629432">
        <ele>2087.1599999999999</ele>
        <time>2014-07-14T11:16:58Z</time>
      </trkpt>
      <trkpt lat="46.031165448948741" lon="6.989598898217082">
        <ele>2088.1199999999999</ele>
        <time>2014-07-14T11:17:13Z</time>
      </trkpt>
      <trkpt lat="46.03112630546093" lon="6.989558413624764">
        <ele>2090.52</ele>
        <time>2014-07-14T11:17:26Z</time>
      </trkpt>
      <trkpt lat="46.031114654615521" lon="6.989442575722933">
        <ele>2091.9699999999998</ele>
        <time>2014-07-14T11:17:40Z</time>
      </trkpt>
      <trkpt lat="46.031111720949411" lon="6.989389015361667">
        <ele>2092.4499999999998</ele>
        <time>2014-07-14T11:17:55Z</time>
      </trkpt>
      <trkpt lat="46.031139297410846" lon="6.98927141726017">
        <ele>2094.8499999999999</ele>
        <time>2014-07-14T11:18:09Z</time>
      </trkpt>
      <trkpt lat="46.031193025410175" lon="6.989195980131626">
        <ele>2095.3299999999999</ele>
        <time>2014-07-14T11:18:24Z</time>
      </trkpt>
      <trkpt lat="46.031172489747405" lon="6.989129008725286">
        <ele>2096.29</ele>
        <time>2014-07-14T11:18:37Z</time>
      </trkpt>
      <trkpt lat="46.031087497249246" lon="6.989021133631468">
        <ele>2098.21</ele>
        <time>2014-07-14T11:18:54Z</time>
      </trkpt>
      <trkpt lat="46.031005522236228" lon="6.988940332084894">
        <ele>2099.6599999999999</ele>
        <time>2014-07-14T11:19:07Z</time>
      </trkpt>
      <trkpt lat="46.030903263017535" lon="6.988796498626471">
        <ele>2099.6599999999999</ele>
        <time>2014-07-14T11:19:23Z</time>
      </trkpt>
      <trkpt lat="46.030843583866954" lon="6.988727683201432">
        <ele>2101.0999999999999</ele>
        <time>2014-07-14T11:19:37Z</time>
      </trkpt>
      <trkpt lat="46.030746437609196" lon="6.988633554428816">
        <ele>2101.5799999999999</ele>
        <time>2014-07-14T11:19:52Z</time>
      </trkpt>
      <trkpt lat="46.030665468424559" lon="6.988562727347016">
        <ele>2104.9400000000001</ele>
        <time>2014-07-14T11:20:08Z</time>
      </trkpt>
      <trkpt lat="46.030663121491671" lon="6.988554261624813">
        <ele>2104.9400000000001</ele>
        <time>2014-07-14T11:20:09Z</time>
      </trkpt>
      <trkpt lat="46.030624732375145" lon="6.988491481170058">
        <ele>2104.9400000000001</ele>
        <time>2014-07-14T11:20:16Z</time>
      </trkpt>
      <trkpt lat="46.030516605824232" lon="6.988407410681248">
        <ele>2106.8699999999999</ele>
        <time>2014-07-14T11:20:31Z</time>
      </trkpt>
      <trkpt lat="46.030429601669312" lon="6.988316718488932">
        <ele>2108.3099999999999</ele>
        <time>2014-07-14T11:20:46Z</time>
      </trkpt>
      <trkpt lat="46.030376795679331" lon="6.98826240375638">
        <ele>2108.3099999999999</ele>
        <time>2014-07-14T11:21:01Z</time>
      </trkpt>
      <trkpt lat="46.030359361320734" lon="6.988209430128336">
        <ele>2108.3099999999999</ele>
        <time>2014-07-14T11:21:07Z</time>
      </trkpt>
      <trkpt lat="46.030276548117399" lon="6.988005917519331">
        <ele>2109.75</ele>
        <time>2014-07-14T11:21:25Z</time>
      </trkpt>
      <trkpt lat="46.030243104323745" lon="6.987914051860571">
        <ele>2111.1900000000001</ele>
        <time>2014-07-14T11:21:39Z</time>
      </trkpt>
      <trkpt lat="46.030206475406885" lon="6.987840794026852">
        <ele>2111.1900000000001</ele>
        <time>2014-07-14T11:21:51Z</time>
      </trkpt>
      <trkpt lat="46.030180742964149" lon="6.987718669697642">
        <ele>2110.71</ele>
        <time>2014-07-14T11:22:04Z</time>
      </trkpt>
      <trkpt lat="46.030143108218908" lon="6.987641556188464">
        <ele>2111.1900000000001</ele>
        <time>2014-07-14T11:22:18Z</time>
      </trkpt>
      <trkpt lat="46.030107317492366" lon="6.987605011090636">
        <ele>2110.71</ele>
        <time>2014-07-14T11:22:24Z</time>
      </trkpt>
      <trkpt lat="46.030073035508394" lon="6.987586487084627">
        <ele>2111.1900000000001</ele>
        <time>2014-07-14T11:22:28Z</time>
      </trkpt>
      <trkpt lat="46.030027354136109" lon="6.987476432695985">
        <ele>2111.1900000000001</ele>
        <time>2014-07-14T11:22:39Z</time>
      </trkpt>
      <trkpt lat="46.029958287253976" lon="6.987383225932717">
        <ele>2112.1500000000001</ele>
        <time>2014-07-14T11:22:53Z</time>
      </trkpt>
      <trkpt lat="46.029882179573178" lon="6.987252635881305">
        <ele>2113.1199999999999</ele>
        <time>2014-07-14T11:23:07Z</time>
      </trkpt>
      <trkpt lat="46.029871618375182" lon="6.987228998914361">
        <ele>2113.1199999999999</ele>
        <time>2014-07-14T11:23:09Z</time>
      </trkpt>
      <trkpt lat="46.029800456017256" lon="6.987042920663953">
        <ele>2114.5599999999999</ele>
        <time>2014-07-14T11:23:25Z</time>
      </trkpt>
      <trkpt lat="46.029734238982201" lon="6.986875953152776">
        <ele>2116.96</ele>
        <time>2014-07-14T11:23:40Z</time>
      </trkpt>
      <trkpt lat="46.029638852924109" lon="6.986807221546769">
        <ele>2117.4400000000001</ele>
        <time>2014-07-14T11:23:54Z</time>
      </trkpt>
      <trkpt lat="46.029535504058003" lon="6.986738489940763">
        <ele>2118.8800000000001</ele>
        <time>2014-07-14T11:24:09Z</time>
      </trkpt>
      <trkpt lat="46.02946937084198" lon="6.986626842990518">
        <ele>2120.3200000000002</ele>
        <time>2014-07-14T11:24:23Z</time>
      </trkpt>
      <trkpt lat="46.029406925663352" lon="6.9865448679775">
        <ele>2121.29</ele>
        <time>2014-07-14T11:24:35Z</time>
      </trkpt>
      <trkpt lat="46.029330315068364" lon="6.986422659829259">
        <ele>2122.25</ele>
        <time>2014-07-14T11:24:50Z</time>
      </trkpt>
      <trkpt lat="46.02930961176753" lon="6.986318053677678">
        <ele>2121.77</ele>
        <time>2014-07-14T11:25:03Z</time>
      </trkpt>
      <trkpt lat="46.029273318126798" lon="6.986225266009569">
        <ele>2122.25</ele>
        <time>2014-07-14T11:25:16Z</time>
      </trkpt>
      <trkpt lat="46.029239036142826" lon="6.986093753948808">
        <ele>2125.1300000000001</ele>
        <time>2014-07-14T11:25:31Z</time>
      </trkpt>
      <trkpt lat="46.029165526852012" lon="6.985962325707078">
        <ele>2126.0900000000001</ele>
        <time>2014-07-14T11:25:46Z</time>
      </trkpt>
      <trkpt lat="46.029130825772882" lon="6.985876327380538">
        <ele>2126.5700000000002</ele>
        <time>2014-07-14T11:25:54Z</time>
      </trkpt>
      <trkpt lat="46.029050024226308" lon="6.985730733722448">
        <ele>2127.5300000000002</ele>
        <time>2014-07-14T11:26:10Z</time>
      </trkpt>
      <trkpt lat="46.029044492170215" lon="6.985724782571197">
        <ele>2127.5300000000002</ele>
        <time>2014-07-14T11:26:11Z</time>
      </trkpt>
      <trkpt lat="46.02901347912848" lon="6.985566448420286">
        <ele>2127.5300000000002</ele>
        <time>2014-07-14T11:26:24Z</time>
      </trkpt>
      <trkpt lat="46.028977269306779" lon="6.985430493950844">
        <ele>2129.9400000000001</ele>
        <time>2014-07-14T11:26:40Z</time>
      </trkpt>
      <trkpt lat="46.028935024514794" lon="6.985293701291084">
        <ele>2130.9000000000001</ele>
        <time>2014-07-14T11:26:54Z</time>
      </trkpt>
      <trkpt lat="46.028857827186584" lon="6.985179372131825">
        <ele>2130.4200000000001</ele>
        <time>2014-07-14T11:27:08Z</time>
      </trkpt>
      <trkpt lat="46.028834776952863" lon="6.985147604718804">
        <ele>2130.4200000000001</ele>
        <time>2014-07-14T11:27:12Z</time>
      </trkpt>
      <trkpt lat="46.028736960142851" lon="6.98499983176589">
        <ele>2128.98</ele>
        <time>2014-07-14T11:27:27Z</time>
      </trkpt>
      <trkpt lat="46.02867728099227" lon="6.984905870631337">
        <ele>2129.46</ele>
        <time>2014-07-14T11:27:38Z</time>
      </trkpt>
      <trkpt lat="46.028638137504458" lon="6.984769580885768">
        <ele>2131.3800000000001</ele>
        <time>2014-07-14T11:27:52Z</time>
      </trkpt>
      <trkpt lat="46.0285927914083" lon="6.984611414372921">
        <ele>2131.8600000000001</ele>
        <time>2014-07-14T11:28:06Z</time>
      </trkpt>
      <trkpt lat="46.028572842478752" lon="6.98454444296658">
        <ele>2131.3800000000001</ele>
        <time>2014-07-14T11:28:13Z</time>
      </trkpt>
      <trkpt lat="46.028567897155881" lon="6.984510999172926">
        <ele>2131.3800000000001</ele>
        <time>2014-07-14T11:28:16Z</time>
      </trkpt>
      <trkpt lat="46.028516851365566" lon="6.984353251755238">
        <ele>2131.3800000000001</ele>
        <time>2014-07-14T11:28:31Z</time>
      </trkpt>
      <trkpt lat="46.028461111709476" lon="6.984221739694476">
        <ele>2132.3400000000001</ele>
        <time>2014-07-14T11:28:45Z</time>
      </trkpt>
      <trkpt lat="46.028449796140194" lon="6.984185865148902">
        <ele>2133.3000000000002</ele>
        <time>2014-07-14T11:28:57Z</time>
      </trkpt>
      <trkpt lat="46.028436217457056" lon="6.984092574566603">
        <ele>2131.8600000000001</ele>
        <time>2014-07-14T11:29:10Z</time>
      </trkpt>
      <trkpt lat="46.028345860540867" lon="6.983964247629046">
        <ele>2131.8600000000001</ele>
        <time>2014-07-14T11:29:27Z</time>
      </trkpt>
      <trkpt lat="46.028235554695129" lon="6.983827035874128">
        <ele>2133.3000000000002</ele>
        <time>2014-07-14T11:29:43Z</time>
      </trkpt>
      <trkpt lat="46.02822876535356" lon="6.983695020899177">
        <ele>2135.23</ele>
        <time>2014-07-14T11:29:55Z</time>
      </trkpt>
      <trkpt lat="46.028216695412993" lon="6.98367272503674">
        <ele>2135.23</ele>
        <time>2014-07-14T11:29:57Z</time>
      </trkpt>
      <trkpt lat="46.028177468106151" lon="6.983548840507865">
        <ele>2134.2600000000002</ele>
        <time>2014-07-14T11:30:11Z</time>
      </trkpt>
      <trkpt lat="46.02813882753253" lon="6.983417328447104">
        <ele>2134.7399999999998</ele>
        <time>2014-07-14T11:30:24Z</time>
      </trkpt>
      <trkpt lat="46.028157854452729" lon="6.983422692865133">
        <ele>2133.7800000000002</ele>
        <time>2014-07-14T11:30:37Z</time>
      </trkpt>
      <trkpt lat="46.028144527226686" lon="6.983416406437755">
        <ele>2132.8200000000002</ele>
        <time>2014-07-14T11:30:51Z</time>
      </trkpt>
      <trkpt lat="46.028159111738205" lon="6.983408192172647">
        <ele>2133.3000000000002</ele>
        <time>2014-07-14T11:31:27Z</time>
      </trkpt>
      <trkpt lat="46.028135055676103" lon="6.983426213264465">
        <ele>2134.2600000000002</ele>
        <time>2014-07-14T11:31:53Z</time>
      </trkpt>
      <trkpt lat="46.028149640187621" lon="6.983383717015386">
        <ele>2134.2600000000002</ele>
        <time>2014-07-14T11:32:11Z</time>
      </trkpt>
      <trkpt lat="46.028155591338873" lon="6.983392434194684">
        <ele>2134.2600000000002</ele>
        <time>2014-07-14T11:32:29Z</time>
      </trkpt>
      <trkpt lat="46.028147293254733" lon="6.983413556590676">
        <ele>2133.7800000000002</ele>
        <time>2014-07-14T11:32:34Z</time>
      </trkpt>
      <trkpt lat="46.028157602995634" lon="6.983418837189674">
        <ele>2134.2600000000002</ele>
        <time>2014-07-14T11:32:43Z</time>
      </trkpt>
      <trkpt lat="46.028147796168923" lon="6.983420681208372">
        <ele>2134.7399999999998</ele>
        <time>2014-07-14T11:33:00Z</time>
      </trkpt>
      <trkpt lat="46.028162464499474" lon="6.983411712571979">
        <ele>2133.7800000000002</ele>
        <time>2014-07-14T11:33:16Z</time>
      </trkpt>
      <trkpt lat="46.028145281597972" lon="6.983393607661128">
        <ele>2133.7800000000002</ele>
        <time>2014-07-14T11:33:39Z</time>
      </trkpt>
      <trkpt lat="46.028167326003313" lon="6.983405677601695">
        <ele>2133.7800000000002</ele>
        <time>2014-07-14T11:34:01Z</time>
      </trkpt>
      <trkpt lat="46.028146119788289" lon="6.983416238799691">
        <ele>2134.2600000000002</ele>
        <time>2014-07-14T11:34:24Z</time>
      </trkpt>
      <trkpt lat="46.028126925230026" lon="6.983324624598026">
        <ele>2134.7399999999998</ele>
        <time>2014-07-14T11:34:39Z</time>
      </trkpt>
      <trkpt lat="46.028111586347222" lon="6.983229154720902">
        <ele>2134.2600000000002</ele>
        <time>2014-07-14T11:34:47Z</time>
      </trkpt>
      <trkpt lat="46.028094906359911" lon="6.983071072027087">
        <ele>2132.3400000000001</ele>
        <time>2014-07-14T11:34:58Z</time>
      </trkpt>
      <trkpt lat="46.028073029592633" lon="6.982874935492873">
        <ele>2132.8200000000002</ele>
        <time>2014-07-14T11:35:12Z</time>
      </trkpt>
      <trkpt lat="46.028036316856742" lon="6.98265683837235">
        <ele>2131.3800000000001</ele>
        <time>2014-07-14T11:35:29Z</time>
      </trkpt>
      <trkpt lat="46.028030784800649" lon="6.982466820627451">
        <ele>2132.3400000000001</ele>
        <time>2014-07-14T11:35:44Z</time>
      </trkpt>
      <trkpt lat="46.028017122298479" lon="6.982433209195733">
        <ele>2132.8200000000002</ele>
        <time>2014-07-14T11:35:48Z</time>
      </trkpt>
      <trkpt lat="46.0280298627913" lon="6.98233631439507">
        <ele>2132.3400000000001</ele>
        <time>2014-07-14T11:35:54Z</time>
      </trkpt>
      <trkpt lat="46.028022821992636" lon="6.98222441598773">
        <ele>2132.8200000000002</ele>
        <time>2014-07-14T11:36:02Z</time>
      </trkpt>
      <trkpt lat="46.028026090934873" lon="6.982160964980722">
        <ele>2132.8200000000002</ele>
        <time>2014-07-14T11:36:07Z</time>
      </trkpt>
      <trkpt lat="46.028040507808328" lon="6.981953009963036">
        <ele>2131.8600000000001</ele>
        <time>2014-07-14T11:36:22Z</time>
      </trkpt>
      <trkpt lat="46.028040507808328" lon="6.981761734932661">
        <ele>2130.9000000000001</ele>
        <time>2014-07-14T11:36:36Z</time>
      </trkpt>
      <trkpt lat="46.028053080663085" lon="6.98171085678041">
        <ele>2129.46</ele>
        <time>2014-07-14T11:36:40Z</time>
      </trkpt>
      <trkpt lat="46.028041681274772" lon="6.981643382459879">
        <ele>2129.46</ele>
        <time>2014-07-14T11:36:46Z</time>
      </trkpt>
      <trkpt lat="46.028059450909495" lon="6.98149586096406">
        <ele>2127.5300000000002</ele>
        <time>2014-07-14T11:36:59Z</time>
      </trkpt>
      <trkpt lat="46.028083004057407" lon="6.981335179880261">
        <ele>2128.02</ele>
        <time>2014-07-14T11:37:13Z</time>
      </trkpt>
      <trkpt lat="46.028121393173933" lon="6.98112839832902">
        <ele>2129.9400000000001</ele>
        <time>2014-07-14T11:37:29Z</time>
      </trkpt>
      <trkpt lat="46.028133044019341" lon="6.980930082499981">
        <ele>2132.3400000000001</ele>
        <time>2014-07-14T11:37:45Z</time>
      </trkpt>
      <trkpt lat="46.028149137273431" lon="6.980752469971776">
        <ele>2134.7399999999998</ele>
        <time>2014-07-14T11:38:00Z</time>
      </trkpt>
      <trkpt lat="46.028148550540209" lon="6.980633195489645">
        <ele>2134.7399999999998</ele>
        <time>2014-07-14T11:38:13Z</time>
      </trkpt>
      <trkpt lat="46.028146371245384" lon="6.980551388114691">
        <ele>2135.23</ele>
        <time>2014-07-14T11:38:21Z</time>
      </trkpt>
      <trkpt lat="46.028175372630358" lon="6.980432281270623">
        <ele>2136.1900000000001</ele>
        <time>2014-07-14T11:38:31Z</time>
      </trkpt>
      <trkpt lat="46.028175204992294" lon="6.980378553271294">
        <ele>2136.1900000000001</ele>
        <time>2014-07-14T11:38:36Z</time>
      </trkpt>
      <trkpt lat="46.028179647400975" lon="6.980347456410527">
        <ele>2137.6300000000001</ele>
        <time>2014-07-14T11:38:41Z</time>
      </trkpt>
      <trkpt lat="46.02817059494555" lon="6.980345947667956">
        <ele>2138.1100000000001</ele>
        <time>2014-07-14T11:38:43Z</time>
      </trkpt>
      <trkpt lat="46.028087781742215" lon="6.980228936299682">
        <ele>2139.0700000000002</ele>
        <time>2014-07-14T11:38:58Z</time>
      </trkpt>
      <trkpt lat="46.027979403734207" lon="6.980095747858286">
        <ele>2139.5500000000002</ele>
        <time>2014-07-14T11:39:14Z</time>
      </trkpt>
      <trkpt lat="46.02789499796927" lon="6.979999607428908">
        <ele>2139.5500000000002</ele>
        <time>2014-07-14T11:39:25Z</time>
      </trkpt>
      <trkpt lat="46.027807658538222" lon="6.979847559705377">
        <ele>2140.5100000000002</ele>
        <time>2014-07-14T11:39:40Z</time>
      </trkpt>
      <trkpt lat="46.027750242501497" lon="6.979779582470655">
        <ele>2140.0300000000002</ele>
        <time>2014-07-14T11:39:49Z</time>
      </trkpt>
      <trkpt lat="46.027739262208343" lon="6.979736080393195">
        <ele>2139.0700000000002</ele>
        <time>2014-07-14T11:39:52Z</time>
      </trkpt>
      <trkpt lat="46.02768000215292" lon="6.979527035728097">
        <ele>2138.5900000000001</ele>
        <time>2014-07-14T11:40:08Z</time>
      </trkpt>
      <trkpt lat="46.027610935270786" lon="6.979409856721759">
        <ele>2141.4699999999998</ele>
        <time>2014-07-14T11:40:22Z</time>
      </trkpt>
      <trkpt lat="46.027542287483811" lon="6.979341460391879">
        <ele>2143.4000000000001</ele>
        <time>2014-07-14T11:40:37Z</time>
      </trkpt>
      <trkpt lat="46.027474394068122" lon="6.979253618046641">
        <ele>2144.8400000000001</ele>
        <time>2014-07-14T11:40:53Z</time>
      </trkpt>
      <trkpt lat="46.027468862012029" lon="6.97924523614347">
        <ele>2144.3600000000001</ele>
        <time>2014-07-14T11:40:54Z</time>
      </trkpt>
      <trkpt lat="46.02743617258966" lon="6.979130739346147">
        <ele>2143.4000000000001</ele>
        <time>2014-07-14T11:41:08Z</time>
      </trkpt>
      <trkpt lat="46.027435502037406" lon="6.979093356058002">
        <ele>2143.4000000000001</ele>
        <time>2014-07-14T11:41:19Z</time>
      </trkpt>
      <trkpt lat="46.0273995436728" lon="6.979028396308422">
        <ele>2145.3200000000002</ele>
        <time>2014-07-14T11:41:39Z</time>
      </trkpt>
      <trkpt lat="46.027373978868127" lon="6.978920269757509">
        <ele>2148.1999999999998</ele>
        <time>2014-07-14T11:41:53Z</time>
      </trkpt>
      <trkpt lat="46.027372470125556" lon="6.9789017457515">
        <ele>2148.1999999999998</ele>
        <time>2014-07-14T11:41:55Z</time>
      </trkpt>
      <trkpt lat="46.027392251417041" lon="6.978761348873377">
        <ele>2149.1599999999999</ele>
        <time>2014-07-14T11:42:09Z</time>
      </trkpt>
      <trkpt lat="46.027386635541916" lon="6.978711895644665">
        <ele>2150.6100000000001</ele>
        <time>2014-07-14T11:42:22Z</time>
      </trkpt>
      <trkpt lat="46.027360903099179" lon="6.978632938116789">
        <ele>2153.0100000000002</ele>
        <time>2014-07-14T11:42:38Z</time>
      </trkpt>
      <trkpt lat="46.027310192584991" lon="6.978570157662034">
        <ele>2153.4899999999998</ele>
        <time>2014-07-14T11:42:48Z</time>
      </trkpt>
      <trkpt lat="46.027251770719886" lon="6.978423306718469">
        <ele>2151.5700000000002</ele>
        <time>2014-07-14T11:43:02Z</time>
      </trkpt>
      <trkpt lat="46.027210028842092" lon="6.978274611756206">
        <ele>2150.6100000000001</ele>
        <time>2014-07-14T11:43:15Z</time>
      </trkpt>
      <trkpt lat="46.027174489572644" lon="6.978120468556881">
        <ele>2152.5300000000002</ele>
        <time>2014-07-14T11:43:29Z</time>
      </trkpt>
      <trkpt lat="46.027140123769641" lon="6.978006642311811">
        <ele>2153.4899999999998</ele>
        <time>2014-07-14T11:43:43Z</time>
      </trkpt>
      <trkpt lat="46.027114223688841" lon="6.977918883785605">
        <ele>2153.9699999999998</ele>
        <time>2014-07-14T11:43:50Z</time>
      </trkpt>
      <trkpt lat="46.027086395770311" lon="6.977806147187948">
        <ele>2155.4099999999999</ele>
        <time>2014-07-14T11:44:04Z</time>
      </trkpt>
      <trkpt lat="46.027061250060797" lon="6.977686453610659">
        <ele>2156.8600000000001</ele>
        <time>2014-07-14T11:44:20Z</time>
      </trkpt>
      <trkpt lat="46.02706678211689" lon="6.977558461949229">
        <ele>2158.3000000000002</ele>
        <time>2014-07-14T11:44:34Z</time>
      </trkpt>
      <trkpt lat="46.027038283646107" lon="6.977489814162254">
        <ele>2159.2600000000002</ele>
        <time>2014-07-14T11:44:46Z</time>
      </trkpt>
      <trkpt lat="46.027024118229747" lon="6.977414712309837">
        <ele>2161.1799999999998</ele>
        <time>2014-07-14T11:44:56Z</time>
      </trkpt>
      <trkpt lat="46.026961002498865" lon="6.977328043431044">
        <ele>2160.6999999999998</ele>
        <time>2014-07-14T11:45:09Z</time>
      </trkpt>
      <trkpt lat="46.026909034699202" lon="6.977227460592985">
        <ele>2161.6599999999999</ele>
        <time>2014-07-14T11:45:22Z</time>
      </trkpt>
      <trkpt lat="46.026881374418736" lon="6.977056050673127">
        <ele>2163.0999999999999</ele>
        <time>2014-07-14T11:45:40Z</time>
      </trkpt>
      <trkpt lat="46.026878105476499" lon="6.976919677108526">
        <ele>2164.5500000000002</ele>
        <time>2014-07-14T11:45:55Z</time>
      </trkpt>
      <trkpt lat="46.026875758543611" lon="6.976864691823721">
        <ele>2164.5500000000002</ele>
        <time>2014-07-14T11:46:00Z</time>
      </trkpt>
      <trkpt lat="46.026878273114562" lon="6.976757068186998">
        <ele>2166.9499999999998</ele>
        <time>2014-07-14T11:46:12Z</time>
      </trkpt>
      <trkpt lat="46.026885230094194" lon="6.976746842265129">
        <ele>2167.4299999999998</ele>
        <time>2014-07-14T11:46:13Z</time>
      </trkpt>
      <trkpt lat="46.026917835697532" lon="6.976707531139255">
        <ele>2166.9499999999998</ele>
        <time>2014-07-14T11:46:25Z</time>
      </trkpt>
      <trkpt lat="46.026901910081506" lon="6.976658748462796">
        <ele>2168.8699999999999</ele>
        <time>2014-07-14T11:46:42Z</time>
      </trkpt>
      <trkpt lat="46.026895456016064" lon="6.976660005748272">
        <ele>2168.8699999999999</ele>
        <time>2014-07-14T11:46:43Z</time>
      </trkpt>
      <trkpt lat="46.026807529851794" lon="6.97659001685679">
        <ele>2169.3499999999999</ele>
        <time>2014-07-14T11:46:55Z</time>
      </trkpt>
      <trkpt lat="46.026752376928926" lon="6.976488009095192">
        <ele>2171.27</ele>
        <time>2014-07-14T11:47:07Z</time>
      </trkpt>
      <trkpt lat="46.02667685598135" lon="6.976372925564647">
        <ele>2174.1599999999999</ele>
        <time>2014-07-14T11:47:22Z</time>
      </trkpt>
      <trkpt lat="46.026617093011737" lon="6.976272175088525">
        <ele>2177.04</ele>
        <time>2014-07-14T11:47:36Z</time>
      </trkpt>
      <trkpt lat="46.026556408032775" lon="6.97620889171958">
        <ele>2179.4499999999998</ele>
        <time>2014-07-14T11:47:51Z</time>
      </trkpt>
      <trkpt lat="46.026506116613746" lon="6.976069500669837">
        <ele>2181.8499999999999</ele>
        <time>2014-07-14T11:48:08Z</time>
      </trkpt>
      <trkpt lat="46.026478121057153" lon="6.975940503180027">
        <ele>2184.25</ele>
        <time>2014-07-14T11:48:23Z</time>
      </trkpt>
      <trkpt lat="46.026433194056153" lon="6.975863557308912">
        <ele>2186.1799999999998</ele>
        <time>2014-07-14T11:48:39Z</time>
      </trkpt>
      <trkpt lat="46.026404025033116" lon="6.975761214271188">
        <ele>2187.6199999999999</ele>
        <time>2014-07-14T11:48:52Z</time>
      </trkpt>
      <trkpt lat="46.026414418593049" lon="6.97564696893096">
        <ele>2188.5799999999999</ele>
        <time>2014-07-14T11:49:02Z</time>
      </trkpt>
      <trkpt lat="46.026438307017088" lon="6.975460387766361">
        <ele>2190.5</ele>
        <time>2014-07-14T11:49:17Z</time>
      </trkpt>
      <trkpt lat="46.026436211541295" lon="6.975451083853841">
        <ele>2190.5</ele>
        <time>2014-07-14T11:49:18Z</time>
      </trkpt>
      <trkpt lat="46.026437301188707" lon="6.975385285913944">
        <ele>2191.46</ele>
        <time>2014-07-14T11:49:23Z</time>
      </trkpt>
      <trkpt lat="46.026420453563333" lon="6.975142629817128">
        <ele>2192.9000000000001</ele>
        <time>2014-07-14T11:49:41Z</time>
      </trkpt>
      <trkpt lat="46.026380136609077" lon="6.974997203797102">
        <ele>2195.79</ele>
        <time>2014-07-14T11:49:55Z</time>
      </trkpt>
      <trkpt lat="46.026337556540966" lon="6.974933501332998">
        <ele>2198.6700000000001</ele>
        <time>2014-07-14T11:50:05Z</time>
      </trkpt>
      <trkpt lat="46.026331186294556" lon="6.974777681753039">
        <ele>2201.0799999999999</ele>
        <time>2014-07-14T11:50:21Z</time>
      </trkpt>
      <trkpt lat="46.02639589458704" lon="6.974720433354378">
        <ele>2203</ele>
        <time>2014-07-14T11:50:36Z</time>
      </trkpt>
      <trkpt lat="46.026459932327271" lon="6.974664945155382">
        <ele>2205.8800000000001</ele>
        <time>2014-07-14T11:50:50Z</time>
      </trkpt>
      <trkpt lat="46.026455573737621" lon="6.97457785718143">
        <ele>2208.29</ele>
        <time>2014-07-14T11:51:04Z</time>
      </trkpt>
      <trkpt lat="46.02649069391191" lon="6.974565703421831">
        <ele>2209.73</ele>
        <time>2014-07-14T11:51:17Z</time>
      </trkpt>
      <trkpt lat="46.026493208482862" lon="6.974525302648544">
        <ele>2212.1300000000001</ele>
        <time>2014-07-14T11:51:22Z</time>
      </trkpt>
      <trkpt lat="46.026480300351977" lon="6.974392868578434">
        <ele>2215.0100000000002</ele>
        <time>2014-07-14T11:51:38Z</time>
      </trkpt>
      <trkpt lat="46.026417100802064" lon="6.974305864423513">
        <ele>2214.5300000000002</ele>
        <time>2014-07-14T11:51:52Z</time>
      </trkpt>
      <trkpt lat="46.026368401944637" lon="6.97426806204021">
        <ele>2214.5300000000002</ele>
        <time>2014-07-14T11:52:06Z</time>
      </trkpt>
      <trkpt lat="46.026374520733953" lon="6.974246604368091">
        <ele>2214.0500000000002</ele>
        <time>2014-07-14T11:52:22Z</time>
      </trkpt>
      <trkpt lat="46.02636119350791" lon="6.974241742864251">
        <ele>2215.98</ele>
        <time>2014-07-14T11:52:39Z</time>
      </trkpt>
      <trkpt lat="46.026271758601069" lon="6.974101765081286">
        <ele>2215.98</ele>
        <time>2014-07-14T11:52:55Z</time>
      </trkpt>
      <trkpt lat="46.026224065572023" lon="6.973995063453913">
        <ele>2215.5</ele>
        <time>2014-07-14T11:53:06Z</time>
      </trkpt>
      <trkpt lat="46.026210822165012" lon="6.973975617438555">
        <ele>2215.5</ele>
        <time>2014-07-14T11:53:08Z</time>
      </trkpt>
      <trkpt lat="46.026135971769691" lon="6.973782079294324">
        <ele>2216.46</ele>
        <time>2014-07-14T11:53:22Z</time>
      </trkpt>
      <trkpt lat="46.026108060032129" lon="6.973682502284646">
        <ele>2216.9400000000001</ele>
        <time>2014-07-14T11:53:28Z</time>
      </trkpt>
      <trkpt lat="46.026061791926622" lon="6.973474966362119">
        <ele>2217.4200000000001</ele>
        <time>2014-07-14T11:53:42Z</time>
      </trkpt>
      <trkpt lat="46.026055589318275" lon="6.97340564802289">
        <ele>2217.4200000000001</ele>
        <time>2014-07-14T11:53:47Z</time>
      </trkpt>
      <trkpt lat="46.026047794148326" lon="6.973110605031252">
        <ele>2216.9400000000001</ele>
        <time>2014-07-14T11:54:05Z</time>
      </trkpt>
      <trkpt lat="46.026037819683552" lon="6.973018404096365">
        <ele>2216.9400000000001</ele>
        <time>2014-07-14T11:54:10Z</time>
      </trkpt>
      <trkpt lat="46.026013093069196" lon="6.972984960302711">
        <ele>2216.46</ele>
        <time>2014-07-14T11:54:13Z</time>
      </trkpt>
      <trkpt lat="46.026001526042819" lon="6.972755882889032">
        <ele>2215.98</ele>
        <time>2014-07-14T11:54:27Z</time>
      </trkpt>
      <trkpt lat="46.025983085855842" lon="6.97249629534781">
        <ele>2214.5300000000002</ele>
        <time>2014-07-14T11:54:42Z</time>
      </trkpt>
      <trkpt lat="46.025982666760683" lon="6.972285322844982">
        <ele>2211.6500000000001</ele>
        <time>2014-07-14T11:54:55Z</time>
      </trkpt>
      <trkpt lat="46.025984091684222" lon="6.972150709480047">
        <ele>2210.21</ele>
        <time>2014-07-14T11:55:07Z</time>
      </trkpt>
      <trkpt lat="46.025984929874539" lon="6.972126066684723">
        <ele>2210.21</ele>
        <time>2014-07-14T11:55:09Z</time>
      </trkpt>
      <trkpt lat="46.025984846055508" lon="6.971882991492748">
        <ele>2210.21</ele>
        <time>2014-07-14T11:55:24Z</time>
      </trkpt>
      <trkpt lat="46.026028431952" lon="6.971800345927477">
        <ele>2209.25</ele>
        <time>2014-07-14T11:55:29Z</time>
      </trkpt>
      <trkpt lat="46.026073861867189" lon="6.971543272957206">
        <ele>2208.29</ele>
        <time>2014-07-14T11:55:44Z</time>
      </trkpt>
      <trkpt lat="46.02612616494298" lon="6.971322996541858">
        <ele>2207.3200000000002</ele>
        <time>2014-07-14T11:55:59Z</time>
      </trkpt>
      <trkpt lat="46.026178300380707" lon="6.971154101192951">
        <ele>2207.8099999999999</ele>
        <time>2014-07-14T11:56:12Z</time>
      </trkpt>
      <trkpt lat="46.026265472173691" lon="6.970863081514835">
        <ele>2208.29</ele>
        <time>2014-07-14T11:56:30Z</time>
      </trkpt>
      <trkpt lat="46.026265723630786" lon="6.970558147877455">
        <ele>2205.8800000000001</ele>
        <time>2014-07-14T11:56:47Z</time>
      </trkpt>
      <trkpt lat="46.026379466056824" lon="6.970295794308186">
        <ele>2205.8800000000001</ele>
        <time>2014-07-14T11:57:04Z</time>
      </trkpt>
      <trkpt lat="46.026454567909241" lon="6.970252208411694">
        <ele>2206.3600000000001</ele>
        <time>2014-07-14T11:57:17Z</time>
      </trkpt>
      <trkpt lat="46.026562862098217" lon="6.970223877578974">
        <ele>2207.8099999999999</ele>
        <time>2014-07-14T11:57:32Z</time>
      </trkpt>
      <trkpt lat="46.026697559282184" lon="6.970278359949589">
        <ele>2209.25</ele>
        <time>2014-07-14T11:57:47Z</time>
      </trkpt>
      <trkpt lat="46.026703594252467" lon="6.970273666083813">
        <ele>2208.77</ele>
        <time>2014-07-14T11:57:48Z</time>
      </trkpt>
      <trkpt lat="46.026732847094536" lon="6.970254303887487">
        <ele>2209.25</ele>
        <time>2014-07-14T11:57:52Z</time>
      </trkpt>
      <trkpt lat="46.026745000854135" lon="6.970225302502513">
        <ele>2209.73</ele>
        <time>2014-07-14T11:58:11Z</time>
      </trkpt>
      <trkpt lat="46.026734691113234" lon="6.970252878963947">
        <ele>2209.73</ele>
        <time>2014-07-14T11:58:38Z</time>
      </trkpt>
      <trkpt lat="46.026734272018075" lon="6.97025153785944">
        <ele>2209.73</ele>
        <time>2014-07-14T11:58:58Z</time>
      </trkpt>
      <trkpt lat="46.02675111964345" lon="6.970245921984315">
        <ele>2209.73</ele>
        <time>2014-07-14T11:59:17Z</time>
      </trkpt>
      <trkpt lat="46.026749694719911" lon="6.970226308330894">
        <ele>2209.73</ele>
        <time>2014-07-14T11:59:36Z</time>
      </trkpt>
      <trkpt lat="46.026757154613733" lon="6.970255561172962">
        <ele>2209.73</ele>
        <time>2014-07-14T11:59:50Z</time>
      </trkpt>
      <trkpt lat="46.026736032217741" lon="6.970238797366619">
        <ele>2209.25</ele>
        <time>2014-07-14T12:00:12Z</time>
      </trkpt>
      <trkpt lat="46.026736283674836" lon="6.970239970833063">
        <ele>2209.73</ele>
        <time>2014-07-14T12:00:34Z</time>
      </trkpt>
      <trkpt lat="46.026753298938274" lon="6.970237120985985">
        <ele>2209.73</ele>
        <time>2014-07-14T12:01:03Z</time>
      </trkpt>
      <trkpt lat="46.026761932298541" lon="6.970247346907854">
        <ele>2210.21</ele>
        <time>2014-07-14T12:01:27Z</time>
      </trkpt>
      <trkpt lat="46.026753466576338" lon="6.970259919762611">
        <ele>2210.21</ele>
        <time>2014-07-14T12:01:48Z</time>
      </trkpt>
      <trkpt lat="46.026759836822748" lon="6.970266876742244">
        <ele>2210.21</ele>
        <time>2014-07-14T12:02:13Z</time>
      </trkpt>
      <trkpt lat="46.026762016117573" lon="6.970300320535898">
        <ele>2210.6900000000001</ele>
        <time>2014-07-14T12:02:31Z</time>
      </trkpt>
      <trkpt lat="46.026750784367323" lon="6.970244999974966">
        <ele>2210.6900000000001</ele>
        <time>2014-07-14T12:02:51Z</time>
      </trkpt>
      <trkpt lat="46.026757741346955" lon="6.970231588929892">
        <ele>2210.6900000000001</ele>
        <time>2014-07-14T12:03:16Z</time>
      </trkpt>
      <trkpt lat="46.026757238432765" lon="6.970263356342912">
        <ele>2210.6900000000001</ele>
        <time>2014-07-14T12:03:43Z</time>
      </trkpt>
      <trkpt lat="46.026760675013065" lon="6.970230247825384">
        <ele>2211.1700000000001</ele>
        <time>2014-07-14T12:04:07Z</time>
      </trkpt>
      <trkpt lat="46.026754137128592" lon="6.970239048823714">
        <ele>2211.1700000000001</ele>
        <time>2014-07-14T12:04:31Z</time>
      </trkpt>
      <trkpt lat="46.026757657527924" lon="6.970244497060776">
        <ele>2211.1700000000001</ele>
        <time>2014-07-14T12:05:01Z</time>
      </trkpt>
      <trkpt lat="46.026764782145619" lon="6.970231840386987">
        <ele>2211.1700000000001</ele>
        <time>2014-07-14T12:05:16Z</time>
      </trkpt>
      <trkpt lat="46.02677115239203" lon="6.970238713547587">
        <ele>2211.1700000000001</ele>
        <time>2014-07-14T12:05:38Z</time>
      </trkpt>
      <trkpt lat="46.026773080229759" lon="6.970242988318205">
        <ele>2210.6900000000001</ele>
        <time>2014-07-14T12:06:00Z</time>
      </trkpt>
      <trkpt lat="46.026777690276504" lon="6.970272408798337">
        <ele>2210.6900000000001</ele>
        <time>2014-07-14T12:06:13Z</time>
      </trkpt>
      <trkpt lat="46.026774337515235" lon="6.970248855650425">
        <ele>2211.1700000000001</ele>
        <time>2014-07-14T12:06:32Z</time>
      </trkpt>
      <trkpt lat="46.026778779923916" lon="6.970265870913863">
        <ele>2211.6500000000001</ele>
        <time>2014-07-14T12:06:57Z</time>
      </trkpt>
      <trkpt lat="46.026785904541612" lon="6.970242317765951">
        <ele>2211.1700000000001</ele>
        <time>2014-07-14T12:07:11Z</time>
      </trkpt>
      <trkpt lat="46.026795040816069" lon="6.970221195369959">
        <ele>2211.6500000000001</ele>
        <time>2014-07-14T12:07:27Z</time>
      </trkpt>
      <trkpt lat="46.02679118514061" lon="6.970270229503512">
        <ele>2211.6500000000001</ele>
        <time>2014-07-14T12:07:44Z</time>
      </trkpt>
      <trkpt lat="46.02678338997066" lon="6.970257824286819">
        <ele>2211.6500000000001</ele>
        <time>2014-07-14T12:07:56Z</time>
      </trkpt>
      <trkpt lat="46.026807110756636" lon="6.970251202583313">
        <ele>2212.1300000000001</ele>
        <time>2014-07-14T12:08:12Z</time>
      </trkpt>
      <trkpt lat="46.026841895654798" lon="6.970284646376967">
        <ele>2212.1300000000001</ele>
        <time>2014-07-14T12:08:33Z</time>
      </trkpt>
      <trkpt lat="46.026868969202042" lon="6.970346253365278">
        <ele>2211.6500000000001</ele>
        <time>2014-07-14T12:08:57Z</time>
      </trkpt>
      <trkpt lat="46.026855390518904" lon="6.970220357179642">
        <ele>2212.6100000000001</ele>
        <time>2014-07-14T12:54:29Z</time>
      </trkpt>
      <trkpt lat="46.026750700548291" lon="6.970221111550927">
        <ele>2212.6100000000001</ele>
        <time>2014-07-14T12:54:55Z</time>
      </trkpt>
      <trkpt lat="46.026727817952633" lon="6.970212059095502">
        <ele>2213.0900000000001</ele>
        <time>2014-07-14T12:55:08Z</time>
      </trkpt>
      <trkpt lat="46.026737708598375" lon="6.97022370994091">
        <ele>2213.0900000000001</ele>
        <time>2014-07-14T12:55:22Z</time>
      </trkpt>
      <trkpt lat="46.026769895106554" lon="6.970211723819375">
        <ele>2212.6100000000001</ele>
        <time>2014-07-14T12:55:39Z</time>
      </trkpt>
      <trkpt lat="46.026770230382681" lon="6.970210131257772">
        <ele>2213.5700000000002</ele>
        <time>2014-07-14T12:55:40Z</time>
      </trkpt>
      <trkpt lat="46.026710132136941" lon="6.970235612243414">
        <ele>2212.6100000000001</ele>
        <time>2014-07-14T12:55:54Z</time>
      </trkpt>
      <trkpt lat="46.026727650314569" lon="6.970221363008022">
        <ele>2213.0900000000001</ele>
        <time>2014-07-14T12:56:08Z</time>
      </trkpt>
      <trkpt lat="46.026746928691864" lon="6.970235779881477">
        <ele>2212.1300000000001</ele>
        <time>2014-07-14T12:56:28Z</time>
      </trkpt>
      <trkpt lat="46.026691105216742" lon="6.970257824286819">
        <ele>2211.6500000000001</ele>
        <time>2014-07-14T12:56:52Z</time>
      </trkpt>
      <trkpt lat="46.0267105512321" lon="6.970277186483145">
        <ele>2211.6500000000001</ele>
        <time>2014-07-14T12:57:22Z</time>
      </trkpt>
      <trkpt lat="46.026716837659478" lon="6.970286406576634">
        <ele>2212.1300000000001</ele>
        <time>2014-07-14T12:57:55Z</time>
      </trkpt>
      <trkpt lat="46.026742653921247" lon="6.970276180654764">
        <ele>2213.0900000000001</ele>
        <time>2014-07-14T12:58:20Z</time>
      </trkpt>
      <trkpt lat="46.02673108689487" lon="6.970283221453428">
        <ele>2213.0900000000001</ele>
        <time>2014-07-14T12:58:35Z</time>
      </trkpt>
      <trkpt lat="46.026733433827758" lon="6.970272324979305">
        <ele>2212.6100000000001</ele>
        <time>2014-07-14T12:59:04Z</time>
      </trkpt>
      <trkpt lat="46.026732260361314" lon="6.970269391313195">
        <ele>2212.1300000000001</ele>
        <time>2014-07-14T12:59:19Z</time>
      </trkpt>
      <trkpt lat="46.026704683899879" lon="6.970306355506182">
        <ele>2212.1300000000001</ele>
        <time>2014-07-14T12:59:33Z</time>
      </trkpt>
      <trkpt lat="46.026665708050132" lon="6.9702691398561">
        <ele>2212.6100000000001</ele>
        <time>2014-07-14T12:59:52Z</time>
      </trkpt>
      <trkpt lat="46.026645507663488" lon="6.970292776823044">
        <ele>2211.6500000000001</ele>
        <time>2014-07-14T13:00:06Z</time>
      </trkpt>
      <trkpt lat="46.026648106053472" lon="6.970274085178971">
        <ele>2211.1700000000001</ele>
        <time>2014-07-14T13:00:30Z</time>
      </trkpt>
      <trkpt lat="46.026630001142621" lon="6.970262685790658">
        <ele>2211.6500000000001</ele>
        <time>2014-07-14T13:00:58Z</time>
      </trkpt>
      <trkpt lat="46.026622038334608" lon="6.970254387706518">
        <ele>2211.1700000000001</ele>
        <time>2014-07-14T13:01:12Z</time>
      </trkpt>
      <trkpt lat="46.02649848908186" lon="6.970226475968957">
        <ele>2210.21</ele>
        <time>2014-07-14T13:01:25Z</time>
      </trkpt>
      <trkpt lat="46.026324313133955" lon="6.97019387036562">
        <ele>2208.77</ele>
        <time>2014-07-14T13:01:42Z</time>
      </trkpt>
      <trkpt lat="46.026175785809755" lon="6.970170065760613">
        <ele>2208.29</ele>
        <time>2014-07-14T13:02:00Z</time>
      </trkpt>
      <trkpt lat="46.026083584874868" lon="6.970148608088493">
        <ele>2206.8400000000001</ele>
        <time>2014-07-14T13:02:15Z</time>
      </trkpt>
      <trkpt lat="46.026054667308927" lon="6.97008884511888">
        <ele>2205.4000000000001</ele>
        <time>2014-07-14T13:02:28Z</time>
      </trkpt>
      <trkpt lat="46.02604896761477" lon="6.970085073262453">
        <ele>2208.77</ele>
        <time>2014-07-14T13:02:29Z</time>
      </trkpt>
      <trkpt lat="46.026040250435472" lon="6.970087336376309">
        <ele>2208.29</ele>
        <time>2014-07-14T13:02:30Z</time>
      </trkpt>
      <trkpt lat="46.025942349806428" lon="6.970050539821386">
        <ele>2204.9200000000001</ele>
        <time>2014-07-14T13:02:42Z</time>
      </trkpt>
      <trkpt lat="46.025843610987067" lon="6.970015503466129">
        <ele>2202.04</ele>
        <time>2014-07-14T13:02:53Z</time>
      </trkpt>
      <trkpt lat="46.025831457227468" lon="6.970014665275812">
        <ele>2202.04</ele>
        <time>2014-07-14T13:02:54Z</time>
      </trkpt>
      <trkpt lat="46.0258022043854" lon="6.970003265887499">
        <ele>2201.0799999999999</ele>
        <time>2014-07-14T13:02:57Z</time>
      </trkpt>
      <trkpt lat="46.025666836649179" lon="6.969932438805699">
        <ele>2197.71</ele>
        <time>2014-07-14T13:03:11Z</time>
      </trkpt>
      <trkpt lat="46.025533815845847" lon="6.969873430207372">
        <ele>2194.8299999999999</ele>
        <time>2014-07-14T13:03:25Z</time>
      </trkpt>
      <trkpt lat="46.025509759783745" lon="6.96984501555562">
        <ele>2194.8299999999999</ele>
        <time>2014-07-14T13:03:28Z</time>
      </trkpt>
      <trkpt lat="46.025449829176068" lon="6.96980394423008">
        <ele>2193.8699999999999</ele>
        <time>2014-07-14T13:03:34Z</time>
      </trkpt>
      <trkpt lat="46.02534580975771" lon="6.969749964773655">
        <ele>2190.5</ele>
        <time>2014-07-14T13:03:44Z</time>
      </trkpt>
      <trkpt lat="46.025332733988762" lon="6.969733955338597">
        <ele>2189.54</ele>
        <time>2014-07-14T13:03:46Z</time>
      </trkpt>
      <trkpt lat="46.025345139205456" lon="6.969713587313891">
        <ele>2189.0599999999999</ele>
        <time>2014-07-14T13:03:48Z</time>
      </trkpt>
      <trkpt lat="46.02541035041213" lon="6.969718616455793">
        <ele>2189.0599999999999</ele>
        <time>2014-07-14T13:04:01Z</time>
      </trkpt>
      <trkpt lat="46.025459468364716" lon="6.969690704718232">
        <ele>2187.6199999999999</ele>
        <time>2014-07-14T13:04:05Z</time>
      </trkpt>
      <trkpt lat="46.025529457256198" lon="6.969654578715563">
        <ele>2187.1399999999999</ele>
        <time>2014-07-14T13:04:11Z</time>
      </trkpt>
      <trkpt lat="46.025623418390751" lon="6.969616273418069">
        <ele>2185.6900000000001</ele>
        <time>2014-07-14T13:04:24Z</time>
      </trkpt>
      <trkpt lat="46.025588717311621" lon="6.969595402479172">
        <ele>2185.21</ele>
        <time>2014-07-14T13:04:28Z</time>
      </trkpt>
      <trkpt lat="46.025530211627483" lon="6.969553325325251">
        <ele>2183.29</ele>
        <time>2014-07-14T13:04:34Z</time>
      </trkpt>
      <trkpt lat="46.025439351797104" lon="6.969521474093199">
        <ele>2181.8499999999999</ele>
        <time>2014-07-14T13:04:44Z</time>
      </trkpt>
      <trkpt lat="46.025255871936679" lon="6.969464393332601">
        <ele>2178.9699999999998</ele>
        <time>2014-07-14T13:04:59Z</time>
      </trkpt>
      <trkpt lat="46.025120168924332" lon="6.969449138268828">
        <ele>2176.0799999999999</ele>
        <time>2014-07-14T13:05:11Z</time>
      </trkpt>
      <trkpt lat="46.024987064301968" lon="6.969310753047466">
        <ele>2173.1999999999998</ele>
        <time>2014-07-14T13:05:25Z</time>
      </trkpt>
      <trkpt lat="46.024978263303638" lon="6.969306645914912">
        <ele>2172.7199999999998</ele>
        <time>2014-07-14T13:05:26Z</time>
      </trkpt>
      <trkpt lat="46.024952363222837" lon="6.969276387244463">
        <ele>2172.2399999999998</ele>
        <time>2014-07-14T13:05:29Z</time>
      </trkpt>
      <trkpt lat="46.024805260822177" lon="6.969159208238125">
        <ele>2168.8699999999999</ele>
        <time>2014-07-14T13:05:47Z</time>
      </trkpt>
      <trkpt lat="46.024778438732028" lon="6.969140013679862">
        <ele>2167.4299999999998</ele>
        <time>2014-07-14T13:05:50Z</time>
      </trkpt>
      <trkpt lat="46.024697804823518" lon="6.969047728925943">
        <ele>2164.5500000000002</ele>
        <time>2014-07-14T13:06:02Z</time>
      </trkpt>
      <trkpt lat="46.02468959055841" lon="6.969047645106912">
        <ele>2164.5500000000002</ele>
        <time>2014-07-14T13:06:03Z</time>
      </trkpt>
      <trkpt lat="46.02461826056242" lon="6.969021325930953">
        <ele>2163.5799999999999</ele>
        <time>2014-07-14T13:06:10Z</time>
      </trkpt>
      <trkpt lat="46.02458112873137" lon="6.968971788883209">
        <ele>2160.6999999999998</ele>
        <time>2014-07-14T13:06:19Z</time>
      </trkpt>
      <trkpt lat="46.024727309122682" lon="6.968843461945653">
        <ele>2157.8200000000002</ele>
        <time>2014-07-14T13:06:34Z</time>
      </trkpt>
      <trkpt lat="46.024816492572427" lon="6.968653611838818">
        <ele>2154.9299999999998</ele>
        <time>2014-07-14T13:06:49Z</time>
      </trkpt>
      <trkpt lat="46.024789419025183" lon="6.968604410067201">
        <ele>2154.4499999999998</ele>
        <time>2014-07-14T13:06:56Z</time>
      </trkpt>
      <trkpt lat="46.024703923612833" lon="6.968628382310271">
        <ele>2153.0100000000002</ele>
        <time>2014-07-14T13:07:02Z</time>
      </trkpt>
      <trkpt lat="46.024644579738379" lon="6.968573816120625">
        <ele>2151.0900000000001</ele>
        <time>2014-07-14T13:07:09Z</time>
      </trkpt>
      <trkpt lat="46.024499405175447" lon="6.968518327921629">
        <ele>2149.6500000000001</ele>
        <time>2014-07-14T13:07:24Z</time>
      </trkpt>
      <trkpt lat="46.024491610005498" lon="6.968523357063532">
        <ele>2150.1300000000001</ele>
        <time>2014-07-14T13:07:25Z</time>
      </trkpt>
      <trkpt lat="46.024391865357757" lon="6.968521177768707">
        <ele>2147.7199999999998</ele>
        <time>2014-07-14T13:07:35Z</time>
      </trkpt>
      <trkpt lat="46.024292288348079" lon="6.968352952972055">
        <ele>2144.3600000000001</ele>
        <time>2014-07-14T13:07:49Z</time>
      </trkpt>
      <trkpt lat="46.024275859817863" lon="6.968322107568383">
        <ele>2143.4000000000001</ele>
        <time>2014-07-14T13:07:53Z</time>
      </trkpt>
      <trkpt lat="46.024186844006181" lon="6.968175424262881">
        <ele>2140.0300000000002</ele>
        <time>2014-07-14T13:08:08Z</time>
      </trkpt>
      <trkpt lat="46.024160189554095" lon="6.968130161985755">
        <ele>2140.0300000000002</ele>
        <time>2014-07-14T13:08:23Z</time>
      </trkpt>
      <trkpt lat="46.024146862328053" lon="6.968100657686591">
        <ele>2139.0700000000002</ele>
        <time>2014-07-14T13:08:36Z</time>
      </trkpt>
      <trkpt lat="46.024137893691659" lon="6.968089006841183">
        <ele>2138.5900000000001</ele>
        <time>2014-07-14T13:08:53Z</time>
      </trkpt>
      <trkpt lat="46.023969249799848" lon="6.967990519478917">
        <ele>2135.71</ele>
        <time>2014-07-14T13:09:09Z</time>
      </trkpt>
      <trkpt lat="46.023851567879319" lon="6.967881051823497">
        <ele>2132.3400000000001</ele>
        <time>2014-07-14T13:09:23Z</time>
      </trkpt>
      <trkpt lat="46.023821057751775" lon="6.967805866152048">
        <ele>2130.9000000000001</ele>
        <time>2014-07-14T13:09:29Z</time>
      </trkpt>
      <trkpt lat="46.023713266476989" lon="6.967629594728351">
        <ele>2127.5300000000002</ele>
        <time>2014-07-14T13:09:44Z</time>
      </trkpt>
      <trkpt lat="46.023639757186174" lon="6.967514846473932">
        <ele>2124.1700000000001</ele>
        <time>2014-07-14T13:09:56Z</time>
      </trkpt>
      <trkpt lat="46.023607989773154" lon="6.967479307204485">
        <ele>2123.6900000000001</ele>
        <time>2014-07-14T13:10:00Z</time>
      </trkpt>
      <trkpt lat="46.023537162691355" lon="6.967346537858248">
        <ele>2120.8099999999999</ele>
        <time>2014-07-14T13:10:10Z</time>
      </trkpt>
      <trkpt lat="46.023499108850956" lon="6.967335138469935">
        <ele>2119.8400000000001</ele>
        <time>2014-07-14T13:10:14Z</time>
      </trkpt>
      <trkpt lat="46.023481255397201" lon="6.967333126813173">
        <ele>2120.3200000000002</ele>
        <time>2014-07-14T13:10:16Z</time>
      </trkpt>
      <trkpt lat="46.023315880447626" lon="6.96723765693605">
        <ele>2118.4000000000001</ele>
        <time>2014-07-14T13:10:33Z</time>
      </trkpt>
      <trkpt lat="46.02323398925364" lon="6.96717320010066">
        <ele>2115.52</ele>
        <time>2014-07-14T13:10:43Z</time>
      </trkpt>
      <trkpt lat="46.023150589317083" lon="6.967111425474286">
        <ele>2113.5999999999999</ele>
        <time>2014-07-14T13:10:56Z</time>
      </trkpt>
      <trkpt lat="46.023024274036288" lon="6.967005478218198">
        <ele>2111.1900000000001</ele>
        <time>2014-07-14T13:11:11Z</time>
      </trkpt>
      <trkpt lat="46.023011952638626" lon="6.967000532895327">
        <ele>2110.23</ele>
        <time>2014-07-14T13:11:13Z</time>
      </trkpt>
      <trkpt lat="46.022861413657665" lon="6.966962898150086">
        <ele>2108.3099999999999</ele>
        <time>2014-07-14T13:11:30Z</time>
      </trkpt>
      <trkpt lat="46.022846661508083" lon="6.966954432427883">
        <ele>2107.3499999999999</ele>
        <time>2014-07-14T13:11:32Z</time>
      </trkpt>
      <trkpt lat="46.022842973470688" lon="6.966922832652926">
        <ele>2106.8699999999999</ele>
        <time>2014-07-14T13:11:34Z</time>
      </trkpt>
      <trkpt lat="46.022854289039969" lon="6.966890981420875">
        <ele>2105.9099999999999</ele>
        <time>2014-07-14T13:11:36Z</time>
      </trkpt>
      <trkpt lat="46.022995943203568" lon="6.966812945902348">
        <ele>2103.98</ele>
        <time>2014-07-14T13:11:52Z</time>
      </trkpt>
      <trkpt lat="46.023122007027268" lon="6.96674169972539">
        <ele>2102.0599999999999</ele>
        <time>2014-07-14T13:12:06Z</time>
      </trkpt>
      <trkpt lat="46.023118654266" lon="6.966721331700683">
        <ele>2102.54</ele>
        <time>2014-07-14T13:12:10Z</time>
      </trkpt>
      <trkpt lat="46.023026537150145" lon="6.966609684750438">
        <ele>2098.6999999999998</ele>
        <time>2014-07-14T13:12:22Z</time>
      </trkpt>
      <trkpt lat="46.022945651784539" lon="6.9664993789047">
        <ele>2095.3299999999999</ele>
        <time>2014-07-14T13:12:35Z</time>
      </trkpt>
      <trkpt lat="46.022931570187211" lon="6.966491248458624">
        <ele>2094.3699999999999</ele>
        <time>2014-07-14T13:12:37Z</time>
      </trkpt>
      <trkpt lat="46.022923439741135" lon="6.966486722230911">
        <ele>2093.8899999999999</ele>
        <time>2014-07-14T13:12:38Z</time>
      </trkpt>
      <trkpt lat="46.022880272939801" lon="6.966452104970813">
        <ele>2092.4499999999998</ele>
        <time>2014-07-14T13:12:42Z</time>
      </trkpt>
      <trkpt lat="46.022774828597903" lon="6.96635864675045">
        <ele>2090.04</ele>
        <time>2014-07-14T13:12:57Z</time>
      </trkpt>
      <trkpt lat="46.022666366770864" lon="6.966299219056964">
        <ele>2089.5599999999999</ele>
        <time>2014-07-14T13:13:11Z</time>
      </trkpt>
      <trkpt lat="46.022536028176546" lon="6.966214645653963">
        <ele>2089.0799999999999</ele>
        <time>2014-07-14T13:13:24Z</time>
      </trkpt>
      <trkpt lat="46.022447431460023" lon="6.966163516044617">
        <ele>2087.1599999999999</ele>
        <time>2014-07-14T13:13:37Z</time>
      </trkpt>
      <trkpt lat="46.022310722619295" lon="6.966098723933101">
        <ele>2084.2800000000002</ele>
        <time>2014-07-14T13:13:53Z</time>
      </trkpt>
      <trkpt lat="46.022263197228312" lon="6.966118840500712">
        <ele>2083.79</ele>
        <time>2014-07-14T13:13:59Z</time>
      </trkpt>
      <trkpt lat="46.02222740650177" lon="6.965949945151806">
        <ele>2083.3099999999999</ele>
        <time>2014-07-14T13:14:12Z</time>
      </trkpt>
      <trkpt lat="46.022137468680739" lon="6.965829664841294">
        <ele>2082.3499999999999</ele>
        <time>2014-07-14T13:14:23Z</time>
      </trkpt>
      <trkpt lat="46.022075107321143" lon="6.965792365372181">
        <ele>2080.4299999999998</ele>
        <time>2014-07-14T13:14:30Z</time>
      </trkpt>
      <trkpt lat="46.022011572495103" lon="6.965623637661338">
        <ele>2078.5100000000002</ele>
        <time>2014-07-14T13:14:43Z</time>
      </trkpt>
      <trkpt lat="46.021997574716806" lon="6.965586002916098">
        <ele>2077.5500000000002</ele>
        <time>2014-07-14T13:14:46Z</time>
      </trkpt>
      <trkpt lat="46.021950636059046" lon="6.965505285188556">
        <ele>2075.6199999999999</ele>
        <time>2014-07-14T13:14:56Z</time>
      </trkpt>
      <trkpt lat="46.02191174402833" lon="6.965368324890733">
        <ele>2072.7399999999998</ele>
        <time>2014-07-14T13:15:10Z</time>
      </trkpt>
      <trkpt lat="46.021891292184591" lon="6.965239243581891">
        <ele>2071.3000000000002</ele>
        <time>2014-07-14T13:15:22Z</time>
      </trkpt>
      <trkpt lat="46.02184385061264" lon="6.965080322697759">
        <ele>2068.8899999999999</ele>
        <time>2014-07-14T13:15:35Z</time>
      </trkpt>
      <trkpt lat="46.021776543930173" lon="6.964934142306447">
        <ele>2066.4899999999998</ele>
        <time>2014-07-14T13:15:50Z</time>
      </trkpt>
      <trkpt lat="46.021719546988606" lon="6.964845210313797">
        <ele>2063.6100000000001</ele>
        <time>2014-07-14T13:16:01Z</time>
      </trkpt>
      <trkpt lat="46.021698173135519" lon="6.964799193665385">
        <ele>2062.1700000000001</ele>
        <time>2014-07-14T13:16:08Z</time>
      </trkpt>
      <trkpt lat="46.021673697978258" lon="6.964740017428994">
        <ele>2060.7199999999998</ele>
        <time>2014-07-14T13:16:13Z</time>
      </trkpt>
      <trkpt lat="46.021592812612653" lon="6.964586460962892">
        <ele>2058.8000000000002</ele>
        <time>2014-07-14T13:16:27Z</time>
      </trkpt>
      <trkpt lat="46.021555010229349" lon="6.964551508426666">
        <ele>2058.3200000000002</ele>
        <time>2014-07-14T13:16:32Z</time>
      </trkpt>
      <trkpt lat="46.021544029936194" lon="6.964478585869074">
        <ele>2057.3600000000001</ele>
        <time>2014-07-14T13:16:38Z</time>
      </trkpt>
      <trkpt lat="46.021516369655728" lon="6.964469701051712">
        <ele>2056.4000000000001</ele>
        <time>2014-07-14T13:16:41Z</time>
      </trkpt>
      <trkpt lat="46.021494325250387" lon="6.964475065469742">
        <ele>2055.9200000000001</ele>
        <time>2014-07-14T13:16:43Z</time>
      </trkpt>
      <trkpt lat="46.021432047709823" lon="6.964358221739531">
        <ele>2053.0300000000002</ele>
        <time>2014-07-14T13:16:56Z</time>
      </trkpt>
      <trkpt lat="46.021383013576269" lon="6.964238611981273">
        <ele>2050.1500000000001</ele>
        <time>2014-07-14T13:17:09Z</time>
      </trkpt>
      <trkpt lat="46.021308414638042" lon="6.964140208438039">
        <ele>2047.75</ele>
        <time>2014-07-14T13:17:23Z</time>
      </trkpt>
      <trkpt lat="46.021287376061082" lon="6.964056640863419">
        <ele>2046.3</ele>
        <time>2014-07-14T13:17:34Z</time>
      </trkpt>
      <trkpt lat="46.021256949752569" lon="6.963990926742554">
        <ele>2045.3399999999999</ele>
        <time>2014-07-14T13:17:43Z</time>
      </trkpt>
      <trkpt lat="46.021235240623355" lon="6.963962344452739">
        <ele>2044.8599999999999</ele>
        <time>2014-07-14T13:17:47Z</time>
      </trkpt>
      <trkpt lat="46.021217973902822" lon="6.963947173207998">
        <ele>2044.3800000000001</ele>
        <time>2014-07-14T13:17:52Z</time>
      </trkpt>
      <trkpt lat="46.021119989454746" lon="6.963825384154916">
        <ele>2041.5</ele>
        <time>2014-07-14T13:18:05Z</time>
      </trkpt>
      <trkpt lat="46.021037679165602" lon="6.963708456605673">
        <ele>2038.6099999999999</ele>
        <time>2014-07-14T13:18:19Z</time>
      </trkpt>
      <trkpt lat="46.021015299484134" lon="6.963661769405007">
        <ele>2037.6500000000001</ele>
        <time>2014-07-14T13:18:24Z</time>
      </trkpt>
      <trkpt lat="46.020967354997993" lon="6.963515337556601">
        <ele>2035.73</ele>
        <time>2014-07-14T13:18:36Z</time>
      </trkpt>
      <trkpt lat="46.020904658362269" lon="6.963360691443086">
        <ele>2032.3599999999999</ele>
        <time>2014-07-14T13:18:49Z</time>
      </trkpt>
      <trkpt lat="46.020843470469117" lon="6.963236136361957">
        <ele>2029.48</ele>
        <time>2014-07-14T13:19:02Z</time>
      </trkpt>
      <trkpt lat="46.020774990320206" lon="6.963072689250112">
        <ele>2026.5999999999999</ele>
        <time>2014-07-14T13:19:16Z</time>
      </trkpt>
      <trkpt lat="46.02071899920702" lon="6.96295291185379">
        <ele>2023.23</ele>
        <time>2014-07-14T13:19:27Z</time>
      </trkpt>
      <trkpt lat="46.020699301734567" lon="6.962928017601371">
        <ele>2022.75</ele>
        <time>2014-07-14T13:19:30Z</time>
      </trkpt>
      <trkpt lat="46.020656889304519" lon="6.962912930175662">
        <ele>2022.27</ele>
        <time>2014-07-14T13:19:35Z</time>
      </trkpt>
      <trkpt lat="46.020640209317207" lon="6.962909493595362">
        <ele>2022.27</ele>
        <time>2014-07-14T13:19:37Z</time>
      </trkpt>
      <trkpt lat="46.020563766360283" lon="6.962810838595033">
        <ele>2019.3900000000001</ele>
        <time>2014-07-14T13:19:51Z</time>
      </trkpt>
      <trkpt lat="46.020593354478478" lon="6.962763899937272">
        <ele>2017.9400000000001</ele>
        <time>2014-07-14T13:20:02Z</time>
      </trkpt>
      <trkpt lat="46.020591175183654" lon="6.962745627388358">
        <ele>2017.9400000000001</ele>
        <time>2014-07-14T13:20:17Z</time>
      </trkpt>
      <trkpt lat="46.020580194890499" lon="6.962746046483517">
        <ele>2018.4300000000001</ele>
        <time>2014-07-14T13:20:19Z</time>
      </trkpt>
      <trkpt lat="46.020545829087496" lon="6.962746297940612">
        <ele>2017.9400000000001</ele>
        <time>2014-07-14T13:20:23Z</time>
      </trkpt>
      <trkpt lat="46.020488748326898" lon="6.962658455595374">
        <ele>2016.5</ele>
        <time>2014-07-14T13:20:32Z</time>
      </trkpt>
      <trkpt lat="46.020457735285163" lon="6.962552424520254">
        <ele>2015.54</ele>
        <time>2014-07-14T13:20:40Z</time>
      </trkpt>
      <trkpt lat="46.020437953993678" lon="6.96252434514463">
        <ele>2014.0999999999999</ele>
        <time>2014-07-14T13:20:43Z</time>
      </trkpt>
      <trkpt lat="46.020385986194015" lon="6.962380092591047">
        <ele>2010.73</ele>
        <time>2014-07-14T13:20:55Z</time>
      </trkpt>
      <trkpt lat="46.020323121920228" lon="6.962271127849817">
        <ele>2008.8099999999999</ele>
        <time>2014-07-14T13:21:07Z</time>
      </trkpt>
      <trkpt lat="46.02024894207716" lon="6.962197367101908">
        <ele>2005.9300000000001</ele>
        <time>2014-07-14T13:21:20Z</time>
      </trkpt>
      <trkpt lat="46.020223209634423" lon="6.962157217785716">
        <ele>2005.45</ele>
        <time>2014-07-14T13:21:24Z</time>
      </trkpt>
      <trkpt lat="46.02021181024611" lon="6.962116900831461">
        <ele>2005.45</ele>
        <time>2014-07-14T13:21:27Z</time>
      </trkpt>
      <trkpt lat="46.020186999812722" lon="6.962038362398744">
        <ele>2004.01</ele>
        <time>2014-07-14T13:21:33Z</time>
      </trkpt>
      <trkpt lat="46.020116759464145" lon="6.961846416816115">
        <ele>2000.1600000000001</ele>
        <time>2014-07-14T13:21:48Z</time>
      </trkpt>
      <trkpt lat="46.020097732543945" lon="6.961828395724297">
        <ele>2000.1600000000001</ele>
        <time>2014-07-14T13:21:50Z</time>
      </trkpt>
      <trkpt lat="46.020031683146954" lon="6.961670983582735">
        <ele>1997.28</ele>
        <time>2014-07-14T13:22:04Z</time>
      </trkpt>
      <trkpt lat="46.020015757530928" lon="6.961627565324307">
        <ele>1996.8</ele>
        <time>2014-07-14T13:22:07Z</time>
      </trkpt>
      <trkpt lat="46.019985750317574" lon="6.961587583646178">
        <ele>1995.3499999999999</ele>
        <time>2014-07-14T13:22:12Z</time>
      </trkpt>
      <trkpt lat="46.019953899085522" lon="6.961499322205782">
        <ele>1994.3900000000001</ele>
        <time>2014-07-14T13:22:19Z</time>
      </trkpt>
      <trkpt lat="46.019912911579013" lon="6.961392033845186">
        <ele>1992.47</ele>
        <time>2014-07-14T13:22:32Z</time>
      </trkpt>
      <trkpt lat="46.019899751991034" lon="6.961371917277575">
        <ele>1991.51</ele>
        <time>2014-07-14T13:22:46Z</time>
      </trkpt>
      <trkpt lat="46.019824566319585" lon="6.961267562583089">
        <ele>1989.5899999999999</ele>
        <time>2014-07-14T13:23:00Z</time>
      </trkpt>
      <trkpt lat="46.019779136404395" lon="6.961183492094278">
        <ele>1987.6600000000001</ele>
        <time>2014-07-14T13:23:13Z</time>
      </trkpt>
      <trkpt lat="46.019732030108571" lon="6.96110587567091">
        <ele>1987.1800000000001</ele>
        <time>2014-07-14T13:23:21Z</time>
      </trkpt>
      <trkpt lat="46.019638907164335" lon="6.960916109383106">
        <ele>1984.78</ele>
        <time>2014-07-14T13:23:38Z</time>
      </trkpt>
      <trkpt lat="46.019571349024773" lon="6.960796164348722">
        <ele>1981.9000000000001</ele>
        <time>2014-07-14T13:23:52Z</time>
      </trkpt>
      <trkpt lat="46.019502282142639" lon="6.960653755813837">
        <ele>1979.49</ele>
        <time>2014-07-14T13:24:05Z</time>
      </trkpt>
      <trkpt lat="46.019498594105244" lon="6.96064512245357">
        <ele>1979.49</ele>
        <time>2014-07-14T13:24:06Z</time>
      </trkpt>
      <trkpt lat="46.019480153918266" lon="6.960576558485627">
        <ele>1978.53</ele>
        <time>2014-07-14T13:24:12Z</time>
      </trkpt>
      <trkpt lat="46.019386695697904" lon="6.960491817444563">
        <ele>1976.1300000000001</ele>
        <time>2014-07-14T13:24:25Z</time>
      </trkpt>
      <trkpt lat="46.01936406455934" lon="6.960465498268604">
        <ele>1975.1700000000001</ele>
        <time>2014-07-14T13:24:29Z</time>
      </trkpt>
      <trkpt lat="46.019250405952334" lon="6.96037832647562">
        <ele>1973.24</ele>
        <time>2014-07-14T13:24:42Z</time>
      </trkpt>
      <trkpt lat="46.019187206402421" lon="6.960223345085979">
        <ele>1971.8</ele>
        <time>2014-07-14T13:24:53Z</time>
      </trkpt>
      <trkpt lat="46.019105399027467" lon="6.960031483322382">
        <ele>1969.4000000000001</ele>
        <time>2014-07-14T13:25:09Z</time>
      </trkpt>
      <trkpt lat="46.018980508670211" lon="6.959869880229235">
        <ele>1967.48</ele>
        <time>2014-07-14T13:25:25Z</time>
      </trkpt>
      <trkpt lat="46.018977239727974" lon="6.959864096716046">
        <ele>1967.48</ele>
        <time>2014-07-14T13:25:26Z</time>
      </trkpt>
      <trkpt lat="46.018953770399094" lon="6.959824534133077">
        <ele>1966.51</ele>
        <time>2014-07-14T13:25:30Z</time>
      </trkpt>
      <trkpt lat="46.018840949982405" lon="6.959680700674653">
        <ele>1963.1500000000001</ele>
        <time>2014-07-14T13:25:45Z</time>
      </trkpt>
      <trkpt lat="46.018803399056196" lon="6.959637114778161">
        <ele>1962.1900000000001</ele>
        <time>2014-07-14T13:25:50Z</time>
      </trkpt>
      <trkpt lat="46.018756125122309" lon="6.959584392607212">
        <ele>1960.75</ele>
        <time>2014-07-14T13:25:57Z</time>
      </trkpt>
      <trkpt lat="46.018739696592093" lon="6.959575675427914">
        <ele>1960.27</ele>
        <time>2014-07-14T13:25:59Z</time>
      </trkpt>
      <trkpt lat="46.018706168979406" lon="6.959540555253625">
        <ele>1959.78</ele>
        <time>2014-07-14T13:26:03Z</time>
      </trkpt>
      <trkpt lat="46.018553869798779" lon="6.959379371255636">
        <ele>1956.9000000000001</ele>
        <time>2014-07-14T13:26:19Z</time>
      </trkpt>
      <trkpt lat="46.018419424071908" lon="6.959199830889702">
        <ele>1954.02</ele>
        <time>2014-07-14T13:26:36Z</time>
      </trkpt>
      <trkpt lat="46.018334347754717" lon="6.959112575277686">
        <ele>1952.5699999999999</ele>
        <time>2014-07-14T13:26:45Z</time>
      </trkpt>
      <trkpt lat="46.01829880848527" lon="6.959087429568172">
        <ele>1951.6099999999999</ele>
        <time>2014-07-14T13:26:48Z</time>
      </trkpt>
      <trkpt lat="46.018255557864904" lon="6.959048705175519">
        <ele>1950.6500000000001</ele>
        <time>2014-07-14T13:26:53Z</time>
      </trkpt>
      <trkpt lat="46.018141899257898" lon="6.958914259448648">
        <ele>1948.73</ele>
        <time>2014-07-14T13:27:07Z</time>
      </trkpt>
      <trkpt lat="46.018023798242211" lon="6.958808144554496">
        <ele>1945.8499999999999</ele>
        <time>2014-07-14T13:27:19Z</time>
      </trkpt>
      <trkpt lat="46.017858255654573" lon="6.958660706877708">
        <ele>1942.48</ele>
        <time>2014-07-14T13:27:36Z</time>
      </trkpt>
      <trkpt lat="46.017726324498653" lon="6.958534894511104">
        <ele>1939.5999999999999</ele>
        <time>2014-07-14T13:27:50Z</time>
      </trkpt>
      <trkpt lat="46.017654156312346" lon="6.958505138754845">
        <ele>1938.1600000000001</ele>
        <time>2014-07-14T13:28:03Z</time>
      </trkpt>
      <trkpt lat="46.017597494646907" lon="6.958481334149838">
        <ele>1936.23</ele>
        <time>2014-07-14T13:28:13Z</time>
      </trkpt>
      <trkpt lat="46.017434885725379" lon="6.958438334986568">
        <ele>1934.3099999999999</ele>
        <time>2014-07-14T13:28:28Z</time>
      </trkpt>
      <trkpt lat="46.017344444990158" lon="6.958448644727469">
        <ele>1932.8699999999999</ele>
        <time>2014-07-14T13:28:37Z</time>
      </trkpt>
      <trkpt lat="46.017254088073969" lon="6.958432970568538">
        <ele>1932.3900000000001</ele>
        <time>2014-07-14T13:28:47Z</time>
      </trkpt>
      <trkpt lat="46.017206646502018" lon="6.958482256159186">
        <ele>1931.9100000000001</ele>
        <time>2014-07-14T13:28:54Z</time>
      </trkpt>
      <trkpt lat="46.017125928774476" lon="6.958621898666024">
        <ele>1929.5</ele>
        <time>2014-07-14T13:29:06Z</time>
      </trkpt>
      <trkpt lat="46.017094496637583" lon="6.958709992468357">
        <ele>1929.5</ele>
        <time>2014-07-14T13:29:19Z</time>
      </trkpt>
      <trkpt lat="46.017082594335079" lon="6.958723571151495">
        <ele>1929.02</ele>
        <time>2014-07-14T13:29:42Z</time>
      </trkpt>
      <trkpt lat="46.017067255452275" lon="6.958650816231966">
        <ele>1929.5</ele>
        <time>2014-07-14T13:29:57Z</time>
      </trkpt>
      <trkpt lat="46.017034566029906" lon="6.958510670810938">
        <ele>1926.1400000000001</ele>
        <time>2014-07-14T13:30:09Z</time>
      </trkpt>
      <trkpt lat="46.017019562423229" lon="6.958437245339155">
        <ele>1924.7</ele>
        <time>2014-07-14T13:30:16Z</time>
      </trkpt>
      <trkpt lat="46.016964158043265" lon="6.958296764642">
        <ele>1921.3299999999999</ele>
        <time>2014-07-14T13:30:27Z</time>
      </trkpt>
      <trkpt lat="46.01695217192173" lon="6.958269942551851">
        <ele>1920.3699999999999</ele>
        <time>2014-07-14T13:30:29Z</time>
      </trkpt>
      <trkpt lat="46.016849158331752" lon="6.958073135465384">
        <ele>1917.49</ele>
        <time>2014-07-14T13:30:45Z</time>
      </trkpt>
      <trkpt lat="46.01683733984828" lon="6.958052013069391">
        <ele>1915.5599999999999</ele>
        <time>2014-07-14T13:30:47Z</time>
      </trkpt>
      <trkpt lat="46.016808757558465" lon="6.957960817962885">
        <ele>1914.1199999999999</ele>
        <time>2014-07-14T13:30:54Z</time>
      </trkpt>
      <trkpt lat="46.016789311543107" lon="6.957913627848029">
        <ele>1913.1600000000001</ele>
        <time>2014-07-14T13:30:58Z</time>
      </trkpt>
      <trkpt lat="46.016771290451288" lon="6.957890912890434">
        <ele>1913.6400000000001</ele>
        <time>2014-07-14T13:31:02Z</time>
      </trkpt>
      <trkpt lat="46.016717813909054" lon="6.95784330368042">
        <ele>1911.24</ele>
        <time>2014-07-14T13:31:08Z</time>
      </trkpt>
      <trkpt lat="46.016670288518071" lon="6.957791335880756">
        <ele>1909.8</ele>
        <time>2014-07-14T13:31:14Z</time>
      </trkpt>
      <trkpt lat="46.016554366797209" lon="6.957679940387607">
        <ele>1906.4300000000001</ele>
        <time>2014-07-14T13:31:25Z</time>
      </trkpt>
      <trkpt lat="46.016454789787531" lon="6.957550523802638">
        <ele>1903.55</ele>
        <time>2014-07-14T13:31:36Z</time>
      </trkpt>
      <trkpt lat="46.016374574974179" lon="6.957481037825346">
        <ele>1901.1400000000001</ele>
        <time>2014-07-14T13:31:44Z</time>
      </trkpt>
      <trkpt lat="46.016363343223929" lon="6.95744457654655">
        <ele>1900.1800000000001</ele>
        <time>2014-07-14T13:31:46Z</time>
      </trkpt>
      <trkpt lat="46.016215402632952" lon="6.957467459142208">
        <ele>1897.3</ele>
        <time>2014-07-14T13:32:00Z</time>
      </trkpt>
      <trkpt lat="46.016216743737459" lon="6.957476930692792">
        <ele>1897.78</ele>
        <time>2014-07-14T13:32:05Z</time>
      </trkpt>
      <trkpt lat="46.016155891120434" lon="6.957512805238366">
        <ele>1897.3</ele>
        <time>2014-07-14T13:32:11Z</time>
      </trkpt>
      <trkpt lat="46.016117250546813" lon="6.957507440820336">
        <ele>1897.3</ele>
        <time>2014-07-14T13:32:15Z</time>
      </trkpt>
      <trkpt lat="46.016099313274026" lon="6.957510625943542">
        <ele>1897.78</ele>
        <time>2014-07-14T13:32:17Z</time>
      </trkpt>
      <trkpt lat="46.015964448451996" lon="6.957508362829685">
        <ele>1896.8199999999999</ele>
        <time>2014-07-14T13:32:29Z</time>
      </trkpt>
      <trkpt lat="46.015811897814274" lon="6.957414066419005">
        <ele>1896.3399999999999</ele>
        <time>2014-07-14T13:32:44Z</time>
      </trkpt>
      <trkpt lat="46.015703855082393" lon="6.957302754744887">
        <ele>1893.45</ele>
        <time>2014-07-14T13:32:55Z</time>
      </trkpt>
      <trkpt lat="46.015592711046338" lon="6.957185659557581">
        <ele>1891.53</ele>
        <time>2014-07-14T13:33:06Z</time>
      </trkpt>
      <trkpt lat="46.015457678586245" lon="6.957068732008338">
        <ele>1889.1300000000001</ele>
        <time>2014-07-14T13:33:21Z</time>
      </trkpt>
      <trkpt lat="46.015414176508784" lon="6.957032103091478">
        <ele>1890.0899999999999</ele>
        <time>2014-07-14T13:33:26Z</time>
      </trkpt>
      <trkpt lat="46.015405207872391" lon="6.957025900483131">
        <ele>1889.1300000000001</ele>
        <time>2014-07-14T13:33:27Z</time>
      </trkpt>
      <trkpt lat="46.015284843742847" lon="6.956940740346909">
        <ele>1887.21</ele>
        <time>2014-07-14T13:33:41Z</time>
      </trkpt>
      <trkpt lat="46.015226589515805" lon="6.956922383978963">
        <ele>1886.24</ele>
        <time>2014-07-14T13:33:46Z</time>
      </trkpt>
      <trkpt lat="46.015110500156879" lon="6.956826243549585">
        <ele>1882.8800000000001</ele>
        <time>2014-07-14T13:33:59Z</time>
      </trkpt>
      <trkpt lat="46.015025759115815" lon="6.956753907725215">
        <ele>1880.96</ele>
        <time>2014-07-14T13:34:07Z</time>
      </trkpt>
      <trkpt lat="46.014858204871416" lon="6.95660705678165">
        <ele>1879.03</ele>
        <time>2014-07-14T13:34:25Z</time>
      </trkpt>
      <trkpt lat="46.014622254297137" lon="6.956463726237416">
        <ele>1875.6700000000001</ele>
        <time>2014-07-14T13:34:48Z</time>
      </trkpt>
      <trkpt lat="46.014599958434701" lon="6.956462468951941">
        <ele>1875.6700000000001</ele>
        <time>2014-07-14T13:34:50Z</time>
      </trkpt>
      <trkpt lat="46.014564670622349" lon="6.956500858068466">
        <ele>1874.71</ele>
        <time>2014-07-14T13:34:55Z</time>
      </trkpt>
      <trkpt lat="46.014545476064086" lon="6.956494990736246">
        <ele>1874.23</ele>
        <time>2014-07-14T13:34:57Z</time>
      </trkpt>
      <trkpt lat="46.014434834942222" lon="6.956411842256784">
        <ele>1871.3399999999999</ele>
        <time>2014-07-14T13:35:10Z</time>
      </trkpt>
      <trkpt lat="46.014304663985968" lon="6.956277647987008">
        <ele>1868.46</ele>
        <time>2014-07-14T13:35:24Z</time>
      </trkpt>
      <trkpt lat="46.014206595718861" lon="6.956124678254128">
        <ele>1866.0599999999999</ele>
        <time>2014-07-14T13:35:38Z</time>
      </trkpt>
      <trkpt lat="46.014115903526545" lon="6.956119146198034">
        <ele>1864.6099999999999</ele>
        <time>2014-07-14T13:35:48Z</time>
      </trkpt>
      <trkpt lat="46.01399696432054" lon="6.956071872264147">
        <ele>1863.6500000000001</ele>
        <time>2014-07-14T13:36:04Z</time>
      </trkpt>
      <trkpt lat="46.013969471678138" lon="6.956066759303212">
        <ele>1863.1700000000001</ele>
        <time>2014-07-14T13:36:10Z</time>
      </trkpt>
      <trkpt lat="46.013925969600677" lon="6.956033483147621">
        <ele>1863.6500000000001</ele>
        <time>2014-07-14T13:36:15Z</time>
      </trkpt>
      <trkpt lat="46.013849442824721" lon="6.956028873100877">
        <ele>1863.6500000000001</ele>
        <time>2014-07-14T13:36:30Z</time>
      </trkpt>
      <trkpt lat="46.013871319591999" lon="6.95597673766315">
        <ele>1864.1300000000001</ele>
        <time>2014-07-14T13:36:39Z</time>
      </trkpt>
      <trkpt lat="46.013861512765288" lon="6.955951089039445">
        <ele>1865.0899999999999</ele>
        <time>2014-07-14T13:36:47Z</time>
      </trkpt>
      <trkpt lat="46.013819687068462" lon="6.955984449014068">
        <ele>1864.1300000000001</ele>
        <time>2014-07-14T13:36:58Z</time>
      </trkpt>
      <trkpt lat="46.013766964897513" lon="6.955970115959644">
        <ele>1863.1700000000001</ele>
        <time>2014-07-14T13:37:10Z</time>
      </trkpt>
      <trkpt lat="46.0136744286865" lon="6.955982018262148">
        <ele>1863.1700000000001</ele>
        <time>2014-07-14T13:37:36Z</time>
      </trkpt>
      <trkpt lat="46.01371550001204" lon="6.956137418746948">
        <ele>1863.1700000000001</ele>
        <time>2014-07-14T13:38:05Z</time>
      </trkpt>
      <trkpt lat="46.014246828854084" lon="6.956794140860438">
        <ele>1862.6900000000001</ele>
        <time>2014-07-14T13:38:37Z</time>
      </trkpt>
      <trkpt lat="46.014754436910152" lon="6.957403924316168">
        <ele>1863.1700000000001</ele>
        <time>2014-07-14T13:39:05Z</time>
      </trkpt>
      <trkpt lat="46.015261206775904" lon="6.957969618961215">
        <ele>1863.1700000000001</ele>
        <time>2014-07-14T13:39:36Z</time>
      </trkpt>
      <trkpt lat="46.016264939680696" lon="6.959443408995867">
        <ele>1863.1700000000001</ele>
        <time>2014-07-14T13:40:05Z</time>
      </trkpt>
      <trkpt lat="46.016326379030943" lon="6.959594283252955">
        <ele>1863.1700000000001</ele>
        <time>2014-07-14T13:40:37Z</time>
      </trkpt>
      <trkpt lat="46.016614465042949" lon="6.960010528564453">
        <ele>1863.1700000000001</ele>
        <time>2014-07-14T13:41:09Z</time>
      </trkpt>
      <trkpt lat="46.016449593007565" lon="6.959859319031239">
        <ele>1862.6900000000001</ele>
        <time>2014-07-14T13:41:39Z</time>
      </trkpt>
      <trkpt lat="46.016457807272673" lon="6.95996442809701">
        <ele>1863.1700000000001</ele>
        <time>2014-07-14T13:42:02Z</time>
      </trkpt>
      <trkpt lat="46.01636434905231" lon="6.960028046742082">
        <ele>1863.1700000000001</ele>
        <time>2014-07-14T13:42:31Z</time>
      </trkpt>
      <trkpt lat="46.016211127862334" lon="6.960028214380145">
        <ele>1863.1700000000001</ele>
        <time>2014-07-14T13:42:53Z</time>
      </trkpt>
      <trkpt lat="46.016326295211911" lon="6.960175987333059">
        <ele>1863.1700000000001</ele>
        <time>2014-07-14T13:43:22Z</time>
      </trkpt>
      <trkpt lat="46.016168799251318" lon="6.95995713584125">
        <ele>1863.6500000000001</ele>
        <time>2014-07-14T13:43:43Z</time>
      </trkpt>
      <trkpt lat="46.016233423724771" lon="6.959774158895016">
        <ele>1864.1300000000001</ele>
        <time>2014-07-14T13:44:04Z</time>
      </trkpt>
      <trkpt lat="46.016204925253987" lon="6.959795616567135">
        <ele>1864.1300000000001</ele>
        <time>2014-07-14T13:44:26Z</time>
      </trkpt>
      <trkpt lat="46.016173493117094" lon="6.95979829877615">
        <ele>1864.6099999999999</ele>
        <time>2014-07-14T13:44:53Z</time>
      </trkpt>
      <trkpt lat="46.016146587207913" lon="6.959797209128737">
        <ele>1864.1300000000001</ele>
        <time>2014-07-14T13:45:19Z</time>
      </trkpt>
      <trkpt lat="46.016132589429617" lon="6.959729148074985">
        <ele>1864.1300000000001</ele>
        <time>2014-07-14T13:45:38Z</time>
      </trkpt>
      <trkpt lat="46.016079364344478" lon="6.959680197760463">
        <ele>1863.6500000000001</ele>
        <time>2014-07-14T13:45:56Z</time>
      </trkpt>
      <trkpt lat="46.015947014093399" lon="6.959425639361143">
        <ele>1864.1300000000001</ele>
        <time>2014-07-14T13:46:15Z</time>
      </trkpt>
      <trkpt lat="46.015802090987563" lon="6.959178373217583">
        <ele>1864.1300000000001</ele>
        <time>2014-07-14T13:46:38Z</time>
      </trkpt>
      <trkpt lat="46.015681140124798" lon="6.959008807316423">
        <ele>1865.5799999999999</ele>
        <time>2014-07-14T13:46:57Z</time>
      </trkpt>
      <trkpt lat="46.015639817342162" lon="6.958962623029947">
        <ele>1864.6099999999999</ele>
        <time>2014-07-14T13:47:02Z</time>
      </trkpt>
      <trkpt lat="46.015534373000264" lon="6.958811413496733">
        <ele>1864.1300000000001</ele>
        <time>2014-07-14T13:47:21Z</time>
      </trkpt>
      <trkpt lat="46.01543596945703" lon="6.958680488169193">
        <ele>1864.6099999999999</ele>
        <time>2014-07-14T13:47:39Z</time>
      </trkpt>
      <trkpt lat="46.015321053564548" lon="6.95850882679224">
        <ele>1864.6099999999999</ele>
        <time>2014-07-14T13:48:03Z</time>
      </trkpt>
      <trkpt lat="46.015201108530164" lon="6.958331549540162">
        <ele>1864.6099999999999</ele>
        <time>2014-07-14T13:48:31Z</time>
      </trkpt>
      <trkpt lat="46.015118798241019" lon="6.958206240087748">
        <ele>1864.6099999999999</ele>
        <time>2014-07-14T13:48:54Z</time>
      </trkpt>
      <trkpt lat="46.0150455404073" lon="6.958110434934497">
        <ele>1865.5799999999999</ele>
        <time>2014-07-14T13:49:14Z</time>
      </trkpt>
      <trkpt lat="46.014965996146202" lon="6.957983281463385">
        <ele>1864.6099999999999</ele>
        <time>2014-07-14T13:49:39Z</time>
      </trkpt>
      <trkpt lat="46.015044534578919" lon="6.958103561773896">
        <ele>1877.5899999999999</ele>
        <time>2014-07-14T13:54:19Z</time>
      </trkpt>
      <trkpt lat="46.013913983479142" lon="6.956087630242109">
        <ele>1878.0699999999999</ele>
        <time>2014-07-14T13:54:39Z</time>
      </trkpt>
      <trkpt lat="46.013955641537905" lon="6.955992914736271">
        <ele>1878.0699999999999</ele>
        <time>2014-07-14T13:54:56Z</time>
      </trkpt>
      <trkpt lat="46.013998640701175" lon="6.955982772633433">
        <ele>1878.0699999999999</ele>
        <time>2014-07-14T13:55:23Z</time>
      </trkpt>
      <trkpt lat="46.013997634872794" lon="6.955991741269827">
        <ele>1878.0699999999999</ele>
        <time>2014-07-14T13:55:27Z</time>
      </trkpt>
      <trkpt lat="46.014001658186316" lon="6.955976150929928">
        <ele>1879.03</ele>
        <time>2014-07-14T13:55:38Z</time>
      </trkpt>
      <trkpt lat="46.013977769762278" lon="6.955983694642782">
        <ele>1879.03</ele>
        <time>2014-07-14T13:55:53Z</time>
      </trkpt>
      <trkpt lat="46.013915408402681" lon="6.95601487532258">
        <ele>1880.48</ele>
        <time>2014-07-14T13:56:11Z</time>
      </trkpt>
      <trkpt lat="46.013916581869125" lon="6.956014540046454">
        <ele>1879.03</ele>
        <time>2014-07-14T13:56:12Z</time>
      </trkpt>
      <trkpt lat="46.013915995135903" lon="6.955965925008059">
        <ele>1880.48</ele>
        <time>2014-07-14T13:56:23Z</time>
      </trkpt>
      <trkpt lat="46.01392119191587" lon="6.955950418487191">
        <ele>1879.03</ele>
        <time>2014-07-14T13:56:24Z</time>
      </trkpt>
      <trkpt lat="46.013988582417369" lon="6.955956369638443">
        <ele>1878.55</ele>
        <time>2014-07-14T13:56:39Z</time>
      </trkpt>
      <trkpt lat="46.014022110030055" lon="6.955958800390363">
        <ele>1878.55</ele>
        <time>2014-07-14T13:56:58Z</time>
      </trkpt>
      <trkpt lat="46.014052787795663" lon="6.956017054617405">
        <ele>1878.55</ele>
        <time>2014-07-14T13:57:23Z</time>
      </trkpt>
      <trkpt lat="46.014108275994658" lon="6.955952094867826">
        <ele>1878.55</ele>
        <time>2014-07-14T13:57:54Z</time>
      </trkpt>
      <trkpt lat="46.014083549380302" lon="6.956011857837439">
        <ele>1878.55</ele>
        <time>2014-07-14T13:58:13Z</time>
      </trkpt>
      <trkpt lat="46.014092350378633" lon="6.956008169800043">
        <ele>1878.55</ele>
        <time>2014-07-14T13:58:44Z</time>
      </trkpt>
      <trkpt lat="46.014207601547241" lon="6.955911861732602">
        <ele>1878.55</ele>
        <time>2014-07-14T13:59:16Z</time>
      </trkpt>
      <trkpt lat="46.014198549091816" lon="6.955916555598378">
        <ele>1878.55</ele>
        <time>2014-07-14T13:59:34Z</time>
      </trkpt>
      <trkpt lat="46.014171643182635" lon="6.955908425152302">
        <ele>1878.0699999999999</ele>
        <time>2014-07-14T14:00:01Z</time>
      </trkpt>
      <trkpt lat="46.014185724779963" lon="6.955931726843119">
        <ele>1878.55</ele>
        <time>2014-07-14T14:00:32Z</time>
      </trkpt>
      <trkpt lat="46.014149431139231" lon="6.956006996333599">
        <ele>1878.55</ele>
        <time>2014-07-14T14:00:53Z</time>
      </trkpt>
      <trkpt lat="46.01414255797863" lon="6.956038009375334">
        <ele>1878.55</ele>
        <time>2014-07-14T14:01:08Z</time>
      </trkpt>
      <trkpt lat="46.014176839962602" lon="6.955980509519577">
        <ele>1878.55</ele>
        <time>2014-07-14T14:01:22Z</time>
      </trkpt>
      <trkpt lat="46.014158315956593" lon="6.955984449014068">
        <ele>1879.03</ele>
        <time>2014-07-14T14:01:26Z</time>
      </trkpt>
      <trkpt lat="46.014105090871453" lon="6.956006158143282">
        <ele>1879.03</ele>
        <time>2014-07-14T14:01:33Z</time>
      </trkpt>
      <trkpt lat="46.014082795009017" lon="6.95601336658001">
        <ele>1877.5899999999999</ele>
        <time>2014-07-14T14:01:35Z</time>
      </trkpt>
      <trkpt lat="46.013946421444416" lon="6.956054773181677">
        <ele>1873.75</ele>
        <time>2014-07-14T14:01:47Z</time>
      </trkpt>
      <trkpt lat="46.013936195522547" lon="6.956059047952294">
        <ele>1873.27</ele>
        <time>2014-07-14T14:01:48Z</time>
      </trkpt>
      <trkpt lat="46.01387576200068" lon="6.956081846728921">
        <ele>1869.9000000000001</ele>
        <time>2014-07-14T14:01:54Z</time>
      </trkpt>
      <trkpt lat="46.013854974880815" lon="6.956087714061141">
        <ele>1869.4200000000001</ele>
        <time>2014-07-14T14:01:56Z</time>
      </trkpt>
      <trkpt lat="46.013768389821053" lon="6.95604370906949">
        <ele>1866.0599999999999</ele>
        <time>2014-07-14T14:02:04Z</time>
      </trkpt>
      <trkpt lat="46.01368909701705" lon="6.95597330108285">
        <ele>1862.6900000000001</ele>
        <time>2014-07-14T14:02:13Z</time>
      </trkpt>
      <trkpt lat="46.013545263558626" lon="6.955761406570673">
        <ele>1861.25</ele>
        <time>2014-07-14T14:02:35Z</time>
      </trkpt>
      <trkpt lat="46.013533277437091" lon="6.955865006893873">
        <ele>1859.3299999999999</ele>
        <time>2014-07-14T14:02:43Z</time>
      </trkpt>
      <trkpt lat="46.013706028461456" lon="6.955976570025086">
        <ele>1856.4400000000001</ele>
        <time>2014-07-14T14:02:56Z</time>
      </trkpt>
      <trkpt lat="46.013736203312874" lon="6.956010349094868">
        <ele>1856.4400000000001</ele>
        <time>2014-07-14T14:02:59Z</time>
      </trkpt>
      <trkpt lat="46.013821698725224" lon="6.956053180620074">
        <ele>1855.48</ele>
        <time>2014-07-14T14:03:07Z</time>
      </trkpt>
      <trkpt lat="46.013911133632064" lon="6.956074554473162">
        <ele>1854.52</ele>
        <time>2014-07-14T14:03:22Z</time>
      </trkpt>
      <trkpt lat="46.013945834711194" lon="6.956057790666819">
        <ele>1854.52</ele>
        <time>2014-07-14T14:03:30Z</time>
      </trkpt>
      <trkpt lat="46.014121854677796" lon="6.955949245020747">
        <ele>1854.04</ele>
        <time>2014-07-14T14:03:47Z</time>
      </trkpt>
      <trkpt lat="46.014249930158257" lon="6.955832317471504">
        <ele>1853.5599999999999</ele>
        <time>2014-07-14T14:04:02Z</time>
      </trkpt>
      <trkpt lat="46.014236183837056" lon="6.955851847305894">
        <ele>1853.5599999999999</ele>
        <time>2014-07-14T14:04:24Z</time>
      </trkpt>
      <trkpt lat="46.014246409758925" lon="6.955863833427429">
        <ele>1853.5599999999999</ele>
        <time>2014-07-14T14:04:55Z</time>
      </trkpt>
      <trkpt lat="46.014242134988308" lon="6.95588244125247">
        <ele>1853.5599999999999</ele>
        <time>2014-07-14T14:05:13Z</time>
      </trkpt>
      <trkpt lat="46.014249678701162" lon="6.955871880054474">
        <ele>1853.5599999999999</ele>
        <time>2014-07-14T14:05:34Z</time>
      </trkpt>
      <trkpt lat="46.014236602932215" lon="6.955903060734272">
        <ele>1850.1900000000001</ele>
        <time>2014-07-14T14:05:43Z</time>
      </trkpt>
      <trkpt lat="46.01423685438931" lon="6.955915801227093">
        <ele>1850.1900000000001</ele>
        <time>2014-07-14T14:05:44Z</time>
      </trkpt>
      <trkpt lat="46.014242051169276" lon="6.955905659124255">
        <ele>1853.5599999999999</ele>
        <time>2014-07-14T14:05:51Z</time>
      </trkpt>
      <trkpt lat="46.014245403930545" lon="6.95590297691524">
        <ele>1853.5599999999999</ele>
        <time>2014-07-14T14:05:52Z</time>
      </trkpt>
      <trkpt lat="46.01425789296627" lon="6.955856876447797">
        <ele>1854.04</ele>
        <time>2014-07-14T14:06:09Z</time>
      </trkpt>
      <trkpt lat="46.01427348330617" lon="6.955879759043455">
        <ele>1853.5599999999999</ele>
        <time>2014-07-14T14:06:28Z</time>
      </trkpt>
      <trkpt lat="46.01441279053688" lon="6.955810859799385">
        <ele>1853.0799999999999</ele>
        <time>2014-07-14T14:06:43Z</time>
      </trkpt>
      <trkpt lat="46.01444648578763" lon="6.955814128741622">
        <ele>1852.1199999999999</ele>
        <time>2014-07-14T14:06:55Z</time>
      </trkpt>
      <trkpt lat="46.014486383646727" lon="6.955784037709236">
        <ele>1851.6400000000001</ele>
        <time>2014-07-14T14:07:00Z</time>
      </trkpt>
      <trkpt lat="46.014523431658745" lon="6.955742547288537">
        <ele>1850.1900000000001</ele>
        <time>2014-07-14T14:07:05Z</time>
      </trkpt>
      <trkpt lat="46.014580931514502" lon="6.955557055771351">
        <ele>1846.8299999999999</ele>
        <time>2014-07-14T14:07:20Z</time>
      </trkpt>
      <trkpt lat="46.014462495222688" lon="6.955458065494895">
        <ele>1844.4300000000001</ele>
        <time>2014-07-14T14:07:37Z</time>
      </trkpt>
      <trkpt lat="46.014421004801989" lon="6.955435685813427">
        <ele>1843.47</ele>
        <time>2014-07-14T14:07:42Z</time>
      </trkpt>
      <trkpt lat="46.014283457770944" lon="6.955370893701911">
        <ele>1840.0999999999999</ele>
        <time>2014-07-14T14:07:57Z</time>
      </trkpt>
      <trkpt lat="46.014081789180636" lon="6.955354548990727">
        <ele>1836.74</ele>
        <time>2014-07-14T14:08:16Z</time>
      </trkpt>
      <trkpt lat="46.013966538012028" lon="6.955269724130631">
        <ele>1833.3699999999999</ele>
        <time>2014-07-14T14:08:30Z</time>
      </trkpt>
      <trkpt lat="46.013876516371965" lon="6.95521641522646">
        <ele>1830.49</ele>
        <time>2014-07-14T14:08:41Z</time>
      </trkpt>
      <trkpt lat="46.013762606307864" lon="6.955171823501587">
        <ele>1827.1199999999999</ele>
        <time>2014-07-14T14:08:54Z</time>
      </trkpt>
      <trkpt lat="46.013590525835752" lon="6.95508498698473">
        <ele>1824.72</ele>
        <time>2014-07-14T14:09:09Z</time>
      </trkpt>
      <trkpt lat="46.013460187241435" lon="6.955094961449504">
        <ele>1824.24</ele>
        <time>2014-07-14T14:09:23Z</time>
      </trkpt>
      <trkpt lat="46.013320377096534" lon="6.955098565667868">
        <ele>1824.24</ele>
        <time>2014-07-14T14:09:38Z</time>
      </trkpt>
      <trkpt lat="46.01324150338769" lon="6.95513678714633">
        <ele>1824.24</ele>
        <time>2014-07-14T14:09:50Z</time>
      </trkpt>
      <trkpt lat="46.013137064874172" lon="6.955133602023125">
        <ele>1822.8</ele>
        <time>2014-07-14T14:10:01Z</time>
      </trkpt>
      <trkpt lat="46.013008989393711" lon="6.955047436058521">
        <ele>1819.9100000000001</ele>
        <time>2014-07-14T14:10:16Z</time>
      </trkpt>
      <trkpt lat="46.01286138407886" lon="6.954971663653851">
        <ele>1816.55</ele>
        <time>2014-07-14T14:10:31Z</time>
      </trkpt>
      <trkpt lat="46.012849733233452" lon="6.954966466873884">
        <ele>1817.03</ele>
        <time>2014-07-14T14:10:32Z</time>
      </trkpt>
      <trkpt lat="46.012685531750321" lon="6.954929754137993">
        <ele>1814.6300000000001</ele>
        <time>2014-07-14T14:10:47Z</time>
      </trkpt>
      <trkpt lat="46.012518983334303" lon="6.954934615641832">
        <ele>1811.74</ele>
        <time>2014-07-14T14:11:02Z</time>
      </trkpt>
      <trkpt lat="46.012300634756684" lon="6.954834870994091">
        <ele>1811.26</ele>
        <time>2014-07-14T14:11:21Z</time>
      </trkpt>
      <trkpt lat="46.012244643643498" lon="6.95479279384017">
        <ele>1810.78</ele>
        <time>2014-07-14T14:11:27Z</time>
      </trkpt>
      <trkpt lat="46.012083794921637" lon="6.954704867675901">
        <ele>1808.3800000000001</ele>
        <time>2014-07-14T14:11:43Z</time>
      </trkpt>
      <trkpt lat="46.011962341144681" lon="6.954596154391766">
        <ele>1805.01</ele>
        <time>2014-07-14T14:11:57Z</time>
      </trkpt>
      <trkpt lat="46.01184893399477" lon="6.95462666451931">
        <ele>1802.1300000000001</ele>
        <time>2014-07-14T14:12:08Z</time>
      </trkpt>
      <trkpt lat="46.011704513803124" lon="6.954607302322984">
        <ele>1798.76</ele>
        <time>2014-07-14T14:12:22Z</time>
      </trkpt>
      <trkpt lat="46.011603679507971" lon="6.954605123028159">
        <ele>1796.8399999999999</ele>
        <time>2014-07-14T14:12:32Z</time>
      </trkpt>
      <trkpt lat="46.011601248756051" lon="6.954553825780749">
        <ele>1795.8800000000001</ele>
        <time>2014-07-14T14:12:37Z</time>
      </trkpt>
      <trkpt lat="46.011635195463896" lon="6.954500349238515">
        <ele>1794.9200000000001</ele>
        <time>2014-07-14T14:12:42Z</time>
      </trkpt>
      <trkpt lat="46.011721612885594" lon="6.954333130270243">
        <ele>1791.55</ele>
        <time>2014-07-14T14:12:56Z</time>
      </trkpt>
      <trkpt lat="46.011892268434167" lon="6.954237157478929">
        <ele>1788.6700000000001</ele>
        <time>2014-07-14T14:13:13Z</time>
      </trkpt>
      <trkpt lat="46.012052111327648" lon="6.954196253791452">
        <ele>1785.79</ele>
        <time>2014-07-14T14:13:29Z</time>
      </trkpt>
      <trkpt lat="46.012092512100935" lon="6.954171443358064">
        <ele>1784.3399999999999</ele>
        <time>2014-07-14T14:13:34Z</time>
      </trkpt>
      <trkpt lat="46.012048842385411" lon="6.954154092818499">
        <ele>1783.8599999999999</ele>
        <time>2014-07-14T14:13:38Z</time>
      </trkpt>
      <trkpt lat="46.011999640613794" lon="6.954108830541372">
        <ele>1782.9000000000001</ele>
        <time>2014-07-14T14:13:54Z</time>
      </trkpt>
      <trkpt lat="46.011936524882913" lon="6.9539640750736">
        <ele>1780.02</ele>
        <time>2014-07-14T14:14:07Z</time>
      </trkpt>
      <trkpt lat="46.011918587610126" lon="6.953879753127694">
        <ele>1778.0999999999999</ele>
        <time>2014-07-14T14:14:14Z</time>
      </trkpt>
      <trkpt lat="46.011802917346358" lon="6.953810602426529">
        <ele>1774.73</ele>
        <time>2014-07-14T14:14:27Z</time>
      </trkpt>
      <trkpt lat="46.011732676997781" lon="6.953701553866267">
        <ele>1771.8499999999999</ele>
        <time>2014-07-14T14:14:39Z</time>
      </trkpt>
      <trkpt lat="46.011664951220155" lon="6.953645646572113">
        <ele>1769.9200000000001</ele>
        <time>2014-07-14T14:14:47Z</time>
      </trkpt>
      <trkpt lat="46.011643661186099" lon="6.953634666278958">
        <ele>1769.4400000000001</ele>
        <time>2014-07-14T14:14:49Z</time>
      </trkpt>
      <trkpt lat="46.011625723913312" lon="6.95363181643188">
        <ele>1768.96</ele>
        <time>2014-07-14T14:14:51Z</time>
      </trkpt>
      <trkpt lat="46.011517345905304" lon="6.953638354316354">
        <ele>1767.52</ele>
        <time>2014-07-14T14:15:05Z</time>
      </trkpt>
      <trkpt lat="46.011414080858231" lon="6.953566521406174">
        <ele>1765.1199999999999</ele>
        <time>2014-07-14T14:15:20Z</time>
      </trkpt>
      <trkpt lat="46.011328669264913" lon="6.953498125076294">
        <ele>1763.6800000000001</ele>
        <time>2014-07-14T14:15:29Z</time>
      </trkpt>
      <trkpt lat="46.011358927935362" lon="6.953359320759773">
        <ele>1760.79</ele>
        <time>2014-07-14T14:15:40Z</time>
      </trkpt>
      <trkpt lat="46.011378793045878" lon="6.953241806477308">
        <ele>1759.3499999999999</ele>
        <time>2014-07-14T14:15:48Z</time>
      </trkpt>
      <trkpt lat="46.011383989825845" lon="6.95316812954843">
        <ele>1758.3900000000001</ele>
        <time>2014-07-14T14:15:53Z</time>
      </trkpt>
      <trkpt lat="46.011391114443541" lon="6.953143989667296">
        <ele>1757.9100000000001</ele>
        <time>2014-07-14T14:15:55Z</time>
      </trkpt>
      <trkpt lat="46.011416427791119" lon="6.953101744875312">
        <ele>1756.95</ele>
        <time>2014-07-14T14:15:59Z</time>
      </trkpt>
      <trkpt lat="46.011436795815825" lon="6.953080538660288">
        <ele>1756.47</ele>
        <time>2014-07-14T14:16:02Z</time>
      </trkpt>
      <trkpt lat="46.011458672583103" lon="6.952967382967472">
        <ele>1754.54</ele>
        <time>2014-07-14T14:16:11Z</time>
      </trkpt>
      <trkpt lat="46.011419026181102" lon="6.952885743230581">
        <ele>1752.6199999999999</ele>
        <time>2014-07-14T14:16:23Z</time>
      </trkpt>
      <trkpt lat="46.011354988440871" lon="6.95292429998517">
        <ele>1750.7</ele>
        <time>2014-07-14T14:16:30Z</time>
      </trkpt>
      <trkpt lat="46.011201431974769" lon="6.952999569475651">
        <ele>1747.8099999999999</ele>
        <time>2014-07-14T14:16:45Z</time>
      </trkpt>
      <trkpt lat="46.011147452518344" lon="6.953018512576819">
        <ele>1746.3699999999999</ele>
        <time>2014-07-14T14:16:51Z</time>
      </trkpt>
      <trkpt lat="46.011151475831866" lon="6.952965287491679">
        <ele>1744.9300000000001</ele>
        <time>2014-07-14T14:16:55Z</time>
      </trkpt>
      <trkpt lat="46.011197660118341" lon="6.952840145677328">
        <ele>1741.5699999999999</ele>
        <time>2014-07-14T14:17:10Z</time>
      </trkpt>
      <trkpt lat="46.01108324714005" lon="6.952834948897362">
        <ele>1738.2</ele>
        <time>2014-07-14T14:17:21Z</time>
      </trkpt>
      <trkpt lat="46.010935977101326" lon="6.952798822894692">
        <ele>1735.3199999999999</ele>
        <time>2014-07-14T14:17:36Z</time>
      </trkpt>
      <trkpt lat="46.0108164511621" lon="6.95274350233376">
        <ele>1731.95</ele>
        <time>2014-07-14T14:17:50Z</time>
      </trkpt>
      <trkpt lat="46.010652165859938" lon="6.952748447656632">
        <ele>1729.0699999999999</ele>
        <time>2014-07-14T14:18:08Z</time>
      </trkpt>
      <trkpt lat="46.01052182726562" lon="6.952727660536766">
        <ele>1726.1800000000001</ele>
        <time>2014-07-14T14:18:24Z</time>
      </trkpt>
      <trkpt lat="46.010409509763122" lon="6.952673513442278">
        <ele>1723.3</ele>
        <time>2014-07-14T14:18:40Z</time>
      </trkpt>
      <trkpt lat="46.01030096411705" lon="6.952600171789527">
        <ele>1720.4200000000001</ele>
        <time>2014-07-14T14:18:53Z</time>
      </trkpt>
      <trkpt lat="46.010212786495686" lon="6.95252506993711">
        <ele>1717.05</ele>
        <time>2014-07-14T14:19:06Z</time>
      </trkpt>
      <trkpt lat="46.010152604430914" lon="6.952458769083023">
        <ele>1714.1700000000001</ele>
        <time>2014-07-14T14:19:15Z</time>
      </trkpt>
      <trkpt lat="46.010028049349785" lon="6.95241954177618">
        <ele>1711.28</ele>
        <time>2014-07-14T14:19:29Z</time>
      </trkpt>
      <trkpt lat="46.009923275560141" lon="6.952366316691041">
        <ele>1707.9200000000001</ele>
        <time>2014-07-14T14:19:41Z</time>
      </trkpt>
      <trkpt lat="46.009904416278005" lon="6.952355923131108">
        <ele>1707.9200000000001</ele>
        <time>2014-07-14T14:19:43Z</time>
      </trkpt>
      <trkpt lat="46.009748512879014" lon="6.95235550403595">
        <ele>1704.55</ele>
        <time>2014-07-14T14:19:59Z</time>
      </trkpt>
      <trkpt lat="46.009571403264999" lon="6.952325245365501">
        <ele>1702.1500000000001</ele>
        <time>2014-07-14T14:20:16Z</time>
      </trkpt>
      <trkpt lat="46.009541312232614" lon="6.952313091605902">
        <ele>1701.1900000000001</ele>
        <time>2014-07-14T14:20:19Z</time>
      </trkpt>
      <trkpt lat="46.009435951709747" lon="6.952202701941133">
        <ele>1699.27</ele>
        <time>2014-07-14T14:20:33Z</time>
      </trkpt>
      <trkpt lat="46.009391862899065" lon="6.952150901779532">
        <ele>1698.3099999999999</ele>
        <time>2014-07-14T14:20:39Z</time>
      </trkpt>
      <trkpt lat="46.009258674457669" lon="6.952062388882041">
        <ele>1694.9400000000001</ele>
        <time>2014-07-14T14:20:56Z</time>
      </trkpt>
      <trkpt lat="46.00923084653914" lon="6.952058700844646">
        <ele>1694.46</ele>
        <time>2014-07-14T14:21:10Z</time>
      </trkpt>
      <trkpt lat="46.009199917316437" lon="6.95202274248004">
        <ele>1693.98</ele>
        <time>2014-07-14T14:21:14Z</time>
      </trkpt>
      <trkpt lat="46.009066393598914" lon="6.952012432739139">
        <ele>1690.6199999999999</ele>
        <time>2014-07-14T14:21:28Z</time>
      </trkpt>
      <trkpt lat="46.008954243734479" lon="6.952000698074698">
        <ele>1687.73</ele>
        <time>2014-07-14T14:21:40Z</time>
      </trkpt>
      <trkpt lat="46.008846117183566" lon="6.951964572072029">
        <ele>1684.8499999999999</ele>
        <time>2014-07-14T14:21:53Z</time>
      </trkpt>
      <trkpt lat="46.008756933733821" lon="6.951903132721782">
        <ele>1682.4400000000001</ele>
        <time>2014-07-14T14:22:06Z</time>
      </trkpt>
      <trkpt lat="46.008740589022636" lon="6.951885614544153">
        <ele>1681.96</ele>
        <time>2014-07-14T14:22:08Z</time>
      </trkpt>
      <trkpt lat="46.008625002577901" lon="6.95182291790843">
        <ele>1680.04</ele>
        <time>2014-07-14T14:22:20Z</time>
      </trkpt>
      <trkpt lat="46.008432386443019" lon="6.951886536553502">
        <ele>1676.6800000000001</ele>
        <time>2014-07-14T14:22:35Z</time>
      </trkpt>
      <trkpt lat="46.008337922394276" lon="6.951957112178206">
        <ele>1675.23</ele>
        <time>2014-07-14T14:22:44Z</time>
      </trkpt>
      <trkpt lat="46.008215378969908" lon="6.952089797705412">
        <ele>1673.79</ele>
        <time>2014-07-14T14:23:00Z</time>
      </trkpt>
      <trkpt lat="46.008193669840693" lon="6.9521473813802">
        <ele>1673.3099999999999</ele>
        <time>2014-07-14T14:23:23Z</time>
      </trkpt>
      <trkpt lat="46.008213954046369" lon="6.951976893469691">
        <ele>1669.95</ele>
        <time>2014-07-14T14:23:35Z</time>
      </trkpt>
      <trkpt lat="46.008258713409305" lon="6.951825264841318">
        <ele>1668.02</ele>
        <time>2014-07-14T14:23:46Z</time>
      </trkpt>
      <trkpt lat="46.008366756141186" lon="6.951672965660691">
        <ele>1665.1400000000001</ele>
        <time>2014-07-14T14:24:01Z</time>
      </trkpt>
      <trkpt lat="46.008415119722486" lon="6.951517229899764">
        <ele>1661.78</ele>
        <time>2014-07-14T14:24:13Z</time>
      </trkpt>
      <trkpt lat="46.008423585444689" lon="6.95148479193449">
        <ele>1661.3</ele>
        <time>2014-07-14T14:24:16Z</time>
      </trkpt>
      <trkpt lat="46.008419813588262" lon="6.951338527724147">
        <ele>1657.9300000000001</ele>
        <time>2014-07-14T14:24:28Z</time>
      </trkpt>
      <trkpt lat="46.008417466655374" lon="6.951281195506454">
        <ele>1656.97</ele>
        <time>2014-07-14T14:24:33Z</time>
      </trkpt>
      <trkpt lat="46.008355356752872" lon="6.951318327337503">
        <ele>1656.01</ele>
        <time>2014-07-14T14:24:41Z</time>
      </trkpt>
      <trkpt lat="46.008338341489434" lon="6.951377000659704">
        <ele>1655.05</ele>
        <time>2014-07-14T14:24:45Z</time>
      </trkpt>
      <trkpt lat="46.008293749764562" lon="6.951460065320134">
        <ele>1653.1199999999999</ele>
        <time>2014-07-14T14:24:52Z</time>
      </trkpt>
      <trkpt lat="46.008179755881429" lon="6.95152779109776">
        <ele>1650.24</ele>
        <time>2014-07-14T14:25:04Z</time>
      </trkpt>
      <trkpt lat="46.008137091994286" lon="6.951541705057025">
        <ele>1648.8</ele>
        <time>2014-07-14T14:25:08Z</time>
      </trkpt>
      <trkpt lat="46.008101971819997" lon="6.951490323990583">
        <ele>1647.3599999999999</ele>
        <time>2014-07-14T14:25:12Z</time>
      </trkpt>
      <trkpt lat="46.008122842758894" lon="6.951419161632657">
        <ele>1646.8800000000001</ele>
        <time>2014-07-14T14:25:16Z</time>
      </trkpt>
      <trkpt lat="46.008154861629009" lon="6.951355459168553">
        <ele>1645.4300000000001</ele>
        <time>2014-07-14T14:25:21Z</time>
      </trkpt>
      <trkpt lat="46.008148826658726" lon="6.951180696487427">
        <ele>1642.55</ele>
        <time>2014-07-14T14:25:34Z</time>
      </trkpt>
      <trkpt lat="46.008176822215319" lon="6.951098553836346">
        <ele>1641.5899999999999</ele>
        <time>2014-07-14T14:25:40Z</time>
      </trkpt>
      <trkpt lat="46.008189897984266" lon="6.951044658198953">
        <ele>1639.6700000000001</ele>
        <time>2014-07-14T14:25:47Z</time>
      </trkpt>
      <trkpt lat="46.008135080337524" lon="6.951096877455711">
        <ele>1639.1900000000001</ele>
        <time>2014-07-14T14:25:53Z</time>
      </trkpt>
      <trkpt lat="46.00804690271616" lon="6.951136272400618">
        <ele>1636.3</ele>
        <time>2014-07-14T14:26:04Z</time>
      </trkpt>
      <trkpt lat="46.008037850260735" lon="6.951079024001956">
        <ele>1635.3399999999999</ele>
        <time>2014-07-14T14:26:08Z</time>
      </trkpt>
      <trkpt lat="46.008055871352553" lon="6.950920270755887">
        <ele>1633.4200000000001</ele>
        <time>2014-07-14T14:26:19Z</time>
      </trkpt>
      <trkpt lat="46.00807867012918" lon="6.950887916609645">
        <ele>1632.46</ele>
        <time>2014-07-14T14:26:22Z</time>
      </trkpt>
      <trkpt lat="46.008232813328505" lon="6.950798816978931">
        <ele>1629.0899999999999</ele>
        <time>2014-07-14T14:26:39Z</time>
      </trkpt>
      <trkpt lat="46.008247314020991" lon="6.950757661834359">
        <ele>1628.1300000000001</ele>
        <time>2014-07-14T14:26:42Z</time>
      </trkpt>
      <trkpt lat="46.008221078664064" lon="6.950534284114838">
        <ele>1624.77</ele>
        <time>2014-07-14T14:26:56Z</time>
      </trkpt>
      <trkpt lat="46.008237423375249" lon="6.950359102338553">
        <ele>1621.8800000000001</ele>
        <time>2014-07-14T14:27:09Z</time>
      </trkpt>
      <trkpt lat="46.008260808885098" lon="6.950247539207339">
        <ele>1620.9200000000001</ele>
        <time>2014-07-14T14:27:17Z</time>
      </trkpt>
      <trkpt lat="46.008296934887767" lon="6.950016533955932">
        <ele>1617.5599999999999</ele>
        <time>2014-07-14T14:27:34Z</time>
      </trkpt>
      <trkpt lat="46.008306322619319" lon="6.949906395748258">
        <ele>1615.6300000000001</ele>
        <time>2014-07-14T14:27:43Z</time>
      </trkpt>
      <trkpt lat="46.008305987343192" lon="6.949734231457114">
        <ele>1613.23</ele>
        <time>2014-07-14T14:27:59Z</time>
      </trkpt>
      <trkpt lat="46.008164836093783" lon="6.949827438220382">
        <ele>1609.8599999999999</ele>
        <time>2014-07-14T14:28:12Z</time>
      </trkpt>
      <trkpt lat="46.008071461692452" lon="6.949862223118544">
        <ele>1606.98</ele>
        <time>2014-07-14T14:28:23Z</time>
      </trkpt>
      <trkpt lat="46.00797557272017" lon="6.949910586699843">
        <ele>1603.6199999999999</ele>
        <time>2014-07-14T14:28:33Z</time>
      </trkpt>
      <trkpt lat="46.007929723709822" lon="6.94993824698031">
        <ele>1602.1700000000001</ele>
        <time>2014-07-14T14:28:38Z</time>
      </trkpt>
      <trkpt lat="46.007899884134531" lon="6.949915532022715">
        <ele>1599.77</ele>
        <time>2014-07-14T14:28:43Z</time>
      </trkpt>
      <trkpt lat="46.007867781445384" lon="6.949704475700855">
        <ele>1596.8900000000001</ele>
        <time>2014-07-14T14:28:55Z</time>
      </trkpt>
      <trkpt lat="46.00788177922368" lon="6.949657704681158">
        <ele>1596.8900000000001</ele>
        <time>2014-07-14T14:29:09Z</time>
      </trkpt>
      <trkpt lat="46.007873732596636" lon="6.94963876157999">
        <ele>1596.8900000000001</ele>
        <time>2014-07-14T14:29:20Z</time>
      </trkpt>
      <trkpt lat="46.007877169176936" lon="6.949596935883164">
        <ele>1595.9300000000001</ele>
        <time>2014-07-14T14:29:23Z</time>
      </trkpt>
      <trkpt lat="46.007879013195634" lon="6.949532311409712">
        <ele>1594</ele>
        <time>2014-07-14T14:29:28Z</time>
      </trkpt>
      <trkpt lat="46.007898626849055" lon="6.949349083006382">
        <ele>1590.6400000000001</ele>
        <time>2014-07-14T14:29:39Z</time>
      </trkpt>
      <trkpt lat="46.007899129763246" lon="6.949309436604381">
        <ele>1589.6800000000001</ele>
        <time>2014-07-14T14:29:42Z</time>
      </trkpt>
      <trkpt lat="46.007929304614663" lon="6.949196280911565">
        <ele>1587.27</ele>
        <time>2014-07-14T14:29:52Z</time>
      </trkpt>
      <trkpt lat="46.007999125868082" lon="6.949071306735277">
        <ele>1584.3900000000001</ele>
        <time>2014-07-14T14:30:05Z</time>
      </trkpt>
      <trkpt lat="46.00810406729579" lon="6.948944739997387">
        <ele>1581.51</ele>
        <time>2014-07-14T14:30:21Z</time>
      </trkpt>
      <trkpt lat="46.008176822215319" lon="6.948918420821428">
        <ele>1580.0599999999999</ele>
        <time>2014-07-14T14:30:29Z</time>
      </trkpt>
      <trkpt lat="46.008241279050708" lon="6.948821861296892">
        <ele>1577.6600000000001</ele>
        <time>2014-07-14T14:30:42Z</time>
      </trkpt>
      <trkpt lat="46.008177408948541" lon="6.948783053085208">
        <ele>1576.22</ele>
        <time>2014-07-14T14:30:48Z</time>
      </trkpt>
      <trkpt lat="46.008028378710151" lon="6.948744161054492">
        <ele>1573.8199999999999</ele>
        <time>2014-07-14T14:31:04Z</time>
      </trkpt>
      <trkpt lat="46.007915139198303" lon="6.948746843263507">
        <ele>1570.9300000000001</ele>
        <time>2014-07-14T14:31:18Z</time>
      </trkpt>
      <trkpt lat="46.007776670157909" lon="6.948807779699564">
        <ele>1567.5699999999999</ele>
        <time>2014-07-14T14:31:33Z</time>
      </trkpt>
      <trkpt lat="46.007771473377943" lon="6.948812808841467">
        <ele>1567.0899999999999</ele>
        <time>2014-07-14T14:31:34Z</time>
      </trkpt>
      <trkpt lat="46.007663011550903" lon="6.948848431929946">
        <ele>1563.72</ele>
        <time>2014-07-14T14:31:46Z</time>
      </trkpt>
      <trkpt lat="46.007523704320192" lon="6.94887014105916">
        <ele>1560.8399999999999</ele>
        <time>2014-07-14T14:32:00Z</time>
      </trkpt>
      <trkpt lat="46.007348271086812" lon="6.948896879330277">
        <ele>1558.4300000000001</ele>
        <time>2014-07-14T14:32:16Z</time>
      </trkpt>
      <trkpt lat="46.00716152228415" lon="6.948928143829107">
        <ele>1556.99</ele>
        <time>2014-07-14T14:32:33Z</time>
      </trkpt>
      <trkpt lat="46.00698851980269" lon="6.948970053344965">
        <ele>1556.51</ele>
        <time>2014-07-14T14:32:50Z</time>
      </trkpt>
      <trkpt lat="46.006828844547272" lon="6.949004586786032">
        <ele>1555.0699999999999</ele>
        <time>2014-07-14T14:33:05Z</time>
      </trkpt>
      <trkpt lat="46.006792634725571" lon="6.949008023366332">
        <ele>1554.1099999999999</ele>
        <time>2014-07-14T14:33:09Z</time>
      </trkpt>
      <trkpt lat="46.006741337478161" lon="6.948995953425765">
        <ele>1553.1500000000001</ele>
        <time>2014-07-14T14:33:15Z</time>
      </trkpt>
      <trkpt lat="46.006662212312222" lon="6.94895563647151">
        <ele>1551.22</ele>
        <time>2014-07-14T14:33:22Z</time>
      </trkpt>
      <trkpt lat="46.006642682477832" lon="6.948959324508905">
        <ele>1550.74</ele>
        <time>2014-07-14T14:33:24Z</time>
      </trkpt>
      <trkpt lat="46.006597001105547" lon="6.948949852958322">
        <ele>1550.26</ele>
        <time>2014-07-14T14:33:28Z</time>
      </trkpt>
      <trkpt lat="46.006445959210396" lon="6.948943650349975">
        <ele>1547.8599999999999</ele>
        <time>2014-07-14T14:33:43Z</time>
      </trkpt>
      <trkpt lat="46.006426177918911" lon="6.9489527028054">
        <ele>1547.8599999999999</ele>
        <time>2014-07-14T14:33:45Z</time>
      </trkpt>
      <trkpt lat="46.00635627284646" lon="6.948962928727269">
        <ele>1546.4200000000001</ele>
        <time>2014-07-14T14:33:51Z</time>
      </trkpt>
      <trkpt lat="46.006193915382028" lon="6.948936358094215">
        <ele>1543.05</ele>
        <time>2014-07-14T14:34:06Z</time>
      </trkpt>
      <trkpt lat="46.006044214591384" lon="6.948856143280864">
        <ele>1540.1700000000001</ele>
        <time>2014-07-14T14:34:21Z</time>
      </trkpt>
      <trkpt lat="46.005889819934964" lon="6.948729660362005">
        <ele>1536.8</ele>
        <time>2014-07-14T14:34:37Z</time>
      </trkpt>
      <trkpt lat="46.005743471905589" lon="6.948621114715934">
        <ele>1533.4400000000001</ele>
        <time>2014-07-14T14:34:52Z</time>
      </trkpt>
      <trkpt lat="46.005630400031805" lon="6.948532266542316">
        <ele>1530.5599999999999</ele>
        <time>2014-07-14T14:35:04Z</time>
      </trkpt>
      <trkpt lat="46.00546351633966" lon="6.948399413377047">
        <ele>1529.5899999999999</ele>
        <time>2014-07-14T14:35:21Z</time>
      </trkpt>
      <trkpt lat="46.005408111959696" lon="6.948355827480555">
        <ele>1527.1900000000001</ele>
        <time>2014-07-14T14:35:27Z</time>
      </trkpt>
      <trkpt lat="46.005261763930321" lon="6.948320288211107">
        <ele>1525.75</ele>
        <time>2014-07-14T14:35:43Z</time>
      </trkpt>
      <trkpt lat="46.005099909380078" lon="6.948289778083563">
        <ele>1522.3900000000001</ele>
        <time>2014-07-14T14:36:00Z</time>
      </trkpt>
      <trkpt lat="46.004909807816148" lon="6.948221884667873">
        <ele>1519.02</ele>
        <time>2014-07-14T14:36:18Z</time>
      </trkpt>
      <trkpt lat="46.004748791456223" lon="6.948109567165375">
        <ele>1518.54</ele>
        <time>2014-07-14T14:36:36Z</time>
      </trkpt>
      <trkpt lat="46.004734542220831" lon="6.948096910491586">
        <ele>1516.1400000000001</ele>
        <time>2014-07-14T14:36:38Z</time>
      </trkpt>
      <trkpt lat="46.004546033218503" lon="6.94798425771296">
        <ele>1513.73</ele>
        <time>2014-07-14T14:36:56Z</time>
      </trkpt>
      <trkpt lat="46.004429776221514" lon="6.947842352092266">
        <ele>1510.8499999999999</ele>
        <time>2014-07-14T14:37:12Z</time>
      </trkpt>
      <trkpt lat="46.004425585269928" lon="6.947831707075238">
        <ele>1510.8499999999999</ele>
        <time>2014-07-14T14:37:13Z</time>
      </trkpt>
      <trkpt lat="46.004289127886295" lon="6.947695417329669">
        <ele>1508.45</ele>
        <time>2014-07-14T14:37:29Z</time>
      </trkpt>
      <trkpt lat="46.00422048009932" lon="6.947618722915649">
        <ele>1506.52</ele>
        <time>2014-07-14T14:37:37Z</time>
      </trkpt>
      <trkpt lat="46.004137750715017" lon="6.947525767609477">
        <ele>1505.5599999999999</ele>
        <time>2014-07-14T14:37:51Z</time>
      </trkpt>
      <trkpt lat="46.004121154546738" lon="6.947509590536356">
        <ele>1505.5599999999999</ele>
        <time>2014-07-14T14:38:06Z</time>
      </trkpt>
      <trkpt lat="46.003984361886978" lon="6.947394339367747">
        <ele>1503.1600000000001</ele>
        <time>2014-07-14T14:38:24Z</time>
      </trkpt>
      <trkpt lat="46.003876822069287" lon="6.947300462052226">
        <ele>1501.72</ele>
        <time>2014-07-14T14:38:38Z</time>
      </trkpt>
      <trkpt lat="46.003808090463281" lon="6.947197951376438">
        <ele>1499.3099999999999</ele>
        <time>2014-07-14T14:38:48Z</time>
      </trkpt>
      <trkpt lat="46.003736257553101" lon="6.946979938074946">
        <ele>1497.8699999999999</ele>
        <time>2014-07-14T14:39:05Z</time>
      </trkpt>
      <trkpt lat="46.003655875101686" lon="6.946823028847575">
        <ele>1495.95</ele>
        <time>2014-07-14T14:39:21Z</time>
      </trkpt>
      <trkpt lat="46.003553196787834" lon="6.946705263108015">
        <ele>1494.03</ele>
        <time>2014-07-14T14:39:35Z</time>
      </trkpt>
      <trkpt lat="46.003431491553783" lon="6.946517927572131">
        <ele>1492.5799999999999</ele>
        <time>2014-07-14T14:39:52Z</time>
      </trkpt>
      <trkpt lat="46.003344068303704" lon="6.94628918543458">
        <ele>1489.7</ele>
        <time>2014-07-14T14:40:07Z</time>
      </trkpt>
      <trkpt lat="46.003287239000201" lon="6.946133701130748">
        <ele>1486.3399999999999</ele>
        <time>2014-07-14T14:40:19Z</time>
      </trkpt>
      <trkpt lat="46.00328179076314" lon="6.946123391389847">
        <ele>1486.3399999999999</ele>
        <time>2014-07-14T14:40:20Z</time>
      </trkpt>
      <trkpt lat="46.003207275643945" lon="6.945931948721409">
        <ele>1485.3699999999999</ele>
        <time>2014-07-14T14:40:35Z</time>
      </trkpt>
      <trkpt lat="46.00316503085196" lon="6.94594468921423">
        <ele>1484.8900000000001</ele>
        <time>2014-07-14T14:40:45Z</time>
      </trkpt>
      <trkpt lat="46.003162264823914" lon="6.945813512429595">
        <ele>1483.45</ele>
        <time>2014-07-14T14:41:01Z</time>
      </trkpt>
      <trkpt lat="46.0031025018543" lon="6.945582926273346">
        <ele>1480.5699999999999</ele>
        <time>2014-07-14T14:41:18Z</time>
      </trkpt>
      <trkpt lat="46.003021951764822" lon="6.945430710911751">
        <ele>1478.1600000000001</ele>
        <time>2014-07-14T14:41:31Z</time>
      </trkpt>
      <trkpt lat="46.002931343391538" lon="6.945242788642645">
        <ele>1476.24</ele>
        <time>2014-07-14T14:41:47Z</time>
      </trkpt>
      <trkpt lat="46.0028141643852" lon="6.945056626573205">
        <ele>1474.8</ele>
        <time>2014-07-14T14:42:04Z</time>
      </trkpt>
      <trkpt lat="46.002808548510075" lon="6.945010526105762">
        <ele>1472.8800000000001</ele>
        <time>2014-07-14T14:42:07Z</time>
      </trkpt>
      <trkpt lat="46.002804189920425" lon="6.944958977401257">
        <ele>1472.8800000000001</ele>
        <time>2014-07-14T14:42:23Z</time>
      </trkpt>
      <trkpt lat="46.002736212685704" lon="6.944782035425305">
        <ele>1470.95</ele>
        <time>2014-07-14T14:42:35Z</time>
      </trkpt>
      <trkpt lat="46.002757754176855" lon="6.944661838933826">
        <ele>1470.47</ele>
        <time>2014-07-14T14:42:47Z</time>
      </trkpt>
      <trkpt lat="46.002787929028273" lon="6.944475006312132">
        <ele>1469.03</ele>
        <time>2014-07-14T14:43:00Z</time>
      </trkpt>
      <trkpt lat="46.002803016453981" lon="6.944211479276419">
        <ele>1468.0699999999999</ele>
        <time>2014-07-14T14:43:17Z</time>
      </trkpt>
      <trkpt lat="46.002745348960161" lon="6.94403663277626">
        <ele>1467.1099999999999</ele>
        <time>2014-07-14T14:43:30Z</time>
      </trkpt>
      <trkpt lat="46.002641329541802" lon="6.94383722729981">
        <ele>1465.6700000000001</ele>
        <time>2014-07-14T14:43:46Z</time>
      </trkpt>
      <trkpt lat="46.002544686198235" lon="6.943681994453073">
        <ele>1463.74</ele>
        <time>2014-07-14T14:43:59Z</time>
      </trkpt>
      <trkpt lat="46.002436308190227" lon="6.943477308377624">
        <ele>1461.3399999999999</ele>
        <time>2014-07-14T14:44:15Z</time>
      </trkpt>
      <trkpt lat="46.002286439761519" lon="6.943256864324212">
        <ele>1459.9000000000001</ele>
        <time>2014-07-14T14:44:34Z</time>
      </trkpt>
      <trkpt lat="46.002171356230974" lon="6.943062907084823">
        <ele>1456.53</ele>
        <time>2014-07-14T14:44:49Z</time>
      </trkpt>
      <trkpt lat="46.002017129212618" lon="6.942834835499525">
        <ele>1454.1300000000001</ele>
        <time>2014-07-14T14:45:09Z</time>
      </trkpt>
      <trkpt lat="46.001884862780571" lon="6.942646410316229">
        <ele>1452.21</ele>
        <time>2014-07-14T14:45:27Z</time>
      </trkpt>
      <trkpt lat="46.00175921805203" lon="6.942466702312231">
        <ele>1449.8099999999999</ele>
        <time>2014-07-14T14:45:42Z</time>
      </trkpt>
      <trkpt lat="46.001645643264055" lon="6.942313900217414">
        <ele>1447.4000000000001</ele>
        <time>2014-07-14T14:45:56Z</time>
      </trkpt>
      <trkpt lat="46.001587389037013" lon="6.942238127812743">
        <ele>1446.4400000000001</ele>
        <time>2014-07-14T14:46:03Z</time>
      </trkpt>
      <trkpt lat="46.001439364627004" lon="6.942012989893556">
        <ele>1444.04</ele>
        <time>2014-07-14T14:46:21Z</time>
      </trkpt>
      <trkpt lat="46.001298883929849" lon="6.941772680729628">
        <ele>1442.1099999999999</ele>
        <time>2014-07-14T14:46:39Z</time>
      </trkpt>
      <trkpt lat="46.001164689660072" lon="6.941556595265865">
        <ele>1440.1900000000001</ele>
        <time>2014-07-14T14:46:56Z</time>
      </trkpt>
      <trkpt lat="46.001055557280779" lon="6.941386442631483">
        <ele>1437.79</ele>
        <time>2014-07-14T14:47:10Z</time>
      </trkpt>
      <trkpt lat="46.000925973057747" lon="6.941178822889924">
        <ele>1435.3900000000001</ele>
        <time>2014-07-14T14:47:27Z</time>
      </trkpt>
      <trkpt lat="46.000770572572947" lon="6.940903896465898">
        <ele>1433.46</ele>
        <time>2014-07-14T14:47:48Z</time>
      </trkpt>
      <trkpt lat="46.000625481829047" lon="6.940644895657897">
        <ele>1431.0599999999999</ele>
        <time>2014-07-14T14:48:08Z</time>
      </trkpt>
      <trkpt lat="46.0004863422364" lon="6.940407939255238">
        <ele>1429.1400000000001</ele>
        <time>2014-07-14T14:48:26Z</time>
      </trkpt>
      <trkpt lat="46.000336473807693" lon="6.940158829092979">
        <ele>1426.73</ele>
        <time>2014-07-14T14:48:45Z</time>
      </trkpt>
      <trkpt lat="46.000208565965295" lon="6.939965626224876">
        <ele>1425.29</ele>
        <time>2014-07-14T14:49:01Z</time>
      </trkpt>
      <trkpt lat="46.000152323395014" lon="6.939914496615529">
        <ele>1424.8099999999999</ele>
        <time>2014-07-14T14:49:06Z</time>
      </trkpt>
      <trkpt lat="46.000003544613719" lon="6.939659435302019">
        <ele>1422.4100000000001</ele>
        <time>2014-07-14T14:49:25Z</time>
      </trkpt>
      <trkpt lat="45.999938752502203" lon="6.939633786678314">
        <ele>1421.9300000000001</ele>
        <time>2014-07-14T14:49:32Z</time>
      </trkpt>
      <trkpt lat="45.999915450811386" lon="6.939558684825897">
        <ele>1421.45</ele>
        <time>2014-07-14T14:49:36Z</time>
      </trkpt>
      <trkpt lat="45.999777819961309" lon="6.939332708716393">
        <ele>1419.52</ele>
        <time>2014-07-14T14:49:54Z</time>
      </trkpt>
      <trkpt lat="45.999635830521584" lon="6.939120562747121">
        <ele>1417.1199999999999</ele>
        <time>2014-07-14T14:50:11Z</time>
      </trkpt>
      <trkpt lat="45.999517813324928" lon="6.938958121463656">
        <ele>1415.6800000000001</ele>
        <time>2014-07-14T14:50:25Z</time>
      </trkpt>
      <trkpt lat="45.999378589913249" lon="6.938774473965168">
        <ele>1413.76</ele>
        <time>2014-07-14T14:50:41Z</time>
      </trkpt>
      <trkpt lat="45.99934640340507" lon="6.938724769279361">
        <ele>1413.28</ele>
        <time>2014-07-14T14:50:45Z</time>
      </trkpt>
      <trkpt lat="45.999225117266178" lon="6.93851756863296">
        <ele>1412.79</ele>
        <time>2014-07-14T14:51:01Z</time>
      </trkpt>
      <trkpt lat="45.999065944924951" lon="6.938314558938146">
        <ele>1409.4300000000001</ele>
        <time>2014-07-14T14:51:19Z</time>
      </trkpt>
      <trkpt lat="45.99894130602479" lon="6.938138119876385">
        <ele>1407.99</ele>
        <time>2014-07-14T14:51:34Z</time>
      </trkpt>
      <trkpt lat="45.998876681551337" lon="6.937997890636325">
        <ele>1407.03</ele>
        <time>2014-07-14T14:51:44Z</time>
      </trkpt>
      <trkpt lat="45.998793449252844" lon="6.937886327505112">
        <ele>1405.5799999999999</ele>
        <time>2014-07-14T14:51:53Z</time>
      </trkpt>
      <trkpt lat="45.998698733747005" lon="6.937786666676402">
        <ele>1403.6600000000001</ele>
        <time>2014-07-14T14:52:03Z</time>
      </trkpt>
      <trkpt lat="45.998557833954692" lon="6.937553230673075">
        <ele>1403.1800000000001</ele>
        <time>2014-07-14T14:52:21Z</time>
      </trkpt>
      <trkpt lat="45.998435625806451" lon="6.937321973964572">
        <ele>1401.26</ele>
        <time>2014-07-14T14:52:38Z</time>
      </trkpt>
      <trkpt lat="45.998322051018476" lon="6.937027685344219">
        <ele>1398.8599999999999</ele>
        <time>2014-07-14T14:52:57Z</time>
      </trkpt>
      <trkpt lat="45.998230604454875" lon="6.936833392828703">
        <ele>1397.8900000000001</ele>
        <time>2014-07-14T14:53:14Z</time>
      </trkpt>
      <trkpt lat="45.998201854526997" lon="6.936774384230375">
        <ele>1397.4100000000001</ele>
        <time>2014-07-14T14:53:27Z</time>
      </trkpt>
      <trkpt lat="45.998194394633174" lon="6.93666810169816">
        <ele>1396.9300000000001</ele>
        <time>2014-07-14T14:53:33Z</time>
      </trkpt>
      <trkpt lat="45.998074449598789" lon="6.936436844989657">
        <ele>1395.49</ele>
        <time>2014-07-14T14:53:50Z</time>
      </trkpt>
      <trkpt lat="45.997980739921331" lon="6.936226459220052">
        <ele>1394.05</ele>
        <time>2014-07-14T14:54:05Z</time>
      </trkpt>
      <trkpt lat="45.997853502631187" lon="6.936052534729242">
        <ele>1392.6099999999999</ele>
        <time>2014-07-14T14:54:21Z</time>
      </trkpt>
      <trkpt lat="45.99780379794538" lon="6.93598547950387">
        <ele>1392.1300000000001</ele>
        <time>2014-07-14T14:54:27Z</time>
      </trkpt>
      <trkpt lat="45.997705813497305" lon="6.935839550569654">
        <ele>1391.1700000000001</ele>
        <time>2014-07-14T14:54:38Z</time>
      </trkpt>
      <trkpt lat="45.997598608955741" lon="6.93571574985981">
        <ele>1390.2</ele>
        <time>2014-07-14T14:54:51Z</time>
      </trkpt>
      <trkpt lat="45.997417056933045" lon="6.935508968308568">
        <ele>1387.8</ele>
        <time>2014-07-14T14:55:10Z</time>
      </trkpt>
      <trkpt lat="45.997278755530715" lon="6.935323309153318">
        <ele>1386.3599999999999</ele>
        <time>2014-07-14T14:55:26Z</time>
      </trkpt>
      <trkpt lat="45.997165683656931" lon="6.935166651383042">
        <ele>1385.8800000000001</ele>
        <time>2014-07-14T14:55:40Z</time>
      </trkpt>
      <trkpt lat="45.99702151492238" lon="6.935013849288225">
        <ele>1384.4400000000001</ele>
        <time>2014-07-14T14:55:56Z</time>
      </trkpt>
      <trkpt lat="45.996861755847931" lon="6.934890048578382">
        <ele>1382.99</ele>
        <time>2014-07-14T14:56:11Z</time>
      </trkpt>
      <trkpt lat="45.996842980384827" lon="6.934880660846829">
        <ele>1382.51</ele>
        <time>2014-07-14T14:56:14Z</time>
      </trkpt>
      <trkpt lat="45.996736027300358" lon="6.934799859300256">
        <ele>1381.55</ele>
        <time>2014-07-14T14:56:26Z</time>
      </trkpt>
      <trkpt lat="45.996670480817556" lon="6.934723500162363">
        <ele>1380.5899999999999</ele>
        <time>2014-07-14T14:56:34Z</time>
      </trkpt>
      <trkpt lat="45.996681377291679" lon="6.93456550128758">
        <ele>1380.1099999999999</ele>
        <time>2014-07-14T14:56:45Z</time>
      </trkpt>
      <trkpt lat="45.996682047843933" lon="6.934534404426813">
        <ele>1379.6300000000001</ele>
        <time>2014-07-14T14:57:02Z</time>
      </trkpt>
      <trkpt lat="45.996688166633248" lon="6.934475228190422">
        <ele>1379.6300000000001</ele>
        <time>2014-07-14T14:57:18Z</time>
      </trkpt>
      <trkpt lat="45.996689926832914" lon="6.934452261775732">
        <ele>1379.6300000000001</ele>
        <time>2014-07-14T14:57:36Z</time>
      </trkpt>
      <trkpt lat="45.996671235188842" lon="6.934448070824146">
        <ele>1379.1500000000001</ele>
        <time>2014-07-14T14:57:55Z</time>
      </trkpt>
      <trkpt lat="45.996677773073316" lon="6.934423428028822">
        <ele>1380.5899999999999</ele>
        <time>2014-07-14T14:58:13Z</time>
      </trkpt>
      <trkpt lat="45.996667966246605" lon="6.934438515454531">
        <ele>1378.6700000000001</ele>
        <time>2014-07-14T14:58:33Z</time>
      </trkpt>
      <trkpt lat="45.996670732274652" lon="6.934442790225148">
        <ele>1378.6700000000001</ele>
        <time>2014-07-14T14:58:52Z</time>
      </trkpt>
      <trkpt lat="45.996667630970478" lon="6.934434911236167">
        <ele>1378.6700000000001</ele>
        <time>2014-07-14T14:59:11Z</time>
      </trkpt>
      <trkpt lat="45.99667358212173" lon="6.93443214520812">
        <ele>1378.6700000000001</ele>
        <time>2014-07-14T14:59:30Z</time>
      </trkpt>
      <trkpt lat="45.996675677597523" lon="6.93444237112999">
        <ele>1378.1900000000001</ele>
        <time>2014-07-14T14:59:55Z</time>
      </trkpt>
      <trkpt lat="45.996729573234916" lon="6.934456788003445">
        <ele>1378.6700000000001</ele>
        <time>2014-07-14T15:00:22Z</time>
      </trkpt>
      <trkpt lat="45.996616836637259" lon="6.934509007260203">
        <ele>1378.1900000000001</ele>
        <time>2014-07-14T15:00:44Z</time>
      </trkpt>
      <trkpt lat="45.996557576581836" lon="6.934590144082904">
        <ele>1378.1900000000001</ele>
        <time>2014-07-14T15:00:57Z</time>
      </trkpt>
      <trkpt lat="45.996566293761134" lon="6.934613278135657">
        <ele>1379.1500000000001</ele>
        <time>2014-07-14T15:01:23Z</time>
      </trkpt>
      <trkpt lat="45.996558917686343" lon="6.934553515166044">
        <ele>1379.1500000000001</ele>
        <time>2014-07-14T15:01:45Z</time>
      </trkpt>
      <trkpt lat="45.99654265679419" lon="6.934471121057868">
        <ele>1378.6700000000001</ele>
        <time>2014-07-14T15:01:54Z</time>
      </trkpt>
      <trkpt lat="45.99648398347199" lon="6.934384703636169">
        <ele>1380.5899999999999</ele>
        <time>2014-07-14T15:02:12Z</time>
      </trkpt>
      <trkpt lat="45.996511057019234" lon="6.934363413602114">
        <ele>1378.6700000000001</ele>
        <time>2014-07-14T15:02:32Z</time>
      </trkpt>
      <trkpt lat="45.996580626815557" lon="6.934556029736996">
        <ele>1378.6700000000001</ele>
        <time>2014-07-14T15:02:45Z</time>
      </trkpt>
      <trkpt lat="45.996555900201201" lon="6.93458310328424">
        <ele>1378.6700000000001</ele>
        <time>2014-07-14T15:03:02Z</time>
      </trkpt>
      <trkpt lat="45.996540142223239" lon="6.9345748052001">
        <ele>1378.6700000000001</ele>
        <time>2014-07-14T15:03:29Z</time>
      </trkpt>
      <trkpt lat="45.996598228812218" lon="6.934479000046849">
        <ele>1378.6700000000001</ele>
        <time>2014-07-14T15:03:47Z</time>
      </trkpt>
      <trkpt lat="45.996620692312717" lon="6.934462236240506">
        <ele>1378.6700000000001</ele>
        <time>2014-07-14T15:04:02Z</time>
      </trkpt>
      <trkpt lat="45.996624296531081" lon="6.93447514437139">
        <ele>1378.1900000000001</ele>
        <time>2014-07-14T15:04:27Z</time>
      </trkpt>
      <trkpt lat="45.99665162153542" lon="6.934480089694262">
        <ele>1378.6700000000001</ele>
        <time>2014-07-14T15:04:49Z</time>
      </trkpt>
      <trkpt lat="45.996706355363131" lon="6.934411777183414">
        <ele>1378.6700000000001</ele>
        <time>2014-07-14T15:05:01Z</time>
      </trkpt>
      <trkpt lat="45.996834933757782" lon="6.934280768036842">
        <ele>1378.6700000000001</ele>
        <time>2014-07-14T15:05:15Z</time>
      </trkpt>
      <trkpt lat="45.996983712539077" lon="6.934103323146701">
        <ele>1379.1500000000001</ele>
        <time>2014-07-14T15:05:33Z</time>
      </trkpt>
      <trkpt lat="45.997092677280307" lon="6.933983797207475">
        <ele>1379.1500000000001</ele>
        <time>2014-07-14T15:05:46Z</time>
      </trkpt>
      <trkpt lat="45.997218824923038" lon="6.93386142142117">
        <ele>1379.6300000000001</ele>
        <time>2014-07-14T15:06:01Z</time>
      </trkpt>
      <trkpt lat="45.997333824634552" lon="6.933767292648554">
        <ele>1379.1500000000001</ele>
        <time>2014-07-14T15:06:17Z</time>
      </trkpt>
      <trkpt lat="45.997446477413177" lon="6.933733681216836">
        <ele>1380.1099999999999</ele>
        <time>2014-07-14T15:06:30Z</time>
      </trkpt>
      <trkpt lat="45.997483273968101" lon="6.933678276836872">
        <ele>1381.0699999999999</ele>
        <time>2014-07-14T15:06:45Z</time>
      </trkpt>
      <trkpt lat="45.997528620064259" lon="6.933643575757742">
        <ele>1382.51</ele>
        <time>2014-07-14T15:07:03Z</time>
      </trkpt>
      <trkpt lat="45.997569188475609" lon="6.933590015396476">
        <ele>1383.96</ele>
        <time>2014-07-14T15:07:17Z</time>
      </trkpt>
      <trkpt lat="45.997574804350734" lon="6.933582555502653">
        <ele>1384.4400000000001</ele>
        <time>2014-07-14T15:07:18Z</time>
      </trkpt>
      <trkpt lat="45.99760003387928" lon="6.933500412851572">
        <ele>1383.96</ele>
        <time>2014-07-14T15:07:31Z</time>
      </trkpt>
      <trkpt lat="45.997545132413507" lon="6.933455234393477">
        <ele>1383.47</ele>
        <time>2014-07-14T15:07:36Z</time>
      </trkpt>
      <trkpt lat="45.997369699180126" lon="6.933325231075287">
        <ele>1382.51</ele>
        <time>2014-07-14T15:07:54Z</time>
      </trkpt>
      <trkpt lat="45.997344385832548" lon="6.93327653221786">
        <ele>1382.51</ele>
        <time>2014-07-14T15:07:58Z</time>
      </trkpt>
      <trkpt lat="45.997311277315021" lon="6.933166142553091">
        <ele>1382.99</ele>
        <time>2014-07-14T15:08:05Z</time>
      </trkpt>
      <trkpt lat="45.997253693640232" lon="6.932966401800513">
        <ele>1383.96</ele>
        <time>2014-07-14T15:08:23Z</time>
      </trkpt>
      <trkpt lat="45.997211532667279" lon="6.932804211974144">
        <ele>1385.4000000000001</ele>
        <time>2014-07-14T15:08:37Z</time>
      </trkpt>
      <trkpt lat="45.997174233198166" lon="6.932655600830913">
        <ele>1387.3199999999999</ele>
        <time>2014-07-14T15:08:51Z</time>
      </trkpt>
      <trkpt lat="45.997171550989151" lon="6.932650823146105">
        <ele>1387.3199999999999</ele>
        <time>2014-07-14T15:08:52Z</time>
      </trkpt>
      <trkpt lat="45.997091419994831" lon="6.932431552559137">
        <ele>1388.28</ele>
        <time>2014-07-14T15:09:09Z</time>
      </trkpt>
      <trkpt lat="45.99704397842288" lon="6.932302555069327">
        <ele>1389.24</ele>
        <time>2014-07-14T15:09:23Z</time>
      </trkpt>
      <trkpt lat="45.997043810784817" lon="6.93203835748136">
        <ele>1390.6800000000001</ele>
        <time>2014-07-14T15:09:39Z</time>
      </trkpt>
      <trkpt lat="45.997042385861278" lon="6.932025197893381">
        <ele>1390.6800000000001</ele>
        <time>2014-07-14T15:09:40Z</time>
      </trkpt>
      <trkpt lat="45.996912969276309" lon="6.931824618950486">
        <ele>1389.72</ele>
        <time>2014-07-14T15:09:58Z</time>
      </trkpt>
      <trkpt lat="45.996816409751773" lon="6.931700231507421">
        <ele>1390.6800000000001</ele>
        <time>2014-07-14T15:10:12Z</time>
      </trkpt>
      <trkpt lat="45.996773997321725" lon="6.931643821299076">
        <ele>1391.1700000000001</ele>
        <time>2014-07-14T15:10:17Z</time>
      </trkpt>
      <trkpt lat="45.996744325384498" lon="6.931560672819614">
        <ele>1391.6500000000001</ele>
        <time>2014-07-14T15:10:23Z</time>
      </trkpt>
      <trkpt lat="45.996703505516052" lon="6.931450199335814">
        <ele>1393.0899999999999</ele>
        <time>2014-07-14T15:10:35Z</time>
      </trkpt>
      <trkpt lat="45.996609544381499" lon="6.931309634819627">
        <ele>1394.05</ele>
        <time>2014-07-14T15:10:49Z</time>
      </trkpt>
      <trkpt lat="45.996550200507045" lon="6.931144176051021">
        <ele>1395.01</ele>
        <time>2014-07-14T15:11:03Z</time>
      </trkpt>
      <trkpt lat="45.99649085663259" lon="6.93101760931313">
        <ele>1396.45</ele>
        <time>2014-07-14T15:11:18Z</time>
      </trkpt>
      <trkpt lat="45.996420616284013" lon="6.930861622095108">
        <ele>1396.45</ele>
        <time>2014-07-14T15:11:28Z</time>
      </trkpt>
      <trkpt lat="45.996330678462982" lon="6.930662970989943">
        <ele>1397.4100000000001</ele>
        <time>2014-07-14T15:11:45Z</time>
      </trkpt>
      <trkpt lat="45.996288349851966" lon="6.930572111159563">
        <ele>1398.3699999999999</ele>
        <time>2014-07-14T15:11:52Z</time>
      </trkpt>
      <trkpt lat="45.996199585497379" lon="6.930372035130858">
        <ele>1400.3</ele>
        <time>2014-07-14T15:12:07Z</time>
      </trkpt>
      <trkpt lat="45.996170248836279" lon="6.930321492254734">
        <ele>1400.78</ele>
        <time>2014-07-14T15:12:12Z</time>
      </trkpt>
      <trkpt lat="45.996081987395883" lon="6.93013122305274">
        <ele>1403.1800000000001</ele>
        <time>2014-07-14T15:12:29Z</time>
      </trkpt>
      <trkpt lat="45.996021972969174" lon="6.93001295439899">
        <ele>1405.0999999999999</ele>
        <time>2014-07-14T15:12:43Z</time>
      </trkpt>
      <trkpt lat="45.995935471728444" lon="6.929856212809682">
        <ele>1406.55</ele>
        <time>2014-07-14T15:12:57Z</time>
      </trkpt>
      <trkpt lat="45.995869673788548" lon="6.929722353816032">
        <ele>1407.03</ele>
        <time>2014-07-14T15:13:10Z</time>
      </trkpt>
      <trkpt lat="45.995763642713428" lon="6.929514650255442">
        <ele>1407.51</ele>
        <time>2014-07-14T15:13:27Z</time>
      </trkpt>
      <trkpt lat="45.995698180049658" lon="6.929315580055118">
        <ele>1407.99</ele>
        <time>2014-07-14T15:13:40Z</time>
      </trkpt>
      <trkpt lat="45.995664820075035" lon="6.929137967526913">
        <ele>1409.4300000000001</ele>
        <time>2014-07-14T15:13:56Z</time>
      </trkpt>
      <trkpt lat="45.995709327980876" lon="6.929007126018405">
        <ele>1411.8299999999999</ele>
        <time>2014-07-14T15:14:10Z</time>
      </trkpt>
      <trkpt lat="45.99570270627737" lon="6.929016010835767">
        <ele>1411.8299999999999</ele>
        <time>2014-07-14T15:14:27Z</time>
      </trkpt>
      <trkpt lat="45.995692061260343" lon="6.929015256464481">
        <ele>1411.8299999999999</ele>
        <time>2014-07-14T15:14:38Z</time>
      </trkpt>
      <trkpt lat="45.99570513702929" lon="6.929012909531593">
        <ele>1412.3099999999999</ele>
        <time>2014-07-14T15:14:57Z</time>
      </trkpt>
      <trkpt lat="45.995697006583214" lon="6.929027661681175">
        <ele>1412.3099999999999</ele>
        <time>2014-07-14T15:15:16Z</time>
      </trkpt>
      <trkpt lat="45.995701951906085" lon="6.929043084383011">
        <ele>1412.3099999999999</ele>
        <time>2014-07-14T15:15:41Z</time>
      </trkpt>
      <trkpt lat="45.995686026290059" lon="6.929172752425075">
        <ele>1409.9100000000001</ele>
        <time>2014-07-14T15:15:57Z</time>
      </trkpt>
      <trkpt lat="45.995663562789559" lon="6.92921994253993">
        <ele>1408.95</ele>
        <time>2014-07-14T15:16:01Z</time>
      </trkpt>
      <trkpt lat="45.995564488694072" lon="6.929136039689183">
        <ele>1409.9100000000001</ele>
        <time>2014-07-14T15:16:13Z</time>
      </trkpt>
      <trkpt lat="45.995471198111773" lon="6.929012993350625">
        <ele>1410.8699999999999</ele>
        <time>2014-07-14T15:16:23Z</time>
      </trkpt>
      <trkpt lat="45.995434569194913" lon="6.928969575092197">
        <ele>1410.8699999999999</ele>
        <time>2014-07-14T15:16:27Z</time>
      </trkpt>
      <trkpt lat="45.99532057531178" lon="6.92878701724112">
        <ele>1410.8699999999999</ele>
        <time>2014-07-14T15:16:43Z</time>
      </trkpt>
      <trkpt lat="45.995237929746509" lon="6.928609488531947">
        <ele>1411.3499999999999</ele>
        <time>2014-07-14T15:16:57Z</time>
      </trkpt>
      <trkpt lat="45.99524823948741" lon="6.928520640358329">
        <ele>1410.3900000000001</ele>
        <time>2014-07-14T15:17:02Z</time>
      </trkpt>
      <trkpt lat="45.99526877515018" lon="6.928311176598072">
        <ele>1408.95</ele>
        <time>2014-07-14T15:17:16Z</time>
      </trkpt>
      <trkpt lat="45.99523214623332" lon="6.928244959563017">
        <ele>1408.47</ele>
        <time>2014-07-14T15:17:21Z</time>
      </trkpt>
      <trkpt lat="45.995078086853027" lon="6.928087212145329">
        <ele>1407.51</ele>
        <time>2014-07-14T15:17:38Z</time>
      </trkpt>
      <trkpt lat="45.995034333318472" lon="6.928030550479889">
        <ele>1407.03</ele>
        <time>2014-07-14T15:17:43Z</time>
      </trkpt>
      <trkpt lat="45.995088228955865" lon="6.927866851910949">
        <ele>1406.55</ele>
        <time>2014-07-14T15:17:53Z</time>
      </trkpt>
      <trkpt lat="45.994981862604618" lon="6.927806669846177">
        <ele>1405.0999999999999</ele>
        <time>2014-07-14T15:18:11Z</time>
      </trkpt>
      <trkpt lat="45.995094766840339" lon="6.927824523299933">
        <ele>1404.1400000000001</ele>
        <time>2014-07-14T15:18:31Z</time>
      </trkpt>
    </trkseg>
  </trk>

  <trk>
    <name>4tmb2014-07-15</name>
    <extensions>
      <gpxx:TrackExtension>
        <gpxx:DisplayColor>Yellow</gpxx:DisplayColor>
      </gpxx:TrackExtension>
      <gpxtrkx:TrackStatsExtension xmlns:gpxtrkx="http://www.garmin.com/xmlschemas/TrackStatsExtension/v1">
        <gpxtrkx:Distance>11199</gpxtrkx:Distance>
        <gpxtrkx:TotalElapsedTime>28994</gpxtrkx:TotalElapsedTime>
        <gpxtrkx:MovingTime>13603</gpxtrkx:MovingTime>
        <gpxtrkx:StoppedTime>15378</gpxtrkx:StoppedTime>
        <gpxtrkx:MovingSpeed>1</gpxtrkx:MovingSpeed>
        <gpxtrkx:MaxSpeed>2</gpxtrkx:MaxSpeed>
        <gpxtrkx:MaxElevation>2373</gpxtrkx:MaxElevation>
        <gpxtrkx:MinElevation>1402</gpxtrkx:MinElevation>
        <gpxtrkx:Ascent>1069</gpxtrkx:Ascent>
        <gpxtrkx:Descent>583</gpxtrkx:Descent>
        <gpxtrkx:AvgAscentRate>0</gpxtrkx:AvgAscentRate>
        <gpxtrkx:MaxAscentRate>0</gpxtrkx:MaxAscentRate>
        <gpxtrkx:AvgDescentRate>0</gpxtrkx:AvgDescentRate>
        <gpxtrkx:MaxDescentRate>-1</gpxtrkx:MaxDescentRate>
      </gpxtrkx:TrackStatsExtension>
    </extensions>
    <trkseg>
      <trkpt lat="45.9950449783355" lon="6.927783954888582">
        <ele>1452.6900000000001</ele>
        <time>2014-07-15T05:56:40Z</time>
      </trkpt>
      <trkpt lat="45.995043637230992" lon="6.92778043448925">
        <ele>1452.6900000000001</ele>
        <time>2014-07-15T05:56:41Z</time>
      </trkpt>
      <trkpt lat="45.995034417137504" lon="6.927778841927648">
        <ele>1403.6600000000001</ele>
        <time>2014-07-15T05:56:45Z</time>
      </trkpt>
      <trkpt lat="45.99503324367106" lon="6.927778758108616">
        <ele>1403.6600000000001</ele>
        <time>2014-07-15T05:56:46Z</time>
      </trkpt>
      <trkpt lat="45.995051432400942" lon="6.927804239094257">
        <ele>1404.6199999999999</ele>
        <time>2014-07-15T05:57:11Z</time>
      </trkpt>
      <trkpt lat="45.995046906173229" lon="6.927796695381403">
        <ele>1403.6600000000001</ele>
        <time>2014-07-15T05:57:33Z</time>
      </trkpt>
      <trkpt lat="45.995042296126485" lon="6.927790744230151">
        <ele>1403.1800000000001</ele>
        <time>2014-07-15T05:58:19Z</time>
      </trkpt>
      <trkpt lat="45.995051935315132" lon="6.927786553278565">
        <ele>1403.1800000000001</ele>
        <time>2014-07-15T05:58:44Z</time>
      </trkpt>
      <trkpt lat="45.995026789605618" lon="6.927782110869885">
        <ele>1403.1800000000001</ele>
        <time>2014-07-15T05:59:28Z</time>
      </trkpt>
      <trkpt lat="45.995050091296434" lon="6.927789906039834">
        <ele>1403.1800000000001</ele>
        <time>2014-07-15T06:00:09Z</time>
      </trkpt>
      <trkpt lat="45.99505428224802" lon="6.9277951028198">
        <ele>1403.1800000000001</ele>
        <time>2014-07-15T06:00:43Z</time>
      </trkpt>
      <trkpt lat="45.995057467371225" lon="6.927815051749349">
        <ele>1403.1800000000001</ele>
        <time>2014-07-15T06:01:19Z</time>
      </trkpt>
      <trkpt lat="45.995057383552194" lon="6.927808094769716">
        <ele>1403.1800000000001</ele>
        <time>2014-07-15T06:01:53Z</time>
      </trkpt>
      <trkpt lat="45.995071632787585" lon="6.927785212174058">
        <ele>1403.1800000000001</ele>
        <time>2014-07-15T06:02:35Z</time>
      </trkpt>
      <trkpt lat="45.995066100731492" lon="6.927802059799433">
        <ele>1403.1800000000001</ele>
        <time>2014-07-15T06:03:18Z</time>
      </trkpt>
      <trkpt lat="45.995061406865716" lon="6.927778087556362">
        <ele>1402.7</ele>
        <time>2014-07-15T06:04:04Z</time>
      </trkpt>
      <trkpt lat="45.995077332481742" lon="6.927809184417129">
        <ele>1402.7</ele>
        <time>2014-07-15T06:04:47Z</time>
      </trkpt>
      <trkpt lat="45.995056293904781" lon="6.927796108648181">
        <ele>1403.1800000000001</ele>
        <time>2014-07-15T06:05:32Z</time>
      </trkpt>
      <trkpt lat="45.995042296126485" lon="6.927788564935327">
        <ele>1403.1800000000001</ele>
        <time>2014-07-15T06:06:17Z</time>
      </trkpt>
      <trkpt lat="45.995050678029656" lon="6.927795186638832">
        <ele>1402.7</ele>
        <time>2014-07-15T06:06:59Z</time>
      </trkpt>
      <trkpt lat="45.995038775727153" lon="6.92780532874167">
        <ele>1403.6600000000001</ele>
        <time>2014-07-15T06:07:17Z</time>
      </trkpt>
      <trkpt lat="45.995064927265048" lon="6.927842292934656">
        <ele>1403.6600000000001</ele>
        <time>2014-07-15T06:07:46Z</time>
      </trkpt>
      <trkpt lat="45.995030477643013" lon="6.92782536149025">
        <ele>1403.6600000000001</ele>
        <time>2014-07-15T06:08:02Z</time>
      </trkpt>
      <trkpt lat="45.995029723271728" lon="6.927780518308282">
        <ele>1403.6600000000001</ele>
        <time>2014-07-15T06:08:19Z</time>
      </trkpt>
      <trkpt lat="45.995039194822311" lon="6.927773645147681">
        <ele>1403.6600000000001</ele>
        <time>2014-07-15T06:08:49Z</time>
      </trkpt>
      <trkpt lat="45.995045900344849" lon="6.927775153890252">
        <ele>1403.1800000000001</ele>
        <time>2014-07-15T06:09:18Z</time>
      </trkpt>
      <trkpt lat="45.995029220357537" lon="6.927783284336329">
        <ele>1403.1800000000001</ele>
        <time>2014-07-15T06:09:52Z</time>
      </trkpt>
      <trkpt lat="45.995041290298104" lon="6.927776159718633">
        <ele>1403.1800000000001</ele>
        <time>2014-07-15T06:10:36Z</time>
      </trkpt>
      <trkpt lat="45.995021006092429" lon="6.927765347063541">
        <ele>1403.1800000000001</ele>
        <time>2014-07-15T06:11:16Z</time>
      </trkpt>
      <trkpt lat="45.995042799040675" lon="6.927767526358366">
        <ele>1402.7</ele>
        <time>2014-07-15T06:11:51Z</time>
      </trkpt>
      <trkpt lat="45.99505964666605" lon="6.927777417004108">
        <ele>1402.7</ele>
        <time>2014-07-15T06:12:33Z</time>
      </trkpt>
      <trkpt lat="45.995041709393263" lon="6.927802227437496">
        <ele>1402.7</ele>
        <time>2014-07-15T06:13:08Z</time>
      </trkpt>
      <trkpt lat="45.995027208700776" lon="6.927784373983741">
        <ele>1402.7</ele>
        <time>2014-07-15T06:13:42Z</time>
      </trkpt>
      <trkpt lat="45.99502544850111" lon="6.927765849977732">
        <ele>1402.7</ele>
        <time>2014-07-15T06:14:16Z</time>
      </trkpt>
      <trkpt lat="45.995007259771228" lon="6.927808597683907">
        <ele>1403.1800000000001</ele>
        <time>2014-07-15T06:14:53Z</time>
      </trkpt>
      <trkpt lat="45.995041457936168" lon="6.927787307649851">
        <ele>1403.1800000000001</ele>
        <time>2014-07-15T06:15:31Z</time>
      </trkpt>
      <trkpt lat="45.995039781555533" lon="6.927784290164709">
        <ele>1403.1800000000001</ele>
        <time>2014-07-15T06:16:10Z</time>
      </trkpt>
      <trkpt lat="45.995047744363546" lon="6.92778923548758">
        <ele>1403.1800000000001</ele>
        <time>2014-07-15T06:16:43Z</time>
      </trkpt>
      <trkpt lat="45.995064089074731" lon="6.927787559106946">
        <ele>1403.1800000000001</ele>
        <time>2014-07-15T06:17:24Z</time>
      </trkpt>
      <trkpt lat="45.995047828182578" lon="6.927778339013457">
        <ele>1403.1800000000001</ele>
        <time>2014-07-15T06:18:07Z</time>
      </trkpt>
      <trkpt lat="45.995040703564882" lon="6.927775321528316">
        <ele>1403.1800000000001</ele>
        <time>2014-07-15T06:18:55Z</time>
      </trkpt>
      <trkpt lat="45.995029052719474" lon="6.927788564935327">
        <ele>1403.1800000000001</ele>
        <time>2014-07-15T06:19:46Z</time>
      </trkpt>
      <trkpt lat="45.995041960850358" lon="6.927801556885243">
        <ele>1403.1800000000001</ele>
        <time>2014-07-15T06:20:31Z</time>
      </trkpt>
      <trkpt lat="45.995053946971893" lon="6.927781691774726">
        <ele>1403.1800000000001</ele>
        <time>2014-07-15T06:21:15Z</time>
      </trkpt>
      <trkpt lat="45.995066855102777" lon="6.927782446146011">
        <ele>1403.1800000000001</ele>
        <time>2014-07-15T06:21:53Z</time>
      </trkpt>
      <trkpt lat="45.995049085468054" lon="6.927797617390752">
        <ele>1402.7</ele>
        <time>2014-07-15T06:22:26Z</time>
      </trkpt>
      <trkpt lat="45.995029890909791" lon="6.927791917696595">
        <ele>1403.1800000000001</ele>
        <time>2014-07-15T06:23:03Z</time>
      </trkpt>
      <trkpt lat="45.99502544850111" lon="6.927788900211453">
        <ele>1402.7</ele>
        <time>2014-07-15T06:23:44Z</time>
      </trkpt>
      <trkpt lat="45.995046906173229" lon="6.927799293771386">
        <ele>1402.7</ele>
        <time>2014-07-15T06:24:21Z</time>
      </trkpt>
      <trkpt lat="45.99504791200161" lon="6.927802059799433">
        <ele>1402.7</ele>
        <time>2014-07-15T06:24:59Z</time>
      </trkpt>
      <trkpt lat="45.995043637230992" lon="6.927798958495259">
        <ele>1402.22</ele>
        <time>2014-07-15T06:25:33Z</time>
      </trkpt>
      <trkpt lat="45.995045062154531" lon="6.927802478894591">
        <ele>1402.7</ele>
        <time>2014-07-15T06:26:17Z</time>
      </trkpt>
      <trkpt lat="45.995054366067052" lon="6.92780633457005">
        <ele>1402.7</ele>
        <time>2014-07-15T06:26:58Z</time>
      </trkpt>
      <trkpt lat="45.995050007477403" lon="6.927800802513957">
        <ele>1402.7</ele>
        <time>2014-07-15T06:27:39Z</time>
      </trkpt>
      <trkpt lat="45.995063167065382" lon="6.927777919918299">
        <ele>1403.1800000000001</ele>
        <time>2014-07-15T06:28:25Z</time>
      </trkpt>
      <trkpt lat="45.99505621008575" lon="6.927797282114625">
        <ele>1402.7</ele>
        <time>2014-07-15T06:29:10Z</time>
      </trkpt>
      <trkpt lat="45.995038775727153" lon="6.927786637097597">
        <ele>1402.7</ele>
        <time>2014-07-15T06:29:50Z</time>
      </trkpt>
      <trkpt lat="45.995024694129825" lon="6.927765849977732">
        <ele>1403.1800000000001</ele>
        <time>2014-07-15T06:30:32Z</time>
      </trkpt>
      <trkpt lat="45.99503374658525" lon="6.927772723138332">
        <ele>1403.6600000000001</ele>
        <time>2014-07-15T06:31:14Z</time>
      </trkpt>
      <trkpt lat="45.995049756020308" lon="6.927762245759368">
        <ele>1403.6600000000001</ele>
        <time>2014-07-15T06:31:45Z</time>
      </trkpt>
      <trkpt lat="45.995039949193597" lon="6.927772555500269">
        <ele>1403.6600000000001</ele>
        <time>2014-07-15T06:32:08Z</time>
      </trkpt>
      <trkpt lat="45.995018072426319" lon="6.927777584642172">
        <ele>1403.1800000000001</ele>
        <time>2014-07-15T06:32:40Z</time>
      </trkpt>
      <trkpt lat="45.995014300569892" lon="6.92775989882648">
        <ele>1403.1800000000001</ele>
        <time>2014-07-15T06:33:07Z</time>
      </trkpt>
      <trkpt lat="45.995007511228323" lon="6.927763838320971">
        <ele>1403.6600000000001</ele>
        <time>2014-07-15T06:33:35Z</time>
      </trkpt>
      <trkpt lat="45.995007762685418" lon="6.927795773372054">
        <ele>1403.6600000000001</ele>
        <time>2014-07-15T06:34:06Z</time>
      </trkpt>
      <trkpt lat="45.9950259514153" lon="6.927798287943006">
        <ele>1403.6600000000001</ele>
        <time>2014-07-15T06:34:31Z</time>
      </trkpt>
      <trkpt lat="45.995033411309123" lon="6.927789738401771">
        <ele>1403.6600000000001</ele>
        <time>2014-07-15T06:34:55Z</time>
      </trkpt>
      <trkpt lat="45.995031399652362" lon="6.927783619612455">
        <ele>1402.7</ele>
        <time>2014-07-15T06:35:09Z</time>
      </trkpt>
      <trkpt lat="45.995068196207285" lon="6.927805244922638">
        <ele>1403.6600000000001</ele>
        <time>2014-07-15T06:35:31Z</time>
      </trkpt>
      <trkpt lat="45.995105495676398" lon="6.927788145840168">
        <ele>1403.1800000000001</ele>
        <time>2014-07-15T06:35:53Z</time>
      </trkpt>
      <trkpt lat="45.99507967941463" lon="6.927813794463873">
        <ele>1403.1800000000001</ele>
        <time>2014-07-15T06:36:14Z</time>
      </trkpt>
      <trkpt lat="45.995086301118135" lon="6.927808178588748">
        <ele>1403.6600000000001</ele>
        <time>2014-07-15T06:36:38Z</time>
      </trkpt>
      <trkpt lat="45.995060987770557" lon="6.927810525521636">
        <ele>1403.6600000000001</ele>
        <time>2014-07-15T06:36:56Z</time>
      </trkpt>
      <trkpt lat="45.99502838216722" lon="6.927780266851187">
        <ele>1403.6600000000001</ele>
        <time>2014-07-15T06:37:15Z</time>
      </trkpt>
      <trkpt lat="45.994992591440678" lon="6.927768280729652">
        <ele>1403.6600000000001</ele>
        <time>2014-07-15T06:37:22Z</time>
      </trkpt>
      <trkpt lat="45.99513734690845" lon="6.927737183868885">
        <ele>1403.6600000000001</ele>
        <time>2014-07-15T06:37:37Z</time>
      </trkpt>
      <trkpt lat="45.995178334414959" lon="6.92772620357573">
        <ele>1403.6600000000001</ele>
        <time>2014-07-15T06:37:42Z</time>
      </trkpt>
      <trkpt lat="45.995355108752847" lon="6.927692927420139">
        <ele>1404.1400000000001</ele>
        <time>2014-07-15T06:38:01Z</time>
      </trkpt>
      <trkpt lat="45.995462648570538" lon="6.927651101723313">
        <ele>1404.6199999999999</ele>
        <time>2014-07-15T06:38:17Z</time>
      </trkpt>
      <trkpt lat="45.99552140571177" lon="6.927589913830161">
        <ele>1404.6199999999999</ele>
        <time>2014-07-15T06:38:36Z</time>
      </trkpt>
      <trkpt lat="45.99566507153213" lon="6.927452869713306">
        <ele>1405.0999999999999</ele>
        <time>2014-07-15T06:38:53Z</time>
      </trkpt>
      <trkpt lat="45.995815359055996" lon="6.927405847236514">
        <ele>1406.55</ele>
        <time>2014-07-15T06:39:09Z</time>
      </trkpt>
      <trkpt lat="45.995856765657663" lon="6.927346000447869">
        <ele>1407.51</ele>
        <time>2014-07-15T06:39:24Z</time>
      </trkpt>
      <trkpt lat="45.995921473950148" lon="6.92728984169662">
        <ele>1407.99</ele>
        <time>2014-07-15T06:39:34Z</time>
      </trkpt>
      <trkpt lat="45.996053656563163" lon="6.927192443981767">
        <ele>1410.8699999999999</ele>
        <time>2014-07-15T06:39:51Z</time>
      </trkpt>
      <trkpt lat="45.996176283806562" lon="6.927172830328345">
        <ele>1413.28</ele>
        <time>2014-07-15T06:40:06Z</time>
      </trkpt>
      <trkpt lat="45.996327493339777" lon="6.927149277180433">
        <ele>1415.6800000000001</ele>
        <time>2014-07-15T06:40:21Z</time>
      </trkpt>
      <trkpt lat="45.996392788365483" lon="6.927085323259234">
        <ele>1418.0799999999999</ele>
        <time>2014-07-15T06:40:41Z</time>
      </trkpt>
      <trkpt lat="45.996502507477999" lon="6.926968563348055">
        <ele>1420</ele>
        <time>2014-07-15T06:41:00Z</time>
      </trkpt>
      <trkpt lat="45.996628906577826" lon="6.926837638020515">
        <ele>1422.8900000000001</ele>
        <time>2014-07-15T06:41:20Z</time>
      </trkpt>
      <trkpt lat="45.996694536879659" lon="6.926690954715014">
        <ele>1424.3299999999999</ele>
        <time>2014-07-15T06:41:34Z</time>
      </trkpt>
      <trkpt lat="45.996846416965127" lon="6.926548127084971">
        <ele>1424.8099999999999</ele>
        <time>2014-07-15T06:41:52Z</time>
      </trkpt>
      <trkpt lat="45.996846081689" lon="6.926502278074622">
        <ele>1425.29</ele>
        <time>2014-07-15T06:41:56Z</time>
      </trkpt>
      <trkpt lat="45.996808698400855" lon="6.926458943635225">
        <ele>1425.29</ele>
        <time>2014-07-15T06:42:00Z</time>
      </trkpt>
      <trkpt lat="45.996649609878659" lon="6.926416950300336">
        <ele>1424.8099999999999</ele>
        <time>2014-07-15T06:42:18Z</time>
      </trkpt>
      <trkpt lat="45.996625637635589" lon="6.92641032859683">
        <ele>1426.25</ele>
        <time>2014-07-15T06:42:33Z</time>
      </trkpt>
      <trkpt lat="45.996597809717059" lon="6.926390044391155">
        <ele>1426.73</ele>
        <time>2014-07-15T06:42:47Z</time>
      </trkpt>
      <trkpt lat="45.996525138616562" lon="6.92626423202455">
        <ele>1427.7</ele>
        <time>2014-07-15T06:43:01Z</time>
      </trkpt>
      <trkpt lat="45.996435703709722" lon="6.926156356930733">
        <ele>1429.6199999999999</ele>
        <time>2014-07-15T06:43:15Z</time>
      </trkpt>
      <trkpt lat="45.996345095336437" lon="6.92617672495544">
        <ele>1431.0599999999999</ele>
        <time>2014-07-15T06:43:29Z</time>
      </trkpt>
      <trkpt lat="45.99624945782125" lon="6.926218466833234">
        <ele>1430.5799999999999</ele>
        <time>2014-07-15T06:43:42Z</time>
      </trkpt>
      <trkpt lat="45.996211068704724" lon="6.9262461271137">
        <ele>1431.0599999999999</ele>
        <time>2014-07-15T06:43:46Z</time>
      </trkpt>
      <trkpt lat="45.996135799214244" lon="6.926287282258272">
        <ele>1432.02</ele>
        <time>2014-07-15T06:43:58Z</time>
      </trkpt>
      <trkpt lat="45.996114173904061" lon="6.926301196217537">
        <ele>1432.02</ele>
        <time>2014-07-15T06:44:01Z</time>
      </trkpt>
      <trkpt lat="45.995994647964835" lon="6.926404377445579">
        <ele>1433.46</ele>
        <time>2014-07-15T06:44:16Z</time>
      </trkpt>
      <trkpt lat="45.995889874175191" lon="6.926451735198498">
        <ele>1434.4200000000001</ele>
        <time>2014-07-15T06:44:28Z</time>
      </trkpt>
      <trkpt lat="45.995856514200568" lon="6.926453076303005">
        <ele>1434.4200000000001</ele>
        <time>2014-07-15T06:44:31Z</time>
      </trkpt>
      <trkpt lat="45.995704047381878" lon="6.92638878710568">
        <ele>1434.4200000000001</ele>
        <time>2014-07-15T06:44:47Z</time>
      </trkpt>
      <trkpt lat="45.995547389611602" lon="6.926305135712028">
        <ele>1434.9100000000001</ele>
        <time>2014-07-15T06:45:05Z</time>
      </trkpt>
      <trkpt lat="45.995437502861023" lon="6.926290215924382">
        <ele>1436.3499999999999</ele>
        <time>2014-07-15T06:45:23Z</time>
      </trkpt>
      <trkpt lat="45.995352929458022" lon="6.926291305571795">
        <ele>1438.27</ele>
        <time>2014-07-15T06:45:36Z</time>
      </trkpt>
      <trkpt lat="45.995284365490079" lon="6.926229782402515">
        <ele>1440.1900000000001</ele>
        <time>2014-07-15T06:45:50Z</time>
      </trkpt>
      <trkpt lat="45.995218399912119" lon="6.926155770197511">
        <ele>1441.6300000000001</ele>
        <time>2014-07-15T06:46:03Z</time>
      </trkpt>
      <trkpt lat="45.995098454877734" lon="6.926057450473309">
        <ele>1442.1099999999999</ele>
        <time>2014-07-15T06:46:16Z</time>
      </trkpt>
      <trkpt lat="45.995015809312463" lon="6.925966255366802">
        <ele>1442.5999999999999</ele>
        <time>2014-07-15T06:46:29Z</time>
      </trkpt>
      <trkpt lat="45.995011450722814" lon="6.925961310043931">
        <ele>1442.5999999999999</ele>
        <time>2014-07-15T06:46:30Z</time>
      </trkpt>
      <trkpt lat="45.994888991117477" lon="6.925913281738758">
        <ele>1442.5999999999999</ele>
        <time>2014-07-15T06:46:43Z</time>
      </trkpt>
      <trkpt lat="45.994824534282088" lon="6.925829630345106">
        <ele>1444.04</ele>
        <time>2014-07-15T06:46:55Z</time>
      </trkpt>
      <trkpt lat="45.994780026376247" lon="6.925749331712723">
        <ele>1445.48</ele>
        <time>2014-07-15T06:47:08Z</time>
      </trkpt>
      <trkpt lat="45.994742475450039" lon="6.92567934282124">
        <ele>1447.4000000000001</ele>
        <time>2014-07-15T06:47:23Z</time>
      </trkpt>
      <trkpt lat="45.994683802127838" lon="6.925584124401212">
        <ele>1449.3199999999999</ele>
        <time>2014-07-15T06:47:41Z</time>
      </trkpt>
      <trkpt lat="45.994596965610981" lon="6.925469879060984">
        <ele>1452.21</ele>
        <time>2014-07-15T06:48:01Z</time>
      </trkpt>
      <trkpt lat="45.994556397199631" lon="6.925335768610239">
        <ele>1454.6099999999999</ele>
        <time>2014-07-15T06:48:23Z</time>
      </trkpt>
      <trkpt lat="45.994589840993285" lon="6.925345743075013">
        <ele>1457.02</ele>
        <time>2014-07-15T06:48:44Z</time>
      </trkpt>
      <trkpt lat="45.994628900662065" lon="6.925243400037289">
        <ele>1458.46</ele>
        <time>2014-07-15T06:48:59Z</time>
      </trkpt>
      <trkpt lat="45.994662176817656" lon="6.92526251077652">
        <ele>1460.3800000000001</ele>
        <time>2014-07-15T06:49:13Z</time>
      </trkpt>
      <trkpt lat="45.994586907327175" lon="6.925181038677692">
        <ele>1462.3</ele>
        <time>2014-07-15T06:49:30Z</time>
      </trkpt>
      <trkpt lat="45.994562096893787" lon="6.925128735601902">
        <ele>1464.23</ele>
        <time>2014-07-15T06:49:39Z</time>
      </trkpt>
      <trkpt lat="45.99453192204237" lon="6.92502505145967">
        <ele>1465.1900000000001</ele>
        <time>2014-07-15T06:49:51Z</time>
      </trkpt>
      <trkpt lat="45.994566455483437" lon="6.92497082054615">
        <ele>1465.1900000000001</ele>
        <time>2014-07-15T06:50:09Z</time>
      </trkpt>
      <trkpt lat="45.994568131864071" lon="6.924956487491727">
        <ele>1465.1900000000001</ele>
        <time>2014-07-15T06:50:28Z</time>
      </trkpt>
      <trkpt lat="45.99455589428544" lon="6.924939136952162">
        <ele>1465.6700000000001</ele>
        <time>2014-07-15T06:50:31Z</time>
      </trkpt>
      <trkpt lat="45.99450015462935" lon="6.924887420609593">
        <ele>1465.6700000000001</ele>
        <time>2014-07-15T06:50:37Z</time>
      </trkpt>
      <trkpt lat="45.994502082467079" lon="6.924830507487059">
        <ele>1465.6700000000001</ele>
        <time>2014-07-15T06:50:40Z</time>
      </trkpt>
      <trkpt lat="45.994509290903807" lon="6.924816761165857">
        <ele>1466.1500000000001</ele>
        <time>2014-07-15T06:50:51Z</time>
      </trkpt>
      <trkpt lat="45.994528234004974" lon="6.924737887457013">
        <ele>1466.1500000000001</ele>
        <time>2014-07-15T06:50:56Z</time>
      </trkpt>
      <trkpt lat="45.994563354179263" lon="6.924700001254678">
        <ele>1466.6300000000001</ele>
        <time>2014-07-15T06:51:00Z</time>
      </trkpt>
      <trkpt lat="45.994588416069746" lon="6.924648117274046">
        <ele>1467.1099999999999</ele>
        <time>2014-07-15T06:51:04Z</time>
      </trkpt>
      <trkpt lat="45.994568802416325" lon="6.924497997388244">
        <ele>1469.51</ele>
        <time>2014-07-15T06:51:20Z</time>
      </trkpt>
      <trkpt lat="45.994522115215659" lon="6.924405712634325">
        <ele>1472.4000000000001</ele>
        <time>2014-07-15T06:51:32Z</time>
      </trkpt>
      <trkpt lat="45.994488671422005" lon="6.924301441758871">
        <ele>1474.8</ele>
        <time>2014-07-15T06:51:48Z</time>
      </trkpt>
      <trkpt lat="45.994434859603643" lon="6.924206977710128">
        <ele>1476.24</ele>
        <time>2014-07-15T06:52:05Z</time>
      </trkpt>
      <trkpt lat="45.994367301464081" lon="6.924122320488095">
        <ele>1478.6500000000001</ele>
        <time>2014-07-15T06:52:22Z</time>
      </trkpt>
      <trkpt lat="45.99430862814188" lon="6.924126427620649">
        <ele>1480.0899999999999</ele>
        <time>2014-07-15T06:52:32Z</time>
      </trkpt>
      <trkpt lat="45.994284320622683" lon="6.92416112869978">
        <ele>1480.0899999999999</ele>
        <time>2014-07-15T06:52:48Z</time>
      </trkpt>
      <trkpt lat="45.994297061115503" lon="6.924054091796279">
        <ele>1482.01</ele>
        <time>2014-07-15T06:53:01Z</time>
      </trkpt>
      <trkpt lat="45.994339305907488" lon="6.923962645232678">
        <ele>1483.9300000000001</ele>
        <time>2014-07-15T06:53:15Z</time>
      </trkpt>
      <trkpt lat="45.994284655898809" lon="6.923988629132509">
        <ele>1485.8499999999999</ele>
        <time>2014-07-15T06:53:29Z</time>
      </trkpt>
      <trkpt lat="45.994239393621683" lon="6.924015870317817">
        <ele>1486.3399999999999</ele>
        <time>2014-07-15T06:53:48Z</time>
      </trkpt>
      <trkpt lat="45.99422749131918" lon="6.923943283036351">
        <ele>1487.78</ele>
        <time>2014-07-15T06:54:01Z</time>
      </trkpt>
      <trkpt lat="45.994175272062421" lon="6.923836581408978">
        <ele>1490.6600000000001</ele>
        <time>2014-07-15T06:54:18Z</time>
      </trkpt>
      <trkpt lat="45.994167057797313" lon="6.923758294433355">
        <ele>1493.55</ele>
        <time>2014-07-15T06:54:32Z</time>
      </trkpt>
      <trkpt lat="45.994149036705494" lon="6.923662908375263">
        <ele>1494.99</ele>
        <time>2014-07-15T06:54:47Z</time>
      </trkpt>
      <trkpt lat="45.994156999513507" lon="6.923608342185617">
        <ele>1496.9100000000001</ele>
        <time>2014-07-15T06:55:02Z</time>
      </trkpt>
      <trkpt lat="45.99409606307745" lon="6.923543801531196">
        <ele>1498.8299999999999</ele>
        <time>2014-07-15T06:55:19Z</time>
      </trkpt>
      <trkpt lat="45.994057841598988" lon="6.923479177057743">
        <ele>1500.27</ele>
        <time>2014-07-15T06:55:33Z</time>
      </trkpt>
      <trkpt lat="45.993961114436388" lon="6.923429472371936">
        <ele>1501.72</ele>
        <time>2014-07-15T06:55:48Z</time>
      </trkpt>
      <trkpt lat="45.993891460821033" lon="6.923329392448068">
        <ele>1502.6800000000001</ele>
        <time>2014-07-15T06:56:02Z</time>
      </trkpt>
      <trkpt lat="45.993854161351919" lon="6.923221433535218">
        <ele>1504.5999999999999</ele>
        <time>2014-07-15T06:56:19Z</time>
      </trkpt>
      <trkpt lat="45.993793224915862" lon="6.92318681627512">
        <ele>1506.52</ele>
        <time>2014-07-15T06:56:34Z</time>
      </trkpt>
      <trkpt lat="45.993773359805346" lon="6.923128645867109">
        <ele>1507</ele>
        <time>2014-07-15T06:56:46Z</time>
      </trkpt>
      <trkpt lat="45.993696833029389" lon="6.923058405518532">
        <ele>1509.8900000000001</ele>
        <time>2014-07-15T06:57:04Z</time>
      </trkpt>
      <trkpt lat="45.993643524125218" lon="6.922965198755264">
        <ele>1511.8099999999999</ele>
        <time>2014-07-15T06:57:20Z</time>
      </trkpt>
      <trkpt lat="45.99356934428215" lon="6.922922786325216">
        <ele>1513.25</ele>
        <time>2014-07-15T06:57:35Z</time>
      </trkpt>
      <trkpt lat="45.993466665968299" lon="6.922895964235067">
        <ele>1514.21</ele>
        <time>2014-07-15T06:57:52Z</time>
      </trkpt>
      <trkpt lat="45.993378236889839" lon="6.922826142981648">
        <ele>1515.6600000000001</ele>
        <time>2014-07-15T06:58:08Z</time>
      </trkpt>
      <trkpt lat="45.993341775611043" lon="6.922798985615373">
        <ele>1517.0999999999999</ele>
        <time>2014-07-15T06:58:15Z</time>
      </trkpt>
      <trkpt lat="45.993285281583667" lon="6.922718016430736">
        <ele>1519.5</ele>
        <time>2014-07-15T06:58:29Z</time>
      </trkpt>
      <trkpt lat="45.993217304348946" lon="6.922711478546262">
        <ele>1520.46</ele>
        <time>2014-07-15T06:58:39Z</time>
      </trkpt>
      <trkpt lat="45.993104735389352" lon="6.922659678384662">
        <ele>1522.3900000000001</ele>
        <time>2014-07-15T06:58:55Z</time>
      </trkpt>
      <trkpt lat="45.993037847802043" lon="6.922613829374313">
        <ele>1523.3499999999999</ele>
        <time>2014-07-15T06:59:08Z</time>
      </trkpt>
      <trkpt lat="45.992942964658141" lon="6.922612152993679">
        <ele>1523.8299999999999</ele>
        <time>2014-07-15T06:59:23Z</time>
      </trkpt>
      <trkpt lat="45.992869036272168" lon="6.922576446086168">
        <ele>1526.71</ele>
        <time>2014-07-15T06:59:37Z</time>
      </trkpt>
      <trkpt lat="45.992802735418081" lon="6.922557670623064">
        <ele>1526.71</ele>
        <time>2014-07-15T06:59:51Z</time>
      </trkpt>
      <trkpt lat="45.992709277197719" lon="6.922560269013047">
        <ele>1527.6700000000001</ele>
        <time>2014-07-15T07:00:06Z</time>
      </trkpt>
      <trkpt lat="45.992662087082863" lon="6.922455159947276">
        <ele>1529.1099999999999</ele>
        <time>2014-07-15T07:00:21Z</time>
      </trkpt>
      <trkpt lat="45.992595953866839" lon="6.92242749966681">
        <ele>1530.5599999999999</ele>
        <time>2014-07-15T07:00:34Z</time>
      </trkpt>
      <trkpt lat="45.99253049120307" lon="6.92244803532958">
        <ele>1531.52</ele>
        <time>2014-07-15T07:00:48Z</time>
      </trkpt>
      <trkpt lat="45.992538873106241" lon="6.922386176884174">
        <ele>1532.48</ele>
        <time>2014-07-15T07:01:01Z</time>
      </trkpt>
      <trkpt lat="45.992531999945641" lon="6.922423476353288">
        <ele>1532</ele>
        <time>2014-07-15T07:01:19Z</time>
      </trkpt>
      <trkpt lat="45.992527306079865" lon="6.922419369220734">
        <ele>1532</ele>
        <time>2014-07-15T07:01:20Z</time>
      </trkpt>
      <trkpt lat="45.99251733161509" lon="6.922376034781337">
        <ele>1533.9200000000001</ele>
        <time>2014-07-15T07:01:33Z</time>
      </trkpt>
      <trkpt lat="45.992473578080535" lon="6.922366060316563">
        <ele>1534.4000000000001</ele>
        <time>2014-07-15T07:01:50Z</time>
      </trkpt>
      <trkpt lat="45.992461843416095" lon="6.922378297895193">
        <ele>1534.8800000000001</ele>
        <time>2014-07-15T07:02:04Z</time>
      </trkpt>
      <trkpt lat="45.992455808445811" lon="6.922396738082171">
        <ele>1534.4000000000001</ele>
        <time>2014-07-15T07:02:30Z</time>
      </trkpt>
      <trkpt lat="45.992450946941972" lon="6.922387769445777">
        <ele>1534.8800000000001</ele>
        <time>2014-07-15T07:02:56Z</time>
      </trkpt>
      <trkpt lat="45.992444911971688" lon="6.922393552958965">
        <ele>1534.8800000000001</ele>
        <time>2014-07-15T07:03:09Z</time>
      </trkpt>
      <trkpt lat="45.992420772090554" lon="6.922343261539936">
        <ele>1535.8399999999999</ele>
        <time>2014-07-15T07:03:23Z</time>
      </trkpt>
      <trkpt lat="45.992438793182373" lon="6.922347117215395">
        <ele>1535.8399999999999</ele>
        <time>2014-07-15T07:03:45Z</time>
      </trkpt>
      <trkpt lat="45.992405349388719" lon="6.922277379781008">
        <ele>1536.8</ele>
        <time>2014-07-15T07:04:02Z</time>
      </trkpt>
      <trkpt lat="45.992362601682544" lon="6.922177383676171">
        <ele>1537.77</ele>
        <time>2014-07-15T07:04:16Z</time>
      </trkpt>
      <trkpt lat="45.992344161495566" lon="6.922061713412404">
        <ele>1541.1300000000001</ele>
        <time>2014-07-15T07:04:36Z</time>
      </trkpt>
      <trkpt lat="45.992282135412097" lon="6.922017624601722">
        <ele>1543.53</ele>
        <time>2014-07-15T07:04:49Z</time>
      </trkpt>
      <trkpt lat="45.992255229502916" lon="6.921974290162325">
        <ele>1545.46</ele>
        <time>2014-07-15T07:05:01Z</time>
      </trkpt>
      <trkpt lat="45.992206614464521" lon="6.921909162774682">
        <ele>1547.3800000000001</ele>
        <time>2014-07-15T07:05:16Z</time>
      </trkpt>
      <trkpt lat="45.992141235619783" lon="6.921891393139958">
        <ele>1549.78</ele>
        <time>2014-07-15T07:05:31Z</time>
      </trkpt>
      <trkpt lat="45.992071749642491" lon="6.921824421733618">
        <ele>1552.1900000000001</ele>
        <time>2014-07-15T07:05:47Z</time>
      </trkpt>
      <trkpt lat="45.992145510390401" lon="6.921713193878532">
        <ele>1554.5899999999999</ele>
        <time>2014-07-15T07:06:03Z</time>
      </trkpt>
      <trkpt lat="45.992206949740648" lon="6.921643707901239">
        <ele>1556.51</ele>
        <time>2014-07-15T07:06:19Z</time>
      </trkpt>
      <trkpt lat="45.992218852043152" lon="6.921643372625113">
        <ele>1558.4300000000001</ele>
        <time>2014-07-15T07:06:32Z</time>
      </trkpt>
      <trkpt lat="45.99216160364449" lon="6.921657538041472">
        <ele>1559.8800000000001</ele>
        <time>2014-07-15T07:06:46Z</time>
      </trkpt>
      <trkpt lat="45.992111815139651" lon="6.921635745093226">
        <ele>1562.28</ele>
        <time>2014-07-15T07:06:59Z</time>
      </trkpt>
      <trkpt lat="45.992065714672208" lon="6.921555111184716">
        <ele>1562.76</ele>
        <time>2014-07-15T07:07:12Z</time>
      </trkpt>
      <trkpt lat="45.992008885368705" lon="6.921457210555673">
        <ele>1562.28</ele>
        <time>2014-07-15T07:07:27Z</time>
      </trkpt>
      <trkpt lat="45.991962198168039" lon="6.921405745670199">
        <ele>1563.24</ele>
        <time>2014-07-15T07:07:44Z</time>
      </trkpt>
      <trkpt lat="45.991924731060863" lon="6.921391496434808">
        <ele>1563.72</ele>
        <time>2014-07-15T07:07:51Z</time>
      </trkpt>
      <trkpt lat="45.991852143779397" lon="6.9214160554111">
        <ele>1565.1600000000001</ele>
        <time>2014-07-15T07:08:03Z</time>
      </trkpt>
      <trkpt lat="45.991797745227814" lon="6.921425862237811">
        <ele>1567.0899999999999</ele>
        <time>2014-07-15T07:08:16Z</time>
      </trkpt>
      <trkpt lat="45.991722224280238" lon="6.921486547216773">
        <ele>1569.49</ele>
        <time>2014-07-15T07:08:33Z</time>
      </trkpt>
      <trkpt lat="45.99171887151897" lon="6.921493336558342">
        <ele>1569.49</ele>
        <time>2014-07-15T07:08:34Z</time>
      </trkpt>
      <trkpt lat="45.991715267300606" lon="6.921507837250829">
        <ele>1569.97</ele>
        <time>2014-07-15T07:08:44Z</time>
      </trkpt>
      <trkpt lat="45.991642260923982" lon="6.921494174748659">
        <ele>1570.45</ele>
        <time>2014-07-15T07:08:57Z</time>
      </trkpt>
      <trkpt lat="45.99162558093667" lon="6.921494510024786">
        <ele>1572.3699999999999</ele>
        <time>2014-07-15T07:09:00Z</time>
      </trkpt>
      <trkpt lat="45.991560453549027" lon="6.92148738540709">
        <ele>1573.8199999999999</ele>
        <time>2014-07-15T07:09:14Z</time>
      </trkpt>
      <trkpt lat="45.991529356688261" lon="6.92144631408155">
        <ele>1574.78</ele>
        <time>2014-07-15T07:09:33Z</time>
      </trkpt>
      <trkpt lat="45.991471521556377" lon="6.921421503648162">
        <ele>1577.6600000000001</ele>
        <time>2014-07-15T07:09:45Z</time>
      </trkpt>
      <trkpt lat="45.991426091641188" lon="6.921373642981052">
        <ele>1579.0999999999999</ele>
        <time>2014-07-15T07:09:56Z</time>
      </trkpt>
      <trkpt lat="45.991373956203461" lon="6.921269875019789">
        <ele>1581.51</ele>
        <time>2014-07-15T07:10:11Z</time>
      </trkpt>
      <trkpt lat="45.991325592622161" lon="6.92124548368156">
        <ele>1583.4300000000001</ele>
        <time>2014-07-15T07:10:21Z</time>
      </trkpt>
      <trkpt lat="45.991247724741697" lon="6.921241628006101">
        <ele>1584.3900000000001</ele>
        <time>2014-07-15T07:10:36Z</time>
      </trkpt>
      <trkpt lat="45.991226434707642" lon="6.921250596642494">
        <ele>1584.8699999999999</ele>
        <time>2014-07-15T07:10:49Z</time>
      </trkpt>
      <trkpt lat="45.991187291219831" lon="6.92121815867722">
        <ele>1586.3099999999999</ele>
        <time>2014-07-15T07:11:01Z</time>
      </trkpt>
      <trkpt lat="45.99115158431232" lon="6.921168034896255">
        <ele>1587.75</ele>
        <time>2014-07-15T07:11:14Z</time>
      </trkpt>
      <trkpt lat="45.991133395582438" lon="6.921164849773049">
        <ele>1588.72</ele>
        <time>2014-07-15T07:11:32Z</time>
      </trkpt>
      <trkpt lat="45.991103891283274" lon="6.921084886416793">
        <ele>1591.5999999999999</ele>
        <time>2014-07-15T07:11:42Z</time>
      </trkpt>
      <trkpt lat="45.991130713373423" lon="6.921027470380068">
        <ele>1592.0799999999999</ele>
        <time>2014-07-15T07:11:54Z</time>
      </trkpt>
      <trkpt lat="45.991110512986779" lon="6.920943399891257">
        <ele>1593.52</ele>
        <time>2014-07-15T07:12:06Z</time>
      </trkpt>
      <trkpt lat="45.991061981767416" lon="6.920851953327656">
        <ele>1595.45</ele>
        <time>2014-07-15T07:12:19Z</time>
      </trkpt>
      <trkpt lat="45.990987131372094" lon="6.920812977477908">
        <ele>1596.4100000000001</ele>
        <time>2014-07-15T07:12:34Z</time>
      </trkpt>
      <trkpt lat="45.9909263625741" lon="6.920783808454871">
        <ele>1597.3699999999999</ele>
        <time>2014-07-15T07:12:47Z</time>
      </trkpt>
      <trkpt lat="45.990904318168759" lon="6.920729242265225">
        <ele>1599.29</ele>
        <time>2014-07-15T07:13:00Z</time>
      </trkpt>
      <trkpt lat="45.990826115012169" lon="6.920775761827827">
        <ele>1600.73</ele>
        <time>2014-07-15T07:13:15Z</time>
      </trkpt>
      <trkpt lat="45.990787642076612" lon="6.920724464580417">
        <ele>1601.6900000000001</ele>
        <time>2014-07-15T07:13:30Z</time>
      </trkpt>
      <trkpt lat="45.990756880491972" lon="6.920773666352034">
        <ele>1601.6900000000001</ele>
        <time>2014-07-15T07:13:45Z</time>
      </trkpt>
      <trkpt lat="45.990708768367767" lon="6.920810882002115">
        <ele>1604.0999999999999</ele>
        <time>2014-07-15T07:14:01Z</time>
      </trkpt>
      <trkpt lat="45.990625871345401" lon="6.920842481777072">
        <ele>1606.5</ele>
        <time>2014-07-15T07:14:19Z</time>
      </trkpt>
      <trkpt lat="45.990614471957088" lon="6.920755142346025">
        <ele>1608.4200000000001</ele>
        <time>2014-07-15T07:14:33Z</time>
      </trkpt>
      <trkpt lat="45.990539537742734" lon="6.920781880617142">
        <ele>1610.3499999999999</ele>
        <time>2014-07-15T07:14:45Z</time>
      </trkpt>
      <trkpt lat="45.99051296710968" lon="6.920806020498276">
        <ele>1612.75</ele>
        <time>2014-07-15T07:14:59Z</time>
      </trkpt>
      <trkpt lat="45.990502070635557" lon="6.920796716585755">
        <ele>1614.6700000000001</ele>
        <time>2014-07-15T07:15:13Z</time>
      </trkpt>
      <trkpt lat="45.990416407585144" lon="6.920746928080916">
        <ele>1617.0699999999999</ele>
        <time>2014-07-15T07:15:28Z</time>
      </trkpt>
      <trkpt lat="45.990333510562778" lon="6.920712227001786">
        <ele>1620.9200000000001</ele>
        <time>2014-07-15T07:15:44Z</time>
      </trkpt>
      <trkpt lat="45.990261342376471" lon="6.920691942796111">
        <ele>1621.8800000000001</ele>
        <time>2014-07-15T07:15:59Z</time>
      </trkpt>
      <trkpt lat="45.99016897380352" lon="6.920654391869903">
        <ele>1623.8</ele>
        <time>2014-07-15T07:16:14Z</time>
      </trkpt>
      <trkpt lat="45.990114072337747" lon="6.920642321929336">
        <ele>1626.6900000000001</ele>
        <time>2014-07-15T07:16:31Z</time>
      </trkpt>
      <trkpt lat="45.990037294104695" lon="6.920591192319989">
        <ele>1628.1300000000001</ele>
        <time>2014-07-15T07:16:45Z</time>
      </trkpt>
      <trkpt lat="45.989971831440926" lon="6.920547941699624">
        <ele>1630.53</ele>
        <time>2014-07-15T07:17:01Z</time>
      </trkpt>
      <trkpt lat="45.9899041056633" lon="6.92053503356874">
        <ele>1633.9000000000001</ele>
        <time>2014-07-15T07:17:18Z</time>
      </trkpt>
      <trkpt lat="45.989851215854287" lon="6.92048910073936">
        <ele>1635.3399999999999</ele>
        <time>2014-07-15T07:17:34Z</time>
      </trkpt>
      <trkpt lat="45.989807127043605" lon="6.920463116839528">
        <ele>1636.78</ele>
        <time>2014-07-15T07:17:44Z</time>
      </trkpt>
      <trkpt lat="45.989712830632925" lon="6.920401090756059">
        <ele>1637.74</ele>
        <time>2014-07-15T07:17:58Z</time>
      </trkpt>
      <trkpt lat="45.989654576405883" lon="6.92035079933703">
        <ele>1639.1900000000001</ele>
        <time>2014-07-15T07:18:13Z</time>
      </trkpt>
      <trkpt lat="45.989609314128757" lon="6.920310566201806">
        <ele>1641.1099999999999</ele>
        <time>2014-07-15T07:18:26Z</time>
      </trkpt>
      <trkpt lat="45.989567153155804" lon="6.920239822939038">
        <ele>1643.03</ele>
        <time>2014-07-15T07:18:40Z</time>
      </trkpt>
      <trkpt lat="45.989497667178512" lon="6.920216521248221">
        <ele>1644.95</ele>
        <time>2014-07-15T07:18:54Z</time>
      </trkpt>
      <trkpt lat="45.989431031048298" lon="6.920149466022849">
        <ele>1646.8800000000001</ele>
        <time>2014-07-15T07:19:07Z</time>
      </trkpt>
      <trkpt lat="45.989486770704389" lon="6.920087691396475">
        <ele>1648.3199999999999</ele>
        <time>2014-07-15T07:19:20Z</time>
      </trkpt>
      <trkpt lat="45.989494901150465" lon="6.920091630890966">
        <ele>1648.3199999999999</ele>
        <time>2014-07-15T07:19:21Z</time>
      </trkpt>
      <trkpt lat="45.989488866180182" lon="6.920096157118678">
        <ele>1649.76</ele>
        <time>2014-07-15T07:19:36Z</time>
      </trkpt>
      <trkpt lat="45.989445028826594" lon="6.920083835721016">
        <ele>1651.2</ele>
        <time>2014-07-15T07:19:43Z</time>
      </trkpt>
      <trkpt lat="45.989424828439951" lon="6.920084087178111">
        <ele>1652.1600000000001</ele>
        <time>2014-07-15T07:19:46Z</time>
      </trkpt>
      <trkpt lat="45.989433126524091" lon="6.919967914000154">
        <ele>1652.6400000000001</ele>
        <time>2014-07-15T07:19:59Z</time>
      </trkpt>
      <trkpt lat="45.989375710487366" lon="6.919942516833544">
        <ele>1654.5699999999999</ele>
        <time>2014-07-15T07:20:14Z</time>
      </trkpt>
      <trkpt lat="45.989316198974848" lon="6.91993891261518">
        <ele>1656.97</ele>
        <time>2014-07-15T07:20:28Z</time>
      </trkpt>
      <trkpt lat="45.989303458482027" lon="6.919857524335384">
        <ele>1658.4100000000001</ele>
        <time>2014-07-15T07:20:41Z</time>
      </trkpt>
      <trkpt lat="45.989228608086705" lon="6.919825924560428">
        <ele>1660.8099999999999</ele>
        <time>2014-07-15T07:20:56Z</time>
      </trkpt>
      <trkpt lat="45.989167839288712" lon="6.919855764135718">
        <ele>1662.74</ele>
        <time>2014-07-15T07:21:10Z</time>
      </trkpt>
      <trkpt lat="45.989092318341136" lon="6.919796755537391">
        <ele>1664.6600000000001</ele>
        <time>2014-07-15T07:21:25Z</time>
      </trkpt>
      <trkpt lat="45.989029621705413" lon="6.919738417491317">
        <ele>1665.6199999999999</ele>
        <time>2014-07-15T07:21:39Z</time>
      </trkpt>
      <trkpt lat="45.989019982516766" lon="6.919669937342405">
        <ele>1667.54</ele>
        <time>2014-07-15T07:21:52Z</time>
      </trkpt>
      <trkpt lat="45.988981844857335" lon="6.919650239869952">
        <ele>1669.95</ele>
        <time>2014-07-15T07:22:06Z</time>
      </trkpt>
      <trkpt lat="45.988948568701744" lon="6.919660298153758">
        <ele>1670.9100000000001</ele>
        <time>2014-07-15T07:22:21Z</time>
      </trkpt>
      <trkpt lat="45.988943791016936" lon="6.91966281272471">
        <ele>1670.9100000000001</ele>
        <time>2014-07-15T07:22:38Z</time>
      </trkpt>
      <trkpt lat="45.988942449912429" lon="6.919652251526713">
        <ele>1670.9100000000001</ele>
        <time>2014-07-15T07:23:02Z</time>
      </trkpt>
      <trkpt lat="45.988915879279375" lon="6.91964378580451">
        <ele>1671.3900000000001</ele>
        <time>2014-07-15T07:23:05Z</time>
      </trkpt>
      <trkpt lat="45.988868521526456" lon="6.919578406959772">
        <ele>1671.8699999999999</ele>
        <time>2014-07-15T07:23:15Z</time>
      </trkpt>
      <trkpt lat="45.988827366381884" lon="6.919472124427557">
        <ele>1673.3099999999999</ele>
        <time>2014-07-15T07:23:28Z</time>
      </trkpt>
      <trkpt lat="45.988752599805593" lon="6.919371709227562">
        <ele>1673.3099999999999</ele>
        <time>2014-07-15T07:23:42Z</time>
      </trkpt>
      <trkpt lat="45.988705661147833" lon="6.919331895187497">
        <ele>1674.75</ele>
        <time>2014-07-15T07:23:54Z</time>
      </trkpt>
      <trkpt lat="45.988670121878386" lon="6.919261738657951">
        <ele>1675.23</ele>
        <time>2014-07-15T07:24:06Z</time>
      </trkpt>
      <trkpt lat="45.988638522103429" lon="6.919244471937418">
        <ele>1676.2</ele>
        <time>2014-07-15T07:24:27Z</time>
      </trkpt>
      <trkpt lat="45.988629218190908" lon="6.91924505867064">
        <ele>1676.6800000000001</ele>
        <time>2014-07-15T07:24:28Z</time>
      </trkpt>
      <trkpt lat="45.988565012812614" lon="6.919189151376486">
        <ele>1676.6800000000001</ele>
        <time>2014-07-15T07:24:39Z</time>
      </trkpt>
      <trkpt lat="45.988482367247343" lon="6.919113211333752">
        <ele>1678.5999999999999</ele>
        <time>2014-07-15T07:24:53Z</time>
      </trkpt>
      <trkpt lat="45.988407097756863" lon="6.919037103652954">
        <ele>1681</ele>
        <time>2014-07-15T07:25:07Z</time>
      </trkpt>
      <trkpt lat="45.988383376970887" lon="6.918961247429252">
        <ele>1681</ele>
        <time>2014-07-15T07:25:14Z</time>
      </trkpt>
      <trkpt lat="45.988375917077065" lon="6.918943477794528">
        <ele>1681.96</ele>
        <time>2014-07-15T07:25:29Z</time>
      </trkpt>
      <trkpt lat="45.988331073895097" lon="6.918842978775501">
        <ele>1683.4100000000001</ele>
        <time>2014-07-15T07:25:47Z</time>
      </trkpt>
      <trkpt lat="45.988286985084414" lon="6.918748933821917">
        <ele>1684.8499999999999</ele>
        <time>2014-07-15T07:26:01Z</time>
      </trkpt>
      <trkpt lat="45.988272316753864" lon="6.918654972687364">
        <ele>1687.25</ele>
        <time>2014-07-15T07:26:14Z</time>
      </trkpt>
      <trkpt lat="45.988234179094434" lon="6.9186772685498">
        <ele>1688.6900000000001</ele>
        <time>2014-07-15T07:26:21Z</time>
      </trkpt>
      <trkpt lat="45.98812990821898" lon="6.918683722615242">
        <ele>1689.6500000000001</ele>
        <time>2014-07-15T07:26:34Z</time>
      </trkpt>
      <trkpt lat="45.988056231290102" lon="6.918655475601554">
        <ele>1690.6199999999999</ele>
        <time>2014-07-15T07:26:45Z</time>
      </trkpt>
      <trkpt lat="45.988084729760885" lon="6.918556988239288">
        <ele>1692.0599999999999</ele>
        <time>2014-07-15T07:26:57Z</time>
      </trkpt>
      <trkpt lat="45.988037288188934" lon="6.918450454249978">
        <ele>1694.46</ele>
        <time>2014-07-15T07:27:10Z</time>
      </trkpt>
      <trkpt lat="45.988030750304461" lon="6.918442910537124">
        <ele>1694.46</ele>
        <time>2014-07-15T07:27:11Z</time>
      </trkpt>
      <trkpt lat="45.987936286255717" lon="6.918444251641631">
        <ele>1695.9000000000001</ele>
        <time>2014-07-15T07:27:24Z</time>
      </trkpt>
      <trkpt lat="45.987863950431347" lon="6.918333191424608">
        <ele>1697.8299999999999</ele>
        <time>2014-07-15T07:27:38Z</time>
      </trkpt>
      <trkpt lat="45.987775940448046" lon="6.91828390583396">
        <ele>1699.75</ele>
        <time>2014-07-15T07:27:53Z</time>
      </trkpt>
      <trkpt lat="45.987714249640703" lon="6.918241996318102">
        <ele>1702.1500000000001</ele>
        <time>2014-07-15T07:28:07Z</time>
      </trkpt>
      <trkpt lat="45.987690864130855" lon="6.918164044618607">
        <ele>1704.0699999999999</ele>
        <time>2014-07-15T07:28:20Z</time>
      </trkpt>
      <trkpt lat="45.987701844424009" lon="6.918138731271029">
        <ele>1704.55</ele>
        <time>2014-07-15T07:28:23Z</time>
      </trkpt>
      <trkpt lat="45.987720116972923" lon="6.918024737387896">
        <ele>1706</ele>
        <time>2014-07-15T07:28:37Z</time>
      </trkpt>
      <trkpt lat="45.987667897716165" lon="6.917950976639986">
        <ele>1708.4000000000001</ele>
        <time>2014-07-15T07:28:52Z</time>
      </trkpt>
      <trkpt lat="45.987667143344879" lon="6.917860452085733">
        <ele>1710.3199999999999</ele>
        <time>2014-07-15T07:29:05Z</time>
      </trkpt>
      <trkpt lat="45.987601764500141" lon="6.917808149009943">
        <ele>1712.25</ele>
        <time>2014-07-15T07:29:22Z</time>
      </trkpt>
      <trkpt lat="45.987647445872426" lon="6.917764227837324">
        <ele>1712.25</ele>
        <time>2014-07-15T07:29:43Z</time>
      </trkpt>
      <trkpt lat="45.98764325492084" lon="6.917783506214619">
        <ele>1712.73</ele>
        <time>2014-07-15T07:30:06Z</time>
      </trkpt>
      <trkpt lat="45.987615343183279" lon="6.917810160666704">
        <ele>1713.21</ele>
        <time>2014-07-15T07:30:20Z</time>
      </trkpt>
      <trkpt lat="45.987662030383945" lon="6.917793229222298">
        <ele>1712.73</ele>
        <time>2014-07-15T07:30:36Z</time>
      </trkpt>
      <trkpt lat="45.987749705091119" lon="6.917742770165205">
        <ele>1714.6500000000001</ele>
        <time>2014-07-15T07:30:50Z</time>
      </trkpt>
      <trkpt lat="45.987791363149881" lon="6.917731454595923">
        <ele>1714.6500000000001</ele>
        <time>2014-07-15T07:31:05Z</time>
      </trkpt>
      <trkpt lat="45.987872248515487" lon="6.917710918933153">
        <ele>1717.05</ele>
        <time>2014-07-15T07:31:20Z</time>
      </trkpt>
      <trkpt lat="45.987850120291114" lon="6.917665991932154">
        <ele>1719.46</ele>
        <time>2014-07-15T07:31:33Z</time>
      </trkpt>
      <trkpt lat="45.987807456403971" lon="6.917556608095765">
        <ele>1721.8599999999999</ele>
        <time>2014-07-15T07:31:49Z</time>
      </trkpt>
      <trkpt lat="45.987792368978262" lon="6.917545711621642">
        <ele>1722.3399999999999</ele>
        <time>2014-07-15T07:32:06Z</time>
      </trkpt>
      <trkpt lat="45.987759092822671" lon="6.917441105470061">
        <ele>1725.22</ele>
        <time>2014-07-15T07:32:19Z</time>
      </trkpt>
      <trkpt lat="45.987860010936856" lon="6.917386539280415">
        <ele>1727.6300000000001</ele>
        <time>2014-07-15T07:32:35Z</time>
      </trkpt>
      <trkpt lat="45.987838972359896" lon="6.917358208447695">
        <ele>1730.03</ele>
        <time>2014-07-15T07:32:48Z</time>
      </trkpt>
      <trkpt lat="45.987813826650381" lon="6.917229127138853">
        <ele>1732.9100000000001</ele>
        <time>2014-07-15T07:33:05Z</time>
      </trkpt>
      <trkpt lat="45.987877110019326" lon="6.917236000299454">
        <ele>1735.3199999999999</ele>
        <time>2014-07-15T07:33:18Z</time>
      </trkpt>
      <trkpt lat="45.987962773069739" lon="6.917219404131174">
        <ele>1737.72</ele>
        <time>2014-07-15T07:33:33Z</time>
      </trkpt>
      <trkpt lat="45.988051788881421" lon="6.917238431051374">
        <ele>1740.1199999999999</ele>
        <time>2014-07-15T07:33:48Z</time>
      </trkpt>
      <trkpt lat="45.988029660657048" lon="6.917182859033346">
        <ele>1741.5699999999999</ele>
        <time>2014-07-15T07:34:02Z</time>
      </trkpt>
      <trkpt lat="45.988004431128502" lon="6.917126951739192">
        <ele>1743.01</ele>
        <time>2014-07-15T07:34:15Z</time>
      </trkpt>
      <trkpt lat="45.988095123320818" lon="6.917147906497121">
        <ele>1744.45</ele>
        <time>2014-07-15T07:34:32Z</time>
      </trkpt>
      <trkpt lat="45.988190677016973" lon="6.917166095227003">
        <ele>1746.8499999999999</ele>
        <time>2014-07-15T07:34:46Z</time>
      </trkpt>
      <trkpt lat="45.988213224336505" lon="6.917167268693447">
        <ele>1747.8099999999999</ele>
        <time>2014-07-15T07:35:03Z</time>
      </trkpt>
      <trkpt lat="45.988212134689093" lon="6.917206244543195">
        <ele>1751.6600000000001</ele>
        <time>2014-07-15T07:35:09Z</time>
      </trkpt>
      <trkpt lat="45.988215068355203" lon="6.917208759114146">
        <ele>1748.29</ele>
        <time>2014-07-15T07:35:10Z</time>
      </trkpt>
      <trkpt lat="45.988202495500445" lon="6.917212195694447">
        <ele>1748.78</ele>
        <time>2014-07-15T07:35:24Z</time>
      </trkpt>
      <trkpt lat="45.988218169659376" lon="6.917183781042695">
        <ele>1748.78</ele>
        <time>2014-07-15T07:35:43Z</time>
      </trkpt>
      <trkpt lat="45.988273238763213" lon="6.917218817397952">
        <ele>1748.29</ele>
        <time>2014-07-15T07:35:58Z</time>
      </trkpt>
      <trkpt lat="45.988245075568557" lon="6.917212950065732">
        <ele>1747.8099999999999</ele>
        <time>2014-07-15T07:36:28Z</time>
      </trkpt>
      <trkpt lat="45.988246249035001" lon="6.9172094296664">
        <ele>1748.29</ele>
        <time>2014-07-15T07:36:52Z</time>
      </trkpt>
      <trkpt lat="45.988235520198941" lon="6.917219739407301">
        <ele>1748.29</ele>
        <time>2014-07-15T07:37:11Z</time>
      </trkpt>
      <trkpt lat="45.988247003406286" lon="6.917198365554214">
        <ele>1747.8099999999999</ele>
        <time>2014-07-15T07:37:34Z</time>
      </trkpt>
      <trkpt lat="45.988241555169225" lon="6.917234994471073">
        <ele>1748.29</ele>
        <time>2014-07-15T07:37:54Z</time>
      </trkpt>
      <trkpt lat="45.988243231549859" lon="6.917187804356217">
        <ele>1749.26</ele>
        <time>2014-07-15T07:38:20Z</time>
      </trkpt>
      <trkpt lat="45.988252284005284" lon="6.917150504887104">
        <ele>1750.22</ele>
        <time>2014-07-15T07:38:40Z</time>
      </trkpt>
      <trkpt lat="45.988317998126149" lon="6.91715712659061">
        <ele>1752.6199999999999</ele>
        <time>2014-07-15T07:38:56Z</time>
      </trkpt>
      <trkpt lat="45.988302323967218" lon="6.917050341144204">
        <ele>1754.0599999999999</ele>
        <time>2014-07-15T07:39:16Z</time>
      </trkpt>
      <trkpt lat="45.988303497433662" lon="6.917049586772919">
        <ele>1754.54</ele>
        <time>2014-07-15T07:39:34Z</time>
      </trkpt>
      <trkpt lat="45.988285392522812" lon="6.91700030118227">
        <ele>1755.02</ele>
        <time>2014-07-15T07:40:00Z</time>
      </trkpt>
      <trkpt lat="45.988269383087754" lon="6.916978172957897">
        <ele>1756.47</ele>
        <time>2014-07-15T07:40:17Z</time>
      </trkpt>
      <trkpt lat="45.988277178257704" lon="6.916968114674091">
        <ele>1756.95</ele>
        <time>2014-07-15T07:40:31Z</time>
      </trkpt>
      <trkpt lat="45.988303329795599" lon="6.91691723652184">
        <ele>1758.3900000000001</ele>
        <time>2014-07-15T07:40:46Z</time>
      </trkpt>
      <trkpt lat="45.98832587711513" lon="6.916858647018671">
        <ele>1760.3099999999999</ele>
        <time>2014-07-15T07:41:05Z</time>
      </trkpt>
      <trkpt lat="45.988269215449691" lon="6.916790418326855">
        <ele>1761.27</ele>
        <time>2014-07-15T07:41:17Z</time>
      </trkpt>
      <trkpt lat="45.988231915980577" lon="6.916711963713169">
        <ele>1763.2</ele>
        <time>2014-07-15T07:41:32Z</time>
      </trkpt>
      <trkpt lat="45.988305509090424" lon="6.916698636487126">
        <ele>1766.0799999999999</ele>
        <time>2014-07-15T07:41:48Z</time>
      </trkpt>
      <trkpt lat="45.988352028653026" lon="6.916666952893138">
        <ele>1767.52</ele>
        <time>2014-07-15T07:42:00Z</time>
      </trkpt>
      <trkpt lat="45.988389160484076" lon="6.916663516312838">
        <ele>1768.96</ele>
        <time>2014-07-15T07:42:12Z</time>
      </trkpt>
      <trkpt lat="45.988365774974227" lon="6.916590509936214">
        <ele>1770.8900000000001</ele>
        <time>2014-07-15T07:42:26Z</time>
      </trkpt>
      <trkpt lat="45.988320428878069" lon="6.916557066142559">
        <ele>1771.8499999999999</ele>
        <time>2014-07-15T07:42:38Z</time>
      </trkpt>
      <trkpt lat="45.988321518525481" lon="6.916471906006336">
        <ele>1774.73</ele>
        <time>2014-07-15T07:42:53Z</time>
      </trkpt>
      <trkpt lat="45.988240381702781" lon="6.916437037289143">
        <ele>1776.1700000000001</ele>
        <time>2014-07-15T07:43:08Z</time>
      </trkpt>
      <trkpt lat="45.988225294277072" lon="6.916350200772286">
        <ele>1778.0999999999999</ele>
        <time>2014-07-15T07:43:23Z</time>
      </trkpt>
      <trkpt lat="45.988179529085755" lon="6.916319020092487">
        <ele>1779.0599999999999</ele>
        <time>2014-07-15T07:43:35Z</time>
      </trkpt>
      <trkpt lat="45.988107528537512" lon="6.916272332891822">
        <ele>1779.54</ele>
        <time>2014-07-15T07:43:48Z</time>
      </trkpt>
      <trkpt lat="45.98804734647274" lon="6.916241822764278">
        <ele>1780.5</ele>
        <time>2014-07-15T07:43:57Z</time>
      </trkpt>
      <trkpt lat="45.988003592938185" lon="6.916158841922879">
        <ele>1781.9400000000001</ele>
        <time>2014-07-15T07:44:11Z</time>
      </trkpt>
      <trkpt lat="45.987957576289773" lon="6.916130594909191">
        <ele>1784.3399999999999</ele>
        <time>2014-07-15T07:44:25Z</time>
      </trkpt>
      <trkpt lat="45.987875433638692" lon="6.916078124195337">
        <ele>1785.79</ele>
        <time>2014-07-15T07:44:42Z</time>
      </trkpt>
      <trkpt lat="45.987850287929177" lon="6.916006458923221">
        <ele>1789.1500000000001</ele>
        <time>2014-07-15T07:44:54Z</time>
      </trkpt>
      <trkpt lat="45.98780108615756" lon="6.915953485295177">
        <ele>1789.6300000000001</ele>
        <time>2014-07-15T07:45:08Z</time>
      </trkpt>
      <trkpt lat="45.987733276560903" lon="6.915870336815715">
        <ele>1790.5899999999999</ele>
        <time>2014-07-15T07:45:25Z</time>
      </trkpt>
      <trkpt lat="45.987658761441708" lon="6.915743853896856">
        <ele>1792.52</ele>
        <time>2014-07-15T07:45:43Z</time>
      </trkpt>
      <trkpt lat="45.987623557448387" lon="6.915693897753954">
        <ele>1794.4400000000001</ele>
        <time>2014-07-15T07:45:55Z</time>
      </trkpt>
      <trkpt lat="45.987616600468755" lon="6.915609827265143">
        <ele>1796.3599999999999</ele>
        <time>2014-07-15T07:46:08Z</time>
      </trkpt>
      <trkpt lat="45.987601261585951" lon="6.915533049032092">
        <ele>1798.76</ele>
        <time>2014-07-15T07:46:21Z</time>
      </trkpt>
      <trkpt lat="45.987572344020009" lon="6.915473034605384">
        <ele>1800.21</ele>
        <time>2014-07-15T07:46:33Z</time>
      </trkpt>
      <trkpt lat="45.987547701224685" lon="6.915455935522914">
        <ele>1800.21</ele>
        <time>2014-07-15T07:46:48Z</time>
      </trkpt>
      <trkpt lat="45.987509982660413" lon="6.915358286350966">
        <ele>1802.6099999999999</ele>
        <time>2014-07-15T07:47:02Z</time>
      </trkpt>
      <trkpt lat="45.987478299066424" lon="6.915340265259147">
        <ele>1805.01</ele>
        <time>2014-07-15T07:47:12Z</time>
      </trkpt>
      <trkpt lat="45.987427504733205" lon="6.915244543924928">
        <ele>1805.49</ele>
        <time>2014-07-15T07:47:26Z</time>
      </trkpt>
      <trkpt lat="45.98742188885808" lon="6.915205400437117">
        <ele>1805.97</ele>
        <time>2014-07-15T07:47:45Z</time>
      </trkpt>
      <trkpt lat="45.987398838624358" lon="6.915219398215413">
        <ele>1807.4200000000001</ele>
        <time>2014-07-15T07:48:03Z</time>
      </trkpt>
      <trkpt lat="45.987341925501823" lon="6.915168017148972">
        <ele>1808.3800000000001</ele>
        <time>2014-07-15T07:48:18Z</time>
      </trkpt>
      <trkpt lat="45.987273864448071" lon="6.915134573355317">
        <ele>1810.3</ele>
        <time>2014-07-15T07:48:32Z</time>
      </trkpt>
      <trkpt lat="45.987234134227037" lon="6.915075732395053">
        <ele>1811.74</ele>
        <time>2014-07-15T07:48:43Z</time>
      </trkpt>
      <trkpt lat="45.987175377085805" lon="6.915041534230113">
        <ele>1813.6600000000001</ele>
        <time>2014-07-15T07:48:55Z</time>
      </trkpt>
      <trkpt lat="45.987123493105173" lon="6.914985040202737">
        <ele>1815.5899999999999</ele>
        <time>2014-07-15T07:49:09Z</time>
      </trkpt>
      <trkpt lat="45.98708133213222" lon="6.914902059361339">
        <ele>1817.03</ele>
        <time>2014-07-15T07:49:22Z</time>
      </trkpt>
      <trkpt lat="45.987054761499166" lon="6.914859479293227">
        <ele>1817.99</ele>
        <time>2014-07-15T07:49:35Z</time>
      </trkpt>
      <trkpt lat="45.98704713396728" lon="6.91482100635767">
        <ele>1818.95</ele>
        <time>2014-07-15T07:50:01Z</time>
      </trkpt>
      <trkpt lat="45.987033639103174" lon="6.914842212572694">
        <ele>1819.4300000000001</ele>
        <time>2014-07-15T07:50:32Z</time>
      </trkpt>
      <trkpt lat="45.987049229443073" lon="6.914795190095902">
        <ele>1820.3900000000001</ele>
        <time>2014-07-15T07:50:47Z</time>
      </trkpt>
      <trkpt lat="45.987033555284142" lon="6.914722602814436">
        <ele>1822.8</ele>
        <time>2014-07-15T07:51:00Z</time>
      </trkpt>
      <trkpt lat="45.987022155895829" lon="6.914700558409095">
        <ele>1823.28</ele>
        <time>2014-07-15T07:51:03Z</time>
      </trkpt>
      <trkpt lat="45.986996339634061" lon="6.914662001654506">
        <ele>1823.28</ele>
        <time>2014-07-15T07:51:23Z</time>
      </trkpt>
      <trkpt lat="45.986998686566949" lon="6.914626462385058">
        <ele>1823.28</ele>
        <time>2014-07-15T07:51:39Z</time>
      </trkpt>
      <trkpt lat="45.98698066547513" lon="6.914593521505594">
        <ele>1824.24</ele>
        <time>2014-07-15T07:51:57Z</time>
      </trkpt>
      <trkpt lat="45.986909503117204" lon="6.914597377181053">
        <ele>1825.2</ele>
        <time>2014-07-15T07:52:10Z</time>
      </trkpt>
      <trkpt lat="45.986855691298842" lon="6.914547923952341">
        <ele>1826.1600000000001</ele>
        <time>2014-07-15T07:52:22Z</time>
      </trkpt>
      <trkpt lat="45.986776482313871" lon="6.914497464895248">
        <ele>1828.0799999999999</ele>
        <time>2014-07-15T07:52:35Z</time>
      </trkpt>
      <trkpt lat="45.986707918345928" lon="6.914452370256186">
        <ele>1830.49</ele>
        <time>2014-07-15T07:52:51Z</time>
      </trkpt>
      <trkpt lat="45.986660812050104" lon="6.914393110200763">
        <ele>1832.8900000000001</ele>
        <time>2014-07-15T07:53:05Z</time>
      </trkpt>
      <trkpt lat="45.986611610278487" lon="6.914341142401099">
        <ele>1834.8099999999999</ele>
        <time>2014-07-15T07:53:18Z</time>
      </trkpt>
      <trkpt lat="45.98657850176096" lon="6.91426738165319">
        <ele>1837.22</ele>
        <time>2014-07-15T07:53:33Z</time>
      </trkpt>
      <trkpt lat="45.986506165936589" lon="6.914254724979401">
        <ele>1837.22</ele>
        <time>2014-07-15T07:53:46Z</time>
      </trkpt>
      <trkpt lat="45.986415138468146" lon="6.914136959239841">
        <ele>1838.6600000000001</ele>
        <time>2014-07-15T07:54:03Z</time>
      </trkpt>
      <trkpt lat="45.98634347319603" lon="6.914099408313632">
        <ele>1839.6199999999999</ele>
        <time>2014-07-15T07:54:18Z</time>
      </trkpt>
      <trkpt lat="45.986353699117899" lon="6.914116004481912">
        <ele>1839.6199999999999</ele>
        <time>2014-07-15T07:54:37Z</time>
      </trkpt>
      <trkpt lat="45.986325703561306" lon="6.914044423028827">
        <ele>1839.6199999999999</ele>
        <time>2014-07-15T07:54:55Z</time>
      </trkpt>
      <trkpt lat="45.986260240897536" lon="6.913992371410132">
        <ele>1836.26</ele>
        <time>2014-07-15T07:55:08Z</time>
      </trkpt>
      <trkpt lat="45.986242052167654" lon="6.913966974243522">
        <ele>1836.26</ele>
        <time>2014-07-15T07:55:11Z</time>
      </trkpt>
      <trkpt lat="45.986135685816407" lon="6.913910647854209">
        <ele>1833.8499999999999</ele>
        <time>2014-07-15T07:55:25Z</time>
      </trkpt>
      <trkpt lat="45.985992690548301" lon="6.913868319243193">
        <ele>1835.77</ele>
        <time>2014-07-15T07:55:41Z</time>
      </trkpt>
      <trkpt lat="45.985907362774014" lon="6.91377729177475">
        <ele>1838.1800000000001</ele>
        <time>2014-07-15T07:55:55Z</time>
      </trkpt>
      <trkpt lat="45.985841732472181" lon="6.913703279569745">
        <ele>1840.0999999999999</ele>
        <time>2014-07-15T07:56:10Z</time>
      </trkpt>
      <trkpt lat="45.985844414681196" lon="6.913684755563736">
        <ele>1842.02</ele>
        <time>2014-07-15T07:56:22Z</time>
      </trkpt>
      <trkpt lat="45.985927311703563" lon="6.913689281791449">
        <ele>1843.47</ele>
        <time>2014-07-15T07:56:38Z</time>
      </trkpt>
      <trkpt lat="45.985957402735949" lon="6.913662711158395">
        <ele>1845.8699999999999</ele>
        <time>2014-07-15T07:56:54Z</time>
      </trkpt>
      <trkpt lat="45.985881881788373" lon="6.913569420576096">
        <ele>1848.75</ele>
        <time>2014-07-15T07:57:11Z</time>
      </trkpt>
      <trkpt lat="45.985824465751648" lon="6.913440758362413">
        <ele>1851.1600000000001</ele>
        <time>2014-07-15T07:57:28Z</time>
      </trkpt>
      <trkpt lat="45.98579965531826" lon="6.913308827206492">
        <ele>1853.0799999999999</ele>
        <time>2014-07-15T07:57:43Z</time>
      </trkpt>
      <trkpt lat="45.985746681690216" lon="6.913236910477281">
        <ele>1855.48</ele>
        <time>2014-07-15T07:57:58Z</time>
      </trkpt>
      <trkpt lat="45.985715249553323" lon="6.913181925192475">
        <ele>1857.8900000000001</ele>
        <time>2014-07-15T07:58:12Z</time>
      </trkpt>
      <trkpt lat="45.985717177391052" lon="6.913176057860255">
        <ele>1857.8900000000001</ele>
        <time>2014-07-15T07:58:13Z</time>
      </trkpt>
      <trkpt lat="45.98569949157536" lon="6.913138758391142">
        <ele>1859.3299999999999</ele>
        <time>2014-07-15T07:58:27Z</time>
      </trkpt>
      <trkpt lat="45.985677950084209" lon="6.913082012906671">
        <ele>1861.25</ele>
        <time>2014-07-15T07:58:45Z</time>
      </trkpt>
      <trkpt lat="45.985629335045815" lon="6.913000121712685">
        <ele>1862.21</ele>
        <time>2014-07-15T07:59:00Z</time>
      </trkpt>
      <trkpt lat="45.985608799383044" lon="6.913022166118026">
        <ele>1862.21</ele>
        <time>2014-07-15T07:59:15Z</time>
      </trkpt>
      <trkpt lat="45.985524393618107" lon="6.912918398156762">
        <ele>1861.73</ele>
        <time>2014-07-15T07:59:27Z</time>
      </trkpt>
      <trkpt lat="45.985440658405423" lon="6.912894425913692">
        <ele>1862.6900000000001</ele>
        <time>2014-07-15T07:59:42Z</time>
      </trkpt>
      <trkpt lat="45.985401263460517" lon="6.912840195000172">
        <ele>1863.6500000000001</ele>
        <time>2014-07-15T08:00:05Z</time>
      </trkpt>
      <trkpt lat="45.985345020890236" lon="6.912800800055265">
        <ele>1865.5799999999999</ele>
        <time>2014-07-15T08:00:18Z</time>
      </trkpt>
      <trkpt lat="45.985383074730635" lon="6.912746401503682">
        <ele>1867.5</ele>
        <time>2014-07-15T08:00:30Z</time>
      </trkpt>
      <trkpt lat="45.985345607623458" lon="6.912723602727056">
        <ele>1867.98</ele>
        <time>2014-07-15T08:00:42Z</time>
      </trkpt>
      <trkpt lat="45.985339991748333" lon="6.912740031257272">
        <ele>1868.9400000000001</ele>
        <time>2014-07-15T08:01:07Z</time>
      </trkpt>
      <trkpt lat="45.985336219891906" lon="6.912721674889326">
        <ele>1868.46</ele>
        <time>2014-07-15T08:01:31Z</time>
      </trkpt>
      <trkpt lat="45.985297746956348" lon="6.912697115913034">
        <ele>1869.9000000000001</ele>
        <time>2014-07-15T08:01:46Z</time>
      </trkpt>
      <trkpt lat="45.985261537134647" lon="6.912686806172133">
        <ele>1872.3</ele>
        <time>2014-07-15T08:02:03Z</time>
      </trkpt>
      <trkpt lat="45.985250053927302" lon="6.912655290216208">
        <ele>1872.3</ele>
        <time>2014-07-15T08:02:32Z</time>
      </trkpt>
      <trkpt lat="45.985253741964698" lon="6.912604663521051">
        <ele>1875.6700000000001</ele>
        <time>2014-07-15T08:02:48Z</time>
      </trkpt>
      <trkpt lat="45.985248126089573" lon="6.912613967433572">
        <ele>1875.1900000000001</ele>
        <time>2014-07-15T08:03:05Z</time>
      </trkpt>
      <trkpt lat="45.985255837440491" lon="6.912642884999514">
        <ele>1875.6700000000001</ele>
        <time>2014-07-15T08:03:21Z</time>
      </trkpt>
      <trkpt lat="45.98523186519742" lon="6.912639113143086">
        <ele>1876.1500000000001</ele>
        <time>2014-07-15T08:03:40Z</time>
      </trkpt>
      <trkpt lat="45.985240750014782" lon="6.912544397637248">
        <ele>1877.5899999999999</ele>
        <time>2014-07-15T08:03:52Z</time>
      </trkpt>
      <trkpt lat="45.985214430838823" lon="6.912543559446931">
        <ele>1879.51</ele>
        <time>2014-07-15T08:04:05Z</time>
      </trkpt>
      <trkpt lat="45.985191548243165" lon="6.912500644102693">
        <ele>1880.48</ele>
        <time>2014-07-15T08:04:18Z</time>
      </trkpt>
      <trkpt lat="45.985162211582065" lon="6.912445910274983">
        <ele>1880.48</ele>
        <time>2014-07-15T08:04:32Z</time>
      </trkpt>
      <trkpt lat="45.985190458595753" lon="6.912422524765134">
        <ele>1880</ele>
        <time>2014-07-15T08:04:45Z</time>
      </trkpt>
      <trkpt lat="45.985184423625469" lon="6.91239545121789">
        <ele>1880</ele>
        <time>2014-07-15T08:05:13Z</time>
      </trkpt>
      <trkpt lat="45.985171012580395" lon="6.912403833121061">
        <ele>1880.48</ele>
        <time>2014-07-15T08:05:32Z</time>
      </trkpt>
      <trkpt lat="45.985173946246505" lon="6.912380112335086">
        <ele>1880.48</ele>
        <time>2014-07-15T08:05:58Z</time>
      </trkpt>
      <trkpt lat="45.985152153298259" lon="6.912421016022563">
        <ele>1880.96</ele>
        <time>2014-07-15T08:06:31Z</time>
      </trkpt>
      <trkpt lat="45.985117116943002" lon="6.912478432059288">
        <ele>1880.96</ele>
        <time>2014-07-15T08:07:02Z</time>
      </trkpt>
      <trkpt lat="45.985206384211779" lon="6.912457812577486">
        <ele>1881.4400000000001</ele>
        <time>2014-07-15T08:07:31Z</time>
      </trkpt>
      <trkpt lat="45.985132372006774" lon="6.912424955517054">
        <ele>1881.4400000000001</ele>
        <time>2014-07-15T08:08:03Z</time>
      </trkpt>
      <trkpt lat="45.985146202147007" lon="6.912449933588505">
        <ele>1881.9200000000001</ele>
        <time>2014-07-15T08:08:35Z</time>
      </trkpt>
      <trkpt lat="45.985131617635489" lon="6.912465188652277">
        <ele>1881.9200000000001</ele>
        <time>2014-07-15T08:09:01Z</time>
      </trkpt>
      <trkpt lat="45.985153997316957" lon="6.912428643554449">
        <ele>1882.4000000000001</ele>
        <time>2014-07-15T08:09:30Z</time>
      </trkpt>
      <trkpt lat="45.985170174390078" lon="6.912403916940093">
        <ele>1882.4000000000001</ele>
        <time>2014-07-15T08:09:58Z</time>
      </trkpt>
      <trkpt lat="45.985121307894588" lon="6.912432415410876">
        <ele>1882.4000000000001</ele>
        <time>2014-07-15T08:10:31Z</time>
      </trkpt>
      <trkpt lat="45.985125079751015" lon="6.912422524765134">
        <ele>1882.4000000000001</ele>
        <time>2014-07-15T08:11:03Z</time>
      </trkpt>
      <trkpt lat="45.985132036730647" lon="6.912454040721059">
        <ele>1882.4000000000001</ele>
        <time>2014-07-15T08:11:33Z</time>
      </trkpt>
      <trkpt lat="45.985188446938992" lon="6.912350691854954">
        <ele>1882.8800000000001</ele>
        <time>2014-07-15T08:12:08Z</time>
      </trkpt>
      <trkpt lat="45.98519766703248" lon="6.912346081808209">
        <ele>1882.4000000000001</ele>
        <time>2014-07-15T08:12:38Z</time>
      </trkpt>
      <trkpt lat="45.985183836892247" lon="6.912413891404867">
        <ele>1882.4000000000001</ele>
        <time>2014-07-15T08:13:11Z</time>
      </trkpt>
      <trkpt lat="45.985157433897257" lon="6.912412717938423">
        <ele>1882.4000000000001</ele>
        <time>2014-07-15T08:13:38Z</time>
      </trkpt>
      <trkpt lat="45.985135305672884" lon="6.912415567785502">
        <ele>1882.8800000000001</ele>
        <time>2014-07-15T08:14:10Z</time>
      </trkpt>
      <trkpt lat="45.985128600150347" lon="6.912346919998527">
        <ele>1882.8800000000001</ele>
        <time>2014-07-15T08:14:45Z</time>
      </trkpt>
      <trkpt lat="45.985131114721298" lon="6.912349434569478">
        <ele>1882.8800000000001</ele>
        <time>2014-07-15T08:15:23Z</time>
      </trkpt>
      <trkpt lat="45.985176376998425" lon="6.91240718588233">
        <ele>1882.8800000000001</ele>
        <time>2014-07-15T08:15:55Z</time>
      </trkpt>
      <trkpt lat="45.985169503837824" lon="6.912399306893349">
        <ele>1882.8800000000001</ele>
        <time>2014-07-15T08:16:21Z</time>
      </trkpt>
      <trkpt lat="45.985144693404436" lon="6.912381453439593">
        <ele>1883.3599999999999</ele>
        <time>2014-07-15T08:16:49Z</time>
      </trkpt>
      <trkpt lat="45.985105130821466" lon="6.912411125376821">
        <ele>1883.3599999999999</ele>
        <time>2014-07-15T08:17:30Z</time>
      </trkpt>
      <trkpt lat="45.985125079751015" lon="6.912489999085665">
        <ele>1883.3599999999999</ele>
        <time>2014-07-15T08:18:05Z</time>
      </trkpt>
      <trkpt lat="45.985103035345674" lon="6.912519922479987">
        <ele>1883.8399999999999</ele>
        <time>2014-07-15T08:18:37Z</time>
      </trkpt>
      <trkpt lat="45.985100353136659" lon="6.912503158673644">
        <ele>1884.3199999999999</ele>
        <time>2014-07-15T08:19:07Z</time>
      </trkpt>
      <trkpt lat="45.985133461654186" lon="6.91248388029635">
        <ele>1884.8</ele>
        <time>2014-07-15T08:19:24Z</time>
      </trkpt>
      <trkpt lat="45.985147710889578" lon="6.912468625232577">
        <ele>1884.8</ele>
        <time>2014-07-15T08:19:40Z</time>
      </trkpt>
      <trkpt lat="45.985165564343333" lon="6.912450604140759">
        <ele>1884.8</ele>
        <time>2014-07-15T08:19:57Z</time>
      </trkpt>
      <trkpt lat="45.985133880749345" lon="6.912448760122061">
        <ele>1884.8</ele>
        <time>2014-07-15T08:20:17Z</time>
      </trkpt>
      <trkpt lat="45.98513706587255" lon="6.912474660202861">
        <ele>1884.8</ele>
        <time>2014-07-15T08:20:34Z</time>
      </trkpt>
      <trkpt lat="45.985153578221798" lon="6.912435851991177">
        <ele>1884.8</ele>
        <time>2014-07-15T08:20:44Z</time>
      </trkpt>
      <trkpt lat="45.985139748081565" lon="6.912422776222229">
        <ele>1884.8</ele>
        <time>2014-07-15T08:20:56Z</time>
      </trkpt>
      <trkpt lat="45.985147878527641" lon="6.912412466481328">
        <ele>1885.28</ele>
        <time>2014-07-15T08:21:03Z</time>
      </trkpt>
      <trkpt lat="45.985146118327975" lon="6.912427386268973">
        <ele>1883.8399999999999</ele>
        <time>2014-07-15T08:21:16Z</time>
      </trkpt>
      <trkpt lat="45.985145783051848" lon="6.912447502836585">
        <ele>1883.8399999999999</ele>
        <time>2014-07-15T08:21:26Z</time>
      </trkpt>
      <trkpt lat="45.985158439725637" lon="6.912454627454281">
        <ele>1885.28</ele>
        <time>2014-07-15T08:21:37Z</time>
      </trkpt>
      <trkpt lat="45.985133042559028" lon="6.912448508664966">
        <ele>1885.28</ele>
        <time>2014-07-15T08:21:56Z</time>
      </trkpt>
      <trkpt lat="45.985133796930313" lon="6.912439288571477">
        <ele>1885.28</ele>
        <time>2014-07-15T08:22:10Z</time>
      </trkpt>
      <trkpt lat="45.985096581280231" lon="6.912406096234918">
        <ele>1885.28</ele>
        <time>2014-07-15T08:22:28Z</time>
      </trkpt>
      <trkpt lat="45.985063975676894" lon="6.91236955113709">
        <ele>1885.28</ele>
        <time>2014-07-15T08:22:33Z</time>
      </trkpt>
      <trkpt lat="45.985006559640169" lon="6.912313643842936">
        <ele>1884.8</ele>
        <time>2014-07-15T08:22:40Z</time>
      </trkpt>
      <trkpt lat="45.98489323630929" lon="6.91219269298017">
        <ele>1885.76</ele>
        <time>2014-07-15T08:22:57Z</time>
      </trkpt>
      <trkpt lat="45.984850404784083" lon="6.912165619432926">
        <ele>1887.6900000000001</ele>
        <time>2014-07-15T08:23:13Z</time>
      </trkpt>
      <trkpt lat="45.984919890761375" lon="6.912177857011557">
        <ele>1888.1700000000001</ele>
        <time>2014-07-15T08:23:33Z</time>
      </trkpt>
      <trkpt lat="45.984920728951693" lon="6.912133684381843">
        <ele>1889.6099999999999</ele>
        <time>2014-07-15T08:23:37Z</time>
      </trkpt>
      <trkpt lat="45.984916370362043" lon="6.912128822878003">
        <ele>1890.0899999999999</ele>
        <time>2014-07-15T08:23:39Z</time>
      </trkpt>
      <trkpt lat="45.984925087541342" lon="6.912147849798203">
        <ele>1890.0899999999999</ele>
        <time>2014-07-15T08:23:54Z</time>
      </trkpt>
      <trkpt lat="45.985016198828816" lon="6.912102922797203">
        <ele>1890.0899999999999</ele>
        <time>2014-07-15T08:24:15Z</time>
      </trkpt>
      <trkpt lat="45.984995495527983" lon="6.912147598341107">
        <ele>1891.53</ele>
        <time>2014-07-15T08:24:32Z</time>
      </trkpt>
      <trkpt lat="45.984877729788423" lon="6.912153968587518">
        <ele>1894.4200000000001</ele>
        <time>2014-07-15T08:24:47Z</time>
      </trkpt>
      <trkpt lat="45.984887620434165" lon="6.912115328013897">
        <ele>1894.4200000000001</ele>
        <time>2014-07-15T08:25:09Z</time>
      </trkpt>
      <trkpt lat="45.984906395897269" lon="6.912139300256968">
        <ele>1894.4200000000001</ele>
        <time>2014-07-15T08:25:30Z</time>
      </trkpt>
      <trkpt lat="45.984959788620472" lon="6.912100659683347">
        <ele>1894.9000000000001</ele>
        <time>2014-07-15T08:25:54Z</time>
      </trkpt>
      <trkpt lat="45.984734566882253" lon="6.912157740443945">
        <ele>1897.3</ele>
        <time>2014-07-15T08:26:21Z</time>
      </trkpt>
      <trkpt lat="45.984768429771066" lon="6.912108119577169">
        <ele>1897.78</ele>
        <time>2014-07-15T08:26:39Z</time>
      </trkpt>
      <trkpt lat="45.984743451699615" lon="6.912140557542443">
        <ele>1897.3</ele>
        <time>2014-07-15T08:27:05Z</time>
      </trkpt>
      <trkpt lat="45.984763652086258" lon="6.91203385591507">
        <ele>1898.74</ele>
        <time>2014-07-15T08:27:26Z</time>
      </trkpt>
      <trkpt lat="45.984777733683586" lon="6.91195372492075">
        <ele>1902.1099999999999</ele>
        <time>2014-07-15T08:27:39Z</time>
      </trkpt>
      <trkpt lat="45.984815619885921" lon="6.91197669133544">
        <ele>1900.6600000000001</ele>
        <time>2014-07-15T08:28:04Z</time>
      </trkpt>
      <trkpt lat="45.984799023717642" lon="6.911964537575841">
        <ele>1901.6300000000001</ele>
        <time>2014-07-15T08:28:18Z</time>
      </trkpt>
      <trkpt lat="45.984765244647861" lon="6.911999071016908">
        <ele>1903.0699999999999</ele>
        <time>2014-07-15T08:28:28Z</time>
      </trkpt>
      <trkpt lat="45.984698189422488" lon="6.911986414343119">
        <ele>1904.51</ele>
        <time>2014-07-15T08:28:39Z</time>
      </trkpt>
      <trkpt lat="45.984664410352707" lon="6.911984570324421">
        <ele>1904.99</ele>
        <time>2014-07-15T08:28:51Z</time>
      </trkpt>
      <trkpt lat="45.984627949073911" lon="6.912007536739111">
        <ele>1905.95</ele>
        <time>2014-07-15T08:29:04Z</time>
      </trkpt>
      <trkpt lat="45.984624931588769" lon="6.91198356449604">
        <ele>1905.95</ele>
        <time>2014-07-15T08:29:23Z</time>
      </trkpt>
      <trkpt lat="45.98462400957942" lon="6.912006950005889">
        <ele>1905.95</ele>
        <time>2014-07-15T08:29:41Z</time>
      </trkpt>
      <trkpt lat="45.984582267701626" lon="6.911987671628594">
        <ele>1908.8299999999999</ele>
        <time>2014-07-15T08:29:57Z</time>
      </trkpt>
      <trkpt lat="45.984596852213144" lon="6.911926316097379">
        <ele>1909.8</ele>
        <time>2014-07-15T08:30:16Z</time>
      </trkpt>
      <trkpt lat="45.984591068699956" lon="6.911856075748801">
        <ele>1909.3199999999999</ele>
        <time>2014-07-15T08:30:38Z</time>
      </trkpt>
      <trkpt lat="45.984551841393113" lon="6.911839647218585">
        <ele>1912.6800000000001</ele>
        <time>2014-07-15T08:30:54Z</time>
      </trkpt>
      <trkpt lat="45.984549997374415" lon="6.911892872303724">
        <ele>1914.5999999999999</ele>
        <time>2014-07-15T08:31:07Z</time>
      </trkpt>
      <trkpt lat="45.984535999596119" lon="6.911892537027597">
        <ele>1914.1199999999999</ele>
        <time>2014-07-15T08:31:26Z</time>
      </trkpt>
      <trkpt lat="45.984529461711645" lon="6.911889519542456">
        <ele>1915.0799999999999</ele>
        <time>2014-07-15T08:31:51Z</time>
      </trkpt>
      <trkpt lat="45.984536586329341" lon="6.911897230893374">
        <ele>1915.5599999999999</ele>
        <time>2014-07-15T08:32:02Z</time>
      </trkpt>
      <trkpt lat="45.98452577367425" lon="6.911863954737783">
        <ele>1915.5599999999999</ele>
        <time>2014-07-15T08:32:22Z</time>
      </trkpt>
      <trkpt lat="45.984517391771078" lon="6.911859344691038">
        <ele>1917.01</ele>
        <time>2014-07-15T08:32:42Z</time>
      </trkpt>
      <trkpt lat="45.984527701511979" lon="6.911833444610238">
        <ele>1918.45</ele>
        <time>2014-07-15T08:32:55Z</time>
      </trkpt>
      <trkpt lat="45.984522337093949" lon="6.911820871755481">
        <ele>1918.45</ele>
        <time>2014-07-15T08:33:13Z</time>
      </trkpt>
      <trkpt lat="45.984481265768409" lon="6.91183939576149">
        <ele>1919.4100000000001</ele>
        <time>2014-07-15T08:33:29Z</time>
      </trkpt>
      <trkpt lat="45.984479170292616" lon="6.911808801814914">
        <ele>1922.77</ele>
        <time>2014-07-15T08:33:43Z</time>
      </trkpt>
      <trkpt lat="45.984479337930679" lon="6.911796815693378">
        <ele>1921.3299999999999</ele>
        <time>2014-07-15T08:34:01Z</time>
      </trkpt>
      <trkpt lat="45.984422843903303" lon="6.911797905340791">
        <ele>1922.77</ele>
        <time>2014-07-15T08:34:24Z</time>
      </trkpt>
      <trkpt lat="45.984414964914322" lon="6.911850292235613">
        <ele>1924.22</ele>
        <time>2014-07-15T08:34:37Z</time>
      </trkpt>
      <trkpt lat="45.984397865831852" lon="6.91188482567668">
        <ele>1924.7</ele>
        <time>2014-07-15T08:34:56Z</time>
      </trkpt>
      <trkpt lat="45.984369199723005" lon="6.911855489015579">
        <ele>1926.6199999999999</ele>
        <time>2014-07-15T08:35:07Z</time>
      </trkpt>
      <trkpt lat="45.984352855011821" lon="6.911822548136115">
        <ele>1928.54</ele>
        <time>2014-07-15T08:35:18Z</time>
      </trkpt>
      <trkpt lat="45.984335504472256" lon="6.91180762834847">
        <ele>1929.5</ele>
        <time>2014-07-15T08:35:32Z</time>
      </trkpt>
      <trkpt lat="45.984289236366749" lon="6.911790696904063">
        <ele>1932.8699999999999</ele>
        <time>2014-07-15T08:35:44Z</time>
      </trkpt>
      <trkpt lat="45.984279848635197" lon="6.911724396049976">
        <ele>1932.8699999999999</ele>
        <time>2014-07-15T08:35:55Z</time>
      </trkpt>
      <trkpt lat="45.984266102313995" lon="6.911655915901065">
        <ele>1933.8299999999999</ele>
        <time>2014-07-15T08:36:10Z</time>
      </trkpt>
      <trkpt lat="45.984296528622508" lon="6.911658011376858">
        <ele>1935.27</ele>
        <time>2014-07-15T08:36:22Z</time>
      </trkpt>
      <trkpt lat="45.984303569421172" lon="6.911664800718427">
        <ele>1935.27</ele>
        <time>2014-07-15T08:36:45Z</time>
      </trkpt>
      <trkpt lat="45.984297366812825" lon="6.911636050790548">
        <ele>1935.75</ele>
        <time>2014-07-15T08:37:04Z</time>
      </trkpt>
      <trkpt lat="45.984295355156064" lon="6.91166982986033">
        <ele>1935.75</ele>
        <time>2014-07-15T08:37:22Z</time>
      </trkpt>
      <trkpt lat="45.984295774251223" lon="6.911656334996223">
        <ele>1934.79</ele>
        <time>2014-07-15T08:37:37Z</time>
      </trkpt>
      <trkpt lat="45.984291164204478" lon="6.911692880094051">
        <ele>1935.75</ele>
        <time>2014-07-15T08:38:03Z</time>
      </trkpt>
      <trkpt lat="45.984278423711658" lon="6.911750379949808">
        <ele>1934.3099999999999</ele>
        <time>2014-07-15T08:38:18Z</time>
      </trkpt>
      <trkpt lat="45.984299127012491" lon="6.911859177052975">
        <ele>1932.3900000000001</ele>
        <time>2014-07-15T08:38:31Z</time>
      </trkpt>
      <trkpt lat="45.984330223873258" lon="6.911900583654642">
        <ele>1929.5</ele>
        <time>2014-07-15T08:38:45Z</time>
      </trkpt>
      <trkpt lat="45.984308263286948" lon="6.911899242550135">
        <ele>1929.5</ele>
        <time>2014-07-15T08:39:03Z</time>
      </trkpt>
      <trkpt lat="45.984329972416162" lon="6.91187895834446">
        <ele>1929.98</ele>
        <time>2014-07-15T08:39:27Z</time>
      </trkpt>
      <trkpt lat="45.98432494327426" lon="6.911876108497381">
        <ele>1929.98</ele>
        <time>2014-07-15T08:39:54Z</time>
      </trkpt>
      <trkpt lat="45.984336510300636" lon="6.911887340247631">
        <ele>1929.98</ele>
        <time>2014-07-15T08:40:13Z</time>
      </trkpt>
      <trkpt lat="45.984350424259901" lon="6.911917263641954">
        <ele>1930.46</ele>
        <time>2014-07-15T08:40:39Z</time>
      </trkpt>
      <trkpt lat="45.98428881727159" lon="6.911889854818583">
        <ele>1931.4300000000001</ele>
        <time>2014-07-15T08:40:58Z</time>
      </trkpt>
      <trkpt lat="45.984270796179771" lon="6.911818273365498">
        <ele>1932.8699999999999</ele>
        <time>2014-07-15T08:41:06Z</time>
      </trkpt>
      <trkpt lat="45.984267275780439" lon="6.91170260310173">
        <ele>1934.79</ele>
        <time>2014-07-15T08:41:19Z</time>
      </trkpt>
      <trkpt lat="45.984288398176432" lon="6.911641582846642">
        <ele>1936.23</ele>
        <time>2014-07-15T08:41:28Z</time>
      </trkpt>
      <trkpt lat="45.984275657683611" lon="6.911592297255993">
        <ele>1937.6700000000001</ele>
        <time>2014-07-15T08:41:40Z</time>
      </trkpt>
      <trkpt lat="45.984240788966417" lon="6.911582909524441">
        <ele>1940.5599999999999</ele>
        <time>2014-07-15T08:41:48Z</time>
      </trkpt>
      <trkpt lat="45.984232239425182" lon="6.9115384016186">
        <ele>1941.52</ele>
        <time>2014-07-15T08:42:00Z</time>
      </trkpt>
      <trkpt lat="45.984206087887287" lon="6.911492301151156">
        <ele>1943.4400000000001</ele>
        <time>2014-07-15T08:42:13Z</time>
      </trkpt>
      <trkpt lat="45.984190832823515" lon="6.911463970318437">
        <ele>1946.3299999999999</ele>
        <time>2014-07-15T08:42:27Z</time>
      </trkpt>
      <trkpt lat="45.984155125916004" lon="6.911463970318437">
        <ele>1948.25</ele>
        <time>2014-07-15T08:42:41Z</time>
      </trkpt>
      <trkpt lat="45.984130231663585" lon="6.911434549838305">
        <ele>1950.1700000000001</ele>
        <time>2014-07-15T08:42:53Z</time>
      </trkpt>
      <trkpt lat="45.984138026833534" lon="6.911383755505085">
        <ele>1952.0899999999999</ele>
        <time>2014-07-15T08:43:05Z</time>
      </trkpt>
      <trkpt lat="45.984133752062917" lon="6.911362465471029">
        <ele>1953.54</ele>
        <time>2014-07-15T08:43:18Z</time>
      </trkpt>
      <trkpt lat="45.984126795083284" lon="6.911301026120782">
        <ele>1955.9400000000001</ele>
        <time>2014-07-15T08:43:29Z</time>
      </trkpt>
      <trkpt lat="45.984108941629529" lon="6.911274287849665">
        <ele>1957.8599999999999</ele>
        <time>2014-07-15T08:43:41Z</time>
      </trkpt>
      <trkpt lat="45.984080862253904" lon="6.911260290071368">
        <ele>1960.75</ele>
        <time>2014-07-15T08:43:54Z</time>
      </trkpt>
      <trkpt lat="45.98405378870666" lon="6.911216201260686">
        <ele>1963.1500000000001</ele>
        <time>2014-07-15T08:44:09Z</time>
      </trkpt>
      <trkpt lat="45.984034091234207" lon="6.911149397492409">
        <ele>1965.0699999999999</ele>
        <time>2014-07-15T08:44:20Z</time>
      </trkpt>
      <trkpt lat="45.984003581106663" lon="6.911088796332479">
        <ele>1966.03</ele>
        <time>2014-07-15T08:44:30Z</time>
      </trkpt>
      <trkpt lat="45.983977345749736" lon="6.910981172695756">
        <ele>1968.4400000000001</ele>
        <time>2014-07-15T08:44:45Z</time>
      </trkpt>
      <trkpt lat="45.983936106786132" lon="6.910908669233322">
        <ele>1967.96</ele>
        <time>2014-07-15T08:44:53Z</time>
      </trkpt>
      <trkpt lat="45.983886737376451" lon="6.910790484398603">
        <ele>1967.48</ele>
        <time>2014-07-15T08:45:07Z</time>
      </trkpt>
      <trkpt lat="45.98387056030333" lon="6.910745976492763">
        <ele>1969.4000000000001</ele>
        <time>2014-07-15T08:45:19Z</time>
      </trkpt>
      <trkpt lat="45.983871147036552" lon="6.910699708387256">
        <ele>1971.8</ele>
        <time>2014-07-15T08:45:33Z</time>
      </trkpt>
      <trkpt lat="45.983837870880961" lon="6.910711862146854">
        <ele>1972.76</ele>
        <time>2014-07-15T08:45:45Z</time>
      </trkpt>
      <trkpt lat="45.98385346122086" lon="6.91068965010345">
        <ele>1972.76</ele>
        <time>2014-07-15T08:46:07Z</time>
      </trkpt>
      <trkpt lat="45.983811551705003" lon="6.91068772226572">
        <ele>1972.76</ele>
        <time>2014-07-15T08:46:21Z</time>
      </trkpt>
      <trkpt lat="45.983814066275954" lon="6.910698618739843">
        <ele>1972.76</ele>
        <time>2014-07-15T08:46:35Z</time>
      </trkpt>
      <trkpt lat="45.983830913901329" lon="6.910714209079742">
        <ele>1972.76</ele>
        <time>2014-07-15T08:46:51Z</time>
      </trkpt>
      <trkpt lat="45.983762852847576" lon="6.910635838285089">
        <ele>1972.76</ele>
        <time>2014-07-15T08:47:05Z</time>
      </trkpt>
      <trkpt lat="45.983661683276296" lon="6.91052008420229">
        <ele>1972.28</ele>
        <time>2014-07-15T08:47:17Z</time>
      </trkpt>
      <trkpt lat="45.983533272519708" lon="6.910369964316487">
        <ele>1972.28</ele>
        <time>2014-07-15T08:47:34Z</time>
      </trkpt>
      <trkpt lat="45.983509970828891" lon="6.91029435954988">
        <ele>1973.72</ele>
        <time>2014-07-15T08:47:49Z</time>
      </trkpt>
      <trkpt lat="45.983503684401512" lon="6.910298885777593">
        <ele>1974.2</ele>
        <time>2014-07-15T08:48:00Z</time>
      </trkpt>
      <trkpt lat="45.983484573662281" lon="6.910295365378261">
        <ele>1974.6900000000001</ele>
        <time>2014-07-15T08:48:20Z</time>
      </trkpt>
      <trkpt lat="45.983443921431899" lon="6.910231746733189">
        <ele>1976.1300000000001</ele>
        <time>2014-07-15T08:48:29Z</time>
      </trkpt>
      <trkpt lat="45.983397737145424" lon="6.910175923258066">
        <ele>1977.0899999999999</ele>
        <time>2014-07-15T08:48:36Z</time>
      </trkpt>
      <trkpt lat="45.983318276703358" lon="6.910085901618004">
        <ele>1978.05</ele>
        <time>2014-07-15T08:48:49Z</time>
      </trkpt>
      <trkpt lat="45.983229679986835" lon="6.909958831965923">
        <ele>1979.01</ele>
        <time>2014-07-15T08:49:04Z</time>
      </trkpt>
      <trkpt lat="45.983230182901025" lon="6.909921951591969">
        <ele>1980.9300000000001</ele>
        <time>2014-07-15T08:49:10Z</time>
      </trkpt>
      <trkpt lat="45.983217693865299" lon="6.909834276884794">
        <ele>1982.8599999999999</ele>
        <time>2014-07-15T08:49:24Z</time>
      </trkpt>
      <trkpt lat="45.98316446878016" lon="6.909736124798656">
        <ele>1984.78</ele>
        <time>2014-07-15T08:49:38Z</time>
      </trkpt>
      <trkpt lat="45.983124068006873" lon="6.909673595800996">
        <ele>1986.22</ele>
        <time>2014-07-15T08:49:49Z</time>
      </trkpt>
      <trkpt lat="45.98305257037282" lon="6.909611485898495">
        <ele>1986.7</ele>
        <time>2014-07-15T08:50:01Z</time>
      </trkpt>
      <trkpt lat="45.983010409399867" lon="6.909583071246743">
        <ele>1987.1800000000001</ele>
        <time>2014-07-15T08:50:13Z</time>
      </trkpt>
      <trkpt lat="45.98298467695713" lon="6.909528756514192">
        <ele>1989.0999999999999</ele>
        <time>2014-07-15T08:50:28Z</time>
      </trkpt>
      <trkpt lat="45.982959363609552" lon="6.909488774836063">
        <ele>1991.03</ele>
        <time>2014-07-15T08:50:40Z</time>
      </trkpt>
      <trkpt lat="45.982954083010554" lon="6.9094368070364">
        <ele>1992.47</ele>
        <time>2014-07-15T08:50:52Z</time>
      </trkpt>
      <trkpt lat="45.982934553176165" lon="6.909365309402347">
        <ele>1993.9100000000001</ele>
        <time>2014-07-15T08:51:07Z</time>
      </trkpt>
      <trkpt lat="45.982914436608553" lon="6.90934837795794">
        <ele>1995.3499999999999</ele>
        <time>2014-07-15T08:51:22Z</time>
      </trkpt>
      <trkpt lat="45.982900857925415" lon="6.909324657171965">
        <ele>1996.3199999999999</ele>
        <time>2014-07-15T08:51:34Z</time>
      </trkpt>
      <trkpt lat="45.982885602861643" lon="6.90927947871387">
        <ele>1998.24</ele>
        <time>2014-07-15T08:51:49Z</time>
      </trkpt>
      <trkpt lat="45.982868755236268" lon="6.909279897809029">
        <ele>1999.2</ele>
        <time>2014-07-15T08:52:02Z</time>
      </trkpt>
      <trkpt lat="45.98283564671874" lon="6.909265564754605">
        <ele>2001.1199999999999</ele>
        <time>2014-07-15T08:52:17Z</time>
      </trkpt>
      <trkpt lat="45.982838748022914" lon="6.909211501479149">
        <ele>2002.0799999999999</ele>
        <time>2014-07-15T08:52:29Z</time>
      </trkpt>
      <trkpt lat="45.982820726931095" lon="6.909196497872472">
        <ele>2003.52</ele>
        <time>2014-07-15T08:52:44Z</time>
      </trkpt>
      <trkpt lat="45.982821900397539" lon="6.909200772643089">
        <ele>2005.9300000000001</ele>
        <time>2014-07-15T08:52:59Z</time>
      </trkpt>
      <trkpt lat="45.982830366119742" lon="6.909240754321218">
        <ele>2005.9300000000001</ele>
        <time>2014-07-15T08:53:24Z</time>
      </trkpt>
      <trkpt lat="45.982807651162148" lon="6.909252740442753">
        <ele>2005.9300000000001</ele>
        <time>2014-07-15T08:53:44Z</time>
      </trkpt>
      <trkpt lat="45.98281410522759" lon="6.909263217821717">
        <ele>2005.9300000000001</ele>
        <time>2014-07-15T08:54:04Z</time>
      </trkpt>
      <trkpt lat="45.982777308672667" lon="6.909268917515874">
        <ele>2007.8499999999999</ele>
        <time>2014-07-15T08:54:24Z</time>
      </trkpt>
      <trkpt lat="45.982804801315069" lon="6.90916808322072">
        <ele>2011.22</ele>
        <time>2014-07-15T08:54:35Z</time>
      </trkpt>
      <trkpt lat="45.982850147411227" lon="6.909120976924896">
        <ele>2013.1400000000001</ele>
        <time>2014-07-15T08:54:50Z</time>
      </trkpt>
      <trkpt lat="45.982844196259975" lon="6.909142266958952">
        <ele>2013.1400000000001</ele>
        <time>2014-07-15T08:55:07Z</time>
      </trkpt>
      <trkpt lat="45.982850482687354" lon="6.909129107370973">
        <ele>2013.1400000000001</ele>
        <time>2014-07-15T08:55:19Z</time>
      </trkpt>
      <trkpt lat="45.982854422181845" lon="6.909135142341256">
        <ele>2013.1400000000001</ele>
        <time>2014-07-15T08:55:34Z</time>
      </trkpt>
      <trkpt lat="45.982854338362813" lon="6.90914168022573">
        <ele>2014.0999999999999</ele>
        <time>2014-07-15T08:55:56Z</time>
      </trkpt>
      <trkpt lat="45.982819553464651" lon="6.909120138734579">
        <ele>2013.6199999999999</ele>
        <time>2014-07-15T08:56:15Z</time>
      </trkpt>
      <trkpt lat="45.982771441340446" lon="6.909115361049771">
        <ele>2015.0599999999999</ele>
        <time>2014-07-15T08:56:30Z</time>
      </trkpt>
      <trkpt lat="45.982749983668327" lon="6.909084264189005">
        <ele>2016.5</ele>
        <time>2014-07-15T08:56:44Z</time>
      </trkpt>
      <trkpt lat="45.982760041952133" lon="6.909048305824399">
        <ele>2017.46</ele>
        <time>2014-07-15T08:57:02Z</time>
      </trkpt>
      <trkpt lat="45.982767920941114" lon="6.909069260582328">
        <ele>2018.9100000000001</ele>
        <time>2014-07-15T08:57:15Z</time>
      </trkpt>
      <trkpt lat="45.982724502682686" lon="6.909136567264795">
        <ele>2019.3900000000001</ele>
        <time>2014-07-15T08:57:34Z</time>
      </trkpt>
      <trkpt lat="45.982604054734111" lon="6.909227762371302">
        <ele>2019.3900000000001</ele>
        <time>2014-07-15T08:57:52Z</time>
      </trkpt>
      <trkpt lat="45.982579747214913" lon="6.909187696874142">
        <ele>2020.8299999999999</ele>
        <time>2014-07-15T08:58:08Z</time>
      </trkpt>
      <trkpt lat="45.982672199606895" lon="6.909056603908539">
        <ele>2022.75</ele>
        <time>2014-07-15T08:58:25Z</time>
      </trkpt>
      <trkpt lat="45.982734309509397" lon="6.908970689401031">
        <ele>2025.1500000000001</ele>
        <time>2014-07-15T08:58:38Z</time>
      </trkpt>
      <trkpt lat="45.98272860981524" lon="6.908952752128243">
        <ele>2025.6400000000001</ele>
        <time>2014-07-15T08:58:53Z</time>
      </trkpt>
      <trkpt lat="45.982740260660648" lon="6.908948644995689">
        <ele>2025.6400000000001</ele>
        <time>2014-07-15T08:59:10Z</time>
      </trkpt>
      <trkpt lat="45.982743194326758" lon="6.908947806805372">
        <ele>2026.1199999999999</ele>
        <time>2014-07-15T08:59:23Z</time>
      </trkpt>
      <trkpt lat="45.982743361964822" lon="6.908956440165639">
        <ele>2026.1199999999999</ele>
        <time>2014-07-15T08:59:45Z</time>
      </trkpt>
      <trkpt lat="45.982756102457643" lon="6.908911764621735">
        <ele>2028.52</ele>
        <time>2014-07-15T09:00:03Z</time>
      </trkpt>
      <trkpt lat="45.982801783829927" lon="6.908920481801033">
        <ele>2029.96</ele>
        <time>2014-07-15T09:00:16Z</time>
      </trkpt>
      <trkpt lat="45.982754677534103" lon="6.90885778516531">
        <ele>2032.3599999999999</ele>
        <time>2014-07-15T09:00:29Z</time>
      </trkpt>
      <trkpt lat="45.98275107331574" lon="6.908841859549284">
        <ele>2033.8099999999999</ele>
        <time>2014-07-15T09:00:35Z</time>
      </trkpt>
      <trkpt lat="45.982824750244617" lon="6.90883188508451">
        <ele>2035.25</ele>
        <time>2014-07-15T09:00:49Z</time>
      </trkpt>
      <trkpt lat="45.982846962288022" lon="6.908825933933258">
        <ele>2035.25</ele>
        <time>2014-07-15T09:01:03Z</time>
      </trkpt>
      <trkpt lat="45.982854086905718" lon="6.908856611698866">
        <ele>2036.21</ele>
        <time>2014-07-15T09:01:20Z</time>
      </trkpt>
      <trkpt lat="45.982853332534432" lon="6.908813612535596">
        <ele>2036.21</ele>
        <time>2014-07-15T09:01:38Z</time>
      </trkpt>
      <trkpt lat="45.982875293120742" lon="6.908796429634094">
        <ele>2035.73</ele>
        <time>2014-07-15T09:01:53Z</time>
      </trkpt>
      <trkpt lat="45.982867414131761" lon="6.908845799043775">
        <ele>2036.21</ele>
        <time>2014-07-15T09:02:09Z</time>
      </trkpt>
      <trkpt lat="45.982893146574497" lon="6.908809756860137">
        <ele>2037.6500000000001</ele>
        <time>2014-07-15T09:02:28Z</time>
      </trkpt>
      <trkpt lat="45.9829431027174" lon="6.908778408542275">
        <ele>2040.54</ele>
        <time>2014-07-15T09:02:42Z</time>
      </trkpt>
      <trkpt lat="45.982899935916066" lon="6.908687464892864">
        <ele>2042.9400000000001</ele>
        <time>2014-07-15T09:02:57Z</time>
      </trkpt>
      <trkpt lat="45.982848638668656" lon="6.908643376082182">
        <ele>2044.3800000000001</ele>
        <time>2014-07-15T09:03:09Z</time>
      </trkpt>
      <trkpt lat="45.982787702232599" lon="6.908610602840781">
        <ele>2045.8199999999999</ele>
        <time>2014-07-15T09:03:21Z</time>
      </trkpt>
      <trkpt lat="45.982719892635942" lon="6.908601047471166">
        <ele>2047.75</ele>
        <time>2014-07-15T09:03:35Z</time>
      </trkpt>
      <trkpt lat="45.982663901522756" lon="6.908619739115238">
        <ele>2049.6700000000001</ele>
        <time>2014-07-15T09:03:48Z</time>
      </trkpt>
      <trkpt lat="45.982656525447965" lon="6.908653602004051">
        <ele>2051.5900000000001</ele>
        <time>2014-07-15T09:04:01Z</time>
      </trkpt>
      <trkpt lat="45.982659040018916" lon="6.908618900924921">
        <ele>2051.1100000000001</ele>
        <time>2014-07-15T09:04:22Z</time>
      </trkpt>
      <trkpt lat="45.982594164088368" lon="6.908603310585022">
        <ele>2051.5900000000001</ele>
        <time>2014-07-15T09:04:35Z</time>
      </trkpt>
      <trkpt lat="45.982555355876684" lon="6.908561987802386">
        <ele>2053.5100000000002</ele>
        <time>2014-07-15T09:04:46Z</time>
      </trkpt>
      <trkpt lat="45.982543537393212" lon="6.908521754667163">
        <ele>2054.96</ele>
        <time>2014-07-15T09:04:59Z</time>
      </trkpt>
      <trkpt lat="45.982481176033616" lon="6.908550504595041">
        <ele>2056.8800000000001</ele>
        <time>2014-07-15T09:05:13Z</time>
      </trkpt>
      <trkpt lat="45.982445301488042" lon="6.908522676676512">
        <ele>2058.8000000000002</ele>
        <time>2014-07-15T09:05:26Z</time>
      </trkpt>
      <trkpt lat="45.982351675629616" lon="6.908615548163652">
        <ele>2060.7199999999998</ele>
        <time>2014-07-15T09:05:42Z</time>
      </trkpt>
      <trkpt lat="45.982346143573523" lon="6.908616051077843">
        <ele>2060.7199999999998</ele>
        <time>2014-07-15T09:05:43Z</time>
      </trkpt>
      <trkpt lat="45.98231814801693" lon="6.908572549000382">
        <ele>2063.1300000000001</ele>
        <time>2014-07-15T09:05:58Z</time>
      </trkpt>
      <trkpt lat="45.982330804690719" lon="6.908550588414073">
        <ele>2063.6100000000001</ele>
        <time>2014-07-15T09:06:01Z</time>
      </trkpt>
      <trkpt lat="45.982365170493722" lon="6.908473977819085">
        <ele>2066.0100000000002</ele>
        <time>2014-07-15T09:06:14Z</time>
      </trkpt>
      <trkpt lat="45.982359470799565" lon="6.908403737470508">
        <ele>2067.9299999999998</ele>
        <time>2014-07-15T09:06:27Z</time>
      </trkpt>
      <trkpt lat="45.982331559062004" lon="6.908363336697221">
        <ele>2070.3400000000001</ele>
        <time>2014-07-15T09:06:40Z</time>
      </trkpt>
      <trkpt lat="45.982375480234623" lon="6.908305501565337">
        <ele>2071.7800000000002</ele>
        <time>2014-07-15T09:06:52Z</time>
      </trkpt>
      <trkpt lat="45.982437338680029" lon="6.908234003931284">
        <ele>2073.6999999999998</ele>
        <time>2014-07-15T09:07:04Z</time>
      </trkpt>
      <trkpt lat="45.982511015608907" lon="6.908205924555659">
        <ele>2075.6199999999999</ele>
        <time>2014-07-15T09:07:18Z</time>
      </trkpt>
      <trkpt lat="45.982499029487371" lon="6.908155465498567">
        <ele>2077.5500000000002</ele>
        <time>2014-07-15T09:07:32Z</time>
      </trkpt>
      <trkpt lat="45.982427950948477" lon="6.908095953986049">
        <ele>2079.4699999999998</ele>
        <time>2014-07-15T09:07:47Z</time>
      </trkpt>
      <trkpt lat="45.98242174834013" lon="6.908070053905249">
        <ele>2079.9499999999998</ele>
        <time>2014-07-15T09:07:50Z</time>
      </trkpt>
      <trkpt lat="45.98240121267736" lon="6.907989336177707">
        <ele>2082.3499999999999</ele>
        <time>2014-07-15T09:08:07Z</time>
      </trkpt>
      <trkpt lat="45.98244521766901" lon="6.907974248751998">
        <ele>2084.2800000000002</ele>
        <time>2014-07-15T09:08:22Z</time>
      </trkpt>
      <trkpt lat="45.982460137456656" lon="6.90793233923614">
        <ele>2086.6799999999998</ele>
        <time>2014-07-15T09:08:36Z</time>
      </trkpt>
      <trkpt lat="45.982485115528107" lon="6.90796704031527">
        <ele>2087.1599999999999</ele>
        <time>2014-07-15T09:08:52Z</time>
      </trkpt>
      <trkpt lat="45.982485534623265" lon="6.907969890162349">
        <ele>2087.6399999999999</ele>
        <time>2014-07-15T09:09:03Z</time>
      </trkpt>
      <trkpt lat="45.982447983697057" lon="6.907882550731301">
        <ele>2086.6799999999998</ele>
        <time>2014-07-15T09:09:18Z</time>
      </trkpt>
      <trkpt lat="45.982443708926439" lon="6.907876431941986">
        <ele>2086.6799999999998</ele>
        <time>2014-07-15T09:09:19Z</time>
      </trkpt>
      <trkpt lat="45.982449157163501" lon="6.907850112766028">
        <ele>2089.5599999999999</ele>
        <time>2014-07-15T09:09:23Z</time>
      </trkpt>
      <trkpt lat="45.982489306479692" lon="6.907859668135643">
        <ele>2091.4899999999998</ele>
        <time>2014-07-15T09:09:38Z</time>
      </trkpt>
      <trkpt lat="45.982473129406571" lon="6.90782630816102">
        <ele>2091.4899999999998</ele>
        <time>2014-07-15T09:10:04Z</time>
      </trkpt>
      <trkpt lat="45.982429962605238" lon="6.907759923487902">
        <ele>2093.4099999999999</ele>
        <time>2014-07-15T09:10:24Z</time>
      </trkpt>
      <trkpt lat="45.982457036152482" lon="6.907718181610107">
        <ele>2096.29</ele>
        <time>2014-07-15T09:10:38Z</time>
      </trkpt>
      <trkpt lat="45.98249701783061" lon="6.907708710059524">
        <ele>2098.21</ele>
        <time>2014-07-15T09:10:53Z</time>
      </trkpt>
      <trkpt lat="45.982472207397223" lon="6.907626651227474">
        <ele>2100.6199999999999</ele>
        <time>2014-07-15T09:11:05Z</time>
      </trkpt>
      <trkpt lat="45.982527192682028" lon="6.90760443918407">
        <ele>2103.5</ele>
        <time>2014-07-15T09:11:19Z</time>
      </trkpt>
      <trkpt lat="45.982472291216254" lon="6.907507544383407">
        <ele>2105.9099999999999</ele>
        <time>2014-07-15T09:11:34Z</time>
      </trkpt>
      <trkpt lat="45.982414120808244" lon="6.907372428104281">
        <ele>2109.27</ele>
        <time>2014-07-15T09:11:51Z</time>
      </trkpt>
      <trkpt lat="45.98239098675549" lon="6.907264720648527">
        <ele>2111.1900000000001</ele>
        <time>2014-07-15T09:12:05Z</time>
      </trkpt>
      <trkpt lat="45.982464160770178" lon="6.907302942126989">
        <ele>2113.1199999999999</ele>
        <time>2014-07-15T09:12:17Z</time>
      </trkpt>
      <trkpt lat="45.982515206560493" lon="6.90727167762816">
        <ele>2115.52</ele>
        <time>2014-07-15T09:12:29Z</time>
      </trkpt>
      <trkpt lat="45.982536664232612" lon="6.907152151688933">
        <ele>2116.96</ele>
        <time>2014-07-15T09:12:43Z</time>
      </trkpt>
      <trkpt lat="45.982513697817922" lon="6.907113762572408">
        <ele>2118.8800000000001</ele>
        <time>2014-07-15T09:12:55Z</time>
      </trkpt>
      <trkpt lat="45.982503639534116" lon="6.907031955197454">
        <ele>2120.8099999999999</ele>
        <time>2014-07-15T09:13:07Z</time>
      </trkpt>
      <trkpt lat="45.982447816058993" lon="6.906978394836187">
        <ele>2123.6900000000001</ele>
        <time>2014-07-15T09:13:21Z</time>
      </trkpt>
      <trkpt lat="45.982429459691048" lon="6.906888792291284">
        <ele>2126.0900000000001</ele>
        <time>2014-07-15T09:13:34Z</time>
      </trkpt>
      <trkpt lat="45.982387466356158" lon="6.906805643811822">
        <ele>2128.5</ele>
        <time>2014-07-15T09:13:46Z</time>
      </trkpt>
      <trkpt lat="45.982461981475353" lon="6.906771194189787">
        <ele>2130.4200000000001</ele>
        <time>2014-07-15T09:14:00Z</time>
      </trkpt>
      <trkpt lat="45.982489725574851" lon="6.906719310209155">
        <ele>2131.8600000000001</ele>
        <time>2014-07-15T09:14:06Z</time>
      </trkpt>
      <trkpt lat="45.982496850192547" lon="6.906638676300645">
        <ele>2134.2600000000002</ele>
        <time>2014-07-15T09:14:18Z</time>
      </trkpt>
      <trkpt lat="45.982443206012249" lon="6.90661353059113">
        <ele>2135.71</ele>
        <time>2014-07-15T09:14:31Z</time>
      </trkpt>
      <trkpt lat="45.982449324801564" lon="6.906571369618177">
        <ele>2136.6700000000001</ele>
        <time>2014-07-15T09:14:42Z</time>
      </trkpt>
      <trkpt lat="45.982502968981862" lon="6.906535997986794">
        <ele>2138.1100000000001</ele>
        <time>2014-07-15T09:14:56Z</time>
      </trkpt>
      <trkpt lat="45.982562145218253" lon="6.906455028802156">
        <ele>2140.5100000000002</ele>
        <time>2014-07-15T09:15:10Z</time>
      </trkpt>
      <trkpt lat="45.98257027566433" lon="6.90642443485558">
        <ele>2140.9899999999998</ele>
        <time>2014-07-15T09:15:15Z</time>
      </trkpt>
      <trkpt lat="45.982561726123095" lon="6.906420243903995">
        <ele>2139.5500000000002</ele>
        <time>2014-07-15T09:15:19Z</time>
      </trkpt>
      <trkpt lat="45.982566084712744" lon="6.906417813152075">
        <ele>2140.0300000000002</ele>
        <time>2014-07-15T09:15:31Z</time>
      </trkpt>
      <trkpt lat="45.982561558485031" lon="6.906403228640556">
        <ele>2140.5100000000002</ele>
        <time>2014-07-15T09:15:44Z</time>
      </trkpt>
      <trkpt lat="45.982572957873344" lon="6.906417645514011">
        <ele>2140.0300000000002</ele>
        <time>2014-07-15T09:16:02Z</time>
      </trkpt>
      <trkpt lat="45.982578825205564" lon="6.906420914456248">
        <ele>2140.0300000000002</ele>
        <time>2014-07-15T09:16:29Z</time>
      </trkpt>
      <trkpt lat="45.982566839084029" lon="6.906458716839552">
        <ele>2140.0300000000002</ele>
        <time>2014-07-15T09:16:57Z</time>
      </trkpt>
      <trkpt lat="45.982568096369505" lon="6.906463829800487">
        <ele>2140.0300000000002</ele>
        <time>2014-07-15T09:17:25Z</time>
      </trkpt>
      <trkpt lat="45.982573041692376" lon="6.906451173126698">
        <ele>2140.0300000000002</ele>
        <time>2014-07-15T09:18:05Z</time>
      </trkpt>
      <trkpt lat="45.982563570141792" lon="6.906460141763091">
        <ele>2140.5100000000002</ele>
        <time>2014-07-15T09:18:38Z</time>
      </trkpt>
      <trkpt lat="45.982568180188537" lon="6.906444216147065">
        <ele>2140.5100000000002</ele>
        <time>2014-07-15T09:19:15Z</time>
      </trkpt>
      <trkpt lat="45.982572874054313" lon="6.906450083479285">
        <ele>2140.5100000000002</ele>
        <time>2014-07-15T09:20:00Z</time>
      </trkpt>
      <trkpt lat="45.982571197673678" lon="6.906455447897315">
        <ele>2140.5100000000002</ele>
        <time>2014-07-15T09:20:36Z</time>
      </trkpt>
      <trkpt lat="45.982577232643962" lon="6.906451256945729">
        <ele>2140.5100000000002</ele>
        <time>2014-07-15T09:21:08Z</time>
      </trkpt>
      <trkpt lat="45.982569688931108" lon="6.906424099579454">
        <ele>2140.0300000000002</ele>
        <time>2014-07-15T09:21:22Z</time>
      </trkpt>
      <trkpt lat="45.98256784491241" lon="6.906424099579454">
        <ele>2140.5100000000002</ele>
        <time>2014-07-15T09:21:45Z</time>
      </trkpt>
      <trkpt lat="45.982567593455315" lon="6.906411778181791">
        <ele>2135.71</ele>
        <time>2014-07-15T09:22:01Z</time>
      </trkpt>
      <trkpt lat="45.982566839084029" lon="6.906411526724696">
        <ele>2135.71</ele>
        <time>2014-07-15T09:22:03Z</time>
      </trkpt>
      <trkpt lat="45.982566671445966" lon="6.906408341601491">
        <ele>2140.5100000000002</ele>
        <time>2014-07-15T09:22:17Z</time>
      </trkpt>
      <trkpt lat="45.982566419988871" lon="6.906407671049237">
        <ele>2140.5100000000002</ele>
        <time>2014-07-15T09:22:18Z</time>
      </trkpt>
      <trkpt lat="45.98257128149271" lon="6.906406497582793">
        <ele>2140.9899999999998</ele>
        <time>2014-07-15T09:22:25Z</time>
      </trkpt>
      <trkpt lat="45.982569772750139" lon="6.906403647735715">
        <ele>2140.9899999999998</ele>
        <time>2014-07-15T09:22:48Z</time>
      </trkpt>
      <trkpt lat="45.982587290927768" lon="6.906428374350071">
        <ele>2140.9899999999998</ele>
        <time>2014-07-15T09:23:05Z</time>
      </trkpt>
      <trkpt lat="45.982582094147801" lon="6.906451843678951">
        <ele>2140.9899999999998</ele>
        <time>2014-07-15T09:23:49Z</time>
      </trkpt>
      <trkpt lat="45.982572287321091" lon="6.906440779566765">
        <ele>2141.4699999999998</ele>
        <time>2014-07-15T09:24:27Z</time>
      </trkpt>
      <trkpt lat="45.982572874054313" lon="6.906447485089302">
        <ele>2141.4699999999998</ele>
        <time>2014-07-15T09:25:18Z</time>
      </trkpt>
      <trkpt lat="45.982575304806232" lon="6.906442455947399">
        <ele>2141.4699999999998</ele>
        <time>2014-07-15T09:26:01Z</time>
      </trkpt>
      <trkpt lat="45.982575472444296" lon="6.906445641070604">
        <ele>2141.4699999999998</ele>
        <time>2014-07-15T09:26:49Z</time>
      </trkpt>
      <trkpt lat="45.982571113854647" lon="6.906451676040888">
        <ele>2141.9499999999998</ele>
        <time>2014-07-15T09:27:40Z</time>
      </trkpt>
      <trkpt lat="45.982575053349137" lon="6.906439773738384">
        <ele>2141.9499999999998</ele>
        <time>2014-07-15T09:28:22Z</time>
      </trkpt>
      <trkpt lat="45.982580250129104" lon="6.906437510624528">
        <ele>2141.9499999999998</ele>
        <time>2014-07-15T09:28:28Z</time>
      </trkpt>
      <trkpt lat="45.982555691152811" lon="6.906413957476616">
        <ele>2142.4400000000001</ele>
        <time>2014-07-15T09:28:46Z</time>
      </trkpt>
      <trkpt lat="45.982571030035615" lon="6.906443545594811">
        <ele>2141.9499999999998</ele>
        <time>2014-07-15T09:29:10Z</time>
      </trkpt>
      <trkpt lat="45.982570359483361" lon="6.906456705182791">
        <ele>2141.9499999999998</ele>
        <time>2014-07-15T09:30:01Z</time>
      </trkpt>
      <trkpt lat="45.982568096369505" lon="6.906451676040888">
        <ele>2141.4699999999998</ele>
        <time>2014-07-15T09:30:46Z</time>
      </trkpt>
      <trkpt lat="45.982563989236951" lon="6.906447904184461">
        <ele>2141.4699999999998</ele>
        <time>2014-07-15T09:31:34Z</time>
      </trkpt>
      <trkpt lat="45.982572119683027" lon="6.906458046287298">
        <ele>2141.9499999999998</ele>
        <time>2014-07-15T09:32:23Z</time>
      </trkpt>
      <trkpt lat="45.982573041692376" lon="6.906470200046897">
        <ele>2141.9499999999998</ele>
        <time>2014-07-15T09:33:16Z</time>
      </trkpt>
      <trkpt lat="45.982567258179188" lon="6.906458716839552">
        <ele>2141.9499999999998</ele>
        <time>2014-07-15T09:34:13Z</time>
      </trkpt>
      <trkpt lat="45.982571868225932" lon="6.90646106377244">
        <ele>2141.9499999999998</ele>
        <time>2014-07-15T09:35:01Z</time>
      </trkpt>
      <trkpt lat="45.982566168531775" lon="6.906452095136046">
        <ele>2141.4699999999998</ele>
        <time>2014-07-15T09:35:45Z</time>
      </trkpt>
      <trkpt lat="45.982568515464664" lon="6.90644882619381">
        <ele>2141.9499999999998</ele>
        <time>2014-07-15T09:36:31Z</time>
      </trkpt>
      <trkpt lat="45.982571532949805" lon="6.906453017145395">
        <ele>2141.9499999999998</ele>
        <time>2014-07-15T09:37:19Z</time>
      </trkpt>
      <trkpt lat="45.982566587626934" lon="6.906440947204828">
        <ele>2142.4400000000001</ele>
        <time>2014-07-15T09:37:57Z</time>
      </trkpt>
      <trkpt lat="45.982566839084029" lon="6.906433403491974">
        <ele>2142.4400000000001</ele>
        <time>2014-07-15T09:38:17Z</time>
      </trkpt>
      <trkpt lat="45.982572957873344" lon="6.906443294137716">
        <ele>2142.4400000000001</ele>
        <time>2014-07-15T09:38:47Z</time>
      </trkpt>
      <trkpt lat="45.982569940388203" lon="6.906431810930371">
        <ele>2142.4400000000001</ele>
        <time>2014-07-15T09:39:28Z</time>
      </trkpt>
      <trkpt lat="45.982561893761158" lon="6.906428206712008">
        <ele>2142.4400000000001</ele>
        <time>2014-07-15T09:39:36Z</time>
      </trkpt>
      <trkpt lat="45.982575556263328" lon="6.906462237238884">
        <ele>2142.9200000000001</ele>
        <time>2014-07-15T09:39:46Z</time>
      </trkpt>
      <trkpt lat="45.982571197673678" lon="6.906463662162423">
        <ele>2142.9200000000001</ele>
        <time>2014-07-15T09:40:08Z</time>
      </trkpt>
      <trkpt lat="45.982529455795884" lon="6.90641563385725">
        <ele>2141.9499999999998</ele>
        <time>2014-07-15T09:40:25Z</time>
      </trkpt>
      <trkpt lat="45.982519146054983" lon="6.906420243903995">
        <ele>2141.4699999999998</ele>
        <time>2014-07-15T09:40:27Z</time>
      </trkpt>
      <trkpt lat="45.982485534623265" lon="6.906417477875948">
        <ele>2140.9899999999998</ele>
        <time>2014-07-15T09:40:39Z</time>
      </trkpt>
      <trkpt lat="45.982441697269678" lon="6.90640683285892">
        <ele>2141.4699999999998</ele>
        <time>2014-07-15T09:40:56Z</time>
      </trkpt>
      <trkpt lat="45.982414036989212" lon="6.906325025483966">
        <ele>2142.9200000000001</ele>
        <time>2014-07-15T09:41:14Z</time>
      </trkpt>
      <trkpt lat="45.982364332303405" lon="6.906186807900667">
        <ele>2144.8400000000001</ele>
        <time>2014-07-15T09:41:33Z</time>
      </trkpt>
      <trkpt lat="45.982364835217595" lon="6.906170379370451">
        <ele>2144.3600000000001</ele>
        <time>2014-07-15T09:41:53Z</time>
      </trkpt>
      <trkpt lat="45.982369780540466" lon="6.906112795695663">
        <ele>2145.8000000000002</ele>
        <time>2014-07-15T09:42:18Z</time>
      </trkpt>
      <trkpt lat="45.982363997027278" lon="6.90608530305326">
        <ele>2145.8000000000002</ele>
        <time>2014-07-15T09:42:21Z</time>
      </trkpt>
      <trkpt lat="45.982351759448647" lon="6.906001400202513">
        <ele>2146.2800000000002</ele>
        <time>2014-07-15T09:42:28Z</time>
      </trkpt>
      <trkpt lat="45.982350502163172" lon="6.905966615304351">
        <ele>2146.2800000000002</ele>
        <time>2014-07-15T09:42:31Z</time>
      </trkpt>
      <trkpt lat="45.982305742800236" lon="6.905788080766797">
        <ele>2146.7600000000002</ele>
        <time>2014-07-15T09:42:46Z</time>
      </trkpt>
      <trkpt lat="45.982303144410253" lon="6.90565338358283">
        <ele>2149.6500000000001</ele>
        <time>2014-07-15T09:43:00Z</time>
      </trkpt>
      <trkpt lat="45.982335582375526" lon="6.905524972826242">
        <ele>2151.0900000000001</ele>
        <time>2014-07-15T09:43:15Z</time>
      </trkpt>
      <trkpt lat="45.982395093888044" lon="6.905391030013561">
        <ele>2152.0500000000002</ele>
        <time>2014-07-15T09:43:31Z</time>
      </trkpt>
      <trkpt lat="45.982461478561163" lon="6.905276197940111">
        <ele>2153.9699999999998</ele>
        <time>2014-07-15T09:43:47Z</time>
      </trkpt>
      <trkpt lat="45.982474470511079" lon="6.905267145484686">
        <ele>2154.4499999999998</ele>
        <time>2014-07-15T09:43:49Z</time>
      </trkpt>
      <trkpt lat="45.982577400282025" lon="6.905148876830936">
        <ele>2154.9299999999998</ele>
        <time>2014-07-15T09:44:04Z</time>
      </trkpt>
      <trkpt lat="45.982650741934776" lon="6.905181650072336">
        <ele>2157.3400000000001</ele>
        <time>2014-07-15T09:44:17Z</time>
      </trkpt>
      <trkpt lat="45.982741266489029" lon="6.905218111351132">
        <ele>2158.7800000000002</ele>
        <time>2014-07-15T09:44:31Z</time>
      </trkpt>
      <trkpt lat="45.982823325321078" lon="6.905180811882019">
        <ele>2161.1799999999998</ele>
        <time>2014-07-15T09:44:47Z</time>
      </trkpt>
      <trkpt lat="45.982827683910728" lon="6.90506799146533">
        <ele>2162.6199999999999</ele>
        <time>2014-07-15T09:45:01Z</time>
      </trkpt>
      <trkpt lat="45.982819302007556" lon="6.905030440539122">
        <ele>2163.5799999999999</ele>
        <time>2014-07-15T09:45:06Z</time>
      </trkpt>
      <trkpt lat="45.982842603698373" lon="6.904977215453982">
        <ele>2164.0599999999999</ele>
        <time>2014-07-15T09:45:13Z</time>
      </trkpt>
      <trkpt lat="45.982917034998536" lon="6.905046701431274">
        <ele>2166.9499999999998</ele>
        <time>2014-07-15T09:45:27Z</time>
      </trkpt>
      <trkpt lat="45.982964979484677" lon="6.904978640377522">
        <ele>2166.9499999999998</ele>
        <time>2014-07-15T09:45:40Z</time>
      </trkpt>
      <trkpt lat="45.983003620058298" lon="6.904911668971181">
        <ele>2168.8699999999999</ele>
        <time>2014-07-15T09:45:53Z</time>
      </trkpt>
      <trkpt lat="45.983033543452621" lon="6.904753083363175">
        <ele>2171.27</ele>
        <time>2014-07-15T09:46:12Z</time>
      </trkpt>
      <trkpt lat="45.983108142390847" lon="6.904703713953495">
        <ele>2174.1599999999999</ele>
        <time>2014-07-15T09:46:28Z</time>
      </trkpt>
      <trkpt lat="45.983157595619559" lon="6.904609752818942">
        <ele>2175.5999999999999</ele>
        <time>2014-07-15T09:46:43Z</time>
      </trkpt>
      <trkpt lat="45.983234960585833" lon="6.9045549351722">
        <ele>2177.52</ele>
        <time>2014-07-15T09:46:57Z</time>
      </trkpt>
      <trkpt lat="45.983348786830902" lon="6.904567591845989">
        <ele>2177.04</ele>
        <time>2014-07-15T09:47:10Z</time>
      </trkpt>
      <trkpt lat="45.983363706618547" lon="6.904555102810264">
        <ele>2177.52</ele>
        <time>2014-07-15T09:47:22Z</time>
      </trkpt>
      <trkpt lat="45.983385248109698" lon="6.904444713145495">
        <ele>2180.4099999999999</ele>
        <time>2014-07-15T09:47:38Z</time>
      </trkpt>
      <trkpt lat="45.983402850106359" lon="6.904365420341492">
        <ele>2181.3699999999999</ele>
        <time>2014-07-15T09:47:53Z</time>
      </trkpt>
      <trkpt lat="45.983404777944088" lon="6.904354440048337">
        <ele>2181.8499999999999</ele>
        <time>2014-07-15T09:48:11Z</time>
      </trkpt>
      <trkpt lat="45.983402514830232" lon="6.904309596866369">
        <ele>2182.3299999999999</ele>
        <time>2014-07-15T09:48:25Z</time>
      </trkpt>
      <trkpt lat="45.983366388827562" lon="6.9042182341218">
        <ele>2183.29</ele>
        <time>2014-07-15T09:48:34Z</time>
      </trkpt>
      <trkpt lat="45.983334453776479" lon="6.904072724282742">
        <ele>2183.77</ele>
        <time>2014-07-15T09:48:45Z</time>
      </trkpt>
      <trkpt lat="45.983246946707368" lon="6.903874324634671">
        <ele>2184.25</ele>
        <time>2014-07-15T09:49:02Z</time>
      </trkpt>
      <trkpt lat="45.983180059120059" lon="6.903829146176577">
        <ele>2184.25</ele>
        <time>2014-07-15T09:49:09Z</time>
      </trkpt>
      <trkpt lat="45.98317033611238" lon="6.903773574158549">
        <ele>2184.73</ele>
        <time>2014-07-15T09:49:13Z</time>
      </trkpt>
      <trkpt lat="45.983148124068975" lon="6.903689336031675">
        <ele>2185.21</ele>
        <time>2014-07-15T09:49:19Z</time>
      </trkpt>
      <trkpt lat="45.983112920075655" lon="6.903604930266738">
        <ele>2186.1799999999998</ele>
        <time>2014-07-15T09:49:27Z</time>
      </trkpt>
      <trkpt lat="45.983034297823906" lon="6.903412733227015">
        <ele>2184.73</ele>
        <time>2014-07-15T09:49:41Z</time>
      </trkpt>
      <trkpt lat="45.982989873737097" lon="6.903315084055066">
        <ele>2185.21</ele>
        <time>2014-07-15T09:49:50Z</time>
      </trkpt>
      <trkpt lat="45.982935056090355" lon="6.903263367712498">
        <ele>2183.77</ele>
        <time>2014-07-15T09:49:55Z</time>
      </trkpt>
      <trkpt lat="45.982882920652628" lon="6.903055412694812">
        <ele>2185.6900000000001</ele>
        <time>2014-07-15T09:50:12Z</time>
      </trkpt>
      <trkpt lat="45.98287713713944" lon="6.902959104627371">
        <ele>2187.1399999999999</ele>
        <time>2014-07-15T09:50:21Z</time>
      </trkpt>
      <trkpt lat="45.982878394424915" lon="6.902911327779293">
        <ele>2188.5799999999999</ele>
        <time>2014-07-15T09:50:26Z</time>
      </trkpt>
      <trkpt lat="45.982828103005886" lon="6.902711670845747">
        <ele>2187.6199999999999</ele>
        <time>2014-07-15T09:50:40Z</time>
      </trkpt>
      <trkpt lat="45.982797676697373" lon="6.902538919821382">
        <ele>2189.54</ele>
        <time>2014-07-15T09:50:53Z</time>
      </trkpt>
      <trkpt lat="45.982763562351465" lon="6.902383184060454">
        <ele>2190.5</ele>
        <time>2014-07-15T09:51:06Z</time>
      </trkpt>
      <trkpt lat="45.982763981446624" lon="6.902132062241435">
        <ele>2190.5</ele>
        <time>2014-07-15T09:51:23Z</time>
      </trkpt>
      <trkpt lat="45.982774710282683" lon="6.901872223243117">
        <ele>2190.5</ele>
        <time>2014-07-15T09:51:40Z</time>
      </trkpt>
      <trkpt lat="45.982804885134101" lon="6.901686815544963">
        <ele>2190.02</ele>
        <time>2014-07-15T09:51:52Z</time>
      </trkpt>
      <trkpt lat="45.982795162126422" lon="6.901629734784365">
        <ele>2190.02</ele>
        <time>2014-07-15T09:51:56Z</time>
      </trkpt>
      <trkpt lat="45.98279214464128" lon="6.901532588526607">
        <ele>2190.98</ele>
        <time>2014-07-15T09:52:03Z</time>
      </trkpt>
      <trkpt lat="45.982806645333767" lon="6.901323711499572">
        <ele>2193.8699999999999</ele>
        <time>2014-07-15T09:52:21Z</time>
      </trkpt>
      <trkpt lat="45.98281117156148" lon="6.901214243844152">
        <ele>2196.75</ele>
        <time>2014-07-15T09:52:36Z</time>
      </trkpt>
      <trkpt lat="45.982767585664988" lon="6.901182224974036">
        <ele>2198.1900000000001</ele>
        <time>2014-07-15T09:52:49Z</time>
      </trkpt>
      <trkpt lat="45.982766663655639" lon="6.901171579957008">
        <ele>2198.1900000000001</ele>
        <time>2014-07-15T09:52:50Z</time>
      </trkpt>
      <trkpt lat="45.982726765796542" lon="6.901078037917614">
        <ele>2199.6300000000001</ele>
        <time>2014-07-15T09:53:04Z</time>
      </trkpt>
      <trkpt lat="45.982721904292703" lon="6.901064878329635">
        <ele>2198.1900000000001</ele>
        <time>2014-07-15T09:53:11Z</time>
      </trkpt>
      <trkpt lat="45.982658704742789" lon="6.900897240266204">
        <ele>2200.1100000000001</ele>
        <time>2014-07-15T09:53:26Z</time>
      </trkpt>
      <trkpt lat="45.982645880430937" lon="6.900754664093256">
        <ele>2199.1500000000001</ele>
        <time>2014-07-15T09:53:40Z</time>
      </trkpt>
      <trkpt lat="45.98263724707067" lon="6.900684675201774">
        <ele>2198.6700000000001</ele>
        <time>2014-07-15T09:53:46Z</time>
      </trkpt>
      <trkpt lat="45.98263381049037" lon="6.9006073102355">
        <ele>2197.71</ele>
        <time>2014-07-15T09:53:51Z</time>
      </trkpt>
      <trkpt lat="45.982675217092037" lon="6.900518462061882">
        <ele>2198.1900000000001</ele>
        <time>2014-07-15T09:54:00Z</time>
      </trkpt>
      <trkpt lat="45.982681419700384" lon="6.900474540889263">
        <ele>2198.1900000000001</ele>
        <time>2014-07-15T09:54:13Z</time>
      </trkpt>
      <trkpt lat="45.982674630358815" lon="6.900357026606798">
        <ele>2200.5900000000001</ele>
        <time>2014-07-15T09:54:24Z</time>
      </trkpt>
      <trkpt lat="45.982699189335108" lon="6.900210427120328">
        <ele>2203</ele>
        <time>2014-07-15T09:54:39Z</time>
      </trkpt>
      <trkpt lat="45.982712851837277" lon="6.900089392438531">
        <ele>2205.8800000000001</ele>
        <time>2014-07-15T09:54:53Z</time>
      </trkpt>
      <trkpt lat="45.982711343094707" lon="6.900081932544708">
        <ele>2205.8800000000001</ele>
        <time>2014-07-15T09:54:54Z</time>
      </trkpt>
      <trkpt lat="45.982744451612234" lon="6.90003952011466">
        <ele>2207.3200000000002</ele>
        <time>2014-07-15T09:55:06Z</time>
      </trkpt>
      <trkpt lat="45.982741601765156" lon="6.899955281987786">
        <ele>2209.73</ele>
        <time>2014-07-15T09:55:19Z</time>
      </trkpt>
      <trkpt lat="45.982773788273335" lon="6.899925861507654">
        <ele>2211.1700000000001</ele>
        <time>2014-07-15T09:55:31Z</time>
      </trkpt>
      <trkpt lat="45.982855595648289" lon="6.899915300309658">
        <ele>2213.5700000000002</ele>
        <time>2014-07-15T09:55:46Z</time>
      </trkpt>
      <trkpt lat="45.982922147959471" lon="6.899860147386789">
        <ele>2215.5</ele>
        <time>2014-07-15T09:55:59Z</time>
      </trkpt>
      <trkpt lat="45.982982330024242" lon="6.899819327518344">
        <ele>2217.4200000000001</ele>
        <time>2014-07-15T09:56:14Z</time>
      </trkpt>
      <trkpt lat="45.982953077182174" lon="6.899806167930365">
        <ele>2218.3800000000001</ele>
        <time>2014-07-15T09:56:23Z</time>
      </trkpt>
      <trkpt lat="45.98293723538518" lon="6.899744141846895">
        <ele>2220.7800000000002</ele>
        <time>2014-07-15T09:56:36Z</time>
      </trkpt>
      <trkpt lat="45.98293824121356" lon="6.899690665304661">
        <ele>2222.2199999999998</ele>
        <time>2014-07-15T09:56:46Z</time>
      </trkpt>
      <trkpt lat="45.983000686392188" lon="6.899668117985129">
        <ele>2224.6300000000001</ele>
        <time>2014-07-15T09:57:00Z</time>
      </trkpt>
      <trkpt lat="45.982984760776162" lon="6.899695694446564">
        <ele>2225.1100000000001</ele>
        <time>2014-07-15T09:57:16Z</time>
      </trkpt>
      <trkpt lat="45.98295777104795" lon="6.899700639769435">
        <ele>2224.6300000000001</ele>
        <time>2014-07-15T09:57:30Z</time>
      </trkpt>
      <trkpt lat="45.98292893730104" lon="6.899623442441225">
        <ele>2226.0700000000002</ele>
        <time>2014-07-15T09:57:46Z</time>
      </trkpt>
      <trkpt lat="45.982949053868651" lon="6.899575162678957">
        <ele>2227.0300000000002</ele>
        <time>2014-07-15T09:57:54Z</time>
      </trkpt>
      <trkpt lat="45.982985934242606" lon="6.899574911221862">
        <ele>2227.5100000000002</ele>
        <time>2014-07-15T09:58:07Z</time>
      </trkpt>
      <trkpt lat="45.983001189306378" lon="6.899563260376453">
        <ele>2227.9899999999998</ele>
        <time>2014-07-15T09:58:23Z</time>
      </trkpt>
      <trkpt lat="45.982988867908716" lon="6.899564936757088">
        <ele>2228.4699999999998</ele>
        <time>2014-07-15T09:58:37Z</time>
      </trkpt>
      <trkpt lat="45.982982749119401" lon="6.899568708613515">
        <ele>2227.9899999999998</ele>
        <time>2014-07-15T09:58:38Z</time>
      </trkpt>
      <trkpt lat="45.982959195971489" lon="6.899568792432547">
        <ele>2227.5100000000002</ele>
        <time>2014-07-15T09:58:40Z</time>
      </trkpt>
      <trkpt lat="45.982887027785182" lon="6.8994658626616">
        <ele>2228.9499999999998</ele>
        <time>2014-07-15T09:58:53Z</time>
      </trkpt>
      <trkpt lat="45.982853667810559" lon="6.899309037253261">
        <ele>2230.8800000000001</ele>
        <time>2014-07-15T09:59:08Z</time>
      </trkpt>
      <trkpt lat="45.982887195423245" lon="6.899177776649594">
        <ele>2232.8000000000002</ele>
        <time>2014-07-15T09:59:23Z</time>
      </trkpt>
      <trkpt lat="45.98289524205029" lon="6.899163359776139">
        <ele>2233.2800000000002</ele>
        <time>2014-07-15T09:59:25Z</time>
      </trkpt>
      <trkpt lat="45.982907060533762" lon="6.899086162447929">
        <ele>2235.1999999999998</ele>
        <time>2014-07-15T09:59:34Z</time>
      </trkpt>
      <trkpt lat="45.982921058312058" lon="6.899021537974477">
        <ele>2234.2399999999998</ele>
        <time>2014-07-15T09:59:41Z</time>
      </trkpt>
      <trkpt lat="45.982924243435264" lon="6.898953476920724">
        <ele>2233.2800000000002</ele>
        <time>2014-07-15T09:59:46Z</time>
      </trkpt>
      <trkpt lat="45.982896164059639" lon="6.898890696465969">
        <ele>2233.7600000000002</ele>
        <time>2014-07-15T09:59:53Z</time>
      </trkpt>
      <trkpt lat="45.982893733307719" lon="6.898777456954122">
        <ele>2234.7199999999998</ele>
        <time>2014-07-15T10:00:02Z</time>
      </trkpt>
      <trkpt lat="45.982880238443613" lon="6.898714089766145">
        <ele>2234.7199999999998</ele>
        <time>2014-07-15T10:00:07Z</time>
      </trkpt>
      <trkpt lat="45.982851991429925" lon="6.898611411452293">
        <ele>2236.1599999999999</ele>
        <time>2014-07-15T10:00:21Z</time>
      </trkpt>
      <trkpt lat="45.982736404985189" lon="6.898519042879343">
        <ele>2236.1599999999999</ele>
        <time>2014-07-15T10:00:35Z</time>
      </trkpt>
      <trkpt lat="45.982695501297712" lon="6.89844561740756">
        <ele>2234.7199999999998</ele>
        <time>2014-07-15T10:00:50Z</time>
      </trkpt>
      <trkpt lat="45.982642527669668" lon="6.898331623524427">
        <ele>2232.8000000000002</ele>
        <time>2014-07-15T10:01:03Z</time>
      </trkpt>
      <trkpt lat="45.982649568468332" lon="6.89834495075047">
        <ele>2232.8000000000002</ele>
        <time>2014-07-15T10:01:24Z</time>
      </trkpt>
      <trkpt lat="45.982627775520086" lon="6.898361798375845">
        <ele>2232.8000000000002</ele>
        <time>2014-07-15T10:01:42Z</time>
      </trkpt>
      <trkpt lat="45.982568431645632" lon="6.898271357640624">
        <ele>2230.8800000000001</ele>
        <time>2014-07-15T10:01:56Z</time>
      </trkpt>
      <trkpt lat="45.982481343671679" lon="6.898209666833282">
        <ele>2227.9899999999998</ele>
        <time>2014-07-15T10:02:08Z</time>
      </trkpt>
      <trkpt lat="45.982441697269678" lon="6.898185107856989">
        <ele>2226.5500000000002</ele>
        <time>2014-07-15T10:02:13Z</time>
      </trkpt>
      <trkpt lat="45.98235821351409" lon="6.898161303251982">
        <ele>2225.5900000000001</ele>
        <time>2014-07-15T10:02:21Z</time>
      </trkpt>
      <trkpt lat="45.982309011742473" lon="6.898143449798226">
        <ele>2224.1500000000001</ele>
        <time>2014-07-15T10:02:28Z</time>
      </trkpt>
      <trkpt lat="45.982294175773859" lon="6.898130709305406">
        <ele>2223.6700000000001</ele>
        <time>2014-07-15T10:02:30Z</time>
      </trkpt>
      <trkpt lat="45.982255870476365" lon="6.898086369037628">
        <ele>2223.1900000000001</ele>
        <time>2014-07-15T10:02:37Z</time>
      </trkpt>
      <trkpt lat="45.982205830514431" lon="6.8980947509408">
        <ele>2221.7399999999998</ele>
        <time>2014-07-15T10:02:44Z</time>
      </trkpt>
      <trkpt lat="45.98218621686101" lon="6.898068347945809">
        <ele>2221.2600000000002</ele>
        <time>2014-07-15T10:02:48Z</time>
      </trkpt>
      <trkpt lat="45.982117988169193" lon="6.89804689027369">
        <ele>2219.3400000000001</ele>
        <time>2014-07-15T10:03:00Z</time>
      </trkpt>
      <trkpt lat="45.982067361474037" lon="6.897980254143477">
        <ele>2217.4200000000001</ele>
        <time>2014-07-15T10:03:08Z</time>
      </trkpt>
      <trkpt lat="45.981954792514443" lon="6.897855950519443">
        <ele>2215.0100000000002</ele>
        <time>2014-07-15T10:03:24Z</time>
      </trkpt>
      <trkpt lat="45.981856472790241" lon="6.897728210315108">
        <ele>2214.5300000000002</ele>
        <time>2014-07-15T10:03:37Z</time>
      </trkpt>
      <trkpt lat="45.981805259361863" lon="6.897618742659688">
        <ele>2214.0500000000002</ele>
        <time>2014-07-15T10:03:46Z</time>
      </trkpt>
      <trkpt lat="45.981741389259696" lon="6.897455463185906">
        <ele>2214.5300000000002</ele>
        <time>2014-07-15T10:04:01Z</time>
      </trkpt>
      <trkpt lat="45.981710124760866" lon="6.897391257807612">
        <ele>2215.0100000000002</ele>
        <time>2014-07-15T10:04:14Z</time>
      </trkpt>
      <trkpt lat="45.981680536642671" lon="6.897316658869386">
        <ele>2214.5300000000002</ele>
        <time>2014-07-15T10:04:21Z</time>
      </trkpt>
      <trkpt lat="45.981687912717462" lon="6.897273911163211">
        <ele>2215.5</ele>
        <time>2014-07-15T10:04:24Z</time>
      </trkpt>
      <trkpt lat="45.981685230508447" lon="6.897238120436668">
        <ele>2215.0100000000002</ele>
        <time>2014-07-15T10:04:27Z</time>
      </trkpt>
      <trkpt lat="45.981639884412289" lon="6.897120689973235">
        <ele>2214.0500000000002</ele>
        <time>2014-07-15T10:04:37Z</time>
      </trkpt>
      <trkpt lat="45.981590263545513" lon="6.896970486268401">
        <ele>2213.5700000000002</ele>
        <time>2014-07-15T10:04:51Z</time>
      </trkpt>
      <trkpt lat="45.981603255495429" lon="6.896844757720828">
        <ele>2212.6100000000001</ele>
        <time>2014-07-15T10:05:05Z</time>
      </trkpt>
      <trkpt lat="45.98162580281496" lon="6.896849116310477">
        <ele>2212.6100000000001</ele>
        <time>2014-07-15T10:05:17Z</time>
      </trkpt>
      <trkpt lat="45.981618259102106" lon="6.89674224704504">
        <ele>2213.0900000000001</ele>
        <time>2014-07-15T10:05:31Z</time>
      </trkpt>
      <trkpt lat="45.981634184718132" lon="6.896743588149548">
        <ele>2213.0900000000001</ele>
        <time>2014-07-15T10:05:41Z</time>
      </trkpt>
      <trkpt lat="45.981668550521135" lon="6.896672090515494">
        <ele>2213.5700000000002</ele>
        <time>2014-07-15T10:05:55Z</time>
      </trkpt>
      <trkpt lat="45.981670310720801" lon="6.89665675163269">
        <ele>2212.6100000000001</ele>
        <time>2014-07-15T10:06:14Z</time>
      </trkpt>
      <trkpt lat="45.981662012636662" lon="6.896637724712491">
        <ele>2213.0900000000001</ele>
        <time>2014-07-15T10:06:27Z</time>
      </trkpt>
      <trkpt lat="45.981682632118464" lon="6.896624146029353">
        <ele>2213.5700000000002</ele>
        <time>2014-07-15T10:06:52Z</time>
      </trkpt>
      <trkpt lat="45.981671065092087" lon="6.896558851003647">
        <ele>2214.0500000000002</ele>
        <time>2014-07-15T10:07:13Z</time>
      </trkpt>
      <trkpt lat="45.981643907725811" lon="6.896428512409329">
        <ele>2215.5</ele>
        <time>2014-07-15T10:07:27Z</time>
      </trkpt>
      <trkpt lat="45.981715908274055" lon="6.896426752209663">
        <ele>2217.4200000000001</ele>
        <time>2014-07-15T10:07:41Z</time>
      </trkpt>
      <trkpt lat="45.981775000691414" lon="6.89633815549314">
        <ele>2218.8600000000001</ele>
        <time>2014-07-15T10:07:57Z</time>
      </trkpt>
      <trkpt lat="45.981847839429975" lon="6.896256767213345">
        <ele>2220.7800000000002</ele>
        <time>2014-07-15T10:08:15Z</time>
      </trkpt>
      <trkpt lat="45.981863848865032" lon="6.896173199638724">
        <ele>2222.71</ele>
        <time>2014-07-15T10:08:32Z</time>
      </trkpt>
      <trkpt lat="45.981849012896419" lon="6.896076556295157">
        <ele>2224.1500000000001</ele>
        <time>2014-07-15T10:08:47Z</time>
      </trkpt>
      <trkpt lat="45.98188379779458" lon="6.895972117781639">
        <ele>2225.5900000000001</ele>
        <time>2014-07-15T10:09:03Z</time>
      </trkpt>
      <trkpt lat="45.981882708147168" lon="6.895912354812026">
        <ele>2227.0300000000002</ele>
        <time>2014-07-15T10:09:17Z</time>
      </trkpt>
      <trkpt lat="45.981948170810938" lon="6.895926520228386">
        <ele>2228.9499999999998</ele>
        <time>2014-07-15T10:09:32Z</time>
      </trkpt>
      <trkpt lat="45.982003156095743" lon="6.895909337326884">
        <ele>2230.8800000000001</ele>
        <time>2014-07-15T10:09:45Z</time>
      </trkpt>
      <trkpt lat="45.982118407264352" lon="6.895852675661445">
        <ele>2232.8000000000002</ele>
        <time>2014-07-15T10:10:00Z</time>
      </trkpt>
      <trkpt lat="45.982106840237975" lon="6.895740777254105">
        <ele>2235.6799999999998</ele>
        <time>2014-07-15T10:10:12Z</time>
      </trkpt>
      <trkpt lat="45.982069624587893" lon="6.895644385367632">
        <ele>2238.5700000000002</ele>
        <time>2014-07-15T10:10:26Z</time>
      </trkpt>
      <trkpt lat="45.982011454179883" lon="6.895596692338586">
        <ele>2240.4899999999998</ele>
        <time>2014-07-15T10:10:39Z</time>
      </trkpt>
      <trkpt lat="45.982021596282721" lon="6.8955441378057">
        <ele>2241.9299999999998</ele>
        <time>2014-07-15T10:10:49Z</time>
      </trkpt>
      <trkpt lat="45.982016148045659" lon="6.895510191097856">
        <ele>2243.8499999999999</ele>
        <time>2014-07-15T10:11:01Z</time>
      </trkpt>
      <trkpt lat="45.982023775577545" lon="6.895509772002697">
        <ele>2244.3299999999999</ele>
        <time>2014-07-15T10:11:13Z</time>
      </trkpt>
      <trkpt lat="45.982044814154506" lon="6.895503401756287">
        <ele>2244.8200000000002</ele>
        <time>2014-07-15T10:11:33Z</time>
      </trkpt>
      <trkpt lat="45.982030648738146" lon="6.895495103672147">
        <ele>2244.8200000000002</ele>
        <time>2014-07-15T10:11:47Z</time>
      </trkpt>
      <trkpt lat="45.982038863003254" lon="6.895492421463132">
        <ele>2245.7800000000002</ele>
        <time>2014-07-15T10:12:01Z</time>
      </trkpt>
      <trkpt lat="45.982037857174873" lon="6.895483452826738">
        <ele>2245.7800000000002</ele>
        <time>2014-07-15T10:12:25Z</time>
      </trkpt>
      <trkpt lat="45.982037018984556" lon="6.89548647031188">
        <ele>2246.2600000000002</ele>
        <time>2014-07-15T10:12:49Z</time>
      </trkpt>
      <trkpt lat="45.982072809711099" lon="6.895453026518226">
        <ele>2247.6999999999998</ele>
        <time>2014-07-15T10:13:06Z</time>
      </trkpt>
      <trkpt lat="45.982101140543818" lon="6.895440788939595">
        <ele>2251.0599999999999</ele>
        <time>2014-07-15T10:13:20Z</time>
      </trkpt>
      <trkpt lat="45.982085466384888" lon="6.895433161407709">
        <ele>2251.54</ele>
        <time>2014-07-15T10:13:33Z</time>
      </trkpt>
      <trkpt lat="45.982068199664354" lon="6.895439699292183">
        <ele>2252.5100000000002</ele>
        <time>2014-07-15T10:13:50Z</time>
      </trkpt>
      <trkpt lat="45.982058476656675" lon="6.895444309338927">
        <ele>2252.0300000000002</ele>
        <time>2014-07-15T10:14:10Z</time>
      </trkpt>
      <trkpt lat="45.982076665386558" lon="6.895421175286174">
        <ele>2252.5100000000002</ele>
        <time>2014-07-15T10:14:39Z</time>
      </trkpt>
      <trkpt lat="45.982096027582884" lon="6.895339787006378">
        <ele>2255.3899999999999</ele>
        <time>2014-07-15T10:14:51Z</time>
      </trkpt>
      <trkpt lat="45.982100134715438" lon="6.895300811156631">
        <ele>2257.3099999999999</ele>
        <time>2014-07-15T10:14:59Z</time>
      </trkpt>
      <trkpt lat="45.982111534103751" lon="6.895289998501539">
        <ele>2257.79</ele>
        <time>2014-07-15T10:15:01Z</time>
      </trkpt>
      <trkpt lat="45.982167609035969" lon="6.895251693204045">
        <ele>2260.1999999999998</ele>
        <time>2014-07-15T10:15:14Z</time>
      </trkpt>
      <trkpt lat="45.982208596542478" lon="6.895226547494531">
        <ele>2262.5999999999999</ele>
        <time>2014-07-15T10:15:25Z</time>
      </trkpt>
      <trkpt lat="45.982219409197569" lon="6.895140213891864">
        <ele>2264.04</ele>
        <time>2014-07-15T10:15:39Z</time>
      </trkpt>
      <trkpt lat="45.982178756967187" lon="6.895076427608728">
        <ele>2265.96</ele>
        <time>2014-07-15T10:15:53Z</time>
      </trkpt>
      <trkpt lat="45.982172805815935" lon="6.895036362111569">
        <ele>2267.4099999999999</ele>
        <time>2014-07-15T10:16:04Z</time>
      </trkpt>
      <trkpt lat="45.982166016474366" lon="6.894984561949968">
        <ele>2269.8099999999999</ele>
        <time>2014-07-15T10:16:16Z</time>
      </trkpt>
      <trkpt lat="45.98216182552278" lon="6.894910214468837">
        <ele>2272.21</ele>
        <time>2014-07-15T10:16:30Z</time>
      </trkpt>
      <trkpt lat="45.982125783339143" lon="6.894898731261492">
        <ele>2272.21</ele>
        <time>2014-07-15T10:16:43Z</time>
      </trkpt>
      <trkpt lat="45.98213005810976" lon="6.894840309396386">
        <ele>2274.1399999999999</ele>
        <time>2014-07-15T10:16:59Z</time>
      </trkpt>
      <trkpt lat="45.982126286253333" lon="6.894764788448811">
        <ele>2275.5799999999999</ele>
        <time>2014-07-15T10:17:10Z</time>
      </trkpt>
      <trkpt lat="45.982101475819945" lon="6.894670827314258">
        <ele>2276.54</ele>
        <time>2014-07-15T10:17:22Z</time>
      </trkpt>
      <trkpt lat="45.982102146372199" lon="6.894662696868181">
        <ele>2277.02</ele>
        <time>2014-07-15T10:17:23Z</time>
      </trkpt>
      <trkpt lat="45.98212905228138" lon="6.894548954442143">
        <ele>2278.46</ele>
        <time>2014-07-15T10:17:36Z</time>
      </trkpt>
      <trkpt lat="45.982144474983215" lon="6.894450131803751">
        <ele>2281.3499999999999</ele>
        <time>2014-07-15T10:17:50Z</time>
      </trkpt>
      <trkpt lat="45.982123771682382" lon="6.89434259198606">
        <ele>2282.79</ele>
        <time>2014-07-15T10:18:04Z</time>
      </trkpt>
      <trkpt lat="45.982100637629628" lon="6.894242260605097">
        <ele>2285.1900000000001</ele>
        <time>2014-07-15T10:18:16Z</time>
      </trkpt>
      <trkpt lat="45.982065601274371" lon="6.894143270328641">
        <ele>2287.1100000000001</ele>
        <time>2014-07-15T10:18:31Z</time>
      </trkpt>
      <trkpt lat="45.982012124732137" lon="6.894043190404773">
        <ele>2289.04</ele>
        <time>2014-07-15T10:18:46Z</time>
      </trkpt>
      <trkpt lat="45.982053531333804" lon="6.893919138237834">
        <ele>2290.96</ele>
        <time>2014-07-15T10:19:00Z</time>
      </trkpt>
      <trkpt lat="45.982015812769532" lon="6.893904469907284">
        <ele>2292.4000000000001</ele>
        <time>2014-07-15T10:19:10Z</time>
      </trkpt>
      <trkpt lat="45.982059482485056" lon="6.89381972886622">
        <ele>2293.8400000000001</ele>
        <time>2014-07-15T10:19:22Z</time>
      </trkpt>
      <trkpt lat="45.982067696750164" lon="6.893740184605122">
        <ele>2296.25</ele>
        <time>2014-07-15T10:19:36Z</time>
      </trkpt>
      <trkpt lat="45.982029307633638" lon="6.893713949248195">
        <ele>2297.6900000000001</ele>
        <time>2014-07-15T10:19:48Z</time>
      </trkpt>
      <trkpt lat="45.982028134167194" lon="6.893632560968399">
        <ele>2300.0900000000001</ele>
        <time>2014-07-15T10:19:59Z</time>
      </trkpt>
      <trkpt lat="45.982011873275042" lon="6.893556620925665">
        <ele>2301.5300000000002</ele>
        <time>2014-07-15T10:20:12Z</time>
      </trkpt>
      <trkpt lat="45.981988236308098" lon="6.893439944833517">
        <ele>2302.98</ele>
        <time>2014-07-15T10:20:26Z</time>
      </trkpt>
      <trkpt lat="45.981968455016613" lon="6.893425276502967">
        <ele>2303.9400000000001</ele>
        <time>2014-07-15T10:20:36Z</time>
      </trkpt>
      <trkpt lat="45.981913972645998" lon="6.893493002280593">
        <ele>2306.3400000000001</ele>
        <time>2014-07-15T10:20:50Z</time>
      </trkpt>
      <trkpt lat="45.981900226324797" lon="6.893622502684593">
        <ele>2307.7800000000002</ele>
        <time>2014-07-15T10:21:04Z</time>
      </trkpt>
      <trkpt lat="45.981862926855683" lon="6.893659131601453">
        <ele>2309.6999999999998</ele>
        <time>2014-07-15T10:21:14Z</time>
      </trkpt>
      <trkpt lat="45.981801990419626" lon="6.893685450777412">
        <ele>2310.1900000000001</ele>
        <time>2014-07-15T10:21:26Z</time>
      </trkpt>
      <trkpt lat="45.981802996248007" lon="6.893685534596443">
        <ele>2311.1500000000001</ele>
        <time>2014-07-15T10:21:42Z</time>
      </trkpt>
      <trkpt lat="45.98179972730577" lon="6.893687462434173">
        <ele>2311.6300000000001</ele>
        <time>2014-07-15T10:21:43Z</time>
      </trkpt>
      <trkpt lat="45.981721691787243" lon="6.893653683364391">
        <ele>2312.1100000000001</ele>
        <time>2014-07-15T10:21:56Z</time>
      </trkpt>
      <trkpt lat="45.981659246608615" lon="6.893563661724329">
        <ele>2314.9899999999998</ele>
        <time>2014-07-15T10:22:11Z</time>
      </trkpt>
      <trkpt lat="45.981608536094427" lon="6.893441872671247">
        <ele>2316.4299999999998</ele>
        <time>2014-07-15T10:22:25Z</time>
      </trkpt>
      <trkpt lat="45.981574337929487" lon="6.893411530181766">
        <ele>2317.4000000000001</ele>
        <time>2014-07-15T10:22:32Z</time>
      </trkpt>
      <trkpt lat="45.981541313230991" lon="6.893399208784103">
        <ele>2317.4000000000001</ele>
        <time>2014-07-15T10:22:47Z</time>
      </trkpt>
      <trkpt lat="45.98151097074151" lon="6.893290411680937">
        <ele>2317.8800000000001</ele>
        <time>2014-07-15T10:23:06Z</time>
      </trkpt>
      <trkpt lat="45.981489848345518" lon="6.893205754458904">
        <ele>2320.2800000000002</ele>
        <time>2014-07-15T10:23:19Z</time>
      </trkpt>
      <trkpt lat="45.98143863491714" lon="6.893215393647552">
        <ele>2321.7199999999998</ele>
        <time>2014-07-15T10:23:31Z</time>
      </trkpt>
      <trkpt lat="45.981414495036006" lon="6.893142806366086">
        <ele>2323.6399999999999</ele>
        <time>2014-07-15T10:23:44Z</time>
      </trkpt>
      <trkpt lat="45.981459338217974" lon="6.893045492470264">
        <ele>2325.5700000000002</ele>
        <time>2014-07-15T10:23:57Z</time>
      </trkpt>
      <trkpt lat="45.981396054849029" lon="6.893073655664921">
        <ele>2327.0100000000002</ele>
        <time>2014-07-15T10:24:08Z</time>
      </trkpt>
      <trkpt lat="45.981314163655043" lon="6.893026633188129">
        <ele>2328.9299999999998</ele>
        <time>2014-07-15T10:24:23Z</time>
      </trkpt>
      <trkpt lat="45.981240989640355" lon="6.892941473051906">
        <ele>2330.8499999999999</ele>
        <time>2014-07-15T10:24:37Z</time>
      </trkpt>
      <trkpt lat="45.981235038489103" lon="6.892845584079623">
        <ele>2333.7399999999998</ele>
        <time>2014-07-15T10:24:52Z</time>
      </trkpt>
      <trkpt lat="45.981272840872407" lon="6.892855139449239">
        <ele>2334.2199999999998</ele>
        <time>2014-07-15T10:25:12Z</time>
      </trkpt>
      <trkpt lat="45.981292789801955" lon="6.892779031768441">
        <ele>2337.5799999999999</ele>
        <time>2014-07-15T10:25:26Z</time>
      </trkpt>
      <trkpt lat="45.981287760660052" lon="6.892739636823535">
        <ele>2339.5100000000002</ele>
        <time>2014-07-15T10:25:41Z</time>
      </trkpt>
      <trkpt lat="45.981276864185929" lon="6.892676604911685">
        <ele>2341.9099999999999</ele>
        <time>2014-07-15T10:25:53Z</time>
      </trkpt>
      <trkpt lat="45.981345176696777" lon="6.892667468637228">
        <ele>2344.3099999999999</ele>
        <time>2014-07-15T10:26:06Z</time>
      </trkpt>
      <trkpt lat="45.981405777856708" lon="6.892663864418864">
        <ele>2346.23</ele>
        <time>2014-07-15T10:26:18Z</time>
      </trkpt>
      <trkpt lat="45.981471575796604" lon="6.892601251602173">
        <ele>2348.1599999999999</ele>
        <time>2014-07-15T10:26:31Z</time>
      </trkpt>
      <trkpt lat="45.981464618816972" lon="6.892551966011524">
        <ele>2350.0799999999999</ele>
        <time>2014-07-15T10:26:42Z</time>
      </trkpt>
      <trkpt lat="45.981433773413301" lon="6.892564790323377">
        <ele>2352</ele>
        <time>2014-07-15T10:26:52Z</time>
      </trkpt>
      <trkpt lat="45.981362275779247" lon="6.892529586330056">
        <ele>2353.9299999999998</ele>
        <time>2014-07-15T10:27:05Z</time>
      </trkpt>
      <trkpt lat="45.981328161433339" lon="6.892479546368122">
        <ele>2355.3699999999999</ele>
        <time>2014-07-15T10:27:19Z</time>
      </trkpt>
      <trkpt lat="45.981309469789267" lon="6.892448449507356">
        <ele>2357.29</ele>
        <time>2014-07-15T10:27:29Z</time>
      </trkpt>
      <trkpt lat="45.981329251080751" lon="6.89232456497848">
        <ele>2357.77</ele>
        <time>2014-07-15T10:27:41Z</time>
      </trkpt>
      <trkpt lat="45.981330424547195" lon="6.892314674332738">
        <ele>2358.25</ele>
        <time>2014-07-15T10:27:42Z</time>
      </trkpt>
      <trkpt lat="45.981402089819312" lon="6.892273351550102">
        <ele>2356.8099999999999</ele>
        <time>2014-07-15T10:27:51Z</time>
      </trkpt>
      <trkpt lat="45.981478868052363" lon="6.892254324629903">
        <ele>2354.8899999999999</ele>
        <time>2014-07-15T10:28:01Z</time>
      </trkpt>
      <trkpt lat="45.981491273269057" lon="6.892220545560122">
        <ele>2354.8899999999999</ele>
        <time>2014-07-15T10:28:15Z</time>
      </trkpt>
      <trkpt lat="45.981488842517138" lon="6.892196489498019">
        <ele>2354.4099999999999</ele>
        <time>2014-07-15T10:28:30Z</time>
      </trkpt>
      <trkpt lat="45.98149236291647" lon="6.892201351001859">
        <ele>2354.8899999999999</ele>
        <time>2014-07-15T10:28:34Z</time>
      </trkpt>
      <trkpt lat="45.981521951034665" lon="6.892186431214213">
        <ele>2354.8899999999999</ele>
        <time>2014-07-15T10:28:46Z</time>
      </trkpt>
      <trkpt lat="45.981549024581909" lon="6.892105713486671">
        <ele>2357.77</ele>
        <time>2014-07-15T10:29:00Z</time>
      </trkpt>
      <trkpt lat="45.981578612700105" lon="6.891969256103039">
        <ele>2358.73</ele>
        <time>2014-07-15T10:29:16Z</time>
      </trkpt>
      <trkpt lat="45.981572577729821" lon="6.891979146748781">
        <ele>2358.73</ele>
        <time>2014-07-15T10:29:33Z</time>
      </trkpt>
      <trkpt lat="45.981563189998269" lon="6.891987277194858">
        <ele>2358.73</ele>
        <time>2014-07-15T10:29:52Z</time>
      </trkpt>
      <trkpt lat="45.98157299682498" lon="6.89198350533843">
        <ele>2358.25</ele>
        <time>2014-07-15T10:30:10Z</time>
      </trkpt>
      <trkpt lat="45.981591939926147" lon="6.89198300242424">
        <ele>2358.25</ele>
        <time>2014-07-15T10:30:28Z</time>
      </trkpt>
      <trkpt lat="45.981609122827649" lon="6.891991551965475">
        <ele>2358.73</ele>
        <time>2014-07-15T10:30:45Z</time>
      </trkpt>
      <trkpt lat="45.981619600206614" lon="6.891981745138764">
        <ele>2358.73</ele>
        <time>2014-07-15T10:31:08Z</time>
      </trkpt>
      <trkpt lat="45.981619516387582" lon="6.892001694068313">
        <ele>2358.73</ele>
        <time>2014-07-15T10:31:29Z</time>
      </trkpt>
      <trkpt lat="45.981578193604946" lon="6.891942350193858">
        <ele>2358.73</ele>
        <time>2014-07-15T10:31:45Z</time>
      </trkpt>
      <trkpt lat="45.981591688469052" lon="6.891976883634925">
        <ele>2358.25</ele>
        <time>2014-07-15T10:31:57Z</time>
      </trkpt>
      <trkpt lat="45.98158179782331" lon="6.891967663541436">
        <ele>2358.73</ele>
        <time>2014-07-15T10:32:01Z</time>
      </trkpt>
      <trkpt lat="45.981559082865715" lon="6.891876300796866">
        <ele>2357.29</ele>
        <time>2014-07-15T10:32:16Z</time>
      </trkpt>
      <trkpt lat="45.981543408706784" lon="6.891860626637936">
        <ele>2357.77</ele>
        <time>2014-07-15T10:32:30Z</time>
      </trkpt>
      <trkpt lat="45.981567967683077" lon="6.891859117895365">
        <ele>2357.77</ele>
        <time>2014-07-15T10:32:46Z</time>
      </trkpt>
      <trkpt lat="45.981583809480071" lon="6.891828691586852">
        <ele>2357.77</ele>
        <time>2014-07-15T10:32:50Z</time>
      </trkpt>
      <trkpt lat="45.981603506952524" lon="6.891795583069325">
        <ele>2358.25</ele>
        <time>2014-07-15T10:32:55Z</time>
      </trkpt>
      <trkpt lat="45.981644075363874" lon="6.891794996336103">
        <ele>2360.1700000000001</ele>
        <time>2014-07-15T10:33:07Z</time>
      </trkpt>
      <trkpt lat="45.981613649055362" lon="6.891892142593861">
        <ele>2361.1399999999999</ele>
        <time>2014-07-15T10:33:19Z</time>
      </trkpt>
      <trkpt lat="45.981608787551522" lon="6.891883090138435">
        <ele>2360.1700000000001</ele>
        <time>2014-07-15T10:33:31Z</time>
      </trkpt>
      <trkpt lat="45.981649858877063" lon="6.891853837296367">
        <ele>2360.6500000000001</ele>
        <time>2014-07-15T10:33:41Z</time>
      </trkpt>
      <trkpt lat="45.981674669310451" lon="6.8918486405164">
        <ele>2361.1399999999999</ele>
        <time>2014-07-15T10:33:54Z</time>
      </trkpt>
      <trkpt lat="45.98168145865202" lon="6.891813352704048">
        <ele>2361.1399999999999</ele>
        <time>2014-07-15T10:33:55Z</time>
      </trkpt>
      <trkpt lat="45.981649775058031" lon="6.891789799556136">
        <ele>2360.6500000000001</ele>
        <time>2014-07-15T10:34:09Z</time>
      </trkpt>
      <trkpt lat="45.981674836948514" lon="6.891764737665653">
        <ele>2361.1399999999999</ele>
        <time>2014-07-15T10:34:30Z</time>
      </trkpt>
      <trkpt lat="45.98164583556354" lon="6.891849478706718">
        <ele>2361.1399999999999</ele>
        <time>2014-07-15T10:34:50Z</time>
      </trkpt>
      <trkpt lat="45.981638040393591" lon="6.891864649951458">
        <ele>2361.6199999999999</ele>
        <time>2014-07-15T10:34:51Z</time>
      </trkpt>
      <trkpt lat="45.981640052050352" lon="6.891911756247282">
        <ele>2361.1399999999999</ele>
        <time>2014-07-15T10:35:06Z</time>
      </trkpt>
      <trkpt lat="45.981658576056361" lon="6.891815699636936">
        <ele>2361.6199999999999</ele>
        <time>2014-07-15T10:35:19Z</time>
      </trkpt>
      <trkpt lat="45.981605770066381" lon="6.891734814271331">
        <ele>2362.0999999999999</ele>
        <time>2014-07-15T10:35:35Z</time>
      </trkpt>
      <trkpt lat="45.981629239395261" lon="6.891867835074663">
        <ele>2362.0999999999999</ele>
        <time>2014-07-15T10:35:45Z</time>
      </trkpt>
      <trkpt lat="45.981635442003608" lon="6.891885520890355">
        <ele>2362.0999999999999</ele>
        <time>2014-07-15T10:35:59Z</time>
      </trkpt>
      <trkpt lat="45.981617756187916" lon="6.891888873651624">
        <ele>2363.54</ele>
        <time>2014-07-15T10:36:19Z</time>
      </trkpt>
      <trkpt lat="45.981628987938166" lon="6.891902955248952">
        <ele>2362.5799999999999</ele>
        <time>2014-07-15T10:36:45Z</time>
      </trkpt>
      <trkpt lat="45.981607865542173" lon="6.89186280593276">
        <ele>2363.0599999999999</ele>
        <time>2014-07-15T10:37:07Z</time>
      </trkpt>
      <trkpt lat="45.981620606034994" lon="6.891877977177501">
        <ele>2363.54</ele>
        <time>2014-07-15T10:37:25Z</time>
      </trkpt>
      <trkpt lat="45.981608619913459" lon="6.891888873651624">
        <ele>2362.0999999999999</ele>
        <time>2014-07-15T10:37:37Z</time>
      </trkpt>
      <trkpt lat="45.981601998209953" lon="6.891862973570824">
        <ele>2362.5799999999999</ele>
        <time>2014-07-15T10:38:00Z</time>
      </trkpt>
      <trkpt lat="45.981600740924478" lon="6.8918486405164">
        <ele>2362.5799999999999</ele>
        <time>2014-07-15T10:38:15Z</time>
      </trkpt>
      <trkpt lat="45.981607027351856" lon="6.891865823417902">
        <ele>2362.5799999999999</ele>
        <time>2014-07-15T10:38:40Z</time>
      </trkpt>
      <trkpt lat="45.981595041230321" lon="6.891880659386516">
        <ele>2362.5799999999999</ele>
        <time>2014-07-15T10:39:15Z</time>
      </trkpt>
      <trkpt lat="45.981582384556532" lon="6.891880910843611">
        <ele>2363.0599999999999</ele>
        <time>2014-07-15T10:39:44Z</time>
      </trkpt>
      <trkpt lat="45.981580708175898" lon="6.891857022419572">
        <ele>2363.0599999999999</ele>
        <time>2014-07-15T10:40:10Z</time>
      </trkpt>
      <trkpt lat="45.981600154191256" lon="6.891884012147784">
        <ele>2363.54</ele>
        <time>2014-07-15T10:40:50Z</time>
      </trkpt>
      <trkpt lat="45.981594454497099" lon="6.891876803711057">
        <ele>2363.0599999999999</ele>
        <time>2014-07-15T10:41:34Z</time>
      </trkpt>
      <trkpt lat="45.981597807258368" lon="6.89189599826932">
        <ele>2363.54</ele>
        <time>2014-07-15T10:42:14Z</time>
      </trkpt>
      <trkpt lat="45.981613816693425" lon="6.891891220584512">
        <ele>2365.46</ele>
        <time>2014-07-15T10:42:52Z</time>
      </trkpt>
      <trkpt lat="45.981608955189586" lon="6.891906727105379">
        <ele>2364.02</ele>
        <time>2014-07-15T10:43:12Z</time>
      </trkpt>
      <trkpt lat="45.981603423133492" lon="6.891898596659303">
        <ele>2364.5</ele>
        <time>2014-07-15T10:43:39Z</time>
      </trkpt>
      <trkpt lat="45.981610966846347" lon="6.891893986612558">
        <ele>2363.54</ele>
        <time>2014-07-15T10:44:12Z</time>
      </trkpt>
      <trkpt lat="45.981623288244009" lon="6.891894657164812">
        <ele>2363.54</ele>
        <time>2014-07-15T10:44:38Z</time>
      </trkpt>
      <trkpt lat="45.981611805036664" lon="6.891895076259971">
        <ele>2364.02</ele>
        <time>2014-07-15T10:45:05Z</time>
      </trkpt>
      <trkpt lat="45.981615744531155" lon="6.891886442899704">
        <ele>2363.54</ele>
        <time>2014-07-15T10:45:31Z</time>
      </trkpt>
      <trkpt lat="45.981616163626313" lon="6.891899015754461">
        <ele>2364.5</ele>
        <time>2014-07-15T10:46:01Z</time>
      </trkpt>
      <trkpt lat="45.981609039008617" lon="6.891884431242943">
        <ele>2364.98</ele>
        <time>2014-07-15T10:46:33Z</time>
      </trkpt>
      <trkpt lat="45.98160426132381" lon="6.891893735155463">
        <ele>2364.5</ele>
        <time>2014-07-15T10:47:00Z</time>
      </trkpt>
      <trkpt lat="45.981615241616964" lon="6.891891388222575">
        <ele>2364.02</ele>
        <time>2014-07-15T10:47:32Z</time>
      </trkpt>
      <trkpt lat="45.981603506952524" lon="6.891872780397534">
        <ele>2364.5</ele>
        <time>2014-07-15T10:48:14Z</time>
      </trkpt>
      <trkpt lat="45.9816082008183" lon="6.891873450949788">
        <ele>2364.5</ele>
        <time>2014-07-15T10:48:53Z</time>
      </trkpt>
      <trkpt lat="45.981609374284744" lon="6.891879653558135">
        <ele>2364.98</ele>
        <time>2014-07-15T10:49:34Z</time>
      </trkpt>
      <trkpt lat="45.981605686247349" lon="6.891897926107049">
        <ele>2364.98</ele>
        <time>2014-07-15T10:50:16Z</time>
      </trkpt>
      <trkpt lat="45.981598058715463" lon="6.891890047118068">
        <ele>2365.46</ele>
        <time>2014-07-15T10:50:53Z</time>
      </trkpt>
      <trkpt lat="45.981592778116465" lon="6.891891052946448">
        <ele>2365.9400000000001</ele>
        <time>2014-07-15T10:51:32Z</time>
      </trkpt>
      <trkpt lat="45.981602165848017" lon="6.891883928328753">
        <ele>2365.9400000000001</ele>
        <time>2014-07-15T10:52:12Z</time>
      </trkpt>
      <trkpt lat="45.981598142534494" lon="6.891908990219235">
        <ele>2365.9400000000001</ele>
        <time>2014-07-15T10:52:48Z</time>
      </trkpt>
      <trkpt lat="45.981610463932157" lon="6.891902117058635">
        <ele>2366.4200000000001</ele>
        <time>2014-07-15T10:53:22Z</time>
      </trkpt>
      <trkpt lat="45.981616917997599" lon="6.891895411536098">
        <ele>2365.9400000000001</ele>
        <time>2014-07-15T10:54:02Z</time>
      </trkpt>
      <trkpt lat="45.981620270758867" lon="6.891899602487683">
        <ele>2365.46</ele>
        <time>2014-07-15T10:54:36Z</time>
      </trkpt>
      <trkpt lat="45.981613146141171" lon="6.891920221969485">
        <ele>2366.4200000000001</ele>
        <time>2014-07-15T10:55:09Z</time>
      </trkpt>
      <trkpt lat="45.981617923825979" lon="6.891916282474995">
        <ele>2365.9400000000001</ele>
        <time>2014-07-15T10:55:47Z</time>
      </trkpt>
      <trkpt lat="45.981615828350186" lon="6.891900105401874">
        <ele>2366.9000000000001</ele>
        <time>2014-07-15T10:56:25Z</time>
      </trkpt>
      <trkpt lat="45.98161599598825" lon="6.891902536153793">
        <ele>2366.9000000000001</ele>
        <time>2014-07-15T10:57:02Z</time>
      </trkpt>
      <trkpt lat="45.981592861935496" lon="6.891901697963476">
        <ele>2367.3800000000001</ele>
        <time>2014-07-15T10:57:32Z</time>
      </trkpt>
      <trkpt lat="45.981599316000938" lon="6.891901614144445">
        <ele>2367.3800000000001</ele>
        <time>2014-07-15T10:58:00Z</time>
      </trkpt>
      <trkpt lat="45.981592526659369" lon="6.891897255554795">
        <ele>2368.3499999999999</ele>
        <time>2014-07-15T10:58:35Z</time>
      </trkpt>
      <trkpt lat="45.981609541922808" lon="6.891906224191189">
        <ele>2368.3499999999999</ele>
        <time>2014-07-15T10:59:02Z</time>
      </trkpt>
      <trkpt lat="45.981616917997599" lon="6.891878060996532">
        <ele>2367.8600000000001</ele>
        <time>2014-07-15T10:59:26Z</time>
      </trkpt>
      <trkpt lat="45.981629909947515" lon="6.891865655779839">
        <ele>2368.3499999999999</ele>
        <time>2014-07-15T10:59:55Z</time>
      </trkpt>
      <trkpt lat="45.981622617691755" lon="6.891889460384846">
        <ele>2368.3499999999999</ele>
        <time>2014-07-15T11:00:27Z</time>
      </trkpt>
      <trkpt lat="45.981635106727481" lon="6.891869427636266">
        <ele>2368.8299999999999</ele>
        <time>2014-07-15T11:00:59Z</time>
      </trkpt>
      <trkpt lat="45.981617756187916" lon="6.891883509233594">
        <ele>2368.3499999999999</ele>
        <time>2014-07-15T11:01:28Z</time>
      </trkpt>
      <trkpt lat="45.981618342921138" lon="6.89187990501523">
        <ele>2368.8299999999999</ele>
        <time>2014-07-15T11:01:51Z</time>
      </trkpt>
      <trkpt lat="45.981638040393591" lon="6.891897423192859">
        <ele>2369.3099999999999</ele>
        <time>2014-07-15T11:02:19Z</time>
      </trkpt>
      <trkpt lat="45.981616750359535" lon="6.891905888915062">
        <ele>2368.8299999999999</ele>
        <time>2014-07-15T11:02:50Z</time>
      </trkpt>
      <trkpt lat="45.98163896240294" lon="6.891875797882676">
        <ele>2368.3499999999999</ele>
        <time>2014-07-15T11:03:13Z</time>
      </trkpt>
      <trkpt lat="45.981589425355196" lon="6.891868757084012">
        <ele>2367.8600000000001</ele>
        <time>2014-07-15T11:03:39Z</time>
      </trkpt>
      <trkpt lat="45.981599567458034" lon="6.891887867823243">
        <ele>2367.8600000000001</ele>
        <time>2014-07-15T11:04:02Z</time>
      </trkpt>
      <trkpt lat="45.981591017916799" lon="6.891910247504711">
        <ele>2368.3499999999999</ele>
        <time>2014-07-15T11:04:28Z</time>
      </trkpt>
      <trkpt lat="45.981586240231991" lon="6.891903122887015">
        <ele>2368.8299999999999</ele>
        <time>2014-07-15T11:04:52Z</time>
      </trkpt>
      <trkpt lat="45.981594622135162" lon="6.891891723498702">
        <ele>2368.8299999999999</ele>
        <time>2014-07-15T11:05:12Z</time>
      </trkpt>
      <trkpt lat="45.981587413698435" lon="6.891875294968486">
        <ele>2368.8299999999999</ele>
        <time>2014-07-15T11:05:34Z</time>
      </trkpt>
      <trkpt lat="45.981587832793593" lon="6.891870265826583">
        <ele>2369.3099999999999</ele>
        <time>2014-07-15T11:06:00Z</time>
      </trkpt>
      <trkpt lat="45.981572074815631" lon="6.891859285533428">
        <ele>2368.8299999999999</ele>
        <time>2014-07-15T11:06:26Z</time>
      </trkpt>
      <trkpt lat="45.981577942147851" lon="6.891870265826583">
        <ele>2369.79</ele>
        <time>2014-07-15T11:06:47Z</time>
      </trkpt>
      <trkpt lat="45.981582468375564" lon="6.891871690750122">
        <ele>2369.79</ele>
        <time>2014-07-15T11:07:14Z</time>
      </trkpt>
      <trkpt lat="45.981571907177567" lon="6.891912762075663">
        <ele>2370.27</ele>
        <time>2014-07-15T11:07:37Z</time>
      </trkpt>
      <trkpt lat="45.981567800045013" lon="6.891912007704377">
        <ele>2370.27</ele>
        <time>2014-07-15T11:08:02Z</time>
      </trkpt>
      <trkpt lat="45.981564531102777" lon="6.891892226412892">
        <ele>2370.27</ele>
        <time>2014-07-15T11:08:34Z</time>
      </trkpt>
      <trkpt lat="45.98154810257256" lon="6.891876803711057">
        <ele>2370.75</ele>
        <time>2014-07-15T11:09:06Z</time>
      </trkpt>
      <trkpt lat="45.98155103623867" lon="6.891864649951458">
        <ele>2370.75</ele>
        <time>2014-07-15T11:09:43Z</time>
      </trkpt>
      <trkpt lat="45.981563609093428" lon="6.891874372959137">
        <ele>2371.71</ele>
        <time>2014-07-15T11:10:09Z</time>
      </trkpt>
      <trkpt lat="45.981561178341508" lon="6.891884850338101">
        <ele>2370.75</ele>
        <time>2014-07-15T11:10:42Z</time>
      </trkpt>
      <trkpt lat="45.981557406485081" lon="6.891886945813894">
        <ele>2370.27</ele>
        <time>2014-07-15T11:11:09Z</time>
      </trkpt>
      <trkpt lat="45.981556149199605" lon="6.891883676871657">
        <ele>2371.23</ele>
        <time>2014-07-15T11:11:43Z</time>
      </trkpt>
      <trkpt lat="45.981552293524146" lon="6.891881246119738">
        <ele>2371.23</ele>
        <time>2014-07-15T11:12:16Z</time>
      </trkpt>
      <trkpt lat="45.981551958248019" lon="6.891901362687349">
        <ele>2371.23</ele>
        <time>2014-07-15T11:12:48Z</time>
      </trkpt>
      <trkpt lat="45.981535110622644" lon="6.891909576952457">
        <ele>2371.23</ele>
        <time>2014-07-15T11:13:20Z</time>
      </trkpt>
      <trkpt lat="45.981542654335499" lon="6.891895076259971">
        <ele>2371.71</ele>
        <time>2014-07-15T11:13:52Z</time>
      </trkpt>
      <trkpt lat="45.981570230796933" lon="6.891890885308385">
        <ele>2371.23</ele>
        <time>2014-07-15T11:14:21Z</time>
      </trkpt>
      <trkpt lat="45.981570146977901" lon="6.891886694356799">
        <ele>2371.71</ele>
        <time>2014-07-15T11:14:44Z</time>
      </trkpt>
      <trkpt lat="45.981569057330489" lon="6.891856854781508">
        <ele>2371.23</ele>
        <time>2014-07-15T11:15:19Z</time>
      </trkpt>
      <trkpt lat="45.981588000431657" lon="6.891825841739774">
        <ele>2371.71</ele>
        <time>2014-07-15T11:15:44Z</time>
      </trkpt>
      <trkpt lat="45.981587246060371" lon="6.891809413209558">
        <ele>2371.71</ele>
        <time>2014-07-15T11:16:05Z</time>
      </trkpt>
      <trkpt lat="45.981573835015297" lon="6.891838163137436">
        <ele>2371.23</ele>
        <time>2014-07-15T11:16:33Z</time>
      </trkpt>
      <trkpt lat="45.98156813532114" lon="6.891892896965146">
        <ele>2370.27</ele>
        <time>2014-07-15T11:17:04Z</time>
      </trkpt>
      <trkpt lat="45.981561010703444" lon="6.891905721276999">
        <ele>2369.79</ele>
        <time>2014-07-15T11:17:33Z</time>
      </trkpt>
      <trkpt lat="45.981555562466383" lon="6.891945619136095">
        <ele>2370.27</ele>
        <time>2014-07-15T11:18:02Z</time>
      </trkpt>
      <trkpt lat="45.981570230796933" lon="6.891913516446948">
        <ele>2369.79</ele>
        <time>2014-07-15T11:18:22Z</time>
      </trkpt>
      <trkpt lat="45.981596047058702" lon="6.891872864216566">
        <ele>2370.27</ele>
        <time>2014-07-15T11:18:52Z</time>
      </trkpt>
      <trkpt lat="45.981601160019636" lon="6.891936315223575">
        <ele>2371.23</ele>
        <time>2014-07-15T11:19:20Z</time>
      </trkpt>
      <trkpt lat="45.981630077585578" lon="6.891938410699368">
        <ele>2370.75</ele>
        <time>2014-07-15T11:19:50Z</time>
      </trkpt>
      <trkpt lat="45.981655642390251" lon="6.891892813146114">
        <ele>2370.27</ele>
        <time>2014-07-15T11:20:22Z</time>
      </trkpt>
      <trkpt lat="45.981624880805612" lon="6.891945032402873">
        <ele>2370.75</ele>
        <time>2014-07-15T11:20:56Z</time>
      </trkpt>
      <trkpt lat="45.98163845948875" lon="6.891931369900703">
        <ele>2370.75</ele>
        <time>2014-07-15T11:21:31Z</time>
      </trkpt>
      <trkpt lat="45.98159110173583" lon="6.891960371285677">
        <ele>2369.79</ele>
        <time>2014-07-15T11:22:05Z</time>
      </trkpt>
      <trkpt lat="45.981528405100107" lon="6.892006052657962">
        <ele>2370.27</ele>
        <time>2014-07-15T11:22:34Z</time>
      </trkpt>
      <trkpt lat="45.981565620750189" lon="6.891933046281338">
        <ele>2370.75</ele>
        <time>2014-07-15T11:23:03Z</time>
      </trkpt>
      <trkpt lat="45.981599148362875" lon="6.891940841451287">
        <ele>2371.23</ele>
        <time>2014-07-15T11:23:38Z</time>
      </trkpt>
      <trkpt lat="45.981620019301772" lon="6.891918042674661">
        <ele>2371.23</ele>
        <time>2014-07-15T11:24:07Z</time>
      </trkpt>
      <trkpt lat="45.981611050665379" lon="6.891941260546446">
        <ele>2371.23</ele>
        <time>2014-07-15T11:24:40Z</time>
      </trkpt>
      <trkpt lat="45.981605350971222" lon="6.891926759853959">
        <ele>2371.23</ele>
        <time>2014-07-15T11:25:16Z</time>
      </trkpt>
      <trkpt lat="45.981595041230321" lon="6.891925754025579">
        <ele>2370.75</ele>
        <time>2014-07-15T11:25:51Z</time>
      </trkpt>
      <trkpt lat="45.981592023745179" lon="6.891924999654293">
        <ele>2371.23</ele>
        <time>2014-07-15T11:26:25Z</time>
      </trkpt>
      <trkpt lat="45.981624629348516" lon="6.891873953863978">
        <ele>2371.23</ele>
        <time>2014-07-15T11:26:59Z</time>
      </trkpt>
      <trkpt lat="45.981609374284744" lon="6.891856268048286">
        <ele>2371.23</ele>
        <time>2014-07-15T11:27:27Z</time>
      </trkpt>
      <trkpt lat="45.981580037623644" lon="6.8919419310987">
        <ele>2371.71</ele>
        <time>2014-07-15T11:27:54Z</time>
      </trkpt>
      <trkpt lat="45.981600657105446" lon="6.891909409314394">
        <ele>2371.71</ele>
        <time>2014-07-15T11:28:30Z</time>
      </trkpt>
      <trkpt lat="45.981645416468382" lon="6.891892477869988">
        <ele>2371.23</ele>
        <time>2014-07-15T11:29:04Z</time>
      </trkpt>
      <trkpt lat="45.981644243001938" lon="6.891900105401874">
        <ele>2371.71</ele>
        <time>2014-07-15T11:29:22Z</time>
      </trkpt>
      <trkpt lat="45.981638040393591" lon="6.891912091523409">
        <ele>2372.1900000000001</ele>
        <time>2014-07-15T11:29:38Z</time>
      </trkpt>
      <trkpt lat="45.981646589934826" lon="6.891848305240274">
        <ele>2371.71</ele>
        <time>2014-07-15T11:29:51Z</time>
      </trkpt>
      <trkpt lat="45.981672238558531" lon="6.891794577240944">
        <ele>2371.71</ele>
        <time>2014-07-15T11:30:05Z</time>
      </trkpt>
      <trkpt lat="45.981664024293423" lon="6.89180220477283">
        <ele>2371.71</ele>
        <time>2014-07-15T11:30:24Z</time>
      </trkpt>
      <trkpt lat="45.981662347912788" lon="6.891791056841612">
        <ele>2371.71</ele>
        <time>2014-07-15T11:30:46Z</time>
      </trkpt>
      <trkpt lat="45.981664527207613" lon="6.891820896416903">
        <ele>2370.75</ele>
        <time>2014-07-15T11:31:11Z</time>
      </trkpt>
      <trkpt lat="45.981663772836328" lon="6.891808910295367">
        <ele>2371.23</ele>
        <time>2014-07-15T11:31:38Z</time>
      </trkpt>
      <trkpt lat="45.981660922989249" lon="6.891800109297037">
        <ele>2371.23</ele>
        <time>2014-07-15T11:32:01Z</time>
      </trkpt>
      <trkpt lat="45.981643823906779" lon="6.891786111518741">
        <ele>2371.71</ele>
        <time>2014-07-15T11:32:35Z</time>
      </trkpt>
      <trkpt lat="45.981653379276395" lon="6.891809580847621">
        <ele>2371.23</ele>
        <time>2014-07-15T11:32:53Z</time>
      </trkpt>
      <trkpt lat="45.981650780886412" lon="6.891806898638606">
        <ele>2371.71</ele>
        <time>2014-07-15T11:33:09Z</time>
      </trkpt>
      <trkpt lat="45.981593700125813" lon="6.891813352704048">
        <ele>2369.79</ele>
        <time>2014-07-15T11:33:23Z</time>
      </trkpt>
      <trkpt lat="45.981552628800273" lon="6.891893148422241">
        <ele>2368.3499999999999</ele>
        <time>2014-07-15T11:33:36Z</time>
      </trkpt>
      <trkpt lat="45.981508372351527" lon="6.89195123501122">
        <ele>2366.4200000000001</ele>
        <time>2014-07-15T11:33:50Z</time>
      </trkpt>
      <trkpt lat="45.98147090524435" lon="6.892039161175489">
        <ele>2364.5</ele>
        <time>2014-07-15T11:34:02Z</time>
      </trkpt>
      <trkpt lat="45.981446681544185" lon="6.891993898898363">
        <ele>2363.0599999999999</ele>
        <time>2014-07-15T11:34:14Z</time>
      </trkpt>
      <trkpt lat="45.981458500027657" lon="6.891876887530088">
        <ele>2362.5799999999999</ele>
        <time>2014-07-15T11:34:26Z</time>
      </trkpt>
      <trkpt lat="45.981430420652032" lon="6.891853082925081">
        <ele>2361.6199999999999</ele>
        <time>2014-07-15T11:34:33Z</time>
      </trkpt>
      <trkpt lat="45.981392618268728" lon="6.891802037134767">
        <ele>2362.5799999999999</ele>
        <time>2014-07-15T11:34:41Z</time>
      </trkpt>
      <trkpt lat="45.981363281607628" lon="6.891711512580514">
        <ele>2363.0599999999999</ele>
        <time>2014-07-15T11:34:53Z</time>
      </trkpt>
      <trkpt lat="45.981370992958546" lon="6.891634650528431">
        <ele>2364.98</ele>
        <time>2014-07-15T11:35:05Z</time>
      </trkpt>
      <trkpt lat="45.981383314356208" lon="6.891609337180853">
        <ele>2365.46</ele>
        <time>2014-07-15T11:35:08Z</time>
      </trkpt>
      <trkpt lat="45.981405442580581" lon="6.891559548676014">
        <ele>2365.46</ele>
        <time>2014-07-15T11:35:12Z</time>
      </trkpt>
      <trkpt lat="45.981471827253699" lon="6.891529960557818">
        <ele>2365.9400000000001</ele>
        <time>2014-07-15T11:35:25Z</time>
      </trkpt>
      <trkpt lat="45.981459086760879" lon="6.891508586704731">
        <ele>2364.98</ele>
        <time>2014-07-15T11:35:36Z</time>
      </trkpt>
      <trkpt lat="45.981464283540845" lon="6.891522500663996">
        <ele>2364.5</ele>
        <time>2014-07-15T11:35:45Z</time>
      </trkpt>
      <trkpt lat="45.98146646283567" lon="6.891517387703061">
        <ele>2364.02</ele>
        <time>2014-07-15T11:36:12Z</time>
      </trkpt>
      <trkpt lat="45.981460176408291" lon="6.891498193144798">
        <ele>2364.5</ele>
        <time>2014-07-15T11:36:45Z</time>
      </trkpt>
      <trkpt lat="45.981479706242681" lon="6.891508586704731">
        <ele>2364.02</ele>
        <time>2014-07-15T11:37:04Z</time>
      </trkpt>
      <trkpt lat="45.981454728171229" lon="6.891512693837285">
        <ele>2365.46</ele>
        <time>2014-07-15T11:37:41Z</time>
      </trkpt>
      <trkpt lat="45.981467049568892" lon="6.891514454036951">
        <ele>2364.5</ele>
        <time>2014-07-15T11:38:01Z</time>
      </trkpt>
      <trkpt lat="45.981514072045684" lon="6.89150607213378">
        <ele>2364.98</ele>
        <time>2014-07-15T11:38:36Z</time>
      </trkpt>
      <trkpt lat="45.981466881930828" lon="6.891494756564498">
        <ele>2364.02</ele>
        <time>2014-07-15T11:39:17Z</time>
      </trkpt>
      <trkpt lat="45.981466127559543" lon="6.891499282792211">
        <ele>2364.5</ele>
        <time>2014-07-15T11:40:03Z</time>
      </trkpt>
      <trkpt lat="45.981467720121145" lon="6.891499198973179">
        <ele>2364.5</ele>
        <time>2014-07-15T11:40:43Z</time>
      </trkpt>
      <trkpt lat="45.981463864445686" lon="6.891478495672345">
        <ele>2364.02</ele>
        <time>2014-07-15T11:41:20Z</time>
      </trkpt>
      <trkpt lat="45.981474677100778" lon="6.891494924202561">
        <ele>2363.54</ele>
        <time>2014-07-15T11:42:05Z</time>
      </trkpt>
      <trkpt lat="45.981478113681078" lon="6.89150070771575">
        <ele>2364.5</ele>
        <time>2014-07-15T11:42:50Z</time>
      </trkpt>
      <trkpt lat="45.981489093974233" lon="6.891510346904397">
        <ele>2364.98</ele>
        <time>2014-07-15T11:43:33Z</time>
      </trkpt>
      <trkpt lat="45.981480712071061" lon="6.891505988314748">
        <ele>2364.02</ele>
        <time>2014-07-15T11:44:09Z</time>
      </trkpt>
      <trkpt lat="45.981488339602947" lon="6.891493750736117">
        <ele>2363.54</ele>
        <time>2014-07-15T11:44:55Z</time>
      </trkpt>
      <trkpt lat="45.981459338217974" lon="6.89148461446166">
        <ele>2364.5</ele>
        <time>2014-07-15T11:45:35Z</time>
      </trkpt>
      <trkpt lat="45.981485992670059" lon="6.891507999971509">
        <ele>2364.5</ele>
        <time>2014-07-15T11:46:18Z</time>
      </trkpt>
      <trkpt lat="45.981475431472063" lon="6.891496600583196">
        <ele>2364.5</ele>
        <time>2014-07-15T11:47:03Z</time>
      </trkpt>
      <trkpt lat="45.981474425643682" lon="6.891509843990207">
        <ele>2364.5</ele>
        <time>2014-07-15T11:47:38Z</time>
      </trkpt>
      <trkpt lat="45.981488171964884" lon="6.891507748514414">
        <ele>2364.5</ele>
        <time>2014-07-15T11:48:17Z</time>
      </trkpt>
      <trkpt lat="45.981473252177238" lon="6.891499366611242">
        <ele>2364.5</ele>
        <time>2014-07-15T11:48:51Z</time>
      </trkpt>
      <trkpt lat="45.981490267440677" lon="6.891506994143128">
        <ele>2364.98</ele>
        <time>2014-07-15T11:49:32Z</time>
      </trkpt>
      <trkpt lat="45.981499990448356" lon="6.89150900579989">
        <ele>2364.5</ele>
        <time>2014-07-15T11:50:09Z</time>
      </trkpt>
      <trkpt lat="45.981460595503449" lon="6.891498528420925">
        <ele>2364.02</ele>
        <time>2014-07-15T11:50:46Z</time>
      </trkpt>
      <trkpt lat="45.981525555253029" lon="6.891504814848304">
        <ele>2364.02</ele>
        <time>2014-07-15T11:51:17Z</time>
      </trkpt>
      <trkpt lat="45.981488842517138" lon="6.891509424895048">
        <ele>2364.02</ele>
        <time>2014-07-15T11:51:47Z</time>
      </trkpt>
      <trkpt lat="45.981468139216304" lon="6.891515459865332">
        <ele>2364.98</ele>
        <time>2014-07-15T11:52:28Z</time>
      </trkpt>
      <trkpt lat="45.981465792283416" lon="6.891510598361492">
        <ele>2364.98</ele>
        <time>2014-07-15T11:53:01Z</time>
      </trkpt>
      <trkpt lat="45.981490351259708" lon="6.89150464721024">
        <ele>2364.02</ele>
        <time>2014-07-15T11:53:40Z</time>
      </trkpt>
      <trkpt lat="45.981483478099108" lon="6.891509676352143">
        <ele>2364.02</ele>
        <time>2014-07-15T11:54:21Z</time>
      </trkpt>
      <trkpt lat="45.981524800881743" lon="6.891498444601893">
        <ele>2364.02</ele>
        <time>2014-07-15T11:55:00Z</time>
      </trkpt>
      <trkpt lat="45.981473587453365" lon="6.891519315540791">
        <ele>2364.5</ele>
        <time>2014-07-15T11:55:34Z</time>
      </trkpt>
      <trkpt lat="45.981477610766888" lon="6.891508251428604">
        <ele>2364.5</ele>
        <time>2014-07-15T11:56:07Z</time>
      </trkpt>
      <trkpt lat="45.981496134772897" lon="6.891519986093044">
        <ele>2364.98</ele>
        <time>2014-07-15T11:56:41Z</time>
      </trkpt>
      <trkpt lat="45.981492698192596" lon="6.89152903854847">
        <ele>2364.5</ele>
        <time>2014-07-15T11:57:14Z</time>
      </trkpt>
      <trkpt lat="45.981497559696436" lon="6.891517974436283">
        <ele>2364.98</ele>
        <time>2014-07-15T11:57:50Z</time>
      </trkpt>
      <trkpt lat="45.981481382623315" lon="6.891513196751475">
        <ele>2364.98</ele>
        <time>2014-07-15T11:58:21Z</time>
      </trkpt>
      <trkpt lat="45.981510719284415" lon="6.891532391309738">
        <ele>2364.98</ele>
        <time>2014-07-15T11:58:53Z</time>
      </trkpt>
      <trkpt lat="45.981452632695436" lon="6.891499701887369">
        <ele>2364.98</ele>
        <time>2014-07-15T11:59:25Z</time>
      </trkpt>
      <trkpt lat="45.981496972963214" lon="6.891510430723429">
        <ele>2364.98</ele>
        <time>2014-07-15T12:00:04Z</time>
      </trkpt>
      <trkpt lat="45.981515664607286" lon="6.89151487313211">
        <ele>2364.02</ele>
        <time>2014-07-15T12:00:47Z</time>
      </trkpt>
      <trkpt lat="45.981494542211294" lon="6.891510682180524">
        <ele>2364.5</ele>
        <time>2014-07-15T12:01:22Z</time>
      </trkpt>
      <trkpt lat="45.981511725112796" lon="6.891502216458321">
        <ele>2364.98</ele>
        <time>2014-07-15T12:01:54Z</time>
      </trkpt>
      <trkpt lat="45.981479706242681" lon="6.891517890617251">
        <ele>2364.98</ele>
        <time>2014-07-15T12:02:28Z</time>
      </trkpt>
      <trkpt lat="45.981487752869725" lon="6.891506742686033">
        <ele>2364.98</ele>
        <time>2014-07-15T12:03:00Z</time>
      </trkpt>
      <trkpt lat="45.981524046510458" lon="6.891527781262994">
        <ele>2364.98</ele>
        <time>2014-07-15T12:03:29Z</time>
      </trkpt>
      <trkpt lat="45.981517340987921" lon="6.891507999971509">
        <ele>2365.46</ele>
        <time>2014-07-15T12:04:00Z</time>
      </trkpt>
      <trkpt lat="45.981487752869725" lon="6.891509843990207">
        <ele>2365.9400000000001</ele>
        <time>2014-07-15T12:04:29Z</time>
      </trkpt>
      <trkpt lat="45.981482723727822" lon="6.891540102660656">
        <ele>2365.46</ele>
        <time>2014-07-15T12:05:00Z</time>
      </trkpt>
      <trkpt lat="45.98148699849844" lon="6.891527026891708">
        <ele>2365.9400000000001</ele>
        <time>2014-07-15T12:05:37Z</time>
      </trkpt>
      <trkpt lat="45.981468558311462" lon="6.891508251428604">
        <ele>2365.9400000000001</ele>
        <time>2014-07-15T12:06:12Z</time>
      </trkpt>
      <trkpt lat="45.981483059003949" lon="6.891522668302059">
        <ele>2366.4200000000001</ele>
        <time>2014-07-15T12:06:45Z</time>
      </trkpt>
      <trkpt lat="45.981476437300444" lon="6.891532056033611">
        <ele>2365.9400000000001</ele>
        <time>2014-07-15T12:07:21Z</time>
      </trkpt>
      <trkpt lat="45.981482304632664" lon="6.891521159559488">
        <ele>2365.46</ele>
        <time>2014-07-15T12:07:55Z</time>
      </trkpt>
      <trkpt lat="45.98146503791213" lon="6.891515292227268">
        <ele>2365.46</ele>
        <time>2014-07-15T12:08:25Z</time>
      </trkpt>
      <trkpt lat="45.981485741212964" lon="6.891534570604563">
        <ele>2365.9400000000001</ele>
        <time>2014-07-15T12:09:02Z</time>
      </trkpt>
      <trkpt lat="45.981478448957205" lon="6.891502803191543">
        <ele>2365.9400000000001</ele>
        <time>2014-07-15T12:09:39Z</time>
      </trkpt>
      <trkpt lat="45.981493284925818" lon="6.891512610018253">
        <ele>2365.9400000000001</ele>
        <time>2014-07-15T12:10:12Z</time>
      </trkpt>
      <trkpt lat="45.981500325724483" lon="6.891521411016583">
        <ele>2364.98</ele>
        <time>2014-07-15T12:10:45Z</time>
      </trkpt>
      <trkpt lat="45.981481885537505" lon="6.891516549512744">
        <ele>2364.98</ele>
        <time>2014-07-15T12:11:19Z</time>
      </trkpt>
      <trkpt lat="45.981488171964884" lon="6.891518561169505">
        <ele>2365.46</ele>
        <time>2014-07-15T12:11:51Z</time>
      </trkpt>
      <trkpt lat="45.981494961306453" lon="6.891542449593544">
        <ele>2365.46</ele>
        <time>2014-07-15T12:12:27Z</time>
      </trkpt>
      <trkpt lat="45.981473000720143" lon="6.891519818454981">
        <ele>2365.46</ele>
        <time>2014-07-15T12:13:03Z</time>
      </trkpt>
      <trkpt lat="45.981490015983582" lon="6.89150707796216">
        <ele>2365.9400000000001</ele>
        <time>2014-07-15T12:13:38Z</time>
      </trkpt>
      <trkpt lat="45.981485322117805" lon="6.891505569219589">
        <ele>2365.9400000000001</ele>
        <time>2014-07-15T12:14:15Z</time>
      </trkpt>
      <trkpt lat="45.981447100639343" lon="6.891497103497386">
        <ele>2366.4200000000001</ele>
        <time>2014-07-15T12:14:52Z</time>
      </trkpt>
      <trkpt lat="45.981457913294435" lon="6.891518896445632">
        <ele>2365.46</ele>
        <time>2014-07-15T12:15:19Z</time>
      </trkpt>
      <trkpt lat="45.981469564139843" lon="6.891517303884029">
        <ele>2365.46</ele>
        <time>2014-07-15T12:15:51Z</time>
      </trkpt>
      <trkpt lat="45.981466295197606" lon="6.891514705494046">
        <ele>2365.46</ele>
        <time>2014-07-15T12:16:25Z</time>
      </trkpt>
      <trkpt lat="45.981475682929158" lon="6.891514956951141">
        <ele>2364.5</ele>
        <time>2014-07-15T12:16:59Z</time>
      </trkpt>
      <trkpt lat="45.981457494199276" lon="6.891512861475349">
        <ele>2364.02</ele>
        <time>2014-07-15T12:17:30Z</time>
      </trkpt>
      <trkpt lat="45.981470821425319" lon="6.891523087397218">
        <ele>2363.0599999999999</ele>
        <time>2014-07-15T12:18:04Z</time>
      </trkpt>
      <trkpt lat="45.981492111459374" lon="6.891527781262994">
        <ele>2364.5</ele>
        <time>2014-07-15T12:18:50Z</time>
      </trkpt>
      <trkpt lat="45.981481885537505" lon="6.891533061861992">
        <ele>2364.98</ele>
        <time>2014-07-15T12:19:25Z</time>
      </trkpt>
      <trkpt lat="45.981488171964884" lon="6.891516968607903">
        <ele>2364.5</ele>
        <time>2014-07-15T12:19:56Z</time>
      </trkpt>
      <trkpt lat="45.981477526947856" lon="6.891512274742127">
        <ele>2364.5</ele>
        <time>2014-07-15T12:20:22Z</time>
      </trkpt>
      <trkpt lat="45.981460260227323" lon="6.891506323590875">
        <ele>2364.5</ele>
        <time>2014-07-15T12:21:04Z</time>
      </trkpt>
      <trkpt lat="45.981491943821311" lon="6.891528954729438">
        <ele>2364.5</ele>
        <time>2014-07-15T12:21:33Z</time>
      </trkpt>
      <trkpt lat="45.981503594666719" lon="6.891538426280022">
        <ele>2364.5</ele>
        <time>2014-07-15T12:22:06Z</time>
      </trkpt>
      <trkpt lat="45.98149236291647" lon="6.891540018841624">
        <ele>2364.98</ele>
        <time>2014-07-15T12:22:42Z</time>
      </trkpt>
      <trkpt lat="45.981485405936837" lon="6.891520656645298">
        <ele>2364.5</ele>
        <time>2014-07-15T12:23:21Z</time>
      </trkpt>
      <trkpt lat="45.981485405936837" lon="6.891525434330106">
        <ele>2363.54</ele>
        <time>2014-07-15T12:24:01Z</time>
      </trkpt>
      <trkpt lat="45.981481717899442" lon="6.891529876738787">
        <ele>2364.02</ele>
        <time>2014-07-15T12:24:28Z</time>
      </trkpt>
      <trkpt lat="45.981484232470393" lon="6.891541946679354">
        <ele>2364.5</ele>
        <time>2014-07-15T12:24:59Z</time>
      </trkpt>
      <trkpt lat="45.981497056782246" lon="6.891526440158486">
        <ele>2364.98</ele>
        <time>2014-07-15T12:25:33Z</time>
      </trkpt>
      <trkpt lat="45.981500074267387" lon="6.891551082953811">
        <ele>2364.5</ele>
        <time>2014-07-15T12:26:03Z</time>
      </trkpt>
      <trkpt lat="45.981495967134833" lon="6.891516800969839">
        <ele>2364.5</ele>
        <time>2014-07-15T12:26:39Z</time>
      </trkpt>
      <trkpt lat="45.981495128944516" lon="6.891515208408237">
        <ele>2364.5</ele>
        <time>2014-07-15T12:27:08Z</time>
      </trkpt>
      <trkpt lat="45.981463612988591" lon="6.89152124337852">
        <ele>2364.98</ele>
        <time>2014-07-15T12:27:45Z</time>
      </trkpt>
      <trkpt lat="45.98146453499794" lon="6.891510346904397">
        <ele>2365.46</ele>
        <time>2014-07-15T12:28:16Z</time>
      </trkpt>
      <trkpt lat="45.981483226642013" lon="6.891511855646968">
        <ele>2365.9400000000001</ele>
        <time>2014-07-15T12:28:50Z</time>
      </trkpt>
      <trkpt lat="45.981461349874735" lon="6.891530295833945">
        <ele>2365.46</ele>
        <time>2014-07-15T12:29:21Z</time>
      </trkpt>
      <trkpt lat="45.981476185843349" lon="6.89152467995882">
        <ele>2364.98</ele>
        <time>2014-07-15T12:29:50Z</time>
      </trkpt>
      <trkpt lat="45.981456488370895" lon="6.891527445986867">
        <ele>2364.98</ele>
        <time>2014-07-15T12:30:16Z</time>
      </trkpt>
      <trkpt lat="45.981459086760879" lon="6.891541946679354">
        <ele>2364.98</ele>
        <time>2014-07-15T12:30:55Z</time>
      </trkpt>
      <trkpt lat="45.981477610766888" lon="6.89152711071074">
        <ele>2364.98</ele>
        <time>2014-07-15T12:31:29Z</time>
      </trkpt>
      <trkpt lat="45.981467720121145" lon="6.891503054648638">
        <ele>2364.5</ele>
        <time>2014-07-15T12:31:56Z</time>
      </trkpt>
      <trkpt lat="45.981455650180578" lon="6.891526859253645">
        <ele>2364.02</ele>
        <time>2014-07-15T12:32:25Z</time>
      </trkpt>
      <trkpt lat="45.981469564139843" lon="6.891533480957151">
        <ele>2364.02</ele>
        <time>2014-07-15T12:32:52Z</time>
      </trkpt>
      <trkpt lat="45.981450956314802" lon="6.891515124589205">
        <ele>2364.5</ele>
        <time>2014-07-15T12:33:10Z</time>
      </trkpt>
      <trkpt lat="45.981433857232332" lon="6.891520153731108">
        <ele>2364.98</ele>
        <time>2014-07-15T12:33:29Z</time>
      </trkpt>
      <trkpt lat="45.981433689594269" lon="6.891490481793881">
        <ele>2364.98</ele>
        <time>2014-07-15T12:33:52Z</time>
      </trkpt>
      <trkpt lat="45.981440898030996" lon="6.891509760171175">
        <ele>2365.46</ele>
        <time>2014-07-15T12:34:07Z</time>
      </trkpt>
      <trkpt lat="45.981425642967224" lon="6.891524344682694">
        <ele>2365.46</ele>
        <time>2014-07-15T12:34:28Z</time>
      </trkpt>
      <trkpt lat="45.981440646573901" lon="6.891495594754815">
        <ele>2365.46</ele>
        <time>2014-07-15T12:34:47Z</time>
      </trkpt>
      <trkpt lat="45.981429079547524" lon="6.891535157337785">
        <ele>2365.46</ele>
        <time>2014-07-15T12:35:00Z</time>
      </trkpt>
      <trkpt lat="45.981424804776907" lon="6.891537001356483">
        <ele>2364.5</ele>
        <time>2014-07-15T12:35:11Z</time>
      </trkpt>
      <trkpt lat="45.981423798948526" lon="6.891511520370841">
        <ele>2365.46</ele>
        <time>2014-07-15T12:35:24Z</time>
      </trkpt>
      <trkpt lat="45.981409465894103" lon="6.891525015234947">
        <ele>2365.9400000000001</ele>
        <time>2014-07-15T12:35:37Z</time>
      </trkpt>
      <trkpt lat="45.981414997950196" lon="6.891518393531442">
        <ele>2365.46</ele>
        <time>2014-07-15T12:35:55Z</time>
      </trkpt>
      <trkpt lat="45.98139219917357" lon="6.891510263085365">
        <ele>2364.98</ele>
        <time>2014-07-15T12:36:22Z</time>
      </trkpt>
      <trkpt lat="45.981385912746191" lon="6.891523255035281">
        <ele>2365.9400000000001</ele>
        <time>2014-07-15T12:36:24Z</time>
      </trkpt>
      <trkpt lat="45.981348026543856" lon="6.89157597720623">
        <ele>2364.98</ele>
        <time>2014-07-15T12:36:31Z</time>
      </trkpt>
      <trkpt lat="45.981235960498452" lon="6.891596345230937">
        <ele>2364.02</ele>
        <time>2014-07-15T12:36:45Z</time>
      </trkpt>
      <trkpt lat="45.981151890009642" lon="6.891528367996216">
        <ele>2367.3800000000001</ele>
        <time>2014-07-15T12:36:58Z</time>
      </trkpt>
      <trkpt lat="45.981092881411314" lon="6.891527529805899">
        <ele>2368.3499999999999</ele>
        <time>2014-07-15T12:37:10Z</time>
      </trkpt>
      <trkpt lat="45.981089361011982" lon="6.891534067690373">
        <ele>2367.8600000000001</ele>
        <time>2014-07-15T12:37:11Z</time>
      </trkpt>
      <trkpt lat="45.98098324611783" lon="6.891542449593544">
        <ele>2366.9000000000001</ele>
        <time>2014-07-15T12:37:26Z</time>
      </trkpt>
      <trkpt lat="45.980941839516163" lon="6.891453852877021">
        <ele>2364.98</ele>
        <time>2014-07-15T12:37:34Z</time>
      </trkpt>
      <trkpt lat="45.980903785675764" lon="6.891438011080027">
        <ele>2364.5</ele>
        <time>2014-07-15T12:37:42Z</time>
      </trkpt>
      <trkpt lat="45.980817954987288" lon="6.891372799873352">
        <ele>2362.5799999999999</ele>
        <time>2014-07-15T12:37:53Z</time>
      </trkpt>
      <trkpt lat="45.980752659961581" lon="6.89129451289773">
        <ele>2360.6500000000001</ele>
        <time>2014-07-15T12:38:03Z</time>
      </trkpt>
      <trkpt lat="45.980705972760916" lon="6.891280598938465">
        <ele>2361.1399999999999</ele>
        <time>2014-07-15T12:38:08Z</time>
      </trkpt>
      <trkpt lat="45.980684850364923" lon="6.891293004155159">
        <ele>2362.0999999999999</ele>
        <time>2014-07-15T12:38:10Z</time>
      </trkpt>
      <trkpt lat="45.980663895606995" lon="6.891307253390551">
        <ele>2363.0599999999999</ele>
        <time>2014-07-15T12:38:13Z</time>
      </trkpt>
      <trkpt lat="45.980625925585628" lon="6.891319323331118">
        <ele>2362.5799999999999</ele>
        <time>2014-07-15T12:38:17Z</time>
      </trkpt>
      <trkpt lat="45.980518553406" lon="6.891338853165507">
        <ele>2363.0599999999999</ele>
        <time>2014-07-15T12:38:30Z</time>
      </trkpt>
      <trkpt lat="45.980501538142562" lon="6.891344133764505">
        <ele>2362.5799999999999</ele>
        <time>2014-07-15T12:38:32Z</time>
      </trkpt>
      <trkpt lat="45.980347730219364" lon="6.891347067430615">
        <ele>2363.54</ele>
        <time>2014-07-15T12:38:48Z</time>
      </trkpt>
      <trkpt lat="45.980317052453756" lon="6.891358466818929">
        <ele>2363.0599999999999</ele>
        <time>2014-07-15T12:38:51Z</time>
      </trkpt>
      <trkpt lat="45.980182690545917" lon="6.891397191211581">
        <ele>2364.02</ele>
        <time>2014-07-15T12:39:07Z</time>
      </trkpt>
      <trkpt lat="45.980149079114199" lon="6.891459133476019">
        <ele>2365.46</ele>
        <time>2014-07-15T12:39:16Z</time>
      </trkpt>
      <trkpt lat="45.980143044143915" lon="6.891568601131439">
        <ele>2364.5</ele>
        <time>2014-07-15T12:39:33Z</time>
      </trkpt>
      <trkpt lat="45.98013206385076" lon="6.891562901437283">
        <ele>2364.02</ele>
        <time>2014-07-15T12:39:34Z</time>
      </trkpt>
      <trkpt lat="45.980080347508192" lon="6.891399370506406">
        <ele>2364.02</ele>
        <time>2014-07-15T12:39:49Z</time>
      </trkpt>
      <trkpt lat="45.98007389344275" lon="6.891381433233619">
        <ele>2364.02</ele>
        <time>2014-07-15T12:39:51Z</time>
      </trkpt>
      <trkpt lat="45.980057800188661" lon="6.891241287812591">
        <ele>2362.5799999999999</ele>
        <time>2014-07-15T12:40:03Z</time>
      </trkpt>
      <trkpt lat="45.980039946734905" lon="6.891189403831959">
        <ele>2364.5</ele>
        <time>2014-07-15T12:40:08Z</time>
      </trkpt>
      <trkpt lat="45.980029720813036" lon="6.891081780195236">
        <ele>2360.6500000000001</ele>
        <time>2014-07-15T12:40:15Z</time>
      </trkpt>
      <trkpt lat="45.979994768276811" lon="6.890917243435979">
        <ele>2357.77</ele>
        <time>2014-07-15T12:40:31Z</time>
      </trkpt>
      <trkpt lat="45.979989990592003" lon="6.890928978100419">
        <ele>2357.77</ele>
        <time>2014-07-15T12:40:32Z</time>
      </trkpt>
      <trkpt lat="45.979989152401686" lon="6.890989327803254">
        <ele>2357.77</ele>
        <time>2014-07-15T12:40:35Z</time>
      </trkpt>
      <trkpt lat="45.979943890124559" lon="6.891179010272026">
        <ele>2355.3699999999999</ele>
        <time>2014-07-15T12:40:47Z</time>
      </trkpt>
      <trkpt lat="45.979903405532241" lon="6.891326028853655">
        <ele>2352.48</ele>
        <time>2014-07-15T12:41:01Z</time>
      </trkpt>
      <trkpt lat="45.979840373620391" lon="6.891430970281363">
        <ele>2349.5999999999999</ele>
        <time>2014-07-15T12:41:15Z</time>
      </trkpt>
      <trkpt lat="45.979780359193683" lon="6.891557034105063">
        <ele>2347.1999999999998</ele>
        <time>2014-07-15T12:41:30Z</time>
      </trkpt>
      <trkpt lat="45.97974213771522" lon="6.89163607545197">
        <ele>2343.8299999999999</ele>
        <time>2014-07-15T12:41:45Z</time>
      </trkpt>
      <trkpt lat="45.979702491313219" lon="6.891537420451641">
        <ele>2342.8699999999999</ele>
        <time>2014-07-15T12:41:58Z</time>
      </trkpt>
      <trkpt lat="45.979665359482169" lon="6.89146064221859">
        <ele>2340.4699999999998</ele>
        <time>2014-07-15T12:42:10Z</time>
      </trkpt>
      <trkpt lat="45.979608613997698" lon="6.891470616683364">
        <ele>2339.02</ele>
        <time>2014-07-15T12:42:18Z</time>
      </trkpt>
      <trkpt lat="45.979548264294863" lon="6.891500875353813">
        <ele>2337.0999999999999</ele>
        <time>2014-07-15T12:42:34Z</time>
      </trkpt>
      <trkpt lat="45.979513227939606" lon="6.89146751537919">
        <ele>2335.6599999999999</ele>
        <time>2014-07-15T12:42:46Z</time>
      </trkpt>
      <trkpt lat="45.97946603782475" lon="6.891441531479359">
        <ele>2333.7399999999998</ele>
        <time>2014-07-15T12:42:58Z</time>
      </trkpt>
      <trkpt lat="45.979380877688527" lon="6.891486961394548">
        <ele>2331.3299999999999</ele>
        <time>2014-07-15T12:43:11Z</time>
      </trkpt>
      <trkpt lat="45.979302087798715" lon="6.891486290842295">
        <ele>2329.4099999999999</ele>
        <time>2014-07-15T12:43:25Z</time>
      </trkpt>
      <trkpt lat="45.979210054501891" lon="6.89151587896049">
        <ele>2327.0100000000002</ele>
        <time>2014-07-15T12:43:39Z</time>
      </trkpt>
      <trkpt lat="45.979177616536617" lon="6.891523506492376">
        <ele>2326.0500000000002</ele>
        <time>2014-07-15T12:43:43Z</time>
      </trkpt>
      <trkpt lat="45.979105029255152" lon="6.891613947227597">
        <ele>2322.6799999999998</ele>
        <time>2014-07-15T12:43:57Z</time>
      </trkpt>
      <trkpt lat="45.979089187458158" lon="6.891618892550468">
        <ele>2321.7199999999998</ele>
        <time>2014-07-15T12:43:59Z</time>
      </trkpt>
      <trkpt lat="45.978992292657495" lon="6.891638590022922">
        <ele>2318.8400000000001</ele>
        <time>2014-07-15T12:44:10Z</time>
      </trkpt>
      <trkpt lat="45.978942671790719" lon="6.891641523689032">
        <ele>2317.8800000000001</ele>
        <time>2014-07-15T12:44:16Z</time>
      </trkpt>
      <trkpt lat="45.978889530524611" lon="6.891582766547799">
        <ele>2317.8800000000001</ele>
        <time>2014-07-15T12:44:28Z</time>
      </trkpt>
      <trkpt lat="45.978812165558338" lon="6.891631716862321">
        <ele>2316.4299999999998</ele>
        <time>2014-07-15T12:44:42Z</time>
      </trkpt>
      <trkpt lat="45.978756761178374" lon="6.891636746004224">
        <ele>2314.9899999999998</ele>
        <time>2014-07-15T12:44:49Z</time>
      </trkpt>
      <trkpt lat="45.978731028735638" lon="6.8916155397892">
        <ele>2313.5500000000002</ele>
        <time>2014-07-15T12:44:52Z</time>
      </trkpt>
      <trkpt lat="45.978667242452502" lon="6.891578994691372">
        <ele>2311.1500000000001</ele>
        <time>2014-07-15T12:45:04Z</time>
      </trkpt>
      <trkpt lat="45.978659698739648" lon="6.891588550060988">
        <ele>2311.1500000000001</ele>
        <time>2014-07-15T12:45:05Z</time>
      </trkpt>
      <trkpt lat="45.978618878871202" lon="6.891591148450971">
        <ele>2308.2600000000002</ele>
        <time>2014-07-15T12:45:09Z</time>
      </trkpt>
      <trkpt lat="45.97859775647521" lon="6.891597434878349">
        <ele>2307.3000000000002</ele>
        <time>2014-07-15T12:45:11Z</time>
      </trkpt>
      <trkpt lat="45.978578478097916" lon="6.891624508425593">
        <ele>2307.3000000000002</ele>
        <time>2014-07-15T12:45:14Z</time>
      </trkpt>
      <trkpt lat="45.978530030697584" lon="6.891683014109731">
        <ele>2306.8200000000002</ele>
        <time>2014-07-15T12:45:21Z</time>
      </trkpt>
      <trkpt lat="45.978445122018456" lon="6.891748895868659">
        <ele>2304.9000000000001</ele>
        <time>2014-07-15T12:45:36Z</time>
      </trkpt>
      <trkpt lat="45.97842626273632" lon="6.89174210652709">
        <ele>2305.3800000000001</ele>
        <time>2014-07-15T12:45:56Z</time>
      </trkpt>
      <trkpt lat="45.97844042815268" lon="6.891766330227256">
        <ele>2304.9000000000001</ele>
        <time>2014-07-15T12:46:03Z</time>
      </trkpt>
      <trkpt lat="45.978435315191746" lon="6.891777897253633">
        <ele>2304.4200000000001</ele>
        <time>2014-07-15T12:46:04Z</time>
      </trkpt>
      <trkpt lat="45.978384520858526" lon="6.891864901408553">
        <ele>2302.4899999999998</ele>
        <time>2014-07-15T12:46:16Z</time>
      </trkpt>
      <trkpt lat="45.978393321856856" lon="6.891836989670992">
        <ele>2302.4899999999998</ele>
        <time>2014-07-15T12:46:37Z</time>
      </trkpt>
      <trkpt lat="45.978390723466873" lon="6.891837660223246">
        <ele>2302.0100000000002</ele>
        <time>2014-07-15T12:46:53Z</time>
      </trkpt>
      <trkpt lat="45.978377060964704" lon="6.891863895580173">
        <ele>2302.4899999999998</ele>
        <time>2014-07-15T12:46:55Z</time>
      </trkpt>
      <trkpt lat="45.978291984647512" lon="6.891911253333092">
        <ele>2299.1300000000001</ele>
        <time>2014-07-15T12:47:06Z</time>
      </trkpt>
      <trkpt lat="45.978284189477563" lon="6.891938578337431">
        <ele>2298.1700000000001</ele>
        <time>2014-07-15T12:47:10Z</time>
      </trkpt>
      <trkpt lat="45.978265330195427" lon="6.892016110941768">
        <ele>2296.73</ele>
        <time>2014-07-15T12:47:16Z</time>
      </trkpt>
      <trkpt lat="45.978193078190088" lon="6.892066150903702">
        <ele>2295.77</ele>
        <time>2014-07-15T12:47:23Z</time>
      </trkpt>
      <trkpt lat="45.978132728487253" lon="6.892138319090009">
        <ele>2294.8000000000002</ele>
        <time>2014-07-15T12:47:30Z</time>
      </trkpt>
      <trkpt lat="45.978131806477904" lon="6.892163129523397">
        <ele>2294.3200000000002</ele>
        <time>2014-07-15T12:47:45Z</time>
      </trkpt>
      <trkpt lat="45.978140272200108" lon="6.892170589417219">
        <ele>2294.8000000000002</ele>
        <time>2014-07-15T12:47:46Z</time>
      </trkpt>
      <trkpt lat="45.97813013009727" lon="6.892236890271306">
        <ele>2292.4000000000001</ele>
        <time>2014-07-15T12:47:53Z</time>
      </trkpt>
      <trkpt lat="45.978067349642515" lon="6.892229095101357">
        <ele>2290.96</ele>
        <time>2014-07-15T12:47:58Z</time>
      </trkpt>
      <trkpt lat="45.978035917505622" lon="6.892234291881323">
        <ele>2290.48</ele>
        <time>2014-07-15T12:48:03Z</time>
      </trkpt>
      <trkpt lat="45.978017980232835" lon="6.892265304923058">
        <ele>2291.4400000000001</ele>
        <time>2014-07-15T12:48:07Z</time>
      </trkpt>
      <trkpt lat="45.9780318941921" lon="6.892296066507697">
        <ele>2289.04</ele>
        <time>2014-07-15T12:48:10Z</time>
      </trkpt>
      <trkpt lat="45.978037258610129" lon="6.892312662675977">
        <ele>2288.5599999999999</ele>
        <time>2014-07-15T12:48:12Z</time>
      </trkpt>
      <trkpt lat="45.978075731545687" lon="6.892324984073639">
        <ele>2288.0799999999999</ele>
        <time>2014-07-15T12:48:16Z</time>
      </trkpt>
      <trkpt lat="45.978166004642844" lon="6.892405869439244">
        <ele>2285.1900000000001</ele>
        <time>2014-07-15T12:48:29Z</time>
      </trkpt>
      <trkpt lat="45.978119736537337" lon="6.892433864995837">
        <ele>2282.79</ele>
        <time>2014-07-15T12:48:42Z</time>
      </trkpt>
      <trkpt lat="45.978075983002782" lon="6.89249019138515">
        <ele>2281.3499999999999</ele>
        <time>2014-07-15T12:48:53Z</time>
      </trkpt>
      <trkpt lat="45.978059219196439" lon="6.892516510561109">
        <ele>2279.9000000000001</ele>
        <time>2014-07-15T12:48:56Z</time>
      </trkpt>
      <trkpt lat="45.978036671876907" lon="6.892543165013194">
        <ele>2277.5</ele>
        <time>2014-07-15T12:49:01Z</time>
      </trkpt>
      <trkpt lat="45.978059219196439" lon="6.89256152138114">
        <ele>2276.54</ele>
        <time>2014-07-15T12:49:03Z</time>
      </trkpt>
      <trkpt lat="45.978107079863548" lon="6.89258792437613">
        <ele>2275.0999999999999</ele>
        <time>2014-07-15T12:49:11Z</time>
      </trkpt>
      <trkpt lat="45.978028709068894" lon="6.892612986266613">
        <ele>2273.6599999999999</ele>
        <time>2014-07-15T12:49:18Z</time>
      </trkpt>
      <trkpt lat="45.977937681600451" lon="6.892624385654926">
        <ele>2271.73</ele>
        <time>2014-07-15T12:49:29Z</time>
      </trkpt>
      <trkpt lat="45.977834919467568" lon="6.892646094784141">
        <ele>2268.3699999999999</ele>
        <time>2014-07-15T12:49:42Z</time>
      </trkpt>
      <trkpt lat="45.977744981646538" lon="6.892530424520373">
        <ele>2265.96</ele>
        <time>2014-07-15T12:49:57Z</time>
      </trkpt>
      <trkpt lat="45.977708604186773" lon="6.892549702897668">
        <ele>2265</ele>
        <time>2014-07-15T12:50:09Z</time>
      </trkpt>
      <trkpt lat="45.977745484560728" lon="6.892637126147747">
        <ele>2263.0799999999999</ele>
        <time>2014-07-15T12:50:18Z</time>
      </trkpt>
      <trkpt lat="45.977716064080596" lon="6.892757322639227">
        <ele>2260.6799999999998</ele>
        <time>2014-07-15T12:50:30Z</time>
      </trkpt>
      <trkpt lat="45.977685302495956" lon="6.892751958221197">
        <ele>2258.75</ele>
        <time>2014-07-15T12:50:40Z</time>
      </trkpt>
      <trkpt lat="45.977682955563068" lon="6.892744414508343">
        <ele>2258.27</ele>
        <time>2014-07-15T12:50:41Z</time>
      </trkpt>
      <trkpt lat="45.977654792368412" lon="6.892693284898996">
        <ele>2256.3499999999999</ele>
        <time>2014-07-15T12:50:45Z</time>
      </trkpt>
      <trkpt lat="45.977599639445543" lon="6.892660846933723">
        <ele>2254.9099999999999</ele>
        <time>2014-07-15T12:50:57Z</time>
      </trkpt>
      <trkpt lat="45.977558819577098" lon="6.892676772549748">
        <ele>2251.54</ele>
        <time>2014-07-15T12:51:06Z</time>
      </trkpt>
      <trkpt lat="45.977538451552391" lon="6.892686076462269">
        <ele>2250.5799999999999</ele>
        <time>2014-07-15T12:51:08Z</time>
      </trkpt>
      <trkpt lat="45.977446334436536" lon="6.892704768106341">
        <ele>2248.1799999999998</ele>
        <time>2014-07-15T12:51:21Z</time>
      </trkpt>
      <trkpt lat="45.977431749925017" lon="6.892685992643237">
        <ele>2246.2600000000002</ele>
        <time>2014-07-15T12:51:25Z</time>
      </trkpt>
      <trkpt lat="45.977428397163749" lon="6.892715748399496">
        <ele>2245.3000000000002</ele>
        <time>2014-07-15T12:51:36Z</time>
      </trkpt>
      <trkpt lat="45.977408699691296" lon="6.8927604239434">
        <ele>2243.8499999999999</ele>
        <time>2014-07-15T12:51:47Z</time>
      </trkpt>
      <trkpt lat="45.97735807299614" lon="6.892770985141397">
        <ele>2242.4099999999999</ele>
        <time>2014-07-15T12:52:02Z</time>
      </trkpt>
      <trkpt lat="45.977315325289965" lon="6.892756065353751">
        <ele>2240.4899999999998</ele>
        <time>2014-07-15T12:52:05Z</time>
      </trkpt>
      <trkpt lat="45.977283390238881" lon="6.892701080068946">
        <ele>2240.9699999999998</ele>
        <time>2014-07-15T12:52:19Z</time>
      </trkpt>
      <trkpt lat="45.977279115468264" lon="6.89269688911736">
        <ele>2240.4899999999998</ele>
        <time>2014-07-15T12:52:20Z</time>
      </trkpt>
      <trkpt lat="45.977267548441887" lon="6.892667133361101">
        <ele>2239.5300000000002</ele>
        <time>2014-07-15T12:52:22Z</time>
      </trkpt>
      <trkpt lat="45.977208120748401" lon="6.892655063420534">
        <ele>2238.0900000000001</ele>
        <time>2014-07-15T12:52:30Z</time>
      </trkpt>
      <trkpt lat="45.977179538458586" lon="6.892659170553088">
        <ele>2237.6100000000001</ele>
        <time>2014-07-15T12:52:32Z</time>
      </trkpt>
      <trkpt lat="45.977091528475285" lon="6.892750449478626">
        <ele>2234.7199999999998</ele>
        <time>2014-07-15T12:52:45Z</time>
      </trkpt>
      <trkpt lat="45.977027658373117" lon="6.892747851088643">
        <ele>2233.2800000000002</ele>
        <time>2014-07-15T12:52:59Z</time>
      </trkpt>
      <trkpt lat="45.977041320875287" lon="6.89273988828063">
        <ele>2233.2800000000002</ele>
        <time>2014-07-15T12:53:19Z</time>
      </trkpt>
      <trkpt lat="45.97704048268497" lon="6.892717089504004">
        <ele>2233.7600000000002</ele>
        <time>2014-07-15T12:53:34Z</time>
      </trkpt>
      <trkpt lat="45.977042326703668" lon="6.892741983756423">
        <ele>2233.7600000000002</ele>
        <time>2014-07-15T12:53:52Z</time>
      </trkpt>
      <trkpt lat="45.977048445492983" lon="6.892720693722367">
        <ele>2238.0900000000001</ele>
        <time>2014-07-15T12:54:15Z</time>
      </trkpt>
      <trkpt lat="45.977050121873617" lon="6.892719436436892">
        <ele>2234.2399999999998</ele>
        <time>2014-07-15T12:54:16Z</time>
      </trkpt>
      <trkpt lat="45.977048529312015" lon="6.892738128080964">
        <ele>2233.7600000000002</ele>
        <time>2014-07-15T12:54:42Z</time>
      </trkpt>
      <trkpt lat="45.977061269804835" lon="6.892755478620529">
        <ele>2233.2800000000002</ele>
        <time>2014-07-15T12:55:06Z</time>
      </trkpt>
      <trkpt lat="45.977066215127707" lon="6.892796969041228">
        <ele>2233.2800000000002</ele>
        <time>2014-07-15T12:55:22Z</time>
      </trkpt>
      <trkpt lat="45.976990526542068" lon="6.892833849415183">
        <ele>2231.3600000000001</ele>
        <time>2014-07-15T12:55:35Z</time>
      </trkpt>
      <trkpt lat="45.976901426911354" lon="6.892844494432211">
        <ele>2229.4299999999998</ele>
        <time>2014-07-15T12:55:44Z</time>
      </trkpt>
      <trkpt lat="45.97682498395443" lon="6.892824796959758">
        <ele>2225.5900000000001</ele>
        <time>2014-07-15T12:55:55Z</time>
      </trkpt>
      <trkpt lat="45.976814925670624" lon="6.892821611836553">
        <ele>2225.5900000000001</ele>
        <time>2014-07-15T12:55:56Z</time>
      </trkpt>
      <trkpt lat="45.976755162701011" lon="6.892817169427872">
        <ele>2224.6300000000001</ele>
        <time>2014-07-15T12:56:04Z</time>
      </trkpt>
      <trkpt lat="45.97667402587831" lon="6.892828904092312">
        <ele>2222.2199999999998</ele>
        <time>2014-07-15T12:56:15Z</time>
      </trkpt>
      <trkpt lat="45.976651730015874" lon="6.892832424491644">
        <ele>2222.2199999999998</ele>
        <time>2014-07-15T12:56:19Z</time>
      </trkpt>
      <trkpt lat="45.976612083613873" lon="6.892850613221526">
        <ele>2221.2600000000002</ele>
        <time>2014-07-15T12:56:24Z</time>
      </trkpt>
      <trkpt lat="45.976530276238918" lon="6.892883135005832">
        <ele>2219.8200000000002</ele>
        <time>2014-07-15T12:56:37Z</time>
      </trkpt>
      <trkpt lat="45.976512925699353" lon="6.892886571586132">
        <ele>2220.3000000000002</ele>
        <time>2014-07-15T12:56:39Z</time>
      </trkpt>
      <trkpt lat="45.976413516327739" lon="6.892983634024859">
        <ele>2217.9000000000001</ele>
        <time>2014-07-15T12:56:51Z</time>
      </trkpt>
      <trkpt lat="45.976399015635252" lon="6.892986483871937">
        <ele>2217.4200000000001</ele>
        <time>2014-07-15T12:56:53Z</time>
      </trkpt>
      <trkpt lat="45.976393902674317" lon="6.892936946824193">
        <ele>2215.0100000000002</ele>
        <time>2014-07-15T12:56:56Z</time>
      </trkpt>
      <trkpt lat="45.976359872147441" lon="6.892963517457247">
        <ele>2214.0500000000002</ele>
        <time>2014-07-15T12:57:03Z</time>
      </trkpt>
      <trkpt lat="45.976312011480331" lon="6.893005343154073">
        <ele>2211.6500000000001</ele>
        <time>2014-07-15T12:57:14Z</time>
      </trkpt>
      <trkpt lat="45.976280076429248" lon="6.893071979284287">
        <ele>2209.73</ele>
        <time>2014-07-15T12:57:21Z</time>
      </trkpt>
      <trkpt lat="45.976242190226912" lon="6.893128054216504">
        <ele>2209.25</ele>
        <time>2014-07-15T12:57:28Z</time>
      </trkpt>
      <trkpt lat="45.976170105859637" lon="6.893163342028856">
        <ele>2205.8800000000001</ele>
        <time>2014-07-15T12:57:40Z</time>
      </trkpt>
      <trkpt lat="45.976157113909721" lon="6.893101818859577">
        <ele>2204.4400000000001</ele>
        <time>2014-07-15T12:57:48Z</time>
      </trkpt>
      <trkpt lat="45.976108917966485" lon="6.893067788332701">
        <ele>2202.52</ele>
        <time>2014-07-15T12:57:54Z</time>
      </trkpt>
      <trkpt lat="45.976090058684349" lon="6.893108021467924">
        <ele>2202.04</ele>
        <time>2014-07-15T12:57:57Z</time>
      </trkpt>
      <trkpt lat="45.976023841649294" lon="6.89316987991333">
        <ele>2198.6700000000001</ele>
        <time>2014-07-15T12:58:11Z</time>
      </trkpt>
      <trkpt lat="45.975933652371168" lon="6.893180944025517">
        <ele>2195.79</ele>
        <time>2014-07-15T12:58:22Z</time>
      </trkpt>
      <trkpt lat="45.975872967392206" lon="6.893130401149392">
        <ele>2193.3899999999999</ele>
        <time>2014-07-15T12:58:32Z</time>
      </trkpt>
      <trkpt lat="45.975821753963828" lon="6.893120091408491">
        <ele>2192.9000000000001</ele>
        <time>2014-07-15T12:58:37Z</time>
      </trkpt>
      <trkpt lat="45.975729050114751" lon="6.893102237954736">
        <ele>2190.98</ele>
        <time>2014-07-15T12:58:49Z</time>
      </trkpt>
      <trkpt lat="45.975697198882699" lon="6.893013808876276">
        <ele>2189.0599999999999</ele>
        <time>2014-07-15T12:59:04Z</time>
      </trkpt>
      <trkpt lat="45.975672556087375" lon="6.893041301518679">
        <ele>2189.54</ele>
        <time>2014-07-15T12:59:13Z</time>
      </trkpt>
      <trkpt lat="45.975628718733788" lon="6.893049264326692">
        <ele>2189.0599999999999</ele>
        <time>2014-07-15T12:59:17Z</time>
      </trkpt>
      <trkpt lat="45.97555018030107" lon="6.893007354810834">
        <ele>2190.5</ele>
        <time>2014-07-15T12:59:26Z</time>
      </trkpt>
      <trkpt lat="45.975465439260006" lon="6.892929319292307">
        <ele>2190.02</ele>
        <time>2014-07-15T12:59:40Z</time>
      </trkpt>
      <trkpt lat="45.975341554731131" lon="6.89295681193471">
        <ele>2189.0599999999999</ele>
        <time>2014-07-15T12:59:53Z</time>
      </trkpt>
      <trkpt lat="45.975228399038315" lon="6.892991596832871">
        <ele>2187.1399999999999</ele>
        <time>2014-07-15T13:00:06Z</time>
      </trkpt>
      <trkpt lat="45.975158661603928" lon="6.89302135258913">
        <ele>2188.5799999999999</ele>
        <time>2014-07-15T13:00:15Z</time>
      </trkpt>
      <trkpt lat="45.975140053778887" lon="6.893055466935039">
        <ele>2186.1799999999998</ele>
        <time>2014-07-15T13:00:20Z</time>
      </trkpt>
      <trkpt lat="45.975069226697087" lon="6.893047420307994">
        <ele>2184.25</ele>
        <time>2014-07-15T13:00:30Z</time>
      </trkpt>
      <trkpt lat="45.974990604445338" lon="6.893102489411831">
        <ele>2182.3299999999999</ele>
        <time>2014-07-15T13:00:42Z</time>
      </trkpt>
      <trkpt lat="45.974929165095091" lon="6.89315571449697">
        <ele>2179.9299999999998</ele>
        <time>2014-07-15T13:00:52Z</time>
      </trkpt>
      <trkpt lat="45.974902091547847" lon="6.893185470253229">
        <ele>2178.48</ele>
        <time>2014-07-15T13:00:56Z</time>
      </trkpt>
      <trkpt lat="45.974847860634327" lon="6.893187901005149">
        <ele>2177.04</ele>
        <time>2014-07-15T13:01:01Z</time>
      </trkpt>
      <trkpt lat="45.97481575794518" lon="6.893189661204815">
        <ele>2177.04</ele>
        <time>2014-07-15T13:01:05Z</time>
      </trkpt>
      <trkpt lat="45.974771333858371" lon="6.8932387791574">
        <ele>2175.5999999999999</ele>
        <time>2014-07-15T13:01:12Z</time>
      </trkpt>
      <trkpt lat="45.974684162065387" lon="6.893333327025175">
        <ele>2174.1599999999999</ele>
        <time>2014-07-15T13:01:25Z</time>
      </trkpt>
      <trkpt lat="45.974632194265723" lon="6.89339560456574">
        <ele>2172.2399999999998</ele>
        <time>2014-07-15T13:01:34Z</time>
      </trkpt>
      <trkpt lat="45.974612161517143" lon="6.893397364765406">
        <ele>2171.27</ele>
        <time>2014-07-15T13:01:36Z</time>
      </trkpt>
      <trkpt lat="45.974589362740517" lon="6.893412368372083">
        <ele>2170.79</ele>
        <time>2014-07-15T13:01:38Z</time>
      </trkpt>
      <trkpt lat="45.974442847073078" lon="6.893361238762736">
        <ele>2168.3899999999999</ele>
        <time>2014-07-15T13:01:53Z</time>
      </trkpt>
      <trkpt lat="45.974351149052382" lon="6.893343301489949">
        <ele>2166.9499999999998</ele>
        <time>2014-07-15T13:02:05Z</time>
      </trkpt>
      <trkpt lat="45.97434276714921" lon="6.893354197964072">
        <ele>2165.9899999999998</ele>
        <time>2014-07-15T13:02:17Z</time>
      </trkpt>
      <trkpt lat="45.974349388852715" lon="6.893343217670918">
        <ele>2166.9499999999998</ele>
        <time>2014-07-15T13:02:31Z</time>
      </trkpt>
      <trkpt lat="45.974320974200964" lon="6.893324861302972">
        <ele>2167.4299999999998</ele>
        <time>2014-07-15T13:02:44Z</time>
      </trkpt>
      <trkpt lat="45.974249225109816" lon="6.893244897946715">
        <ele>2165.0300000000002</ele>
        <time>2014-07-15T13:02:54Z</time>
      </trkpt>
      <trkpt lat="45.97423380240798" lon="6.893227463588119">
        <ele>2164.0599999999999</ele>
        <time>2014-07-15T13:02:56Z</time>
      </trkpt>
      <trkpt lat="45.974162640050054" lon="6.893107770010829">
        <ele>2161.1799999999998</ele>
        <time>2014-07-15T13:03:09Z</time>
      </trkpt>
      <trkpt lat="45.974085945636034" lon="6.893079020082951">
        <ele>2159.2600000000002</ele>
        <time>2014-07-15T13:03:19Z</time>
      </trkpt>
      <trkpt lat="45.974041353911161" lon="6.893047001212835">
        <ele>2158.7800000000002</ele>
        <time>2014-07-15T13:03:25Z</time>
      </trkpt>
      <trkpt lat="45.974022578448057" lon="6.893062340095639">
        <ele>2158.3000000000002</ele>
        <time>2014-07-15T13:03:27Z</time>
      </trkpt>
      <trkpt lat="45.973932556807995" lon="6.893154624849558">
        <ele>2155.8899999999999</ele>
        <time>2014-07-15T13:03:41Z</time>
      </trkpt>
      <trkpt lat="45.973914703354239" lon="6.893121348693967">
        <ele>2156.3699999999999</ele>
        <time>2014-07-15T13:03:48Z</time>
      </trkpt>
      <trkpt lat="45.973893413320184" lon="6.893102321773768">
        <ele>2153.0100000000002</ele>
        <time>2014-07-15T13:03:53Z</time>
      </trkpt>
      <trkpt lat="45.973865836858749" lon="6.893025794997811">
        <ele>2149.6500000000001</ele>
        <time>2014-07-15T13:04:01Z</time>
      </trkpt>
      <trkpt lat="45.973857371136546" lon="6.893112296238542">
        <ele>2150.6100000000001</ele>
        <time>2014-07-15T13:04:14Z</time>
      </trkpt>
      <trkpt lat="45.973845552653074" lon="6.893217656761408">
        <ele>2147.2399999999998</ele>
        <time>2014-07-15T13:04:26Z</time>
      </trkpt>
      <trkpt lat="45.973820826038718" lon="6.893125707283616">
        <ele>2146.7600000000002</ele>
        <time>2014-07-15T13:04:34Z</time>
      </trkpt>
      <trkpt lat="45.973798697814345" lon="6.893100142478943">
        <ele>2145.8000000000002</ele>
        <time>2014-07-15T13:04:37Z</time>
      </trkpt>
      <trkpt lat="45.973792914301157" lon="6.893076170235872">
        <ele>2144.3600000000001</ele>
        <time>2014-07-15T13:04:39Z</time>
      </trkpt>
      <trkpt lat="45.973763326182961" lon="6.893028058111668">
        <ele>2142.9200000000001</ele>
        <time>2014-07-15T13:04:45Z</time>
      </trkpt>
      <trkpt lat="45.973746730014682" lon="6.89304431900382">
        <ele>2143.4000000000001</ele>
        <time>2014-07-15T13:04:49Z</time>
      </trkpt>
      <trkpt lat="45.973752429708838" lon="6.893109362572432">
        <ele>2140.9899999999998</ele>
        <time>2014-07-15T13:04:55Z</time>
      </trkpt>
      <trkpt lat="45.973726361989975" lon="6.893110452219844">
        <ele>2138.1100000000001</ele>
        <time>2014-07-15T13:05:06Z</time>
      </trkpt>
      <trkpt lat="45.97370414994657" lon="6.893123779445887">
        <ele>2136.6700000000001</ele>
        <time>2014-07-15T13:05:15Z</time>
      </trkpt>
      <trkpt lat="45.973691660910845" lon="6.893117157742381">
        <ele>2136.6700000000001</ele>
        <time>2014-07-15T13:05:21Z</time>
      </trkpt>
      <trkpt lat="45.973669951781631" lon="6.893126042559743">
        <ele>2134.7399999999998</ele>
        <time>2014-07-15T13:05:34Z</time>
      </trkpt>
      <trkpt lat="45.973612619563937" lon="6.893099891021848">
        <ele>2132.3400000000001</ele>
        <time>2014-07-15T13:05:45Z</time>
      </trkpt>
      <trkpt lat="45.973627958446741" lon="6.893141800537705">
        <ele>2130.9000000000001</ele>
        <time>2014-07-15T13:05:55Z</time>
      </trkpt>
      <trkpt lat="45.97362401895225" lon="6.89317574724555">
        <ele>2130.4200000000001</ele>
        <time>2014-07-15T13:05:58Z</time>
      </trkpt>
      <trkpt lat="45.97366307862103" lon="6.893292004242539">
        <ele>2127.5300000000002</ele>
        <time>2014-07-15T13:06:10Z</time>
      </trkpt>
      <trkpt lat="45.973678752779961" lon="6.893346318975091">
        <ele>2126.5700000000002</ele>
        <time>2014-07-15T13:06:16Z</time>
      </trkpt>
      <trkpt lat="45.973621420562267" lon="6.893360819667578">
        <ele>2123.6900000000001</ele>
        <time>2014-07-15T13:06:23Z</time>
      </trkpt>
      <trkpt lat="45.973541205748916" lon="6.893285633996129">
        <ele>2121.77</ele>
        <time>2014-07-15T13:06:32Z</time>
      </trkpt>
      <trkpt lat="45.973511366173625" lon="6.893207179382443">
        <ele>2122.25</ele>
        <time>2014-07-15T13:06:44Z</time>
      </trkpt>
      <trkpt lat="45.97351991571486" lon="6.893189325928688">
        <ele>2122.73</ele>
        <time>2014-07-15T13:06:58Z</time>
      </trkpt>
      <trkpt lat="45.973535003140569" lon="6.893194606527686">
        <ele>2122.73</ele>
        <time>2014-07-15T13:07:26Z</time>
      </trkpt>
      <trkpt lat="45.973499966785312" lon="6.893219416961074">
        <ele>2121.77</ele>
        <time>2014-07-15T13:07:36Z</time>
      </trkpt>
      <trkpt lat="45.973373651504517" lon="6.893147584050894">
        <ele>2120.8099999999999</ele>
        <time>2014-07-15T13:07:49Z</time>
      </trkpt>
      <trkpt lat="45.973303746432066" lon="6.893047839403153">
        <ele>2121.29</ele>
        <time>2014-07-15T13:08:03Z</time>
      </trkpt>
      <trkpt lat="45.973201990127563" lon="6.892997631803155">
        <ele>2120.3200000000002</ele>
        <time>2014-07-15T13:08:18Z</time>
      </trkpt>
      <trkpt lat="45.973163349553943" lon="6.892982041463256">
        <ele>2120.8099999999999</ele>
        <time>2014-07-15T13:08:32Z</time>
      </trkpt>
      <trkpt lat="45.973159745335579" lon="6.892981119453907">
        <ele>2120.8099999999999</ele>
        <time>2014-07-15T13:08:57Z</time>
      </trkpt>
      <trkpt lat="45.973157230764627" lon="6.892989920452237">
        <ele>2120.3200000000002</ele>
        <time>2014-07-15T13:09:35Z</time>
      </trkpt>
      <trkpt lat="45.973168294876814" lon="6.893005175516009">
        <ele>2120.8099999999999</ele>
        <time>2014-07-15T13:09:55Z</time>
      </trkpt>
      <trkpt lat="45.973178017884493" lon="6.893017832189798">
        <ele>2120.8099999999999</ele>
        <time>2014-07-15T13:10:17Z</time>
      </trkpt>
      <trkpt lat="45.973141305148602" lon="6.893012886866927">
        <ele>2120.3200000000002</ele>
        <time>2014-07-15T13:10:28Z</time>
      </trkpt>
      <trkpt lat="45.973164523020387" lon="6.892993021756411">
        <ele>2120.8099999999999</ele>
        <time>2014-07-15T13:10:53Z</time>
      </trkpt>
      <trkpt lat="45.973163601011038" lon="6.893016993999481">
        <ele>2120.8099999999999</ele>
        <time>2014-07-15T13:11:15Z</time>
      </trkpt>
      <trkpt lat="45.973193775862455" lon="6.893062591552734">
        <ele>2120.3200000000002</ele>
        <time>2014-07-15T13:11:35Z</time>
      </trkpt>
      <trkpt lat="45.973194949328899" lon="6.892932588234544">
        <ele>2119.8400000000001</ele>
        <time>2014-07-15T13:11:59Z</time>
      </trkpt>
      <trkpt lat="45.973162092268467" lon="6.892949603497982">
        <ele>2120.8099999999999</ele>
        <time>2014-07-15T13:12:03Z</time>
      </trkpt>
      <trkpt lat="45.973145412281156" lon="6.892940802499652">
        <ele>2119.3600000000001</ele>
        <time>2014-07-15T13:12:06Z</time>
      </trkpt>
      <trkpt lat="45.973104676231742" lon="6.89297491684556">
        <ele>2117.9200000000001</ele>
        <time>2014-07-15T13:12:19Z</time>
      </trkpt>
      <trkpt lat="45.973065616562963" lon="6.892902664840221">
        <ele>2116</ele>
        <time>2014-07-15T13:12:31Z</time>
      </trkpt>
      <trkpt lat="45.973041141405702" lon="6.892877938225865">
        <ele>2115.52</ele>
        <time>2014-07-15T13:12:42Z</time>
      </trkpt>
      <trkpt lat="45.972965536639094" lon="6.892841560766101">
        <ele>2114.0799999999999</ele>
        <time>2014-07-15T13:12:55Z</time>
      </trkpt>
      <trkpt lat="45.972954723984003" lon="6.892823204398155">
        <ele>2111.6700000000001</ele>
        <time>2014-07-15T13:13:02Z</time>
      </trkpt>
      <trkpt lat="45.972874173894525" lon="6.892770146951079">
        <ele>2109.27</ele>
        <time>2014-07-15T13:13:14Z</time>
      </trkpt>
      <trkpt lat="45.9728719945997" lon="6.892757322639227">
        <ele>2109.27</ele>
        <time>2014-07-15T13:13:15Z</time>
      </trkpt>
      <trkpt lat="45.972800580784678" lon="6.892704432830215">
        <ele>2106.3899999999999</ele>
        <time>2014-07-15T13:13:28Z</time>
      </trkpt>
      <trkpt lat="45.972792198881507" lon="6.892683478072286">
        <ele>2105.4200000000001</ele>
        <time>2014-07-15T13:13:30Z</time>
      </trkpt>
      <trkpt lat="45.972758671268821" lon="6.892596054822207">
        <ele>2103.98</ele>
        <time>2014-07-15T13:13:42Z</time>
      </trkpt>
      <trkpt lat="45.972720114514232" lon="6.892554229125381">
        <ele>2102.54</ele>
        <time>2014-07-15T13:13:55Z</time>
      </trkpt>
      <trkpt lat="45.972669571638107" lon="6.892542243003845">
        <ele>2099.6599999999999</ele>
        <time>2014-07-15T13:14:06Z</time>
      </trkpt>
      <trkpt lat="45.972596649080515" lon="6.892500584945083">
        <ele>2097.25</ele>
        <time>2014-07-15T13:14:17Z</time>
      </trkpt>
      <trkpt lat="45.972572341561317" lon="6.892490945756435">
        <ele>2097.25</ele>
        <time>2014-07-15T13:14:20Z</time>
      </trkpt>
      <trkpt lat="45.972452564164996" lon="6.89243202097714">
        <ele>2093.8899999999999</ele>
        <time>2014-07-15T13:14:35Z</time>
      </trkpt>
      <trkpt lat="45.972424065694213" lon="6.892391117289662">
        <ele>2093.4099999999999</ele>
        <time>2014-07-15T13:14:40Z</time>
      </trkpt>
      <trkpt lat="45.972344186156988" lon="6.892281733453274">
        <ele>2091</ele>
        <time>2014-07-15T13:14:52Z</time>
      </trkpt>
      <trkpt lat="45.972321387380362" lon="6.892264131456614">
        <ele>2091.4899999999998</ele>
        <time>2014-07-15T13:14:55Z</time>
      </trkpt>
      <trkpt lat="45.972275035455823" lon="6.89224393106997">
        <ele>2089.5599999999999</ele>
        <time>2014-07-15T13:15:00Z</time>
      </trkpt>
      <trkpt lat="45.972186271101236" lon="6.892167404294014">
        <ele>2088.5999999999999</ele>
        <time>2014-07-15T13:15:12Z</time>
      </trkpt>
      <trkpt lat="45.972165148705244" lon="6.892165224999189">
        <ele>2088.5999999999999</ele>
        <time>2014-07-15T13:15:22Z</time>
      </trkpt>
      <trkpt lat="45.972130196169019" lon="6.892136307433248">
        <ele>2087.6399999999999</ele>
        <time>2014-07-15T13:15:28Z</time>
      </trkpt>
      <trkpt lat="45.972061967477202" lon="6.892105126753449">
        <ele>2086.6799999999998</ele>
        <time>2014-07-15T13:15:38Z</time>
      </trkpt>
      <trkpt lat="45.971914865076542" lon="6.89203429967165">
        <ele>2086.1999999999998</ele>
        <time>2014-07-15T13:15:54Z</time>
      </trkpt>
      <trkpt lat="45.971878822892904" lon="6.891953162848949">
        <ele>2085.7199999999998</ele>
        <time>2014-07-15T13:16:11Z</time>
      </trkpt>
      <trkpt lat="45.971879996359348" lon="6.891902619972825">
        <ele>2085.2399999999998</ele>
        <time>2014-07-15T13:16:16Z</time>
      </trkpt>
      <trkpt lat="45.97186541184783" lon="6.891871690750122">
        <ele>2085.2399999999998</ele>
        <time>2014-07-15T13:16:21Z</time>
      </trkpt>
      <trkpt lat="45.971796177327633" lon="6.891714110970497">
        <ele>2084.7600000000002</ele>
        <time>2014-07-15T13:16:34Z</time>
      </trkpt>
      <trkpt lat="45.971811432391405" lon="6.891638757660985">
        <ele>2084.7600000000002</ele>
        <time>2014-07-15T13:16:40Z</time>
      </trkpt>
      <trkpt lat="45.971778826788068" lon="6.891502300277352">
        <ele>2083.79</ele>
        <time>2014-07-15T13:16:51Z</time>
      </trkpt>
      <trkpt lat="45.971758207306266" lon="6.891468772664666">
        <ele>2082.8299999999999</ele>
        <time>2014-07-15T13:16:54Z</time>
      </trkpt>
      <trkpt lat="45.971639519557357" lon="6.891310270875692">
        <ele>2082.8299999999999</ele>
        <time>2014-07-15T13:17:11Z</time>
      </trkpt>
      <trkpt lat="45.9715785831213" lon="6.891230475157499">
        <ele>2080.9099999999999</ele>
        <time>2014-07-15T13:17:18Z</time>
      </trkpt>
      <trkpt lat="45.97146718762815" lon="6.891040541231632">
        <ele>2080.9099999999999</ele>
        <time>2014-07-15T13:17:33Z</time>
      </trkpt>
      <trkpt lat="45.971329640597105" lon="6.890819007530808">
        <ele>2080.4299999999998</ele>
        <time>2014-07-15T13:17:50Z</time>
      </trkpt>
      <trkpt lat="45.971310278400779" lon="6.890750611200929">
        <ele>2080.9099999999999</ele>
        <time>2014-07-15T13:17:55Z</time>
      </trkpt>
      <trkpt lat="45.971274487674236" lon="6.890693781897426">
        <ele>2079.4699999999998</ele>
        <time>2014-07-15T13:18:00Z</time>
      </trkpt>
      <trkpt lat="45.971124535426497" lon="6.890543410554528">
        <ele>2077.5500000000002</ele>
        <time>2014-07-15T13:18:17Z</time>
      </trkpt>
      <trkpt lat="45.970970056951046" lon="6.890432769432664">
        <ele>2076.5900000000001</ele>
        <time>2014-07-15T13:18:32Z</time>
      </trkpt>
      <trkpt lat="45.970927476882935" lon="6.890378454700112">
        <ele>2075.6199999999999</ele>
        <time>2014-07-15T13:18:37Z</time>
      </trkpt>
      <trkpt lat="45.970779955387115" lon="6.890291282907128">
        <ele>2071.7800000000002</ele>
        <time>2014-07-15T13:18:52Z</time>
      </trkpt>
      <trkpt lat="45.970772998407483" lon="6.890281559899449">
        <ele>2072.2600000000002</ele>
        <time>2014-07-15T13:18:53Z</time>
      </trkpt>
      <trkpt lat="45.970748858526349" lon="6.890223808586597">
        <ele>2071.7800000000002</ele>
        <time>2014-07-15T13:18:57Z</time>
      </trkpt>
      <trkpt lat="45.970734776929021" lon="6.890138816088438">
        <ele>2069.8600000000001</ele>
        <time>2014-07-15T13:19:02Z</time>
      </trkpt>
      <trkpt lat="45.970604019239545" lon="6.890032785013318">
        <ele>2067.9299999999998</ele>
        <time>2014-07-15T13:19:16Z</time>
      </trkpt>
      <trkpt lat="45.970558589324355" lon="6.889992970973253">
        <ele>2066.0100000000002</ele>
        <time>2014-07-15T13:19:22Z</time>
      </trkpt>
      <trkpt lat="45.970528749749064" lon="6.889954665675759">
        <ele>2065.0500000000002</ele>
        <time>2014-07-15T13:19:26Z</time>
      </trkpt>
      <trkpt lat="45.970357591286302" lon="6.889789290726185">
        <ele>2065.0500000000002</ele>
        <time>2014-07-15T13:19:44Z</time>
      </trkpt>
      <trkpt lat="45.970273269340396" lon="6.889724833890796">
        <ele>2063.6100000000001</ele>
        <time>2014-07-15T13:19:53Z</time>
      </trkpt>
      <trkpt lat="45.970201352611184" lon="6.889602625742555">
        <ele>2064.0900000000001</ele>
        <time>2014-07-15T13:20:07Z</time>
      </trkpt>
      <trkpt lat="45.970125328749418" lon="6.889519561082125">
        <ele>2064.0900000000001</ele>
        <time>2014-07-15T13:20:17Z</time>
      </trkpt>
      <trkpt lat="45.969998007640243" lon="6.889371871948242">
        <ele>2063.1300000000001</ele>
        <time>2014-07-15T13:20:34Z</time>
      </trkpt>
      <trkpt lat="45.969979567453265" lon="6.889360137283802">
        <ele>2062.6500000000001</ele>
        <time>2014-07-15T13:20:36Z</time>
      </trkpt>
      <trkpt lat="45.969864567741752" lon="6.889358041808009">
        <ele>2061.1999999999998</ele>
        <time>2014-07-15T13:20:51Z</time>
      </trkpt>
      <trkpt lat="45.9698068164289" lon="6.889311103150249">
        <ele>2058.3200000000002</ele>
        <time>2014-07-15T13:21:01Z</time>
      </trkpt>
      <trkpt lat="45.969804804772139" lon="6.889295764267445">
        <ele>2058.3200000000002</ele>
        <time>2014-07-15T13:21:02Z</time>
      </trkpt>
      <trkpt lat="45.969800697639585" lon="6.889140279963613">
        <ele>2055.9200000000001</ele>
        <time>2014-07-15T13:21:15Z</time>
      </trkpt>
      <trkpt lat="45.969837158918381" lon="6.888908771798015">
        <ele>2053.0300000000002</ele>
        <time>2014-07-15T13:21:29Z</time>
      </trkpt>
      <trkpt lat="45.969866076484323" lon="6.888674329966307">
        <ele>2050.6300000000001</ele>
        <time>2014-07-15T13:21:44Z</time>
      </trkpt>
      <trkpt lat="45.969851491972804" lon="6.888583721593022">
        <ele>2050.1500000000001</ele>
        <time>2014-07-15T13:21:51Z</time>
      </trkpt>
      <trkpt lat="45.969840679317713" lon="6.888532172888517">
        <ele>2049.6700000000001</ele>
        <time>2014-07-15T13:21:54Z</time>
      </trkpt>
      <trkpt lat="45.969832465052605" lon="6.888449443504214">
        <ele>2049.6700000000001</ele>
        <time>2014-07-15T13:21:59Z</time>
      </trkpt>
      <trkpt lat="45.969837745651603" lon="6.888322960585356">
        <ele>2048.71</ele>
        <time>2014-07-15T13:22:10Z</time>
      </trkpt>
      <trkpt lat="45.969813102856278" lon="6.888277949765325">
        <ele>2048.23</ele>
        <time>2014-07-15T13:22:20Z</time>
      </trkpt>
      <trkpt lat="45.969838164746761" lon="6.888249535113573">
        <ele>2048.23</ele>
        <time>2014-07-15T13:22:40Z</time>
      </trkpt>
      <trkpt lat="45.969843361526728" lon="6.888208044692874">
        <ele>2048.71</ele>
        <time>2014-07-15T13:22:53Z</time>
      </trkpt>
      <trkpt lat="45.969841685146093" lon="6.888198321685195">
        <ele>2048.23</ele>
        <time>2014-07-15T13:22:54Z</time>
      </trkpt>
      <trkpt lat="45.969789465889335" lon="6.888041328638792">
        <ele>2046.78</ele>
        <time>2014-07-15T13:23:05Z</time>
      </trkpt>
      <trkpt lat="45.969691062346101" lon="6.887873020023108">
        <ele>2046.78</ele>
        <time>2014-07-15T13:23:18Z</time>
      </trkpt>
      <trkpt lat="45.96961721777916" lon="6.887762881815434">
        <ele>2045.3399999999999</ele>
        <time>2014-07-15T13:23:31Z</time>
      </trkpt>
      <trkpt lat="45.969611098989844" lon="6.887753745540977">
        <ele>2044.8599999999999</ele>
        <time>2014-07-15T13:23:32Z</time>
      </trkpt>
      <trkpt lat="45.969601459801197" lon="6.88771577551961">
        <ele>2044.3800000000001</ele>
        <time>2014-07-15T13:23:35Z</time>
      </trkpt>
      <trkpt lat="45.969587378203869" lon="6.887691132724285">
        <ele>2043.9000000000001</ele>
        <time>2014-07-15T13:23:38Z</time>
      </trkpt>
      <trkpt lat="45.969529040157795" lon="6.88763908110559">
        <ele>2043.9000000000001</ele>
        <time>2014-07-15T13:23:46Z</time>
      </trkpt>
      <trkpt lat="45.969475479796529" lon="6.887596752494574">
        <ele>2043.9000000000001</ele>
        <time>2014-07-15T13:23:53Z</time>
      </trkpt>
      <trkpt lat="45.969384703785181" lon="6.887525422498584">
        <ele>2041.02</ele>
        <time>2014-07-15T13:24:06Z</time>
      </trkpt>
      <trkpt lat="45.969376405701041" lon="6.887527266517282">
        <ele>2040.05</ele>
        <time>2014-07-15T13:24:07Z</time>
      </trkpt>
      <trkpt lat="45.969335334375501" lon="6.887532295659185">
        <ele>2039.0899999999999</ele>
        <time>2014-07-15T13:24:11Z</time>
      </trkpt>
      <trkpt lat="45.969216981902719" lon="6.887469850480557">
        <ele>2036.21</ele>
        <time>2014-07-15T13:24:25Z</time>
      </trkpt>
      <trkpt lat="45.96912419423461" lon="6.887470688670874">
        <ele>2036.21</ele>
        <time>2014-07-15T13:24:38Z</time>
      </trkpt>
      <trkpt lat="45.969126792624593" lon="6.887449817731977">
        <ele>2035.73</ele>
        <time>2014-07-15T13:24:57Z</time>
      </trkpt>
      <trkpt lat="45.969106089323759" lon="6.887396089732647">
        <ele>2035.25</ele>
        <time>2014-07-15T13:25:09Z</time>
      </trkpt>
      <trkpt lat="45.969084799289703" lon="6.88742064870894">
        <ele>2034.29</ele>
        <time>2014-07-15T13:25:12Z</time>
      </trkpt>
      <trkpt lat="45.969056384637952" lon="6.887433640658855">
        <ele>2033.3299999999999</ele>
        <time>2014-07-15T13:25:16Z</time>
      </trkpt>
      <trkpt lat="45.968981115147471" lon="6.887316629290581">
        <ele>2031.8800000000001</ele>
        <time>2014-07-15T13:25:27Z</time>
      </trkpt>
      <trkpt lat="45.96892336383462" lon="6.88732635229826">
        <ele>2030.9200000000001</ele>
        <time>2014-07-15T13:25:33Z</time>
      </trkpt>
      <trkpt lat="45.968825882300735" lon="6.887388294562697">
        <ele>2030.9200000000001</ele>
        <time>2014-07-15T13:25:46Z</time>
      </trkpt>
      <trkpt lat="45.968804256990552" lon="6.887404471635819">
        <ele>2029.48</ele>
        <time>2014-07-15T13:25:49Z</time>
      </trkpt>
      <trkpt lat="45.968720689415932" lon="6.887392485514283">
        <ele>2026.5999999999999</ele>
        <time>2014-07-15T13:26:00Z</time>
      </trkpt>
      <trkpt lat="45.968696381896734" lon="6.887391144409776">
        <ele>2025.6400000000001</ele>
        <time>2014-07-15T13:26:04Z</time>
      </trkpt>
      <trkpt lat="45.968674756586552" lon="6.887372368946672">
        <ele>2024.1900000000001</ele>
        <time>2014-07-15T13:26:07Z</time>
      </trkpt>
      <trkpt lat="45.96866687759757" lon="6.88737178221345">
        <ele>2025.6400000000001</ele>
        <time>2014-07-15T13:26:08Z</time>
      </trkpt>
      <trkpt lat="45.968603761866689" lon="6.887363903224468">
        <ele>2025.1500000000001</ele>
        <time>2014-07-15T13:26:16Z</time>
      </trkpt>
      <trkpt lat="45.968563109636307" lon="6.887391312047839">
        <ele>2022.75</ele>
        <time>2014-07-15T13:26:20Z</time>
      </trkpt>
      <trkpt lat="45.968504939228296" lon="6.887447470799089">
        <ele>2021.79</ele>
        <time>2014-07-15T13:26:32Z</time>
      </trkpt>
      <trkpt lat="45.968484487384558" lon="6.887430623173714">
        <ele>2019.3900000000001</ele>
        <time>2014-07-15T13:26:36Z</time>
      </trkpt>
      <trkpt lat="45.968477865681052" lon="6.887409165501595">
        <ele>2018.9100000000001</ele>
        <time>2014-07-15T13:26:38Z</time>
      </trkpt>
      <trkpt lat="45.968452803790569" lon="6.887345546856523">
        <ele>2018.4300000000001</ele>
        <time>2014-07-15T13:26:43Z</time>
      </trkpt>
      <trkpt lat="45.968426903709769" lon="6.887324256822467">
        <ele>2018.4300000000001</ele>
        <time>2014-07-15T13:26:46Z</time>
      </trkpt>
      <trkpt lat="45.96839027479291" lon="6.887360215187073">
        <ele>2018.9100000000001</ele>
        <time>2014-07-15T13:26:51Z</time>
      </trkpt>
      <trkpt lat="45.968326823785901" lon="6.887346049770713">
        <ele>2017.9400000000001</ele>
        <time>2014-07-15T13:26:56Z</time>
      </trkpt>
      <trkpt lat="45.968285417184234" lon="6.887341523543">
        <ele>2016.98</ele>
        <time>2014-07-15T13:27:01Z</time>
      </trkpt>
      <trkpt lat="45.968256667256355" lon="6.887355437502265">
        <ele>2016.5</ele>
        <time>2014-07-15T13:27:04Z</time>
      </trkpt>
      <trkpt lat="45.968162538483739" lon="6.887279246002436">
        <ele>2016.02</ele>
        <time>2014-07-15T13:27:18Z</time>
      </trkpt>
      <trkpt lat="45.968156587332487" lon="6.887276731431484">
        <ele>2016.02</ele>
        <time>2014-07-15T13:27:19Z</time>
      </trkpt>
      <trkpt lat="45.968124400824308" lon="6.887230379506946">
        <ele>2013.6199999999999</ele>
        <time>2014-07-15T13:27:25Z</time>
      </trkpt>
      <trkpt lat="45.968085089698434" lon="6.887214789167047">
        <ele>2012.1800000000001</ele>
        <time>2014-07-15T13:27:30Z</time>
      </trkpt>
      <trkpt lat="45.968069918453693" lon="6.887210765853524">
        <ele>2011.7</ele>
        <time>2014-07-15T13:27:31Z</time>
      </trkpt>
      <trkpt lat="45.968002611771226" lon="6.887156451120973">
        <ele>2011.7</ele>
        <time>2014-07-15T13:27:39Z</time>
      </trkpt>
      <trkpt lat="45.967926504090428" lon="6.887244880199432">
        <ele>2010.73</ele>
        <time>2014-07-15T13:27:52Z</time>
      </trkpt>
      <trkpt lat="45.967907309532166" lon="6.887245383113623">
        <ele>2011.7</ele>
        <time>2014-07-15T13:27:54Z</time>
      </trkpt>
      <trkpt lat="45.967834470793605" lon="6.887268181890249">
        <ele>2011.7</ele>
        <time>2014-07-15T13:28:02Z</time>
      </trkpt>
      <trkpt lat="45.967767499387264" lon="6.887314449995756">
        <ele>2008.3299999999999</ele>
        <time>2014-07-15T13:28:10Z</time>
      </trkpt>
      <trkpt lat="45.967743275687099" lon="6.887316294014454">
        <ele>2008.3299999999999</ele>
        <time>2014-07-15T13:28:12Z</time>
      </trkpt>
      <trkpt lat="45.967714693397284" lon="6.88728335313499">
        <ele>2006.4100000000001</ele>
        <time>2014-07-15T13:28:15Z</time>
      </trkpt>
      <trkpt lat="45.967588210478425" lon="6.88722325488925">
        <ele>2005.45</ele>
        <time>2014-07-15T13:28:28Z</time>
      </trkpt>
      <trkpt lat="45.967481257393956" lon="6.887177154421806">
        <ele>2003.52</ele>
        <time>2014-07-15T13:28:41Z</time>
      </trkpt>
      <trkpt lat="45.967461224645376" lon="6.887166844680905">
        <ele>2003.04</ele>
        <time>2014-07-15T13:28:43Z</time>
      </trkpt>
      <trkpt lat="45.967443371191621" lon="6.887151002883911">
        <ele>2003.04</ele>
        <time>2014-07-15T13:28:45Z</time>
      </trkpt>
      <trkpt lat="45.967285959050059" lon="6.887082606554031">
        <ele>2000.1600000000001</ele>
        <time>2014-07-15T13:29:01Z</time>
      </trkpt>
      <trkpt lat="45.967166600748897" lon="6.887009013444185">
        <ele>1998.24</ele>
        <time>2014-07-15T13:29:14Z</time>
      </trkpt>
      <trkpt lat="45.967032322660089" lon="6.886972971260548">
        <ele>1996.8</ele>
        <time>2014-07-15T13:29:28Z</time>
      </trkpt>
      <trkpt lat="45.967019246891141" lon="6.886968277394772">
        <ele>1996.8</ele>
        <time>2014-07-15T13:29:29Z</time>
      </trkpt>
      <trkpt lat="45.96685060299933" lon="6.886907843872905">
        <ele>1993.9100000000001</ele>
        <time>2014-07-15T13:29:45Z</time>
      </trkpt>
      <trkpt lat="45.966842221096158" lon="6.886898707598448">
        <ele>1992.95</ele>
        <time>2014-07-15T13:29:46Z</time>
      </trkpt>
      <trkpt lat="45.966814057901502" lon="6.886876579374075">
        <ele>1992.47</ele>
        <time>2014-07-15T13:29:49Z</time>
      </trkpt>
      <trkpt lat="45.966776674613357" lon="6.886904072016478">
        <ele>1993.9100000000001</ele>
        <time>2014-07-15T13:29:53Z</time>
      </trkpt>
      <trkpt lat="45.966726131737232" lon="6.886983700096607">
        <ele>1991.51</ele>
        <time>2014-07-15T13:30:01Z</time>
      </trkpt>
      <trkpt lat="45.966701488941908" lon="6.88704539090395">
        <ele>1989.0999999999999</ele>
        <time>2014-07-15T13:30:06Z</time>
      </trkpt>
      <trkpt lat="45.966680366545916" lon="6.887085372582078">
        <ele>1987.1800000000001</ele>
        <time>2014-07-15T13:30:11Z</time>
      </trkpt>
      <trkpt lat="45.966639211401343" lon="6.887053605169058">
        <ele>1985.74</ele>
        <time>2014-07-15T13:30:15Z</time>
      </trkpt>
      <trkpt lat="45.966615322977304" lon="6.887012701481581">
        <ele>1984.78</ele>
        <time>2014-07-15T13:30:18Z</time>
      </trkpt>
      <trkpt lat="45.966570060700178" lon="6.886903317645192">
        <ele>1983.3399999999999</ele>
        <time>2014-07-15T13:30:27Z</time>
      </trkpt>
      <trkpt lat="45.966421449556947" lon="6.886918656527996">
        <ele>1981.9000000000001</ele>
        <time>2014-07-15T13:30:43Z</time>
      </trkpt>
      <trkpt lat="45.966417761519551" lon="6.886958219110966">
        <ele>1981.9000000000001</ele>
        <time>2014-07-15T13:30:56Z</time>
      </trkpt>
      <trkpt lat="45.966387754306197" lon="6.886984286829829">
        <ele>1982.3800000000001</ele>
        <time>2014-07-15T13:31:00Z</time>
      </trkpt>
      <trkpt lat="45.966337295249104" lon="6.887012952938676">
        <ele>1979.97</ele>
        <time>2014-07-15T13:31:06Z</time>
      </trkpt>
      <trkpt lat="45.966359758749604" lon="6.887011611834168">
        <ele>1979.49</ele>
        <time>2014-07-15T13:31:22Z</time>
      </trkpt>
      <trkpt lat="45.966357998549938" lon="6.887003481388092">
        <ele>1980.45</ele>
        <time>2014-07-15T13:31:42Z</time>
      </trkpt>
      <trkpt lat="45.96635858528316" lon="6.886997614055872">
        <ele>1980.45</ele>
        <time>2014-07-15T13:32:03Z</time>
      </trkpt>
      <trkpt lat="45.966311311349273" lon="6.887028627097607">
        <ele>1979.49</ele>
        <time>2014-07-15T13:32:18Z</time>
      </trkpt>
      <trkpt lat="45.96622028388083" lon="6.887139016762376">
        <ele>1976.6099999999999</ele>
        <time>2014-07-15T13:32:30Z</time>
      </trkpt>
      <trkpt lat="45.966216512024403" lon="6.887143040075898">
        <ele>1978.53</ele>
        <time>2014-07-15T13:32:31Z</time>
      </trkpt>
      <trkpt lat="45.966187007725239" lon="6.887156954035163">
        <ele>1976.1300000000001</ele>
        <time>2014-07-15T13:32:34Z</time>
      </trkpt>
      <trkpt lat="45.966175524517894" lon="6.887163408100605">
        <ele>1976.6099999999999</ele>
        <time>2014-07-15T13:32:35Z</time>
      </trkpt>
      <trkpt lat="45.966092878952622" lon="6.887202803045511">
        <ele>1973.72</ele>
        <time>2014-07-15T13:32:43Z</time>
      </trkpt>
      <trkpt lat="45.965964971110225" lon="6.887256866320968">
        <ele>1970.3599999999999</ele>
        <time>2014-07-15T13:32:55Z</time>
      </trkpt>
      <trkpt lat="45.965840499848127" lon="6.887296009808779">
        <ele>1967.96</ele>
        <time>2014-07-15T13:33:07Z</time>
      </trkpt>
      <trkpt lat="45.965693648904562" lon="6.887323670089245">
        <ele>1965.0699999999999</ele>
        <time>2014-07-15T13:33:21Z</time>
      </trkpt>
      <trkpt lat="45.96561242826283" lon="6.887221746146679">
        <ele>1962.1900000000001</ele>
        <time>2014-07-15T13:33:35Z</time>
      </trkpt>
      <trkpt lat="45.965533386915922" lon="6.887053856626153">
        <ele>1958.8199999999999</ele>
        <time>2014-07-15T13:33:49Z</time>
      </trkpt>
      <trkpt lat="45.965519808232784" lon="6.887026028707624">
        <ele>1957.8599999999999</ele>
        <time>2014-07-15T13:33:51Z</time>
      </trkpt>
      <trkpt lat="45.965445209294558" lon="6.886923685669899">
        <ele>1954.98</ele>
        <time>2014-07-15T13:34:03Z</time>
      </trkpt>
      <trkpt lat="45.965441940352321" lon="6.886909939348698">
        <ele>1954.5</ele>
        <time>2014-07-15T13:34:04Z</time>
      </trkpt>
      <trkpt lat="45.965374382212758" lon="6.886760238558054">
        <ele>1951.6099999999999</ele>
        <time>2014-07-15T13:34:17Z</time>
      </trkpt>
      <trkpt lat="45.965316966176033" lon="6.886654039844871">
        <ele>1948.73</ele>
        <time>2014-07-15T13:34:26Z</time>
      </trkpt>
      <trkpt lat="45.965238343924284" lon="6.88652160577476">
        <ele>1945.8499999999999</ele>
        <time>2014-07-15T13:34:39Z</time>
      </trkpt>
      <trkpt lat="45.965210851281881" lon="6.886487156152725">
        <ele>1944.4000000000001</ele>
        <time>2014-07-15T13:34:44Z</time>
      </trkpt>
      <trkpt lat="45.965127954259515" lon="6.886410377919674">
        <ele>1942.96</ele>
        <time>2014-07-15T13:34:57Z</time>
      </trkpt>
      <trkpt lat="45.965123511850834" lon="6.88640140928328">
        <ele>1941.04</ele>
        <time>2014-07-15T13:34:58Z</time>
      </trkpt>
      <trkpt lat="45.965028125792742" lon="6.886318679898977">
        <ele>1938.1600000000001</ele>
        <time>2014-07-15T13:35:11Z</time>
      </trkpt>
      <trkpt lat="45.964922681450844" lon="6.886300994083285">
        <ele>1934.79</ele>
        <time>2014-07-15T13:35:23Z</time>
      </trkpt>
      <trkpt lat="45.964905750006437" lon="6.886294791474938">
        <ele>1933.8299999999999</ele>
        <time>2014-07-15T13:35:25Z</time>
      </trkpt>
      <trkpt lat="45.964820673689246" lon="6.886259587481618">
        <ele>1932.3900000000001</ele>
        <time>2014-07-15T13:35:35Z</time>
      </trkpt>
      <trkpt lat="45.964775327593088" lon="6.886259755119681">
        <ele>1930.95</ele>
        <time>2014-07-15T13:35:39Z</time>
      </trkpt>
      <trkpt lat="45.964653706178069" lon="6.886198651045561">
        <ele>1928.0599999999999</ele>
        <time>2014-07-15T13:35:51Z</time>
      </trkpt>
      <trkpt lat="45.964623531326652" lon="6.886159339919686">
        <ele>1927.0999999999999</ele>
        <time>2014-07-15T13:35:55Z</time>
      </trkpt>
      <trkpt lat="45.964548261836171" lon="6.886008884757757">
        <ele>1923.74</ele>
        <time>2014-07-15T13:36:07Z</time>
      </trkpt>
      <trkpt lat="45.964541640132666" lon="6.885997485369444">
        <ele>1923.74</ele>
        <time>2014-07-15T13:36:08Z</time>
      </trkpt>
      <trkpt lat="45.964513393118978" lon="6.885954989120364">
        <ele>1923.25</ele>
        <time>2014-07-15T13:36:12Z</time>
      </trkpt>
      <trkpt lat="45.964499982073903" lon="6.885915845632553">
        <ele>1921.8099999999999</ele>
        <time>2014-07-15T13:36:15Z</time>
      </trkpt>
      <trkpt lat="45.96445488743484" lon="6.885872762650251">
        <ele>1920.8499999999999</ele>
        <time>2014-07-15T13:36:21Z</time>
      </trkpt>
      <trkpt lat="45.964387832209468" lon="6.885850131511688">
        <ele>1918.9300000000001</ele>
        <time>2014-07-15T13:36:28Z</time>
      </trkpt>
      <trkpt lat="45.964272413402796" lon="6.885802187025547">
        <ele>1916.04</ele>
        <time>2014-07-15T13:36:41Z</time>
      </trkpt>
      <trkpt lat="45.964156156405807" lon="6.885746363550425">
        <ele>1912.6800000000001</ele>
        <time>2014-07-15T13:36:53Z</time>
      </trkpt>
      <trkpt lat="45.964131848886609" lon="6.885765306651592">
        <ele>1912.2</ele>
        <time>2014-07-15T13:36:58Z</time>
      </trkpt>
      <trkpt lat="45.964124724268913" lon="6.885914085432887">
        <ele>1908.8299999999999</ele>
        <time>2014-07-15T13:37:09Z</time>
      </trkpt>
      <trkpt lat="45.964125143364072" lon="6.885945182293654">
        <ele>1908.3499999999999</ele>
        <time>2014-07-15T13:37:11Z</time>
      </trkpt>
      <trkpt lat="45.964129166677594" lon="6.886090943589807">
        <ele>1905.95</ele>
        <time>2014-07-15T13:37:20Z</time>
      </trkpt>
      <trkpt lat="45.964150372892618" lon="6.886219019070268">
        <ele>1904.03</ele>
        <time>2014-07-15T13:37:29Z</time>
      </trkpt>
      <trkpt lat="45.964131597429514" lon="6.886284565553069">
        <ele>1902.5899999999999</ele>
        <time>2014-07-15T13:37:33Z</time>
      </trkpt>
      <trkpt lat="45.964117851108313" lon="6.886464357376099">
        <ele>1900.1800000000001</ele>
        <time>2014-07-15T13:37:46Z</time>
      </trkpt>
      <trkpt lat="45.964103853330016" lon="6.886607352644205">
        <ele>1898.74</ele>
        <time>2014-07-15T13:37:54Z</time>
      </trkpt>
      <trkpt lat="45.964101506397128" lon="6.886799298226833">
        <ele>1895.3800000000001</ele>
        <time>2014-07-15T13:38:07Z</time>
      </trkpt>
      <trkpt lat="45.964093124493957" lon="6.886872053146362">
        <ele>1894.4200000000001</ele>
        <time>2014-07-15T13:38:13Z</time>
      </trkpt>
      <trkpt lat="45.964089771732688" lon="6.887014880776405">
        <ele>1893.45</ele>
        <time>2014-07-15T13:38:24Z</time>
      </trkpt>
      <trkpt lat="45.964097566902637" lon="6.887137005105615">
        <ele>1890.5699999999999</ele>
        <time>2014-07-15T13:38:32Z</time>
      </trkpt>
      <trkpt lat="45.96409672871232" lon="6.887380331754684">
        <ele>1887.21</ele>
        <time>2014-07-15T13:38:46Z</time>
      </trkpt>
      <trkpt lat="45.9641133248806" lon="6.88759851269424">
        <ele>1885.76</ele>
        <time>2014-07-15T13:38:59Z</time>
      </trkpt>
      <trkpt lat="45.964118521660566" lon="6.887734215706587">
        <ele>1883.3599999999999</ele>
        <time>2014-07-15T13:39:07Z</time>
      </trkpt>
      <trkpt lat="45.96409035846591" lon="6.887838905677199">
        <ele>1882.8800000000001</ele>
        <time>2014-07-15T13:39:22Z</time>
      </trkpt>
      <trkpt lat="45.964013328775764" lon="6.88778760842979">
        <ele>1882.4000000000001</ele>
        <time>2014-07-15T13:39:35Z</time>
      </trkpt>
      <trkpt lat="45.964020621031523" lon="6.887781908735633">
        <ele>1881.9200000000001</ele>
        <time>2014-07-15T13:39:53Z</time>
      </trkpt>
      <trkpt lat="45.964021878316998" lon="6.887761121615768">
        <ele>1881.9200000000001</ele>
        <time>2014-07-15T13:40:15Z</time>
      </trkpt>
      <trkpt lat="45.964009808376431" lon="6.88778031617403">
        <ele>1882.4000000000001</ele>
        <time>2014-07-15T13:40:34Z</time>
      </trkpt>
      <trkpt lat="45.964028583839536" lon="6.887743435800076">
        <ele>1881.4400000000001</ele>
        <time>2014-07-15T13:40:58Z</time>
      </trkpt>
      <trkpt lat="45.96400436013937" lon="6.887789955362678">
        <ele>1882.4000000000001</ele>
        <time>2014-07-15T13:41:15Z</time>
      </trkpt>
      <trkpt lat="45.963992541655898" lon="6.887773694470525">
        <ele>1881.9200000000001</ele>
        <time>2014-07-15T13:41:39Z</time>
      </trkpt>
      <trkpt lat="45.963996229693294" lon="6.887791296467185">
        <ele>1880.96</ele>
        <time>2014-07-15T13:42:03Z</time>
      </trkpt>
      <trkpt lat="45.96399363130331" lon="6.887798923999071">
        <ele>1881.4400000000001</ele>
        <time>2014-07-15T13:42:27Z</time>
      </trkpt>
      <trkpt lat="45.963988015428185" lon="6.887795152142644">
        <ele>1880.96</ele>
        <time>2014-07-15T13:42:55Z</time>
      </trkpt>
      <trkpt lat="45.963991032913327" lon="6.887793811038137">
        <ele>1880.96</ele>
        <time>2014-07-15T13:43:19Z</time>
      </trkpt>
      <trkpt lat="45.963990613818169" lon="6.887787524610758">
        <ele>1880.96</ele>
        <time>2014-07-15T13:43:43Z</time>
      </trkpt>
      <trkpt lat="45.964013328775764" lon="6.8877715151757">
        <ele>1881.4400000000001</ele>
        <time>2014-07-15T13:44:06Z</time>
      </trkpt>
      <trkpt lat="45.963998241350055" lon="6.887751314789057">
        <ele>1880.96</ele>
        <time>2014-07-15T13:44:30Z</time>
      </trkpt>
      <trkpt lat="45.963945351541042" lon="6.887650229036808">
        <ele>1879.03</ele>
        <time>2014-07-15T13:44:40Z</time>
      </trkpt>
      <trkpt lat="45.963814510032535" lon="6.887494744732976">
        <ele>1876.6300000000001</ele>
        <time>2014-07-15T13:44:57Z</time>
      </trkpt>
      <trkpt lat="45.963641172274947" lon="6.887374548241496">
        <ele>1874.23</ele>
        <time>2014-07-15T13:45:15Z</time>
      </trkpt>
      <trkpt lat="45.963472109287977" lon="6.887250244617462">
        <ele>1871.8199999999999</ele>
        <time>2014-07-15T13:45:32Z</time>
      </trkpt>
      <trkpt lat="45.963324001058936" lon="6.887113871052861">
        <ele>1869.4200000000001</ele>
        <time>2014-07-15T13:45:48Z</time>
      </trkpt>
      <trkpt lat="45.963141778483987" lon="6.887030135840178">
        <ele>1868.9400000000001</ele>
        <time>2014-07-15T13:46:05Z</time>
      </trkpt>
      <trkpt lat="45.962986629456282" lon="6.88693692907691">
        <ele>1867.5</ele>
        <time>2014-07-15T13:46:21Z</time>
      </trkpt>
      <trkpt lat="45.962944217026234" lon="6.886925362050533">
        <ele>1866.0599999999999</ele>
        <time>2014-07-15T13:46:25Z</time>
      </trkpt>
      <trkpt lat="45.962779093533754" lon="6.886892924085259">
        <ele>1865.0899999999999</ele>
        <time>2014-07-15T13:46:41Z</time>
      </trkpt>
      <trkpt lat="45.9627456497401" lon="6.886861575767398">
        <ele>1865.0899999999999</ele>
        <time>2014-07-15T13:46:53Z</time>
      </trkpt>
      <trkpt lat="45.962717570364475" lon="6.886889906600118">
        <ele>1865.0899999999999</ele>
        <time>2014-07-15T13:47:13Z</time>
      </trkpt>
      <trkpt lat="45.962717402726412" lon="6.886868448927999">
        <ele>1864.6099999999999</ele>
        <time>2014-07-15T13:47:34Z</time>
      </trkpt>
      <trkpt lat="45.962708685547113" lon="6.886861072853208">
        <ele>1864.6099999999999</ele>
        <time>2014-07-15T13:47:54Z</time>
      </trkpt>
      <trkpt lat="45.962714804336429" lon="6.886864341795445">
        <ele>1864.1300000000001</ele>
        <time>2014-07-15T13:48:16Z</time>
      </trkpt>
      <trkpt lat="45.96270021982491" lon="6.886861408129334">
        <ele>1864.1300000000001</ele>
        <time>2014-07-15T13:48:36Z</time>
      </trkpt>
      <trkpt lat="45.962707176804543" lon="6.886862833052874">
        <ele>1864.6099999999999</ele>
        <time>2014-07-15T13:48:58Z</time>
      </trkpt>
      <trkpt lat="45.96270608715713" lon="6.886826371774077">
        <ele>1864.6099999999999</ele>
        <time>2014-07-15T13:49:19Z</time>
      </trkpt>
      <trkpt lat="45.962707260623574" lon="6.886846236884594">
        <ele>1865.0899999999999</ele>
        <time>2014-07-15T13:49:39Z</time>
      </trkpt>
      <trkpt lat="45.962716648355126" lon="6.886841878294945">
        <ele>1865.0899999999999</ele>
        <time>2014-07-15T13:50:01Z</time>
      </trkpt>
      <trkpt lat="45.962710613384843" lon="6.886843973770738">
        <ele>1865.0899999999999</ele>
        <time>2014-07-15T13:50:24Z</time>
      </trkpt>
      <trkpt lat="45.962690161541104" lon="6.886809943243861">
        <ele>1865.0899999999999</ele>
        <time>2014-07-15T13:50:39Z</time>
      </trkpt>
      <trkpt lat="45.962698962539434" lon="6.88678446225822">
        <ele>1865.0899999999999</ele>
        <time>2014-07-15T13:51:06Z</time>
      </trkpt>
      <trkpt lat="45.962721174582839" lon="6.886805249378085">
        <ele>1865.5799999999999</ele>
        <time>2014-07-15T13:51:24Z</time>
      </trkpt>
      <trkpt lat="45.96265722066164" lon="6.88682209700346">
        <ele>1865.5799999999999</ele>
        <time>2014-07-15T13:51:40Z</time>
      </trkpt>
      <trkpt lat="45.962677001953125" lon="6.886835508048534">
        <ele>1865.5799999999999</ele>
        <time>2014-07-15T13:51:52Z</time>
      </trkpt>
      <trkpt lat="45.962525960057974" lon="6.886930391192436">
        <ele>1864.1300000000001</ele>
        <time>2014-07-15T13:52:08Z</time>
      </trkpt>
      <trkpt lat="45.962352706119418" lon="6.887050000950694">
        <ele>1865.0899999999999</ele>
        <time>2014-07-15T13:52:26Z</time>
      </trkpt>
      <trkpt lat="45.962279699742794" lon="6.887084702029824">
        <ele>1867.98</ele>
        <time>2014-07-15T13:52:35Z</time>
      </trkpt>
      <trkpt lat="45.962128825485706" lon="6.887265248224139">
        <ele>1871.3399999999999</ele>
        <time>2014-07-15T13:52:58Z</time>
      </trkpt>
      <trkpt lat="45.962011395022273" lon="6.887344876304269">
        <ele>1874.23</ele>
        <time>2014-07-15T13:53:16Z</time>
      </trkpt>
      <trkpt lat="45.961981806904078" lon="6.887324675917625">
        <ele>1874.71</ele>
        <time>2014-07-15T13:53:20Z</time>
      </trkpt>
      <trkpt lat="45.961930509656668" lon="6.887108506634831">
        <ele>1877.5899999999999</ele>
        <time>2014-07-15T13:53:39Z</time>
      </trkpt>
      <trkpt lat="45.961918858811259" lon="6.886927876621485">
        <ele>1880.96</ele>
        <time>2014-07-15T13:53:56Z</time>
      </trkpt>
      <trkpt lat="45.961913578212261" lon="6.886676587164402">
        <ele>1883.8399999999999</ele>
        <time>2014-07-15T13:54:18Z</time>
      </trkpt>
      <trkpt lat="45.961899077519774" lon="6.886488581076264">
        <ele>1886.24</ele>
        <time>2014-07-15T13:54:36Z</time>
      </trkpt>
      <trkpt lat="45.9619823936373" lon="6.886263024061918">
        <ele>1889.6099999999999</ele>
        <time>2014-07-15T13:54:54Z</time>
      </trkpt>
      <trkpt lat="45.961866304278374" lon="6.886240476742387">
        <ele>1892.97</ele>
        <time>2014-07-15T13:55:11Z</time>
      </trkpt>
      <trkpt lat="45.961746610701084" lon="6.886453041806817">
        <ele>1894.9000000000001</ele>
        <time>2014-07-15T13:55:31Z</time>
      </trkpt>
      <trkpt lat="45.961666898801923" lon="6.886545410379767">
        <ele>1896.8199999999999</ele>
        <time>2014-07-15T13:55:42Z</time>
      </trkpt>
      <trkpt lat="45.961661115288734" lon="6.88655479811132">
        <ele>1896.8199999999999</ele>
        <time>2014-07-15T13:55:43Z</time>
      </trkpt>
      <trkpt lat="45.961606716737151" lon="6.886604335159063">
        <ele>1897.3</ele>
        <time>2014-07-15T13:55:49Z</time>
      </trkpt>
      <trkpt lat="45.96158810891211" lon="6.886640712618828">
        <ele>1897.78</ele>
        <time>2014-07-15T13:55:52Z</time>
      </trkpt>
      <trkpt lat="45.961456680670381" lon="6.886768788099289">
        <ele>1899.7</ele>
        <time>2014-07-15T13:56:06Z</time>
      </trkpt>
      <trkpt lat="45.961447125300765" lon="6.886777505278587">
        <ele>1899.7</ele>
        <time>2014-07-15T13:56:07Z</time>
      </trkpt>
      <trkpt lat="45.961261047050357" lon="6.886867107823491">
        <ele>1900.6600000000001</ele>
        <time>2014-07-15T13:56:25Z</time>
      </trkpt>
      <trkpt lat="45.961086619645357" lon="6.886972719803453">
        <ele>1901.6300000000001</ele>
        <time>2014-07-15T13:56:42Z</time>
      </trkpt>
      <trkpt lat="45.960987377911806" lon="6.887054275721312">
        <ele>1899.22</ele>
        <time>2014-07-15T13:56:56Z</time>
      </trkpt>
      <trkpt lat="45.960975978523493" lon="6.887104650959373">
        <ele>1898.26</ele>
        <time>2014-07-15T13:57:02Z</time>
      </trkpt>
      <trkpt lat="45.960953095927835" lon="6.887190481647849">
        <ele>1897.78</ele>
        <time>2014-07-15T13:57:14Z</time>
      </trkpt>
      <trkpt lat="45.960946558043361" lon="6.887199198827148">
        <ele>1897.78</ele>
        <time>2014-07-15T13:57:15Z</time>
      </trkpt>
      <trkpt lat="45.960916969925165" lon="6.887239599600434">
        <ele>1896.8199999999999</ele>
        <time>2014-07-15T13:57:19Z</time>
      </trkpt>
      <trkpt lat="45.960870366543531" lon="6.887253429740667">
        <ele>1894.4200000000001</ele>
        <time>2014-07-15T13:57:23Z</time>
      </trkpt>
      <trkpt lat="45.960779590532184" lon="6.887306487187743">
        <ele>1892.49</ele>
        <time>2014-07-15T13:57:31Z</time>
      </trkpt>
      <trkpt lat="45.960622597485781" lon="6.887407740578055">
        <ele>1888.1700000000001</ele>
        <time>2014-07-15T13:57:46Z</time>
      </trkpt>
      <trkpt lat="45.960613545030355" lon="6.887407824397087">
        <ele>1888.1700000000001</ele>
        <time>2014-07-15T13:57:47Z</time>
      </trkpt>
      <trkpt lat="45.960578005760908" lon="6.887401537969708">
        <ele>1886.72</ele>
        <time>2014-07-15T13:57:50Z</time>
      </trkpt>
      <trkpt lat="45.960384383797646" lon="6.887409249320626">
        <ele>1887.21</ele>
        <time>2014-07-15T13:58:05Z</time>
      </trkpt>
      <trkpt lat="45.960286650806665" lon="6.887386534363031">
        <ele>1890.0899999999999</ele>
        <time>2014-07-15T13:58:15Z</time>
      </trkpt>
      <trkpt lat="45.960268964990973" lon="6.887381505221129">
        <ele>1890.5699999999999</ele>
        <time>2014-07-15T13:58:17Z</time>
      </trkpt>
      <trkpt lat="45.96013099886477" lon="6.887451745569706">
        <ele>1891.53</ele>
        <time>2014-07-15T13:58:31Z</time>
      </trkpt>
      <trkpt lat="45.95999563112855" lon="6.887525506317616">
        <ele>1889.6099999999999</ele>
        <time>2014-07-15T13:58:45Z</time>
      </trkpt>
      <trkpt lat="45.959988674148917" lon="6.887506982311606">
        <ele>1890.0899999999999</ele>
        <time>2014-07-15T13:58:59Z</time>
      </trkpt>
      <trkpt lat="45.959978867322206" lon="6.887498516589403">
        <ele>1890.5699999999999</ele>
        <time>2014-07-15T13:59:02Z</time>
      </trkpt>
      <trkpt lat="45.959904603660107" lon="6.887370692566037">
        <ele>1890.0899999999999</ele>
        <time>2014-07-15T13:59:12Z</time>
      </trkpt>
      <trkpt lat="45.959908626973629" lon="6.88733858987689">
        <ele>1889.1300000000001</ele>
        <time>2014-07-15T13:59:19Z</time>
      </trkpt>
      <trkpt lat="45.959897898137569" lon="6.887304056435823">
        <ele>1887.6900000000001</ele>
        <time>2014-07-15T13:59:24Z</time>
      </trkpt>
      <trkpt lat="45.959983393549919" lon="6.887212274596095">
        <ele>1889.6099999999999</ele>
        <time>2014-07-15T13:59:40Z</time>
      </trkpt>
    </trkseg>
  </trk>

  <trk>
    <name>5tmb2014-07-16fatto</name>
    <extensions>
      <gpxx:TrackExtension>
        <gpxx:DisplayColor>Yellow</gpxx:DisplayColor>
      </gpxx:TrackExtension>
      <gpxtrkx:TrackStatsExtension xmlns:gpxtrkx="http://www.garmin.com/xmlschemas/TrackStatsExtension/v1">
        <gpxtrkx:Distance>24011</gpxtrkx:Distance>
        <gpxtrkx:TotalElapsedTime>38554</gpxtrkx:TotalElapsedTime>
        <gpxtrkx:MovingTime>24882</gpxtrkx:MovingTime>
        <gpxtrkx:StoppedTime>13569</gpxtrkx:StoppedTime>
        <gpxtrkx:MovingSpeed>1</gpxtrkx:MovingSpeed>
        <gpxtrkx:MaxSpeed>4</gpxtrkx:MaxSpeed>
        <gpxtrkx:MaxElevation>2529</gpxtrkx:MaxElevation>
        <gpxtrkx:MinElevation>994</gpxtrkx:MinElevation>
        <gpxtrkx:Ascent>1069</gpxtrkx:Ascent>
        <gpxtrkx:Descent>1776</gpxtrkx:Descent>
        <gpxtrkx:AvgAscentRate>0</gpxtrkx:AvgAscentRate>
        <gpxtrkx:MaxAscentRate>1</gpxtrkx:MaxAscentRate>
        <gpxtrkx:AvgDescentRate>0</gpxtrkx:AvgDescentRate>
        <gpxtrkx:MaxDescentRate>-1</gpxtrkx:MaxDescentRate>
      </gpxtrkx:TrackStatsExtension>
    </extensions>
    <trkseg>
      <trkpt lat="45.959864454343915" lon="6.887337919324637">
        <ele>1881.4400000000001</ele>
        <time>2014-07-16T05:40:34Z</time>
      </trkpt>
      <trkpt lat="45.959864286705852" lon="6.887336494401097">
        <ele>1881.4400000000001</ele>
        <time>2014-07-16T05:40:35Z</time>
      </trkpt>
      <trkpt lat="45.959864119067788" lon="6.887350911274552">
        <ele>1880.96</ele>
        <time>2014-07-16T05:40:51Z</time>
      </trkpt>
      <trkpt lat="45.959864035248756" lon="6.887358790263534">
        <ele>1880.96</ele>
        <time>2014-07-16T05:40:52Z</time>
      </trkpt>
      <trkpt lat="45.959886414930224" lon="6.887353342026472">
        <ele>1881.9200000000001</ele>
        <time>2014-07-16T05:41:05Z</time>
      </trkpt>
      <trkpt lat="45.959866801276803" lon="6.887369183823466">
        <ele>1881.4400000000001</ele>
        <time>2014-07-16T05:41:23Z</time>
      </trkpt>
      <trkpt lat="45.959868477657437" lon="6.887343786656857">
        <ele>1881.4400000000001</ele>
        <time>2014-07-16T05:41:34Z</time>
      </trkpt>
      <trkpt lat="45.959868645295501" lon="6.887352168560028">
        <ele>1881.4400000000001</ele>
        <time>2014-07-16T05:41:49Z</time>
      </trkpt>
      <trkpt lat="45.959888510406017" lon="6.887407824397087">
        <ele>1880.96</ele>
        <time>2014-07-16T05:42:02Z</time>
      </trkpt>
      <trkpt lat="45.959870321676135" lon="6.887468341737986">
        <ele>1881.4400000000001</ele>
        <time>2014-07-16T05:42:17Z</time>
      </trkpt>
      <trkpt lat="45.959871159866452" lon="6.887458954006434">
        <ele>1880.96</ele>
        <time>2014-07-16T05:42:26Z</time>
      </trkpt>
      <trkpt lat="45.959840649738908" lon="6.887367339804769">
        <ele>1880.96</ele>
        <time>2014-07-16T05:42:38Z</time>
      </trkpt>
      <trkpt lat="45.959853809326887" lon="6.887331968173385">
        <ele>1880.96</ele>
        <time>2014-07-16T05:42:42Z</time>
      </trkpt>
      <trkpt lat="45.959900664165616" lon="6.887231217697263">
        <ele>1881.4400000000001</ele>
        <time>2014-07-16T05:42:51Z</time>
      </trkpt>
      <trkpt lat="45.959992194548249" lon="6.887207077816129">
        <ele>1882.4000000000001</ele>
        <time>2014-07-16T05:43:02Z</time>
      </trkpt>
      <trkpt lat="45.959967384114861" lon="6.887237587943673">
        <ele>1882.4000000000001</ele>
        <time>2014-07-16T05:43:09Z</time>
      </trkpt>
      <trkpt lat="45.959950285032392" lon="6.887223925441504">
        <ele>1882.4000000000001</ele>
        <time>2014-07-16T05:43:11Z</time>
      </trkpt>
      <trkpt lat="45.959934527054429" lon="6.887033153325319">
        <ele>1881.4400000000001</ele>
        <time>2014-07-16T05:43:26Z</time>
      </trkpt>
      <trkpt lat="45.959906196221709" lon="6.886870292946696">
        <ele>1880</ele>
        <time>2014-07-16T05:43:39Z</time>
      </trkpt>
      <trkpt lat="45.959968641400337" lon="6.886672480031848">
        <ele>1879.03</ele>
        <time>2014-07-16T05:43:53Z</time>
      </trkpt>
      <trkpt lat="45.959985572844744" lon="6.886446001008153">
        <ele>1877.5899999999999</ele>
        <time>2014-07-16T05:44:10Z</time>
      </trkpt>
      <trkpt lat="45.959980711340904" lon="6.886397218331695">
        <ele>1878.0699999999999</ele>
        <time>2014-07-16T05:44:14Z</time>
      </trkpt>
      <trkpt lat="45.959924133494496" lon="6.886240392923355">
        <ele>1877.1099999999999</ele>
        <time>2014-07-16T05:44:28Z</time>
      </trkpt>
      <trkpt lat="45.959862023591995" lon="6.886119861155748">
        <ele>1876.1500000000001</ele>
        <time>2014-07-16T05:44:40Z</time>
      </trkpt>
      <trkpt lat="45.959827322512865" lon="6.886092117056251">
        <ele>1875.1900000000001</ele>
        <time>2014-07-16T05:44:44Z</time>
      </trkpt>
      <trkpt lat="45.95973176881671" lon="6.886045094579458">
        <ele>1874.23</ele>
        <time>2014-07-16T05:44:57Z</time>
      </trkpt>
      <trkpt lat="45.959647363051772" lon="6.885924059897661">
        <ele>1871.8199999999999</ele>
        <time>2014-07-16T05:45:11Z</time>
      </trkpt>
      <trkpt lat="45.959640573710203" lon="6.885906038805842">
        <ele>1871.8199999999999</ele>
        <time>2014-07-16T05:45:13Z</time>
      </trkpt>
      <trkpt lat="45.959623055532575" lon="6.885746698826551">
        <ele>1870.8599999999999</ele>
        <time>2014-07-16T05:45:25Z</time>
      </trkpt>
      <trkpt lat="45.959593635052443" lon="6.885677045211196">
        <ele>1870.3800000000001</ele>
        <time>2014-07-16T05:45:32Z</time>
      </trkpt>
      <trkpt lat="45.959530016407371" lon="6.88554871827364">
        <ele>1869.4200000000001</ele>
        <time>2014-07-16T05:45:44Z</time>
      </trkpt>
      <trkpt lat="45.95949674025178" lon="6.885472442954779">
        <ele>1869.4200000000001</ele>
        <time>2014-07-16T05:45:51Z</time>
      </trkpt>
      <trkpt lat="45.959413507953286" lon="6.885342858731747">
        <ele>1871.3399999999999</ele>
        <time>2014-07-16T05:46:06Z</time>
      </trkpt>
      <trkpt lat="45.95936874859035" lon="6.885203802958131">
        <ele>1874.23</ele>
        <time>2014-07-16T05:46:22Z</time>
      </trkpt>
      <trkpt lat="45.959270177409053" lon="6.885088048875332">
        <ele>1870.8599999999999</ele>
        <time>2014-07-16T05:46:38Z</time>
      </trkpt>
      <trkpt lat="45.959211923182011" lon="6.885041864588857">
        <ele>1869.4200000000001</ele>
        <time>2014-07-16T05:46:46Z</time>
      </trkpt>
      <trkpt lat="45.959113016724586" lon="6.884907335042954">
        <ele>1866.54</ele>
        <time>2014-07-16T05:47:00Z</time>
      </trkpt>
      <trkpt lat="45.958999022841454" lon="6.884768782183528">
        <ele>1866.0599999999999</ele>
        <time>2014-07-16T05:47:14Z</time>
      </trkpt>
      <trkpt lat="45.958986282348633" lon="6.884721424430609">
        <ele>1866.54</ele>
        <time>2014-07-16T05:47:18Z</time>
      </trkpt>
      <trkpt lat="45.958965159952641" lon="6.884642047807574">
        <ele>1866.54</ele>
        <time>2014-07-16T05:47:23Z</time>
      </trkpt>
      <trkpt lat="45.958929201588035" lon="6.884567951783538">
        <ele>1867.02</ele>
        <time>2014-07-16T05:47:29Z</time>
      </trkpt>
      <trkpt lat="45.958917383104563" lon="6.884395703673363">
        <ele>1868.46</ele>
        <time>2014-07-16T05:47:43Z</time>
      </trkpt>
      <trkpt lat="45.958924004808068" lon="6.884302580729127">
        <ele>1867.98</ele>
        <time>2014-07-16T05:47:49Z</time>
      </trkpt>
      <trkpt lat="45.958907157182693" lon="6.884180875495076">
        <ele>1867.98</ele>
        <time>2014-07-16T05:47:57Z</time>
      </trkpt>
      <trkpt lat="45.958861140534282" lon="6.883993120864034">
        <ele>1869.4200000000001</ele>
        <time>2014-07-16T05:48:13Z</time>
      </trkpt>
      <trkpt lat="45.958826187998056" lon="6.883862530812621">
        <ele>1869.9000000000001</ele>
        <time>2014-07-16T05:48:24Z</time>
      </trkpt>
      <trkpt lat="45.95882928930223" lon="6.883834451436997">
        <ele>1870.3800000000001</ele>
        <time>2014-07-16T05:48:26Z</time>
      </trkpt>
      <trkpt lat="45.958894416689873" lon="6.883705705404282">
        <ele>1870.8599999999999</ele>
        <time>2014-07-16T05:48:39Z</time>
      </trkpt>
      <trkpt lat="45.958856027573347" lon="6.883588107302785">
        <ele>1873.27</ele>
        <time>2014-07-16T05:48:53Z</time>
      </trkpt>
      <trkpt lat="45.958816967904568" lon="6.883482998237014">
        <ele>1873.27</ele>
        <time>2014-07-16T05:49:03Z</time>
      </trkpt>
      <trkpt lat="45.958732226863503" lon="6.88331376761198">
        <ele>1874.23</ele>
        <time>2014-07-16T05:49:19Z</time>
      </trkpt>
      <trkpt lat="45.958693837746978" lon="6.883109165355563">
        <ele>1873.75</ele>
        <time>2014-07-16T05:49:34Z</time>
      </trkpt>
      <trkpt lat="45.958665758371353" lon="6.8830088339746">
        <ele>1874.23</ele>
        <time>2014-07-16T05:49:49Z</time>
      </trkpt>
      <trkpt lat="45.958611024543643" lon="6.88288084231317">
        <ele>1873.27</ele>
        <time>2014-07-16T05:50:01Z</time>
      </trkpt>
      <trkpt lat="45.95853416249156" lon="6.882709516212344">
        <ele>1872.3</ele>
        <time>2014-07-16T05:50:14Z</time>
      </trkpt>
      <trkpt lat="45.958473645150661" lon="6.882563503459096">
        <ele>1873.27</ele>
        <time>2014-07-16T05:50:29Z</time>
      </trkpt>
      <trkpt lat="45.958461407572031" lon="6.882454622536898">
        <ele>1872.79</ele>
        <time>2014-07-16T05:50:37Z</time>
      </trkpt>
      <trkpt lat="45.958449505269527" lon="6.882398212328553">
        <ele>1872.79</ele>
        <time>2014-07-16T05:50:45Z</time>
      </trkpt>
      <trkpt lat="45.958413043990731" lon="6.882245242595673">
        <ele>1873.27</ele>
        <time>2014-07-16T05:50:55Z</time>
      </trkpt>
      <trkpt lat="45.95834163017571" lon="6.882037371397018">
        <ele>1873.75</ele>
        <time>2014-07-16T05:51:11Z</time>
      </trkpt>
      <trkpt lat="45.958313634619117" lon="6.881833355873823">
        <ele>1873.27</ele>
        <time>2014-07-16T05:51:24Z</time>
      </trkpt>
      <trkpt lat="45.958313969895244" lon="6.881768731400371">
        <ele>1873.27</ele>
        <time>2014-07-16T05:51:28Z</time>
      </trkpt>
      <trkpt lat="45.958320926874876" lon="6.881508976221085">
        <ele>1872.3</ele>
        <time>2014-07-16T05:51:44Z</time>
      </trkpt>
      <trkpt lat="45.958313047885895" lon="6.88144669868052">
        <ele>1871.8199999999999</ele>
        <time>2014-07-16T05:51:48Z</time>
      </trkpt>
      <trkpt lat="45.958268539980054" lon="6.881230613216758">
        <ele>1871.8199999999999</ele>
        <time>2014-07-16T05:52:03Z</time>
      </trkpt>
      <trkpt lat="45.958269378170371" lon="6.881213011220098">
        <ele>1871.8199999999999</ele>
        <time>2014-07-16T05:52:04Z</time>
      </trkpt>
      <trkpt lat="45.958288237452507" lon="6.881132125854492">
        <ele>1871.8199999999999</ele>
        <time>2014-07-16T05:52:10Z</time>
      </trkpt>
      <trkpt lat="45.95830449834466" lon="6.880986280739307">
        <ele>1870.8599999999999</ele>
        <time>2014-07-16T05:52:23Z</time>
      </trkpt>
      <trkpt lat="45.958344228565693" lon="6.880906065925956">
        <ele>1867.98</ele>
        <time>2014-07-16T05:52:36Z</time>
      </trkpt>
      <trkpt lat="45.958344647660851" lon="6.880880501121283">
        <ele>1865.0899999999999</ele>
        <time>2014-07-16T05:52:49Z</time>
      </trkpt>
      <trkpt lat="45.958353532478213" lon="6.880839932709932">
        <ele>1862.6900000000001</ele>
        <time>2014-07-16T05:53:01Z</time>
      </trkpt>
      <trkpt lat="45.958348838612437" lon="6.880827443674207">
        <ele>1860.77</ele>
        <time>2014-07-16T05:53:15Z</time>
      </trkpt>
      <trkpt lat="45.958356549963355" lon="6.880788300186396">
        <ele>1859.3299999999999</ele>
        <time>2014-07-16T05:53:35Z</time>
      </trkpt>
      <trkpt lat="45.958381863310933" lon="6.880790228024125">
        <ele>1858.3699999999999</ele>
        <time>2014-07-16T05:53:46Z</time>
      </trkpt>
      <trkpt lat="45.958359399810433" lon="6.880782684311271">
        <ele>1856.9200000000001</ele>
        <time>2014-07-16T05:53:57Z</time>
      </trkpt>
      <trkpt lat="45.958331990987062" lon="6.880764411762357">
        <ele>1855.48</ele>
        <time>2014-07-16T05:54:06Z</time>
      </trkpt>
      <trkpt lat="45.958373649045825" lon="6.88071277923882">
        <ele>1854.52</ele>
        <time>2014-07-16T05:54:16Z</time>
      </trkpt>
      <trkpt lat="45.958378510549664" lon="6.880701966583729">
        <ele>1854.52</ele>
        <time>2014-07-16T05:54:17Z</time>
      </trkpt>
      <trkpt lat="45.958421090617776" lon="6.880685370415449">
        <ele>1854.04</ele>
        <time>2014-07-16T05:54:37Z</time>
      </trkpt>
      <trkpt lat="45.958421006798744" lon="6.880673384293914">
        <ele>1853.5599999999999</ele>
        <time>2014-07-16T05:54:53Z</time>
      </trkpt>
      <trkpt lat="45.958443721756339" lon="6.880592498928309">
        <ele>1854.04</ele>
        <time>2014-07-16T05:55:19Z</time>
      </trkpt>
      <trkpt lat="45.958456294611096" lon="6.880572633817792">
        <ele>1854.04</ele>
        <time>2014-07-16T05:55:21Z</time>
      </trkpt>
      <trkpt lat="45.958497449755669" lon="6.88048655167222">
        <ele>1855.48</ele>
        <time>2014-07-16T05:55:34Z</time>
      </trkpt>
      <trkpt lat="45.958539107814431" lon="6.880431398749352">
        <ele>1857.4000000000001</ele>
        <time>2014-07-16T05:55:45Z</time>
      </trkpt>
      <trkpt lat="45.958613874390721" lon="6.880335761234164">
        <ele>1859.3299999999999</ele>
        <time>2014-07-16T05:56:00Z</time>
      </trkpt>
      <trkpt lat="45.95867682248354" lon="6.880227215588093">
        <ele>1861.25</ele>
        <time>2014-07-16T05:56:15Z</time>
      </trkpt>
      <trkpt lat="45.958724012598395" lon="6.880174241960049">
        <ele>1862.21</ele>
        <time>2014-07-16T05:56:28Z</time>
      </trkpt>
      <trkpt lat="45.958769023418427" lon="6.880065612494946">
        <ele>1864.6099999999999</ele>
        <time>2014-07-16T05:56:44Z</time>
      </trkpt>
      <trkpt lat="45.958786122500896" lon="6.879944913089275">
        <ele>1866.54</ele>
        <time>2014-07-16T05:56:58Z</time>
      </trkpt>
      <trkpt lat="45.95883859321475" lon="6.879862435162067">
        <ele>1867.98</ele>
        <time>2014-07-16T05:57:12Z</time>
      </trkpt>
      <trkpt lat="45.958886789157987" lon="6.879797140136361">
        <ele>1867.98</ele>
        <time>2014-07-16T05:57:24Z</time>
      </trkpt>
      <trkpt lat="45.958942696452141" lon="6.87973452731967">
        <ele>1867.98</ele>
        <time>2014-07-16T05:57:40Z</time>
      </trkpt>
      <trkpt lat="45.95904135145247" lon="6.87971843406558">
        <ele>1868.9400000000001</ele>
        <time>2014-07-16T05:57:52Z</time>
      </trkpt>
      <trkpt lat="45.959082590416074" lon="6.879639979451895">
        <ele>1869.4200000000001</ele>
        <time>2014-07-16T05:58:06Z</time>
      </trkpt>
      <trkpt lat="45.959096923470497" lon="6.87958306632936">
        <ele>1869.4200000000001</ele>
        <time>2014-07-16T05:58:21Z</time>
      </trkpt>
      <trkpt lat="45.95912978053093" lon="6.879469742998481">
        <ele>1871.3399999999999</ele>
        <time>2014-07-16T05:58:31Z</time>
      </trkpt>
      <trkpt lat="45.959147969260812" lon="6.879407716915011">
        <ele>1871.3399999999999</ele>
        <time>2014-07-16T05:58:36Z</time>
      </trkpt>
      <trkpt lat="45.959191974252462" lon="6.879262626171112">
        <ele>1872.3</ele>
        <time>2014-07-16T05:58:48Z</time>
      </trkpt>
      <trkpt lat="45.959207145497203" lon="6.879168245941401">
        <ele>1872.79</ele>
        <time>2014-07-16T05:59:01Z</time>
      </trkpt>
      <trkpt lat="45.959215611219406" lon="6.87898158095777">
        <ele>1872.79</ele>
        <time>2014-07-16T05:59:14Z</time>
      </trkpt>
      <trkpt lat="45.959209660068154" lon="6.878901617601514">
        <ele>1872.79</ele>
        <time>2014-07-16T05:59:20Z</time>
      </trkpt>
      <trkpt lat="45.959224831312895" lon="6.878818972036243">
        <ele>1874.23</ele>
        <time>2014-07-16T05:59:28Z</time>
      </trkpt>
      <trkpt lat="45.959221897646785" lon="6.87874361872673">
        <ele>1873.75</ele>
        <time>2014-07-16T05:59:33Z</time>
      </trkpt>
      <trkpt lat="45.959220137447119" lon="6.878701038658619">
        <ele>1873.75</ele>
        <time>2014-07-16T05:59:37Z</time>
      </trkpt>
      <trkpt lat="45.95921041443944" lon="6.878545051440597">
        <ele>1872.79</ele>
        <time>2014-07-16T05:59:49Z</time>
      </trkpt>
      <trkpt lat="45.959222484380007" lon="6.87849685549736">
        <ele>1873.75</ele>
        <time>2014-07-16T05:59:55Z</time>
      </trkpt>
      <trkpt lat="45.959250228479505" lon="6.878345897421241">
        <ele>1874.23</ele>
        <time>2014-07-16T06:00:08Z</time>
      </trkpt>
      <trkpt lat="45.959239499643445" lon="6.878305999562144">
        <ele>1874.23</ele>
        <time>2014-07-16T06:00:11Z</time>
      </trkpt>
      <trkpt lat="45.959236230701208" lon="6.87829501926899">
        <ele>1874.23</ele>
        <time>2014-07-16T06:00:24Z</time>
      </trkpt>
      <trkpt lat="45.959199601784348" lon="6.878132410347462">
        <ele>1874.71</ele>
        <time>2014-07-16T06:00:37Z</time>
      </trkpt>
      <trkpt lat="45.959188118577003" lon="6.878127967938781">
        <ele>1875.1900000000001</ele>
        <time>2014-07-16T06:00:42Z</time>
      </trkpt>
      <trkpt lat="45.959062138572335" lon="6.878002407029271">
        <ele>1875.6700000000001</ele>
        <time>2014-07-16T06:00:58Z</time>
      </trkpt>
      <trkpt lat="45.958977565169334" lon="6.877932250499725">
        <ele>1875.6700000000001</ele>
        <time>2014-07-16T06:01:09Z</time>
      </trkpt>
      <trkpt lat="45.958964321762323" lon="6.877840971574187">
        <ele>1875.6700000000001</ele>
        <time>2014-07-16T06:01:16Z</time>
      </trkpt>
      <trkpt lat="45.958894249051809" lon="6.877737706527114">
        <ele>1875.1900000000001</ele>
        <time>2014-07-16T06:01:27Z</time>
      </trkpt>
      <trkpt lat="45.958810178562999" lon="6.877686576917768">
        <ele>1876.1500000000001</ele>
        <time>2014-07-16T06:01:42Z</time>
      </trkpt>
      <trkpt lat="45.958802215754986" lon="6.877704849466682">
        <ele>1876.1500000000001</ele>
        <time>2014-07-16T06:01:56Z</time>
      </trkpt>
      <trkpt lat="45.958599122241139" lon="6.87755967490375">
        <ele>1875.6700000000001</ele>
        <time>2014-07-16T06:02:15Z</time>
      </trkpt>
      <trkpt lat="45.958521002903581" lon="6.877481220290065">
        <ele>1876.6300000000001</ele>
        <time>2014-07-16T06:02:30Z</time>
      </trkpt>
      <trkpt lat="45.958381108939648" lon="6.877332609146833">
        <ele>1878.0699999999999</ele>
        <time>2014-07-16T06:02:45Z</time>
      </trkpt>
      <trkpt lat="45.958389574661851" lon="6.877248790115118">
        <ele>1878.55</ele>
        <time>2014-07-16T06:02:50Z</time>
      </trkpt>
      <trkpt lat="45.958400387316942" lon="6.877218279987574">
        <ele>1878.55</ele>
        <time>2014-07-16T06:02:53Z</time>
      </trkpt>
      <trkpt lat="45.958480518311262" lon="6.877063801512122">
        <ele>1878.0699999999999</ele>
        <time>2014-07-16T06:03:08Z</time>
      </trkpt>
      <trkpt lat="45.958521757274866" lon="6.876949556171894">
        <ele>1878.0699999999999</ele>
        <time>2014-07-16T06:03:26Z</time>
      </trkpt>
      <trkpt lat="45.958616808056831" lon="6.876710588112474">
        <ele>1877.5899999999999</ele>
        <time>2014-07-16T06:03:42Z</time>
      </trkpt>
      <trkpt lat="45.95867539756" lon="6.876459047198296">
        <ele>1878.55</ele>
        <time>2014-07-16T06:03:58Z</time>
      </trkpt>
      <trkpt lat="45.958727868273854" lon="6.87628285959363">
        <ele>1879.03</ele>
        <time>2014-07-16T06:04:10Z</time>
      </trkpt>
      <trkpt lat="45.958742285147309" lon="6.876265173777938">
        <ele>1879.03</ele>
        <time>2014-07-16T06:04:12Z</time>
      </trkpt>
      <trkpt lat="45.95877455547452" lon="6.876117484644055">
        <ele>1879.51</ele>
        <time>2014-07-16T06:04:23Z</time>
      </trkpt>
      <trkpt lat="45.95876919105649" lon="6.876049004495144">
        <ele>1880</ele>
        <time>2014-07-16T06:04:28Z</time>
      </trkpt>
      <trkpt lat="45.958764664828777" lon="6.875937273725867">
        <ele>1880</ele>
        <time>2014-07-16T06:04:42Z</time>
      </trkpt>
      <trkpt lat="45.958764832466841" lon="6.875844988971949">
        <ele>1880.48</ele>
        <time>2014-07-16T06:04:56Z</time>
      </trkpt>
      <trkpt lat="45.958737172186375" lon="6.875684643164277">
        <ele>1881.4400000000001</ele>
        <time>2014-07-16T06:05:08Z</time>
      </trkpt>
      <trkpt lat="45.958672799170017" lon="6.875457828864455">
        <ele>1882.4000000000001</ele>
        <time>2014-07-16T06:05:26Z</time>
      </trkpt>
      <trkpt lat="45.958631476387382" lon="6.87536034733057">
        <ele>1881.4400000000001</ele>
        <time>2014-07-16T06:05:38Z</time>
      </trkpt>
      <trkpt lat="45.958528546616435" lon="6.875201677903533">
        <ele>1880.48</ele>
        <time>2014-07-16T06:05:54Z</time>
      </trkpt>
      <trkpt lat="45.95845403149724" lon="6.87505591660738">
        <ele>1881.4400000000001</ele>
        <time>2014-07-16T06:06:09Z</time>
      </trkpt>
      <trkpt lat="45.958385802805424" lon="6.87495524995029">
        <ele>1882.8800000000001</ele>
        <time>2014-07-16T06:06:22Z</time>
      </trkpt>
      <trkpt lat="45.958346659317613" lon="6.874951310455799">
        <ele>1883.8399999999999</ele>
        <time>2014-07-16T06:06:33Z</time>
      </trkpt>
      <trkpt lat="45.958262169733644" lon="6.874938737601042">
        <ele>1881.9200000000001</ele>
        <time>2014-07-16T06:06:45Z</time>
      </trkpt>
      <trkpt lat="45.958224283531308" lon="6.874939659610391">
        <ele>1880.48</ele>
        <time>2014-07-16T06:06:51Z</time>
      </trkpt>
      <trkpt lat="45.958133423700929" lon="6.874914513900876">
        <ele>1880.48</ele>
        <time>2014-07-16T06:07:04Z</time>
      </trkpt>
      <trkpt lat="45.958096710965037" lon="6.874914932996035">
        <ele>1879.51</ele>
        <time>2014-07-16T06:07:09Z</time>
      </trkpt>
      <trkpt lat="45.957993110641837" lon="6.874867575243115">
        <ele>1879.03</ele>
        <time>2014-07-16T06:07:23Z</time>
      </trkpt>
      <trkpt lat="45.957896886393428" lon="6.874830527231097">
        <ele>1878.55</ele>
        <time>2014-07-16T06:07:36Z</time>
      </trkpt>
      <trkpt lat="45.957807870581746" lon="6.874771267175674">
        <ele>1879.03</ele>
        <time>2014-07-16T06:07:48Z</time>
      </trkpt>
      <trkpt lat="45.957744754850864" lon="6.874737152829766">
        <ele>1879.03</ele>
        <time>2014-07-16T06:08:00Z</time>
      </trkpt>
      <trkpt lat="45.957705359905958" lon="6.874712929129601">
        <ele>1879.03</ele>
        <time>2014-07-16T06:08:29Z</time>
      </trkpt>
      <trkpt lat="45.957692787051201" lon="6.874697590246797">
        <ele>1879.03</ele>
        <time>2014-07-16T06:08:31Z</time>
      </trkpt>
      <trkpt lat="45.957697313278913" lon="6.87461762689054">
        <ele>1879.51</ele>
        <time>2014-07-16T06:08:46Z</time>
      </trkpt>
      <trkpt lat="45.957680800929666" lon="6.874630451202393">
        <ele>1879.51</ele>
        <time>2014-07-16T06:09:07Z</time>
      </trkpt>
      <trkpt lat="45.957690104842186" lon="6.874634809792042">
        <ele>1879.51</ele>
        <time>2014-07-16T06:09:25Z</time>
      </trkpt>
      <trkpt lat="45.957662193104625" lon="6.874644868075848">
        <ele>1879.51</ele>
        <time>2014-07-16T06:09:49Z</time>
      </trkpt>
      <trkpt lat="45.957682561129332" lon="6.874637994915247">
        <ele>1879.51</ele>
        <time>2014-07-16T06:10:12Z</time>
      </trkpt>
      <trkpt lat="45.957685746252537" lon="6.874651238322258">
        <ele>1880</ele>
        <time>2014-07-16T06:10:45Z</time>
      </trkpt>
      <trkpt lat="45.957685746252537" lon="6.874573789536953">
        <ele>1880</ele>
        <time>2014-07-16T06:10:59Z</time>
      </trkpt>
      <trkpt lat="45.957676777616143" lon="6.874601198360324">
        <ele>1880</ele>
        <time>2014-07-16T06:11:26Z</time>
      </trkpt>
      <trkpt lat="45.957661103457212" lon="6.874604718759656">
        <ele>1880.48</ele>
        <time>2014-07-16T06:11:51Z</time>
      </trkpt>
      <trkpt lat="45.957658337429166" lon="6.874644448980689">
        <ele>1880.48</ele>
        <time>2014-07-16T06:12:20Z</time>
      </trkpt>
      <trkpt lat="45.957675520330667" lon="6.874619051814079">
        <ele>1880</ele>
        <time>2014-07-16T06:12:41Z</time>
      </trkpt>
      <trkpt lat="45.957685830071568" lon="6.874624500051141">
        <ele>1880</ele>
        <time>2014-07-16T06:13:03Z</time>
      </trkpt>
      <trkpt lat="45.957683064043522" lon="6.874622572213411">
        <ele>1880</ele>
        <time>2014-07-16T06:13:24Z</time>
      </trkpt>
      <trkpt lat="45.957673760131001" lon="6.874615279957652">
        <ele>1881.4400000000001</ele>
        <time>2014-07-16T06:13:43Z</time>
      </trkpt>
      <trkpt lat="45.957672167569399" lon="6.874618800356984">
        <ele>1880.48</ele>
        <time>2014-07-16T06:14:05Z</time>
      </trkpt>
      <trkpt lat="45.957603938877583" lon="6.874508997425437">
        <ele>1880.48</ele>
        <time>2014-07-16T06:14:23Z</time>
      </trkpt>
      <trkpt lat="45.957572339102626" lon="6.874461555853486">
        <ele>1880.48</ele>
        <time>2014-07-16T06:14:28Z</time>
      </trkpt>
      <trkpt lat="45.95744451507926" lon="6.874389052391052">
        <ele>1881.9200000000001</ele>
        <time>2014-07-16T06:14:43Z</time>
      </trkpt>
      <trkpt lat="45.95736094750464" lon="6.874363068491221">
        <ele>1882.4000000000001</ele>
        <time>2014-07-16T06:14:52Z</time>
      </trkpt>
      <trkpt lat="45.957329850643873" lon="6.874356614425778">
        <ele>1882.8800000000001</ele>
        <time>2014-07-16T06:14:55Z</time>
      </trkpt>
      <trkpt lat="45.957304621115327" lon="6.874341107904911">
        <ele>1882.8800000000001</ele>
        <time>2014-07-16T06:14:58Z</time>
      </trkpt>
      <trkpt lat="45.957159781828523" lon="6.874246895313263">
        <ele>1883.8399999999999</ele>
        <time>2014-07-16T06:15:14Z</time>
      </trkpt>
      <trkpt lat="45.95706925727427" lon="6.874128878116608">
        <ele>1884.3199999999999</ele>
        <time>2014-07-16T06:15:28Z</time>
      </trkpt>
      <trkpt lat="45.956970350816846" lon="6.8740014731884">
        <ele>1884.3199999999999</ele>
        <time>2014-07-16T06:15:43Z</time>
      </trkpt>
      <trkpt lat="45.956892482936382" lon="6.873889239504933">
        <ele>1883.8399999999999</ele>
        <time>2014-07-16T06:15:56Z</time>
      </trkpt>
      <trkpt lat="45.956848310306668" lon="6.873807515949011">
        <ele>1883.8399999999999</ele>
        <time>2014-07-16T06:16:03Z</time>
      </trkpt>
      <trkpt lat="45.956831546500325" lon="6.873775748535991">
        <ele>1883.8399999999999</ele>
        <time>2014-07-16T06:16:06Z</time>
      </trkpt>
      <trkpt lat="45.956790391355753" lon="6.873736018314958">
        <ele>1883.8399999999999</ele>
        <time>2014-07-16T06:16:12Z</time>
      </trkpt>
      <trkpt lat="45.956637002527714" lon="6.873705592006445">
        <ele>1884.3199999999999</ele>
        <time>2014-07-16T06:16:27Z</time>
      </trkpt>
      <trkpt lat="45.956578077748418" lon="6.873732330277562">
        <ele>1883.8399999999999</ele>
        <time>2014-07-16T06:16:34Z</time>
      </trkpt>
      <trkpt lat="45.956544801592827" lon="6.873735180124641">
        <ele>1883.8399999999999</ele>
        <time>2014-07-16T06:16:37Z</time>
      </trkpt>
      <trkpt lat="45.956425862386823" lon="6.873791506513953">
        <ele>1881.9200000000001</ele>
        <time>2014-07-16T06:16:49Z</time>
      </trkpt>
      <trkpt lat="45.95638026483357" lon="6.873799385502935">
        <ele>1880.96</ele>
        <time>2014-07-16T06:16:53Z</time>
      </trkpt>
      <trkpt lat="45.95635486766696" lon="6.873793350532651">
        <ele>1880.96</ele>
        <time>2014-07-16T06:16:55Z</time>
      </trkpt>
      <trkpt lat="45.956332990899682" lon="6.873786142095923">
        <ele>1881.4400000000001</ele>
        <time>2014-07-16T06:16:57Z</time>
      </trkpt>
      <trkpt lat="45.956315221264958" lon="6.873787734657526">
        <ele>1881.4400000000001</ele>
        <time>2014-07-16T06:16:59Z</time>
      </trkpt>
      <trkpt lat="45.956204496324062" lon="6.873760493472219">
        <ele>1881.9200000000001</ele>
        <time>2014-07-16T06:17:11Z</time>
      </trkpt>
      <trkpt lat="45.956104667857289" lon="6.873756051063538">
        <ele>1881.9200000000001</ele>
        <time>2014-07-16T06:17:21Z</time>
      </trkpt>
      <trkpt lat="45.956076085567474" lon="6.873759403824806">
        <ele>1882.4000000000001</ele>
        <time>2014-07-16T06:17:24Z</time>
      </trkpt>
      <trkpt lat="45.955956391990185" lon="6.873741885647178">
        <ele>1882.4000000000001</ele>
        <time>2014-07-16T06:17:36Z</time>
      </trkpt>
      <trkpt lat="45.955837536603212" lon="6.873684721067548">
        <ele>1883.3599999999999</ele>
        <time>2014-07-16T06:17:48Z</time>
      </trkpt>
      <trkpt lat="45.955709544941783" lon="6.87364281155169">
        <ele>1881.9200000000001</ele>
        <time>2014-07-16T06:18:00Z</time>
      </trkpt>
      <trkpt lat="45.9555808827281" lon="6.873585730791092">
        <ele>1880.48</ele>
        <time>2014-07-16T06:18:12Z</time>
      </trkpt>
      <trkpt lat="45.955537464469671" lon="6.873560501262546">
        <ele>1880.48</ele>
        <time>2014-07-16T06:18:16Z</time>
      </trkpt>
      <trkpt lat="45.955410730093718" lon="6.873475005850196">
        <ele>1879.51</ele>
        <time>2014-07-16T06:18:31Z</time>
      </trkpt>
      <trkpt lat="45.955405114218593" lon="6.873470479622483">
        <ele>1879.51</ele>
        <time>2014-07-16T06:18:32Z</time>
      </trkpt>
      <trkpt lat="45.955370999872684" lon="6.873474502936006">
        <ele>1879.51</ele>
        <time>2014-07-16T06:18:36Z</time>
      </trkpt>
      <trkpt lat="45.955354571342468" lon="6.873490260913968">
        <ele>1879.51</ele>
        <time>2014-07-16T06:18:38Z</time>
      </trkpt>
      <trkpt lat="45.955305704846978" lon="6.873517083004117">
        <ele>1879.03</ele>
        <time>2014-07-16T06:18:43Z</time>
      </trkpt>
      <trkpt lat="45.955222053453326" lon="6.873476514592767">
        <ele>1879.51</ele>
        <time>2014-07-16T06:18:51Z</time>
      </trkpt>
      <trkpt lat="45.955087020993233" lon="6.873435443267226">
        <ele>1879.03</ele>
        <time>2014-07-16T06:19:04Z</time>
      </trkpt>
      <trkpt lat="45.955048128962517" lon="6.873425636440516">
        <ele>1879.03</ele>
        <time>2014-07-16T06:19:08Z</time>
      </trkpt>
      <trkpt lat="45.954990545287728" lon="6.87338137999177">
        <ele>1878.55</ele>
        <time>2014-07-16T06:19:22Z</time>
      </trkpt>
      <trkpt lat="45.954938745126128" lon="6.873370818793774">
        <ele>1878.55</ele>
        <time>2014-07-16T06:19:36Z</time>
      </trkpt>
      <trkpt lat="45.954891722649336" lon="6.873356821015477">
        <ele>1878.55</ele>
        <time>2014-07-16T06:19:54Z</time>
      </trkpt>
      <trkpt lat="45.954793486744165" lon="6.87336528673768">
        <ele>1878.55</ele>
        <time>2014-07-16T06:20:07Z</time>
      </trkpt>
      <trkpt lat="45.95467010512948" lon="6.87339261174202">
        <ele>1878.55</ele>
        <time>2014-07-16T06:20:18Z</time>
      </trkpt>
      <trkpt lat="45.954620987176895" lon="6.873404597863555">
        <ele>1878.55</ele>
        <time>2014-07-16T06:20:22Z</time>
      </trkpt>
      <trkpt lat="45.954582346603274" lon="6.873330837115645">
        <ele>1878.0699999999999</ele>
        <time>2014-07-16T06:20:30Z</time>
      </trkpt>
      <trkpt lat="45.954577149823308" lon="6.873265374451876">
        <ele>1877.5899999999999</ele>
        <time>2014-07-16T06:20:34Z</time>
      </trkpt>
      <trkpt lat="45.954520236700773" lon="6.873108800500631">
        <ele>1875.6700000000001</ele>
        <time>2014-07-16T06:20:48Z</time>
      </trkpt>
      <trkpt lat="45.954443709924817" lon="6.87301098369062">
        <ele>1872.79</ele>
        <time>2014-07-16T06:21:03Z</time>
      </trkpt>
      <trkpt lat="45.954373385757208" lon="6.872859438881278">
        <ele>1869.9000000000001</ele>
        <time>2014-07-16T06:21:15Z</time>
      </trkpt>
      <trkpt lat="45.954289566725492" lon="6.872744774445891">
        <ele>1869.4200000000001</ele>
        <time>2014-07-16T06:21:29Z</time>
      </trkpt>
      <trkpt lat="45.954278921708465" lon="6.872733123600483">
        <ele>1868.9400000000001</ele>
        <time>2014-07-16T06:21:31Z</time>
      </trkpt>
      <trkpt lat="45.95418244600296" lon="6.872610999271274">
        <ele>1867.5</ele>
        <time>2014-07-16T06:21:48Z</time>
      </trkpt>
      <trkpt lat="45.954163670539856" lon="6.872561797499657">
        <ele>1867.02</ele>
        <time>2014-07-16T06:22:01Z</time>
      </trkpt>
      <trkpt lat="45.954168615862727" lon="6.872478229925036">
        <ele>1866.0599999999999</ele>
        <time>2014-07-16T06:22:14Z</time>
      </trkpt>
      <trkpt lat="45.954164005815983" lon="6.872459370642901">
        <ele>1865.5799999999999</ele>
        <time>2014-07-16T06:22:26Z</time>
      </trkpt>
      <trkpt lat="45.954148080199957" lon="6.872438248246908">
        <ele>1865.0899999999999</ele>
        <time>2014-07-16T06:22:38Z</time>
      </trkpt>
      <trkpt lat="45.954107511788607" lon="6.872399188578129">
        <ele>1864.1300000000001</ele>
        <time>2014-07-16T06:22:43Z</time>
      </trkpt>
      <trkpt lat="45.954061578959227" lon="6.872268849983811">
        <ele>1864.1300000000001</ele>
        <time>2014-07-16T06:22:54Z</time>
      </trkpt>
      <trkpt lat="45.95407105050981" lon="6.872201291844249">
        <ele>1863.6500000000001</ele>
        <time>2014-07-16T06:22:58Z</time>
      </trkpt>
      <trkpt lat="45.954000558704138" lon="6.872000126168132">
        <ele>1864.1300000000001</ele>
        <time>2014-07-16T06:23:13Z</time>
      </trkpt>
      <trkpt lat="45.953943561762571" lon="6.871933238580823">
        <ele>1864.1300000000001</ele>
        <time>2014-07-16T06:23:22Z</time>
      </trkpt>
      <trkpt lat="45.953912967815995" lon="6.871932400390506">
        <ele>1863.6500000000001</ele>
        <time>2014-07-16T06:23:26Z</time>
      </trkpt>
      <trkpt lat="45.953851947560906" lon="6.871922258287668">
        <ele>1862.6900000000001</ele>
        <time>2014-07-16T06:23:32Z</time>
      </trkpt>
      <trkpt lat="45.953732589259744" lon="6.871979171410203">
        <ele>1863.1700000000001</ele>
        <time>2014-07-16T06:23:44Z</time>
      </trkpt>
      <trkpt lat="45.953598227351904" lon="6.871929131448269">
        <ele>1866.0599999999999</ele>
        <time>2014-07-16T06:24:00Z</time>
      </trkpt>
      <trkpt lat="45.9535828884691" lon="6.871864087879658">
        <ele>1867.02</ele>
        <time>2014-07-16T06:24:06Z</time>
      </trkpt>
      <trkpt lat="45.953574003651738" lon="6.871842043474317">
        <ele>1867.5</ele>
        <time>2014-07-16T06:24:08Z</time>
      </trkpt>
      <trkpt lat="45.953494543209672" lon="6.871853191405535">
        <ele>1867.5</ele>
        <time>2014-07-16T06:24:16Z</time>
      </trkpt>
      <trkpt lat="45.953466799110174" lon="6.871850090101361">
        <ele>1867.02</ele>
        <time>2014-07-16T06:24:19Z</time>
      </trkpt>
      <trkpt lat="45.953382225707173" lon="6.871921001002193">
        <ele>1866.54</ele>
        <time>2014-07-16T06:24:32Z</time>
      </trkpt>
      <trkpt lat="45.953338304534554" lon="6.871983613818884">
        <ele>1867.5</ele>
        <time>2014-07-16T06:24:39Z</time>
      </trkpt>
      <trkpt lat="45.953228082507849" lon="6.871976908296347">
        <ele>1867.5</ele>
        <time>2014-07-16T06:24:51Z</time>
      </trkpt>
      <trkpt lat="45.953202014788985" lon="6.871887724846602">
        <ele>1867.5</ele>
        <time>2014-07-16T06:24:59Z</time>
      </trkpt>
      <trkpt lat="45.953126242384315" lon="6.87174154445529">
        <ele>1866.0599999999999</ele>
        <time>2014-07-16T06:25:10Z</time>
      </trkpt>
      <trkpt lat="45.953049212694168" lon="6.871619503945112">
        <ele>1867.98</ele>
        <time>2014-07-16T06:25:22Z</time>
      </trkpt>
      <trkpt lat="45.953004872426391" lon="6.871504755690694">
        <ele>1869.4200000000001</ele>
        <time>2014-07-16T06:25:34Z</time>
      </trkpt>
      <trkpt lat="45.952993975952268" lon="6.871481789276004">
        <ele>1869.4200000000001</ele>
        <time>2014-07-16T06:25:36Z</time>
      </trkpt>
      <trkpt lat="45.953004118055105" lon="6.871238797903061">
        <ele>1869.9000000000001</ele>
        <time>2014-07-16T06:25:51Z</time>
      </trkpt>
      <trkpt lat="45.952981738373637" lon="6.871139723807573">
        <ele>1869.4200000000001</ele>
        <time>2014-07-16T06:25:58Z</time>
      </trkpt>
      <trkpt lat="45.952853662893176" lon="6.87108725309372">
        <ele>1868.9400000000001</ele>
        <time>2014-07-16T06:26:11Z</time>
      </trkpt>
      <trkpt lat="45.952765233814716" lon="6.871052132919431">
        <ele>1870.8599999999999</ele>
        <time>2014-07-16T06:26:25Z</time>
      </trkpt>
      <trkpt lat="45.952741093933582" lon="6.871016677469015">
        <ele>1870.3800000000001</ele>
        <time>2014-07-16T06:26:29Z</time>
      </trkpt>
      <trkpt lat="45.952660124748945" lon="6.870858762413263">
        <ele>1868.9400000000001</ele>
        <time>2014-07-16T06:26:44Z</time>
      </trkpt>
      <trkpt lat="45.952604804188013" lon="6.870869910344482">
        <ele>1868.9400000000001</ele>
        <time>2014-07-16T06:26:50Z</time>
      </trkpt>
      <trkpt lat="45.952528361231089" lon="6.870896900072694">
        <ele>1867.02</ele>
        <time>2014-07-16T06:26:57Z</time>
      </trkpt>
      <trkpt lat="45.952429203316569" lon="6.870918860659003">
        <ele>1866.0599999999999</ele>
        <time>2014-07-16T06:27:12Z</time>
      </trkpt>
      <trkpt lat="45.952407410368323" lon="6.870903018862009">
        <ele>1866.0599999999999</ele>
        <time>2014-07-16T06:27:18Z</time>
      </trkpt>
      <trkpt lat="45.952312611043453" lon="6.870966637507081">
        <ele>1866.0599999999999</ele>
        <time>2014-07-16T06:27:29Z</time>
      </trkpt>
      <trkpt lat="45.952202053740621" lon="6.870865132659674">
        <ele>1866.0599999999999</ele>
        <time>2014-07-16T06:27:44Z</time>
      </trkpt>
      <trkpt lat="45.952088898047805" lon="6.870826408267021">
        <ele>1864.6099999999999</ele>
        <time>2014-07-16T06:27:55Z</time>
      </trkpt>
      <trkpt lat="45.951985046267509" lon="6.870890446007252">
        <ele>1862.6900000000001</ele>
        <time>2014-07-16T06:28:06Z</time>
      </trkpt>
      <trkpt lat="45.951939867809415" lon="6.870914166793227">
        <ele>1861.73</ele>
        <time>2014-07-16T06:28:10Z</time>
      </trkpt>
      <trkpt lat="45.951900137588382" lon="6.870918441563845">
        <ele>1862.21</ele>
        <time>2014-07-16T06:28:14Z</time>
      </trkpt>
      <trkpt lat="45.951782204210758" lon="6.870923554524779">
        <ele>1862.6900000000001</ele>
        <time>2014-07-16T06:28:25Z</time>
      </trkpt>
      <trkpt lat="45.951666785404086" lon="6.87088692560792">
        <ele>1865.0899999999999</ele>
        <time>2014-07-16T06:28:41Z</time>
      </trkpt>
      <trkpt lat="45.951572237536311" lon="6.870821798220277">
        <ele>1867.02</ele>
        <time>2014-07-16T06:28:55Z</time>
      </trkpt>
      <trkpt lat="45.95149596221745" lon="6.870888518169522">
        <ele>1868.46</ele>
        <time>2014-07-16T06:29:08Z</time>
      </trkpt>
      <trkpt lat="45.951443323865533" lon="6.870901342481375">
        <ele>1869.9000000000001</ele>
        <time>2014-07-16T06:29:21Z</time>
      </trkpt>
      <trkpt lat="45.951429661363363" lon="6.870908718556166">
        <ele>1869.9000000000001</ele>
        <time>2014-07-16T06:29:38Z</time>
      </trkpt>
      <trkpt lat="45.951386243104935" lon="6.870954148471355">
        <ele>1869.4200000000001</ele>
        <time>2014-07-16T06:30:05Z</time>
      </trkpt>
      <trkpt lat="45.951366797089577" lon="6.870963787660003">
        <ele>1869.4200000000001</ele>
        <time>2014-07-16T06:30:22Z</time>
      </trkpt>
      <trkpt lat="45.951369563117623" lon="6.870898492634296">
        <ele>1867.5</ele>
        <time>2014-07-16T06:30:35Z</time>
      </trkpt>
      <trkpt lat="45.951347518712282" lon="6.87077259644866">
        <ele>1864.6099999999999</ele>
        <time>2014-07-16T06:30:46Z</time>
      </trkpt>
      <trkpt lat="45.951348608359694" lon="6.870640749111772">
        <ele>1862.21</ele>
        <time>2014-07-16T06:30:58Z</time>
      </trkpt>
      <trkpt lat="45.951342657208443" lon="6.870527006685734">
        <ele>1860.29</ele>
        <time>2014-07-16T06:31:06Z</time>
      </trkpt>
      <trkpt lat="45.951346512883902" lon="6.870467159897089">
        <ele>1858.8499999999999</ele>
        <time>2014-07-16T06:31:12Z</time>
      </trkpt>
      <trkpt lat="45.951339891180396" lon="6.870479816570878">
        <ele>1857.8900000000001</ele>
        <time>2014-07-16T06:31:18Z</time>
      </trkpt>
      <trkpt lat="45.951327066868544" lon="6.870539411902428">
        <ele>1857.4000000000001</ele>
        <time>2014-07-16T06:31:22Z</time>
      </trkpt>
      <trkpt lat="45.951274093240499" lon="6.870635384693742">
        <ele>1855.48</ele>
        <time>2014-07-16T06:31:35Z</time>
      </trkpt>
      <trkpt lat="45.951288677752018" lon="6.870386609807611">
        <ele>1853.0799999999999</ele>
        <time>2014-07-16T06:31:49Z</time>
      </trkpt>
      <trkpt lat="45.951287085190415" lon="6.870285104960203">
        <ele>1851.6400000000001</ele>
        <time>2014-07-16T06:31:58Z</time>
      </trkpt>
      <trkpt lat="45.951287001371384" lon="6.870249649509788">
        <ele>1851.1600000000001</ele>
        <time>2014-07-16T06:32:00Z</time>
      </trkpt>
      <trkpt lat="45.951305693015456" lon="6.870020739734173">
        <ele>1849.23</ele>
        <time>2014-07-16T06:32:14Z</time>
      </trkpt>
      <trkpt lat="45.95130150206387" lon="6.869999449700117">
        <ele>1849.23</ele>
        <time>2014-07-16T06:32:16Z</time>
      </trkpt>
      <trkpt lat="45.95129462890327" lon="6.869919570162892">
        <ele>1847.79</ele>
        <time>2014-07-16T06:32:22Z</time>
      </trkpt>
      <trkpt lat="45.951270572841167" lon="6.869782945141196">
        <ele>1845.8699999999999</ele>
        <time>2014-07-16T06:32:35Z</time>
      </trkpt>
      <trkpt lat="45.951263196766376" lon="6.869829967617989">
        <ele>1844.9100000000001</ele>
        <time>2014-07-16T06:32:39Z</time>
      </trkpt>
      <trkpt lat="45.951241822913289" lon="6.869963994249702">
        <ele>1843.47</ele>
        <time>2014-07-16T06:32:51Z</time>
      </trkpt>
      <trkpt lat="45.951220197603106" lon="6.869929125532508">
        <ele>1842.5</ele>
        <time>2014-07-16T06:32:54Z</time>
      </trkpt>
      <trkpt lat="45.951190106570721" lon="6.869811275973916">
        <ele>1841.0599999999999</ele>
        <time>2014-07-16T06:33:02Z</time>
      </trkpt>
      <trkpt lat="45.951176444068551" lon="6.869723852723837">
        <ele>1839.6199999999999</ele>
        <time>2014-07-16T06:33:09Z</time>
      </trkpt>
      <trkpt lat="45.951187172904611" lon="6.869516903534532">
        <ele>1837.7</ele>
        <time>2014-07-16T06:33:24Z</time>
      </trkpt>
      <trkpt lat="45.951164625585079" lon="6.869360832497478">
        <ele>1835.29</ele>
        <time>2014-07-16T06:33:40Z</time>
      </trkpt>
      <trkpt lat="45.951158590614796" lon="6.869347421452403">
        <ele>1834.8099999999999</ele>
        <time>2014-07-16T06:33:42Z</time>
      </trkpt>
      <trkpt lat="45.951130343601108" lon="6.869353372603655">
        <ele>1833.8499999999999</ele>
        <time>2014-07-16T06:33:51Z</time>
      </trkpt>
      <trkpt lat="45.951105449348688" lon="6.869338704273105">
        <ele>1833.3699999999999</ele>
        <time>2014-07-16T06:34:04Z</time>
      </trkpt>
      <trkpt lat="45.951100587844849" lon="6.869327807798982">
        <ele>1833.8499999999999</ele>
        <time>2014-07-16T06:34:26Z</time>
      </trkpt>
      <trkpt lat="45.951051721349359" lon="6.869295788928866">
        <ele>1831.45</ele>
        <time>2014-07-16T06:34:39Z</time>
      </trkpt>
      <trkpt lat="45.951001262292266" lon="6.869310876354575">
        <ele>1830.01</ele>
        <time>2014-07-16T06:34:49Z</time>
      </trkpt>
      <trkpt lat="45.95098483376205" lon="6.86937415972352">
        <ele>1829.53</ele>
        <time>2014-07-16T06:35:02Z</time>
      </trkpt>
      <trkpt lat="45.950976368039846" lon="6.869342308491468">
        <ele>1829.53</ele>
        <time>2014-07-16T06:35:16Z</time>
      </trkpt>
      <trkpt lat="45.950974440202117" lon="6.869350103661418">
        <ele>1829.53</ele>
        <time>2014-07-16T06:35:17Z</time>
      </trkpt>
      <trkpt lat="45.950921466574073" lon="6.869330322369933">
        <ele>1828.5599999999999</ele>
        <time>2014-07-16T06:35:30Z</time>
      </trkpt>
      <trkpt lat="45.95086564309895" lon="6.869333339855075">
        <ele>1827.5999999999999</ele>
        <time>2014-07-16T06:35:42Z</time>
      </trkpt>
      <trkpt lat="45.950809651985765" lon="6.869299560785294">
        <ele>1827.1199999999999</ele>
        <time>2014-07-16T06:35:53Z</time>
      </trkpt>
      <trkpt lat="45.95070973969996" lon="6.869311714544892">
        <ele>1824.24</ele>
        <time>2014-07-16T06:36:07Z</time>
      </trkpt>
      <trkpt lat="45.950602535158396" lon="6.869376003742218">
        <ele>1821.3499999999999</ele>
        <time>2014-07-16T06:36:22Z</time>
      </trkpt>
      <trkpt lat="45.950568588450551" lon="6.869383547455072">
        <ele>1821.3499999999999</ele>
        <time>2014-07-16T06:36:26Z</time>
      </trkpt>
      <trkpt lat="45.950519470497966" lon="6.869372483342886">
        <ele>1820.3900000000001</ele>
        <time>2014-07-16T06:36:32Z</time>
      </trkpt>
      <trkpt lat="45.95042391680181" lon="6.869276594370604">
        <ele>1820.3900000000001</ele>
        <time>2014-07-16T06:36:47Z</time>
      </trkpt>
      <trkpt lat="45.950356358662248" lon="6.869165534153581">
        <ele>1820.8699999999999</ele>
        <time>2014-07-16T06:36:59Z</time>
      </trkpt>
      <trkpt lat="45.950288884341717" lon="6.869073249399662">
        <ele>1820.8699999999999</ele>
        <time>2014-07-16T06:37:13Z</time>
      </trkpt>
      <trkpt lat="45.950256614014506" lon="6.869019186124206">
        <ele>1819.9100000000001</ele>
        <time>2014-07-16T06:37:22Z</time>
      </trkpt>
      <trkpt lat="45.950201041996479" lon="6.868936372920871">
        <ele>1819.4300000000001</ele>
        <time>2014-07-16T06:37:31Z</time>
      </trkpt>
      <trkpt lat="45.950195593759418" lon="6.868907287716866">
        <ele>1819.4300000000001</ele>
        <time>2014-07-16T06:37:33Z</time>
      </trkpt>
      <trkpt lat="45.95017908141017" lon="6.868839310482144">
        <ele>1819.4300000000001</ele>
        <time>2014-07-16T06:37:39Z</time>
      </trkpt>
      <trkpt lat="45.950135244056582" lon="6.868798909708858">
        <ele>1818.95</ele>
        <time>2014-07-16T06:37:44Z</time>
      </trkpt>
      <trkpt lat="45.950106913223863" lon="6.868774853646755">
        <ele>1818.95</ele>
        <time>2014-07-16T06:37:53Z</time>
      </trkpt>
      <trkpt lat="45.950025105848908" lon="6.868727831169963">
        <ele>1818.47</ele>
        <time>2014-07-16T06:38:02Z</time>
      </trkpt>
      <trkpt lat="45.94997925683856" lon="6.868672929704189">
        <ele>1818.95</ele>
        <time>2014-07-16T06:38:08Z</time>
      </trkpt>
      <trkpt lat="45.949947573244572" lon="6.868631271645427">
        <ele>1818.47</ele>
        <time>2014-07-16T06:38:12Z</time>
      </trkpt>
      <trkpt lat="45.949826035648584" lon="6.868530437350273">
        <ele>1817.99</ele>
        <time>2014-07-16T06:38:26Z</time>
      </trkpt>
      <trkpt lat="45.949737019836903" lon="6.868436895310879">
        <ele>1819.4300000000001</ele>
        <time>2014-07-16T06:38:39Z</time>
      </trkpt>
      <trkpt lat="45.949642891064286" lon="6.868403535336256">
        <ele>1820.8699999999999</ele>
        <time>2014-07-16T06:38:54Z</time>
      </trkpt>
      <trkpt lat="45.949622774496675" lon="6.868390711024404">
        <ele>1820.8699999999999</ele>
        <time>2014-07-16T06:38:58Z</time>
      </trkpt>
      <trkpt lat="45.949557898566127" lon="6.868305467069149">
        <ele>1821.3499999999999</ele>
        <time>2014-07-16T06:39:11Z</time>
      </trkpt>
      <trkpt lat="45.949491430073977" lon="6.868278644979">
        <ele>1822.8</ele>
        <time>2014-07-16T06:39:25Z</time>
      </trkpt>
      <trkpt lat="45.949452370405197" lon="6.868221648037434">
        <ele>1824.24</ele>
        <time>2014-07-16T06:39:35Z</time>
      </trkpt>
      <trkpt lat="45.949376514181495" lon="6.868184013292193">
        <ele>1825.2</ele>
        <time>2014-07-16T06:39:47Z</time>
      </trkpt>
      <trkpt lat="45.949274254962802" lon="6.868150234222412">
        <ele>1826.6400000000001</ele>
        <time>2014-07-16T06:40:03Z</time>
      </trkpt>
      <trkpt lat="45.94921013340354" lon="6.868062308058143">
        <ele>1828.0799999999999</ele>
        <time>2014-07-16T06:40:19Z</time>
      </trkpt>
      <trkpt lat="45.949117345735431" lon="6.867969855666161">
        <ele>1830.01</ele>
        <time>2014-07-16T06:40:35Z</time>
      </trkpt>
      <trkpt lat="45.949050541967154" lon="6.867934986948967">
        <ele>1830.97</ele>
        <time>2014-07-16T06:40:47Z</time>
      </trkpt>
      <trkpt lat="45.949072921648622" lon="6.867863070219755">
        <ele>1832.8900000000001</ele>
        <time>2014-07-16T06:41:00Z</time>
      </trkpt>
      <trkpt lat="45.948986085131764" lon="6.867849910631776">
        <ele>1835.29</ele>
        <time>2014-07-16T06:41:16Z</time>
      </trkpt>
      <trkpt lat="45.948968566954136" lon="6.867848820984364">
        <ele>1835.29</ele>
        <time>2014-07-16T06:41:18Z</time>
      </trkpt>
      <trkpt lat="45.948884077370167" lon="6.867827279493213">
        <ele>1836.26</ele>
        <time>2014-07-16T06:41:31Z</time>
      </trkpt>
      <trkpt lat="45.948817189782858" lon="6.867712531238794">
        <ele>1838.1800000000001</ele>
        <time>2014-07-16T06:41:46Z</time>
      </trkpt>
      <trkpt lat="45.948719372972846" lon="6.867626113817096">
        <ele>1840.5799999999999</ele>
        <time>2014-07-16T06:42:03Z</time>
      </trkpt>
      <trkpt lat="45.948665728792548" lon="6.867492841556668">
        <ele>1842.5</ele>
        <time>2014-07-16T06:42:19Z</time>
      </trkpt>
      <trkpt lat="45.948596326634288" lon="6.867333250120282">
        <ele>1844.9100000000001</ele>
        <time>2014-07-16T06:42:37Z</time>
      </trkpt>
      <trkpt lat="45.94853488728404" lon="6.867205090820789">
        <ele>1845.8699999999999</ele>
        <time>2014-07-16T06:42:54Z</time>
      </trkpt>
      <trkpt lat="45.948459785431623" lon="6.867164354771376">
        <ele>1847.79</ele>
        <time>2014-07-16T06:43:09Z</time>
      </trkpt>
      <trkpt lat="45.948443608358502" lon="6.867014821618795">
        <ele>1849.23</ele>
        <time>2014-07-16T06:43:24Z</time>
      </trkpt>
      <trkpt lat="45.948382671922445" lon="6.866857409477234">
        <ele>1850.6800000000001</ele>
        <time>2014-07-16T06:43:41Z</time>
      </trkpt>
      <trkpt lat="45.948308827355504" lon="6.866725562140346">
        <ele>1851.6400000000001</ele>
        <time>2014-07-16T06:43:57Z</time>
      </trkpt>
      <trkpt lat="45.94822458922863" lon="6.866711396723986">
        <ele>1852.5999999999999</ele>
        <time>2014-07-16T06:44:09Z</time>
      </trkpt>
      <trkpt lat="45.948141608387232" lon="6.866680718958378">
        <ele>1854.04</ele>
        <time>2014-07-16T06:44:22Z</time>
      </trkpt>
      <trkpt lat="45.948064243420959" lon="6.866657417267561">
        <ele>1855</ele>
        <time>2014-07-16T06:44:35Z</time>
      </trkpt>
      <trkpt lat="45.94798905774951" lon="6.866624811664224">
        <ele>1856.4400000000001</ele>
        <time>2014-07-16T06:44:49Z</time>
      </trkpt>
      <trkpt lat="45.947907753288746" lon="6.866655321791768">
        <ele>1857.4000000000001</ele>
        <time>2014-07-16T06:45:03Z</time>
      </trkpt>
      <trkpt lat="45.947844469919801" lon="6.866565383970738">
        <ele>1855.96</ele>
        <time>2014-07-16T06:45:19Z</time>
      </trkpt>
      <trkpt lat="45.947846230119467" lon="6.866547111421824">
        <ele>1855.48</ele>
        <time>2014-07-16T06:45:26Z</time>
      </trkpt>
      <trkpt lat="45.947829047217965" lon="6.866556499153376">
        <ele>1855.48</ele>
        <time>2014-07-16T06:45:28Z</time>
      </trkpt>
      <trkpt lat="45.94772863201797" lon="6.86649807728827">
        <ele>1855</ele>
        <time>2014-07-16T06:45:42Z</time>
      </trkpt>
      <trkpt lat="45.947648752480745" lon="6.866400511935353">
        <ele>1855</ele>
        <time>2014-07-16T06:45:56Z</time>
      </trkpt>
      <trkpt lat="45.947592677548528" lon="6.866412749513984">
        <ele>1855.48</ele>
        <time>2014-07-16T06:46:07Z</time>
      </trkpt>
      <trkpt lat="45.94750533811748" lon="6.866362458094955">
        <ele>1857.4000000000001</ele>
        <time>2014-07-16T06:46:24Z</time>
      </trkpt>
      <trkpt lat="45.947411628440022" lon="6.866326751187444">
        <ele>1856.9200000000001</ele>
        <time>2014-07-16T06:46:39Z</time>
      </trkpt>
      <trkpt lat="45.94732697121799" lon="6.866327924653888">
        <ele>1857.8900000000001</ele>
        <time>2014-07-16T06:46:52Z</time>
      </trkpt>
      <trkpt lat="45.947315655648708" lon="6.866335552185774">
        <ele>1858.3699999999999</ele>
        <time>2014-07-16T06:46:54Z</time>
      </trkpt>
      <trkpt lat="45.947230327874422" lon="6.8663290143013">
        <ele>1859.8099999999999</ele>
        <time>2014-07-16T06:47:08Z</time>
      </trkpt>
      <trkpt lat="45.947126224637032" lon="6.866236981004477">
        <ele>1861.25</ele>
        <time>2014-07-16T06:47:23Z</time>
      </trkpt>
      <trkpt lat="45.947056738659739" lon="6.866112258285284">
        <ele>1863.1700000000001</ele>
        <time>2014-07-16T06:47:42Z</time>
      </trkpt>
      <trkpt lat="45.947001501917839" lon="6.86593372374773">
        <ele>1864.6099999999999</ele>
        <time>2014-07-16T06:47:58Z</time>
      </trkpt>
      <trkpt lat="45.946943499147892" lon="6.865827357396483">
        <ele>1866.54</ele>
        <time>2014-07-16T06:48:16Z</time>
      </trkpt>
      <trkpt lat="45.946924304589629" lon="6.865691402927041">
        <ele>1865.5799999999999</ele>
        <time>2014-07-16T06:48:31Z</time>
      </trkpt>
      <trkpt lat="45.946937212720513" lon="6.865644548088312">
        <ele>1866.0599999999999</ele>
        <time>2014-07-16T06:48:34Z</time>
      </trkpt>
      <trkpt lat="45.94694291241467" lon="6.865441286936402">
        <ele>1866.54</ele>
        <time>2014-07-16T06:48:49Z</time>
      </trkpt>
      <trkpt lat="45.94690578058362" lon="6.865310026332736">
        <ele>1867.5</ele>
        <time>2014-07-16T06:49:02Z</time>
      </trkpt>
      <trkpt lat="45.946844592690468" lon="6.865175412967801">
        <ele>1867.02</ele>
        <time>2014-07-16T06:49:15Z</time>
      </trkpt>
      <trkpt lat="45.946822883561254" lon="6.86515043489635">
        <ele>1867.5</ele>
        <time>2014-07-16T06:49:18Z</time>
      </trkpt>
      <trkpt lat="45.946751637384295" lon="6.865107016637921">
        <ele>1868.46</ele>
        <time>2014-07-16T06:49:31Z</time>
      </trkpt>
      <trkpt lat="45.946732442826033" lon="6.865061167627573">
        <ele>1870.3800000000001</ele>
        <time>2014-07-16T06:49:39Z</time>
      </trkpt>
      <trkpt lat="45.946650467813015" lon="6.864968379959464">
        <ele>1871.8199999999999</ele>
        <time>2014-07-16T06:49:54Z</time>
      </trkpt>
      <trkpt lat="45.946604534983635" lon="6.864866456016898">
        <ele>1874.23</ele>
        <time>2014-07-16T06:50:09Z</time>
      </trkpt>
      <trkpt lat="45.946578299626708" lon="6.864718934521079">
        <ele>1873.27</ele>
        <time>2014-07-16T06:50:22Z</time>
      </trkpt>
      <trkpt lat="45.946515938267112" lon="6.864619692787528">
        <ele>1873.27</ele>
        <time>2014-07-16T06:50:36Z</time>
      </trkpt>
      <trkpt lat="45.946429772302508" lon="6.864496981725097">
        <ele>1872.79</ele>
        <time>2014-07-16T06:50:52Z</time>
      </trkpt>
      <trkpt lat="45.946360118687153" lon="6.86441944912076">
        <ele>1874.71</ele>
        <time>2014-07-16T06:51:06Z</time>
      </trkpt>
      <trkpt lat="45.946274874731898" lon="6.8643051199615">
        <ele>1875.6700000000001</ele>
        <time>2014-07-16T06:51:22Z</time>
      </trkpt>
      <trkpt lat="45.946156941354275" lon="6.864321464672685">
        <ele>1877.1099999999999</ele>
        <time>2014-07-16T06:51:39Z</time>
      </trkpt>
      <trkpt lat="45.946049569174647" lon="6.864229766651988">
        <ele>1878.55</ele>
        <time>2014-07-16T06:51:56Z</time>
      </trkpt>
      <trkpt lat="45.946002881973982" lon="6.864181822165847">
        <ele>1880.96</ele>
        <time>2014-07-16T06:52:09Z</time>
      </trkpt>
      <trkpt lat="45.946044456213713" lon="6.864042766392231">
        <ele>1882.8800000000001</ele>
        <time>2014-07-16T06:52:23Z</time>
      </trkpt>
      <trkpt lat="45.946072870865464" lon="6.863961461931467">
        <ele>1883.3599999999999</ele>
        <time>2014-07-16T06:52:30Z</time>
      </trkpt>
      <trkpt lat="45.946152079850435" lon="6.863828608766198">
        <ele>1884.8</ele>
        <time>2014-07-16T06:52:42Z</time>
      </trkpt>
      <trkpt lat="45.946199437603354" lon="6.863712267950177">
        <ele>1886.72</ele>
        <time>2014-07-16T06:52:50Z</time>
      </trkpt>
      <trkpt lat="45.946211004629731" lon="6.863661641255021">
        <ele>1886.72</ele>
        <time>2014-07-16T06:52:53Z</time>
      </trkpt>
      <trkpt lat="45.946233468130231" lon="6.863625347614288">
        <ele>1887.6900000000001</ele>
        <time>2014-07-16T06:52:56Z</time>
      </trkpt>
      <trkpt lat="45.9462402574718" lon="6.863549742847681">
        <ele>1888.1700000000001</ele>
        <time>2014-07-16T06:53:01Z</time>
      </trkpt>
      <trkpt lat="45.946260206401348" lon="6.863506911322475">
        <ele>1888.6500000000001</ele>
        <time>2014-07-16T06:53:04Z</time>
      </trkpt>
      <trkpt lat="45.946239419281483" lon="6.86328143812716">
        <ele>1891.53</ele>
        <time>2014-07-16T06:53:19Z</time>
      </trkpt>
      <trkpt lat="45.946229109540582" lon="6.863152021542192">
        <ele>1894.4200000000001</ele>
        <time>2014-07-16T06:53:30Z</time>
      </trkpt>
      <trkpt lat="45.94621972180903" lon="6.863073818385601">
        <ele>1896.3399999999999</ele>
        <time>2014-07-16T06:53:38Z</time>
      </trkpt>
      <trkpt lat="45.946219805628061" lon="6.862971223890781">
        <ele>1897.78</ele>
        <time>2014-07-16T06:53:45Z</time>
      </trkpt>
      <trkpt lat="45.946275293827057" lon="6.862877933308482">
        <ele>1898.26</ele>
        <time>2014-07-16T06:53:56Z</time>
      </trkpt>
      <trkpt lat="45.94627546146512" lon="6.862892434000969">
        <ele>1898.26</ele>
        <time>2014-07-16T06:54:12Z</time>
      </trkpt>
      <trkpt lat="45.946293398737907" lon="6.862905006855726">
        <ele>1898.26</ele>
        <time>2014-07-16T06:54:39Z</time>
      </trkpt>
      <trkpt lat="45.946300020441413" lon="6.862808614969254">
        <ele>1898.74</ele>
        <time>2014-07-16T06:54:52Z</time>
      </trkpt>
      <trkpt lat="45.946381660178304" lon="6.862705433741212">
        <ele>1901.6300000000001</ele>
        <time>2014-07-16T06:55:07Z</time>
      </trkpt>
      <trkpt lat="45.946475118398666" lon="6.862638965249062">
        <ele>1903.0699999999999</ele>
        <time>2014-07-16T06:55:24Z</time>
      </trkpt>
      <trkpt lat="45.946491044014692" lon="6.862593870609999">
        <ele>1901.6300000000001</ele>
        <time>2014-07-16T06:55:28Z</time>
      </trkpt>
      <trkpt lat="45.946512082591653" lon="6.862562857568264">
        <ele>1901.6300000000001</ele>
        <time>2014-07-16T06:55:34Z</time>
      </trkpt>
      <trkpt lat="45.946531109511852" lon="6.862520445138216">
        <ele>1901.6300000000001</ele>
        <time>2014-07-16T06:55:38Z</time>
      </trkpt>
      <trkpt lat="45.946540497243404" lon="6.862306874245405">
        <ele>1899.22</ele>
        <time>2014-07-16T06:55:53Z</time>
      </trkpt>
      <trkpt lat="45.946539156138897" lon="6.862267395481467">
        <ele>1898.74</ele>
        <time>2014-07-16T06:55:55Z</time>
      </trkpt>
      <trkpt lat="45.946542005985975" lon="6.862160610035062">
        <ele>1898.74</ele>
        <time>2014-07-16T06:56:07Z</time>
      </trkpt>
      <trkpt lat="45.946554746478796" lon="6.862043514847755">
        <ele>1901.6300000000001</ele>
        <time>2014-07-16T06:56:21Z</time>
      </trkpt>
      <trkpt lat="45.946577545255423" lon="6.861930778250098">
        <ele>1903.0699999999999</ele>
        <time>2014-07-16T06:56:33Z</time>
      </trkpt>
      <trkpt lat="45.946612749248743" lon="6.861828854307532">
        <ele>1902.5899999999999</ele>
        <time>2014-07-16T06:56:42Z</time>
      </trkpt>
      <trkpt lat="45.946612665429711" lon="6.861801948398352">
        <ele>1902.5899999999999</ele>
        <time>2014-07-16T06:56:44Z</time>
      </trkpt>
      <trkpt lat="45.946655664592981" lon="6.861698599532247">
        <ele>1902.1099999999999</ele>
        <time>2014-07-16T06:56:56Z</time>
      </trkpt>
      <trkpt lat="45.946657760068774" lon="6.861659791320562">
        <ele>1902.1099999999999</ele>
        <time>2014-07-16T06:57:06Z</time>
      </trkpt>
      <trkpt lat="45.946665974333882" lon="6.861599609255791">
        <ele>1902.1099999999999</ele>
        <time>2014-07-16T06:57:10Z</time>
      </trkpt>
      <trkpt lat="45.946671003475785" lon="6.86146130785346">
        <ele>1903.0699999999999</ele>
        <time>2014-07-16T06:57:22Z</time>
      </trkpt>
      <trkpt lat="45.946673769503832" lon="6.861449489369988">
        <ele>1903.0699999999999</ele>
        <time>2014-07-16T06:57:23Z</time>
      </trkpt>
      <trkpt lat="45.946711571887136" lon="6.861274894326925">
        <ele>1903.0699999999999</ele>
        <time>2014-07-16T06:57:38Z</time>
      </trkpt>
      <trkpt lat="45.946736382320523" lon="6.861117733642459">
        <ele>1903.55</ele>
        <time>2014-07-16T06:57:51Z</time>
      </trkpt>
      <trkpt lat="45.946766389533877" lon="6.861009942367673">
        <ele>1904.51</ele>
        <time>2014-07-16T06:58:05Z</time>
      </trkpt>
      <trkpt lat="45.946762785315514" lon="6.860998794436455">
        <ele>1904.51</ele>
        <time>2014-07-16T06:58:19Z</time>
      </trkpt>
      <trkpt lat="45.946743339300156" lon="6.860804921016097">
        <ele>1904.51</ele>
        <time>2014-07-16T06:58:33Z</time>
      </trkpt>
      <trkpt lat="45.946765216067433" lon="6.860717330127955">
        <ele>1904.51</ele>
        <time>2014-07-16T06:58:39Z</time>
      </trkpt>
      <trkpt lat="45.946751302108169" lon="6.860629487782717">
        <ele>1903.0699999999999</ele>
        <time>2014-07-16T06:58:48Z</time>
      </trkpt>
      <trkpt lat="45.946758762001991" lon="6.860448773950338">
        <ele>1902.1099999999999</ele>
        <time>2014-07-16T06:59:04Z</time>
      </trkpt>
      <trkpt lat="45.946755660697818" lon="6.860245009884238">
        <ele>1900.6600000000001</ele>
        <time>2014-07-16T06:59:19Z</time>
      </trkpt>
      <trkpt lat="45.946791116148233" lon="6.860038731247187">
        <ele>1900.1800000000001</ele>
        <time>2014-07-16T06:59:34Z</time>
      </trkpt>
      <trkpt lat="45.946792876347899" lon="6.859987350180745">
        <ele>1900.1800000000001</ele>
        <time>2014-07-16T06:59:38Z</time>
      </trkpt>
      <trkpt lat="45.946780554950237" lon="6.859897496178746">
        <ele>1901.6300000000001</ele>
        <time>2014-07-16T06:59:48Z</time>
      </trkpt>
      <trkpt lat="45.946738058701158" lon="6.859754752367735">
        <ele>1901.6300000000001</ele>
        <time>2014-07-16T06:59:59Z</time>
      </trkpt>
      <trkpt lat="45.946703860536218" lon="6.859594406560063">
        <ele>1901.6300000000001</ele>
        <time>2014-07-16T07:00:12Z</time>
      </trkpt>
      <trkpt lat="45.946679217740893" lon="6.859441017732024">
        <ele>1902.1099999999999</ele>
        <time>2014-07-16T07:00:24Z</time>
      </trkpt>
      <trkpt lat="45.946674523875117" lon="6.85943154618144">
        <ele>1902.1099999999999</ele>
        <time>2014-07-16T07:00:25Z</time>
      </trkpt>
      <trkpt lat="45.946644097566605" lon="6.859298944473267">
        <ele>1903.55</ele>
        <time>2014-07-16T07:00:39Z</time>
      </trkpt>
      <trkpt lat="45.946641331538558" lon="6.859274888411164">
        <ele>1904.51</ele>
        <time>2014-07-16T07:00:43Z</time>
      </trkpt>
      <trkpt lat="45.946627082303166" lon="6.859148154035211">
        <ele>1905.95</ele>
        <time>2014-07-16T07:00:57Z</time>
      </trkpt>
      <trkpt lat="45.946585591882467" lon="6.859002811834216">
        <ele>1907.8699999999999</ele>
        <time>2014-07-16T07:01:11Z</time>
      </trkpt>
      <trkpt lat="45.946580898016691" lon="6.858891332522035">
        <ele>1909.3199999999999</ele>
        <time>2014-07-16T07:01:27Z</time>
      </trkpt>
      <trkpt lat="45.946581652387977" lon="6.85874305665493">
        <ele>1911.24</ele>
        <time>2014-07-16T07:01:42Z</time>
      </trkpt>
      <trkpt lat="45.94655055552721" lon="6.858616406098008">
        <ele>1912.2</ele>
        <time>2014-07-16T07:01:57Z</time>
      </trkpt>
      <trkpt lat="45.946529936045408" lon="6.858566282317042">
        <ele>1912.6800000000001</ele>
        <time>2014-07-16T07:02:13Z</time>
      </trkpt>
      <trkpt lat="45.946554159745574" lon="6.858426639810205">
        <ele>1915.5599999999999</ele>
        <time>2014-07-16T07:02:28Z</time>
      </trkpt>
      <trkpt lat="45.946535468101501" lon="6.858311472460628">
        <ele>1917.01</ele>
        <time>2014-07-16T07:02:44Z</time>
      </trkpt>
      <trkpt lat="45.946506718173623" lon="6.858266210183501">
        <ele>1917.49</ele>
        <time>2014-07-16T07:02:51Z</time>
      </trkpt>
      <trkpt lat="45.94647528603673" lon="6.858096895739436">
        <ele>1918.45</ele>
        <time>2014-07-16T07:03:07Z</time>
      </trkpt>
      <trkpt lat="45.946448463946581" lon="6.857944009825587">
        <ele>1919.8900000000001</ele>
        <time>2014-07-16T07:03:19Z</time>
      </trkpt>
      <trkpt lat="45.946435974910855" lon="6.857910063117743">
        <ele>1919.8900000000001</ele>
        <time>2014-07-16T07:03:22Z</time>
      </trkpt>
      <trkpt lat="45.946443434804678" lon="6.857752483338118">
        <ele>1920.3699999999999</ele>
        <time>2014-07-16T07:03:34Z</time>
      </trkpt>
      <trkpt lat="45.946436813101172" lon="6.857707556337118">
        <ele>1920.3699999999999</ele>
        <time>2014-07-16T07:03:37Z</time>
      </trkpt>
      <trkpt lat="45.946425665169954" lon="6.857663635164499">
        <ele>1920.3699999999999</ele>
        <time>2014-07-16T07:03:40Z</time>
      </trkpt>
      <trkpt lat="45.946429520845413" lon="6.857605800032616">
        <ele>1919.8900000000001</ele>
        <time>2014-07-16T07:03:45Z</time>
      </trkpt>
      <trkpt lat="45.94642398878932" lon="6.857578558847308">
        <ele>1920.3699999999999</ele>
        <time>2014-07-16T07:03:48Z</time>
      </trkpt>
      <trkpt lat="45.946415103971958" lon="6.857542516663671">
        <ele>1920.8499999999999</ele>
        <time>2014-07-16T07:03:51Z</time>
      </trkpt>
      <trkpt lat="45.94638392329216" lon="6.857442688196898">
        <ele>1921.3299999999999</ele>
        <time>2014-07-16T07:04:01Z</time>
      </trkpt>
      <trkpt lat="45.94632432796061" lon="6.857270272448659">
        <ele>1921.8099999999999</ele>
        <time>2014-07-16T07:04:16Z</time>
      </trkpt>
      <trkpt lat="45.946270767599344" lon="6.857137084007263">
        <ele>1923.25</ele>
        <time>2014-07-16T07:04:31Z</time>
      </trkpt>
      <trkpt lat="45.946171609684825" lon="6.857033567503095">
        <ele>1925.1800000000001</ele>
        <time>2014-07-16T07:04:46Z</time>
      </trkpt>
      <trkpt lat="45.94612592831254" lon="6.856908425688744">
        <ele>1927.0999999999999</ele>
        <time>2014-07-16T07:05:01Z</time>
      </trkpt>
      <trkpt lat="45.946111846715212" lon="6.856798036023974">
        <ele>1929.02</ele>
        <time>2014-07-16T07:05:13Z</time>
      </trkpt>
      <trkpt lat="45.946040935814381" lon="6.856707176193595">
        <ele>1930.95</ele>
        <time>2014-07-16T07:05:26Z</time>
      </trkpt>
      <trkpt lat="45.945995254442096" lon="6.856525205075741">
        <ele>1932.3900000000001</ele>
        <time>2014-07-16T07:05:42Z</time>
      </trkpt>
      <trkpt lat="45.945968935266137" lon="6.856368128210306">
        <ele>1933.3499999999999</ele>
        <time>2014-07-16T07:05:56Z</time>
      </trkpt>
      <trkpt lat="45.94596172682941" lon="6.856326470151544">
        <ele>1934.3099999999999</ele>
        <time>2014-07-16T07:06:00Z</time>
      </trkpt>
      <trkpt lat="45.945935156196356" lon="6.85615330003202">
        <ele>1934.79</ele>
        <time>2014-07-16T07:06:15Z</time>
      </trkpt>
      <trkpt lat="45.94587136991322" lon="6.855976693332195">
        <ele>1935.75</ele>
        <time>2014-07-16T07:06:31Z</time>
      </trkpt>
      <trkpt lat="45.945806493982673" lon="6.855889521539211">
        <ele>1936.71</ele>
        <time>2014-07-16T07:06:42Z</time>
      </trkpt>
      <trkpt lat="45.945772547274828" lon="6.855820873752236">
        <ele>1937.1900000000001</ele>
        <time>2014-07-16T07:06:49Z</time>
      </trkpt>
      <trkpt lat="45.945745892822742" lon="6.855783239006996">
        <ele>1938.1600000000001</ele>
        <time>2014-07-16T07:06:54Z</time>
      </trkpt>
      <trkpt lat="45.945718819275498" lon="6.855701599270105">
        <ele>1939.1199999999999</ele>
        <time>2014-07-16T07:07:02Z</time>
      </trkpt>
      <trkpt lat="45.945694176480174" lon="6.855662455782294">
        <ele>1939.5999999999999</ele>
        <time>2014-07-16T07:07:06Z</time>
      </trkpt>
      <trkpt lat="45.94565050676465" lon="6.855524070560932">
        <ele>1941.04</ele>
        <time>2014-07-16T07:07:19Z</time>
      </trkpt>
      <trkpt lat="45.945640197023749" lon="6.855503702536225">
        <ele>1941.52</ele>
        <time>2014-07-16T07:07:21Z</time>
      </trkpt>
      <trkpt lat="45.945573896169662" lon="6.855347380042076">
        <ele>1942.96</ele>
        <time>2014-07-16T07:07:36Z</time>
      </trkpt>
      <trkpt lat="45.945515558123589" lon="6.855206899344921">
        <ele>1943.9200000000001</ele>
        <time>2014-07-16T07:07:49Z</time>
      </trkpt>
      <trkpt lat="45.94546920619905" lon="6.855080500245094">
        <ele>1945.8499999999999</ele>
        <time>2014-07-16T07:08:02Z</time>
      </trkpt>
      <trkpt lat="45.94541254453361" lon="6.85496348887682">
        <ele>1946.8099999999999</ele>
        <time>2014-07-16T07:08:16Z</time>
      </trkpt>
      <trkpt lat="45.945344567298889" lon="6.854840442538261">
        <ele>1948.25</ele>
        <time>2014-07-16T07:08:29Z</time>
      </trkpt>
      <trkpt lat="45.945289582014084" lon="6.854693843051791">
        <ele>1950.1700000000001</ele>
        <time>2014-07-16T07:08:44Z</time>
      </trkpt>
      <trkpt lat="45.945235015824437" lon="6.854548836126924">
        <ele>1952.0899999999999</ele>
        <time>2014-07-16T07:08:59Z</time>
      </trkpt>
      <trkpt lat="45.9451833833009" lon="6.854413049295545">
        <ele>1953.0599999999999</ele>
        <time>2014-07-16T07:09:12Z</time>
      </trkpt>
      <trkpt lat="45.945134432986379" lon="6.854261001572013">
        <ele>1954.5</ele>
        <time>2014-07-16T07:09:27Z</time>
      </trkpt>
      <trkpt lat="45.945106018334627" lon="6.854139463976026">
        <ele>1955.9400000000001</ele>
        <time>2014-07-16T07:09:39Z</time>
      </trkpt>
      <trkpt lat="45.945093194022775" lon="6.854071654379368">
        <ele>1957.3800000000001</ele>
        <time>2014-07-16T07:09:45Z</time>
      </trkpt>
      <trkpt lat="45.9450470097363" lon="6.853887252509594">
        <ele>1958.3399999999999</ele>
        <time>2014-07-16T07:10:01Z</time>
      </trkpt>
      <trkpt lat="45.945012895390391" lon="6.853736797347665">
        <ele>1959.3</ele>
        <time>2014-07-16T07:10:13Z</time>
      </trkpt>
      <trkpt lat="45.945016080513597" lon="6.853634286671877">
        <ele>1960.75</ele>
        <time>2014-07-16T07:10:26Z</time>
      </trkpt>
      <trkpt lat="45.945018511265516" lon="6.85360268689692">
        <ele>1961.23</ele>
        <time>2014-07-16T07:10:30Z</time>
      </trkpt>
      <trkpt lat="45.945018846541643" lon="6.853560274466872">
        <ele>1961.71</ele>
        <time>2014-07-16T07:10:41Z</time>
      </trkpt>
      <trkpt lat="45.944997053593397" lon="6.853518197312951">
        <ele>1962.1900000000001</ele>
        <time>2014-07-16T07:11:01Z</time>
      </trkpt>
      <trkpt lat="45.944977775216103" lon="6.853433456271887">
        <ele>1961.71</ele>
        <time>2014-07-16T07:11:08Z</time>
      </trkpt>
      <trkpt lat="45.944939637556672" lon="6.853270763531327">
        <ele>1961.23</ele>
        <time>2014-07-16T07:11:22Z</time>
      </trkpt>
      <trkpt lat="45.944914156571031" lon="6.853315439075232">
        <ele>1960.75</ele>
        <time>2014-07-16T07:11:34Z</time>
      </trkpt>
      <trkpt lat="45.944888759404421" lon="6.853160038590431">
        <ele>1960.27</ele>
        <time>2014-07-16T07:11:46Z</time>
      </trkpt>
      <trkpt lat="45.94482472166419" lon="6.852990137413144">
        <ele>1960.75</ele>
        <time>2014-07-16T07:11:57Z</time>
      </trkpt>
      <trkpt lat="45.944795636460185" lon="6.852926518768072">
        <ele>1961.23</ele>
        <time>2014-07-16T07:12:02Z</time>
      </trkpt>
      <trkpt lat="45.94477535225451" lon="6.852896679192781">
        <ele>1961.71</ele>
        <time>2014-07-16T07:12:05Z</time>
      </trkpt>
      <trkpt lat="45.944750374183059" lon="6.852872706949711">
        <ele>1961.71</ele>
        <time>2014-07-16T07:12:08Z</time>
      </trkpt>
      <trkpt lat="45.944678708910942" lon="6.852818727493286">
        <ele>1963.1500000000001</ele>
        <time>2014-07-16T07:12:17Z</time>
      </trkpt>
      <trkpt lat="45.944572677835822" lon="6.852818140760064">
        <ele>1965.0699999999999</ele>
        <time>2014-07-16T07:12:31Z</time>
      </trkpt>
      <trkpt lat="45.944499168545008" lon="6.852856613695622">
        <ele>1966.99</ele>
        <time>2014-07-16T07:12:45Z</time>
      </trkpt>
      <trkpt lat="45.944492546841502" lon="6.852860972285271">
        <ele>1966.99</ele>
        <time>2014-07-16T07:12:46Z</time>
      </trkpt>
      <trkpt lat="45.94440889544785" lon="6.853005979210138">
        <ele>1966.03</ele>
        <time>2014-07-16T07:13:00Z</time>
      </trkpt>
      <trkpt lat="45.944352569058537" lon="6.853125169873238">
        <ele>1965.0699999999999</ele>
        <time>2014-07-16T07:13:09Z</time>
      </trkpt>
      <trkpt lat="45.944332703948021" lon="6.853136653080583">
        <ele>1965.0699999999999</ele>
        <time>2014-07-16T07:13:11Z</time>
      </trkpt>
      <trkpt lat="45.94431753270328" lon="6.853151069954038">
        <ele>1964.5899999999999</ele>
        <time>2014-07-16T07:13:13Z</time>
      </trkpt>
      <trkpt lat="45.944160791113973" lon="6.853166995570064">
        <ele>1964.5899999999999</ele>
        <time>2014-07-16T07:13:32Z</time>
      </trkpt>
      <trkpt lat="45.944181913509965" lon="6.853174874559045">
        <ele>1964.5899999999999</ele>
        <time>2014-07-16T07:13:53Z</time>
      </trkpt>
      <trkpt lat="45.944118378683925" lon="6.853196080774069">
        <ele>1964.5899999999999</ele>
        <time>2014-07-16T07:14:04Z</time>
      </trkpt>
      <trkpt lat="45.943992650136352" lon="6.853248719125986">
        <ele>1963.6300000000001</ele>
        <time>2014-07-16T07:14:17Z</time>
      </trkpt>
      <trkpt lat="45.943870525807142" lon="6.853241426870227">
        <ele>1964.1099999999999</ele>
        <time>2014-07-16T07:14:28Z</time>
      </trkpt>
      <trkpt lat="45.943818474188447" lon="6.853277049958706">
        <ele>1964.5899999999999</ele>
        <time>2014-07-16T07:14:34Z</time>
      </trkpt>
      <trkpt lat="45.943773463368416" lon="6.853364808484912">
        <ele>1964.5899999999999</ele>
        <time>2014-07-16T07:14:41Z</time>
      </trkpt>
      <trkpt lat="45.943688470870256" lon="6.853461032733321">
        <ele>1965.55</ele>
        <time>2014-07-16T07:14:52Z</time>
      </trkpt>
      <trkpt lat="45.943701965734363" lon="6.853347038850188">
        <ele>1966.51</ele>
        <time>2014-07-16T07:15:02Z</time>
      </trkpt>
      <trkpt lat="45.943757621571422" lon="6.853228183463216">
        <ele>1968.4400000000001</ele>
        <time>2014-07-16T07:15:16Z</time>
      </trkpt>
      <trkpt lat="45.943776732310653" lon="6.853126846253872">
        <ele>1970.8399999999999</ele>
        <time>2014-07-16T07:15:29Z</time>
      </trkpt>
      <trkpt lat="45.943755861371756" lon="6.853072447702289">
        <ele>1973.24</ele>
        <time>2014-07-16T07:15:43Z</time>
      </trkpt>
      <trkpt lat="45.943769942969084" lon="6.852990137413144">
        <ele>1974.6900000000001</ele>
        <time>2014-07-16T07:15:55Z</time>
      </trkpt>
      <trkpt lat="45.943832136690617" lon="6.85291763395071">
        <ele>1976.6099999999999</ele>
        <time>2014-07-16T07:16:08Z</time>
      </trkpt>
      <trkpt lat="45.943854432553053" lon="6.852855524048209">
        <ele>1979.01</ele>
        <time>2014-07-16T07:16:22Z</time>
      </trkpt>
      <trkpt lat="45.943908160552382" lon="6.852766927331686">
        <ele>1981.4100000000001</ele>
        <time>2014-07-16T07:16:37Z</time>
      </trkpt>
      <trkpt lat="45.944010503590107" lon="6.852752091363072">
        <ele>1982.8599999999999</ele>
        <time>2014-07-16T07:16:50Z</time>
      </trkpt>
      <trkpt lat="45.943989045917988" lon="6.852743122726679">
        <ele>1984.3</ele>
        <time>2014-07-16T07:17:03Z</time>
      </trkpt>
      <trkpt lat="45.943978736177087" lon="6.852748487144709">
        <ele>1984.3</ele>
        <time>2014-07-16T07:17:06Z</time>
      </trkpt>
      <trkpt lat="45.943853007629514" lon="6.852736501023173">
        <ele>1985.26</ele>
        <time>2014-07-16T07:17:21Z</time>
      </trkpt>
      <trkpt lat="45.943752424791455" lon="6.852706661447883">
        <ele>1987.1800000000001</ele>
        <time>2014-07-16T07:17:36Z</time>
      </trkpt>
      <trkpt lat="45.943769440054893" lon="6.852624351158738">
        <ele>1990.0699999999999</ele>
        <time>2014-07-16T07:17:52Z</time>
      </trkpt>
      <trkpt lat="45.943862143903971" lon="6.852558301761746">
        <ele>1992.95</ele>
        <time>2014-07-16T07:18:08Z</time>
      </trkpt>
      <trkpt lat="45.94394319690764" lon="6.852488061413169">
        <ele>1994.8699999999999</ele>
        <time>2014-07-16T07:18:22Z</time>
      </trkpt>
      <trkpt lat="45.943947471678257" lon="6.852372558787465">
        <ele>1996.8</ele>
        <time>2014-07-16T07:18:36Z</time>
      </trkpt>
      <trkpt lat="45.943939760327339" lon="6.852230653166771">
        <ele>1999.2</ele>
        <time>2014-07-16T07:18:52Z</time>
      </trkpt>
      <trkpt lat="45.943930875509977" lon="6.852108696475625">
        <ele>2001.1199999999999</ele>
        <time>2014-07-16T07:19:06Z</time>
      </trkpt>
      <trkpt lat="45.94392123632133" lon="6.851997887715697">
        <ele>2003.52</ele>
        <time>2014-07-16T07:19:20Z</time>
      </trkpt>
      <trkpt lat="45.9439348988235" lon="6.851876685395837">
        <ele>2005.9300000000001</ele>
        <time>2014-07-16T07:19:35Z</time>
      </trkpt>
      <trkpt lat="45.943952752277255" lon="6.851820191368461">
        <ele>2007.8499999999999</ele>
        <time>2014-07-16T07:19:40Z</time>
      </trkpt>
      <trkpt lat="45.943989884108305" lon="6.851706029847264">
        <ele>2008.3299999999999</ele>
        <time>2014-07-16T07:19:55Z</time>
      </trkpt>
      <trkpt lat="45.944009749218822" lon="6.851588431745768">
        <ele>2011.22</ele>
        <time>2014-07-16T07:20:08Z</time>
      </trkpt>
      <trkpt lat="45.943943532183766" lon="6.851547192782164">
        <ele>2013.1400000000001</ele>
        <time>2014-07-16T07:20:21Z</time>
      </trkpt>
      <trkpt lat="45.943886619061232" lon="6.851492878049612">
        <ele>2015.0599999999999</ele>
        <time>2014-07-16T07:20:33Z</time>
      </trkpt>
      <trkpt lat="45.943850995972753" lon="6.851383578032255">
        <ele>2016.98</ele>
        <time>2014-07-16T07:20:47Z</time>
      </trkpt>
      <trkpt lat="45.94385527074337" lon="6.85134225524962">
        <ele>2017.46</ele>
        <time>2014-07-16T07:20:50Z</time>
      </trkpt>
      <trkpt lat="45.943886451423168" lon="6.851326497271657">
        <ele>2017.46</ele>
        <time>2014-07-16T07:21:01Z</time>
      </trkpt>
      <trkpt lat="45.943866251036525" lon="6.851331777870655">
        <ele>2016.5</ele>
        <time>2014-07-16T07:21:20Z</time>
      </trkpt>
      <trkpt lat="45.943861808627844" lon="6.851301435381174">
        <ele>2016.5</ele>
        <time>2014-07-16T07:21:50Z</time>
      </trkpt>
      <trkpt lat="45.943867675960064" lon="6.851304285228252">
        <ele>2016.5</ele>
        <time>2014-07-16T07:22:25Z</time>
      </trkpt>
      <trkpt lat="45.943886116147041" lon="6.851304955780506">
        <ele>2016.98</ele>
        <time>2014-07-16T07:22:52Z</time>
      </trkpt>
      <trkpt lat="45.943869268521667" lon="6.851315265521407">
        <ele>2016.98</ele>
        <time>2014-07-16T07:23:20Z</time>
      </trkpt>
      <trkpt lat="45.943861724808812" lon="6.851312331855297">
        <ele>2017.46</ele>
        <time>2014-07-16T07:23:29Z</time>
      </trkpt>
      <trkpt lat="45.94381713308394" lon="6.851209485903382">
        <ele>2017.46</ele>
        <time>2014-07-16T07:23:44Z</time>
      </trkpt>
      <trkpt lat="45.943818977102637" lon="6.851150561124086">
        <ele>2017.46</ele>
        <time>2014-07-16T07:24:03Z</time>
      </trkpt>
      <trkpt lat="45.943823168054223" lon="6.851191213354468">
        <ele>2017.46</ele>
        <time>2014-07-16T07:24:23Z</time>
      </trkpt>
      <trkpt lat="45.943824844434857" lon="6.851218119263649">
        <ele>2017.9400000000001</ele>
        <time>2014-07-16T07:24:44Z</time>
      </trkpt>
      <trkpt lat="45.943810595199466" lon="6.851176377385855">
        <ele>2017.9400000000001</ele>
        <time>2014-07-16T07:25:03Z</time>
      </trkpt>
      <trkpt lat="45.943822748959064" lon="6.851176042109728">
        <ele>2017.46</ele>
        <time>2014-07-16T07:25:11Z</time>
      </trkpt>
      <trkpt lat="45.943823419511318" lon="6.851142263039947">
        <ele>2017.46</ele>
        <time>2014-07-16T07:25:31Z</time>
      </trkpt>
      <trkpt lat="45.943844206631184" lon="6.851169923320413">
        <ele>2017.46</ele>
        <time>2014-07-16T07:25:57Z</time>
      </trkpt>
      <trkpt lat="45.94384596683085" lon="6.851167911663652">
        <ele>2017.9400000000001</ele>
        <time>2014-07-16T07:26:28Z</time>
      </trkpt>
      <trkpt lat="45.943845463916659" lon="6.851172354072332">
        <ele>2017.9400000000001</ele>
        <time>2014-07-16T07:26:59Z</time>
      </trkpt>
      <trkpt lat="45.943837501108646" lon="6.85118249617517">
        <ele>2017.9400000000001</ele>
        <time>2014-07-16T07:27:20Z</time>
      </trkpt>
      <trkpt lat="45.94382886774838" lon="6.851212587207556">
        <ele>2018.4300000000001</ele>
        <time>2014-07-16T07:27:39Z</time>
      </trkpt>
      <trkpt lat="45.943840770050883" lon="6.851262040436268">
        <ele>2018.4300000000001</ele>
        <time>2014-07-16T07:28:03Z</time>
      </trkpt>
      <trkpt lat="45.943830963224173" lon="6.851271009072661">
        <ele>2018.4300000000001</ele>
        <time>2014-07-16T07:28:31Z</time>
      </trkpt>
      <trkpt lat="45.943836327642202" lon="6.851255083456636">
        <ele>2018.4300000000001</ele>
        <time>2014-07-16T07:28:47Z</time>
      </trkpt>
      <trkpt lat="45.943815791979432" lon="6.851090043783188">
        <ele>2017.46</ele>
        <time>2014-07-16T07:29:00Z</time>
      </trkpt>
      <trkpt lat="45.943828783929348" lon="6.850983174517751">
        <ele>2017.46</ele>
        <time>2014-07-16T07:29:12Z</time>
      </trkpt>
      <trkpt lat="45.943829789757729" lon="6.850960794836283">
        <ele>2016.98</ele>
        <time>2014-07-16T07:29:22Z</time>
      </trkpt>
      <trkpt lat="45.943804141134024" lon="6.850694501772523">
        <ele>2017.46</ele>
        <time>2014-07-16T07:29:39Z</time>
      </trkpt>
      <trkpt lat="45.94374873675406" lon="6.85051990672946">
        <ele>2020.3499999999999</ele>
        <time>2014-07-16T07:29:54Z</time>
      </trkpt>
      <trkpt lat="45.943725602701306" lon="6.850508004426956">
        <ele>2020.8299999999999</ele>
        <time>2014-07-16T07:29:57Z</time>
      </trkpt>
      <trkpt lat="45.943606998771429" lon="6.850371966138482">
        <ele>2021.3099999999999</ele>
        <time>2014-07-16T07:30:13Z</time>
      </trkpt>
      <trkpt lat="45.943479593843222" lon="6.850292589515448">
        <ele>2022.75</ele>
        <time>2014-07-16T07:30:27Z</time>
      </trkpt>
      <trkpt lat="45.943434666842222" lon="6.850264258682728">
        <ele>2023.23</ele>
        <time>2014-07-16T07:30:32Z</time>
      </trkpt>
      <trkpt lat="45.943355960771441" lon="6.850169543176889">
        <ele>2023.71</ele>
        <time>2014-07-16T07:30:42Z</time>
      </trkpt>
      <trkpt lat="45.943270297721028" lon="6.850023530423641">
        <ele>2025.1500000000001</ele>
        <time>2014-07-16T07:30:56Z</time>
      </trkpt>
      <trkpt lat="45.94323274679482" lon="6.849996624514461">
        <ele>2025.6400000000001</ele>
        <time>2014-07-16T07:31:00Z</time>
      </trkpt>
      <trkpt lat="45.943134762346745" lon="6.849932335317135">
        <ele>2026.5999999999999</ele>
        <time>2014-07-16T07:31:12Z</time>
      </trkpt>
      <trkpt lat="45.94301188364625" lon="6.849882127717137">
        <ele>2027.5599999999999</ele>
        <time>2014-07-16T07:31:26Z</time>
      </trkpt>
      <trkpt lat="45.942895375192165" lon="6.849837452173233">
        <ele>2029.48</ele>
        <time>2014-07-16T07:31:40Z</time>
      </trkpt>
      <trkpt lat="45.942792613059282" lon="6.849796464666724">
        <ele>2030.9200000000001</ele>
        <time>2014-07-16T07:31:53Z</time>
      </trkpt>
      <trkpt lat="45.942708542570472" lon="6.849759332835674">
        <ele>2032.8399999999999</ele>
        <time>2014-07-16T07:32:06Z</time>
      </trkpt>
      <trkpt lat="45.942598404362798" lon="6.849732678383589">
        <ele>2035.73</ele>
        <time>2014-07-16T07:32:22Z</time>
      </trkpt>
      <trkpt lat="45.942483656108379" lon="6.849729828536511">
        <ele>2037.1700000000001</ele>
        <time>2014-07-16T07:32:36Z</time>
      </trkpt>
      <trkpt lat="45.942438896745443" lon="6.849709795787931">
        <ele>2038.1300000000001</ele>
        <time>2014-07-16T07:32:42Z</time>
      </trkpt>
      <trkpt lat="45.942299924790859" lon="6.849694540724158">
        <ele>2040.05</ele>
        <time>2014-07-16T07:32:59Z</time>
      </trkpt>
      <trkpt lat="45.942205209285021" lon="6.84963796287775">
        <ele>2041.5</ele>
        <time>2014-07-16T07:33:14Z</time>
      </trkpt>
      <trkpt lat="45.94210353679955" lon="6.849558167159557">
        <ele>2043.4200000000001</ele>
        <time>2014-07-16T07:33:28Z</time>
      </trkpt>
      <trkpt lat="45.942009491845965" lon="6.849439227953553">
        <ele>2045.3399999999999</ele>
        <time>2014-07-16T07:33:42Z</time>
      </trkpt>
      <trkpt lat="45.941922320052981" lon="6.849388349801302">
        <ele>2047.26</ele>
        <time>2014-07-16T07:33:57Z</time>
      </trkpt>
      <trkpt lat="45.94186901114881" lon="6.84934476390481">
        <ele>2048.71</ele>
        <time>2014-07-16T07:34:07Z</time>
      </trkpt>
      <trkpt lat="45.941781336441636" lon="6.849274188280106">
        <ele>2049.6700000000001</ele>
        <time>2014-07-16T07:34:20Z</time>
      </trkpt>
      <trkpt lat="45.941679328680038" lon="6.849207216873765">
        <ele>2051.5900000000001</ele>
        <time>2014-07-16T07:34:36Z</time>
      </trkpt>
      <trkpt lat="45.941674886271358" lon="6.849204618483782">
        <ele>2052.0700000000002</ele>
        <time>2014-07-16T07:34:37Z</time>
      </trkpt>
      <trkpt lat="45.941641107201576" lon="6.849214006215334">
        <ele>2052.5500000000002</ele>
        <time>2014-07-16T07:34:42Z</time>
      </trkpt>
      <trkpt lat="45.941610429435968" lon="6.849223813042045">
        <ele>2053.0300000000002</ele>
        <time>2014-07-16T07:34:46Z</time>
      </trkpt>
      <trkpt lat="45.941544128581882" lon="6.849237140268087">
        <ele>2053.5100000000002</ele>
        <time>2014-07-16T07:34:54Z</time>
      </trkpt>
      <trkpt lat="45.94142435118556" lon="6.849304111674428">
        <ele>2055.4400000000001</ele>
        <time>2014-07-16T07:35:10Z</time>
      </trkpt>
      <trkpt lat="45.941278589889407" lon="6.849281648173928">
        <ele>2056.4000000000001</ele>
        <time>2014-07-16T07:35:27Z</time>
      </trkpt>
      <trkpt lat="45.941194267943501" lon="6.849266812205315">
        <ele>2057.3600000000001</ele>
        <time>2014-07-16T07:35:38Z</time>
      </trkpt>
      <trkpt lat="45.941075328737497" lon="6.84925046749413">
        <ele>2059.7600000000002</ele>
        <time>2014-07-16T07:35:53Z</time>
      </trkpt>
      <trkpt lat="45.940981954336166" lon="6.849247617647052">
        <ele>2061.6799999999998</ele>
        <time>2014-07-16T07:36:07Z</time>
      </trkpt>
      <trkpt lat="45.940956976264715" lon="6.849210653454065">
        <ele>2062.6500000000001</ele>
        <time>2014-07-16T07:36:19Z</time>
      </trkpt>
      <trkpt lat="45.940933171659708" lon="6.849208390340209">
        <ele>2063.1300000000001</ele>
        <time>2014-07-16T07:36:35Z</time>
      </trkpt>
      <trkpt lat="45.940852705389261" lon="6.849263710901141">
        <ele>2063.6100000000001</ele>
        <time>2014-07-16T07:36:48Z</time>
      </trkpt>
      <trkpt lat="45.940791266039014" lon="6.849283659830689">
        <ele>2064.0900000000001</ele>
        <time>2014-07-16T07:36:55Z</time>
      </trkpt>
      <trkpt lat="45.940703842788935" lon="6.849316600710154">
        <ele>2064.5700000000002</ele>
        <time>2014-07-16T07:37:05Z</time>
      </trkpt>
      <trkpt lat="45.940585155040026" lon="6.849373849108815">
        <ele>2065.0500000000002</ele>
        <time>2014-07-16T07:37:19Z</time>
      </trkpt>
      <trkpt lat="45.940575515851378" lon="6.849378291517496">
        <ele>2065.5300000000002</ele>
        <time>2014-07-16T07:37:20Z</time>
      </trkpt>
      <trkpt lat="45.940461857244372" lon="6.849395390599966">
        <ele>2065.5300000000002</ele>
        <time>2014-07-16T07:37:31Z</time>
      </trkpt>
      <trkpt lat="45.940341409295797" lon="6.849374938756228">
        <ele>2066.4899999999998</ele>
        <time>2014-07-16T07:37:44Z</time>
      </trkpt>
      <trkpt lat="45.940237306058407" lon="6.849303692579269">
        <ele>2067.9299999999998</ele>
        <time>2014-07-16T07:37:56Z</time>
      </trkpt>
      <trkpt lat="45.940125491470098" lon="6.849252814427018">
        <ele>2068.8899999999999</ele>
        <time>2014-07-16T07:38:09Z</time>
      </trkpt>
      <trkpt lat="45.940040918067098" lon="6.849190201610327">
        <ele>2068.8899999999999</ele>
        <time>2014-07-16T07:38:23Z</time>
      </trkpt>
      <trkpt lat="45.939969168975949" lon="6.849167905747891">
        <ele>2069.8600000000001</ele>
        <time>2014-07-16T07:38:31Z</time>
      </trkpt>
      <trkpt lat="45.939809661358595" lon="6.849180059507489">
        <ele>2070.8200000000002</ele>
        <time>2014-07-16T07:38:48Z</time>
      </trkpt>
      <trkpt lat="45.939658787101507" lon="6.849194560199976">
        <ele>2071.3000000000002</ele>
        <time>2014-07-16T07:39:02Z</time>
      </trkpt>
      <trkpt lat="45.939495004713535" lon="6.849222471937537">
        <ele>2071.3000000000002</ele>
        <time>2014-07-16T07:39:18Z</time>
      </trkpt>
      <trkpt lat="45.939339771866798" lon="6.849338477477431">
        <ele>2070.8200000000002</ele>
        <time>2014-07-16T07:39:32Z</time>
      </trkpt>
      <trkpt lat="45.939164003357291" lon="6.849368652328849">
        <ele>2071.3000000000002</ele>
        <time>2014-07-16T07:39:46Z</time>
      </trkpt>
      <trkpt lat="45.938985468819737" lon="6.849373932927847">
        <ele>2072.7399999999998</ele>
        <time>2014-07-16T07:40:02Z</time>
      </trkpt>
      <trkpt lat="45.938974739983678" lon="6.849379381164908">
        <ele>2073.2199999999998</ele>
        <time>2014-07-16T07:40:03Z</time>
      </trkpt>
      <trkpt lat="45.938793942332268" lon="6.849305704236031">
        <ele>2075.6199999999999</ele>
        <time>2014-07-16T07:40:20Z</time>
      </trkpt>
      <trkpt lat="45.938739376142621" lon="6.849272176623344">
        <ele>2076.5900000000001</ele>
        <time>2014-07-16T07:40:27Z</time>
      </trkpt>
      <trkpt lat="45.93863183632493" lon="6.849191375076771">
        <ele>2078.5100000000002</ele>
        <time>2014-07-16T07:40:41Z</time>
      </trkpt>
      <trkpt lat="45.938543658703566" lon="6.849175449460745">
        <ele>2079.4699999999998</ele>
        <time>2014-07-16T07:40:52Z</time>
      </trkpt>
      <trkpt lat="45.938380546867847" lon="6.8491898663342">
        <ele>2079.9499999999998</ele>
        <time>2014-07-16T07:41:09Z</time>
      </trkpt>
      <trkpt lat="45.93832447193563" lon="6.849193554371595">
        <ele>2079.9499999999998</ele>
        <time>2014-07-16T07:41:21Z</time>
      </trkpt>
      <trkpt lat="45.938320532441139" lon="6.849195482209325">
        <ele>2079.4699999999998</ele>
        <time>2014-07-16T07:41:35Z</time>
      </trkpt>
      <trkpt lat="45.93832790851593" lon="6.849188776686788">
        <ele>2079.4699999999998</ele>
        <time>2014-07-16T07:41:50Z</time>
      </trkpt>
      <trkpt lat="45.938318353146315" lon="6.849167654290795">
        <ele>2079.4699999999998</ele>
        <time>2014-07-16T07:42:09Z</time>
      </trkpt>
      <trkpt lat="45.938304858282208" lon="6.849208557978272">
        <ele>2079.4699999999998</ele>
        <time>2014-07-16T07:42:30Z</time>
      </trkpt>
      <trkpt lat="45.938325980678201" lon="6.849214509129524">
        <ele>2080.4299999999998</ele>
        <time>2014-07-16T07:42:45Z</time>
      </trkpt>
      <trkpt lat="45.938328746706247" lon="6.849223980680108">
        <ele>2079.9499999999998</ele>
        <time>2014-07-16T07:42:58Z</time>
      </trkpt>
      <trkpt lat="45.938334781676531" lon="6.849204702302814">
        <ele>2079.9499999999998</ele>
        <time>2014-07-16T07:43:14Z</time>
      </trkpt>
      <trkpt lat="45.938374008983374" lon="6.849184837192297">
        <ele>2079.9499999999998</ele>
        <time>2014-07-16T07:43:23Z</time>
      </trkpt>
      <trkpt lat="45.938426898792386" lon="6.84915323741734">
        <ele>2079.9499999999998</ele>
        <time>2014-07-16T07:43:34Z</time>
      </trkpt>
      <trkpt lat="45.938423965126276" lon="6.849155919626355">
        <ele>2079.9499999999998</ele>
        <time>2014-07-16T07:43:36Z</time>
      </trkpt>
      <trkpt lat="45.938406782224774" lon="6.849181149154902">
        <ele>2079.9499999999998</ele>
        <time>2014-07-16T07:43:39Z</time>
      </trkpt>
      <trkpt lat="45.938338972628117" lon="6.849211491644383">
        <ele>2079.9499999999998</ele>
        <time>2014-07-16T07:43:43Z</time>
      </trkpt>
      <trkpt lat="45.93832153826952" lon="6.849211910739541">
        <ele>2079.4699999999998</ele>
        <time>2014-07-16T07:43:54Z</time>
      </trkpt>
      <trkpt lat="45.938322879374027" lon="6.84920059517026">
        <ele>2079.9499999999998</ele>
        <time>2014-07-16T07:44:08Z</time>
      </trkpt>
      <trkpt lat="45.938296057283878" lon="6.849189698696137">
        <ele>2079.9499999999998</ele>
        <time>2014-07-16T07:44:21Z</time>
      </trkpt>
      <trkpt lat="45.938313910737634" lon="6.849206211045384">
        <ele>2079.9499999999998</ele>
        <time>2014-07-16T07:44:32Z</time>
      </trkpt>
      <trkpt lat="45.938254315406084" lon="6.849416848272085">
        <ele>2078.0300000000002</ele>
        <time>2014-07-16T07:44:48Z</time>
      </trkpt>
      <trkpt lat="45.938293375074863" lon="6.849298579618335">
        <ele>2078.9899999999998</ele>
        <time>2014-07-16T07:45:02Z</time>
      </trkpt>
      <trkpt lat="45.938309635967016" lon="6.849279887974262">
        <ele>2079.4699999999998</ele>
        <time>2014-07-16T07:45:04Z</time>
      </trkpt>
      <trkpt lat="45.938356826081872" lon="6.849212748929858">
        <ele>2079.9499999999998</ele>
        <time>2014-07-16T07:45:18Z</time>
      </trkpt>
      <trkpt lat="45.938355568796396" lon="6.849244851619005">
        <ele>2079.4699999999998</ele>
        <time>2014-07-16T07:45:29Z</time>
      </trkpt>
      <trkpt lat="45.938385743647814" lon="6.849274691194296">
        <ele>2079.9499999999998</ele>
        <time>2014-07-16T07:46:03Z</time>
      </trkpt>
      <trkpt lat="45.93838557600975" lon="6.84930226765573">
        <ele>2079.9499999999998</ele>
        <time>2014-07-16T07:46:31Z</time>
      </trkpt>
      <trkpt lat="45.938378870487213" lon="6.849292879924178">
        <ele>2079.9499999999998</ele>
        <time>2014-07-16T07:46:53Z</time>
      </trkpt>
      <trkpt lat="45.938352635130286" lon="6.849281899631023">
        <ele>2079.9499999999998</ele>
        <time>2014-07-16T07:47:32Z</time>
      </trkpt>
      <trkpt lat="45.93837333843112" lon="6.849295143038034">
        <ele>2079.9499999999998</ele>
        <time>2014-07-16T07:48:09Z</time>
      </trkpt>
      <trkpt lat="45.938364202156663" lon="6.849274942651391">
        <ele>2079.9499999999998</ele>
        <time>2014-07-16T07:48:38Z</time>
      </trkpt>
      <trkpt lat="45.938377780839801" lon="6.849292125552893">
        <ele>2079.9499999999998</ele>
        <time>2014-07-16T07:49:15Z</time>
      </trkpt>
      <trkpt lat="45.938372332602739" lon="6.849295059219003">
        <ele>2079.9499999999998</ele>
        <time>2014-07-16T07:49:46Z</time>
      </trkpt>
      <trkpt lat="45.93837627209723" lon="6.849283576011658">
        <ele>2080.4299999999998</ele>
        <time>2014-07-16T07:50:17Z</time>
      </trkpt>
      <trkpt lat="45.93837970867753" lon="6.849283995106816">
        <ele>2080.4299999999998</ele>
        <time>2014-07-16T07:50:51Z</time>
      </trkpt>
      <trkpt lat="45.938370069488883" lon="6.849273853003979">
        <ele>2080.4299999999998</ele>
        <time>2014-07-16T07:51:23Z</time>
      </trkpt>
      <trkpt lat="45.938384737819433" lon="6.849309056997299">
        <ele>2080.4299999999998</ele>
        <time>2014-07-16T07:51:48Z</time>
      </trkpt>
      <trkpt lat="45.938389012590051" lon="6.849295478314161">
        <ele>2080.9099999999999</ele>
        <time>2014-07-16T07:52:27Z</time>
      </trkpt>
      <trkpt lat="45.938363196328282" lon="6.849300842732191">
        <ele>2080.9099999999999</ele>
        <time>2014-07-16T07:52:57Z</time>
      </trkpt>
      <trkpt lat="45.938398065045476" lon="6.849326156079769">
        <ele>2081.3899999999999</ele>
        <time>2014-07-16T07:53:31Z</time>
      </trkpt>
      <trkpt lat="45.938370740041137" lon="6.849292796105146">
        <ele>2081.3899999999999</ele>
        <time>2014-07-16T07:53:56Z</time>
      </trkpt>
      <trkpt lat="45.938385659828782" lon="6.849290616810322">
        <ele>2081.3899999999999</ele>
        <time>2014-07-16T07:54:30Z</time>
      </trkpt>
      <trkpt lat="45.938370991498232" lon="6.849259519949555">
        <ele>2081.3899999999999</ele>
        <time>2014-07-16T07:54:52Z</time>
      </trkpt>
      <trkpt lat="45.938334362581372" lon="6.849293885752559">
        <ele>2081.3899999999999</ele>
        <time>2014-07-16T07:55:23Z</time>
      </trkpt>
      <trkpt lat="45.938326232135296" lon="6.849265890195966">
        <ele>2081.3899999999999</ele>
        <time>2014-07-16T07:55:52Z</time>
      </trkpt>
      <trkpt lat="45.938351210206747" lon="6.849292796105146">
        <ele>2081.3899999999999</ele>
        <time>2014-07-16T07:56:23Z</time>
      </trkpt>
      <trkpt lat="45.938377697020769" lon="6.849346859380603">
        <ele>2081.8699999999999</ele>
        <time>2014-07-16T07:56:56Z</time>
      </trkpt>
      <trkpt lat="45.938397394493222" lon="6.849359851330519">
        <ele>2081.8699999999999</ele>
        <time>2014-07-16T07:57:26Z</time>
      </trkpt>
      <trkpt lat="45.938421534374356" lon="6.849360354244709">
        <ele>2081.8699999999999</ele>
        <time>2014-07-16T07:57:59Z</time>
      </trkpt>
      <trkpt lat="45.938463024795055" lon="6.849325736984611">
        <ele>2082.3499999999999</ele>
        <time>2014-07-16T07:58:28Z</time>
      </trkpt>
      <trkpt lat="45.938442572951317" lon="6.849346105009317">
        <ele>2082.3499999999999</ele>
        <time>2014-07-16T07:58:56Z</time>
      </trkpt>
      <trkpt lat="45.938426731154323" lon="6.849355576559901">
        <ele>2082.8299999999999</ele>
        <time>2014-07-16T07:59:29Z</time>
      </trkpt>
      <trkpt lat="45.938441483303905" lon="6.849366724491119">
        <ele>2083.3099999999999</ele>
        <time>2014-07-16T07:59:53Z</time>
      </trkpt>
      <trkpt lat="45.938361268490553" lon="6.84930226765573">
        <ele>2082.8299999999999</ele>
        <time>2014-07-16T08:00:18Z</time>
      </trkpt>
      <trkpt lat="45.938361352309585" lon="6.849283324554563">
        <ele>2083.79</ele>
        <time>2014-07-16T08:00:39Z</time>
      </trkpt>
      <trkpt lat="45.938351294025779" lon="6.849297909066081">
        <ele>2083.79</ele>
        <time>2014-07-16T08:01:09Z</time>
      </trkpt>
      <trkpt lat="45.938373170793056" lon="6.849337723106146">
        <ele>2083.79</ele>
        <time>2014-07-16T08:01:49Z</time>
      </trkpt>
      <trkpt lat="45.938395382836461" lon="6.849333699792624">
        <ele>2083.79</ele>
        <time>2014-07-16T08:02:25Z</time>
      </trkpt>
      <trkpt lat="45.938351042568684" lon="6.849287766963244">
        <ele>2084.2800000000002</ele>
        <time>2014-07-16T08:02:58Z</time>
      </trkpt>
      <trkpt lat="45.938366465270519" lon="6.84929883107543">
        <ele>2084.2800000000002</ele>
        <time>2014-07-16T08:03:29Z</time>
      </trkpt>
      <trkpt lat="45.938328327611089" lon="6.8492675665766">
        <ele>2084.2800000000002</ele>
        <time>2014-07-16T08:04:11Z</time>
      </trkpt>
      <trkpt lat="45.938338302075863" lon="6.849245270714164">
        <ele>2084.2800000000002</ele>
        <time>2014-07-16T08:04:37Z</time>
      </trkpt>
      <trkpt lat="45.93832983635366" lon="6.84928466565907">
        <ele>2084.2800000000002</ele>
        <time>2014-07-16T08:05:03Z</time>
      </trkpt>
      <trkpt lat="45.938351796939969" lon="6.849240660667419">
        <ele>2085.7199999999998</ele>
        <time>2014-07-16T08:05:11Z</time>
      </trkpt>
      <trkpt lat="45.938349785283208" lon="6.849226579070091">
        <ele>2085.2399999999998</ele>
        <time>2014-07-16T08:05:25Z</time>
      </trkpt>
      <trkpt lat="45.938334362581372" lon="6.849181735888124">
        <ele>2085.7199999999998</ele>
        <time>2014-07-16T08:05:40Z</time>
      </trkpt>
      <trkpt lat="45.93833277001977" lon="6.849107807502151">
        <ele>2085.7199999999998</ele>
        <time>2014-07-16T08:05:55Z</time>
      </trkpt>
      <trkpt lat="45.938275521621108" lon="6.848990628495812">
        <ele>2087.6399999999999</ele>
        <time>2014-07-16T08:06:11Z</time>
      </trkpt>
      <trkpt lat="45.938208801671863" lon="6.848892895504832">
        <ele>2089.5599999999999</ele>
        <time>2014-07-16T08:06:27Z</time>
      </trkpt>
      <trkpt lat="45.938301170244813" lon="6.848838329315186">
        <ele>2092.9299999999998</ele>
        <time>2014-07-16T08:06:41Z</time>
      </trkpt>
      <trkpt lat="45.938395299017429" lon="6.848838999867439">
        <ele>2093.8899999999999</ele>
        <time>2014-07-16T08:06:57Z</time>
      </trkpt>
      <trkpt lat="45.938477357849479" lon="6.848827768117189">
        <ele>2096.29</ele>
        <time>2014-07-16T08:07:11Z</time>
      </trkpt>
      <trkpt lat="45.938543742522597" lon="6.848810501396656">
        <ele>2097.25</ele>
        <time>2014-07-16T08:07:23Z</time>
      </trkpt>
      <trkpt lat="45.938508873805404" lon="6.848764233291149">
        <ele>2099.6599999999999</ele>
        <time>2014-07-16T08:07:37Z</time>
      </trkpt>
      <trkpt lat="45.938467048108578" lon="6.848723413422704">
        <ele>2101.5799999999999</ele>
        <time>2014-07-16T08:07:50Z</time>
      </trkpt>
      <trkpt lat="45.9385228715837" lon="6.848698267713189">
        <ele>2103.02</ele>
        <time>2014-07-16T08:08:01Z</time>
      </trkpt>
      <trkpt lat="45.938609121367335" lon="6.848699524998665">
        <ele>2104.46</ele>
        <time>2014-07-16T08:08:15Z</time>
      </trkpt>
      <trkpt lat="45.938678607344627" lon="6.848657950758934">
        <ele>2104.9400000000001</ele>
        <time>2014-07-16T08:08:27Z</time>
      </trkpt>
      <trkpt lat="45.938628483563662" lon="6.848658369854093">
        <ele>2106.3899999999999</ele>
        <time>2014-07-16T08:08:38Z</time>
      </trkpt>
      <trkpt lat="45.938625549897552" lon="6.848605899140239">
        <ele>2108.3099999999999</ele>
        <time>2014-07-16T08:08:52Z</time>
      </trkpt>
      <trkpt lat="45.938685312867165" lon="6.848581759259105">
        <ele>2110.23</ele>
        <time>2014-07-16T08:09:04Z</time>
      </trkpt>
      <trkpt lat="45.938743147999048" lon="6.848499784246087">
        <ele>2111.6700000000001</ele>
        <time>2014-07-16T08:09:16Z</time>
      </trkpt>
      <trkpt lat="45.938766449689865" lon="6.848464831709862">
        <ele>2112.6300000000001</ele>
        <time>2014-07-16T08:09:22Z</time>
      </trkpt>
      <trkpt lat="45.938868122175336" lon="6.848444547504187">
        <ele>2113.1199999999999</ele>
        <time>2014-07-16T08:09:35Z</time>
      </trkpt>
      <trkpt lat="45.938927885144949" lon="6.848345138132572">
        <ele>2115.04</ele>
        <time>2014-07-16T08:09:50Z</time>
      </trkpt>
      <trkpt lat="45.939030731096864" lon="6.848295265808702">
        <ele>2117.4400000000001</ele>
        <time>2014-07-16T08:10:07Z</time>
      </trkpt>
      <trkpt lat="45.939102228730917" lon="6.848243298009038">
        <ele>2118.4000000000001</ele>
        <time>2014-07-16T08:10:20Z</time>
      </trkpt>
      <trkpt lat="45.93916492536664" lon="6.848199795931578">
        <ele>2120.8099999999999</ele>
        <time>2014-07-16T08:10:32Z</time>
      </trkpt>
      <trkpt lat="45.939238937571645" lon="6.848168782889843">
        <ele>2122.73</ele>
        <time>2014-07-16T08:10:46Z</time>
      </trkpt>
      <trkpt lat="45.939308339729905" lon="6.848122933879495">
        <ele>2124.6500000000001</ele>
        <time>2014-07-16T08:10:59Z</time>
      </trkpt>
      <trkpt lat="45.939357792958617" lon="6.848058979958296">
        <ele>2126.5700000000002</ele>
        <time>2014-07-16T08:11:15Z</time>
      </trkpt>
      <trkpt lat="45.939401714131236" lon="6.848014555871487">
        <ele>2128.98</ele>
        <time>2014-07-16T08:11:28Z</time>
      </trkpt>
      <trkpt lat="45.939456699416041" lon="6.847986811771989">
        <ele>2130.9000000000001</ele>
        <time>2014-07-16T08:11:39Z</time>
      </trkpt>
      <trkpt lat="45.939527275040746" lon="6.847963677719235">
        <ele>2132.3400000000001</ele>
        <time>2014-07-16T08:11:54Z</time>
      </trkpt>
      <trkpt lat="45.939608914777637" lon="6.847927132621408">
        <ele>2134.7399999999998</ele>
        <time>2014-07-16T08:12:10Z</time>
      </trkpt>
      <trkpt lat="45.939697176218033" lon="6.847896873950958">
        <ele>2136.6700000000001</ele>
        <time>2014-07-16T08:12:25Z</time>
      </trkpt>
      <trkpt lat="45.939810583367944" lon="6.84786619618535">
        <ele>2137.6300000000001</ele>
        <time>2014-07-16T08:12:40Z</time>
      </trkpt>
      <trkpt lat="45.939831705763936" lon="6.847815066576004">
        <ele>2139.5500000000002</ele>
        <time>2014-07-16T08:12:53Z</time>
      </trkpt>
      <trkpt lat="45.93989884480834" lon="6.847775001078844">
        <ele>2142.4400000000001</ele>
        <time>2014-07-16T08:13:07Z</time>
      </trkpt>
      <trkpt lat="45.939971767365932" lon="6.847769469022751">
        <ele>2143.4000000000001</ele>
        <time>2014-07-16T08:13:20Z</time>
      </trkpt>
      <trkpt lat="45.940023232251406" lon="6.847731079906225">
        <ele>2145.3200000000002</ele>
        <time>2014-07-16T08:13:34Z</time>
      </trkpt>
      <trkpt lat="45.940082911401987" lon="6.847709873691201">
        <ele>2147.2399999999998</ele>
        <time>2014-07-16T08:13:48Z</time>
      </trkpt>
      <trkpt lat="45.940150553360581" lon="6.847699647769332">
        <ele>2147.7199999999998</ele>
        <time>2014-07-16T08:14:02Z</time>
      </trkpt>
      <trkpt lat="45.940189780667424" lon="6.84763066470623">
        <ele>2148.6799999999998</ele>
        <time>2014-07-16T08:14:18Z</time>
      </trkpt>
      <trkpt lat="45.94028533436358" lon="6.847613314166665">
        <ele>2151.0900000000001</ele>
        <time>2014-07-16T08:14:33Z</time>
      </trkpt>
      <trkpt lat="45.940387509763241" lon="6.847579954192042">
        <ele>2152.5300000000002</ele>
        <time>2014-07-16T08:14:49Z</time>
      </trkpt>
      <trkpt lat="45.940487505868077" lon="6.847551036626101">
        <ele>2153.9699999999998</ele>
        <time>2014-07-16T08:15:04Z</time>
      </trkpt>
      <trkpt lat="45.940599236637354" lon="6.84751776047051">
        <ele>2154.9299999999998</ele>
        <time>2014-07-16T08:15:19Z</time>
      </trkpt>
      <trkpt lat="45.940714739263058" lon="6.847474593669176">
        <ele>2156.3699999999999</ele>
        <time>2014-07-16T08:15:35Z</time>
      </trkpt>
      <trkpt lat="45.940824123099446" lon="6.847460428252816">
        <ele>2156.8600000000001</ele>
        <time>2014-07-16T08:15:50Z</time>
      </trkpt>
      <trkpt lat="45.940934345126152" lon="6.847437294200063">
        <ele>2159.7399999999998</ele>
        <time>2014-07-16T08:16:07Z</time>
      </trkpt>
      <trkpt lat="45.941019505262375" lon="6.84742103330791">
        <ele>2161.1799999999998</ele>
        <time>2014-07-16T08:16:20Z</time>
      </trkpt>
      <trkpt lat="45.94114238396287" lon="6.84740393422544">
        <ele>2162.6199999999999</ele>
        <time>2014-07-16T08:16:37Z</time>
      </trkpt>
      <trkpt lat="45.941213378682733" lon="6.84735263697803">
        <ele>2164.5500000000002</ele>
        <time>2014-07-16T08:16:52Z</time>
      </trkpt>
      <trkpt lat="45.941287893801928" lon="6.847283151000738">
        <ele>2166.9499999999998</ele>
        <time>2014-07-16T08:17:07Z</time>
      </trkpt>
      <trkpt lat="45.941349249333143" lon="6.847221460193396">
        <ele>2168.8699999999999</ele>
        <time>2014-07-16T08:17:21Z</time>
      </trkpt>
      <trkpt lat="45.94141454435885" lon="6.847152477130294">
        <ele>2171.27</ele>
        <time>2014-07-16T08:17:36Z</time>
      </trkpt>
      <trkpt lat="45.941470703110099" lon="6.847090534865856">
        <ele>2172.7199999999998</ele>
        <time>2014-07-16T08:17:50Z</time>
      </trkpt>
      <trkpt lat="45.941529627889395" lon="6.847052397206426">
        <ele>2175.1199999999999</ele>
        <time>2014-07-16T08:18:05Z</time>
      </trkpt>
      <trkpt lat="45.941617889329791" lon="6.847007051110268">
        <ele>2178</ele>
        <time>2014-07-16T08:18:23Z</time>
      </trkpt>
      <trkpt lat="45.941675556823611" lon="6.846956675872207">
        <ele>2179.9299999999998</ele>
        <time>2014-07-16T08:18:38Z</time>
      </trkpt>
      <trkpt lat="45.941721070557833" lon="6.846883837133646">
        <ele>2181.8499999999999</ele>
        <time>2014-07-16T08:18:55Z</time>
      </trkpt>
      <trkpt lat="45.941799022257328" lon="6.846824493259192">
        <ele>2184.25</ele>
        <time>2014-07-16T08:19:11Z</time>
      </trkpt>
      <trkpt lat="45.941887535154819" lon="6.846777554601431">
        <ele>2186.6599999999999</ele>
        <time>2014-07-16T08:19:26Z</time>
      </trkpt>
      <trkpt lat="45.941926762461662" lon="6.846785265952349">
        <ele>2189.54</ele>
        <time>2014-07-16T08:19:35Z</time>
      </trkpt>
      <trkpt lat="45.942006390541792" lon="6.846754839643836">
        <ele>2190.5</ele>
        <time>2014-07-16T08:19:51Z</time>
      </trkpt>
      <trkpt lat="45.94207763671875" lon="6.846760539337993">
        <ele>2192.4200000000001</ele>
        <time>2014-07-16T08:20:05Z</time>
      </trkpt>
      <trkpt lat="45.94210647046566" lon="6.846750732511282">
        <ele>2194.8299999999999</ele>
        <time>2014-07-16T08:20:18Z</time>
      </trkpt>
      <trkpt lat="45.942158605903387" lon="6.846716199070215">
        <ele>2196.75</ele>
        <time>2014-07-16T08:20:31Z</time>
      </trkpt>
      <trkpt lat="45.942249046638608" lon="6.846698597073555">
        <ele>2198.6700000000001</ele>
        <time>2014-07-16T08:20:47Z</time>
      </trkpt>
      <trkpt lat="45.942341079935431" lon="6.846682252362371">
        <ele>2201.0799999999999</ele>
        <time>2014-07-16T08:21:04Z</time>
      </trkpt>
      <trkpt lat="45.942405369132757" lon="6.846665991470218">
        <ele>2202.04</ele>
        <time>2014-07-16T08:21:18Z</time>
      </trkpt>
      <trkpt lat="45.942346276715398" lon="6.846647383645177">
        <ele>2203.96</ele>
        <time>2014-07-16T08:21:31Z</time>
      </trkpt>
      <trkpt lat="45.942276371642947" lon="6.846604719758034">
        <ele>2206.8400000000001</ele>
        <time>2014-07-16T08:21:48Z</time>
      </trkpt>
      <trkpt lat="45.942163215950131" lon="6.846576975658536">
        <ele>2207.8099999999999</ele>
        <time>2014-07-16T08:22:03Z</time>
      </trkpt>
      <trkpt lat="45.942102866247296" lon="6.846543783321977">
        <ele>2208.77</ele>
        <time>2014-07-16T08:22:13Z</time>
      </trkpt>
      <trkpt lat="45.942012593150139" lon="6.846481002867222">
        <ele>2211.1700000000001</ele>
        <time>2014-07-16T08:22:29Z</time>
      </trkpt>
      <trkpt lat="45.941937826573849" lon="6.846384024247527">
        <ele>2213.5700000000002</ele>
        <time>2014-07-16T08:22:44Z</time>
      </trkpt>
      <trkpt lat="45.941855600103736" lon="6.846314119175077">
        <ele>2215.5</ele>
        <time>2014-07-16T08:23:00Z</time>
      </trkpt>
      <trkpt lat="45.941794412210584" lon="6.846252512186766">
        <ele>2218.3800000000001</ele>
        <time>2014-07-16T08:23:15Z</time>
      </trkpt>
      <trkpt lat="45.941748982295394" lon="6.846230886876583">
        <ele>2220.7800000000002</ele>
        <time>2014-07-16T08:23:29Z</time>
      </trkpt>
      <trkpt lat="45.941672036424279" lon="6.846216218546033">
        <ele>2222.71</ele>
        <time>2014-07-16T08:23:43Z</time>
      </trkpt>
      <trkpt lat="45.941623672842979" lon="6.846215380355716">
        <ele>2224.6300000000001</ele>
        <time>2014-07-16T08:23:56Z</time>
      </trkpt>
      <trkpt lat="45.941532561555505" lon="6.84619752690196">
        <ele>2227.5100000000002</ele>
        <time>2014-07-16T08:24:12Z</time>
      </trkpt>
      <trkpt lat="45.941454442217946" lon="6.846232227981091">
        <ele>2229.9200000000001</ele>
        <time>2014-07-16T08:24:27Z</time>
      </trkpt>
      <trkpt lat="45.941366935148835" lon="6.846283441409469">
        <ele>2232.8000000000002</ele>
        <time>2014-07-16T08:24:43Z</time>
      </trkpt>
      <trkpt lat="45.941298874095082" lon="6.846343539655209">
        <ele>2234.2399999999998</ele>
        <time>2014-07-16T08:24:59Z</time>
      </trkpt>
      <trkpt lat="45.941268615424633" lon="6.846377905458212">
        <ele>2235.1999999999998</ele>
        <time>2014-07-16T08:25:13Z</time>
      </trkpt>
      <trkpt lat="45.941273812204599" lon="6.846304899081588">
        <ele>2236.1599999999999</ele>
        <time>2014-07-16T08:25:30Z</time>
      </trkpt>
      <trkpt lat="45.941238859668374" lon="6.846312358975411">
        <ele>2236.1599999999999</ele>
        <time>2014-07-16T08:25:49Z</time>
      </trkpt>
      <trkpt lat="45.941179012879729" lon="6.846314705908299">
        <ele>2237.1300000000001</ele>
        <time>2014-07-16T08:26:05Z</time>
      </trkpt>
      <trkpt lat="45.941116651520133" lon="6.846273634582758">
        <ele>2238.5700000000002</ele>
        <time>2014-07-16T08:26:18Z</time>
      </trkpt>
      <trkpt lat="45.941040208563209" lon="6.846212698146701">
        <ele>2240.9699999999998</ele>
        <time>2014-07-16T08:26:33Z</time>
      </trkpt>
      <trkpt lat="45.940962256863713" lon="6.846205741167069">
        <ele>2243.3699999999999</ele>
        <time>2014-07-16T08:26:48Z</time>
      </trkpt>
      <trkpt lat="45.940876174718142" lon="6.846216218546033">
        <ele>2246.2600000000002</ele>
        <time>2014-07-16T08:27:07Z</time>
      </trkpt>
      <trkpt lat="45.940831080079079" lon="6.846170285716653">
        <ele>2247.6999999999998</ele>
        <time>2014-07-16T08:27:21Z</time>
      </trkpt>
      <trkpt lat="45.940823955461383" lon="6.846169531345367">
        <ele>2247.6999999999998</ele>
        <time>2014-07-16T08:27:43Z</time>
      </trkpt>
      <trkpt lat="45.940735107287765" lon="6.846074564382434">
        <ele>2249.6199999999999</ele>
        <time>2014-07-16T08:27:59Z</time>
      </trkpt>
      <trkpt lat="45.940697137266397" lon="6.846048831939697">
        <ele>2251.0599999999999</ele>
        <time>2014-07-16T08:28:13Z</time>
      </trkpt>
      <trkpt lat="45.94063812866807" lon="6.846012454479933">
        <ele>2252.9899999999998</ele>
        <time>2014-07-16T08:28:25Z</time>
      </trkpt>
      <trkpt lat="45.940581718459725" lon="6.845974819734693">
        <ele>2255.3899999999999</ele>
        <time>2014-07-16T08:28:40Z</time>
      </trkpt>
      <trkpt lat="45.940606445074081" lon="6.845919918268919">
        <ele>2257.79</ele>
        <time>2014-07-16T08:28:54Z</time>
      </trkpt>
      <trkpt lat="45.94071046449244" lon="6.845894521102309">
        <ele>2259.7199999999998</ele>
        <time>2014-07-16T08:29:10Z</time>
      </trkpt>
      <trkpt lat="45.940818255767226" lon="6.845855042338371">
        <ele>2261.1599999999999</ele>
        <time>2014-07-16T08:29:27Z</time>
      </trkpt>
      <trkpt lat="45.940903583541512" lon="6.84585839509964">
        <ele>2265</ele>
        <time>2014-07-16T08:29:41Z</time>
      </trkpt>
      <trkpt lat="45.940907690674067" lon="6.845858143642545">
        <ele>2264.52</ele>
        <time>2014-07-16T08:29:42Z</time>
      </trkpt>
      <trkpt lat="45.940973991528153" lon="6.845840709283948">
        <ele>2265.96</ele>
        <time>2014-07-16T08:29:56Z</time>
      </trkpt>
      <trkpt lat="45.941021936014295" lon="6.845828555524349">
        <ele>2266.9299999999998</ele>
        <time>2014-07-16T08:30:10Z</time>
      </trkpt>
      <trkpt lat="45.941103994846344" lon="6.845766445621848">
        <ele>2268.8499999999999</ele>
        <time>2014-07-16T08:30:26Z</time>
      </trkpt>
      <trkpt lat="45.941175408661366" lon="6.845722189173102">
        <ele>2270.29</ele>
        <time>2014-07-16T08:30:40Z</time>
      </trkpt>
      <trkpt lat="45.941223604604602" lon="6.845671311020851">
        <ele>2271.73</ele>
        <time>2014-07-16T08:30:58Z</time>
      </trkpt>
      <trkpt lat="45.941220419481397" lon="6.845642141997814">
        <ele>2273.1700000000001</ele>
        <time>2014-07-16T08:31:10Z</time>
      </trkpt>
      <trkpt lat="45.941133080050349" lon="6.845666114240885">
        <ele>2275.0999999999999</ele>
        <time>2014-07-16T08:31:23Z</time>
      </trkpt>
      <trkpt lat="45.941073903813958" lon="6.845661168918014">
        <ele>2276.0599999999999</ele>
        <time>2014-07-16T08:31:33Z</time>
      </trkpt>
      <trkpt lat="45.941060073673725" lon="6.845663851127029">
        <ele>2275.5799999999999</ele>
        <time>2014-07-16T08:31:35Z</time>
      </trkpt>
      <trkpt lat="45.941012296825647" lon="6.845673238858581">
        <ele>2276.0599999999999</ele>
        <time>2014-07-16T08:31:40Z</time>
      </trkpt>
      <trkpt lat="45.940911043435335" lon="6.845656139776111">
        <ele>2277.98</ele>
        <time>2014-07-16T08:31:53Z</time>
      </trkpt>
      <trkpt lat="45.940887155011296" lon="6.845621606335044">
        <ele>2279.9000000000001</ele>
        <time>2014-07-16T08:32:00Z</time>
      </trkpt>
      <trkpt lat="45.94086142256856" lon="6.845611967146397">
        <ele>2279.9000000000001</ele>
        <time>2014-07-16T08:32:04Z</time>
      </trkpt>
      <trkpt lat="45.940840719267726" lon="6.845573242753744">
        <ele>2281.8299999999999</ele>
        <time>2014-07-16T08:32:18Z</time>
      </trkpt>
      <trkpt lat="45.940926130861044" lon="6.845565196126699">
        <ele>2284.71</ele>
        <time>2014-07-16T08:32:32Z</time>
      </trkpt>
      <trkpt lat="45.940974578261375" lon="6.845518089830875">
        <ele>2286.1500000000001</ele>
        <time>2014-07-16T08:32:43Z</time>
      </trkpt>
      <trkpt lat="45.941010536625981" lon="6.845449190586805">
        <ele>2288.5599999999999</ele>
        <time>2014-07-16T08:32:59Z</time>
      </trkpt>
      <trkpt lat="45.941060157492757" lon="6.845379956066608">
        <ele>2290.96</ele>
        <time>2014-07-16T08:33:13Z</time>
      </trkpt>
      <trkpt lat="45.941138779744506" lon="6.845347266644239">
        <ele>2293.3600000000001</ele>
        <time>2014-07-16T08:33:30Z</time>
      </trkpt>
      <trkpt lat="45.941181946545839" lon="6.845346847549081">
        <ele>2295.2800000000002</ele>
        <time>2014-07-16T08:33:42Z</time>
      </trkpt>
      <trkpt lat="45.941232237964869" lon="6.845341566950083">
        <ele>2297.6900000000001</ele>
        <time>2014-07-16T08:33:56Z</time>
      </trkpt>
      <trkpt lat="45.941291581839323" lon="6.845296807587147">
        <ele>2299.1300000000001</ele>
        <time>2014-07-16T08:34:11Z</time>
      </trkpt>
      <trkpt lat="45.94130415469408" lon="6.845237463712692">
        <ele>2301.5300000000002</ele>
        <time>2014-07-16T08:34:26Z</time>
      </trkpt>
      <trkpt lat="45.941215725615621" lon="6.845259424299002">
        <ele>2303.9400000000001</ele>
        <time>2014-07-16T08:34:43Z</time>
      </trkpt>
      <trkpt lat="45.941136013716459" lon="6.845210725441575">
        <ele>2305.8600000000001</ele>
        <time>2014-07-16T08:34:59Z</time>
      </trkpt>
      <trkpt lat="45.941055295988917" lon="6.845183987170458">
        <ele>2308.7399999999998</ele>
        <time>2014-07-16T08:35:17Z</time>
      </trkpt>
      <trkpt lat="45.940973907709122" lon="6.845197314396501">
        <ele>2311.6300000000001</ele>
        <time>2014-07-16T08:35:33Z</time>
      </trkpt>
      <trkpt lat="45.940905092284083" lon="6.845229249447584">
        <ele>2313.0700000000002</ele>
        <time>2014-07-16T08:35:48Z</time>
      </trkpt>
      <trkpt lat="45.940893525257707" lon="6.845242911949754">
        <ele>2313.0700000000002</ele>
        <time>2014-07-16T08:36:01Z</time>
      </trkpt>
      <trkpt lat="45.940842479467392" lon="6.845231261104345">
        <ele>2314.5100000000002</ele>
        <time>2014-07-16T08:36:17Z</time>
      </trkpt>
      <trkpt lat="45.940757486969233" lon="6.84518557973206">
        <ele>2317.8800000000001</ele>
        <time>2014-07-16T08:36:32Z</time>
      </trkpt>
      <trkpt lat="45.940654808655381" lon="6.845152890309691">
        <ele>2320.7600000000002</ele>
        <time>2014-07-16T08:36:49Z</time>
      </trkpt>
      <trkpt lat="45.940606277436018" lon="6.845157332718372">
        <ele>2323.1599999999999</ele>
        <time>2014-07-16T08:37:00Z</time>
      </trkpt>
      <trkpt lat="45.940552381798625" lon="6.845160098746419">
        <ele>2324.1199999999999</ele>
        <time>2014-07-16T08:37:14Z</time>
      </trkpt>
      <trkpt lat="45.940551040694118" lon="6.845124140381813">
        <ele>2324.6100000000001</ele>
        <time>2014-07-16T08:37:35Z</time>
      </trkpt>
      <trkpt lat="45.940473591908813" lon="6.845086170360446">
        <ele>2326.0500000000002</ele>
        <time>2014-07-16T08:37:48Z</time>
      </trkpt>
      <trkpt lat="45.940392706543207" lon="6.845074351876974">
        <ele>2327.9699999999998</ele>
        <time>2014-07-16T08:38:02Z</time>
      </trkpt>
      <trkpt lat="45.940372422337532" lon="6.845095725730062">
        <ele>2328.9299999999998</ele>
        <time>2014-07-16T08:38:14Z</time>
      </trkpt>
      <trkpt lat="45.940372087061405" lon="6.845105867832899">
        <ele>2328.9299999999998</ele>
        <time>2014-07-16T08:38:33Z</time>
      </trkpt>
      <trkpt lat="45.940336966887116" lon="6.845092372968793">
        <ele>2328.9299999999998</ele>
        <time>2014-07-16T08:38:43Z</time>
      </trkpt>
      <trkpt lat="45.94035817310214" lon="6.845080554485321">
        <ele>2329.4099999999999</ele>
        <time>2014-07-16T08:39:02Z</time>
      </trkpt>
      <trkpt lat="45.940359681844711" lon="6.845045518130064">
        <ele>2329.8899999999999</ele>
        <time>2014-07-16T08:39:19Z</time>
      </trkpt>
      <trkpt lat="45.940388683229685" lon="6.845063036307693">
        <ele>2329.8899999999999</ele>
        <time>2014-07-16T08:39:31Z</time>
      </trkpt>
      <trkpt lat="45.940389940515161" lon="6.845057252794504">
        <ele>2330.3699999999999</ele>
        <time>2014-07-16T08:39:49Z</time>
      </trkpt>
      <trkpt lat="45.940413661301136" lon="6.845041830092669">
        <ele>2330.8499999999999</ele>
        <time>2014-07-16T08:40:00Z</time>
      </trkpt>
      <trkpt lat="45.940416092053056" lon="6.845031185075641">
        <ele>2331.3299999999999</ele>
        <time>2014-07-16T08:40:27Z</time>
      </trkpt>
      <trkpt lat="45.940468981862068" lon="6.845002099871635">
        <ele>2332.7800000000002</ele>
        <time>2014-07-16T08:40:46Z</time>
      </trkpt>
      <trkpt lat="45.940507706254721" lon="6.845004362985492">
        <ele>2333.7399999999998</ele>
        <time>2014-07-16T08:40:54Z</time>
      </trkpt>
      <trkpt lat="45.940575012937188" lon="6.844996986910701">
        <ele>2336.1399999999999</ele>
        <time>2014-07-16T08:41:09Z</time>
      </trkpt>
      <trkpt lat="45.940552465617657" lon="6.844877460971475">
        <ele>2338.54</ele>
        <time>2014-07-16T08:41:24Z</time>
      </trkpt>
      <trkpt lat="45.94052136875689" lon="6.844751229509711">
        <ele>2340.4699999999998</ele>
        <time>2014-07-16T08:41:39Z</time>
      </trkpt>
      <trkpt lat="45.940576940774918" lon="6.844701441004872">
        <ele>2342.3899999999999</ele>
        <time>2014-07-16T08:41:52Z</time>
      </trkpt>
      <trkpt lat="45.940679786726832" lon="6.844701692461968">
        <ele>2345.27</ele>
        <time>2014-07-16T08:42:08Z</time>
      </trkpt>
      <trkpt lat="45.940762767568231" lon="6.844690460711718">
        <ele>2348.1599999999999</ele>
        <time>2014-07-16T08:42:22Z</time>
      </trkpt>
      <trkpt lat="45.940783387050033" lon="6.844729017466307">
        <ele>2349.5999999999999</ele>
        <time>2014-07-16T08:42:35Z</time>
      </trkpt>
      <trkpt lat="45.940785314887762" lon="6.844727508723736">
        <ele>2349.5999999999999</ele>
        <time>2014-07-16T08:42:50Z</time>
      </trkpt>
      <trkpt lat="45.940797049552202" lon="6.844635559245944">
        <ele>2351.04</ele>
        <time>2014-07-16T08:43:03Z</time>
      </trkpt>
      <trkpt lat="45.940763941034675" lon="6.844569509848952">
        <ele>2352.48</ele>
        <time>2014-07-16T08:43:18Z</time>
      </trkpt>
      <trkpt lat="45.940745081752539" lon="6.844514105468988">
        <ele>2353.9299999999998</ele>
        <time>2014-07-16T08:43:26Z</time>
      </trkpt>
      <trkpt lat="45.94081062823534" lon="6.844493318349123">
        <ele>2356.3299999999999</ele>
        <time>2014-07-16T08:43:37Z</time>
      </trkpt>
      <trkpt lat="45.940836444497108" lon="6.844465238973498">
        <ele>2357.29</ele>
        <time>2014-07-16T08:43:42Z</time>
      </trkpt>
      <trkpt lat="45.940861841663718" lon="6.844414277002215">
        <ele>2359.21</ele>
        <time>2014-07-16T08:43:54Z</time>
      </trkpt>
      <trkpt lat="45.940893525257707" lon="6.844330709427595">
        <ele>2360.6500000000001</ele>
        <time>2014-07-16T08:44:05Z</time>
      </trkpt>
      <trkpt lat="45.940961334854364" lon="6.84420925565064">
        <ele>2363.54</ele>
        <time>2014-07-16T08:44:23Z</time>
      </trkpt>
      <trkpt lat="45.94099679030478" lon="6.844173381105065">
        <ele>2364.98</ele>
        <time>2014-07-16T08:44:31Z</time>
      </trkpt>
      <trkpt lat="45.941011626273394" lon="6.84413893148303">
        <ele>2364.98</ele>
        <time>2014-07-16T08:44:34Z</time>
      </trkpt>
      <trkpt lat="45.941109107807279" lon="6.844041282311082">
        <ele>2367.3800000000001</ele>
        <time>2014-07-16T08:44:51Z</time>
      </trkpt>
      <trkpt lat="45.941165685653687" lon="6.843971880152822">
        <ele>2368.8299999999999</ele>
        <time>2014-07-16T08:45:06Z</time>
      </trkpt>
      <trkpt lat="45.941222095862031" lon="6.843905244022608">
        <ele>2370.75</ele>
        <time>2014-07-16T08:45:21Z</time>
      </trkpt>
      <trkpt lat="45.941256126388907" lon="6.843856209889054">
        <ele>2372.1900000000001</ele>
        <time>2014-07-16T08:45:32Z</time>
      </trkpt>
      <trkpt lat="45.941296527162194" lon="6.843749759718776">
        <ele>2371.71</ele>
        <time>2014-07-16T08:45:44Z</time>
      </trkpt>
      <trkpt lat="45.941298035904765" lon="6.843741042539477">
        <ele>2371.71</ele>
        <time>2014-07-16T08:45:45Z</time>
      </trkpt>
      <trkpt lat="45.941302310675383" lon="6.84366493485868">
        <ele>2372.1900000000001</ele>
        <time>2014-07-16T08:45:59Z</time>
      </trkpt>
      <trkpt lat="45.941318487748504" lon="6.843610871583223">
        <ele>2372.1900000000001</ele>
        <time>2014-07-16T08:46:13Z</time>
      </trkpt>
      <trkpt lat="45.941346315667033" lon="6.843548929318786">
        <ele>2371.71</ele>
        <time>2014-07-16T08:46:27Z</time>
      </trkpt>
      <trkpt lat="45.941341454163194" lon="6.843558987602592">
        <ele>2372.1900000000001</ele>
        <time>2014-07-16T08:46:48Z</time>
      </trkpt>
      <trkpt lat="45.941350758075714" lon="6.84356234036386">
        <ele>2371.71</ele>
        <time>2014-07-16T08:47:06Z</time>
      </trkpt>
      <trkpt lat="45.941350925713778" lon="6.843547839671373">
        <ele>2371.71</ele>
        <time>2014-07-16T08:47:29Z</time>
      </trkpt>
      <trkpt lat="45.941374311223626" lon="6.843561166897416">
        <ele>2372.1900000000001</ele>
        <time>2014-07-16T08:47:40Z</time>
      </trkpt>
      <trkpt lat="45.941357798874378" lon="6.843550186604261">
        <ele>2372.1900000000001</ele>
        <time>2014-07-16T08:48:06Z</time>
      </trkpt>
      <trkpt lat="45.941343884915113" lon="6.843565441668034">
        <ele>2371.71</ele>
        <time>2014-07-16T08:48:30Z</time>
      </trkpt>
      <trkpt lat="45.941350506618619" lon="6.843571895733476">
        <ele>2372.1900000000001</ele>
        <time>2014-07-16T08:48:34Z</time>
      </trkpt>
      <trkpt lat="45.941358134150505" lon="6.843544906005263">
        <ele>2371.23</ele>
        <time>2014-07-16T08:48:47Z</time>
      </trkpt>
      <trkpt lat="45.941376071423292" lon="6.843553120270371">
        <ele>2372.1900000000001</ele>
        <time>2014-07-16T08:49:11Z</time>
      </trkpt>
      <trkpt lat="45.941373221576214" lon="6.843534680083394">
        <ele>2372.1900000000001</ele>
        <time>2014-07-16T08:49:31Z</time>
      </trkpt>
      <trkpt lat="45.941377244889736" lon="6.843530656769872">
        <ele>2372.1900000000001</ele>
        <time>2014-07-16T08:49:55Z</time>
      </trkpt>
      <trkpt lat="45.941363917663693" lon="6.843532836064696">
        <ele>2372.6700000000001</ele>
        <time>2014-07-16T08:50:15Z</time>
      </trkpt>
      <trkpt lat="45.941345728933811" lon="6.843575080856681">
        <ele>2373.1500000000001</ele>
        <time>2014-07-16T08:50:39Z</time>
      </trkpt>
      <trkpt lat="45.941351344808936" lon="6.843566615134478">
        <ele>2372.6700000000001</ele>
        <time>2014-07-16T08:50:58Z</time>
      </trkpt>
      <trkpt lat="45.941360229626298" lon="6.843534596264362">
        <ele>2372.6700000000001</ele>
        <time>2014-07-16T08:51:16Z</time>
      </trkpt>
      <trkpt lat="45.941332569345832" lon="6.843529148027301">
        <ele>2372.6700000000001</ele>
        <time>2014-07-16T08:51:28Z</time>
      </trkpt>
      <trkpt lat="45.941345980390906" lon="6.843489753082395">
        <ele>2372.6700000000001</ele>
        <time>2014-07-16T08:51:51Z</time>
      </trkpt>
      <trkpt lat="45.941344387829304" lon="6.843477683141828">
        <ele>2372.1900000000001</ele>
        <time>2014-07-16T08:52:09Z</time>
      </trkpt>
      <trkpt lat="45.941342040896416" lon="6.843447424471378">
        <ele>2372.6700000000001</ele>
        <time>2014-07-16T08:52:22Z</time>
      </trkpt>
      <trkpt lat="45.941263753920794" lon="6.843384392559528">
        <ele>2374.1100000000001</ele>
        <time>2014-07-16T08:52:39Z</time>
      </trkpt>
      <trkpt lat="45.941284624859691" lon="6.843319768086076">
        <ele>2376.04</ele>
        <time>2014-07-16T08:52:53Z</time>
      </trkpt>
      <trkpt lat="45.941328378394246" lon="6.843241229653359">
        <ele>2378.4400000000001</ele>
        <time>2014-07-16T08:53:09Z</time>
      </trkpt>
      <trkpt lat="45.941371712833643" lon="6.843161266297102">
        <ele>2379.4000000000001</ele>
        <time>2014-07-16T08:53:24Z</time>
      </trkpt>
      <trkpt lat="45.94136911444366" lon="6.843201331794262">
        <ele>2379.8800000000001</ele>
        <time>2014-07-16T08:53:37Z</time>
      </trkpt>
      <trkpt lat="45.941315805539489" lon="6.843232093378902">
        <ele>2380.8400000000001</ele>
        <time>2014-07-16T08:53:53Z</time>
      </trkpt>
      <trkpt lat="45.941326785832644" lon="6.843110304325819">
        <ele>2383.73</ele>
        <time>2014-07-16T08:54:07Z</time>
      </trkpt>
      <trkpt lat="45.941359056159854" lon="6.843000585213304">
        <ele>2386.1300000000001</ele>
        <time>2014-07-16T08:54:22Z</time>
      </trkpt>
      <trkpt lat="45.941363666206598" lon="6.842854069545865">
        <ele>2387.0900000000001</ele>
        <time>2014-07-16T08:54:37Z</time>
      </trkpt>
      <trkpt lat="45.941340951249003" lon="6.842781314626336">
        <ele>2388.5300000000002</ele>
        <time>2014-07-16T08:54:52Z</time>
      </trkpt>
      <trkpt lat="45.94134422019124" lon="6.842763293534517">
        <ele>2389.0100000000002</ele>
        <time>2014-07-16T08:55:12Z</time>
      </trkpt>
      <trkpt lat="45.941271716728806" lon="6.842838479205966">
        <ele>2390.46</ele>
        <time>2014-07-16T08:55:28Z</time>
      </trkpt>
      <trkpt lat="45.941258724778891" lon="6.842738734558225">
        <ele>2390.9400000000001</ele>
        <time>2014-07-16T08:55:37Z</time>
      </trkpt>
      <trkpt lat="45.941244559362531" lon="6.84258216060698">
        <ele>2390.46</ele>
        <time>2014-07-16T08:55:51Z</time>
      </trkpt>
      <trkpt lat="45.941242128610611" lon="6.842470094561577">
        <ele>2389.4899999999998</ele>
        <time>2014-07-16T08:56:04Z</time>
      </trkpt>
      <trkpt lat="45.941247409209609" lon="6.842425586655736">
        <ele>2388.5300000000002</ele>
        <time>2014-07-16T08:56:17Z</time>
      </trkpt>
      <trkpt lat="45.941221928223968" lon="6.842387784272432">
        <ele>2388.5300000000002</ele>
        <time>2014-07-16T08:56:38Z</time>
      </trkpt>
      <trkpt lat="45.941195944324136" lon="6.842347048223019">
        <ele>2388.5300000000002</ele>
        <time>2014-07-16T08:56:50Z</time>
      </trkpt>
      <trkpt lat="45.941178174689412" lon="6.842284603044391">
        <ele>2387.5700000000002</ele>
        <time>2014-07-16T08:57:03Z</time>
      </trkpt>
      <trkpt lat="45.941134253516793" lon="6.842220816761255">
        <ele>2387.0900000000001</ele>
        <time>2014-07-16T08:57:14Z</time>
      </trkpt>
      <trkpt lat="45.941106341779232" lon="6.842109337449074">
        <ele>2387.5700000000002</ele>
        <time>2014-07-16T08:57:29Z</time>
      </trkpt>
      <trkpt lat="45.941062588244677" lon="6.842014873400331">
        <ele>2388.5300000000002</ele>
        <time>2014-07-16T08:57:40Z</time>
      </trkpt>
      <trkpt lat="45.941053619608283" lon="6.841957960277796">
        <ele>2388.5300000000002</ele>
        <time>2014-07-16T08:57:51Z</time>
      </trkpt>
      <trkpt lat="45.941028473898768" lon="6.841871626675129">
        <ele>2389.4899999999998</ele>
        <time>2014-07-16T08:58:03Z</time>
      </trkpt>
      <trkpt lat="45.94101145863533" lon="6.841820329427719">
        <ele>2389.4899999999998</ele>
        <time>2014-07-16T08:58:16Z</time>
      </trkpt>
      <trkpt lat="45.940978014841676" lon="6.841766769066453">
        <ele>2391.9000000000001</ele>
        <time>2014-07-16T08:58:30Z</time>
      </trkpt>
      <trkpt lat="45.940948761999607" lon="6.841688314452767">
        <ele>2392.3800000000001</ele>
        <time>2014-07-16T08:58:43Z</time>
      </trkpt>
      <trkpt lat="45.940926382318139" lon="6.841594437137246">
        <ele>2392.8600000000001</ele>
        <time>2014-07-16T08:58:54Z</time>
      </trkpt>
      <trkpt lat="45.940894950181246" lon="6.841453034430742">
        <ele>2393.3400000000001</ele>
        <time>2014-07-16T08:59:07Z</time>
      </trkpt>
      <trkpt lat="45.940853878855705" lon="6.841301489621401">
        <ele>2393.3400000000001</ele>
        <time>2014-07-16T08:59:22Z</time>
      </trkpt>
      <trkpt lat="45.940815238282084" lon="6.841217167675495">
        <ele>2391.9000000000001</ele>
        <time>2014-07-16T08:59:35Z</time>
      </trkpt>
      <trkpt lat="45.940824458375573" lon="6.841151202097535">
        <ele>2389.9699999999998</ele>
        <time>2014-07-16T08:59:44Z</time>
      </trkpt>
      <trkpt lat="45.940808532759547" lon="6.841007033362985">
        <ele>2389.4899999999998</ele>
        <time>2014-07-16T08:59:57Z</time>
      </trkpt>
      <trkpt lat="45.940730078145862" lon="6.840946264564991">
        <ele>2387.5700000000002</ele>
        <time>2014-07-16T09:00:09Z</time>
      </trkpt>
      <trkpt lat="45.940717589110136" lon="6.840929165482521">
        <ele>2387.5700000000002</ele>
        <time>2014-07-16T09:00:11Z</time>
      </trkpt>
      <trkpt lat="45.940667213872075" lon="6.840814584866166">
        <ele>2387.5700000000002</ele>
        <time>2014-07-16T09:00:22Z</time>
      </trkpt>
      <trkpt lat="45.9406434930861" lon="6.840717103332281">
        <ele>2387.0900000000001</ele>
        <time>2014-07-16T09:00:36Z</time>
      </trkpt>
      <trkpt lat="45.94062052667141" lon="6.840641666203737">
        <ele>2385.1700000000001</ele>
        <time>2014-07-16T09:00:48Z</time>
      </trkpt>
      <trkpt lat="45.940610468387604" lon="6.840640241280198">
        <ele>2385.1700000000001</ele>
        <time>2014-07-16T09:00:54Z</time>
      </trkpt>
      <trkpt lat="45.940594123676419" lon="6.840601181611419">
        <ele>2384.21</ele>
        <time>2014-07-16T09:01:03Z</time>
      </trkpt>
      <trkpt lat="45.940588843077421" lon="6.84053722769022">
        <ele>2384.21</ele>
        <time>2014-07-16T09:01:10Z</time>
      </trkpt>
      <trkpt lat="45.940561937168241" lon="6.84046296402812">
        <ele>2384.21</ele>
        <time>2014-07-16T09:01:20Z</time>
      </trkpt>
      <trkpt lat="45.940566966310143" lon="6.840334720909596">
        <ele>2387.5700000000002</ele>
        <time>2014-07-16T09:02:07Z</time>
      </trkpt>
      <trkpt lat="45.940516088157892" lon="6.840326422825456">
        <ele>2352</ele>
        <time>2014-07-16T09:02:17Z</time>
      </trkpt>
      <trkpt lat="45.940490020439029" lon="6.840401357039809">
        <ele>2355.3699999999999</ele>
        <time>2014-07-16T09:02:22Z</time>
      </trkpt>
      <trkpt lat="45.940476357936859" lon="6.840357268229127">
        <ele>2358.25</ele>
        <time>2014-07-16T09:02:27Z</time>
      </trkpt>
      <trkpt lat="45.940423049032688" lon="6.840335642918944">
        <ele>2361.1399999999999</ele>
        <time>2014-07-16T09:02:40Z</time>
      </trkpt>
      <trkpt lat="45.940405279397964" lon="6.840250566601753">
        <ele>2364.5</ele>
        <time>2014-07-16T09:02:50Z</time>
      </trkpt>
      <trkpt lat="45.940376948565245" lon="6.840245621278882">
        <ele>2364.98</ele>
        <time>2014-07-16T09:02:55Z</time>
      </trkpt>
      <trkpt lat="45.940364124253392" lon="6.840162975713611">
        <ele>2365.46</ele>
        <time>2014-07-16T09:03:02Z</time>
      </trkpt>
      <trkpt lat="45.940333195030689" lon="6.839992068707943">
        <ele>2366.4200000000001</ele>
        <time>2014-07-16T09:03:15Z</time>
      </trkpt>
      <trkpt lat="45.940300840884447" lon="6.839887294918299">
        <ele>2366.4200000000001</ele>
        <time>2014-07-16T09:03:27Z</time>
      </trkpt>
      <trkpt lat="45.940263457596302" lon="6.839791908860207">
        <ele>2365.9400000000001</ele>
        <time>2014-07-16T09:03:40Z</time>
      </trkpt>
      <trkpt lat="45.940247112885118" lon="6.839787550270557">
        <ele>2365.9400000000001</ele>
        <time>2014-07-16T09:03:57Z</time>
      </trkpt>
      <trkpt lat="45.940194139257073" lon="6.839629551395774">
        <ele>2362.0999999999999</ele>
        <time>2014-07-16T09:04:12Z</time>
      </trkpt>
      <trkpt lat="45.940145272761583" lon="6.839554449543357">
        <ele>2359.6900000000001</ele>
        <time>2014-07-16T09:04:22Z</time>
      </trkpt>
      <trkpt lat="45.94012507237494" lon="6.839514384046197">
        <ele>2359.21</ele>
        <time>2014-07-16T09:04:25Z</time>
      </trkpt>
      <trkpt lat="45.940046701580286" lon="6.839386392384768">
        <ele>2358.73</ele>
        <time>2014-07-16T09:04:36Z</time>
      </trkpt>
      <trkpt lat="45.940041253343225" lon="6.83937675319612">
        <ele>2358.73</ele>
        <time>2014-07-16T09:04:47Z</time>
      </trkpt>
      <trkpt lat="45.940022226423025" lon="6.839326545596123">
        <ele>2359.21</ele>
        <time>2014-07-16T09:04:51Z</time>
      </trkpt>
      <trkpt lat="45.939944442361593" lon="6.839156895875931">
        <ele>2360.6500000000001</ele>
        <time>2014-07-16T09:05:05Z</time>
      </trkpt>
      <trkpt lat="45.939956428483129" lon="6.839032927528024">
        <ele>2362.0999999999999</ele>
        <time>2014-07-16T09:05:14Z</time>
      </trkpt>
      <trkpt lat="45.939930947497487" lon="6.838830336928368">
        <ele>2361.6199999999999</ele>
        <time>2014-07-16T09:05:26Z</time>
      </trkpt>
      <trkpt lat="45.939923487603664" lon="6.838684156537056">
        <ele>2360.6500000000001</ele>
        <time>2014-07-16T09:05:36Z</time>
      </trkpt>
      <trkpt lat="45.939880320802331" lon="6.838623052462935">
        <ele>2360.6500000000001</ele>
        <time>2014-07-16T09:05:44Z</time>
      </trkpt>
      <trkpt lat="45.939811002463102" lon="6.838563708588481">
        <ele>2360.1700000000001</ele>
        <time>2014-07-16T09:05:52Z</time>
      </trkpt>
      <trkpt lat="45.939732464030385" lon="6.838471926748753">
        <ele>2361.1399999999999</ele>
        <time>2014-07-16T09:06:06Z</time>
      </trkpt>
      <trkpt lat="45.939676305279136" lon="6.838398417457938">
        <ele>2359.21</ele>
        <time>2014-07-16T09:06:20Z</time>
      </trkpt>
      <trkpt lat="45.939659876748919" lon="6.838408559560776">
        <ele>2359.21</ele>
        <time>2014-07-16T09:06:23Z</time>
      </trkpt>
      <trkpt lat="45.939594749361277" lon="6.83834427036345">
        <ele>2362.0999999999999</ele>
        <time>2014-07-16T09:06:35Z</time>
      </trkpt>
      <trkpt lat="45.939509170129895" lon="6.838302528485656">
        <ele>2362.5799999999999</ele>
        <time>2014-07-16T09:06:51Z</time>
      </trkpt>
      <trkpt lat="45.939414203166962" lon="6.838314095512033">
        <ele>2363.0599999999999</ele>
        <time>2014-07-16T09:07:02Z</time>
      </trkpt>
      <trkpt lat="45.93936474993825" lon="6.838192138820887">
        <ele>2362.0999999999999</ele>
        <time>2014-07-16T09:07:15Z</time>
      </trkpt>
      <trkpt lat="45.939334155991673" lon="6.838112929835916">
        <ele>2362.0999999999999</ele>
        <time>2014-07-16T09:07:28Z</time>
      </trkpt>
      <trkpt lat="45.939319403842092" lon="6.838176883757114">
        <ele>2364.98</ele>
        <time>2014-07-16T09:07:43Z</time>
      </trkpt>
      <trkpt lat="45.939253773540258" lon="6.838091891258955">
        <ele>2366.4200000000001</ele>
        <time>2014-07-16T09:07:57Z</time>
      </trkpt>
      <trkpt lat="45.939218904823065" lon="6.838041013106704">
        <ele>2366.9000000000001</ele>
        <time>2014-07-16T09:08:12Z</time>
      </trkpt>
      <trkpt lat="45.939148413017392" lon="6.8379807472229">
        <ele>2367.3800000000001</ele>
        <time>2014-07-16T09:08:24Z</time>
      </trkpt>
      <trkpt lat="45.939123937860131" lon="6.837944872677326">
        <ele>2367.8600000000001</ele>
        <time>2014-07-16T09:08:39Z</time>
      </trkpt>
      <trkpt lat="45.939127039164305" lon="6.837944034487009">
        <ele>2367.3800000000001</ele>
        <time>2014-07-16T09:08:59Z</time>
      </trkpt>
      <trkpt lat="45.939121171832085" lon="6.837931461632252">
        <ele>2367.8600000000001</ele>
        <time>2014-07-16T09:09:16Z</time>
      </trkpt>
      <trkpt lat="45.939135756343603" lon="6.837938083335757">
        <ele>2367.3800000000001</ele>
        <time>2014-07-16T09:09:53Z</time>
      </trkpt>
      <trkpt lat="45.939110526815057" lon="6.837927186861634">
        <ele>2368.3499999999999</ele>
        <time>2014-07-16T09:10:13Z</time>
      </trkpt>
      <trkpt lat="45.939102312549949" lon="6.837933640927076">
        <ele>2368.3499999999999</ele>
        <time>2014-07-16T09:10:36Z</time>
      </trkpt>
      <trkpt lat="45.939109772443771" lon="6.837933892384172">
        <ele>2368.3499999999999</ele>
        <time>2014-07-16T09:10:56Z</time>
      </trkpt>
      <trkpt lat="45.939111616462469" lon="6.837924588471651">
        <ele>2368.3499999999999</ele>
        <time>2014-07-16T09:11:20Z</time>
      </trkpt>
      <trkpt lat="45.93911656178534" lon="6.837929533794522">
        <ele>2368.3499999999999</ele>
        <time>2014-07-16T09:11:49Z</time>
      </trkpt>
      <trkpt lat="45.939102480188012" lon="6.837930539622903">
        <ele>2368.8299999999999</ele>
        <time>2014-07-16T09:12:09Z</time>
      </trkpt>
      <trkpt lat="45.939079346135259" lon="6.83785904198885">
        <ele>2368.3499999999999</ele>
        <time>2014-07-16T09:12:25Z</time>
      </trkpt>
      <trkpt lat="45.939031820744276" lon="6.837787125259638">
        <ele>2369.3099999999999</ele>
        <time>2014-07-16T09:12:39Z</time>
      </trkpt>
      <trkpt lat="45.93899292871356" lon="6.837795590981841">
        <ele>2370.75</ele>
        <time>2014-07-16T09:12:56Z</time>
      </trkpt>
      <trkpt lat="45.938964933156967" lon="6.837767595425248">
        <ele>2372.1900000000001</ele>
        <time>2014-07-16T09:13:11Z</time>
      </trkpt>
      <trkpt lat="45.938936602324247" lon="6.837751921266317">
        <ele>2374.1100000000001</ele>
        <time>2014-07-16T09:13:27Z</time>
      </trkpt>
      <trkpt lat="45.938900643959641" lon="6.837723925709724">
        <ele>2376.52</ele>
        <time>2014-07-16T09:13:40Z</time>
      </trkpt>
      <trkpt lat="45.93884389847517" lon="6.837685704231262">
        <ele>2378.4400000000001</ele>
        <time>2014-07-16T09:13:55Z</time>
      </trkpt>
      <trkpt lat="45.938777178525925" lon="6.837606243789196">
        <ele>2379.4000000000001</ele>
        <time>2014-07-16T09:14:08Z</time>
      </trkpt>
      <trkpt lat="45.93871682882309" lon="6.837573051452637">
        <ele>2381.3200000000002</ele>
        <time>2014-07-16T09:14:24Z</time>
      </trkpt>
      <trkpt lat="45.938678607344627" lon="6.837557125836611">
        <ele>2381.8000000000002</ele>
        <time>2014-07-16T09:14:39Z</time>
      </trkpt>
      <trkpt lat="45.938643990084529" lon="6.837522843852639">
        <ele>2384.21</ele>
        <time>2014-07-16T09:14:52Z</time>
      </trkpt>
      <trkpt lat="45.938615156337619" lon="6.837540362030268">
        <ele>2385.6500000000001</ele>
        <time>2014-07-16T09:15:10Z</time>
      </trkpt>
      <trkpt lat="45.938538378104568" lon="6.837524268776178">
        <ele>2387.5700000000002</ele>
        <time>2014-07-16T09:15:24Z</time>
      </trkpt>
      <trkpt lat="45.93843930400908" lon="6.837506415322423">
        <ele>2390.46</ele>
        <time>2014-07-16T09:15:40Z</time>
      </trkpt>
      <trkpt lat="45.938351294025779" lon="6.837492501363158">
        <ele>2391.9000000000001</ele>
        <time>2014-07-16T09:15:55Z</time>
      </trkpt>
      <trkpt lat="45.938288932666183" lon="6.837448077276349">
        <ele>2390.9400000000001</ele>
        <time>2014-07-16T09:16:06Z</time>
      </trkpt>
      <trkpt lat="45.938216177746654" lon="6.837418740615249">
        <ele>2390.46</ele>
        <time>2014-07-16T09:16:17Z</time>
      </trkpt>
      <trkpt lat="45.938182063400745" lon="6.837352020666003">
        <ele>2388.5300000000002</ele>
        <time>2014-07-16T09:16:26Z</time>
      </trkpt>
      <trkpt lat="45.938090365380049" lon="6.837322181090713">
        <ele>2388.0500000000002</ele>
        <time>2014-07-16T09:16:40Z</time>
      </trkpt>
      <trkpt lat="45.938084665685892" lon="6.837327880784869">
        <ele>2389.0100000000002</ele>
        <time>2014-07-16T09:16:42Z</time>
      </trkpt>
      <trkpt lat="45.937975784763694" lon="6.837327545508742">
        <ele>2390.9400000000001</ele>
        <time>2014-07-16T09:16:57Z</time>
      </trkpt>
      <trkpt lat="45.937946448102593" lon="6.83732989244163">
        <ele>2391.4200000000001</ele>
        <time>2014-07-16T09:17:00Z</time>
      </trkpt>
      <trkpt lat="45.93785441480577" lon="6.837304495275021">
        <ele>2391.4200000000001</ele>
        <time>2014-07-16T09:17:15Z</time>
      </trkpt>
      <trkpt lat="45.937863299623132" lon="6.837287312373519">
        <ele>2391.4200000000001</ele>
        <time>2014-07-16T09:17:38Z</time>
      </trkpt>
      <trkpt lat="45.937816109508276" lon="6.837311116978526">
        <ele>2391.9000000000001</ele>
        <time>2014-07-16T09:18:09Z</time>
      </trkpt>
      <trkpt lat="45.937664480879903" lon="6.837330143898726">
        <ele>2391.9000000000001</ele>
        <time>2014-07-16T09:18:25Z</time>
      </trkpt>
      <trkpt lat="45.937552414834499" lon="6.837271386757493">
        <ele>2390.9400000000001</ele>
        <time>2014-07-16T09:18:41Z</time>
      </trkpt>
      <trkpt lat="45.937515534460545" lon="6.837244061753154">
        <ele>2391.4200000000001</ele>
        <time>2014-07-16T09:18:57Z</time>
      </trkpt>
      <trkpt lat="45.93751871958375" lon="6.837229141965509">
        <ele>2390.9400000000001</ele>
        <time>2014-07-16T09:19:06Z</time>
      </trkpt>
      <trkpt lat="45.937508326023817" lon="6.837225956842303">
        <ele>2390.9400000000001</ele>
        <time>2014-07-16T09:19:14Z</time>
      </trkpt>
      <trkpt lat="45.937493070960045" lon="6.837239367887378">
        <ele>2391.9000000000001</ele>
        <time>2014-07-16T09:19:24Z</time>
      </trkpt>
      <trkpt lat="45.937475888058543" lon="6.837206175550818">
        <ele>2391.9000000000001</ele>
        <time>2014-07-16T09:19:43Z</time>
      </trkpt>
      <trkpt lat="45.937494328245521" lon="6.837257724255323">
        <ele>2391.9000000000001</ele>
        <time>2014-07-16T09:20:02Z</time>
      </trkpt>
      <trkpt lat="45.937485946342349" lon="6.837263759225607">
        <ele>2391.9000000000001</ele>
        <time>2014-07-16T09:20:22Z</time>
      </trkpt>
      <trkpt lat="45.937476977705956" lon="6.837247330695391">
        <ele>2391.9000000000001</ele>
        <time>2014-07-16T09:20:38Z</time>
      </trkpt>
      <trkpt lat="45.937488125637174" lon="6.837243810296059">
        <ele>2391.9000000000001</ele>
        <time>2014-07-16T09:20:58Z</time>
      </trkpt>
      <trkpt lat="45.937481755390763" lon="6.837246576324105">
        <ele>2391.9000000000001</ele>
        <time>2014-07-16T09:21:29Z</time>
      </trkpt>
      <trkpt lat="45.937485862523317" lon="6.837240289896727">
        <ele>2391.9000000000001</ele>
        <time>2014-07-16T09:21:50Z</time>
      </trkpt>
      <trkpt lat="45.937484689056873" lon="6.837237272411585">
        <ele>2391.9000000000001</ele>
        <time>2014-07-16T09:22:10Z</time>
      </trkpt>
      <trkpt lat="45.937453173100948" lon="6.837222184985876">
        <ele>2391.9000000000001</ele>
        <time>2014-07-16T09:22:29Z</time>
      </trkpt>
      <trkpt lat="45.937411598861217" lon="6.837215479463339">
        <ele>2391.9000000000001</ele>
        <time>2014-07-16T09:22:42Z</time>
      </trkpt>
      <trkpt lat="45.937429536134005" lon="6.837191758677363">
        <ele>2391.9000000000001</ele>
        <time>2014-07-16T09:23:02Z</time>
      </trkpt>
      <trkpt lat="45.937441689893603" lon="6.83721162378788">
        <ele>2391.9000000000001</ele>
        <time>2014-07-16T09:23:16Z</time>
      </trkpt>
      <trkpt lat="45.937425429001451" lon="6.837201816961169">
        <ele>2391.9000000000001</ele>
        <time>2014-07-16T09:23:28Z</time>
      </trkpt>
      <trkpt lat="45.937397768720984" lon="6.837187232449651">
        <ele>2391.9000000000001</ele>
        <time>2014-07-16T09:23:43Z</time>
      </trkpt>
      <trkpt lat="45.93737069517374" lon="6.837193267419934">
        <ele>2391.9000000000001</ele>
        <time>2014-07-16T09:24:00Z</time>
      </trkpt>
      <trkpt lat="45.93742492608726" lon="6.837182035669684">
        <ele>2391.9000000000001</ele>
        <time>2014-07-16T09:24:17Z</time>
      </trkpt>
      <trkpt lat="45.937437750399113" lon="6.837181616574526">
        <ele>2391.9000000000001</ele>
        <time>2014-07-16T09:24:33Z</time>
      </trkpt>
      <trkpt lat="45.937438420951366" lon="6.83722285553813">
        <ele>2392.3800000000001</ele>
        <time>2014-07-16T09:24:46Z</time>
      </trkpt>
      <trkpt lat="45.937434565275908" lon="6.837215563282371">
        <ele>2391.9000000000001</ele>
        <time>2014-07-16T09:25:05Z</time>
      </trkpt>
      <trkpt lat="45.937426015734673" lon="6.837195195257664">
        <ele>2391.9000000000001</ele>
        <time>2014-07-16T09:25:22Z</time>
      </trkpt>
      <trkpt lat="45.937402294948697" lon="6.837200727313757">
        <ele>2391.9000000000001</ele>
        <time>2014-07-16T09:25:43Z</time>
      </trkpt>
      <trkpt lat="45.937424842268229" lon="6.83719988912344">
        <ele>2392.3800000000001</ele>
        <time>2014-07-16T09:26:07Z</time>
      </trkpt>
      <trkpt lat="45.937394499778748" lon="6.837188741192222">
        <ele>2391.4200000000001</ele>
        <time>2014-07-16T09:26:25Z</time>
      </trkpt>
      <trkpt lat="45.937334569171071" lon="6.837168792262673">
        <ele>2390.46</ele>
        <time>2014-07-16T09:26:40Z</time>
      </trkpt>
      <trkpt lat="45.937329288572073" lon="6.837154710665345">
        <ele>2389.9699999999998</ele>
        <time>2014-07-16T09:26:59Z</time>
      </trkpt>
      <trkpt lat="45.937338676303625" lon="6.837172145023942">
        <ele>2390.46</ele>
        <time>2014-07-16T09:27:19Z</time>
      </trkpt>
      <trkpt lat="45.937339682132006" lon="6.837151609361172">
        <ele>2390.46</ele>
        <time>2014-07-16T09:27:39Z</time>
      </trkpt>
      <trkpt lat="45.937334736809134" lon="6.83715152554214">
        <ele>2390.46</ele>
        <time>2014-07-16T09:27:58Z</time>
      </trkpt>
      <trkpt lat="45.937334401533008" lon="6.837162338197231">
        <ele>2389.4899999999998</ele>
        <time>2014-07-16T09:28:10Z</time>
      </trkpt>
      <trkpt lat="45.937352674081922" lon="6.837146077305079">
        <ele>2389.9699999999998</ele>
        <time>2014-07-16T09:28:32Z</time>
      </trkpt>
      <trkpt lat="45.937320906668901" lon="6.837154291570187">
        <ele>2389.9699999999998</ele>
        <time>2014-07-16T09:28:52Z</time>
      </trkpt>
      <trkpt lat="45.937284110113978" lon="6.837135683745146">
        <ele>2392.3800000000001</ele>
        <time>2014-07-16T09:29:06Z</time>
      </trkpt>
      <trkpt lat="45.937268435955048" lon="6.837105676531792">
        <ele>2392.3800000000001</ele>
        <time>2014-07-16T09:29:22Z</time>
      </trkpt>
      <trkpt lat="45.937244044616818" lon="6.837099641561508">
        <ele>2394.3000000000002</ele>
        <time>2014-07-16T09:29:38Z</time>
      </trkpt>
      <trkpt lat="45.937260473147035" lon="6.837117159739137">
        <ele>2394.7800000000002</ele>
        <time>2014-07-16T09:29:51Z</time>
      </trkpt>
      <trkpt lat="45.937272626906633" lon="6.837158147245646">
        <ele>2396.2199999999998</ele>
        <time>2014-07-16T09:30:04Z</time>
      </trkpt>
      <trkpt lat="45.937259383499622" lon="6.837174575775862">
        <ele>2396.2199999999998</ele>
        <time>2014-07-16T09:30:18Z</time>
      </trkpt>
      <trkpt lat="45.937244296073914" lon="6.837160661816597">
        <ele>2397.1799999999998</ele>
        <time>2014-07-16T09:30:34Z</time>
      </trkpt>
      <trkpt lat="45.937253013253212" lon="6.837189830839634">
        <ele>2397.6700000000001</ele>
        <time>2014-07-16T09:30:51Z</time>
      </trkpt>
      <trkpt lat="45.937216300517321" lon="6.837176755070686">
        <ele>2398.1500000000001</ele>
        <time>2014-07-16T09:31:04Z</time>
      </trkpt>
      <trkpt lat="45.937233399599791" lon="6.837194189429283">
        <ele>2398.6300000000001</ele>
        <time>2014-07-16T09:31:30Z</time>
      </trkpt>
      <trkpt lat="45.937216384336352" lon="6.837212378159165">
        <ele>2399.1100000000001</ele>
        <time>2014-07-16T09:31:51Z</time>
      </trkpt>
      <trkpt lat="45.937208589166403" lon="6.837196704000235">
        <ele>2400.5500000000002</ele>
        <time>2014-07-16T09:32:11Z</time>
      </trkpt>
      <trkpt lat="45.937202973291278" lon="6.837220676243305">
        <ele>2402.4699999999998</ele>
        <time>2014-07-16T09:32:24Z</time>
      </trkpt>
      <trkpt lat="45.937207248061895" lon="6.837223526090384">
        <ele>2404.8800000000001</ele>
        <time>2014-07-16T09:32:40Z</time>
      </trkpt>
      <trkpt lat="45.937172379344702" lon="6.837202571332455">
        <ele>2405.3600000000001</ele>
        <time>2014-07-16T09:32:57Z</time>
      </trkpt>
      <trkpt lat="45.937172211706638" lon="6.837227968499064">
        <ele>2406.8000000000002</ele>
        <time>2014-07-16T09:33:09Z</time>
      </trkpt>
      <trkpt lat="45.937114376574755" lon="6.837199134752154">
        <ele>2408.2399999999998</ele>
        <time>2014-07-16T09:33:23Z</time>
      </trkpt>
      <trkpt lat="45.937087973579764" lon="6.837234925478697">
        <ele>2410.1599999999999</ele>
        <time>2014-07-16T09:33:34Z</time>
      </trkpt>
      <trkpt lat="45.937064755707979" lon="6.837222436442971">
        <ele>2411.1199999999999</ele>
        <time>2014-07-16T09:33:48Z</time>
      </trkpt>
      <trkpt lat="45.936955874785781" lon="6.837201900780201">
        <ele>2412.5700000000002</ele>
        <time>2014-07-16T09:34:03Z</time>
      </trkpt>
      <trkpt lat="45.936873983591795" lon="6.837200056761503">
        <ele>2414.9699999999998</ele>
        <time>2014-07-16T09:34:17Z</time>
      </trkpt>
      <trkpt lat="45.93685763888061" lon="6.837257891893387">
        <ele>2416.8899999999999</ele>
        <time>2014-07-16T09:34:30Z</time>
      </trkpt>
      <trkpt lat="45.936895860359073" lon="6.837307931855321">
        <ele>2418.8099999999999</ele>
        <time>2014-07-16T09:34:43Z</time>
      </trkpt>
      <trkpt lat="45.936885215342045" lon="6.8373694550246">
        <ele>2420.7399999999998</ele>
        <time>2014-07-16T09:34:56Z</time>
      </trkpt>
      <trkpt lat="45.936819920316339" lon="6.837420919910073">
        <ele>2422.6599999999999</ele>
        <time>2014-07-16T09:35:10Z</time>
      </trkpt>
      <trkpt lat="45.936796953901649" lon="6.837449753656983">
        <ele>2424.0999999999999</ele>
        <time>2014-07-16T09:35:22Z</time>
      </trkpt>
      <trkpt lat="45.936740711331367" lon="6.837511947378516">
        <ele>2425.54</ele>
        <time>2014-07-16T09:35:35Z</time>
      </trkpt>
      <trkpt lat="45.93663677573204" lon="6.837559975683689">
        <ele>2426.02</ele>
        <time>2014-07-16T09:35:49Z</time>
      </trkpt>
      <trkpt lat="45.936678098514676" lon="6.837569698691368">
        <ele>2427.9499999999998</ele>
        <time>2014-07-16T09:36:01Z</time>
      </trkpt>
      <trkpt lat="45.936723779886961" lon="6.837566597387195">
        <ele>2429.3899999999999</ele>
        <time>2014-07-16T09:36:13Z</time>
      </trkpt>
      <trkpt lat="45.936746494844556" lon="6.837591826915741">
        <ele>2431.3099999999999</ele>
        <time>2014-07-16T09:36:25Z</time>
      </trkpt>
      <trkpt lat="45.936793014407158" lon="6.837573973461986">
        <ele>2432.27</ele>
        <time>2014-07-16T09:36:38Z</time>
      </trkpt>
      <trkpt lat="45.93680583871901" lon="6.837589899078012">
        <ele>2433.23</ele>
        <time>2014-07-16T09:36:48Z</time>
      </trkpt>
      <trkpt lat="45.936773987486959" lon="6.837654775008559">
        <ele>2434.6799999999998</ele>
        <time>2014-07-16T09:36:54Z</time>
      </trkpt>
      <trkpt lat="45.936734927818179" lon="6.837687799707055">
        <ele>2434.6799999999998</ele>
        <time>2014-07-16T09:37:08Z</time>
      </trkpt>
      <trkpt lat="45.936710620298982" lon="6.837749490514398">
        <ele>2436.5999999999999</ele>
        <time>2014-07-16T09:37:24Z</time>
      </trkpt>
      <trkpt lat="45.936663346365094" lon="6.837775725871325">
        <ele>2438.04</ele>
        <time>2014-07-16T09:37:42Z</time>
      </trkpt>
      <trkpt lat="45.936635015532374" lon="6.837797854095697">
        <ele>2439.48</ele>
        <time>2014-07-16T09:37:52Z</time>
      </trkpt>
      <trkpt lat="45.936642810702324" lon="6.837851582095027">
        <ele>2440.4400000000001</ele>
        <time>2014-07-16T09:38:08Z</time>
      </trkpt>
      <trkpt lat="45.936637949198484" lon="6.837898353114724">
        <ele>2439.48</ele>
        <time>2014-07-16T09:38:21Z</time>
      </trkpt>
      <trkpt lat="45.936626214534044" lon="6.837897934019566">
        <ele>2439.48</ele>
        <time>2014-07-16T09:38:38Z</time>
      </trkpt>
      <trkpt lat="45.936629232019186" lon="6.83787421323359">
        <ele>2439.48</ele>
        <time>2014-07-16T09:38:58Z</time>
      </trkpt>
      <trkpt lat="45.936628393828869" lon="6.837871447205544">
        <ele>2439.48</ele>
        <time>2014-07-16T09:39:14Z</time>
      </trkpt>
      <trkpt lat="45.93661380931735" lon="6.837856695055962">
        <ele>2440.4400000000001</ele>
        <time>2014-07-16T09:39:32Z</time>
      </trkpt>
      <trkpt lat="45.936612049117684" lon="6.837833561003208">
        <ele>2440.4400000000001</ele>
        <time>2014-07-16T09:39:52Z</time>
      </trkpt>
      <trkpt lat="45.936612216755748" lon="6.83783607557416">
        <ele>2439.96</ele>
        <time>2014-07-16T09:39:53Z</time>
      </trkpt>
      <trkpt lat="45.936629064381123" lon="6.8378478102386">
        <ele>2439</ele>
        <time>2014-07-16T09:40:08Z</time>
      </trkpt>
      <trkpt lat="45.936642391607165" lon="6.837849738076329">
        <ele>2439</ele>
        <time>2014-07-16T09:40:16Z</time>
      </trkpt>
      <trkpt lat="45.936626298353076" lon="6.837841859087348">
        <ele>2440.4400000000001</ele>
        <time>2014-07-16T09:40:25Z</time>
      </trkpt>
      <trkpt lat="45.936613390222192" lon="6.837938753888011">
        <ele>2439</ele>
        <time>2014-07-16T09:40:41Z</time>
      </trkpt>
      <trkpt lat="45.936626214534044" lon="6.837988374754787">
        <ele>2438.04</ele>
        <time>2014-07-16T09:40:53Z</time>
      </trkpt>
      <trkpt lat="45.936609283089638" lon="6.837991895154119">
        <ele>2438.04</ele>
        <time>2014-07-16T09:41:21Z</time>
      </trkpt>
      <trkpt lat="45.936609702184796" lon="6.837982004508376">
        <ele>2438.52</ele>
        <time>2014-07-16T09:41:37Z</time>
      </trkpt>
      <trkpt lat="45.936620766296983" lon="6.837949231266975">
        <ele>2438.52</ele>
        <time>2014-07-16T09:41:53Z</time>
      </trkpt>
      <trkpt lat="45.936618503183126" lon="6.837916541844606">
        <ele>2439</ele>
        <time>2014-07-16T09:41:55Z</time>
      </trkpt>
      <trkpt lat="45.936602158471942" lon="6.837871195748448">
        <ele>2439.96</ele>
        <time>2014-07-16T09:42:10Z</time>
      </trkpt>
      <trkpt lat="45.936611797660589" lon="6.837884774431586">
        <ele>2439.48</ele>
        <time>2014-07-16T09:42:20Z</time>
      </trkpt>
      <trkpt lat="45.936613725498319" lon="6.837892485782504">
        <ele>2439.96</ele>
        <time>2014-07-16T09:42:21Z</time>
      </trkpt>
      <trkpt lat="45.936610205098987" lon="6.837949985638261">
        <ele>2439</ele>
        <time>2014-07-16T09:42:34Z</time>
      </trkpt>
      <trkpt lat="45.936589753255248" lon="6.837871028110385">
        <ele>2439.96</ele>
        <time>2014-07-16T09:42:53Z</time>
      </trkpt>
      <trkpt lat="45.93656930141151" lon="6.837796764448285">
        <ele>2440.4400000000001</ele>
        <time>2014-07-16T09:43:05Z</time>
      </trkpt>
      <trkpt lat="45.936581119894981" lon="6.837805230170488">
        <ele>2439.48</ele>
        <time>2014-07-16T09:43:16Z</time>
      </trkpt>
      <trkpt lat="45.936577767133713" lon="6.837800955399871">
        <ele>2439.48</ele>
        <time>2014-07-16T09:43:24Z</time>
      </trkpt>
      <trkpt lat="45.936575923115015" lon="6.837804391980171">
        <ele>2440.4400000000001</ele>
        <time>2014-07-16T09:43:34Z</time>
      </trkpt>
      <trkpt lat="45.936501072719693" lon="6.837769104167819">
        <ele>2440.4400000000001</ele>
        <time>2014-07-16T09:43:45Z</time>
      </trkpt>
      <trkpt lat="45.936459833756089" lon="6.837714286521077">
        <ele>2439.96</ele>
        <time>2014-07-16T09:44:01Z</time>
      </trkpt>
      <trkpt lat="45.936401830986142" lon="6.837648069486022">
        <ele>2440.9200000000001</ele>
        <time>2014-07-16T09:44:20Z</time>
      </trkpt>
      <trkpt lat="45.936344163492322" lon="6.837584367021918">
        <ele>2442.3699999999999</ele>
        <time>2014-07-16T09:44:36Z</time>
      </trkpt>
      <trkpt lat="45.936275348067284" lon="6.837497698143125">
        <ele>2443.8099999999999</ele>
        <time>2014-07-16T09:44:51Z</time>
      </trkpt>
      <trkpt lat="45.936211310327053" lon="6.8374212551862">
        <ele>2445.25</ele>
        <time>2014-07-16T09:45:06Z</time>
      </trkpt>
      <trkpt lat="45.936161102727056" lon="6.837340872734785">
        <ele>2446.6900000000001</ele>
        <time>2014-07-16T09:45:18Z</time>
      </trkpt>
      <trkpt lat="45.936115253716707" lon="6.837305333465338">
        <ele>2447.1700000000001</ele>
        <time>2014-07-16T09:45:24Z</time>
      </trkpt>
      <trkpt lat="45.936012575402856" lon="6.837283875793219">
        <ele>2449.0999999999999</ele>
        <time>2014-07-16T09:45:38Z</time>
      </trkpt>
      <trkpt lat="45.935912160202861" lon="6.837349841371179">
        <ele>2450.54</ele>
        <time>2014-07-16T09:45:56Z</time>
      </trkpt>
      <trkpt lat="45.935832867398858" lon="6.837385129183531">
        <ele>2452.46</ele>
        <time>2014-07-16T09:46:09Z</time>
      </trkpt>
      <trkpt lat="45.935744605958462" lon="6.837397618219256">
        <ele>2454.3800000000001</ele>
        <time>2014-07-16T09:46:23Z</time>
      </trkpt>
      <trkpt lat="45.935646621510386" lon="6.837449250742793">
        <ele>2454.8600000000001</ele>
        <time>2014-07-16T09:46:35Z</time>
      </trkpt>
      <trkpt lat="45.935531286522746" lon="6.837502811104059">
        <ele>2456.79</ele>
        <time>2014-07-16T09:46:51Z</time>
      </trkpt>
      <trkpt lat="45.935443360358477" lon="6.8375473190099">
        <ele>2457.75</ele>
        <time>2014-07-16T09:47:09Z</time>
      </trkpt>
      <trkpt lat="45.935368090867996" lon="6.837602555751801">
        <ele>2460.1500000000001</ele>
        <time>2014-07-16T09:47:24Z</time>
      </trkpt>
      <trkpt lat="45.935294749215245" lon="6.837598867714405">
        <ele>2462.0700000000002</ele>
        <time>2014-07-16T09:47:36Z</time>
      </trkpt>
      <trkpt lat="45.935180671513081" lon="6.837563076987863">
        <ele>2464</ele>
        <time>2014-07-16T09:47:52Z</time>
      </trkpt>
      <trkpt lat="45.935110179707408" lon="6.837577326223254">
        <ele>2465.4400000000001</ele>
        <time>2014-07-16T09:48:04Z</time>
      </trkpt>
      <trkpt lat="45.935028791427612" lon="6.837531141936779">
        <ele>2466.8800000000001</ele>
        <time>2014-07-16T09:48:21Z</time>
      </trkpt>
      <trkpt lat="45.934930723160505" lon="6.83747204951942">
        <ele>2468.8000000000002</ele>
        <time>2014-07-16T09:48:37Z</time>
      </trkpt>
      <trkpt lat="45.93488504178822" lon="6.837428631260991">
        <ele>2470.2399999999998</ele>
        <time>2014-07-16T09:48:52Z</time>
      </trkpt>
      <trkpt lat="45.934867020696402" lon="6.837426871061325">
        <ele>2470.2399999999998</ele>
        <time>2014-07-16T09:49:06Z</time>
      </trkpt>
      <trkpt lat="45.934765264391899" lon="6.837322181090713">
        <ele>2471.6900000000001</ele>
        <time>2014-07-16T09:49:23Z</time>
      </trkpt>
      <trkpt lat="45.934676332399249" lon="6.837255461141467">
        <ele>2473.6100000000001</ele>
        <time>2014-07-16T09:49:39Z</time>
      </trkpt>
      <trkpt lat="45.934624364599586" lon="6.837214473634958">
        <ele>2475.0500000000002</ele>
        <time>2014-07-16T09:49:53Z</time>
      </trkpt>
      <trkpt lat="45.934594944119453" lon="6.837186142802239">
        <ele>2476.4899999999998</ele>
        <time>2014-07-16T09:50:09Z</time>
      </trkpt>
      <trkpt lat="45.934538282454014" lon="6.837170552462339">
        <ele>2477.9400000000001</ele>
        <time>2014-07-16T09:50:23Z</time>
      </trkpt>
      <trkpt lat="45.934505425393581" lon="6.837152279913425">
        <ele>2478.9000000000001</ele>
        <time>2014-07-16T09:50:37Z</time>
      </trkpt>
      <trkpt lat="45.934463264420629" lon="6.837136605754495">
        <ele>2480.8200000000002</ele>
        <time>2014-07-16T09:50:50Z</time>
      </trkpt>
      <trkpt lat="45.934405345469713" lon="6.837135935202241">
        <ele>2481.7800000000002</ele>
        <time>2014-07-16T09:51:02Z</time>
      </trkpt>
      <trkpt lat="45.934372236952186" lon="6.837123362347484">
        <ele>2483.2199999999998</ele>
        <time>2014-07-16T09:51:15Z</time>
      </trkpt>
      <trkpt lat="45.934304008260369" lon="6.837100898846984">
        <ele>2485.1500000000001</ele>
        <time>2014-07-16T09:51:27Z</time>
      </trkpt>
      <trkpt lat="45.934215746819973" lon="6.837091343477368">
        <ele>2488.0300000000002</ele>
        <time>2014-07-16T09:51:41Z</time>
      </trkpt>
      <trkpt lat="45.934206526726484" lon="6.837172983214259">
        <ele>2489.9499999999998</ele>
        <time>2014-07-16T09:51:52Z</time>
      </trkpt>
      <trkpt lat="45.934236366301775" lon="6.837273566052318">
        <ele>2491.8699999999999</ele>
        <time>2014-07-16T09:52:05Z</time>
      </trkpt>
      <trkpt lat="45.934293027967215" lon="6.837379680946469">
        <ele>2493.3200000000002</ele>
        <time>2014-07-16T09:52:20Z</time>
      </trkpt>
      <trkpt lat="45.934316078200936" lon="6.837487304583192">
        <ele>2495.2399999999998</ele>
        <time>2014-07-16T09:52:34Z</time>
      </trkpt>
      <trkpt lat="45.934255979955196" lon="6.837535332888365">
        <ele>2496.6799999999998</ele>
        <time>2014-07-16T09:52:45Z</time>
      </trkpt>
      <trkpt lat="45.934169813990593" lon="6.837442629039288">
        <ele>2499.5700000000002</ele>
        <time>2014-07-16T09:53:00Z</time>
      </trkpt>
      <trkpt lat="45.934088006615639" lon="6.837375992909074">
        <ele>2500.5300000000002</ele>
        <time>2014-07-16T09:53:14Z</time>
      </trkpt>
      <trkpt lat="45.934002427384257" lon="6.837337352335453">
        <ele>2502.9299999999998</ele>
        <time>2014-07-16T09:53:28Z</time>
      </trkpt>
      <trkpt lat="45.933930762112141" lon="6.83730298653245">
        <ele>2504.8499999999999</ele>
        <time>2014-07-16T09:53:44Z</time>
      </trkpt>
      <trkpt lat="45.933844596147537" lon="6.837313296273351">
        <ele>2506.77</ele>
        <time>2014-07-16T09:54:01Z</time>
      </trkpt>
      <trkpt lat="45.933749713003635" lon="6.83736409060657">
        <ele>2508.6999999999998</ele>
        <time>2014-07-16T09:54:20Z</time>
      </trkpt>
      <trkpt lat="45.933642173185945" lon="6.837374651804566">
        <ele>2511.5799999999999</ele>
        <time>2014-07-16T09:54:36Z</time>
      </trkpt>
      <trkpt lat="45.933607304468751" lon="6.837390409782529">
        <ele>2511.0999999999999</ele>
        <time>2014-07-16T09:54:50Z</time>
      </trkpt>
      <trkpt lat="45.933613087981939" lon="6.837396193295717">
        <ele>2511.5799999999999</ele>
        <time>2014-07-16T09:55:10Z</time>
      </trkpt>
      <trkpt lat="45.933606969192624" lon="6.837373059242964">
        <ele>2511.5799999999999</ele>
        <time>2014-07-16T09:55:31Z</time>
      </trkpt>
      <trkpt lat="45.933559695258737" lon="6.837367778643966">
        <ele>2511.5799999999999</ele>
        <time>2014-07-16T09:55:51Z</time>
      </trkpt>
      <trkpt lat="45.933610908687115" lon="6.837354451417923">
        <ele>2511.5799999999999</ele>
        <time>2014-07-16T09:56:06Z</time>
      </trkpt>
      <trkpt lat="45.933617278933525" lon="6.837350009009242">
        <ele>2511.0999999999999</ele>
        <time>2014-07-16T09:56:20Z</time>
      </trkpt>
      <trkpt lat="45.933652147650719" lon="6.837289743125439">
        <ele>2510.1399999999999</ele>
        <time>2014-07-16T09:56:31Z</time>
      </trkpt>
      <trkpt lat="45.933677377179265" lon="6.837416561320424">
        <ele>2511.5799999999999</ele>
        <time>2014-07-16T09:56:48Z</time>
      </trkpt>
      <trkpt lat="45.93373236246407" lon="6.837428798899055">
        <ele>2513.98</ele>
        <time>2014-07-16T09:57:01Z</time>
      </trkpt>
      <trkpt lat="45.933742923662066" lon="6.837413879111409">
        <ele>2514.9499999999998</ele>
        <time>2014-07-16T09:57:03Z</time>
      </trkpt>
      <trkpt lat="45.933822635561228" lon="6.83744321577251">
        <ele>2516.3899999999999</ele>
        <time>2014-07-16T09:57:15Z</time>
      </trkpt>
      <trkpt lat="45.933782737702131" lon="6.837561568245292">
        <ele>2518.3099999999999</ele>
        <time>2014-07-16T09:57:28Z</time>
      </trkpt>
      <trkpt lat="45.933756167069077" lon="6.837652092799544">
        <ele>2520.23</ele>
        <time>2014-07-16T09:57:43Z</time>
      </trkpt>
      <trkpt lat="45.933833196759224" lon="6.837653433904052">
        <ele>2522.6399999999999</ele>
        <time>2014-07-16T09:57:56Z</time>
      </trkpt>
      <trkpt lat="45.933902515098453" lon="6.837688554078341">
        <ele>2524.0799999999999</ele>
        <time>2014-07-16T09:58:09Z</time>
      </trkpt>
      <trkpt lat="45.933928498998284" lon="6.837790729478002">
        <ele>2525.52</ele>
        <time>2014-07-16T09:58:22Z</time>
      </trkpt>
      <trkpt lat="45.933949118480086" lon="6.837859796360135">
        <ele>2526.48</ele>
        <time>2014-07-16T09:58:31Z</time>
      </trkpt>
      <trkpt lat="45.933892037719488" lon="6.83787127956748">
        <ele>2526.96</ele>
        <time>2014-07-16T09:58:43Z</time>
      </trkpt>
      <trkpt lat="45.9338603541255" lon="6.837865579873323">
        <ele>2526.96</ele>
        <time>2014-07-16T09:58:48Z</time>
      </trkpt>
      <trkpt lat="45.933812074363232" lon="6.837862646207213">
        <ele>2527.4400000000001</ele>
        <time>2014-07-16T09:58:54Z</time>
      </trkpt>
      <trkpt lat="45.933728758245707" lon="6.837901286780834">
        <ele>2527.4400000000001</ele>
        <time>2014-07-16T09:59:09Z</time>
      </trkpt>
      <trkpt lat="45.933693386614323" lon="6.837878152728081">
        <ele>2527.9200000000001</ele>
        <time>2014-07-16T09:59:29Z</time>
      </trkpt>
      <trkpt lat="45.933656925335526" lon="6.837906232103705">
        <ele>2526.96</ele>
        <time>2014-07-16T09:59:38Z</time>
      </trkpt>
      <trkpt lat="45.93361409381032" lon="6.837881254032254">
        <ele>2526</ele>
        <time>2014-07-16T09:59:51Z</time>
      </trkpt>
      <trkpt lat="45.933609148487449" lon="6.837866669520736">
        <ele>2526</ele>
        <time>2014-07-16T09:59:55Z</time>
      </trkpt>
      <trkpt lat="45.933603532612324" lon="6.837807493284345">
        <ele>2525.52</ele>
        <time>2014-07-16T09:59:59Z</time>
      </trkpt>
      <trkpt lat="45.933544104918838" lon="6.837782012298703">
        <ele>2525.04</ele>
        <time>2014-07-16T10:00:13Z</time>
      </trkpt>
      <trkpt lat="45.933544272556901" lon="6.837784862145782">
        <ele>2525.52</ele>
        <time>2014-07-16T10:00:31Z</time>
      </trkpt>
      <trkpt lat="45.933585511520505" lon="6.837798776105046">
        <ele>2525.52</ele>
        <time>2014-07-16T10:00:47Z</time>
      </trkpt>
      <trkpt lat="45.933578554540873" lon="6.837808415293694">
        <ele>2525.04</ele>
        <time>2014-07-16T10:01:02Z</time>
      </trkpt>
      <trkpt lat="45.933589031919837" lon="6.837810846045613">
        <ele>2525.04</ele>
        <time>2014-07-16T10:01:19Z</time>
      </trkpt>
      <trkpt lat="45.933568496257067" lon="6.83778285048902">
        <ele>2525.04</ele>
        <time>2014-07-16T10:01:34Z</time>
      </trkpt>
      <trkpt lat="45.933556593954563" lon="6.837771870195866">
        <ele>2525.52</ele>
        <time>2014-07-16T10:01:53Z</time>
      </trkpt>
      <trkpt lat="45.933624738827348" lon="6.837760806083679">
        <ele>2525.52</ele>
        <time>2014-07-16T10:02:05Z</time>
      </trkpt>
      <trkpt lat="45.933693051338196" lon="6.83769534341991">
        <ele>2525.52</ele>
        <time>2014-07-16T10:02:19Z</time>
      </trkpt>
      <trkpt lat="45.933791622519493" lon="6.837688386440277">
        <ele>2524.5599999999999</ele>
        <time>2014-07-16T10:02:29Z</time>
      </trkpt>
      <trkpt lat="45.93379145488143" lon="6.83763817884028">
        <ele>2522.1599999999999</ele>
        <time>2014-07-16T10:02:43Z</time>
      </trkpt>
      <trkpt lat="45.933705791831017" lon="6.837595263496041">
        <ele>2520.23</ele>
        <time>2014-07-16T10:02:57Z</time>
      </trkpt>
      <trkpt lat="45.933738313615322" lon="6.837523514404893">
        <ele>2519.27</ele>
        <time>2014-07-16T10:03:09Z</time>
      </trkpt>
      <trkpt lat="45.933791790157557" lon="6.837430140003562">
        <ele>2516.8699999999999</ele>
        <time>2014-07-16T10:03:23Z</time>
      </trkpt>
      <trkpt lat="45.933729093521833" lon="6.837401892989874">
        <ele>2515.9099999999999</ele>
        <time>2014-07-16T10:03:34Z</time>
      </trkpt>
      <trkpt lat="45.933733116835356" lon="6.837411029264331">
        <ele>2515.9099999999999</ele>
        <time>2014-07-16T10:03:48Z</time>
      </trkpt>
      <trkpt lat="45.933647118508816" lon="6.837438521906734">
        <ele>2513.98</ele>
        <time>2014-07-16T10:04:02Z</time>
      </trkpt>
      <trkpt lat="45.933640412986279" lon="6.837400887161493">
        <ele>2513.5</ele>
        <time>2014-07-16T10:04:06Z</time>
      </trkpt>
      <trkpt lat="45.9335891995579" lon="6.837430559098721">
        <ele>2513.02</ele>
        <time>2014-07-16T10:04:18Z</time>
      </trkpt>
      <trkpt lat="45.933559024706483" lon="6.83756391517818">
        <ele>2513.5</ele>
        <time>2014-07-16T10:04:32Z</time>
      </trkpt>
      <trkpt lat="45.933536561205983" lon="6.837612194940448">
        <ele>2514.4699999999998</ele>
        <time>2014-07-16T10:04:49Z</time>
      </trkpt>
      <trkpt lat="45.933522479608655" lon="6.837644884362817">
        <ele>2514.9499999999998</ele>
        <time>2014-07-16T10:04:52Z</time>
      </trkpt>
      <trkpt lat="45.933468081057072" lon="6.837807996198535">
        <ele>2516.3899999999999</ele>
        <time>2014-07-16T10:05:09Z</time>
      </trkpt>
      <trkpt lat="45.933456346392632" lon="6.837804056704044">
        <ele>2516.3899999999999</ele>
        <time>2014-07-16T10:05:22Z</time>
      </trkpt>
      <trkpt lat="45.933453915640712" lon="6.837815623730421">
        <ele>2516.3899999999999</ele>
        <time>2014-07-16T10:05:33Z</time>
      </trkpt>
      <trkpt lat="45.933379232883453" lon="6.837878488004208">
        <ele>2516.8699999999999</ele>
        <time>2014-07-16T10:05:44Z</time>
      </trkpt>
      <trkpt lat="45.933341262862086" lon="6.837951662018895">
        <ele>2516.8699999999999</ele>
        <time>2014-07-16T10:05:56Z</time>
      </trkpt>
      <trkpt lat="45.933311590924859" lon="6.837941436097026">
        <ele>2516.8699999999999</ele>
        <time>2014-07-16T10:06:13Z</time>
      </trkpt>
      <trkpt lat="45.933299772441387" lon="6.837935820221901">
        <ele>2516.3899999999999</ele>
        <time>2014-07-16T10:06:42Z</time>
      </trkpt>
      <trkpt lat="45.93337906524539" lon="6.837881505489349">
        <ele>2516.8699999999999</ele>
        <time>2014-07-16T10:07:01Z</time>
      </trkpt>
      <trkpt lat="45.933449808508158" lon="6.837832387536764">
        <ele>2516.3899999999999</ele>
        <time>2014-07-16T10:07:10Z</time>
      </trkpt>
      <trkpt lat="45.933547206223011" lon="6.837686877697706">
        <ele>2516.3899999999999</ele>
        <time>2014-07-16T10:07:25Z</time>
      </trkpt>
      <trkpt lat="45.933565562590957" lon="6.837619571015239">
        <ele>2514.9499999999998</ele>
        <time>2014-07-16T10:07:33Z</time>
      </trkpt>
      <trkpt lat="45.933586098253727" lon="6.837562993168831">
        <ele>2514.4699999999998</ele>
        <time>2014-07-16T10:07:37Z</time>
      </trkpt>
      <trkpt lat="45.933639574795961" lon="6.837477497756481">
        <ele>2513.5</ele>
        <time>2014-07-16T10:07:51Z</time>
      </trkpt>
      <trkpt lat="45.933654243126512" lon="6.837480766698718">
        <ele>2513.5</ele>
        <time>2014-07-16T10:08:11Z</time>
      </trkpt>
      <trkpt lat="45.933635970577598" lon="6.837462829425931">
        <ele>2513.98</ele>
        <time>2014-07-16T10:08:41Z</time>
      </trkpt>
      <trkpt lat="45.933623649179935" lon="6.837468110024929">
        <ele>2513.98</ele>
        <time>2014-07-16T10:09:06Z</time>
      </trkpt>
      <trkpt lat="45.933612249791622" lon="6.837454363703728">
        <ele>2513.98</ele>
        <time>2014-07-16T10:09:32Z</time>
      </trkpt>
      <trkpt lat="45.933594144880772" lon="6.837444389238954">
        <ele>2513.98</ele>
        <time>2014-07-16T10:09:54Z</time>
      </trkpt>
      <trkpt lat="45.933605125173926" lon="6.837464086711407">
        <ele>2513.98</ele>
        <time>2014-07-16T10:10:22Z</time>
      </trkpt>
      <trkpt lat="45.933567825704813" lon="6.837452687323093">
        <ele>2514.4699999999998</ele>
        <time>2014-07-16T10:10:44Z</time>
      </trkpt>
      <trkpt lat="45.933575117960572" lon="6.83745888993144">
        <ele>2514.9499999999998</ele>
        <time>2014-07-16T10:11:06Z</time>
      </trkpt>
      <trkpt lat="45.93360336497426" lon="6.837434750050306">
        <ele>2514.9499999999998</ele>
        <time>2014-07-16T10:11:33Z</time>
      </trkpt>
      <trkpt lat="45.933611579239368" lon="6.837431816384196">
        <ele>2515.4299999999998</ele>
        <time>2014-07-16T10:11:58Z</time>
      </trkpt>
      <trkpt lat="45.933626918122172" lon="6.837441371753812">
        <ele>2515.4299999999998</ele>
        <time>2014-07-16T10:12:17Z</time>
      </trkpt>
      <trkpt lat="45.933625241741538" lon="6.837459895759821">
        <ele>2514.9499999999998</ele>
        <time>2014-07-16T10:12:41Z</time>
      </trkpt>
      <trkpt lat="45.933634545654058" lon="6.83744958601892">
        <ele>2514.9499999999998</ele>
        <time>2014-07-16T10:13:07Z</time>
      </trkpt>
      <trkpt lat="45.933625577017665" lon="6.837463835254312">
        <ele>2515.4299999999998</ele>
        <time>2014-07-16T10:13:22Z</time>
      </trkpt>
      <trkpt lat="45.933612585067749" lon="6.837457716464996">
        <ele>2515.4299999999998</ele>
        <time>2014-07-16T10:13:46Z</time>
      </trkpt>
      <trkpt lat="45.933612585067749" lon="6.837456123903394">
        <ele>2515.4299999999998</ele>
        <time>2014-07-16T10:14:11Z</time>
      </trkpt>
      <trkpt lat="45.933576291427016" lon="6.837416477501392">
        <ele>2515.4299999999998</ele>
        <time>2014-07-16T10:14:29Z</time>
      </trkpt>
      <trkpt lat="45.933530945330858" lon="6.837307345122099">
        <ele>2514.9499999999998</ele>
        <time>2014-07-16T10:14:44Z</time>
      </trkpt>
      <trkpt lat="45.933502027764916" lon="6.83727222494781">
        <ele>2514.4699999999998</ele>
        <time>2014-07-16T10:14:56Z</time>
      </trkpt>
      <trkpt lat="45.933508900925517" lon="6.837242133915424">
        <ele>2514.4699999999998</ele>
        <time>2014-07-16T10:15:17Z</time>
      </trkpt>
      <trkpt lat="45.933526670560241" lon="6.837230231612921">
        <ele>2514.4699999999998</ele>
        <time>2014-07-16T10:15:47Z</time>
      </trkpt>
      <trkpt lat="45.933559779077768" lon="6.837269375100732">
        <ele>2514.4699999999998</ele>
        <time>2014-07-16T10:16:02Z</time>
      </trkpt>
      <trkpt lat="45.933562880381942" lon="6.837255628779531">
        <ele>2513.98</ele>
        <time>2014-07-16T10:16:13Z</time>
      </trkpt>
      <trkpt lat="45.933534549549222" lon="6.83723945170641">
        <ele>2514.4699999999998</ele>
        <time>2014-07-16T10:16:49Z</time>
      </trkpt>
      <trkpt lat="45.933563550934196" lon="6.837221346795559">
        <ele>2514.4699999999998</ele>
        <time>2014-07-16T10:17:25Z</time>
      </trkpt>
      <trkpt lat="45.933578386902809" lon="6.837209695950151">
        <ele>2513.98</ele>
        <time>2014-07-16T10:17:57Z</time>
      </trkpt>
      <trkpt lat="45.933564221486449" lon="6.837234171107411">
        <ele>2514.4699999999998</ele>
        <time>2014-07-16T10:18:24Z</time>
      </trkpt>
      <trkpt lat="45.933547457680106" lon="6.837213300168514">
        <ele>2514.4699999999998</ele>
        <time>2014-07-16T10:18:52Z</time>
      </trkpt>
      <trkpt lat="45.933545110747218" lon="6.837223526090384">
        <ele>2514.4699999999998</ele>
        <time>2014-07-16T10:19:23Z</time>
      </trkpt>
      <trkpt lat="45.933546870946884" lon="6.837235344573855">
        <ele>2514.9499999999998</ele>
        <time>2014-07-16T10:19:58Z</time>
      </trkpt>
      <trkpt lat="45.933557515963912" lon="6.837237859144807">
        <ele>2514.9499999999998</ele>
        <time>2014-07-16T10:20:30Z</time>
      </trkpt>
      <trkpt lat="45.933555252850056" lon="6.837216736748815">
        <ele>2514.9499999999998</ele>
        <time>2014-07-16T10:20:59Z</time>
      </trkpt>
      <trkpt lat="45.933575872331858" lon="6.837231069803238">
        <ele>2515.4299999999998</ele>
        <time>2014-07-16T10:21:33Z</time>
      </trkpt>
      <trkpt lat="45.933569250628352" lon="6.837238948792219">
        <ele>2514.9499999999998</ele>
        <time>2014-07-16T10:22:09Z</time>
      </trkpt>
      <trkpt lat="45.933565981686115" lon="6.837224280461669">
        <ele>2514.9499999999998</ele>
        <time>2014-07-16T10:22:36Z</time>
      </trkpt>
      <trkpt lat="45.933569921180606" lon="6.837230399250984">
        <ele>2515.4299999999998</ele>
        <time>2014-07-16T10:23:15Z</time>
      </trkpt>
      <trkpt lat="45.933559695258737" lon="6.837224699556828">
        <ele>2515.4299999999998</ele>
        <time>2014-07-16T10:23:52Z</time>
      </trkpt>
      <trkpt lat="45.933574279770255" lon="6.837231405079365">
        <ele>2515.9099999999999</ele>
        <time>2014-07-16T10:24:24Z</time>
      </trkpt>
      <trkpt lat="45.933567909523845" lon="6.837217072024941">
        <ele>2515.4299999999998</ele>
        <time>2014-07-16T10:24:49Z</time>
      </trkpt>
      <trkpt lat="45.933547206223011" lon="6.837200475856662">
        <ele>2515.4299999999998</ele>
        <time>2014-07-16T10:25:21Z</time>
      </trkpt>
      <trkpt lat="45.933543853461742" lon="6.837199134752154">
        <ele>2515.9099999999999</ele>
        <time>2014-07-16T10:25:50Z</time>
      </trkpt>
      <trkpt lat="45.933537986129522" lon="6.837192429229617">
        <ele>2515.9099999999999</ele>
        <time>2014-07-16T10:26:25Z</time>
      </trkpt>
      <trkpt lat="45.93353689648211" lon="6.8371950276196">
        <ele>2515.9099999999999</ele>
        <time>2014-07-16T10:26:55Z</time>
      </trkpt>
      <trkpt lat="45.933534046635032" lon="6.837192177772522">
        <ele>2516.3899999999999</ele>
        <time>2014-07-16T10:27:35Z</time>
      </trkpt>
      <trkpt lat="45.933535220101476" lon="6.837183209136128">
        <ele>2516.3899999999999</ele>
        <time>2014-07-16T10:27:57Z</time>
      </trkpt>
      <trkpt lat="45.933513762429357" lon="6.837163930758834">
        <ele>2516.8699999999999</ele>
        <time>2014-07-16T10:28:31Z</time>
      </trkpt>
      <trkpt lat="45.933502111583948" lon="6.837191926315427">
        <ele>2516.8699999999999</ele>
        <time>2014-07-16T10:28:53Z</time>
      </trkpt>
      <trkpt lat="45.933507056906819" lon="6.837203409522772">
        <ele>2517.3499999999999</ele>
        <time>2014-07-16T10:29:25Z</time>
      </trkpt>
      <trkpt lat="45.933520635589957" lon="6.837197374552488">
        <ele>2517.8299999999999</ele>
        <time>2014-07-16T10:29:56Z</time>
      </trkpt>
      <trkpt lat="45.933527844026685" lon="6.837178682908416">
        <ele>2518.3099999999999</ele>
        <time>2014-07-16T10:30:23Z</time>
      </trkpt>
      <trkpt lat="45.933528849855065" lon="6.837246492505074">
        <ele>2518.79</ele>
        <time>2014-07-16T10:30:49Z</time>
      </trkpt>
      <trkpt lat="45.933540165424347" lon="6.837277421727777">
        <ele>2518.79</ele>
        <time>2014-07-16T10:31:03Z</time>
      </trkpt>
      <trkpt lat="45.933553827926517" lon="6.837289156392217">
        <ele>2519.27</ele>
        <time>2014-07-16T10:31:20Z</time>
      </trkpt>
      <trkpt lat="45.933606885373592" lon="6.837301813066006">
        <ele>2518.79</ele>
        <time>2014-07-16T10:31:43Z</time>
      </trkpt>
      <trkpt lat="45.933584924787283" lon="6.837289491668344">
        <ele>2519.27</ele>
        <time>2014-07-16T10:32:00Z</time>
      </trkpt>
      <trkpt lat="45.9336082264781" lon="6.837268956005573">
        <ele>2519.27</ele>
        <time>2014-07-16T10:32:18Z</time>
      </trkpt>
      <trkpt lat="45.93361996114254" lon="6.837289743125439">
        <ele>2518.79</ele>
        <time>2014-07-16T10:32:38Z</time>
      </trkpt>
      <trkpt lat="45.933623649179935" lon="6.837315727025271">
        <ele>2519.27</ele>
        <time>2014-07-16T10:33:00Z</time>
      </trkpt>
      <trkpt lat="45.933664133772254" lon="6.837305501103401">
        <ele>2518.79</ele>
        <time>2014-07-16T10:33:10Z</time>
      </trkpt>
      <trkpt lat="45.933710653334856" lon="6.837285803630948">
        <ele>2517.8299999999999</ele>
        <time>2014-07-16T10:33:16Z</time>
      </trkpt>
      <trkpt lat="45.93372942879796" lon="6.837244983762503">
        <ele>2516.8699999999999</ele>
        <time>2014-07-16T10:33:20Z</time>
      </trkpt>
      <trkpt lat="45.933690955862403" lon="6.837177844718099">
        <ele>2515.9099999999999</ele>
        <time>2014-07-16T10:33:32Z</time>
      </trkpt>
      <trkpt lat="45.93362532556057" lon="6.837139120325446">
        <ele>2514.9499999999998</ele>
        <time>2014-07-16T10:33:45Z</time>
      </trkpt>
      <trkpt lat="45.933575453236699" lon="6.837117075920105">
        <ele>2513.98</ele>
        <time>2014-07-16T10:33:51Z</time>
      </trkpt>
      <trkpt lat="45.933493059128523" lon="6.837125457823277">
        <ele>2512.0599999999999</ele>
        <time>2014-07-16T10:34:01Z</time>
      </trkpt>
      <trkpt lat="45.933430111035705" lon="6.837100898846984">
        <ele>2509.6599999999999</ele>
        <time>2014-07-16T10:34:10Z</time>
      </trkpt>
      <trkpt lat="45.93355106189847" lon="6.836987240239978">
        <ele>2508.6999999999998</ele>
        <time>2014-07-16T10:34:25Z</time>
      </trkpt>
      <trkpt lat="45.933665642514825" lon="6.836921609938145">
        <ele>2505.8099999999999</ele>
        <time>2014-07-16T10:34:40Z</time>
      </trkpt>
      <trkpt lat="45.933813415467739" lon="6.836926890537143">
        <ele>2502.9299999999998</ele>
        <time>2014-07-16T10:34:55Z</time>
      </trkpt>
      <trkpt lat="45.933879464864731" lon="6.836915072053671">
        <ele>2501.4899999999998</ele>
        <time>2014-07-16T10:35:08Z</time>
      </trkpt>
      <trkpt lat="45.933848368003964" lon="6.836886741220951">
        <ele>2500.5300000000002</ele>
        <time>2014-07-16T10:35:21Z</time>
      </trkpt>
      <trkpt lat="45.933827832341194" lon="6.83687936514616">
        <ele>2500.0500000000002</ele>
        <time>2014-07-16T10:35:35Z</time>
      </trkpt>
      <trkpt lat="45.933796986937523" lon="6.836862014606595">
        <ele>2499.5700000000002</ele>
        <time>2014-07-16T10:35:53Z</time>
      </trkpt>
      <trkpt lat="45.93377192504704" lon="6.836828822270036">
        <ele>2499.0799999999999</ele>
        <time>2014-07-16T10:36:11Z</time>
      </trkpt>
      <trkpt lat="45.933669833466411" lon="6.836725808680058">
        <ele>2496.1999999999998</ele>
        <time>2014-07-16T10:36:26Z</time>
      </trkpt>
      <trkpt lat="45.933590875938535" lon="6.836689347401261">
        <ele>2494.2800000000002</ele>
        <time>2014-07-16T10:36:38Z</time>
      </trkpt>
      <trkpt lat="45.933471852913499" lon="6.836654394865036">
        <ele>2491.8699999999999</ele>
        <time>2014-07-16T10:36:52Z</time>
      </trkpt>
      <trkpt lat="45.933346292003989" lon="6.8366579990834">
        <ele>2490.4299999999998</ele>
        <time>2014-07-16T10:37:07Z</time>
      </trkpt>
      <trkpt lat="45.933261131867766" lon="6.836655316874385">
        <ele>2488.5100000000002</ele>
        <time>2014-07-16T10:37:20Z</time>
      </trkpt>
      <trkpt lat="45.933210840448737" lon="6.836652969941497">
        <ele>2486.5900000000001</ele>
        <time>2014-07-16T10:37:32Z</time>
      </trkpt>
      <trkpt lat="45.933178318664432" lon="6.836681636050344">
        <ele>2485.6300000000001</ele>
        <time>2014-07-16T10:37:38Z</time>
      </trkpt>
      <trkpt lat="45.933157783001661" lon="6.836710050702095">
        <ele>2484.6599999999999</ele>
        <time>2014-07-16T10:37:42Z</time>
      </trkpt>
      <trkpt lat="45.933116627857089" lon="6.836665794253349">
        <ele>2483.2199999999998</ele>
        <time>2014-07-16T10:37:51Z</time>
      </trkpt>
      <trkpt lat="45.933193489909172" lon="6.836533024907112">
        <ele>2481.3000000000002</ele>
        <time>2014-07-16T10:38:06Z</time>
      </trkpt>
      <trkpt lat="45.933262221515179" lon="6.836416264995933">
        <ele>2478.4200000000001</ele>
        <time>2014-07-16T10:38:19Z</time>
      </trkpt>
      <trkpt lat="45.933194244280457" lon="6.836438644677401">
        <ele>2476.9699999999998</ele>
        <time>2014-07-16T10:38:31Z</time>
      </trkpt>
      <trkpt lat="45.933097936213017" lon="6.836507711559534">
        <ele>2475.0500000000002</ele>
        <time>2014-07-16T10:38:43Z</time>
      </trkpt>
      <trkpt lat="45.933001711964607" lon="6.83654366992414">
        <ele>2472.6500000000001</ele>
        <time>2014-07-16T10:38:56Z</time>
      </trkpt>
      <trkpt lat="45.932912947610021" lon="6.836609384045005">
        <ele>2469.7600000000002</ele>
        <time>2014-07-16T10:39:11Z</time>
      </trkpt>
      <trkpt lat="45.932810520753264" lon="6.83664676733315">
        <ele>2466.8800000000001</ele>
        <time>2014-07-16T10:39:25Z</time>
      </trkpt>
      <trkpt lat="45.932694850489497" lon="6.836666716262698">
        <ele>2464</ele>
        <time>2014-07-16T10:39:40Z</time>
      </trkpt>
      <trkpt lat="45.932752517983317" lon="6.83654366992414">
        <ele>2461.5900000000001</ele>
        <time>2014-07-16T10:39:53Z</time>
      </trkpt>
      <trkpt lat="45.932769533246756" lon="6.836449205875397">
        <ele>2459.6700000000001</ele>
        <time>2014-07-16T10:40:04Z</time>
      </trkpt>
      <trkpt lat="45.932737430557609" lon="6.836451636627317">
        <ele>2456.79</ele>
        <time>2014-07-16T10:40:16Z</time>
      </trkpt>
      <trkpt lat="45.932714212685823" lon="6.836465131491423">
        <ele>2456.79</ele>
        <time>2014-07-16T10:40:19Z</time>
      </trkpt>
      <trkpt lat="45.932603403925896" lon="6.836545094847679">
        <ele>2453.9000000000001</ele>
        <time>2014-07-16T10:40:33Z</time>
      </trkpt>
      <trkpt lat="45.932506173849106" lon="6.836574180051684">
        <ele>2451.02</ele>
        <time>2014-07-16T10:40:46Z</time>
      </trkpt>
      <trkpt lat="45.932432664558291" lon="6.836602678522468">
        <ele>2449.0999999999999</ele>
        <time>2014-07-16T10:40:56Z</time>
      </trkpt>
      <trkpt lat="45.932390335947275" lon="6.836651712656021">
        <ele>2447.6500000000001</ele>
        <time>2014-07-16T10:41:02Z</time>
      </trkpt>
      <trkpt lat="45.93228405341506" lon="6.836724299937487">
        <ele>2445.25</ele>
        <time>2014-07-16T10:41:16Z</time>
      </trkpt>
      <trkpt lat="45.932205514982343" lon="6.836801916360855">
        <ele>2442.8499999999999</ele>
        <time>2014-07-16T10:41:29Z</time>
      </trkpt>
      <trkpt lat="45.932199228554964" lon="6.836810214444995">
        <ele>2442.8499999999999</ele>
        <time>2014-07-16T10:41:31Z</time>
      </trkpt>
      <trkpt lat="45.932139549404383" lon="6.836855560541153">
        <ele>2440.9200000000001</ele>
        <time>2014-07-16T10:41:43Z</time>
      </trkpt>
      <trkpt lat="45.932018766179681" lon="6.836912641301751">
        <ele>2438.52</ele>
        <time>2014-07-16T10:41:56Z</time>
      </trkpt>
      <trkpt lat="45.931923715397716" lon="6.836893446743488">
        <ele>2435.1599999999999</ele>
        <time>2014-07-16T10:42:08Z</time>
      </trkpt>
      <trkpt lat="45.931879123672843" lon="6.836883388459683">
        <ele>2433.71</ele>
        <time>2014-07-16T10:42:14Z</time>
      </trkpt>
      <trkpt lat="45.931955734267831" lon="6.836717007681727">
        <ele>2430.8299999999999</ele>
        <time>2014-07-16T10:42:28Z</time>
      </trkpt>
      <trkpt lat="45.931872585788369" lon="6.83677283115685">
        <ele>2429.3899999999999</ele>
        <time>2014-07-16T10:42:40Z</time>
      </trkpt>
      <trkpt lat="45.931835873052478" lon="6.836750451475382">
        <ele>2428.9099999999999</ele>
        <time>2014-07-16T10:42:45Z</time>
      </trkpt>
      <trkpt lat="45.93189655803144" lon="6.836611730977893">
        <ele>2426.9899999999998</ele>
        <time>2014-07-16T10:43:01Z</time>
      </trkpt>
      <trkpt lat="45.931868143379688" lon="6.836564373224974">
        <ele>2425.0599999999999</ele>
        <time>2014-07-16T10:43:15Z</time>
      </trkpt>
      <trkpt lat="45.931785413995385" lon="6.836641067638993">
        <ele>2423.6199999999999</ele>
        <time>2014-07-16T10:43:25Z</time>
      </trkpt>
      <trkpt lat="45.931778037920594" lon="6.83663260191679">
        <ele>2423.6199999999999</ele>
        <time>2014-07-16T10:43:26Z</time>
      </trkpt>
      <trkpt lat="45.931781809777021" lon="6.836596140637994">
        <ele>2422.6599999999999</ele>
        <time>2014-07-16T10:43:28Z</time>
      </trkpt>
      <trkpt lat="45.931801255792379" lon="6.83651776984334">
        <ele>2422.1799999999998</ele>
        <time>2014-07-16T10:43:33Z</time>
      </trkpt>
      <trkpt lat="45.931846098974347" lon="6.836391538381577">
        <ele>2421.2199999999998</ele>
        <time>2014-07-16T10:43:42Z</time>
      </trkpt>
      <trkpt lat="45.931847523897886" lon="6.836346527561545">
        <ele>2420.2600000000002</ele>
        <time>2014-07-16T10:43:45Z</time>
      </trkpt>
      <trkpt lat="45.931867808103561" lon="6.836287686601281">
        <ele>2419.7800000000002</ele>
        <time>2014-07-16T10:43:49Z</time>
      </trkpt>
      <trkpt lat="45.931906532496214" lon="6.836178805679083">
        <ele>2418.8099999999999</ele>
        <time>2014-07-16T10:43:58Z</time>
      </trkpt>
      <trkpt lat="45.931745516136289" lon="6.836250303313136">
        <ele>2416.4099999999999</ele>
        <time>2014-07-16T10:44:15Z</time>
      </trkpt>
      <trkpt lat="45.931674772873521" lon="6.836277879774571">
        <ele>2414.9699999999998</ele>
        <time>2014-07-16T10:44:23Z</time>
      </trkpt>
      <trkpt lat="45.93163906596601" lon="6.836278885602951">
        <ele>2414.0100000000002</ele>
        <time>2014-07-16T10:44:28Z</time>
      </trkpt>
      <trkpt lat="45.931558767333627" lon="6.836416097357869">
        <ele>2411.1199999999999</ele>
        <time>2014-07-16T10:44:42Z</time>
      </trkpt>
      <trkpt lat="45.931458603590727" lon="6.836498156189919">
        <ele>2408.2399999999998</ele>
        <time>2014-07-16T10:44:56Z</time>
      </trkpt>
      <trkpt lat="45.931452317163348" lon="6.836482984945178">
        <ele>2407.7600000000002</ele>
        <time>2014-07-16T10:44:57Z</time>
      </trkpt>
      <trkpt lat="45.931459190323949" lon="6.836331440135837">
        <ele>2405.8400000000001</ele>
        <time>2014-07-16T10:45:07Z</time>
      </trkpt>
      <trkpt lat="45.931456172838807" lon="6.836301013827324">
        <ele>2405.8400000000001</ele>
        <time>2014-07-16T10:45:09Z</time>
      </trkpt>
      <trkpt lat="45.931514762341976" lon="6.836146870627999">
        <ele>2404.8800000000001</ele>
        <time>2014-07-16T10:45:20Z</time>
      </trkpt>
      <trkpt lat="45.93159900046885" lon="6.836079144850373">
        <ele>2403.4299999999998</ele>
        <time>2014-07-16T10:45:28Z</time>
      </trkpt>
      <trkpt lat="45.931675611063838" lon="6.835986441001296">
        <ele>2401.5100000000002</ele>
        <time>2014-07-16T10:45:38Z</time>
      </trkpt>
      <trkpt lat="45.931687010452151" lon="6.835960624739528">
        <ele>2401.9899999999998</ele>
        <time>2014-07-16T10:45:40Z</time>
      </trkpt>
      <trkpt lat="45.931766973808408" lon="6.835809415206313">
        <ele>2400.5500000000002</ele>
        <time>2014-07-16T10:45:55Z</time>
      </trkpt>
      <trkpt lat="45.931789018213749" lon="6.835760213434696">
        <ele>2399.5900000000001</ele>
        <time>2014-07-16T10:45:59Z</time>
      </trkpt>
      <trkpt lat="45.931913824751973" lon="6.835654601454735">
        <ele>2398.1500000000001</ele>
        <time>2014-07-16T10:46:14Z</time>
      </trkpt>
      <trkpt lat="45.931976102292538" lon="6.835606573149562">
        <ele>2396.6999999999998</ele>
        <time>2014-07-16T10:46:23Z</time>
      </trkpt>
      <trkpt lat="45.93203242868185" lon="6.835528872907162">
        <ele>2395.2600000000002</ele>
        <time>2014-07-16T10:46:32Z</time>
      </trkpt>
      <trkpt lat="45.932120690122247" lon="6.83539685793221">
        <ele>2392.3800000000001</ele>
        <time>2014-07-16T10:46:46Z</time>
      </trkpt>
      <trkpt lat="45.932071236893535" lon="6.835373220965266">
        <ele>2389.9699999999998</ele>
        <time>2014-07-16T10:46:57Z</time>
      </trkpt>
      <trkpt lat="45.932110883295536" lon="6.835262663662434">
        <ele>2388.0500000000002</ele>
        <time>2014-07-16T10:47:08Z</time>
      </trkpt>
      <trkpt lat="45.932181207463145" lon="6.835130648687482">
        <ele>2384.6900000000001</ele>
        <time>2014-07-16T10:47:22Z</time>
      </trkpt>
      <trkpt lat="45.932210879400373" lon="6.835093768313527">
        <ele>2383.73</ele>
        <time>2014-07-16T10:47:26Z</time>
      </trkpt>
      <trkpt lat="45.932178860530257" lon="6.835061078891158">
        <ele>2382.7600000000002</ele>
        <time>2014-07-16T10:47:33Z</time>
      </trkpt>
      <trkpt lat="45.932026226073503" lon="6.835069293156266">
        <ele>2379.4000000000001</ele>
        <time>2014-07-16T10:47:49Z</time>
      </trkpt>
      <trkpt lat="45.931938719004393" lon="6.835092762485147">
        <ele>2377.48</ele>
        <time>2014-07-16T10:47:58Z</time>
      </trkpt>
      <trkpt lat="45.931894462555647" lon="6.835011038929224">
        <ele>2375.5500000000002</ele>
        <time>2014-07-16T10:48:08Z</time>
      </trkpt>
      <trkpt lat="45.931966211646795" lon="6.834923112764955">
        <ele>2373.6300000000001</ele>
        <time>2014-07-16T10:48:20Z</time>
      </trkpt>
      <trkpt lat="45.931981969624758" lon="6.834820937365294">
        <ele>2372.1900000000001</ele>
        <time>2014-07-16T10:48:33Z</time>
      </trkpt>
      <trkpt lat="45.931990100070834" lon="6.83477533981204">
        <ele>2371.71</ele>
        <time>2014-07-16T10:48:36Z</time>
      </trkpt>
      <trkpt lat="45.932068135589361" lon="6.834622118622065">
        <ele>2371.71</ele>
        <time>2014-07-16T10:48:49Z</time>
      </trkpt>
      <trkpt lat="45.932064950466156" lon="6.834591273218393">
        <ele>2371.23</ele>
        <time>2014-07-16T10:49:15Z</time>
      </trkpt>
      <trkpt lat="45.932036368176341" lon="6.834636786952615">
        <ele>2371.23</ele>
        <time>2014-07-16T10:49:36Z</time>
      </trkpt>
      <trkpt lat="45.932023460045457" lon="6.834664950147271">
        <ele>2371.23</ele>
        <time>2014-07-16T10:49:57Z</time>
      </trkpt>
      <trkpt lat="45.932011557742953" lon="6.834700740873814">
        <ele>2371.23</ele>
        <time>2014-07-16T10:50:01Z</time>
      </trkpt>
      <trkpt lat="45.931994123384356" lon="6.834769304841757">
        <ele>2371.71</ele>
        <time>2014-07-16T10:50:06Z</time>
      </trkpt>
      <trkpt lat="45.931935869157314" lon="6.834804257377982">
        <ele>2371.71</ele>
        <time>2014-07-16T10:50:12Z</time>
      </trkpt>
      <trkpt lat="45.931856827810407" lon="6.834765868261457">
        <ele>2369.3099999999999</ele>
        <time>2014-07-16T10:50:26Z</time>
      </trkpt>
      <trkpt lat="45.931824306026101" lon="6.834802245721221">
        <ele>2369.3099999999999</ele>
        <time>2014-07-16T10:50:42Z</time>
      </trkpt>
      <trkpt lat="45.931719113141298" lon="6.834876174107194">
        <ele>2366.9000000000001</ele>
        <time>2014-07-16T10:50:57Z</time>
      </trkpt>
      <trkpt lat="45.931617440655828" lon="6.834956053644419">
        <ele>2365.46</ele>
        <time>2014-07-16T10:51:11Z</time>
      </trkpt>
      <trkpt lat="45.93150956556201" lon="6.835002992302179">
        <ele>2363.0599999999999</ele>
        <time>2014-07-16T10:51:25Z</time>
      </trkpt>
      <trkpt lat="45.931499591097236" lon="6.83500642888248">
        <ele>2362.5799999999999</ele>
        <time>2014-07-16T10:51:27Z</time>
      </trkpt>
      <trkpt lat="45.931478887796402" lon="6.835029479116201">
        <ele>2361.6199999999999</ele>
        <time>2014-07-16T10:51:30Z</time>
      </trkpt>
      <trkpt lat="45.93133270740509" lon="6.835105419158936">
        <ele>2359.6900000000001</ele>
        <time>2014-07-16T10:51:45Z</time>
      </trkpt>
      <trkpt lat="45.931303119286895" lon="6.835142048075795">
        <ele>2359.6900000000001</ele>
        <time>2014-07-16T10:51:49Z</time>
      </trkpt>
      <trkpt lat="45.931173451244831" lon="6.835071388632059">
        <ele>2358.25</ele>
        <time>2014-07-16T10:52:03Z</time>
      </trkpt>
      <trkpt lat="45.931115364655852" lon="6.835065269842744">
        <ele>2357.29</ele>
        <time>2014-07-16T10:52:09Z</time>
      </trkpt>
      <trkpt lat="45.931007154285908" lon="6.835099132731557">
        <ele>2355.8499999999999</ele>
        <time>2014-07-16T10:52:21Z</time>
      </trkpt>
      <trkpt lat="45.930975805968046" lon="6.835089242085815">
        <ele>2355.3699999999999</ele>
        <time>2014-07-16T10:52:25Z</time>
      </trkpt>
      <trkpt lat="45.930966921150684" lon="6.83514816686511">
        <ele>2354.4099999999999</ele>
        <time>2014-07-16T10:52:29Z</time>
      </trkpt>
      <trkpt lat="45.930948900058866" lon="6.835134420543909">
        <ele>2353.4400000000001</ele>
        <time>2014-07-16T10:52:31Z</time>
      </trkpt>
      <trkpt lat="45.930845299735665" lon="6.83505579829216">
        <ele>2352.48</ele>
        <time>2014-07-16T10:52:43Z</time>
      </trkpt>
      <trkpt lat="45.930843539535999" lon="6.835062922909856">
        <ele>2352</ele>
        <time>2014-07-16T10:52:44Z</time>
      </trkpt>
      <trkpt lat="45.930797271430492" lon="6.835118159651756">
        <ele>2352</ele>
        <time>2014-07-16T10:52:50Z</time>
      </trkpt>
      <trkpt lat="45.930737173184752" lon="6.835084380581975">
        <ele>2349.5999999999999</ele>
        <time>2014-07-16T10:53:00Z</time>
      </trkpt>
      <trkpt lat="45.930727198719978" lon="6.835112208500505">
        <ele>2349.1199999999999</ele>
        <time>2014-07-16T10:53:03Z</time>
      </trkpt>
      <trkpt lat="45.930621167644858" lon="6.835082452744246">
        <ele>2347.1999999999998</ele>
        <time>2014-07-16T10:53:15Z</time>
      </trkpt>
      <trkpt lat="45.930633321404457" lon="6.835065940394998">
        <ele>2347.1999999999998</ele>
        <time>2014-07-16T10:53:33Z</time>
      </trkpt>
      <trkpt lat="45.930613623932004" lon="6.835040207952261">
        <ele>2347.1999999999998</ele>
        <time>2014-07-16T10:53:36Z</time>
      </trkpt>
      <trkpt lat="45.9305948484689" lon="6.835019504651427">
        <ele>2346.7199999999998</ele>
        <time>2014-07-16T10:53:39Z</time>
      </trkpt>
      <trkpt lat="45.930614378303289" lon="6.834991257637739">
        <ele>2346.23</ele>
        <time>2014-07-16T10:53:52Z</time>
      </trkpt>
      <trkpt lat="45.930552016943693" lon="6.834942055866122">
        <ele>2345.75</ele>
        <time>2014-07-16T10:54:05Z</time>
      </trkpt>
      <trkpt lat="45.93051815405488" lon="6.834898553788662">
        <ele>2345.75</ele>
        <time>2014-07-16T10:54:17Z</time>
      </trkpt>
      <trkpt lat="45.930496444925666" lon="6.834903499111533">
        <ele>2345.27</ele>
        <time>2014-07-16T10:54:19Z</time>
      </trkpt>
      <trkpt lat="45.930456547066569" lon="6.834795959293842">
        <ele>2344.79</ele>
        <time>2014-07-16T10:54:29Z</time>
      </trkpt>
      <trkpt lat="45.93040575273335" lon="6.834635529667139">
        <ele>2342.3899999999999</ele>
        <time>2014-07-16T10:54:44Z</time>
      </trkpt>
      <trkpt lat="45.930313048884273" lon="6.834635445848107">
        <ele>2341.4299999999998</ele>
        <time>2014-07-16T10:54:57Z</time>
      </trkpt>
      <trkpt lat="45.930244401097298" lon="6.834606947377324">
        <ele>2339.9899999999998</ele>
        <time>2014-07-16T10:55:13Z</time>
      </trkpt>
      <trkpt lat="45.930173490196466" lon="6.834619855508208">
        <ele>2338.54</ele>
        <time>2014-07-16T10:55:26Z</time>
      </trkpt>
      <trkpt lat="45.930079612880945" lon="6.834649527445436">
        <ele>2337.5799999999999</ele>
        <time>2014-07-16T10:55:39Z</time>
      </trkpt>
      <trkpt lat="45.929982466623187" lon="6.834664531052113">
        <ele>2337.0999999999999</ele>
        <time>2014-07-16T10:55:51Z</time>
      </trkpt>
      <trkpt lat="45.92995229177177" lon="6.834592530503869">
        <ele>2335.1799999999998</ele>
        <time>2014-07-16T10:56:05Z</time>
      </trkpt>
      <trkpt lat="45.929858833551407" lon="6.834563780575991">
        <ele>2333.7399999999998</ele>
        <time>2014-07-16T10:56:20Z</time>
      </trkpt>
      <trkpt lat="45.929836286231875" lon="6.834573335945606">
        <ele>2332.7800000000002</ele>
        <time>2014-07-16T10:56:25Z</time>
      </trkpt>
      <trkpt lat="45.929829999804497" lon="6.834620861336589">
        <ele>2332.3000000000002</ele>
        <time>2014-07-16T10:56:29Z</time>
      </trkpt>
      <trkpt lat="45.929767303168774" lon="6.834728065878153">
        <ele>2330.3699999999999</ele>
        <time>2014-07-16T10:56:42Z</time>
      </trkpt>
      <trkpt lat="45.929724387824535" lon="6.834748601540923">
        <ele>2328.9299999999998</ele>
        <time>2014-07-16T10:56:49Z</time>
      </trkpt>
      <trkpt lat="45.929669151082635" lon="6.83478657156229">
        <ele>2327.0100000000002</ele>
        <time>2014-07-16T10:56:57Z</time>
      </trkpt>
      <trkpt lat="45.929591618478298" lon="6.834764191880822">
        <ele>2324.1199999999999</ele>
        <time>2014-07-16T10:57:12Z</time>
      </trkpt>
      <trkpt lat="45.929513247683644" lon="6.834810711443424">
        <ele>2322.1999999999998</ele>
        <time>2014-07-16T10:57:25Z</time>
      </trkpt>
      <trkpt lat="45.929453233256936" lon="6.834813896566629">
        <ele>2319.8000000000002</ele>
        <time>2014-07-16T10:57:34Z</time>
      </trkpt>
      <trkpt lat="45.929383160546422" lon="6.834712894633412">
        <ele>2317.8800000000001</ele>
        <time>2014-07-16T10:57:47Z</time>
      </trkpt>
      <trkpt lat="45.92937427572906" lon="6.834697723388672">
        <ele>2317.4000000000001</ele>
        <time>2014-07-16T10:57:49Z</time>
      </trkpt>
      <trkpt lat="45.929363546893001" lon="6.834589010104537">
        <ele>2314.9899999999998</ele>
        <time>2014-07-16T10:57:59Z</time>
      </trkpt>
      <trkpt lat="45.929342089220881" lon="6.834592362865806">
        <ele>2313.5500000000002</ele>
        <time>2014-07-16T10:58:03Z</time>
      </trkpt>
      <trkpt lat="45.929318284615874" lon="6.834616838023067">
        <ele>2313.0700000000002</ele>
        <time>2014-07-16T10:58:06Z</time>
      </trkpt>
      <trkpt lat="45.929179731756449" lon="6.834569228813052">
        <ele>2310.6700000000001</ele>
        <time>2014-07-16T10:58:20Z</time>
      </trkpt>
      <trkpt lat="45.929067162796855" lon="6.834511645138264">
        <ele>2308.2600000000002</ele>
        <time>2014-07-16T10:58:33Z</time>
      </trkpt>
      <trkpt lat="45.928940512239933" lon="6.834411984309554">
        <ele>2305.8600000000001</ele>
        <time>2014-07-16T10:58:47Z</time>
      </trkpt>
      <trkpt lat="45.928907236084342" lon="6.834364123642445">
        <ele>2305.8600000000001</ele>
        <time>2014-07-16T10:58:52Z</time>
      </trkpt>
      <trkpt lat="45.928825177252293" lon="6.834316682070494">
        <ele>2303.9400000000001</ele>
        <time>2014-07-16T10:59:07Z</time>
      </trkpt>
      <trkpt lat="45.928820567205548" lon="6.834288435056806">
        <ele>2303.9400000000001</ele>
        <time>2014-07-16T10:59:17Z</time>
      </trkpt>
      <trkpt lat="45.928806569427252" lon="6.834266977384687">
        <ele>2303.9400000000001</ele>
        <time>2014-07-16T10:59:19Z</time>
      </trkpt>
      <trkpt lat="45.928733563050628" lon="6.834105290472508">
        <ele>2302.98</ele>
        <time>2014-07-16T10:59:35Z</time>
      </trkpt>
      <trkpt lat="45.928744710981846" lon="6.834123730659485">
        <ele>2302.98</ele>
        <time>2014-07-16T10:59:53Z</time>
      </trkpt>
      <trkpt lat="45.928696934133768" lon="6.834093639627099">
        <ele>2302.4899999999998</ele>
        <time>2014-07-16T11:00:06Z</time>
      </trkpt>
      <trkpt lat="45.928644882515073" lon="6.834076037630439">
        <ele>2302.0100000000002</ele>
        <time>2014-07-16T11:00:11Z</time>
      </trkpt>
      <trkpt lat="45.928541198372841" lon="6.834022644907236">
        <ele>2300.5700000000002</ele>
        <time>2014-07-16T11:00:21Z</time>
      </trkpt>
      <trkpt lat="45.928389988839626" lon="6.833984926342964">
        <ele>2299.6100000000001</ele>
        <time>2014-07-16T11:00:39Z</time>
      </trkpt>
      <trkpt lat="45.928237522020936" lon="6.833930527791381">
        <ele>2298.1700000000001</ele>
        <time>2014-07-16T11:00:54Z</time>
      </trkpt>
      <trkpt lat="45.928168790414929" lon="6.833907309919596">
        <ele>2298.6500000000001</ele>
        <time>2014-07-16T11:01:02Z</time>
      </trkpt>
      <trkpt lat="45.928006516769528" lon="6.833896413445473">
        <ele>2297.6900000000001</ele>
        <time>2014-07-16T11:01:17Z</time>
      </trkpt>
      <trkpt lat="45.927897300571203" lon="6.833864897489548">
        <ele>2298.1700000000001</ele>
        <time>2014-07-16T11:01:30Z</time>
      </trkpt>
      <trkpt lat="45.92781649902463" lon="6.833875710144639">
        <ele>2299.1300000000001</ele>
        <time>2014-07-16T11:01:41Z</time>
      </trkpt>
      <trkpt lat="45.92771390452981" lon="6.833806559443474">
        <ele>2300.0900000000001</ele>
        <time>2014-07-16T11:01:54Z</time>
      </trkpt>
      <trkpt lat="45.927599743008614" lon="6.833796668797731">
        <ele>2301.0500000000002</ele>
        <time>2014-07-16T11:02:06Z</time>
      </trkpt>
      <trkpt lat="45.927575938403606" lon="6.833762973546982">
        <ele>2300.0900000000001</ele>
        <time>2014-07-16T11:02:18Z</time>
      </trkpt>
      <trkpt lat="45.927527658641338" lon="6.833708323538303">
        <ele>2299.1300000000001</ele>
        <time>2014-07-16T11:02:31Z</time>
      </trkpt>
      <trkpt lat="45.927451131865382" lon="6.833591731265187">
        <ele>2298.6500000000001</ele>
        <time>2014-07-16T11:02:44Z</time>
      </trkpt>
      <trkpt lat="45.927403019741178" lon="6.833581421524286">
        <ele>2300.0900000000001</ele>
        <time>2014-07-16T11:02:49Z</time>
      </trkpt>
      <trkpt lat="45.927366055548191" lon="6.833557952195406">
        <ele>2300.0900000000001</ele>
        <time>2014-07-16T11:02:53Z</time>
      </trkpt>
      <trkpt lat="45.927300928160548" lon="6.833506487309933">
        <ele>2300.5700000000002</ele>
        <time>2014-07-16T11:03:01Z</time>
      </trkpt>
      <trkpt lat="45.927194226533175" lon="6.833426440134645">
        <ele>2301.0500000000002</ele>
        <time>2014-07-16T11:03:14Z</time>
      </trkpt>
      <trkpt lat="45.927101271227002" lon="6.833400623872876">
        <ele>2302.0100000000002</ele>
        <time>2014-07-16T11:03:23Z</time>
      </trkpt>
      <trkpt lat="45.927030947059393" lon="6.833387883380055">
        <ele>2302.0100000000002</ele>
        <time>2014-07-16T11:03:31Z</time>
      </trkpt>
      <trkpt lat="45.926940757781267" lon="6.833292748779059">
        <ele>2302.0100000000002</ele>
        <time>2014-07-16T11:03:44Z</time>
      </trkpt>
      <trkpt lat="45.926919216290116" lon="6.833286378532648">
        <ele>2302.0100000000002</ele>
        <time>2014-07-16T11:03:47Z</time>
      </trkpt>
      <trkpt lat="45.926788290962577" lon="6.833216389641166">
        <ele>2300.0900000000001</ele>
        <time>2014-07-16T11:04:02Z</time>
      </trkpt>
      <trkpt lat="45.926704136654735" lon="6.833203313872218">
        <ele>2300.0900000000001</ele>
        <time>2014-07-16T11:04:10Z</time>
      </trkpt>
      <trkpt lat="45.926602967083454" lon="6.833185544237495">
        <ele>2302.0100000000002</ele>
        <time>2014-07-16T11:04:25Z</time>
      </trkpt>
      <trkpt lat="45.92650699429214" lon="6.833167355507612">
        <ele>2304.4200000000001</ele>
        <time>2014-07-16T11:04:40Z</time>
      </trkpt>
      <trkpt lat="45.92646885663271" lon="6.833168109878898">
        <ele>2303.9400000000001</ele>
        <time>2014-07-16T11:04:51Z</time>
      </trkpt>
      <trkpt lat="45.926493583247066" lon="6.833185628056526">
        <ele>2304.9000000000001</ele>
        <time>2014-07-16T11:05:11Z</time>
      </trkpt>
      <trkpt lat="45.926469778642058" lon="6.833168780431151">
        <ele>2303.9400000000001</ele>
        <time>2014-07-16T11:05:24Z</time>
      </trkpt>
      <trkpt lat="45.926483022049069" lon="6.833300041034818">
        <ele>2303.9400000000001</ele>
        <time>2014-07-16T11:05:41Z</time>
      </trkpt>
      <trkpt lat="45.926496349275112" lon="6.833390733227134">
        <ele>2302.0100000000002</ele>
        <time>2014-07-16T11:05:53Z</time>
      </trkpt>
      <trkpt lat="45.926520824432373" lon="6.833561975508928">
        <ele>2299.6100000000001</ele>
        <time>2014-07-16T11:06:07Z</time>
      </trkpt>
      <trkpt lat="45.926548317074776" lon="6.833652248606086">
        <ele>2298.1700000000001</ele>
        <time>2014-07-16T11:06:14Z</time>
      </trkpt>
      <trkpt lat="45.92652945779264" lon="6.833682926371694">
        <ele>2297.6900000000001</ele>
        <time>2014-07-16T11:06:17Z</time>
      </trkpt>
      <trkpt lat="45.926498360931873" lon="6.833681333810091">
        <ele>2296.73</ele>
        <time>2014-07-16T11:06:20Z</time>
      </trkpt>
      <trkpt lat="45.926437508314848" lon="6.833705389872193">
        <ele>2295.77</ele>
        <time>2014-07-16T11:06:26Z</time>
      </trkpt>
      <trkpt lat="45.926396436989307" lon="6.833658954128623">
        <ele>2294.8000000000002</ele>
        <time>2014-07-16T11:06:31Z</time>
      </trkpt>
      <trkpt lat="45.926324939355254" lon="6.833587121218443">
        <ele>2293.8400000000001</ele>
        <time>2014-07-16T11:06:39Z</time>
      </trkpt>
      <trkpt lat="45.926288813352585" lon="6.833516294136643">
        <ele>2293.3600000000001</ele>
        <time>2014-07-16T11:06:45Z</time>
      </trkpt>
      <trkpt lat="45.926187392324209" lon="6.8333700299263">
        <ele>2291.9200000000001</ele>
        <time>2014-07-16T11:07:00Z</time>
      </trkpt>
      <trkpt lat="45.926082953810692" lon="6.833305573090911">
        <ele>2291.4400000000001</ele>
        <time>2014-07-16T11:07:14Z</time>
      </trkpt>
      <trkpt lat="45.926109440624714" lon="6.833260310813785">
        <ele>2290.96</ele>
        <time>2014-07-16T11:07:29Z</time>
      </trkpt>
      <trkpt lat="45.926077924668789" lon="6.833226196467876">
        <ele>2290.48</ele>
        <time>2014-07-16T11:07:46Z</time>
      </trkpt>
      <trkpt lat="45.926050515845418" lon="6.83320976793766">
        <ele>2290</ele>
        <time>2014-07-16T11:07:48Z</time>
      </trkpt>
      <trkpt lat="45.926018580794334" lon="6.833196356892586">
        <ele>2290</ele>
        <time>2014-07-16T11:07:51Z</time>
      </trkpt>
      <trkpt lat="45.926008773967624" lon="6.833169367164373">
        <ele>2289.04</ele>
        <time>2014-07-16T11:08:07Z</time>
      </trkpt>
      <trkpt lat="45.925908023491502" lon="6.833061743527651">
        <ele>2288.0799999999999</ele>
        <time>2014-07-16T11:08:18Z</time>
      </trkpt>
      <trkpt lat="45.925856977701187" lon="6.832959149032831">
        <ele>2287.1100000000001</ele>
        <time>2014-07-16T11:08:33Z</time>
      </trkpt>
      <trkpt lat="45.925843231379986" lon="6.83294833637774">
        <ele>2286.6300000000001</ele>
        <time>2014-07-16T11:08:35Z</time>
      </trkpt>
      <trkpt lat="45.925784055143595" lon="6.832872731611133">
        <ele>2286.1500000000001</ele>
        <time>2014-07-16T11:08:42Z</time>
      </trkpt>
      <trkpt lat="45.925676180049777" lon="6.832707524299622">
        <ele>2286.1500000000001</ele>
        <time>2014-07-16T11:08:57Z</time>
      </trkpt>
      <trkpt lat="45.9256128128618" lon="6.832638792693615">
        <ele>2288.0799999999999</ele>
        <time>2014-07-16T11:09:10Z</time>
      </trkpt>
      <trkpt lat="45.925609627738595" lon="6.832640301436186">
        <ele>2288.0799999999999</ele>
        <time>2014-07-16T11:09:16Z</time>
      </trkpt>
      <trkpt lat="45.925594037398696" lon="6.832623286172748">
        <ele>2288.5599999999999</ele>
        <time>2014-07-16T11:09:18Z</time>
      </trkpt>
      <trkpt lat="45.925584901124239" lon="6.832451205700636">
        <ele>2287.1100000000001</ele>
        <time>2014-07-16T11:09:31Z</time>
      </trkpt>
      <trkpt lat="45.925559923052788" lon="6.832384904846549">
        <ele>2286.6300000000001</ele>
        <time>2014-07-16T11:09:38Z</time>
      </trkpt>
      <trkpt lat="45.925509883090854" lon="6.832207879051566">
        <ele>2287.1100000000001</ele>
        <time>2014-07-16T11:09:54Z</time>
      </trkpt>
      <trkpt lat="45.925403432920575" lon="6.832073517143726">
        <ele>2288.0799999999999</ele>
        <time>2014-07-16T11:10:08Z</time>
      </trkpt>
      <trkpt lat="45.925336545333266" lon="6.831991206854582">
        <ele>2288.5599999999999</ele>
        <time>2014-07-16T11:10:17Z</time>
      </trkpt>
      <trkpt lat="45.925314500927925" lon="6.831986093893647">
        <ele>2288.5599999999999</ele>
        <time>2014-07-16T11:10:19Z</time>
      </trkpt>
      <trkpt lat="45.925278710201383" lon="6.831926750019193">
        <ele>2288.5599999999999</ele>
        <time>2014-07-16T11:10:25Z</time>
      </trkpt>
      <trkpt lat="45.925283739343286" lon="6.831881236284971">
        <ele>2289.04</ele>
        <time>2014-07-16T11:10:28Z</time>
      </trkpt>
      <trkpt lat="45.925316428765655" lon="6.831816863268614">
        <ele>2289.04</ele>
        <time>2014-07-16T11:10:34Z</time>
      </trkpt>
      <trkpt lat="45.925236968323588" lon="6.831673113629222">
        <ele>2289.52</ele>
        <time>2014-07-16T11:10:48Z</time>
      </trkpt>
      <trkpt lat="45.925150802358985" lon="6.831493321806192">
        <ele>2288.0799999999999</ele>
        <time>2014-07-16T11:11:03Z</time>
      </trkpt>
      <trkpt lat="45.925111994147301" lon="6.831312272697687">
        <ele>2287.5900000000001</ele>
        <time>2014-07-16T11:11:17Z</time>
      </trkpt>
      <trkpt lat="45.925095146521926" lon="6.831238931044936">
        <ele>2287.1100000000001</ele>
        <time>2014-07-16T11:11:24Z</time>
      </trkpt>
      <trkpt lat="45.925035132095218" lon="6.831101048737764">
        <ele>2286.1500000000001</ele>
        <time>2014-07-16T11:11:37Z</time>
      </trkpt>
      <trkpt lat="45.925013590604067" lon="6.830965764820576">
        <ele>2284.23</ele>
        <time>2014-07-16T11:11:51Z</time>
      </trkpt>
      <trkpt lat="45.925007220357656" lon="6.830945564433932">
        <ele>2284.71</ele>
        <time>2014-07-16T11:11:53Z</time>
      </trkpt>
      <trkpt lat="45.925002358853817" lon="6.830714056268334">
        <ele>2283.75</ele>
        <time>2014-07-16T11:12:10Z</time>
      </trkpt>
      <trkpt lat="45.924990372732282" lon="6.830675415694714">
        <ele>2284.23</ele>
        <time>2014-07-16T11:12:21Z</time>
      </trkpt>
      <trkpt lat="45.924969669431448" lon="6.830663597211242">
        <ele>2283.75</ele>
        <time>2014-07-16T11:12:45Z</time>
      </trkpt>
      <trkpt lat="45.924976794049144" lon="6.830649683251977">
        <ele>2283.75</ele>
        <time>2014-07-16T11:12:56Z</time>
      </trkpt>
      <trkpt lat="45.924982912838459" lon="6.830661334097385">
        <ele>2283.75</ele>
        <time>2014-07-16T11:13:21Z</time>
      </trkpt>
      <trkpt lat="45.924979979172349" lon="6.830591931939125">
        <ele>2284.23</ele>
        <time>2014-07-16T11:13:42Z</time>
      </trkpt>
      <trkpt lat="45.924978135153651" lon="6.830597631633282">
        <ele>2284.23</ele>
        <time>2014-07-16T11:13:55Z</time>
      </trkpt>
      <trkpt lat="45.924972016364336" lon="6.830624956637621">
        <ele>2283.75</ele>
        <time>2014-07-16T11:14:22Z</time>
      </trkpt>
      <trkpt lat="45.924965227022767" lon="6.830608192831278">
        <ele>2283.75</ele>
        <time>2014-07-16T11:14:53Z</time>
      </trkpt>
      <trkpt lat="45.924962628632784" lon="6.830625291913748">
        <ele>2283.75</ele>
        <time>2014-07-16T11:15:16Z</time>
      </trkpt>
      <trkpt lat="45.92497075907886" lon="6.830624034628272">
        <ele>2284.23</ele>
        <time>2014-07-16T11:15:39Z</time>
      </trkpt>
      <trkpt lat="45.92497318983078" lon="6.830622106790543">
        <ele>2283.75</ele>
        <time>2014-07-16T11:16:06Z</time>
      </trkpt>
      <trkpt lat="45.924978218972683" lon="6.830602660775185">
        <ele>2283.75</ele>
        <time>2014-07-16T11:16:40Z</time>
      </trkpt>
      <trkpt lat="45.924981320276856" lon="6.830577766522765">
        <ele>2283.75</ele>
        <time>2014-07-16T11:17:10Z</time>
      </trkpt>
      <trkpt lat="45.924994060769677" lon="6.830583466216922">
        <ele>2284.71</ele>
        <time>2014-07-16T11:17:39Z</time>
      </trkpt>
      <trkpt lat="45.924998754635453" lon="6.830604253336787">
        <ele>2283.27</ele>
        <time>2014-07-16T11:17:57Z</time>
      </trkpt>
      <trkpt lat="45.924986517056823" lon="6.830585142597556">
        <ele>2283.27</ele>
        <time>2014-07-16T11:18:10Z</time>
      </trkpt>
      <trkpt lat="45.924987187609076" lon="6.830581370741129">
        <ele>2283.27</ele>
        <time>2014-07-16T11:18:34Z</time>
      </trkpt>
      <trkpt lat="45.925003783777356" lon="6.830598553642631">
        <ele>2283.27</ele>
        <time>2014-07-16T11:18:52Z</time>
      </trkpt>
      <trkpt lat="45.924965562298894" lon="6.830605175346136">
        <ele>2283.75</ele>
        <time>2014-07-16T11:19:09Z</time>
      </trkpt>
      <trkpt lat="45.924952067434788" lon="6.830604001879692">
        <ele>2283.75</ele>
        <time>2014-07-16T11:19:48Z</time>
      </trkpt>
      <trkpt lat="45.924974195659161" lon="6.830595452338457">
        <ele>2283.27</ele>
        <time>2014-07-16T11:20:11Z</time>
      </trkpt>
      <trkpt lat="45.924984170123935" lon="6.830602828413248">
        <ele>2283.75</ele>
        <time>2014-07-16T11:20:44Z</time>
      </trkpt>
      <trkpt lat="45.924983499571681" lon="6.830603582784534">
        <ele>2283.75</ele>
        <time>2014-07-16T11:21:05Z</time>
      </trkpt>
      <trkpt lat="45.925001688301563" lon="6.830592099577189">
        <ele>2283.75</ele>
        <time>2014-07-16T11:21:25Z</time>
      </trkpt>
      <trkpt lat="45.92499959282577" lon="6.830594530329108">
        <ele>2283.27</ele>
        <time>2014-07-16T11:21:52Z</time>
      </trkpt>
      <trkpt lat="45.925005795434117" lon="6.830598805099726">
        <ele>2283.75</ele>
        <time>2014-07-16T11:22:11Z</time>
      </trkpt>
      <trkpt lat="45.925018452107906" lon="6.830535940825939">
        <ele>2282.79</ele>
        <time>2014-07-16T11:22:26Z</time>
      </trkpt>
      <trkpt lat="45.925058098509908" lon="6.830369560047984">
        <ele>2282.3099999999999</ele>
        <time>2014-07-16T11:22:41Z</time>
      </trkpt>
      <trkpt lat="45.925120208412409" lon="6.830139644443989">
        <ele>2281.8299999999999</ele>
        <time>2014-07-16T11:22:57Z</time>
      </trkpt>
      <trkpt lat="45.925143677741289" lon="6.829922385513783">
        <ele>2280.3800000000001</ele>
        <time>2014-07-16T11:23:12Z</time>
      </trkpt>
      <trkpt lat="45.925130099058151" lon="6.829878380522132">
        <ele>2279.9000000000001</ele>
        <time>2014-07-16T11:23:16Z</time>
      </trkpt>
      <trkpt lat="45.92511291615665" lon="6.82979229837656">
        <ele>2277.5</ele>
        <time>2014-07-16T11:23:27Z</time>
      </trkpt>
      <trkpt lat="45.925249457359314" lon="6.829763045534492">
        <ele>2276.0599999999999</ele>
        <time>2014-07-16T11:23:42Z</time>
      </trkpt>
      <trkpt lat="45.925210900604725" lon="6.829749802127481">
        <ele>2274.6199999999999</ele>
        <time>2014-07-16T11:23:45Z</time>
      </trkpt>
      <trkpt lat="45.925170080736279" lon="6.829728512093425">
        <ele>2273.1700000000001</ele>
        <time>2014-07-16T11:23:49Z</time>
      </trkpt>
      <trkpt lat="45.925108557567" lon="6.829715855419636">
        <ele>2272.6900000000001</ele>
        <time>2014-07-16T11:23:54Z</time>
      </trkpt>
      <trkpt lat="45.924981823191047" lon="6.829598089680076">
        <ele>2269.3299999999999</ele>
        <time>2014-07-16T11:24:08Z</time>
      </trkpt>
      <trkpt lat="45.924967406317592" lon="6.82956607080996">
        <ele>2269.3299999999999</ele>
        <time>2014-07-16T11:24:11Z</time>
      </trkpt>
      <trkpt lat="45.924931950867176" lon="6.829514186829329">
        <ele>2268.8499999999999</ele>
        <time>2014-07-16T11:24:17Z</time>
      </trkpt>
      <trkpt lat="45.924916109070182" lon="6.829482419416308">
        <ele>2267.8899999999999</ele>
        <time>2014-07-16T11:24:20Z</time>
      </trkpt>
      <trkpt lat="45.924847712740302" lon="6.829337244853377">
        <ele>2265</ele>
        <time>2014-07-16T11:24:33Z</time>
      </trkpt>
      <trkpt lat="45.924795577302575" lon="6.829199614003301">
        <ele>2262.1199999999999</ele>
        <time>2014-07-16T11:24:45Z</time>
      </trkpt>
      <trkpt lat="45.92477479018271" lon="6.829339843243361">
        <ele>2260.6799999999998</ele>
        <time>2014-07-16T11:24:53Z</time>
      </trkpt>
      <trkpt lat="45.924694910645485" lon="6.829313524067402">
        <ele>2258.75</ele>
        <time>2014-07-16T11:25:03Z</time>
      </trkpt>
      <trkpt lat="45.924602877348661" lon="6.829264238476753">
        <ele>2255.8699999999999</ele>
        <time>2014-07-16T11:25:17Z</time>
      </trkpt>
      <trkpt lat="45.924513190984726" lon="6.829240350052714">
        <ele>2254.4299999999998</ele>
        <time>2014-07-16T11:25:31Z</time>
      </trkpt>
      <trkpt lat="45.924487626180053" lon="6.829242948442698">
        <ele>2253.4699999999998</ele>
        <time>2014-07-16T11:25:33Z</time>
      </trkpt>
      <trkpt lat="45.924367932602763" lon="6.829245714470744">
        <ele>2252.0300000000002</ele>
        <time>2014-07-16T11:25:49Z</time>
      </trkpt>
      <trkpt lat="45.924349492415786" lon="6.829251497983933">
        <ele>2251.54</ele>
        <time>2014-07-16T11:26:12Z</time>
      </trkpt>
      <trkpt lat="45.924241952598095" lon="6.829264825209975">
        <ele>2250.0999999999999</ele>
        <time>2014-07-16T11:26:26Z</time>
      </trkpt>
      <trkpt lat="45.924111194908619" lon="6.829286450520158">
        <ele>2248.6599999999999</ele>
        <time>2014-07-16T11:26:40Z</time>
      </trkpt>
      <trkpt lat="45.92407020740211" lon="6.829282008111477">
        <ele>2247.6999999999998</ele>
        <time>2014-07-16T11:26:44Z</time>
      </trkpt>
      <trkpt lat="45.923945149406791" lon="6.829380746930838">
        <ele>2245.7800000000002</ele>
        <time>2014-07-16T11:27:00Z</time>
      </trkpt>
      <trkpt lat="45.923933917656541" lon="6.82938527315855">
        <ele>2245.3000000000002</ele>
        <time>2014-07-16T11:27:01Z</time>
      </trkpt>
      <trkpt lat="45.923873735591769" lon="6.829433552920818">
        <ele>2244.3299999999999</ele>
        <time>2014-07-16T11:27:10Z</time>
      </trkpt>
      <trkpt lat="45.923841549083591" lon="6.829513935372233">
        <ele>2242.4099999999999</ele>
        <time>2014-07-16T11:27:19Z</time>
      </trkpt>
      <trkpt lat="45.923820929601789" lon="6.82950303889811">
        <ele>2241.9299999999998</ele>
        <time>2014-07-16T11:27:21Z</time>
      </trkpt>
      <trkpt lat="45.92380290850997" lon="6.829394660890102">
        <ele>2240.4899999999998</ele>
        <time>2014-07-16T11:27:30Z</time>
      </trkpt>
      <trkpt lat="45.923839202150702" lon="6.829235069453716">
        <ele>2239.0500000000002</ele>
        <time>2014-07-16T11:27:40Z</time>
      </trkpt>
      <trkpt lat="45.923848673701286" lon="6.829145969823003">
        <ele>2238.0900000000001</ele>
        <time>2014-07-16T11:27:46Z</time>
      </trkpt>
      <trkpt lat="45.92388404533267" lon="6.82907204143703">
        <ele>2237.1300000000001</ele>
        <time>2014-07-16T11:27:52Z</time>
      </trkpt>
      <trkpt lat="45.923992674797773" lon="6.828995682299137">
        <ele>2235.1999999999998</ele>
        <time>2014-07-16T11:28:05Z</time>
      </trkpt>
      <trkpt lat="45.924027962610126" lon="6.828979002311826">
        <ele>2234.7199999999998</ele>
        <time>2014-07-16T11:28:09Z</time>
      </trkpt>
      <trkpt lat="45.924065262079239" lon="6.828964417800307">
        <ele>2234.2399999999998</ele>
        <time>2014-07-16T11:28:13Z</time>
      </trkpt>
      <trkpt lat="45.924186632037163" lon="6.82886241003871">
        <ele>2232.8000000000002</ele>
        <time>2014-07-16T11:28:27Z</time>
      </trkpt>
      <trkpt lat="45.92421387322247" lon="6.828844388946891">
        <ele>2232.3200000000002</ele>
        <time>2014-07-16T11:28:30Z</time>
      </trkpt>
      <trkpt lat="45.924306744709611" lon="6.828736681491137">
        <ele>2230.8800000000001</ele>
        <time>2014-07-16T11:28:45Z</time>
      </trkpt>
      <trkpt lat="45.924303308129311" lon="6.828732825815678">
        <ele>2230.8800000000001</ele>
        <time>2014-07-16T11:28:46Z</time>
      </trkpt>
      <trkpt lat="45.924278162419796" lon="6.828705668449402">
        <ele>2229.9200000000001</ele>
        <time>2014-07-16T11:28:50Z</time>
      </trkpt>
      <trkpt lat="45.924192918464541" lon="6.828638361766934">
        <ele>2228.4699999999998</ele>
        <time>2014-07-16T11:28:58Z</time>
      </trkpt>
      <trkpt lat="45.924037182703614" lon="6.828550351783633">
        <ele>2225.5900000000001</ele>
        <time>2014-07-16T11:29:13Z</time>
      </trkpt>
      <trkpt lat="45.923938527703285" lon="6.828477680683136">
        <ele>2223.1900000000001</ele>
        <time>2014-07-16T11:29:23Z</time>
      </trkpt>
      <trkpt lat="45.923788994550705" lon="6.828444069251418">
        <ele>2220.3000000000002</ele>
        <time>2014-07-16T11:29:37Z</time>
      </trkpt>
      <trkpt lat="45.923625966534019" lon="6.828389167785645">
        <ele>2217.4200000000001</ele>
        <time>2014-07-16T11:29:52Z</time>
      </trkpt>
      <trkpt lat="45.923503506928682" lon="6.828323788940907">
        <ele>2214.5300000000002</ele>
        <time>2014-07-16T11:30:05Z</time>
      </trkpt>
      <trkpt lat="45.923445923253894" lon="6.828382713720202">
        <ele>2208.77</ele>
        <time>2014-07-16T11:30:14Z</time>
      </trkpt>
      <trkpt lat="45.923431590199471" lon="6.828406350687146">
        <ele>2213.5700000000002</ele>
        <time>2014-07-16T11:30:16Z</time>
      </trkpt>
      <trkpt lat="45.923478445038199" lon="6.82847592048347">
        <ele>2210.6900000000001</ele>
        <time>2014-07-16T11:30:22Z</time>
      </trkpt>
      <trkpt lat="45.923522114753723" lon="6.828517913818359">
        <ele>2209.73</ele>
        <time>2014-07-16T11:30:27Z</time>
      </trkpt>
      <trkpt lat="45.923524126410484" lon="6.828551525250077">
        <ele>2209.25</ele>
        <time>2014-07-16T11:30:29Z</time>
      </trkpt>
      <trkpt lat="45.923451958224177" lon="6.828662166371942">
        <ele>2207.8099999999999</ele>
        <time>2014-07-16T11:30:37Z</time>
      </trkpt>
      <trkpt lat="45.923376185819507" lon="6.828783033415675">
        <ele>2205.8800000000001</ele>
        <time>2014-07-16T11:30:48Z</time>
      </trkpt>
      <trkpt lat="45.923303430899978" lon="6.828933823853731">
        <ele>2203.96</ele>
        <time>2014-07-16T11:31:03Z</time>
      </trkpt>
      <trkpt lat="45.923299742862582" lon="6.828977912664414">
        <ele>2203.48</ele>
        <time>2014-07-16T11:31:09Z</time>
      </trkpt>
      <trkpt lat="45.923279039561749" lon="6.828931728377938">
        <ele>2203</ele>
        <time>2014-07-16T11:31:13Z</time>
      </trkpt>
      <trkpt lat="45.923240231350064" lon="6.828839611262083">
        <ele>2200.5900000000001</ele>
        <time>2014-07-16T11:31:27Z</time>
      </trkpt>
      <trkpt lat="45.923216175287962" lon="6.82883407920599">
        <ele>2199.1500000000001</ele>
        <time>2014-07-16T11:31:39Z</time>
      </trkpt>
      <trkpt lat="45.923148281872272" lon="6.828870037570596">
        <ele>2197.71</ele>
        <time>2014-07-16T11:31:47Z</time>
      </trkpt>
      <trkpt lat="45.923076113685966" lon="6.828904906287789">
        <ele>2196.75</ele>
        <time>2014-07-16T11:31:54Z</time>
      </trkpt>
      <trkpt lat="45.92306412756443" lon="6.828928207978606">
        <ele>2195.3099999999999</ele>
        <time>2014-07-16T11:31:56Z</time>
      </trkpt>
      <trkpt lat="45.923014841973782" lon="6.829034155234695">
        <ele>2193.8699999999999</ele>
        <time>2014-07-16T11:32:04Z</time>
      </trkpt>
      <trkpt lat="45.923001933842897" lon="6.82914923876524">
        <ele>2191.9400000000001</ele>
        <time>2014-07-16T11:32:12Z</time>
      </trkpt>
      <trkpt lat="45.922935465350747" lon="6.829267591238022">
        <ele>2190.5</ele>
        <time>2014-07-16T11:32:20Z</time>
      </trkpt>
      <trkpt lat="45.922904703766108" lon="6.829316290095449">
        <ele>2190.02</ele>
        <time>2014-07-16T11:32:24Z</time>
      </trkpt>
      <trkpt lat="45.922717871144414" lon="6.829330120235682">
        <ele>2189.0599999999999</ele>
        <time>2014-07-16T11:32:41Z</time>
      </trkpt>
      <trkpt lat="45.922678392380476" lon="6.829347051680088">
        <ele>2189.0599999999999</ele>
        <time>2014-07-16T11:32:45Z</time>
      </trkpt>
      <trkpt lat="45.922527434304357" lon="6.829399522393942">
        <ele>2186.6599999999999</ele>
        <time>2014-07-16T11:33:01Z</time>
      </trkpt>
      <trkpt lat="45.9225182980299" lon="6.829348895698786">
        <ele>2185.6900000000001</ele>
        <time>2014-07-16T11:33:07Z</time>
      </trkpt>
      <trkpt lat="45.922608319669962" lon="6.829196931794286">
        <ele>2182.3299999999999</ele>
        <time>2014-07-16T11:33:20Z</time>
      </trkpt>
      <trkpt lat="45.922578647732735" lon="6.829140102490783">
        <ele>2180.8899999999999</ele>
        <time>2014-07-16T11:33:28Z</time>
      </trkpt>
      <trkpt lat="45.922468593344092" lon="6.829210929572582">
        <ele>2178.9699999999998</ele>
        <time>2014-07-16T11:33:38Z</time>
      </trkpt>
      <trkpt lat="45.922409417107701" lon="6.829253509640694">
        <ele>2179.4499999999998</ele>
        <time>2014-07-16T11:33:45Z</time>
      </trkpt>
      <trkpt lat="45.922379661351442" lon="6.829275051131845">
        <ele>2177.52</ele>
        <time>2014-07-16T11:33:48Z</time>
      </trkpt>
      <trkpt lat="45.922269020229578" lon="6.829349901527166">
        <ele>2177.04</ele>
        <time>2014-07-16T11:34:01Z</time>
      </trkpt>
      <trkpt lat="45.922167850658298" lon="6.829431960359216">
        <ele>2176.0799999999999</ele>
        <time>2014-07-16T11:34:17Z</time>
      </trkpt>
      <trkpt lat="45.922142704948783" lon="6.829477557912469">
        <ele>2174.6399999999999</ele>
        <time>2014-07-16T11:34:29Z</time>
      </trkpt>
      <trkpt lat="45.922118900343776" lon="6.82952307164669">
        <ele>2172.2399999999998</ele>
        <time>2014-07-16T11:34:41Z</time>
      </trkpt>
      <trkpt lat="45.922068357467651" lon="6.829594653099775">
        <ele>2168.8699999999999</ele>
        <time>2014-07-16T11:34:55Z</time>
      </trkpt>
      <trkpt lat="45.922114960849285" lon="6.829609237611294">
        <ele>2168.8699999999999</ele>
        <time>2014-07-16T11:35:09Z</time>
      </trkpt>
      <trkpt lat="45.922136586159468" lon="6.829637819901109">
        <ele>2168.8699999999999</ele>
        <time>2014-07-16T11:35:21Z</time>
      </trkpt>
      <trkpt lat="45.92213231138885" lon="6.829689284786582">
        <ele>2170.3099999999999</ele>
        <time>2014-07-16T11:35:36Z</time>
      </trkpt>
      <trkpt lat="45.92213231138885" lon="6.829713927581906">
        <ele>2168.8699999999999</ele>
        <time>2014-07-16T11:35:51Z</time>
      </trkpt>
      <trkpt lat="45.922153769060969" lon="6.829678891226649">
        <ele>2170.79</ele>
        <time>2014-07-16T11:36:13Z</time>
      </trkpt>
      <trkpt lat="45.922181932255626" lon="6.829611165449023">
        <ele>2169.8299999999999</ele>
        <time>2014-07-16T11:36:27Z</time>
      </trkpt>
      <trkpt lat="45.92210590839386" lon="6.829621056094766">
        <ele>2169.8299999999999</ele>
        <time>2014-07-16T11:36:48Z</time>
      </trkpt>
      <trkpt lat="45.922130970284343" lon="6.829561796039343">
        <ele>2169.3499999999999</ele>
        <time>2014-07-16T11:36:57Z</time>
      </trkpt>
      <trkpt lat="45.922174891456962" lon="6.829575207084417">
        <ele>2169.3499999999999</ele>
        <time>2014-07-16T11:37:23Z</time>
      </trkpt>
      <trkpt lat="45.922150332480669" lon="6.829642010852695">
        <ele>2168.8699999999999</ele>
        <time>2014-07-16T11:37:42Z</time>
      </trkpt>
      <trkpt lat="45.922172041609883" lon="6.8296227324754">
        <ele>2168.3899999999999</ele>
        <time>2014-07-16T11:37:55Z</time>
      </trkpt>
      <trkpt lat="45.922168605029583" lon="6.829628013074398">
        <ele>2168.8699999999999</ele>
        <time>2014-07-16T11:38:12Z</time>
      </trkpt>
      <trkpt lat="45.922178914770484" lon="6.829629018902779">
        <ele>2167.9099999999999</ele>
        <time>2014-07-16T11:38:39Z</time>
      </trkpt>
      <trkpt lat="45.922154439613223" lon="6.829637903720141">
        <ele>2167.9099999999999</ele>
        <time>2014-07-16T11:39:03Z</time>
      </trkpt>
      <trkpt lat="45.922159720212221" lon="6.829647794365883">
        <ele>2168.3899999999999</ele>
        <time>2014-07-16T11:39:32Z</time>
      </trkpt>
      <trkpt lat="45.922157038003206" lon="6.829658355563879">
        <ele>2168.3899999999999</ele>
        <time>2014-07-16T11:39:59Z</time>
      </trkpt>
      <trkpt lat="45.922183021903038" lon="6.829650057479739">
        <ele>2167.9099999999999</ele>
        <time>2014-07-16T11:40:39Z</time>
      </trkpt>
      <trkpt lat="45.922166593372822" lon="6.829614099115133">
        <ele>2169.3499999999999</ele>
        <time>2014-07-16T11:41:05Z</time>
      </trkpt>
      <trkpt lat="45.922158882021904" lon="6.82963983155787">
        <ele>2167.9099999999999</ele>
        <time>2014-07-16T11:41:33Z</time>
      </trkpt>
      <trkpt lat="45.922160977497697" lon="6.829632706940174">
        <ele>2167.9099999999999</ele>
        <time>2014-07-16T11:42:08Z</time>
      </trkpt>
      <trkpt lat="45.922175478190184" lon="6.829622061923146">
        <ele>2167.9099999999999</ele>
        <time>2014-07-16T11:42:39Z</time>
      </trkpt>
      <trkpt lat="45.922136167064309" lon="6.829636646434665">
        <ele>2167.9099999999999</ele>
        <time>2014-07-16T11:43:05Z</time>
      </trkpt>
      <trkpt lat="45.922156870365143" lon="6.829644441604614">
        <ele>2167.4299999999998</ele>
        <time>2014-07-16T11:43:46Z</time>
      </trkpt>
      <trkpt lat="45.922161564230919" lon="6.829636478796601">
        <ele>2167.4299999999998</ele>
        <time>2014-07-16T11:44:23Z</time>
      </trkpt>
      <trkpt lat="45.922139687463641" lon="6.829643603414297">
        <ele>2167.4299999999998</ele>
        <time>2014-07-16T11:44:51Z</time>
      </trkpt>
      <trkpt lat="45.922141363844275" lon="6.82962759397924">
        <ele>2167.4299999999998</ele>
        <time>2014-07-16T11:45:28Z</time>
      </trkpt>
      <trkpt lat="45.922137591987848" lon="6.829625498503447">
        <ele>2166.9499999999998</ele>
        <time>2014-07-16T11:46:03Z</time>
      </trkpt>
      <trkpt lat="45.922152427956462" lon="6.829655757173896">
        <ele>2166.4699999999998</ele>
        <time>2014-07-16T11:46:41Z</time>
      </trkpt>
      <trkpt lat="45.922144213691354" lon="6.829640753567219">
        <ele>2166.4699999999998</ele>
        <time>2014-07-16T11:47:14Z</time>
      </trkpt>
      <trkpt lat="45.922125354409218" lon="6.829654667526484">
        <ele>2166.4699999999998</ele>
        <time>2014-07-16T11:47:53Z</time>
      </trkpt>
      <trkpt lat="45.922140777111053" lon="6.829632204025984">
        <ele>2166.4699999999998</ele>
        <time>2014-07-16T11:48:27Z</time>
      </trkpt>
      <trkpt lat="45.92212887480855" lon="6.829629270359874">
        <ele>2166.4699999999998</ele>
        <time>2014-07-16T11:49:06Z</time>
      </trkpt>
      <trkpt lat="45.922114793211222" lon="6.829650141298771">
        <ele>2166.4699999999998</ele>
        <time>2014-07-16T11:49:49Z</time>
      </trkpt>
      <trkpt lat="45.922112697735429" lon="6.829671347513795">
        <ele>2166.4699999999998</ele>
        <time>2014-07-16T11:50:22Z</time>
      </trkpt>
      <trkpt lat="45.922106662765145" lon="6.82968920096755">
        <ele>2165.9899999999998</ele>
        <time>2014-07-16T11:51:00Z</time>
      </trkpt>
      <trkpt lat="45.922127282246947" lon="6.829633545130491">
        <ele>2165.9899999999998</ele>
        <time>2014-07-16T11:51:31Z</time>
      </trkpt>
      <trkpt lat="45.922126779332757" lon="6.829663803800941">
        <ele>2165.9899999999998</ele>
        <time>2014-07-16T11:52:06Z</time>
      </trkpt>
      <trkpt lat="45.922130886465311" lon="6.829660953953862">
        <ele>2166.4699999999998</ele>
        <time>2014-07-16T11:52:43Z</time>
      </trkpt>
      <trkpt lat="45.922110350802541" lon="6.829655421897769">
        <ele>2166.4699999999998</ele>
        <time>2014-07-16T11:53:24Z</time>
      </trkpt>
      <trkpt lat="45.922112111002207" lon="6.829656846821308">
        <ele>2166.4699999999998</ele>
        <time>2014-07-16T11:54:05Z</time>
      </trkpt>
      <trkpt lat="45.922105573117733" lon="6.829662881791592">
        <ele>2166.4699999999998</ele>
        <time>2014-07-16T11:54:36Z</time>
      </trkpt>
      <trkpt lat="45.922127617523074" lon="6.829636562615633">
        <ele>2166.4699999999998</ele>
        <time>2014-07-16T11:55:14Z</time>
      </trkpt>
      <trkpt lat="45.922129964455962" lon="6.829635640606284">
        <ele>2167.4299999999998</ele>
        <time>2014-07-16T11:55:46Z</time>
      </trkpt>
      <trkpt lat="45.922131976112723" lon="6.82965399697423">
        <ele>2166.9499999999998</ele>
        <time>2014-07-16T11:56:15Z</time>
      </trkpt>
      <trkpt lat="45.922121247276664" lon="6.829659109935165">
        <ele>2166.9499999999998</ele>
        <time>2014-07-16T11:56:53Z</time>
      </trkpt>
      <trkpt lat="45.922124180942774" lon="6.829676292836666">
        <ele>2166.9499999999998</ele>
        <time>2014-07-16T11:57:20Z</time>
      </trkpt>
      <trkpt lat="45.92210884205997" lon="6.829694900661707">
        <ele>2166.9499999999998</ele>
        <time>2014-07-16T11:57:57Z</time>
      </trkpt>
      <trkpt lat="45.922125019133091" lon="6.829683836549521">
        <ele>2166.4699999999998</ele>
        <time>2014-07-16T11:58:32Z</time>
      </trkpt>
      <trkpt lat="45.92210984788835" lon="6.829710993915796">
        <ele>2166.4699999999998</ele>
        <time>2014-07-16T11:59:04Z</time>
      </trkpt>
      <trkpt lat="45.922113200649619" lon="6.829684674739838">
        <ele>2166.4699999999998</ele>
        <time>2014-07-16T11:59:37Z</time>
      </trkpt>
      <trkpt lat="45.922131054103374" lon="6.829668078571558">
        <ele>2166.4699999999998</ele>
        <time>2014-07-16T12:00:07Z</time>
      </trkpt>
      <trkpt lat="45.922116301953793" lon="6.829690709710121">
        <ele>2166.4699999999998</ele>
        <time>2014-07-16T12:00:38Z</time>
      </trkpt>
      <trkpt lat="45.922127198427916" lon="6.829686434939504">
        <ele>2166.9499999999998</ele>
        <time>2014-07-16T12:01:13Z</time>
      </trkpt>
      <trkpt lat="45.922127617523074" lon="6.829686434939504">
        <ele>2166.4699999999998</ele>
        <time>2014-07-16T12:01:38Z</time>
      </trkpt>
      <trkpt lat="45.922130467370152" lon="6.829691296443343">
        <ele>2166.9499999999998</ele>
        <time>2014-07-16T12:02:15Z</time>
      </trkpt>
      <trkpt lat="45.922115296125412" lon="6.82969213463366">
        <ele>2166.9499999999998</ele>
        <time>2014-07-16T12:02:40Z</time>
      </trkpt>
      <trkpt lat="45.922097275033593" lon="6.829699845984578">
        <ele>2166.9499999999998</ele>
        <time>2014-07-16T12:03:09Z</time>
      </trkpt>
      <trkpt lat="45.922117056325078" lon="6.829689117148519">
        <ele>2166.9499999999998</ele>
        <time>2014-07-16T12:03:45Z</time>
      </trkpt>
      <trkpt lat="45.922113284468651" lon="6.82969406247139">
        <ele>2165.9899999999998</ele>
        <time>2014-07-16T12:04:13Z</time>
      </trkpt>
      <trkpt lat="45.922104064375162" lon="6.829715771600604">
        <ele>2166.9499999999998</ele>
        <time>2014-07-16T12:04:42Z</time>
      </trkpt>
      <trkpt lat="45.922104399651289" lon="6.829716106876731">
        <ele>2166.9499999999998</ele>
        <time>2014-07-16T12:05:13Z</time>
      </trkpt>
      <trkpt lat="45.922132981941104" lon="6.82968526147306">
        <ele>2166.9499999999998</ele>
        <time>2014-07-16T12:05:47Z</time>
      </trkpt>
      <trkpt lat="45.922112613916397" lon="6.829687692224979">
        <ele>2166.9499999999998</ele>
        <time>2014-07-16T12:06:17Z</time>
      </trkpt>
      <trkpt lat="45.922208670526743" lon="6.829622481018305">
        <ele>2167.4299999999998</ele>
        <time>2014-07-16T12:06:50Z</time>
      </trkpt>
      <trkpt lat="45.922182770445943" lon="6.829620888456702">
        <ele>2166.4699999999998</ele>
        <time>2014-07-16T12:07:18Z</time>
      </trkpt>
      <trkpt lat="45.922180004417896" lon="6.829647459089756">
        <ele>2166.4699999999998</ele>
        <time>2014-07-16T12:07:51Z</time>
      </trkpt>
      <trkpt lat="45.922173382714391" lon="6.82965056039393">
        <ele>2166.4699999999998</ele>
        <time>2014-07-16T12:08:27Z</time>
      </trkpt>
      <trkpt lat="45.922185871750116" lon="6.82965349406004">
        <ele>2166.4699999999998</ele>
        <time>2014-07-16T12:08:51Z</time>
      </trkpt>
      <trkpt lat="45.922188302502036" lon="6.829647123813629">
        <ele>2166.9499999999998</ele>
        <time>2014-07-16T12:09:24Z</time>
      </trkpt>
      <trkpt lat="45.92219140380621" lon="6.829659109935165">
        <ele>2166.9499999999998</ele>
        <time>2014-07-16T12:09:54Z</time>
      </trkpt>
      <trkpt lat="45.922161648049951" lon="6.82968283072114">
        <ele>2166.9499999999998</ele>
        <time>2014-07-16T12:10:27Z</time>
      </trkpt>
      <trkpt lat="45.922164414077997" lon="6.829658858478069">
        <ele>2167.4299999999998</ele>
        <time>2014-07-16T12:10:50Z</time>
      </trkpt>
      <trkpt lat="45.922150500118732" lon="6.829682160168886">
        <ele>2168.3899999999999</ele>
        <time>2014-07-16T12:11:18Z</time>
      </trkpt>
      <trkpt lat="45.922142704948783" lon="6.829684926196933">
        <ele>2166.9499999999998</ele>
        <time>2014-07-16T12:11:21Z</time>
      </trkpt>
      <trkpt lat="45.922084199264646" lon="6.829711748287082">
        <ele>2166.9499999999998</ele>
        <time>2014-07-16T12:11:49Z</time>
      </trkpt>
      <trkpt lat="45.922079337760806" lon="6.829726248979569">
        <ele>2166.4699999999998</ele>
        <time>2014-07-16T12:12:27Z</time>
      </trkpt>
      <trkpt lat="45.922109596431255" lon="6.829690877348185">
        <ele>2166.9499999999998</ele>
        <time>2014-07-16T12:13:06Z</time>
      </trkpt>
      <trkpt lat="45.922108087688684" lon="6.829671179875732">
        <ele>2167.4299999999998</ele>
        <time>2014-07-16T12:13:30Z</time>
      </trkpt>
      <trkpt lat="45.922087719663978" lon="6.829704875126481">
        <ele>2166.4699999999998</ele>
        <time>2014-07-16T12:14:10Z</time>
      </trkpt>
      <trkpt lat="45.922079253941774" lon="6.829749802127481">
        <ele>2166.4699999999998</ele>
        <time>2014-07-16T12:14:39Z</time>
      </trkpt>
      <trkpt lat="45.922105237841606" lon="6.829705042764545">
        <ele>2167.4299999999998</ele>
        <time>2014-07-16T12:15:09Z</time>
      </trkpt>
      <trkpt lat="45.922110015526414" lon="6.829660283401609">
        <ele>2166.9499999999998</ele>
        <time>2014-07-16T12:15:47Z</time>
      </trkpt>
      <trkpt lat="45.922109428793192" lon="6.829694733023644">
        <ele>2166.9499999999998</ele>
        <time>2014-07-16T12:16:30Z</time>
      </trkpt>
      <trkpt lat="45.922092413529754" lon="6.829729937016964">
        <ele>2166.9499999999998</ele>
        <time>2014-07-16T12:17:06Z</time>
      </trkpt>
      <trkpt lat="45.922011444345117" lon="6.82978542521596">
        <ele>2166.4699999999998</ele>
        <time>2014-07-16T12:17:38Z</time>
      </trkpt>
      <trkpt lat="45.921942126005888" lon="6.829812917858362">
        <ele>2166.9499999999998</ele>
        <time>2014-07-16T12:18:09Z</time>
      </trkpt>
      <trkpt lat="45.922097023576498" lon="6.829731613397598">
        <ele>2166.9499999999998</ele>
        <time>2014-07-16T12:18:37Z</time>
      </trkpt>
      <trkpt lat="45.922126863151789" lon="6.829665899276733">
        <ele>2167.4299999999998</ele>
        <time>2014-07-16T12:19:16Z</time>
      </trkpt>
      <trkpt lat="45.922141531482339" lon="6.829648213461042">
        <ele>2166.9499999999998</ele>
        <time>2014-07-16T12:19:58Z</time>
      </trkpt>
      <trkpt lat="45.922137927263975" lon="6.829662378877401">
        <ele>2166.4699999999998</ele>
        <time>2014-07-16T12:20:47Z</time>
      </trkpt>
      <trkpt lat="45.922123175114393" lon="6.829655254259706">
        <ele>2166.4699999999998</ele>
        <time>2014-07-16T12:21:33Z</time>
      </trkpt>
      <trkpt lat="45.922127449885011" lon="6.82965693064034">
        <ele>2165.9899999999998</ele>
        <time>2014-07-16T12:22:14Z</time>
      </trkpt>
      <trkpt lat="45.922119151800871" lon="6.829661205410957">
        <ele>2166.9499999999998</ele>
        <time>2014-07-16T12:22:40Z</time>
      </trkpt>
      <trkpt lat="45.922121247276664" lon="6.829643435776234">
        <ele>2165.5100000000002</ele>
        <time>2014-07-16T12:23:21Z</time>
      </trkpt>
      <trkpt lat="45.922127701342106" lon="6.829653913155198">
        <ele>2165.5100000000002</ele>
        <time>2014-07-16T12:23:46Z</time>
      </trkpt>
      <trkpt lat="45.922065507620573" lon="6.829707892611623">
        <ele>2165.0300000000002</ele>
        <time>2014-07-16T12:24:16Z</time>
      </trkpt>
      <trkpt lat="45.922090820968151" lon="6.829686099663377">
        <ele>2166.4699999999998</ele>
        <time>2014-07-16T12:24:51Z</time>
      </trkpt>
      <trkpt lat="45.92212988063693" lon="6.829659277573228">
        <ele>2165.9899999999998</ele>
        <time>2014-07-16T12:25:21Z</time>
      </trkpt>
      <trkpt lat="45.92214890755713" lon="6.829659529030323">
        <ele>2165.9899999999998</ele>
        <time>2014-07-16T12:25:59Z</time>
      </trkpt>
      <trkpt lat="45.922150919213891" lon="6.829653158783913">
        <ele>2165.9899999999998</ele>
        <time>2014-07-16T12:26:40Z</time>
      </trkpt>
      <trkpt lat="45.922134323045611" lon="6.829652991145849">
        <ele>2165.9899999999998</ele>
        <time>2014-07-16T12:27:22Z</time>
      </trkpt>
      <trkpt lat="45.922185033559799" lon="6.829632790759206">
        <ele>2166.4699999999998</ele>
        <time>2014-07-16T12:27:50Z</time>
      </trkpt>
      <trkpt lat="45.922201881185174" lon="6.829637484624982">
        <ele>2165.9899999999998</ele>
        <time>2014-07-16T12:28:17Z</time>
      </trkpt>
      <trkpt lat="45.92216843739152" lon="6.829642681404948">
        <ele>2165.0300000000002</ele>
        <time>2014-07-16T12:28:35Z</time>
      </trkpt>
      <trkpt lat="45.922159217298031" lon="6.829651817679405">
        <ele>2165.0300000000002</ele>
        <time>2014-07-16T12:28:58Z</time>
      </trkpt>
      <trkpt lat="45.92216994613409" lon="6.829635556787252">
        <ele>2165.0300000000002</ele>
        <time>2014-07-16T12:29:21Z</time>
      </trkpt>
      <trkpt lat="45.9221469797194" lon="6.829676376655698">
        <ele>2165.0300000000002</ele>
        <time>2014-07-16T12:29:49Z</time>
      </trkpt>
      <trkpt lat="45.922164330258965" lon="6.829685429111123">
        <ele>2164.5500000000002</ele>
        <time>2014-07-16T12:30:12Z</time>
      </trkpt>
      <trkpt lat="45.922148237004876" lon="6.829675203189254">
        <ele>2164.5500000000002</ele>
        <time>2014-07-16T12:30:45Z</time>
      </trkpt>
      <trkpt lat="45.922203389927745" lon="6.829639077186585">
        <ele>2165.5100000000002</ele>
        <time>2014-07-16T12:31:26Z</time>
      </trkpt>
      <trkpt lat="45.922186793759465" lon="6.829612506553531">
        <ele>2165.5100000000002</ele>
        <time>2014-07-16T12:31:58Z</time>
      </trkpt>
      <trkpt lat="45.922167347744107" lon="6.829656679183245">
        <ele>2165.5100000000002</ele>
        <time>2014-07-16T12:32:33Z</time>
      </trkpt>
      <trkpt lat="45.922136083245277" lon="6.829649973660708">
        <ele>2165.5100000000002</ele>
        <time>2014-07-16T12:32:50Z</time>
      </trkpt>
      <trkpt lat="45.922126779332757" lon="6.82968576438725">
        <ele>2165.5100000000002</ele>
        <time>2014-07-16T12:33:02Z</time>
      </trkpt>
      <trkpt lat="45.922125186771154" lon="6.829666150733829">
        <ele>2165.5100000000002</ele>
        <time>2014-07-16T12:33:18Z</time>
      </trkpt>
      <trkpt lat="45.922104483470321" lon="6.829652320593596">
        <ele>2164.5500000000002</ele>
        <time>2014-07-16T12:33:32Z</time>
      </trkpt>
      <trkpt lat="45.922110266983509" lon="6.829652320593596">
        <ele>2164.0599999999999</ele>
        <time>2014-07-16T12:33:49Z</time>
      </trkpt>
      <trkpt lat="45.922133149579167" lon="6.829630611464381">
        <ele>2164.0599999999999</ele>
        <time>2014-07-16T12:34:15Z</time>
      </trkpt>
      <trkpt lat="45.922107500955462" lon="6.829620385542512">
        <ele>2164.0599999999999</ele>
        <time>2014-07-16T12:34:35Z</time>
      </trkpt>
      <trkpt lat="45.922112111002207" lon="6.829628515988588">
        <ele>2163.5799999999999</ele>
        <time>2014-07-16T12:34:51Z</time>
      </trkpt>
      <trkpt lat="45.922108674421906" lon="6.829640753567219">
        <ele>2163.5799999999999</ele>
        <time>2014-07-16T12:35:16Z</time>
      </trkpt>
      <trkpt lat="45.922091826796532" lon="6.829621056094766">
        <ele>2164.0599999999999</ele>
        <time>2014-07-16T12:35:37Z</time>
      </trkpt>
      <trkpt lat="45.922109261155128" lon="6.829635305330157">
        <ele>2164.0599999999999</ele>
        <time>2014-07-16T12:35:57Z</time>
      </trkpt>
      <trkpt lat="45.922094760462642" lon="6.829632958397269">
        <ele>2164.5500000000002</ele>
        <time>2014-07-16T12:36:18Z</time>
      </trkpt>
      <trkpt lat="45.922090820968151" lon="6.829631617292762">
        <ele>2164.0599999999999</ele>
        <time>2014-07-16T12:36:37Z</time>
      </trkpt>
      <trkpt lat="45.922086630016565" lon="6.829627845436335">
        <ele>2163.5799999999999</ele>
        <time>2014-07-16T12:37:01Z</time>
      </trkpt>
      <trkpt lat="45.922081936150789" lon="6.829600185155869">
        <ele>2163.0999999999999</ele>
        <time>2014-07-16T12:37:15Z</time>
      </trkpt>
      <trkpt lat="45.922065256163478" lon="6.829501781612635">
        <ele>2163.0999999999999</ele>
        <time>2014-07-16T12:37:23Z</time>
      </trkpt>
      <trkpt lat="45.922085456550121" lon="6.829385189339519">
        <ele>2163.5799999999999</ele>
        <time>2014-07-16T12:37:38Z</time>
      </trkpt>
      <trkpt lat="45.922097023576498" lon="6.829346884042025">
        <ele>2163.5799999999999</ele>
        <time>2014-07-16T12:37:52Z</time>
      </trkpt>
      <trkpt lat="45.92214111238718" lon="6.829184861853719">
        <ele>2164.0599999999999</ele>
        <time>2014-07-16T12:38:08Z</time>
      </trkpt>
      <trkpt lat="45.92215527780354" lon="6.829100036993623">
        <ele>2162.6199999999999</ele>
        <time>2014-07-16T12:38:15Z</time>
      </trkpt>
      <trkpt lat="45.922204479575157" lon="6.828927453607321">
        <ele>2161.1799999999998</ele>
        <time>2014-07-16T12:38:28Z</time>
      </trkpt>
      <trkpt lat="45.92213524505496" lon="6.828801138326526">
        <ele>2158.7800000000002</ele>
        <time>2014-07-16T12:38:39Z</time>
      </trkpt>
      <trkpt lat="45.922150416299701" lon="6.828745566308498">
        <ele>2157.8200000000002</ele>
        <time>2014-07-16T12:38:43Z</time>
      </trkpt>
      <trkpt lat="45.922195091843605" lon="6.828712709248066">
        <ele>2157.3400000000001</ele>
        <time>2014-07-16T12:38:49Z</time>
      </trkpt>
      <trkpt lat="45.922205736860633" lon="6.828632913529873">
        <ele>2155.4099999999999</ele>
        <time>2014-07-16T12:38:57Z</time>
      </trkpt>
      <trkpt lat="45.92221830971539" lon="6.828553536906838">
        <ele>2153.0100000000002</ele>
        <time>2014-07-16T12:39:08Z</time>
      </trkpt>
      <trkpt lat="45.922223087400198" lon="6.828519757837057">
        <ele>2152.0500000000002</ele>
        <time>2014-07-16T12:39:12Z</time>
      </trkpt>
      <trkpt lat="45.922254268079996" lon="6.828487738966942">
        <ele>2151.5700000000002</ele>
        <time>2014-07-16T12:39:16Z</time>
      </trkpt>
      <trkpt lat="45.922301709651947" lon="6.828363686800003">
        <ele>2148.6799999999998</ele>
        <time>2014-07-16T12:39:28Z</time>
      </trkpt>
      <trkpt lat="45.922301961109042" lon="6.828188337385654">
        <ele>2146.2800000000002</ele>
        <time>2014-07-16T12:39:44Z</time>
      </trkpt>
      <trkpt lat="45.922264661639929" lon="6.82819202542305">
        <ele>2143.8800000000001</ele>
        <time>2014-07-16T12:39:57Z</time>
      </trkpt>
      <trkpt lat="45.922259045764804" lon="6.828211136162281">
        <ele>2142.9200000000001</ele>
        <time>2014-07-16T12:39:59Z</time>
      </trkpt>
      <trkpt lat="45.922218896448612" lon="6.828224631026387">
        <ele>2140.9899999999998</ele>
        <time>2014-07-16T12:40:11Z</time>
      </trkpt>
      <trkpt lat="45.922192996367812" lon="6.828134190291166">
        <ele>2138.1100000000001</ele>
        <time>2014-07-16T12:40:24Z</time>
      </trkpt>
      <trkpt lat="45.922160893678665" lon="6.828169310465455">
        <ele>2135.71</ele>
        <time>2014-07-16T12:40:35Z</time>
      </trkpt>
      <trkpt lat="45.922134155407548" lon="6.828124215826392">
        <ele>2133.3000000000002</ele>
        <time>2014-07-16T12:40:47Z</time>
      </trkpt>
      <trkpt lat="45.922119487076998" lon="6.82812605984509">
        <ele>2131.3800000000001</ele>
        <time>2014-07-16T12:40:59Z</time>
      </trkpt>
      <trkpt lat="45.922065591439605" lon="6.828111475333571">
        <ele>2128.5</ele>
        <time>2014-07-16T12:41:13Z</time>
      </trkpt>
      <trkpt lat="45.922048408538103" lon="6.8280581664294">
        <ele>2126.5700000000002</ele>
        <time>2014-07-16T12:41:22Z</time>
      </trkpt>
      <trkpt lat="45.92200088314712" lon="6.828119102865458">
        <ele>2124.6500000000001</ele>
        <time>2014-07-16T12:41:34Z</time>
      </trkpt>
      <trkpt lat="45.922011695802212" lon="6.827996391803026">
        <ele>2122.25</ele>
        <time>2014-07-16T12:41:45Z</time>
      </trkpt>
      <trkpt lat="45.922000799328089" lon="6.827972838655114">
        <ele>2121.29</ele>
        <time>2014-07-16T12:41:47Z</time>
      </trkpt>
      <trkpt lat="45.921986969187856" lon="6.827980047091842">
        <ele>2120.8099999999999</ele>
        <time>2014-07-16T12:41:53Z</time>
      </trkpt>
      <trkpt lat="45.921947825700045" lon="6.827966216951609">
        <ele>2118.8800000000001</ele>
        <time>2014-07-16T12:42:04Z</time>
      </trkpt>
      <trkpt lat="45.921922428533435" lon="6.827992117032409">
        <ele>2117.4400000000001</ele>
        <time>2014-07-16T12:42:09Z</time>
      </trkpt>
      <trkpt lat="45.921892086043954" lon="6.828083815053105">
        <ele>2114.0799999999999</ele>
        <time>2014-07-16T12:42:24Z</time>
      </trkpt>
      <trkpt lat="45.921897366642952" lon="6.828047689050436">
        <ele>2114.0799999999999</ele>
        <time>2014-07-16T12:42:29Z</time>
      </trkpt>
      <trkpt lat="45.921911112964153" lon="6.82796630077064">
        <ele>2113.1199999999999</ele>
        <time>2014-07-16T12:42:43Z</time>
      </trkpt>
      <trkpt lat="45.921905832365155" lon="6.827954398468137">
        <ele>2113.1199999999999</ele>
        <time>2014-07-16T12:42:44Z</time>
      </trkpt>
      <trkpt lat="45.921795442700386" lon="6.827862784266472">
        <ele>2109.27</ele>
        <time>2014-07-16T12:42:59Z</time>
      </trkpt>
      <trkpt lat="45.921780522912741" lon="6.827879212796688">
        <ele>2108.3099999999999</ele>
        <time>2014-07-16T12:43:02Z</time>
      </trkpt>
      <trkpt lat="45.921774571761489" lon="6.82798826135695">
        <ele>2105.9099999999999</ele>
        <time>2014-07-16T12:43:12Z</time>
      </trkpt>
      <trkpt lat="45.921745402738452" lon="6.827910393476486">
        <ele>2104.9400000000001</ele>
        <time>2014-07-16T12:43:18Z</time>
      </trkpt>
      <trkpt lat="45.921692848205566" lon="6.827860185876489">
        <ele>2103.5</ele>
        <time>2014-07-16T12:43:24Z</time>
      </trkpt>
      <trkpt lat="45.921659069135785" lon="6.827810648828745">
        <ele>2102.0599999999999</ele>
        <time>2014-07-16T12:43:28Z</time>
      </trkpt>
      <trkpt lat="45.921608945354819" lon="6.827946603298187">
        <ele>2099.1799999999998</ele>
        <time>2014-07-16T12:43:37Z</time>
      </trkpt>
      <trkpt lat="45.92153619043529" lon="6.827994799241424">
        <ele>2095.8099999999999</ele>
        <time>2014-07-16T12:43:49Z</time>
      </trkpt>
      <trkpt lat="45.921474499627948" lon="6.828020699322224">
        <ele>2092.9299999999998</ele>
        <time>2014-07-16T12:44:02Z</time>
      </trkpt>
      <trkpt lat="45.921469973400235" lon="6.828027153387666">
        <ele>2092.4499999999998</ele>
        <time>2014-07-16T12:44:03Z</time>
      </trkpt>
      <trkpt lat="45.921362349763513" lon="6.828087670728564">
        <ele>2089.5599999999999</ele>
        <time>2014-07-16T12:44:16Z</time>
      </trkpt>
      <trkpt lat="45.921358745545149" lon="6.828090604394674">
        <ele>2089.0799999999999</ele>
        <time>2014-07-16T12:44:17Z</time>
      </trkpt>
      <trkpt lat="45.921307364478707" lon="6.828139303252101">
        <ele>2087.1599999999999</ele>
        <time>2014-07-16T12:44:26Z</time>
      </trkpt>
      <trkpt lat="45.921299653127789" lon="6.82799169793725">
        <ele>2084.7600000000002</ele>
        <time>2014-07-16T12:44:35Z</time>
      </trkpt>
      <trkpt lat="45.921347262337804" lon="6.827893797308207">
        <ele>2083.3099999999999</ele>
        <time>2014-07-16T12:44:43Z</time>
      </trkpt>
      <trkpt lat="45.9213578235358" lon="6.82780209928751">
        <ele>2082.8299999999999</ele>
        <time>2014-07-16T12:44:49Z</time>
      </trkpt>
      <trkpt lat="45.921342065557837" lon="6.827767733484507">
        <ele>2080.9099999999999</ele>
        <time>2014-07-16T12:44:52Z</time>
      </trkpt>
      <trkpt lat="45.921315411105752" lon="6.827658768743277">
        <ele>2078.9899999999998</ele>
        <time>2014-07-16T12:45:02Z</time>
      </trkpt>
      <trkpt lat="45.921230586245656" lon="6.827568747103214">
        <ele>2076.5900000000001</ele>
        <time>2014-07-16T12:45:14Z</time>
      </trkpt>
      <trkpt lat="45.921225640922785" lon="6.827552067115903">
        <ele>2076.5900000000001</ele>
        <time>2014-07-16T12:45:15Z</time>
      </trkpt>
      <trkpt lat="45.921188089996576" lon="6.827398678287864">
        <ele>2075.1399999999999</ele>
        <time>2014-07-16T12:45:26Z</time>
      </trkpt>
      <trkpt lat="45.921178869903088" lon="6.827358193695545">
        <ele>2074.1799999999998</ele>
        <time>2014-07-16T12:45:30Z</time>
      </trkpt>
      <trkpt lat="45.921155316755176" lon="6.827332796528935">
        <ele>2073.6999999999998</ele>
        <time>2014-07-16T12:45:33Z</time>
      </trkpt>
      <trkpt lat="45.921138804405928" lon="6.82727538049221">
        <ele>2072.2600000000002</ele>
        <time>2014-07-16T12:45:37Z</time>
      </trkpt>
      <trkpt lat="45.921106282621622" lon="6.827229950577021">
        <ele>2070.3400000000001</ele>
        <time>2014-07-16T12:45:42Z</time>
      </trkpt>
      <trkpt lat="45.921071330085397" lon="6.827243529260159">
        <ele>2068.8899999999999</ele>
        <time>2014-07-16T12:45:49Z</time>
      </trkpt>
      <trkpt lat="45.921070324257016" lon="6.827336987480521">
        <ele>2067.9299999999998</ele>
        <time>2014-07-16T12:45:56Z</time>
      </trkpt>
      <trkpt lat="45.921081723645329" lon="6.827378058806062">
        <ele>2067.4499999999998</ele>
        <time>2014-07-16T12:46:00Z</time>
      </trkpt>
      <trkpt lat="45.921057080850005" lon="6.827390464022756">
        <ele>2066.4899999999998</ele>
        <time>2014-07-16T12:46:03Z</time>
      </trkpt>
      <trkpt lat="45.921003017574549" lon="6.827301867306233">
        <ele>2064.5700000000002</ele>
        <time>2014-07-16T12:46:09Z</time>
      </trkpt>
      <trkpt lat="45.920997150242329" lon="6.827288959175348">
        <ele>2064.5700000000002</ele>
        <time>2014-07-16T12:46:10Z</time>
      </trkpt>
      <trkpt lat="45.92095909640193" lon="6.827268591150641">
        <ele>2063.6100000000001</ele>
        <time>2014-07-16T12:46:14Z</time>
      </trkpt>
      <trkpt lat="45.920944595709443" lon="6.82724604383111">
        <ele>2062.6500000000001</ele>
        <time>2014-07-16T12:46:16Z</time>
      </trkpt>
      <trkpt lat="45.920853735879064" lon="6.82720061391592">
        <ele>2059.7600000000002</ele>
        <time>2014-07-16T12:46:26Z</time>
      </trkpt>
      <trkpt lat="45.920826410874724" lon="6.82719374075532">
        <ele>2059.7600000000002</ele>
        <time>2014-07-16T12:46:28Z</time>
      </trkpt>
      <trkpt lat="45.920797158032656" lon="6.827155016362667">
        <ele>2057.8400000000001</ele>
        <time>2014-07-16T12:46:32Z</time>
      </trkpt>
      <trkpt lat="45.920768324285746" lon="6.827130876481533">
        <ele>2056.4000000000001</ele>
        <time>2014-07-16T12:46:35Z</time>
      </trkpt>
      <trkpt lat="45.920677212998271" lon="6.827182928100228">
        <ele>2054.96</ele>
        <time>2014-07-16T12:46:43Z</time>
      </trkpt>
      <trkpt lat="45.920517034828663" lon="6.82710824534297">
        <ele>2052.5500000000002</ele>
        <time>2014-07-16T12:46:57Z</time>
      </trkpt>
      <trkpt lat="45.920551065355539" lon="6.82694991119206">
        <ele>2050.6300000000001</ele>
        <time>2014-07-16T12:47:09Z</time>
      </trkpt>
      <trkpt lat="45.920582581311464" lon="6.826840694993734">
        <ele>2050.6300000000001</ele>
        <time>2014-07-16T12:47:23Z</time>
      </trkpt>
      <trkpt lat="45.920581491664052" lon="6.8268355820328">
        <ele>2050.6300000000001</ele>
        <time>2014-07-16T12:47:24Z</time>
      </trkpt>
      <trkpt lat="45.920488284900784" lon="6.826885538175702">
        <ele>2049.1900000000001</ele>
        <time>2014-07-16T12:47:38Z</time>
      </trkpt>
      <trkpt lat="45.920463893562555" lon="6.826891656965017">
        <ele>2049.1900000000001</ele>
        <time>2014-07-16T12:47:43Z</time>
      </trkpt>
      <trkpt lat="45.920411674305797" lon="6.826961310580373">
        <ele>2045.8199999999999</ele>
        <time>2014-07-16T12:47:57Z</time>
      </trkpt>
      <trkpt lat="45.92035953886807" lon="6.826954185962677">
        <ele>2043.4200000000001</ele>
        <time>2014-07-16T12:48:01Z</time>
      </trkpt>
      <trkpt lat="45.92029650695622" lon="6.826921077445149">
        <ele>2041.02</ele>
        <time>2014-07-16T12:48:13Z</time>
      </trkpt>
      <trkpt lat="45.92030874453485" lon="6.826988467946649">
        <ele>2040.05</ele>
        <time>2014-07-16T12:48:18Z</time>
      </trkpt>
      <trkpt lat="45.92029214836657" lon="6.827029120177031">
        <ele>2039.0899999999999</ele>
        <time>2014-07-16T12:48:21Z</time>
      </trkpt>
      <trkpt lat="45.920309498906136" lon="6.827113945037127">
        <ele>2036.21</ele>
        <time>2014-07-16T12:48:30Z</time>
      </trkpt>
      <trkpt lat="45.920237079262733" lon="6.827039681375027">
        <ele>2033.8099999999999</ele>
        <time>2014-07-16T12:48:38Z</time>
      </trkpt>
      <trkpt lat="45.920198857784271" lon="6.82700514793396">
        <ele>2032.8399999999999</ele>
        <time>2014-07-16T12:48:45Z</time>
      </trkpt>
      <trkpt lat="45.920175053179264" lon="6.826947564259172">
        <ele>2031.8800000000001</ele>
        <time>2014-07-16T12:48:51Z</time>
      </trkpt>
      <trkpt lat="45.920129204168916" lon="6.826973631978035">
        <ele>2030.4400000000001</ele>
        <time>2014-07-16T12:48:58Z</time>
      </trkpt>
      <trkpt lat="45.920152254402637" lon="6.827073208987713">
        <ele>2028.52</ele>
        <time>2014-07-16T12:49:06Z</time>
      </trkpt>
      <trkpt lat="45.920194750651717" lon="6.827222825959325">
        <ele>2027.0799999999999</ele>
        <time>2014-07-16T12:49:20Z</time>
      </trkpt>
      <trkpt lat="45.920180920511484" lon="6.82722358033061">
        <ele>2026.5999999999999</ele>
        <time>2014-07-16T12:49:23Z</time>
      </trkpt>
      <trkpt lat="45.920165665447712" lon="6.827195249497891">
        <ele>2025.1500000000001</ele>
        <time>2014-07-16T12:49:26Z</time>
      </trkpt>
      <trkpt lat="45.920110931620002" lon="6.827090894803405">
        <ele>2022.27</ele>
        <time>2014-07-16T12:49:38Z</time>
      </trkpt>
      <trkpt lat="45.920085031539202" lon="6.827114867046475">
        <ele>2021.3099999999999</ele>
        <time>2014-07-16T12:49:45Z</time>
      </trkpt>
      <trkpt lat="45.920088216662407" lon="6.827175635844469">
        <ele>2020.3499999999999</ele>
        <time>2014-07-16T12:49:49Z</time>
      </trkpt>
      <trkpt lat="45.920092659071088" lon="6.827275212854147">
        <ele>2016.98</ele>
        <time>2014-07-16T12:50:01Z</time>
      </trkpt>
      <trkpt lat="45.920082684606314" lon="6.827277224510908">
        <ele>2016.98</ele>
        <time>2014-07-16T12:50:02Z</time>
      </trkpt>
      <trkpt lat="45.9200385119766" lon="6.827206816524267">
        <ele>2015.54</ele>
        <time>2014-07-16T12:50:14Z</time>
      </trkpt>
      <trkpt lat="45.920022334903479" lon="6.827242691069841">
        <ele>2014.5799999999999</ele>
        <time>2014-07-16T12:50:23Z</time>
      </trkpt>
      <trkpt lat="45.919989896938205" lon="6.8272396735847">
        <ele>2012.1800000000001</ele>
        <time>2014-07-16T12:50:34Z</time>
      </trkpt>
      <trkpt lat="45.91998771764338" lon="6.827269345521927">
        <ele>2011.22</ele>
        <time>2014-07-16T12:50:38Z</time>
      </trkpt>
      <trkpt lat="45.919945808127522" lon="6.827206984162331">
        <ele>2009.77</ele>
        <time>2014-07-16T12:50:46Z</time>
      </trkpt>
      <trkpt lat="45.919914711266756" lon="6.827214863151312">
        <ele>2008.8099999999999</ele>
        <time>2014-07-16T12:50:49Z</time>
      </trkpt>
      <trkpt lat="45.91990222223103" lon="6.827197261154652">
        <ele>2008.3299999999999</ele>
        <time>2014-07-16T12:50:51Z</time>
      </trkpt>
      <trkpt lat="45.919901886954904" lon="6.827171863988042">
        <ele>2008.3299999999999</ele>
        <time>2014-07-16T12:50:52Z</time>
      </trkpt>
      <trkpt lat="45.919852936640382" lon="6.827164487913251">
        <ele>2007.3699999999999</ele>
        <time>2014-07-16T12:50:59Z</time>
      </trkpt>
      <trkpt lat="45.919857127591968" lon="6.827207487076521">
        <ele>2006.8900000000001</ele>
        <time>2014-07-16T12:51:02Z</time>
      </trkpt>
      <trkpt lat="45.919884201139212" lon="6.827285103499889">
        <ele>2004.49</ele>
        <time>2014-07-16T12:51:08Z</time>
      </trkpt>
      <trkpt lat="45.919917980208993" lon="6.827419381588697">
        <ele>2001.5999999999999</ele>
        <time>2014-07-16T12:51:22Z</time>
      </trkpt>
      <trkpt lat="45.919934827834368" lon="6.827418459579349">
        <ele>2001.5999999999999</ele>
        <time>2014-07-16T12:51:24Z</time>
      </trkpt>
      <trkpt lat="45.920002302154899" lon="6.827492555603385">
        <ele>2000.1600000000001</ele>
        <time>2014-07-16T12:51:36Z</time>
      </trkpt>
      <trkpt lat="45.920010348781943" lon="6.827535638585687">
        <ele>1999.6800000000001</ele>
        <time>2014-07-16T12:51:40Z</time>
      </trkpt>
      <trkpt lat="45.919980341568589" lon="6.827576039358974">
        <ele>1996.3199999999999</ele>
        <time>2014-07-16T12:51:54Z</time>
      </trkpt>
      <trkpt lat="45.919942790642381" lon="6.827621133998036">
        <ele>1993.4300000000001</ele>
        <time>2014-07-16T12:52:06Z</time>
      </trkpt>
      <trkpt lat="45.919887218624353" lon="6.827637143433094">
        <ele>1990.0699999999999</ele>
        <time>2014-07-16T12:52:18Z</time>
      </trkpt>
      <trkpt lat="45.919802812859416" lon="6.827640580013394">
        <ele>1986.7</ele>
        <time>2014-07-16T12:52:27Z</time>
      </trkpt>
      <trkpt lat="45.919797951355577" lon="6.827634377405047">
        <ele>1986.7</ele>
        <time>2014-07-16T12:52:28Z</time>
      </trkpt>
      <trkpt lat="45.919754365459085" lon="6.827567405998707">
        <ele>1984.78</ele>
        <time>2014-07-16T12:52:36Z</time>
      </trkpt>
      <trkpt lat="45.919731399044394" lon="6.827548630535603">
        <ele>1984.78</ele>
        <time>2014-07-16T12:52:39Z</time>
      </trkpt>
      <trkpt lat="45.919661242514849" lon="6.827431032434106">
        <ele>1982.3800000000001</ele>
        <time>2014-07-16T12:52:50Z</time>
      </trkpt>
      <trkpt lat="45.919581195339561" lon="6.827316954731941">
        <ele>1979.01</ele>
        <time>2014-07-16T12:53:03Z</time>
      </trkpt>
      <trkpt lat="45.91950056143105" lon="6.827177312225103">
        <ele>1976.6099999999999</ele>
        <time>2014-07-16T12:53:17Z</time>
      </trkpt>
      <trkpt lat="45.919495364651084" lon="6.827174546197057">
        <ele>1977.0899999999999</ele>
        <time>2014-07-16T12:53:18Z</time>
      </trkpt>
      <trkpt lat="45.919400984421372" lon="6.827150909230113">
        <ele>1978.05</ele>
        <time>2014-07-16T12:53:29Z</time>
      </trkpt>
      <trkpt lat="45.91937055811286" lon="6.827167421579361">
        <ele>1977.0899999999999</ele>
        <time>2014-07-16T12:53:32Z</time>
      </trkpt>
      <trkpt lat="45.919268969446421" lon="6.827084524556994">
        <ele>1974.2</ele>
        <time>2014-07-16T12:53:46Z</time>
      </trkpt>
      <trkpt lat="45.919164195656776" lon="6.827050745487213">
        <ele>1972.28</ele>
        <time>2014-07-16T12:53:58Z</time>
      </trkpt>
      <trkpt lat="45.919151622802019" lon="6.827049823477864">
        <ele>1972.28</ele>
        <time>2014-07-16T12:53:59Z</time>
      </trkpt>
      <trkpt lat="45.919065456837416" lon="6.827115956693888">
        <ele>1970.3599999999999</ele>
        <time>2014-07-16T12:54:13Z</time>
      </trkpt>
      <trkpt lat="45.919094877317548" lon="6.827150825411081">
        <ele>1967.96</ele>
        <time>2014-07-16T12:54:23Z</time>
      </trkpt>
      <trkpt lat="45.919117005541921" lon="6.82714780792594">
        <ele>1967.48</ele>
        <time>2014-07-16T12:54:25Z</time>
      </trkpt>
      <trkpt lat="45.919134272262454" lon="6.827159794047475">
        <ele>1966.99</ele>
        <time>2014-07-16T12:54:27Z</time>
      </trkpt>
      <trkpt lat="45.919143240898848" lon="6.827196842059493">
        <ele>1966.03</ele>
        <time>2014-07-16T12:54:30Z</time>
      </trkpt>
      <trkpt lat="45.918931011110544" lon="6.827248809859157">
        <ele>1963.6300000000001</ele>
        <time>2014-07-16T12:54:45Z</time>
      </trkpt>
      <trkpt lat="45.918922126293182" lon="6.827249228954315">
        <ele>1963.6300000000001</ele>
        <time>2014-07-16T12:54:46Z</time>
      </trkpt>
      <trkpt lat="45.918883988633752" lon="6.827257359400392">
        <ele>1963.1500000000001</ele>
        <time>2014-07-16T12:54:50Z</time>
      </trkpt>
      <trkpt lat="45.918736383318901" lon="6.82730857282877">
        <ele>1961.71</ele>
        <time>2014-07-16T12:55:04Z</time>
      </trkpt>
      <trkpt lat="45.918693719431758" lon="6.827331371605396">
        <ele>1960.75</ele>
        <time>2014-07-16T12:55:08Z</time>
      </trkpt>
      <trkpt lat="45.91855357401073" lon="6.827319050207734">
        <ele>1960.75</ele>
        <time>2014-07-16T12:55:23Z</time>
      </trkpt>
      <trkpt lat="45.918468162417412" lon="6.827356768772006">
        <ele>1960.27</ele>
        <time>2014-07-16T12:55:35Z</time>
      </trkpt>
      <trkpt lat="45.918399933725595" lon="6.827345788478851">
        <ele>1959.78</ele>
        <time>2014-07-16T12:55:50Z</time>
      </trkpt>
      <trkpt lat="45.918291136622429" lon="6.827343693003058">
        <ele>1956.9000000000001</ele>
        <time>2014-07-16T12:56:03Z</time>
      </trkpt>
      <trkpt lat="45.918210754171014" lon="6.827324079349637">
        <ele>1954.5</ele>
        <time>2014-07-16T12:56:13Z</time>
      </trkpt>
      <trkpt lat="45.918140010908246" lon="6.827282253652811">
        <ele>1951.6099999999999</ele>
        <time>2014-07-16T12:56:21Z</time>
      </trkpt>
      <trkpt lat="45.918102795258164" lon="6.827221568673849">
        <ele>1951.1300000000001</ele>
        <time>2014-07-16T12:56:28Z</time>
      </trkpt>
      <trkpt lat="45.918082091957331" lon="6.827263059094548">
        <ele>1949.21</ele>
        <time>2014-07-16T12:56:32Z</time>
      </trkpt>
      <trkpt lat="45.918079996481538" lon="6.827338328585029">
        <ele>1946.8099999999999</ele>
        <time>2014-07-16T12:56:42Z</time>
      </trkpt>
      <trkpt lat="45.917936582118273" lon="6.827314859256148">
        <ele>1943.9200000000001</ele>
        <time>2014-07-16T12:56:57Z</time>
      </trkpt>
      <trkpt lat="45.917916381731629" lon="6.827327599748969">
        <ele>1944.4000000000001</ele>
        <time>2014-07-16T12:57:10Z</time>
      </trkpt>
      <trkpt lat="45.917919231578708" lon="6.827332964166999">
        <ele>1944.4000000000001</ele>
        <time>2014-07-16T12:57:26Z</time>
      </trkpt>
      <trkpt lat="45.917922165244818" lon="6.827361881732941">
        <ele>1944.4000000000001</ele>
        <time>2014-07-16T12:57:48Z</time>
      </trkpt>
      <trkpt lat="45.917935995385051" lon="6.82734134607017">
        <ele>1945.8499999999999</ele>
        <time>2014-07-16T12:58:12Z</time>
      </trkpt>
      <trkpt lat="45.917920656502247" lon="6.827367413789034">
        <ele>1944.4000000000001</ele>
        <time>2014-07-16T12:58:31Z</time>
      </trkpt>
      <trkpt lat="45.917857876047492" lon="6.827372191473842">
        <ele>1944.4000000000001</ele>
        <time>2014-07-16T12:58:38Z</time>
      </trkpt>
      <trkpt lat="45.9177659265697" lon="6.827451987192035">
        <ele>1941.52</ele>
        <time>2014-07-16T12:58:51Z</time>
      </trkpt>
      <trkpt lat="45.917732482776046" lon="6.827482916414738">
        <ele>1940.0799999999999</ele>
        <time>2014-07-16T12:58:56Z</time>
      </trkpt>
      <trkpt lat="45.917647825554013" lon="6.827521724626422">
        <ele>1938.6400000000001</ele>
        <time>2014-07-16T12:59:05Z</time>
      </trkpt>
      <trkpt lat="45.91755579225719" lon="6.827577212825418">
        <ele>1935.75</ele>
        <time>2014-07-16T12:59:17Z</time>
      </trkpt>
      <trkpt lat="45.917402487248182" lon="6.827583918347955">
        <ele>1936.23</ele>
        <time>2014-07-16T12:59:30Z</time>
      </trkpt>
      <trkpt lat="45.917357308790088" lon="6.827528346329927">
        <ele>1938.1600000000001</ele>
        <time>2014-07-16T12:59:42Z</time>
      </trkpt>
      <trkpt lat="45.917283045127988" lon="6.827577967196703">
        <ele>1937.6700000000001</ele>
        <time>2014-07-16T12:59:54Z</time>
      </trkpt>
      <trkpt lat="45.917176930233836" lon="6.827532704919577">
        <ele>1935.27</ele>
        <time>2014-07-16T13:00:06Z</time>
      </trkpt>
      <trkpt lat="45.917180785909295" lon="6.827479982748628">
        <ele>1935.75</ele>
        <time>2014-07-16T13:00:19Z</time>
      </trkpt>
      <trkpt lat="45.917117837816477" lon="6.827412340790033">
        <ele>1933.8299999999999</ele>
        <time>2014-07-16T13:00:32Z</time>
      </trkpt>
      <trkpt lat="45.917032593861222" lon="6.827367413789034">
        <ele>1930.46</ele>
        <time>2014-07-16T13:00:46Z</time>
      </trkpt>
      <trkpt lat="45.917040724307299" lon="6.827489035204053">
        <ele>1927.5799999999999</ele>
        <time>2014-07-16T13:00:58Z</time>
      </trkpt>
      <trkpt lat="45.916936453431845" lon="6.827437235042453">
        <ele>1924.22</ele>
        <time>2014-07-16T13:01:11Z</time>
      </trkpt>
      <trkpt lat="45.916903764009476" lon="6.827479563653469">
        <ele>1922.29</ele>
        <time>2014-07-16T13:01:18Z</time>
      </trkpt>
      <trkpt lat="45.916818436235189" lon="6.827501272782683">
        <ele>1918.9300000000001</ele>
        <time>2014-07-16T13:01:32Z</time>
      </trkpt>
      <trkpt lat="45.916778203099966" lon="6.8274209741503">
        <ele>1915.5599999999999</ele>
        <time>2014-07-16T13:01:44Z</time>
      </trkpt>
      <trkpt lat="45.916730761528015" lon="6.827450813725591">
        <ele>1912.6800000000001</ele>
        <time>2014-07-16T13:01:57Z</time>
      </trkpt>
      <trkpt lat="45.916695473715663" lon="6.827496159821749">
        <ele>1909.3199999999999</ele>
        <time>2014-07-16T13:02:10Z</time>
      </trkpt>
      <trkpt lat="45.916693797335029" lon="6.827544942498207">
        <ele>1909.3199999999999</ele>
        <time>2014-07-16T13:02:14Z</time>
      </trkpt>
      <trkpt lat="45.916656665503979" lon="6.82767896912992">
        <ele>1905.95</ele>
        <time>2014-07-16T13:02:29Z</time>
      </trkpt>
      <trkpt lat="45.916626658290625" lon="6.827550558373332">
        <ele>1902.5899999999999</ele>
        <time>2014-07-16T13:02:41Z</time>
      </trkpt>
      <trkpt lat="45.916603524237871" lon="6.82764183729887">
        <ele>1899.7</ele>
        <time>2014-07-16T13:02:54Z</time>
      </trkpt>
      <trkpt lat="45.91657368466258" lon="6.82764083147049">
        <ele>1896.8199999999999</ele>
        <time>2014-07-16T13:03:06Z</time>
      </trkpt>
      <trkpt lat="45.916545353829861" lon="6.827754490077496">
        <ele>1893.9300000000001</ele>
        <time>2014-07-16T13:03:19Z</time>
      </trkpt>
      <trkpt lat="45.916544180363417" lon="6.827845014631748">
        <ele>1892.01</ele>
        <time>2014-07-16T13:03:32Z</time>
      </trkpt>
      <trkpt lat="45.916496152058244" lon="6.827815845608711">
        <ele>1890.0899999999999</ele>
        <time>2014-07-16T13:03:49Z</time>
      </trkpt>
      <trkpt lat="45.916436892002821" lon="6.827646363526583">
        <ele>1886.72</ele>
        <time>2014-07-16T13:04:01Z</time>
      </trkpt>
      <trkpt lat="45.916415518149734" lon="6.82751627638936">
        <ele>1883.8399999999999</ele>
        <time>2014-07-16T13:04:10Z</time>
      </trkpt>
      <trkpt lat="45.916439238935709" lon="6.827490460127592">
        <ele>1882.8800000000001</ele>
        <time>2014-07-16T13:04:23Z</time>
      </trkpt>
      <trkpt lat="45.916424654424191" lon="6.827522227540612">
        <ele>1882.4000000000001</ele>
        <time>2014-07-16T13:04:57Z</time>
      </trkpt>
      <trkpt lat="45.916419038549066" lon="6.827534046024084">
        <ele>1882.4000000000001</ele>
        <time>2014-07-16T13:04:58Z</time>
      </trkpt>
      <trkpt lat="45.91633521951735" lon="6.827631527557969">
        <ele>1878.55</ele>
        <time>2014-07-16T13:05:14Z</time>
      </trkpt>
      <trkpt lat="45.916326334699988" lon="6.827553827315569">
        <ele>1877.5899999999999</ele>
        <time>2014-07-16T13:05:19Z</time>
      </trkpt>
      <trkpt lat="45.916306637227535" lon="6.827522562816739">
        <ele>1877.1099999999999</ele>
        <time>2014-07-16T13:05:21Z</time>
      </trkpt>
      <trkpt lat="45.916272774338722" lon="6.827398091554642">
        <ele>1874.23</ele>
        <time>2014-07-16T13:05:30Z</time>
      </trkpt>
      <trkpt lat="45.916243689134717" lon="6.827479898929596">
        <ele>1872.3</ele>
        <time>2014-07-16T13:05:36Z</time>
      </trkpt>
      <trkpt lat="45.916224662214518" lon="6.827390547841787">
        <ele>1870.3800000000001</ele>
        <time>2014-07-16T13:05:43Z</time>
      </trkpt>
      <trkpt lat="45.916211754083633" lon="6.827316619455814">
        <ele>1868.46</ele>
        <time>2014-07-16T13:05:47Z</time>
      </trkpt>
      <trkpt lat="45.916185602545738" lon="6.827376633882523">
        <ele>1866.54</ele>
        <time>2014-07-16T13:05:55Z</time>
      </trkpt>
      <trkpt lat="45.916142519563437" lon="6.827433463186026">
        <ele>1863.1700000000001</ele>
        <time>2014-07-16T13:06:03Z</time>
      </trkpt>
      <trkpt lat="45.916138496249914" lon="6.827400187030435">
        <ele>1862.6900000000001</ele>
        <time>2014-07-16T13:06:06Z</time>
      </trkpt>
      <trkpt lat="45.916101699694991" lon="6.827293653041124">
        <ele>1859.8099999999999</ele>
        <time>2014-07-16T13:06:17Z</time>
      </trkpt>
      <trkpt lat="45.916067752987146" lon="6.827228609472513">
        <ele>1857.8900000000001</ele>
        <time>2014-07-16T13:06:21Z</time>
      </trkpt>
      <trkpt lat="45.916042104363441" lon="6.827181084081531">
        <ele>1856.4400000000001</ele>
        <time>2014-07-16T13:06:26Z</time>
      </trkpt>
      <trkpt lat="45.915980748832226" lon="6.82707061059773">
        <ele>1854.04</ele>
        <time>2014-07-16T13:06:35Z</time>
      </trkpt>
      <trkpt lat="45.9159130230546" lon="6.826951000839472">
        <ele>1850.6800000000001</ele>
        <time>2014-07-16T13:06:50Z</time>
      </trkpt>
      <trkpt lat="45.915890894830227" lon="6.826903140172362">
        <ele>1849.71</ele>
        <time>2014-07-16T13:07:05Z</time>
      </trkpt>
      <trkpt lat="45.915850410237908" lon="6.826835917308927">
        <ele>1847.79</ele>
        <time>2014-07-16T13:07:15Z</time>
      </trkpt>
      <trkpt lat="45.915729962289333" lon="6.826818734407425">
        <ele>1845.8699999999999</ele>
        <time>2014-07-16T13:07:27Z</time>
      </trkpt>
      <trkpt lat="45.915719401091337" lon="6.826822506263852">
        <ele>1845.3900000000001</ele>
        <time>2014-07-16T13:07:28Z</time>
      </trkpt>
      <trkpt lat="45.9156608954072" lon="6.826779674738646">
        <ele>1842.98</ele>
        <time>2014-07-16T13:07:40Z</time>
      </trkpt>
      <trkpt lat="45.915676318109035" lon="6.826835414394736">
        <ele>1841.0599999999999</ele>
        <time>2014-07-16T13:07:49Z</time>
      </trkpt>
      <trkpt lat="45.915651591494679" lon="6.826835246756673">
        <ele>1840.0999999999999</ele>
        <time>2014-07-16T13:07:51Z</time>
      </trkpt>
      <trkpt lat="45.915565006434917" lon="6.826707255095244">
        <ele>1836.26</ele>
        <time>2014-07-16T13:08:03Z</time>
      </trkpt>
      <trkpt lat="45.915540950372815" lon="6.826604660600424">
        <ele>1834.8099999999999</ele>
        <time>2014-07-16T13:08:13Z</time>
      </trkpt>
      <trkpt lat="45.915497532114387" lon="6.826512962579727">
        <ele>1833.8499999999999</ele>
        <time>2014-07-16T13:08:25Z</time>
      </trkpt>
      <trkpt lat="45.915472051128745" lon="6.826435597613454">
        <ele>1833.3699999999999</ele>
        <time>2014-07-16T13:08:41Z</time>
      </trkpt>
      <trkpt lat="45.915425699204206" lon="6.826390754431486">
        <ele>1831.45</ele>
        <time>2014-07-16T13:08:54Z</time>
      </trkpt>
      <trkpt lat="45.915415473282337" lon="6.826389245688915">
        <ele>1831.45</ele>
        <time>2014-07-16T13:08:56Z</time>
      </trkpt>
      <trkpt lat="45.915370043367147" lon="6.826399387791753">
        <ele>1828.5599999999999</ele>
        <time>2014-07-16T13:09:09Z</time>
      </trkpt>
      <trkpt lat="45.915300054475665" lon="6.826301738619804">
        <ele>1825.6800000000001</ele>
        <time>2014-07-16T13:09:19Z</time>
      </trkpt>
      <trkpt lat="45.915209613740444" lon="6.826157318428159">
        <ele>1822.3199999999999</ele>
        <time>2014-07-16T13:09:33Z</time>
      </trkpt>
      <trkpt lat="45.915226545184851" lon="6.826074253767729">
        <ele>1820.3900000000001</ele>
        <time>2014-07-16T13:09:47Z</time>
      </trkpt>
      <trkpt lat="45.91516736894846" lon="6.826032428070903">
        <ele>1817.51</ele>
        <time>2014-07-16T13:09:59Z</time>
      </trkpt>
      <trkpt lat="45.915100229904056" lon="6.825951626524329">
        <ele>1814.6300000000001</ele>
        <time>2014-07-16T13:10:13Z</time>
      </trkpt>
      <trkpt lat="45.915017668157816" lon="6.825900916010141">
        <ele>1811.74</ele>
        <time>2014-07-16T13:10:26Z</time>
      </trkpt>
      <trkpt lat="45.914955893531442" lon="6.825801925733686">
        <ele>1808.8599999999999</ele>
        <time>2014-07-16T13:10:39Z</time>
      </trkpt>
      <trkpt lat="45.914910631254315" lon="6.825701259076595">
        <ele>1805.97</ele>
        <time>2014-07-16T13:10:53Z</time>
      </trkpt>
      <trkpt lat="45.914868051186204" lon="6.825610315427184">
        <ele>1803.5699999999999</ele>
        <time>2014-07-16T13:11:06Z</time>
      </trkpt>
      <trkpt lat="45.914843827486038" lon="6.825728164985776">
        <ele>1800.21</ele>
        <time>2014-07-16T13:11:18Z</time>
      </trkpt>
      <trkpt lat="45.914805438369513" lon="6.825645267963409">
        <ele>1798.28</ele>
        <time>2014-07-16T13:11:27Z</time>
      </trkpt>
      <trkpt lat="45.914801331236959" lon="6.825585504993796">
        <ele>1797.3199999999999</ele>
        <time>2014-07-16T13:11:31Z</time>
      </trkpt>
      <trkpt lat="45.914754224941134" lon="6.825506966561079">
        <ele>1795.4000000000001</ele>
        <time>2014-07-16T13:11:39Z</time>
      </trkpt>
      <trkpt lat="45.914674932137132" lon="6.82552800513804">
        <ele>1795.4000000000001</ele>
        <time>2014-07-16T13:11:53Z</time>
      </trkpt>
      <trkpt lat="45.914632435888052" lon="6.82556563988328">
        <ele>1793.48</ele>
        <time>2014-07-16T13:12:17Z</time>
      </trkpt>
      <trkpt lat="45.914574852213264" lon="6.825544936582446">
        <ele>1792.03</ele>
        <time>2014-07-16T13:12:31Z</time>
      </trkpt>
      <trkpt lat="45.914603602141142" lon="6.825509984046221">
        <ele>1791.0699999999999</ele>
        <time>2014-07-16T13:12:43Z</time>
      </trkpt>
      <trkpt lat="45.914540570229292" lon="6.825462793931365">
        <ele>1791.55</ele>
        <time>2014-07-16T13:13:09Z</time>
      </trkpt>
      <trkpt lat="45.914550712332129" lon="6.825485341250897">
        <ele>1791.0699999999999</ele>
        <time>2014-07-16T13:13:30Z</time>
      </trkpt>
      <trkpt lat="45.914510311558843" lon="6.825555497780442">
        <ele>1791.0699999999999</ele>
        <time>2014-07-16T13:14:01Z</time>
      </trkpt>
      <trkpt lat="45.91448332183063" lon="6.825530016794801">
        <ele>1792.03</ele>
        <time>2014-07-16T13:14:14Z</time>
      </trkpt>
      <trkpt lat="45.91450285166502" lon="6.825496070086956">
        <ele>1793.48</ele>
        <time>2014-07-16T13:14:20Z</time>
      </trkpt>
      <trkpt lat="45.91450285166502" lon="6.825486263260245">
        <ele>1791.55</ele>
        <time>2014-07-16T13:14:41Z</time>
      </trkpt>
      <trkpt lat="45.914452560245991" lon="6.82545768097043">
        <ele>1791.55</ele>
        <time>2014-07-16T13:15:05Z</time>
      </trkpt>
      <trkpt lat="45.91449941508472" lon="6.82550260797143">
        <ele>1792.03</ele>
        <time>2014-07-16T13:15:26Z</time>
      </trkpt>
      <trkpt lat="45.914426660165191" lon="6.825501099228859">
        <ele>1792.03</ele>
        <time>2014-07-16T13:15:52Z</time>
      </trkpt>
      <trkpt lat="45.914441496133804" lon="6.825534962117672">
        <ele>1792.03</ele>
        <time>2014-07-16T13:16:10Z</time>
      </trkpt>
      <trkpt lat="45.914498660713434" lon="6.825580140575767">
        <ele>1793</ele>
        <time>2014-07-16T13:16:21Z</time>
      </trkpt>
      <trkpt lat="45.914582312107086" lon="6.825568825006485">
        <ele>1792.03</ele>
        <time>2014-07-16T13:16:59Z</time>
      </trkpt>
      <trkpt lat="45.914601339027286" lon="6.825570249930024">
        <ele>1792.03</ele>
        <time>2014-07-16T13:17:27Z</time>
      </trkpt>
      <trkpt lat="45.914557753130794" lon="6.825533201918006">
        <ele>1792.03</ele>
        <time>2014-07-16T13:17:54Z</time>
      </trkpt>
      <trkpt lat="45.914614498615265" lon="6.825531106442213">
        <ele>1792.03</ele>
        <time>2014-07-16T13:18:14Z</time>
      </trkpt>
      <trkpt lat="45.91465774923563" lon="6.825532112270594">
        <ele>1791.55</ele>
        <time>2014-07-16T13:18:37Z</time>
      </trkpt>
      <trkpt lat="45.914581809192896" lon="6.825497578829527">
        <ele>1791.0699999999999</ele>
        <time>2014-07-16T13:19:00Z</time>
      </trkpt>
      <trkpt lat="45.914567308500409" lon="6.825450053438544">
        <ele>1791.55</ele>
        <time>2014-07-16T13:19:20Z</time>
      </trkpt>
      <trkpt lat="45.914547359570861" lon="6.825491124764085">
        <ele>1791.0699999999999</ele>
        <time>2014-07-16T13:19:37Z</time>
      </trkpt>
      <trkpt lat="45.914539732038975" lon="6.825484167784452">
        <ele>1790.5899999999999</ele>
        <time>2014-07-16T13:19:58Z</time>
      </trkpt>
      <trkpt lat="45.914523554965854" lon="6.825494728982449">
        <ele>1790.5899999999999</ele>
        <time>2014-07-16T13:20:22Z</time>
      </trkpt>
      <trkpt lat="45.914569403976202" lon="6.825495483353734">
        <ele>1791.0699999999999</ele>
        <time>2014-07-16T13:20:39Z</time>
      </trkpt>
      <trkpt lat="45.914605781435966" lon="6.825515180826187">
        <ele>1790.5899999999999</ele>
        <time>2014-07-16T13:21:01Z</time>
      </trkpt>
      <trkpt lat="45.914564961567521" lon="6.82550847530365">
        <ele>1790.5899999999999</ele>
        <time>2014-07-16T13:21:25Z</time>
      </trkpt>
      <trkpt lat="45.914498660713434" lon="6.825448628515005">
        <ele>1788.6700000000001</ele>
        <time>2014-07-16T13:21:40Z</time>
      </trkpt>
      <trkpt lat="45.914421631023288" lon="6.825389619916678">
        <ele>1785.3099999999999</ele>
        <time>2014-07-16T13:21:57Z</time>
      </trkpt>
      <trkpt lat="45.914332028478384" lon="6.825337819755077">
        <ele>1782.4200000000001</ele>
        <time>2014-07-16T13:22:07Z</time>
      </trkpt>
      <trkpt lat="45.91430839151144" lon="6.825334215536714">
        <ele>1781.46</ele>
        <time>2014-07-16T13:22:10Z</time>
      </trkpt>
      <trkpt lat="45.914301266893744" lon="6.825342932716012">
        <ele>1778.0999999999999</ele>
        <time>2014-07-16T13:22:22Z</time>
      </trkpt>
      <trkpt lat="45.914256256073713" lon="6.825301693752408">
        <ele>1776.6500000000001</ele>
        <time>2014-07-16T13:22:32Z</time>
      </trkpt>
      <trkpt lat="45.914227925240993" lon="6.825266825035214">
        <ele>1775.6900000000001</ele>
        <time>2014-07-16T13:22:40Z</time>
      </trkpt>
      <trkpt lat="45.914132706820965" lon="6.82520454749465">
        <ele>1773.29</ele>
        <time>2014-07-16T13:22:54Z</time>
      </trkpt>
      <trkpt lat="45.914102783426642" lon="6.825176132842898">
        <ele>1772.8099999999999</ele>
        <time>2014-07-16T13:22:58Z</time>
      </trkpt>
      <trkpt lat="45.914077134802938" lon="6.82515618391335">
        <ele>1771.8499999999999</ele>
        <time>2014-07-16T13:23:01Z</time>
      </trkpt>
      <trkpt lat="45.913968086242676" lon="6.825054427608848">
        <ele>1768.48</ele>
        <time>2014-07-16T13:23:17Z</time>
      </trkpt>
      <trkpt lat="45.913898264989257" lon="6.824975637719035">
        <ele>1766.0799999999999</ele>
        <time>2014-07-16T13:23:30Z</time>
      </trkpt>
      <trkpt lat="45.913781337440014" lon="6.824876144528389">
        <ele>1762.71</ele>
        <time>2014-07-16T13:23:43Z</time>
      </trkpt>
      <trkpt lat="45.913667930290103" lon="6.824831385165453">
        <ele>1759.8299999999999</ele>
        <time>2014-07-16T13:23:57Z</time>
      </trkpt>
      <trkpt lat="45.913552511483431" lon="6.824795678257942">
        <ele>1756.47</ele>
        <time>2014-07-16T13:24:08Z</time>
      </trkpt>
      <trkpt lat="45.913541279733181" lon="6.824788972735405">
        <ele>1756.47</ele>
        <time>2014-07-16T13:24:09Z</time>
      </trkpt>
      <trkpt lat="45.913403397426009" lon="6.824719067662954">
        <ele>1752.6199999999999</ele>
        <time>2014-07-16T13:24:24Z</time>
      </trkpt>
      <trkpt lat="45.913336928933859" lon="6.824587555602193">
        <ele>1750.22</ele>
        <time>2014-07-16T13:24:37Z</time>
      </trkpt>
      <trkpt lat="45.9132329095155" lon="6.824429975822568">
        <ele>1747.8099999999999</ele>
        <time>2014-07-16T13:24:50Z</time>
      </trkpt>
      <trkpt lat="45.913143809884787" lon="6.824269713833928">
        <ele>1745.4100000000001</ele>
        <time>2014-07-16T13:25:04Z</time>
      </trkpt>
      <trkpt lat="45.913036353886127" lon="6.824027728289366">
        <ele>1743.01</ele>
        <time>2014-07-16T13:25:21Z</time>
      </trkpt>
      <trkpt lat="45.912965442985296" lon="6.823864281177521">
        <ele>1741.0799999999999</ele>
        <time>2014-07-16T13:25:34Z</time>
      </trkpt>
      <trkpt lat="45.912892268970609" lon="6.823714412748814">
        <ele>1739.6400000000001</ele>
        <time>2014-07-16T13:25:47Z</time>
      </trkpt>
      <trkpt lat="45.912846336141229" lon="6.823694463819265">
        <ele>1738.6800000000001</ele>
        <time>2014-07-16T13:25:51Z</time>
      </trkpt>
      <trkpt lat="45.912836445495486" lon="6.82368490844965">
        <ele>1738.6800000000001</ele>
        <time>2014-07-16T13:25:52Z</time>
      </trkpt>
      <trkpt lat="45.91276184655726" lon="6.8235441762954">
        <ele>1735.3199999999999</ele>
        <time>2014-07-16T13:26:07Z</time>
      </trkpt>
      <trkpt lat="45.912711974233389" lon="6.823408640921116">
        <ele>1733.3900000000001</ele>
        <time>2014-07-16T13:26:21Z</time>
      </trkpt>
      <trkpt lat="45.91265732422471" lon="6.823281068354845">
        <ele>1730.51</ele>
        <time>2014-07-16T13:26:34Z</time>
      </trkpt>
      <trkpt lat="45.912612900137901" lon="6.823178809136152">
        <ele>1729.0699999999999</ele>
        <time>2014-07-16T13:26:48Z</time>
      </trkpt>
      <trkpt lat="45.912563195452094" lon="6.823152238503099">
        <ele>1727.1500000000001</ele>
        <time>2014-07-16T13:26:55Z</time>
      </trkpt>
      <trkpt lat="45.912532266229391" lon="6.823082752525806">
        <ele>1726.1800000000001</ele>
        <time>2014-07-16T13:27:03Z</time>
      </trkpt>
      <trkpt lat="45.912469318136573" lon="6.822930872440338">
        <ele>1723.3</ele>
        <time>2014-07-16T13:27:17Z</time>
      </trkpt>
      <trkpt lat="45.912463953718543" lon="6.822897512465715">
        <ele>1722.8199999999999</ele>
        <time>2014-07-16T13:27:22Z</time>
      </trkpt>
      <trkpt lat="45.912419781088829" lon="6.8227877933532">
        <ele>1720.4200000000001</ele>
        <time>2014-07-16T13:27:33Z</time>
      </trkpt>
      <trkpt lat="45.912378039211035" lon="6.822698190808296">
        <ele>1717.53</ele>
        <time>2014-07-16T13:27:46Z</time>
      </trkpt>
      <trkpt lat="45.912345182150602" lon="6.822776310145855">
        <ele>1715.1300000000001</ele>
        <time>2014-07-16T13:27:55Z</time>
      </trkpt>
      <trkpt lat="45.912301512435079" lon="6.822604816406965">
        <ele>1713.21</ele>
        <time>2014-07-16T13:28:08Z</time>
      </trkpt>
      <trkpt lat="45.912312241271138" lon="6.822536420077086">
        <ele>1712.25</ele>
        <time>2014-07-16T13:28:13Z</time>
      </trkpt>
      <trkpt lat="45.912305032834411" lon="6.822376912459731">
        <ele>1711.28</ele>
        <time>2014-07-16T13:28:25Z</time>
      </trkpt>
      <trkpt lat="45.91226639226079" lon="6.822265181690455">
        <ele>1709.3599999999999</ele>
        <time>2014-07-16T13:28:36Z</time>
      </trkpt>
      <trkpt lat="45.912218615412712" lon="6.822104249149561">
        <ele>1708.4000000000001</ele>
        <time>2014-07-16T13:28:49Z</time>
      </trkpt>
      <trkpt lat="45.912246527150273" lon="6.82204264216125">
        <ele>1709.3599999999999</ele>
        <time>2014-07-16T13:28:59Z</time>
      </trkpt>
      <trkpt lat="45.912259770557284" lon="6.82201967574656">
        <ele>1709.3599999999999</ele>
        <time>2014-07-16T13:29:05Z</time>
      </trkpt>
      <trkpt lat="45.912267733365297" lon="6.821988495066762">
        <ele>1709.3599999999999</ele>
        <time>2014-07-16T13:29:07Z</time>
      </trkpt>
      <trkpt lat="45.912247449159622" lon="6.821934096515179">
        <ele>1709.8399999999999</ele>
        <time>2014-07-16T13:29:21Z</time>
      </trkpt>
      <trkpt lat="45.912266811355948" lon="6.821816163137555">
        <ele>1710.3199999999999</ele>
        <time>2014-07-16T13:29:35Z</time>
      </trkpt>
      <trkpt lat="45.912257842719555" lon="6.821751454845071">
        <ele>1710.3199999999999</ele>
        <time>2014-07-16T13:29:39Z</time>
      </trkpt>
      <trkpt lat="45.912278378382325" lon="6.821595132350922">
        <ele>1710.3199999999999</ele>
        <time>2014-07-16T13:29:54Z</time>
      </trkpt>
      <trkpt lat="45.912290196865797" lon="6.821506870910525">
        <ele>1707.4400000000001</ele>
        <time>2014-07-16T13:30:06Z</time>
      </trkpt>
      <trkpt lat="45.912306709215045" lon="6.821418609470129">
        <ele>1705.04</ele>
        <time>2014-07-16T13:30:19Z</time>
      </trkpt>
      <trkpt lat="45.912310983985662" lon="6.82132288813591">
        <ele>1702.1500000000001</ele>
        <time>2014-07-16T13:30:31Z</time>
      </trkpt>
      <trkpt lat="45.912328753620386" lon="6.821259940043092">
        <ele>1700.71</ele>
        <time>2014-07-16T13:30:44Z</time>
      </trkpt>
      <trkpt lat="45.912353899329901" lon="6.82120269164443">
        <ele>1698.3099999999999</ele>
        <time>2014-07-16T13:30:55Z</time>
      </trkpt>
      <trkpt lat="45.912362784147263" lon="6.821140414103866">
        <ele>1696.8599999999999</ele>
        <time>2014-07-16T13:31:09Z</time>
      </trkpt>
      <trkpt lat="45.912325484678149" lon="6.821161201223731">
        <ele>1695.4200000000001</ele>
        <time>2014-07-16T13:31:25Z</time>
      </trkpt>
      <trkpt lat="45.912320874631405" lon="6.821209313347936">
        <ele>1694.46</ele>
        <time>2014-07-16T13:31:40Z</time>
      </trkpt>
      <trkpt lat="45.912299668416381" lon="6.821261448785663">
        <ele>1694.46</ele>
        <time>2014-07-16T13:31:52Z</time>
      </trkpt>
      <trkpt lat="45.912231523543596" lon="6.821310566738248">
        <ele>1692.0599999999999</ele>
        <time>2014-07-16T13:32:07Z</time>
      </trkpt>
      <trkpt lat="45.912188272923231" lon="6.821253318339586">
        <ele>1689.6500000000001</ele>
        <time>2014-07-16T13:32:22Z</time>
      </trkpt>
      <trkpt lat="45.912139657884836" lon="6.821321882307529">
        <ele>1687.73</ele>
        <time>2014-07-16T13:32:36Z</time>
      </trkpt>
      <trkpt lat="45.912087690085173" lon="6.821357337757945">
        <ele>1686.29</ele>
        <time>2014-07-16T13:32:48Z</time>
      </trkpt>
      <trkpt lat="45.91206799261272" lon="6.821339065209031">
        <ele>1684.8499999999999</ele>
        <time>2014-07-16T13:32:59Z</time>
      </trkpt>
      <trkpt lat="45.91203236952424" lon="6.821368904784322">
        <ele>1683.8900000000001</ele>
        <time>2014-07-16T13:33:02Z</time>
      </trkpt>
      <trkpt lat="45.912020467221737" lon="6.8213907815516">
        <ele>1683.4100000000001</ele>
        <time>2014-07-16T13:33:04Z</time>
      </trkpt>
      <trkpt lat="45.912003200501204" lon="6.821349961683154">
        <ele>1681.96</ele>
        <time>2014-07-16T13:33:19Z</time>
      </trkpt>
      <trkpt lat="45.912039577960968" lon="6.821241667494178">
        <ele>1681</ele>
        <time>2014-07-16T13:33:33Z</time>
      </trkpt>
      <trkpt lat="45.91208266094327" lon="6.821161368861795">
        <ele>1678.1199999999999</ele>
        <time>2014-07-16T13:33:47Z</time>
      </trkpt>
      <trkpt lat="45.9120880253613" lon="6.821099007502198">
        <ele>1676.6800000000001</ele>
        <time>2014-07-16T13:33:54Z</time>
      </trkpt>
      <trkpt lat="45.912016276270151" lon="6.821140497922897">
        <ele>1675.23</ele>
        <time>2014-07-16T13:34:05Z</time>
      </trkpt>
      <trkpt lat="45.91197126545012" lon="6.821191627532244">
        <ele>1674.27</ele>
        <time>2014-07-16T13:34:19Z</time>
      </trkpt>
      <trkpt lat="45.911954920738935" lon="6.821192717179656">
        <ele>1673.3099999999999</ele>
        <time>2014-07-16T13:34:23Z</time>
      </trkpt>
      <trkpt lat="45.911935139447451" lon="6.821189615875483">
        <ele>1672.8299999999999</ele>
        <time>2014-07-16T13:34:24Z</time>
      </trkpt>
      <trkpt lat="45.911857187747955" lon="6.821137731894851">
        <ele>1672.3499999999999</ele>
        <time>2014-07-16T13:34:36Z</time>
      </trkpt>
      <trkpt lat="45.911768674850464" lon="6.821133121848106">
        <ele>1672.3499999999999</ele>
        <time>2014-07-16T13:34:51Z</time>
      </trkpt>
      <trkpt lat="45.911759287118912" lon="6.821184335276485">
        <ele>1670.9100000000001</ele>
        <time>2014-07-16T13:34:57Z</time>
      </trkpt>
      <trkpt lat="45.911695836111903" lon="6.821156674996018">
        <ele>1670.9100000000001</ele>
        <time>2014-07-16T13:35:03Z</time>
      </trkpt>
      <trkpt lat="45.911596426740289" lon="6.821109317243099">
        <ele>1671.3900000000001</ele>
        <time>2014-07-16T13:35:16Z</time>
      </trkpt>
      <trkpt lat="45.911582680419087" lon="6.821114933118224">
        <ele>1671.3900000000001</ele>
        <time>2014-07-16T13:35:18Z</time>
      </trkpt>
      <trkpt lat="45.911454185843468" lon="6.821115938946605">
        <ele>1671.8699999999999</ele>
        <time>2014-07-16T13:35:33Z</time>
      </trkpt>
      <trkpt lat="45.911423088982701" lon="6.82111082598567">
        <ele>1672.8299999999999</ele>
        <time>2014-07-16T13:35:38Z</time>
      </trkpt>
      <trkpt lat="45.911364080384374" lon="6.82107612490654">
        <ele>1674.75</ele>
        <time>2014-07-16T13:35:52Z</time>
      </trkpt>
      <trkpt lat="45.911358129233122" lon="6.821072604507208">
        <ele>1674.75</ele>
        <time>2014-07-16T13:35:53Z</time>
      </trkpt>
      <trkpt lat="45.911317393183708" lon="6.820994988083839">
        <ele>1674.75</ele>
        <time>2014-07-16T13:36:06Z</time>
      </trkpt>
      <trkpt lat="45.911235166713595" lon="6.821003537625074">
        <ele>1673.79</ele>
        <time>2014-07-16T13:36:18Z</time>
      </trkpt>
      <trkpt lat="45.9112055785954" lon="6.82104385457933">
        <ele>1672.8299999999999</ele>
        <time>2014-07-16T13:36:22Z</time>
      </trkpt>
      <trkpt lat="45.911055374890566" lon="6.821091882884502">
        <ele>1670.9100000000001</ele>
        <time>2014-07-16T13:36:39Z</time>
      </trkpt>
      <trkpt lat="45.911016315221786" lon="6.821077968925238">
        <ele>1670.4300000000001</ele>
        <time>2014-07-16T13:36:43Z</time>
      </trkpt>
      <trkpt lat="45.910885976627469" lon="6.820957437157631">
        <ele>1669.95</ele>
        <time>2014-07-16T13:36:59Z</time>
      </trkpt>
      <trkpt lat="45.910887317731977" lon="6.82093782350421">
        <ele>1669.95</ele>
        <time>2014-07-16T13:37:14Z</time>
      </trkpt>
      <trkpt lat="45.910904752090573" lon="6.820964310318232">
        <ele>1670.9100000000001</ele>
        <time>2014-07-16T13:37:34Z</time>
      </trkpt>
      <trkpt lat="45.91089385561645" lon="6.820957688614726">
        <ele>1671.8699999999999</ele>
        <time>2014-07-16T13:37:52Z</time>
      </trkpt>
      <trkpt lat="45.910885976627469" lon="6.820968920364976">
        <ele>1671.8699999999999</ele>
        <time>2014-07-16T13:37:54Z</time>
      </trkpt>
      <trkpt lat="45.910826297476888" lon="6.820889292284846">
        <ele>1672.8299999999999</ele>
        <time>2014-07-16T13:38:05Z</time>
      </trkpt>
      <trkpt lat="45.911015728488564" lon="6.820748392492533">
        <ele>1671.3900000000001</ele>
        <time>2014-07-16T13:38:21Z</time>
      </trkpt>
      <trkpt lat="45.911035928875208" lon="6.820739842951298">
        <ele>1670.9100000000001</ele>
        <time>2014-07-16T13:38:35Z</time>
      </trkpt>
      <trkpt lat="45.911019081249833" lon="6.820767754688859">
        <ele>1670.9100000000001</ele>
        <time>2014-07-16T13:38:54Z</time>
      </trkpt>
      <trkpt lat="45.910980273038149" lon="6.820719139650464">
        <ele>1670.9100000000001</ele>
        <time>2014-07-16T13:39:08Z</time>
      </trkpt>
      <trkpt lat="45.910959150642157" lon="6.82069156318903">
        <ele>1670.9100000000001</ele>
        <time>2014-07-16T13:39:31Z</time>
      </trkpt>
      <trkpt lat="45.910969711840153" lon="6.820678738877177">
        <ele>1670.4300000000001</ele>
        <time>2014-07-16T13:39:54Z</time>
      </trkpt>
      <trkpt lat="45.91094414703548" lon="6.820694748312235">
        <ele>1670.4300000000001</ele>
        <time>2014-07-16T13:40:12Z</time>
      </trkpt>
      <trkpt lat="45.910920510068536" lon="6.820700699463487">
        <ele>1670.4300000000001</ele>
        <time>2014-07-16T13:40:39Z</time>
      </trkpt>
      <trkpt lat="45.910951606929302" lon="6.820674212649465">
        <ele>1670.4300000000001</ele>
        <time>2014-07-16T13:41:00Z</time>
      </trkpt>
      <trkpt lat="45.910931406542659" lon="6.820693910121918">
        <ele>1670.4300000000001</ele>
        <time>2014-07-16T13:41:24Z</time>
      </trkpt>
      <trkpt lat="45.910933166742325" lon="6.820708997547627">
        <ele>1670.4300000000001</ele>
        <time>2014-07-16T13:41:41Z</time>
      </trkpt>
      <trkpt lat="45.910897292196751" lon="6.820643953979015">
        <ele>1669.95</ele>
        <time>2014-07-16T13:42:13Z</time>
      </trkpt>
      <trkpt lat="45.91086745262146" lon="6.820766665041447">
        <ele>1670.4300000000001</ele>
        <time>2014-07-16T13:42:46Z</time>
      </trkpt>
      <trkpt lat="45.910971639677882" lon="6.820742776617408">
        <ele>1669.95</ele>
        <time>2014-07-16T13:43:10Z</time>
      </trkpt>
      <trkpt lat="45.911024194210768" lon="6.820682929828763">
        <ele>1669.95</ele>
        <time>2014-07-16T13:43:34Z</time>
      </trkpt>
      <trkpt lat="45.910964766517282" lon="6.820681085810065">
        <ele>1669.47</ele>
        <time>2014-07-16T13:44:06Z</time>
      </trkpt>
      <trkpt lat="45.910989912226796" lon="6.820666836574674">
        <ele>1668.99</ele>
        <time>2014-07-16T13:44:31Z</time>
      </trkpt>
      <trkpt lat="45.910886814817786" lon="6.820620400831103">
        <ele>1668.99</ele>
        <time>2014-07-16T13:44:54Z</time>
      </trkpt>
      <trkpt lat="45.910868290811777" lon="6.820546556264162">
        <ele>1668.99</ele>
        <time>2014-07-16T13:44:59Z</time>
      </trkpt>
      <trkpt lat="45.910852532833815" lon="6.820502048358321">
        <ele>1668.99</ele>
        <time>2014-07-16T13:45:03Z</time>
      </trkpt>
      <trkpt lat="45.910814478993416" lon="6.820354359224439">
        <ele>1668.51</ele>
        <time>2014-07-16T13:45:16Z</time>
      </trkpt>
      <trkpt lat="45.910757230594754" lon="6.82018973864615">
        <ele>1666.5799999999999</ele>
        <time>2014-07-16T13:45:29Z</time>
      </trkpt>
      <trkpt lat="45.910758068785071" lon="6.820161491632462">
        <ele>1666.5799999999999</ele>
        <time>2014-07-16T13:45:31Z</time>
      </trkpt>
      <trkpt lat="45.910682296380401" lon="6.820031236857176">
        <ele>1665.6199999999999</ele>
        <time>2014-07-16T13:45:44Z</time>
      </trkpt>
      <trkpt lat="45.910646757110953" lon="6.819902407005429">
        <ele>1665.1400000000001</ele>
        <time>2014-07-16T13:45:56Z</time>
      </trkpt>
      <trkpt lat="45.9105493593961" lon="6.819744743406773">
        <ele>1664.1800000000001</ele>
        <time>2014-07-16T13:46:09Z</time>
      </trkpt>
      <trkpt lat="45.910479538142681" lon="6.819618763402104">
        <ele>1662.74</ele>
        <time>2014-07-16T13:46:22Z</time>
      </trkpt>
      <trkpt lat="45.910404939204454" lon="6.819515749812126">
        <ele>1660.3299999999999</ele>
        <time>2014-07-16T13:46:36Z</time>
      </trkpt>
      <trkpt lat="45.910321706905961" lon="6.819436959922314">
        <ele>1660.8099999999999</ele>
        <time>2014-07-16T13:46:49Z</time>
      </trkpt>
      <trkpt lat="45.910266386345029" lon="6.819409970194101">
        <ele>1660.3299999999999</ele>
        <time>2014-07-16T13:46:54Z</time>
      </trkpt>
      <trkpt lat="45.910188015550375" lon="6.819297652691603">
        <ele>1661.3</ele>
        <time>2014-07-16T13:47:07Z</time>
      </trkpt>
      <trkpt lat="45.910088941454887" lon="6.819183491170406">
        <ele>1660.3299999999999</ele>
        <time>2014-07-16T13:47:23Z</time>
      </trkpt>
      <trkpt lat="45.91006706468761" lon="6.819118950515986">
        <ele>1660.3299999999999</ele>
        <time>2014-07-16T13:47:32Z</time>
      </trkpt>
      <trkpt lat="45.910008475184441" lon="6.819037059322">
        <ele>1657.45</ele>
        <time>2014-07-16T13:47:44Z</time>
      </trkpt>
      <trkpt lat="45.90998500585556" lon="6.819019373506308">
        <ele>1656.97</ele>
        <time>2014-07-16T13:47:46Z</time>
      </trkpt>
      <trkpt lat="45.90996103361249" lon="6.818851064890623">
        <ele>1656.01</ele>
        <time>2014-07-16T13:47:58Z</time>
      </trkpt>
      <trkpt lat="45.909910071641207" lon="6.81878007017076">
        <ele>1654.0899999999999</ele>
        <time>2014-07-16T13:48:06Z</time>
      </trkpt>
      <trkpt lat="45.90988433919847" lon="6.818676721304655">
        <ele>1653.5999999999999</ele>
        <time>2014-07-16T13:48:11Z</time>
      </trkpt>
      <trkpt lat="45.909884506836534" lon="6.818504557013512">
        <ele>1653.1199999999999</ele>
        <time>2014-07-16T13:48:25Z</time>
      </trkpt>
      <trkpt lat="45.909884087741375" lon="6.818341612815857">
        <ele>1655.05</ele>
        <time>2014-07-16T13:48:39Z</time>
      </trkpt>
      <trkpt lat="45.909867156296968" lon="6.818227032199502">
        <ele>1656.49</ele>
        <time>2014-07-16T13:48:51Z</time>
      </trkpt>
      <trkpt lat="45.909793647006154" lon="6.818051682785153">
        <ele>1656.01</ele>
        <time>2014-07-16T13:49:05Z</time>
      </trkpt>
      <trkpt lat="45.909739835187793" lon="6.817963505163789">
        <ele>1655.05</ele>
        <time>2014-07-16T13:49:17Z</time>
      </trkpt>
      <trkpt lat="45.909707564860582" lon="6.81781698949635">
        <ele>1653.5999999999999</ele>
        <time>2014-07-16T13:49:30Z</time>
      </trkpt>
      <trkpt lat="45.909647550433874" lon="6.817692182958126">
        <ele>1651.6800000000001</ele>
        <time>2014-07-16T13:49:44Z</time>
      </trkpt>
      <trkpt lat="45.909627266228199" lon="6.817674580961466">
        <ele>1648.8</ele>
        <time>2014-07-16T13:49:47Z</time>
      </trkpt>
      <trkpt lat="45.909607065841556" lon="6.817602580413222">
        <ele>1650.24</ele>
        <time>2014-07-16T13:49:52Z</time>
      </trkpt>
      <trkpt lat="45.909552164375782" lon="6.81749545969069">
        <ele>1647.8399999999999</ele>
        <time>2014-07-16T13:50:07Z</time>
      </trkpt>
      <trkpt lat="45.909517966210842" lon="6.8173947930336">
        <ele>1645.4300000000001</ele>
        <time>2014-07-16T13:50:20Z</time>
      </trkpt>
      <trkpt lat="45.909426268190145" lon="6.817241655662656">
        <ele>1643.03</ele>
        <time>2014-07-16T13:50:34Z</time>
      </trkpt>
      <trkpt lat="45.909313783049583" lon="6.817080304026604">
        <ele>1641.5899999999999</ele>
        <time>2014-07-16T13:50:48Z</time>
      </trkpt>
      <trkpt lat="45.909269275143743" lon="6.817034957930446">
        <ele>1640.1500000000001</ele>
        <time>2014-07-16T13:50:55Z</time>
      </trkpt>
      <trkpt lat="45.909210098907351" lon="6.81698190048337">
        <ele>1638.7</ele>
        <time>2014-07-16T13:51:02Z</time>
      </trkpt>
      <trkpt lat="45.909157209098339" lon="6.816816776990891">
        <ele>1635.8199999999999</ele>
        <time>2014-07-16T13:51:14Z</time>
      </trkpt>
      <trkpt lat="45.909109264612198" lon="6.816640421748161">
        <ele>1633.9000000000001</ele>
        <time>2014-07-16T13:51:26Z</time>
      </trkpt>
      <trkpt lat="45.909090070053935" lon="6.816490888595581">
        <ele>1631.49</ele>
        <time>2014-07-16T13:51:41Z</time>
      </trkpt>
      <trkpt lat="45.909094177186489" lon="6.816427521407604">
        <ele>1629.0899999999999</ele>
        <time>2014-07-16T13:51:53Z</time>
      </trkpt>
      <trkpt lat="45.909049417823553" lon="6.816360717639327">
        <ele>1627.6500000000001</ele>
        <time>2014-07-16T13:52:10Z</time>
      </trkpt>
      <trkpt lat="45.908991582691669" lon="6.816257620230317">
        <ele>1626.6900000000001</ele>
        <time>2014-07-16T13:52:32Z</time>
      </trkpt>
      <trkpt lat="45.908922683447599" lon="6.816202299669385">
        <ele>1623.3199999999999</ele>
        <time>2014-07-16T13:52:46Z</time>
      </trkpt>
      <trkpt lat="45.908905081450939" lon="6.816200539469719">
        <ele>1622.3599999999999</ele>
        <time>2014-07-16T13:52:48Z</time>
      </trkpt>
      <trkpt lat="45.908887647092342" lon="6.816108673810959">
        <ele>1620.4400000000001</ele>
        <time>2014-07-16T13:52:56Z</time>
      </trkpt>
      <trkpt lat="45.908826123923063" lon="6.816012784838677">
        <ele>1618.52</ele>
        <time>2014-07-16T13:53:11Z</time>
      </trkpt>
      <trkpt lat="45.908784801140428" lon="6.815836178138852">
        <ele>1617.5599999999999</ele>
        <time>2014-07-16T13:53:24Z</time>
      </trkpt>
      <trkpt lat="45.908751022070646" lon="6.81577549315989">
        <ele>1615.1500000000001</ele>
        <time>2014-07-16T13:53:28Z</time>
      </trkpt>
      <trkpt lat="45.908697713166475" lon="6.815697876736522">
        <ele>1612.75</ele>
        <time>2014-07-16T13:53:39Z</time>
      </trkpt>
      <trkpt lat="45.908677512779832" lon="6.815530825406313">
        <ele>1612.75</ele>
        <time>2014-07-16T13:53:52Z</time>
      </trkpt>
      <trkpt lat="45.908639123663306" lon="6.815417837351561">
        <ele>1610.3499999999999</ele>
        <time>2014-07-16T13:54:08Z</time>
      </trkpt>
      <trkpt lat="45.908594783395529" lon="6.815323624759913">
        <ele>1608.4200000000001</ele>
        <time>2014-07-16T13:54:20Z</time>
      </trkpt>
      <trkpt lat="45.908557903021574" lon="6.815335107967258">
        <ele>1605.0599999999999</ele>
        <time>2014-07-16T13:54:31Z</time>
      </trkpt>
      <trkpt lat="45.908576678484678" lon="6.815393613651395">
        <ele>1603.6199999999999</ele>
        <time>2014-07-16T13:54:45Z</time>
      </trkpt>
      <trkpt lat="45.90853082947433" lon="6.81545346044004">
        <ele>1600.73</ele>
        <time>2014-07-16T13:55:00Z</time>
      </trkpt>
      <trkpt lat="45.908493362367153" lon="6.815381208434701">
        <ele>1598.3299999999999</ele>
        <time>2014-07-16T13:55:11Z</time>
      </trkpt>
      <trkpt lat="45.908487997949123" lon="6.815215246751905">
        <ele>1596.8900000000001</ele>
        <time>2014-07-16T13:55:26Z</time>
      </trkpt>
      <trkpt lat="45.908445920795202" lon="6.815125225111842">
        <ele>1594.96</ele>
        <time>2014-07-16T13:55:39Z</time>
      </trkpt>
      <trkpt lat="45.908414740115404" lon="6.815025648102164">
        <ele>1592.5599999999999</ele>
        <time>2014-07-16T13:55:57Z</time>
      </trkpt>
      <trkpt lat="45.908336536958814" lon="6.81493554264307">
        <ele>1589.2</ele>
        <time>2014-07-16T13:56:08Z</time>
      </trkpt>
      <trkpt lat="45.908252131193876" lon="6.81488323956728">
        <ele>1587.27</ele>
        <time>2014-07-16T13:56:19Z</time>
      </trkpt>
      <trkpt lat="45.908256992697716" lon="6.814838396385312">
        <ele>1585.8299999999999</ele>
        <time>2014-07-16T13:56:35Z</time>
      </trkpt>
      <trkpt lat="45.908264955505729" lon="6.81481241248548">
        <ele>1585.3499999999999</ele>
        <time>2014-07-16T13:56:50Z</time>
      </trkpt>
      <trkpt lat="45.908234445378184" lon="6.814721636474133">
        <ele>1582.47</ele>
        <time>2014-07-16T13:57:03Z</time>
      </trkpt>
      <trkpt lat="45.908251125365496" lon="6.814618958160281">
        <ele>1579.5799999999999</ele>
        <time>2014-07-16T13:57:15Z</time>
      </trkpt>
      <trkpt lat="45.908267805352807" lon="6.814434221014381">
        <ele>1576.22</ele>
        <time>2014-07-16T13:57:29Z</time>
      </trkpt>
      <trkpt lat="45.90824106708169" lon="6.814286448061466">
        <ele>1573.3299999999999</ele>
        <time>2014-07-16T13:57:43Z</time>
      </trkpt>
      <trkpt lat="45.908200750127435" lon="6.814127443358302">
        <ele>1569.97</ele>
        <time>2014-07-16T13:57:57Z</time>
      </trkpt>
      <trkpt lat="45.90811307542026" lon="6.814051754772663">
        <ele>1567.0899999999999</ele>
        <time>2014-07-16T13:58:09Z</time>
      </trkpt>
      <trkpt lat="45.908047864213586" lon="6.813887804746628">
        <ele>1563.72</ele>
        <time>2014-07-16T13:58:22Z</time>
      </trkpt>
      <trkpt lat="45.908012492582202" lon="6.813817815855146">
        <ele>1560.8399999999999</ele>
        <time>2014-07-16T13:58:34Z</time>
      </trkpt>
      <trkpt lat="45.907987346872687" lon="6.813840782269836">
        <ele>1557.47</ele>
        <time>2014-07-16T13:58:46Z</time>
      </trkpt>
      <trkpt lat="45.907914591953158" lon="6.813797280192375">
        <ele>1554.1099999999999</ele>
        <time>2014-07-16T13:58:57Z</time>
      </trkpt>
      <trkpt lat="45.907841166481376" lon="6.813749084249139">
        <ele>1551.22</ele>
        <time>2014-07-16T13:59:08Z</time>
      </trkpt>
      <trkpt lat="45.907819792628288" lon="6.813742630183697">
        <ele>1550.74</ele>
        <time>2014-07-16T13:59:10Z</time>
      </trkpt>
      <trkpt lat="45.907818367704749" lon="6.813884032890201">
        <ele>1547.8599999999999</ele>
        <time>2014-07-16T13:59:24Z</time>
      </trkpt>
      <trkpt lat="45.907806297764182" lon="6.813945136964321">
        <ele>1544.5</ele>
        <time>2014-07-16T13:59:36Z</time>
      </trkpt>
      <trkpt lat="45.907766232267022" lon="6.813887469470501">
        <ele>1541.6099999999999</ele>
        <time>2014-07-16T13:59:48Z</time>
      </trkpt>
      <trkpt lat="45.907682748511434" lon="6.813832568004727">
        <ele>1538.25</ele>
        <time>2014-07-16T13:59:59Z</time>
      </trkpt>
      <trkpt lat="45.907632205635309" lon="6.813763249665499">
        <ele>1535.3599999999999</ele>
        <time>2014-07-16T14:00:08Z</time>
      </trkpt>
      <trkpt lat="45.907565820962191" lon="6.813657050952315">
        <ele>1532</ele>
        <time>2014-07-16T14:00:19Z</time>
      </trkpt>
      <trkpt lat="45.907489713281393" lon="6.813481450080872">
        <ele>1530.0799999999999</ele>
        <time>2014-07-16T14:00:32Z</time>
      </trkpt>
      <trkpt lat="45.907486528158188" lon="6.813410455361009">
        <ele>1529.1099999999999</ele>
        <time>2014-07-16T14:00:50Z</time>
      </trkpt>
      <trkpt lat="45.90747051872313" lon="6.813336862251163">
        <ele>1528.1500000000001</ele>
        <time>2014-07-16T14:01:01Z</time>
      </trkpt>
      <trkpt lat="45.907461550086737" lon="6.813226724043489">
        <ele>1526.23</ele>
        <time>2014-07-16T14:01:10Z</time>
      </trkpt>
      <trkpt lat="45.907487533986568" lon="6.813054475933313">
        <ele>1525.27</ele>
        <time>2014-07-16T14:01:21Z</time>
      </trkpt>
      <trkpt lat="45.907470770180225" lon="6.812892705202103">
        <ele>1524.3099999999999</ele>
        <time>2014-07-16T14:01:36Z</time>
      </trkpt>
      <trkpt lat="45.907471776008606" lon="6.812849119305611">
        <ele>1523.8299999999999</ele>
        <time>2014-07-16T14:01:39Z</time>
      </trkpt>
      <trkpt lat="45.907352501526475" lon="6.812688270583749">
        <ele>1522.8699999999999</ele>
        <time>2014-07-16T14:01:53Z</time>
      </trkpt>
      <trkpt lat="45.90733615681529" lon="6.812644097954035">
        <ele>1522.3900000000001</ele>
        <time>2014-07-16T14:01:57Z</time>
      </trkpt>
      <trkpt lat="45.907248985022306" lon="6.812507472932339">
        <ele>1519.98</ele>
        <time>2014-07-16T14:02:10Z</time>
      </trkpt>
      <trkpt lat="45.907245129346848" lon="6.81248115375638">
        <ele>1519.5</ele>
        <time>2014-07-16T14:02:12Z</time>
      </trkpt>
      <trkpt lat="45.907210176810622" lon="6.812273534014821">
        <ele>1516.6199999999999</ele>
        <time>2014-07-16T14:02:26Z</time>
      </trkpt>
      <trkpt lat="45.907160136848688" lon="6.812067423015833">
        <ele>1513.73</ele>
        <time>2014-07-16T14:02:40Z</time>
      </trkpt>
      <trkpt lat="45.907131722196937" lon="6.811902970075607">
        <ele>1510.3699999999999</ele>
        <time>2014-07-16T14:02:52Z</time>
      </trkpt>
      <trkpt lat="45.907113198190928" lon="6.811834154650569">
        <ele>1509.4100000000001</ele>
        <time>2014-07-16T14:02:57Z</time>
      </trkpt>
      <trkpt lat="45.907088806852698" lon="6.811703396961093">
        <ele>1507.97</ele>
        <time>2014-07-16T14:03:05Z</time>
      </trkpt>
      <trkpt lat="45.907053183764219" lon="6.811500051990151">
        <ele>1505.0799999999999</ele>
        <time>2014-07-16T14:03:17Z</time>
      </trkpt>
      <trkpt lat="45.907039940357208" lon="6.811452023684979">
        <ele>1504.1199999999999</ele>
        <time>2014-07-16T14:03:21Z</time>
      </trkpt>
      <trkpt lat="45.907048741355538" lon="6.811349680647254">
        <ele>1502.2</ele>
        <time>2014-07-16T14:03:32Z</time>
      </trkpt>
      <trkpt lat="45.907011609524488" lon="6.811425453051925">
        <ele>1498.3499999999999</ele>
        <time>2014-07-16T14:03:45Z</time>
      </trkpt>
      <trkpt lat="45.907008843496442" lon="6.811510864645243">
        <ele>1495.47</ele>
        <time>2014-07-16T14:03:58Z</time>
      </trkpt>
      <trkpt lat="45.907006664201617" lon="6.811615051701665">
        <ele>1492.5799999999999</ele>
        <time>2014-07-16T14:04:12Z</time>
      </trkpt>
      <trkpt lat="45.907001215964556" lon="6.811749832704663">
        <ele>1488.74</ele>
        <time>2014-07-16T14:04:24Z</time>
      </trkpt>
      <trkpt lat="45.906981267035007" lon="6.811889307573438">
        <ele>1485.8499999999999</ele>
        <time>2014-07-16T14:04:35Z</time>
      </trkpt>
      <trkpt lat="45.906941872090101" lon="6.812070356681943">
        <ele>1482.97</ele>
        <time>2014-07-16T14:04:46Z</time>
      </trkpt>
      <trkpt lat="45.906933322548866" lon="6.812337404116988">
        <ele>1481.53</ele>
        <time>2014-07-16T14:05:01Z</time>
      </trkpt>
      <trkpt lat="45.906896609812975" lon="6.812461204826832">
        <ele>1478.1600000000001</ele>
        <time>2014-07-16T14:05:10Z</time>
      </trkpt>
      <trkpt lat="45.906886383891106" lon="6.812474029138684">
        <ele>1477.6800000000001</ele>
        <time>2014-07-16T14:05:11Z</time>
      </trkpt>
      <trkpt lat="45.906805666163564" lon="6.812542425468564">
        <ele>1473.3599999999999</ele>
        <time>2014-07-16T14:05:19Z</time>
      </trkpt>
      <trkpt lat="45.906813209876418" lon="6.8125871848315">
        <ele>1472.8800000000001</ele>
        <time>2014-07-16T14:05:22Z</time>
      </trkpt>
      <trkpt lat="45.906810443848372" lon="6.81262188591063">
        <ele>1471.4400000000001</ele>
        <time>2014-07-16T14:05:24Z</time>
      </trkpt>
      <trkpt lat="45.906821507960558" lon="6.81265315040946">
        <ele>1470.95</ele>
        <time>2014-07-16T14:05:26Z</time>
      </trkpt>
      <trkpt lat="45.906831482425332" lon="6.812863200902939">
        <ele>1468.0699999999999</ele>
        <time>2014-07-16T14:05:39Z</time>
      </trkpt>
      <trkpt lat="45.906785968691111" lon="6.813074676319957">
        <ele>1464.71</ele>
        <time>2014-07-16T14:05:52Z</time>
      </trkpt>
      <trkpt lat="45.906767696142197" lon="6.813231334090233">
        <ele>1461.3399999999999</ele>
        <time>2014-07-16T14:06:04Z</time>
      </trkpt>
      <trkpt lat="45.906757470220327" lon="6.813363432884216">
        <ele>1457.98</ele>
        <time>2014-07-16T14:06:15Z</time>
      </trkpt>
      <trkpt lat="45.9067502617836" lon="6.813563173636794">
        <ele>1455.5699999999999</ele>
        <time>2014-07-16T14:06:28Z</time>
      </trkpt>
      <trkpt lat="45.906783286482096" lon="6.813753778114915">
        <ele>1454.1300000000001</ele>
        <time>2014-07-16T14:06:43Z</time>
      </trkpt>
      <trkpt lat="45.906784124672413" lon="6.814013700932264">
        <ele>1451.73</ele>
        <time>2014-07-16T14:06:59Z</time>
      </trkpt>
      <trkpt lat="45.906709106639028" lon="6.81421578861773">
        <ele>1449.3199999999999</ele>
        <time>2014-07-16T14:07:11Z</time>
      </trkpt>
      <trkpt lat="45.906677842140198" lon="6.814236072823405">
        <ele>1446.4400000000001</ele>
        <time>2014-07-16T14:07:23Z</time>
      </trkpt>
      <trkpt lat="45.906654205173254" lon="6.814140938222408">
        <ele>1444.04</ele>
        <time>2014-07-16T14:07:33Z</time>
      </trkpt>
      <trkpt lat="45.906584216281772" lon="6.813959386199713">
        <ele>1440.6700000000001</ele>
        <time>2014-07-16T14:07:46Z</time>
      </trkpt>
      <trkpt lat="45.906527889892459" lon="6.813807003200054">
        <ele>1437.3099999999999</ele>
        <time>2014-07-16T14:07:57Z</time>
      </trkpt>
      <trkpt lat="45.906478436663747" lon="6.813618075102568">
        <ele>1434.4200000000001</ele>
        <time>2014-07-16T14:08:09Z</time>
      </trkpt>
      <trkpt lat="45.90642973780632" lon="6.813508188351989">
        <ele>1432.5</ele>
        <time>2014-07-16T14:08:17Z</time>
      </trkpt>
      <trkpt lat="45.906376428902149" lon="6.813465608283877">
        <ele>1432.02</ele>
        <time>2014-07-16T14:08:22Z</time>
      </trkpt>
      <trkpt lat="45.906317001208663" lon="6.813426800072193">
        <ele>1430.5799999999999</ele>
        <time>2014-07-16T14:08:26Z</time>
      </trkpt>
      <trkpt lat="45.906182220205665" lon="6.813421938568354">
        <ele>1429.6199999999999</ele>
        <time>2014-07-16T14:08:40Z</time>
      </trkpt>
      <trkpt lat="45.906211389228702" lon="6.813422944396734">
        <ele>1429.1400000000001</ele>
        <time>2014-07-16T14:08:51Z</time>
      </trkpt>
      <trkpt lat="45.906261596828699" lon="6.813323618844152">
        <ele>1428.1800000000001</ele>
        <time>2014-07-16T14:09:01Z</time>
      </trkpt>
      <trkpt lat="45.906257992610335" lon="6.813216749578714">
        <ele>1426.25</ele>
        <time>2014-07-16T14:09:07Z</time>
      </trkpt>
      <trkpt lat="45.906254388391972" lon="6.813082471489906">
        <ele>1423.8499999999999</ele>
        <time>2014-07-16T14:09:15Z</time>
      </trkpt>
      <trkpt lat="45.906210970133543" lon="6.81287887506187">
        <ele>1420.97</ele>
        <time>2014-07-16T14:09:29Z</time>
      </trkpt>
      <trkpt lat="45.906192613765597" lon="6.812896728515625">
        <ele>1418.5599999999999</ele>
        <time>2014-07-16T14:09:42Z</time>
      </trkpt>
      <trkpt lat="45.906209293752909" lon="6.812939560040832">
        <ele>1417.1199999999999</ele>
        <time>2014-07-16T14:09:47Z</time>
      </trkpt>
      <trkpt lat="45.906130922958255" lon="6.812975853681564">
        <ele>1415.2</ele>
        <time>2014-07-16T14:09:57Z</time>
      </trkpt>
      <trkpt lat="45.906123965978622" lon="6.812967471778393">
        <ele>1414.72</ele>
        <time>2014-07-16T14:09:58Z</time>
      </trkpt>
      <trkpt lat="45.906026652082801" lon="6.812861608341336">
        <ele>1411.8299999999999</ele>
        <time>2014-07-16T14:10:10Z</time>
      </trkpt>
      <trkpt lat="45.905962949618697" lon="6.812788099050522">
        <ele>1409.9100000000001</ele>
        <time>2014-07-16T14:10:18Z</time>
      </trkpt>
      <trkpt lat="45.905942246317863" lon="6.812704866752029">
        <ele>1408.95</ele>
        <time>2014-07-16T14:10:24Z</time>
      </trkpt>
      <trkpt lat="45.905952556058764" lon="6.812536139041185">
        <ele>1405.0999999999999</ele>
        <time>2014-07-16T14:10:38Z</time>
      </trkpt>
      <trkpt lat="45.905933361500502" lon="6.81237562559545">
        <ele>1402.22</ele>
        <time>2014-07-16T14:10:50Z</time>
      </trkpt>
      <trkpt lat="45.905873430892825" lon="6.812197426334024">
        <ele>1399.3399999999999</ele>
        <time>2014-07-16T14:11:07Z</time>
      </trkpt>
      <trkpt lat="45.905757592990994" lon="6.812040936201811">
        <ele>1396.9300000000001</ele>
        <time>2014-07-16T14:11:21Z</time>
      </trkpt>
      <trkpt lat="45.905714007094502" lon="6.811952088028193">
        <ele>1395.49</ele>
        <time>2014-07-16T14:11:37Z</time>
      </trkpt>
      <trkpt lat="45.905687939375639" lon="6.811842201277614">
        <ele>1392.6099999999999</ele>
        <time>2014-07-16T14:11:50Z</time>
      </trkpt>
      <trkpt lat="45.905656507238746" lon="6.811750084161758">
        <ele>1391.1700000000001</ele>
        <time>2014-07-16T14:12:00Z</time>
      </trkpt>
      <trkpt lat="45.905657932162285" lon="6.811639107763767">
        <ele>1389.72</ele>
        <time>2014-07-16T14:12:14Z</time>
      </trkpt>
      <trkpt lat="45.905641503632069" lon="6.811722507700324">
        <ele>1390.2</ele>
        <time>2014-07-16T14:12:27Z</time>
      </trkpt>
      <trkpt lat="45.905609987676144" lon="6.811704654246569">
        <ele>1390.2</ele>
        <time>2014-07-16T14:12:42Z</time>
      </trkpt>
      <trkpt lat="45.905587524175644" lon="6.811698200181127">
        <ele>1389.72</ele>
        <time>2014-07-16T14:12:53Z</time>
      </trkpt>
      <trkpt lat="45.905561540275812" lon="6.811606250703335">
        <ele>1388.76</ele>
        <time>2014-07-16T14:13:02Z</time>
      </trkpt>
      <trkpt lat="45.905522732064128" lon="6.811529472470284">
        <ele>1388.76</ele>
        <time>2014-07-16T14:13:16Z</time>
      </trkpt>
      <trkpt lat="45.905544944107533" lon="6.811518324539065">
        <ele>1388.76</ele>
        <time>2014-07-16T14:13:28Z</time>
      </trkpt>
      <trkpt lat="45.905557936057448" lon="6.811517234891653">
        <ele>1387.8</ele>
        <time>2014-07-16T14:13:38Z</time>
      </trkpt>
      <trkpt lat="45.905533460900187" lon="6.811519665643573">
        <ele>1387.8</ele>
        <time>2014-07-16T14:13:58Z</time>
      </trkpt>
      <trkpt lat="45.905538992956281" lon="6.811525281518698">
        <ele>1387.3199999999999</ele>
        <time>2014-07-16T14:14:18Z</time>
      </trkpt>
      <trkpt lat="45.90551694855094" lon="6.811539949849248">
        <ele>1387.3199999999999</ele>
        <time>2014-07-16T14:14:43Z</time>
      </trkpt>
      <trkpt lat="45.905498592182994" lon="6.81155763566494">
        <ele>1387.3199999999999</ele>
        <time>2014-07-16T14:15:12Z</time>
      </trkpt>
      <trkpt lat="45.905466740950942" lon="6.811563335359097">
        <ele>1387.3199999999999</ele>
        <time>2014-07-16T14:15:41Z</time>
      </trkpt>
      <trkpt lat="45.90547252446413" lon="6.811650171875954">
        <ele>1387.3199999999999</ele>
        <time>2014-07-16T14:16:09Z</time>
      </trkpt>
      <trkpt lat="45.90549104847014" lon="6.81163290515542">
        <ele>1387.8</ele>
        <time>2014-07-16T14:16:42Z</time>
      </trkpt>
      <trkpt lat="45.905547961592674" lon="6.81150290183723">
        <ele>1388.76</ele>
        <time>2014-07-16T14:17:00Z</time>
      </trkpt>
      <trkpt lat="45.905466824769974" lon="6.811487395316362">
        <ele>1388.76</ele>
        <time>2014-07-16T14:17:26Z</time>
      </trkpt>
      <trkpt lat="45.905516697093844" lon="6.811522599309683">
        <ele>1387.8</ele>
        <time>2014-07-16T14:17:40Z</time>
      </trkpt>
      <trkpt lat="45.905550811439753" lon="6.811537183821201">
        <ele>1387.8</ele>
        <time>2014-07-16T14:18:07Z</time>
      </trkpt>
      <trkpt lat="45.905515942722559" lon="6.811597784981132">
        <ele>1388.76</ele>
        <time>2014-07-16T14:18:38Z</time>
      </trkpt>
      <trkpt lat="45.905574951320887" lon="6.811506086960435">
        <ele>1388.76</ele>
        <time>2014-07-16T14:19:00Z</time>
      </trkpt>
      <trkpt lat="45.905537735670805" lon="6.811597533524036">
        <ele>1389.72</ele>
        <time>2014-07-16T14:19:31Z</time>
      </trkpt>
      <trkpt lat="45.905555253848433" lon="6.811544727534056">
        <ele>1389.72</ele>
        <time>2014-07-16T14:20:03Z</time>
      </trkpt>
      <trkpt lat="45.905538070946932" lon="6.811529640108347">
        <ele>1389.72</ele>
        <time>2014-07-16T14:20:30Z</time>
      </trkpt>
      <trkpt lat="45.905545614659786" lon="6.811541290953755">
        <ele>1389.72</ele>
        <time>2014-07-16T14:20:58Z</time>
      </trkpt>
      <trkpt lat="45.905550643801689" lon="6.811536597087979">
        <ele>1389.72</ele>
        <time>2014-07-16T14:21:22Z</time>
      </trkpt>
      <trkpt lat="45.905512170866132" lon="6.811545565724373">
        <ele>1389.72</ele>
        <time>2014-07-16T14:21:52Z</time>
      </trkpt>
      <trkpt lat="45.905522061511874" lon="6.811566269025207">
        <ele>1389.72</ele>
        <time>2014-07-16T14:22:15Z</time>
      </trkpt>
      <trkpt lat="45.905523570254445" lon="6.811540871858597">
        <ele>1390.2</ele>
        <time>2014-07-16T14:22:41Z</time>
      </trkpt>
      <trkpt lat="45.905536729842424" lon="6.811489993706346">
        <ele>1390.2</ele>
        <time>2014-07-16T14:23:07Z</time>
      </trkpt>
      <trkpt lat="45.905557600781322" lon="6.811514468863607">
        <ele>1390.2</ele>
        <time>2014-07-16T14:23:39Z</time>
      </trkpt>
      <trkpt lat="45.905556678771973" lon="6.811498794704676">
        <ele>1390.6800000000001</ele>
        <time>2014-07-16T14:24:10Z</time>
      </trkpt>
      <trkpt lat="45.905516277998686" lon="6.811569705605507">
        <ele>1391.1700000000001</ele>
        <time>2014-07-16T14:24:41Z</time>
      </trkpt>
      <trkpt lat="45.905529856681824" lon="6.811552522704005">
        <ele>1390.6800000000001</ele>
        <time>2014-07-16T14:25:10Z</time>
      </trkpt>
      <trkpt lat="45.905568078160286" lon="6.811491586267948">
        <ele>1392.1300000000001</ele>
        <time>2014-07-16T14:25:25Z</time>
      </trkpt>
      <trkpt lat="45.90554335154593" lon="6.811405252665281">
        <ele>1390.6800000000001</ele>
        <time>2014-07-16T14:25:38Z</time>
      </trkpt>
      <trkpt lat="45.905521139502525" lon="6.811321852728725">
        <ele>1389.24</ele>
        <time>2014-07-16T14:25:53Z</time>
      </trkpt>
      <trkpt lat="45.905530275776982" lon="6.811270890757442">
        <ele>1388.76</ele>
        <time>2014-07-16T14:26:05Z</time>
      </trkpt>
      <trkpt lat="45.90553211979568" lon="6.811262760311365">
        <ele>1388.76</ele>
        <time>2014-07-16T14:26:06Z</time>
      </trkpt>
      <trkpt lat="45.905508147552609" lon="6.810999484732747">
        <ele>1385.8800000000001</ele>
        <time>2014-07-16T14:26:21Z</time>
      </trkpt>
      <trkpt lat="45.905518122017384" lon="6.810947516933084">
        <ele>1385.4000000000001</ele>
        <time>2014-07-16T14:26:24Z</time>
      </trkpt>
      <trkpt lat="45.905507309362292" lon="6.810884904116392">
        <ele>1384.4400000000001</ele>
        <time>2014-07-16T14:26:28Z</time>
      </trkpt>
      <trkpt lat="45.905506806448102" lon="6.810854393988848">
        <ele>1384.4400000000001</ele>
        <time>2014-07-16T14:26:30Z</time>
      </trkpt>
      <trkpt lat="45.905501442030072" lon="6.810782058164477">
        <ele>1382.99</ele>
        <time>2014-07-16T14:26:34Z</time>
      </trkpt>
      <trkpt lat="45.90548861771822" lon="6.810722546651959">
        <ele>1382.99</ele>
        <time>2014-07-16T14:26:38Z</time>
      </trkpt>
      <trkpt lat="45.90547445230186" lon="6.810656748712063">
        <ele>1381.55</ele>
        <time>2014-07-16T14:26:42Z</time>
      </trkpt>
      <trkpt lat="45.905418796464801" lon="6.810589274391532">
        <ele>1380.5899999999999</ele>
        <time>2014-07-16T14:26:48Z</time>
      </trkpt>
      <trkpt lat="45.905357105657458" lon="6.810501012951136">
        <ele>1380.1099999999999</ele>
        <time>2014-07-16T14:26:55Z</time>
      </trkpt>
      <trkpt lat="45.90534545481205" lon="6.81044016033411">
        <ele>1379.6300000000001</ele>
        <time>2014-07-16T14:26:59Z</time>
      </trkpt>
      <trkpt lat="45.905336234718561" lon="6.810357263311744">
        <ele>1378.6700000000001</ele>
        <time>2014-07-16T14:27:04Z</time>
      </trkpt>
      <trkpt lat="45.905318800359964" lon="6.810227259993553">
        <ele>1377.71</ele>
        <time>2014-07-16T14:27:13Z</time>
      </trkpt>
      <trkpt lat="45.905413264408708" lon="6.810007989406586">
        <ele>1375.3</ele>
        <time>2014-07-16T14:27:27Z</time>
      </trkpt>
      <trkpt lat="45.905424831435084" lon="6.809988962486386">
        <ele>1375.3</ele>
        <time>2014-07-16T14:27:29Z</time>
      </trkpt>
      <trkpt lat="45.905416198074818" lon="6.80975217372179">
        <ele>1372.9000000000001</ele>
        <time>2014-07-16T14:27:43Z</time>
      </trkpt>
      <trkpt lat="45.905360542237759" lon="6.809555031359196">
        <ele>1371.46</ele>
        <time>2014-07-16T14:27:57Z</time>
      </trkpt>
      <trkpt lat="45.905289296060801" lon="6.809304244816303">
        <ele>1369.54</ele>
        <time>2014-07-16T14:28:11Z</time>
      </trkpt>
      <trkpt lat="45.905272113159299" lon="6.809340370818973">
        <ele>1369.54</ele>
        <time>2014-07-16T14:28:14Z</time>
      </trkpt>
      <trkpt lat="45.905224168673158" lon="6.80947607383132">
        <ele>1366.6500000000001</ele>
        <time>2014-07-16T14:28:22Z</time>
      </trkpt>
      <trkpt lat="45.905225090682507" lon="6.809612531214953">
        <ele>1363.29</ele>
        <time>2014-07-16T14:28:33Z</time>
      </trkpt>
      <trkpt lat="45.905180750414729" lon="6.809805650264025">
        <ele>1362.8099999999999</ele>
        <time>2014-07-16T14:28:47Z</time>
      </trkpt>
      <trkpt lat="45.905111348256469" lon="6.809854181483388">
        <ele>1360.8800000000001</ele>
        <time>2014-07-16T14:28:59Z</time>
      </trkpt>
      <trkpt lat="45.905087543651462" lon="6.809871699661017">
        <ele>1357.52</ele>
        <time>2014-07-16T14:29:10Z</time>
      </trkpt>
      <trkpt lat="45.905055273324251" lon="6.809905394911766">
        <ele>1354.6300000000001</ele>
        <time>2014-07-16T14:29:20Z</time>
      </trkpt>
      <trkpt lat="45.905044795945287" lon="6.809903802350164">
        <ele>1354.1500000000001</ele>
        <time>2014-07-16T14:29:21Z</time>
      </trkpt>
      <trkpt lat="45.90504395775497" lon="6.80986650288105">
        <ele>1352.71</ele>
        <time>2014-07-16T14:29:24Z</time>
      </trkpt>
      <trkpt lat="45.905009256675839" lon="6.809721160680056">
        <ele>1350.79</ele>
        <time>2014-07-16T14:29:34Z</time>
      </trkpt>
      <trkpt lat="45.905019985511899" lon="6.809583026915789">
        <ele>1347.4300000000001</ele>
        <time>2014-07-16T14:29:48Z</time>
      </trkpt>
      <trkpt lat="45.904976902529597" lon="6.809485126286745">
        <ele>1344.0599999999999</ele>
        <time>2014-07-16T14:29:58Z</time>
      </trkpt>
      <trkpt lat="45.904950331896544" lon="6.809353530406952">
        <ele>1342.6199999999999</ele>
        <time>2014-07-16T14:30:07Z</time>
      </trkpt>
      <trkpt lat="45.904911356046796" lon="6.80925571359694">
        <ele>1341.6600000000001</ele>
        <time>2014-07-16T14:30:13Z</time>
      </trkpt>
      <trkpt lat="45.904890149831772" lon="6.809147335588932">
        <ele>1341.1800000000001</ele>
        <time>2014-07-16T14:30:19Z</time>
      </trkpt>
      <trkpt lat="45.904844468459487" lon="6.808957485482097">
        <ele>1340.22</ele>
        <time>2014-07-16T14:30:34Z</time>
      </trkpt>
      <trkpt lat="45.904797529801726" lon="6.808879030868411">
        <ele>1337.3299999999999</ele>
        <time>2014-07-16T14:30:44Z</time>
      </trkpt>
      <trkpt lat="45.904750926420093" lon="6.808797139674425">
        <ele>1333.97</ele>
        <time>2014-07-16T14:30:54Z</time>
      </trkpt>
      <trkpt lat="45.904692756012082" lon="6.808667806908488">
        <ele>1331.0799999999999</ele>
        <time>2014-07-16T14:31:05Z</time>
      </trkpt>
      <trkpt lat="45.904678925871849" lon="6.808628663420677">
        <ele>1330.5999999999999</ele>
        <time>2014-07-16T14:31:08Z</time>
      </trkpt>
      <trkpt lat="45.904682194814086" lon="6.808371506631374">
        <ele>1328.2</ele>
        <time>2014-07-16T14:31:23Z</time>
      </trkpt>
      <trkpt lat="45.904654115438461" lon="6.808227589353919">
        <ele>1326.28</ele>
        <time>2014-07-16T14:31:32Z</time>
      </trkpt>
      <trkpt lat="45.904543725773692" lon="6.808017790317535">
        <ele>1326.28</ele>
        <time>2014-07-16T14:31:47Z</time>
      </trkpt>
      <trkpt lat="45.9044967032969" lon="6.807854846119881">
        <ele>1325.8</ele>
        <time>2014-07-16T14:31:56Z</time>
      </trkpt>
      <trkpt lat="45.904430821537971" lon="6.807710258290172">
        <ele>1324.3499999999999</ele>
        <time>2014-07-16T14:32:05Z</time>
      </trkpt>
      <trkpt lat="45.904397210106254" lon="6.807610848918557">
        <ele>1323.8699999999999</ele>
        <time>2014-07-16T14:32:11Z</time>
      </trkpt>
      <trkpt lat="45.904385475441813" lon="6.807464919984341">
        <ele>1321.47</ele>
        <time>2014-07-16T14:32:20Z</time>
      </trkpt>
      <trkpt lat="45.90434281155467" lon="6.807319158688188">
        <ele>1320.03</ele>
        <time>2014-07-16T14:32:32Z</time>
      </trkpt>
      <trkpt lat="45.904258321970701" lon="6.807174235582352">
        <ele>1318.0999999999999</ele>
        <time>2014-07-16T14:32:45Z</time>
      </trkpt>
      <trkpt lat="45.904260082170367" lon="6.807064181193709">
        <ele>1317.1400000000001</ele>
        <time>2014-07-16T14:32:58Z</time>
      </trkpt>
      <trkpt lat="45.904204677790403" lon="6.807063175365329">
        <ele>1317.1400000000001</ele>
        <time>2014-07-16T14:33:14Z</time>
      </trkpt>
      <trkpt lat="45.904153464362025" lon="6.807076334953308">
        <ele>1316.6600000000001</ele>
        <time>2014-07-16T14:33:35Z</time>
      </trkpt>
      <trkpt lat="45.904138628393412" lon="6.807066528126597">
        <ele>1316.6600000000001</ele>
        <time>2014-07-16T14:33:53Z</time>
      </trkpt>
      <trkpt lat="45.904160086065531" lon="6.807077005505562">
        <ele>1317.1400000000001</ele>
        <time>2014-07-16T14:34:07Z</time>
      </trkpt>
      <trkpt lat="45.904133515432477" lon="6.807065103203058">
        <ele>1316.6600000000001</ele>
        <time>2014-07-16T14:34:14Z</time>
      </trkpt>
      <trkpt lat="45.904138376936316" lon="6.807026378810406">
        <ele>1316.1800000000001</ele>
        <time>2014-07-16T14:34:17Z</time>
      </trkpt>
      <trkpt lat="45.904142148792744" lon="6.806852035224438">
        <ele>1313.78</ele>
        <time>2014-07-16T14:34:30Z</time>
      </trkpt>
      <trkpt lat="45.904121361672878" lon="6.806563111022115">
        <ele>1311.3800000000001</ele>
        <time>2014-07-16T14:34:46Z</time>
      </trkpt>
      <trkpt lat="45.904112225398421" lon="6.806344175711274">
        <ele>1309.9300000000001</ele>
        <time>2014-07-16T14:34:57Z</time>
      </trkpt>
      <trkpt lat="45.904091605916619" lon="6.806141920387745">
        <ele>1309.45</ele>
        <time>2014-07-16T14:35:10Z</time>
      </trkpt>
      <trkpt lat="45.90410141274333" lon="6.806007893756032">
        <ele>1307.05</ele>
        <time>2014-07-16T14:35:18Z</time>
      </trkpt>
      <trkpt lat="45.904185399413109" lon="6.805842937901616">
        <ele>1306.0899999999999</ele>
        <time>2014-07-16T14:35:31Z</time>
      </trkpt>
      <trkpt lat="45.904201408848166" lon="6.805771524086595">
        <ele>1305.1300000000001</ele>
        <time>2014-07-16T14:35:35Z</time>
      </trkpt>
      <trkpt lat="45.904271649196744" lon="6.805578656494618">
        <ele>1304.1700000000001</ele>
        <time>2014-07-16T14:35:49Z</time>
      </trkpt>
      <trkpt lat="45.904269805178046" lon="6.805530041456223">
        <ele>1304.6500000000001</ele>
        <time>2014-07-16T14:35:52Z</time>
      </trkpt>
      <trkpt lat="45.904296794906259" lon="6.805322673171759">
        <ele>1304.1700000000001</ele>
        <time>2014-07-16T14:36:06Z</time>
      </trkpt>
      <trkpt lat="45.904343146830797" lon="6.805041041225195">
        <ele>1301.76</ele>
        <time>2014-07-16T14:36:21Z</time>
      </trkpt>
      <trkpt lat="45.90435110963881" lon="6.804880611598492">
        <ele>1300.8</ele>
        <time>2014-07-16T14:36:34Z</time>
      </trkpt>
      <trkpt lat="45.904333256185055" lon="6.804774077609181">
        <ele>1299.8399999999999</ele>
        <time>2014-07-16T14:36:39Z</time>
      </trkpt>
      <trkpt lat="45.904370388016105" lon="6.804577941074967">
        <ele>1297.4400000000001</ele>
        <time>2014-07-16T14:36:50Z</time>
      </trkpt>
      <trkpt lat="45.904325544834137" lon="6.804343918338418">
        <ele>1294.55</ele>
        <time>2014-07-16T14:37:03Z</time>
      </trkpt>
      <trkpt lat="45.904265949502587" lon="6.804155074059963">
        <ele>1291.1900000000001</ele>
        <time>2014-07-16T14:37:15Z</time>
      </trkpt>
      <trkpt lat="45.904254047200084" lon="6.804102016612887">
        <ele>1290.23</ele>
        <time>2014-07-16T14:37:26Z</time>
      </trkpt>
      <trkpt lat="45.904257986694574" lon="6.804045690223575">
        <ele>1289.27</ele>
        <time>2014-07-16T14:37:31Z</time>
      </trkpt>
      <trkpt lat="45.904252370819449" lon="6.803968492895365">
        <ele>1288.3</ele>
        <time>2014-07-16T14:37:37Z</time>
      </trkpt>
      <trkpt lat="45.904229655861855" lon="6.803924655541778">
        <ele>1287.3399999999999</ele>
        <time>2014-07-16T14:37:40Z</time>
      </trkpt>
      <trkpt lat="45.904137035831809" lon="6.803688704967499">
        <ele>1286.3800000000001</ele>
        <time>2014-07-16T14:37:55Z</time>
      </trkpt>
      <trkpt lat="45.904127145186067" lon="6.803605556488037">
        <ele>1284.46</ele>
        <time>2014-07-16T14:37:59Z</time>
      </trkpt>
      <trkpt lat="45.904102837666869" lon="6.803393661975861">
        <ele>1280.6099999999999</ele>
        <time>2014-07-16T14:38:12Z</time>
      </trkpt>
      <trkpt lat="45.904042236506939" lon="6.803232813253999">
        <ele>1277.25</ele>
        <time>2014-07-16T14:38:20Z</time>
      </trkpt>
      <trkpt lat="45.903933187946677" lon="6.802994851022959">
        <ele>1275.8099999999999</ele>
        <time>2014-07-16T14:38:33Z</time>
      </trkpt>
      <trkpt lat="45.904029496014118" lon="6.802734928205609">
        <ele>1272.9200000000001</ele>
        <time>2014-07-16T14:38:46Z</time>
      </trkpt>
      <trkpt lat="45.904002171009779" lon="6.802507191896439">
        <ele>1271</ele>
        <time>2014-07-16T14:39:00Z</time>
      </trkpt>
      <trkpt lat="45.903977192938328" lon="6.802273923531175">
        <ele>1269.0799999999999</ele>
        <time>2014-07-16T14:39:12Z</time>
      </trkpt>
      <trkpt lat="45.903944503515959" lon="6.802094886079431">
        <ele>1266.6700000000001</ele>
        <time>2014-07-16T14:39:24Z</time>
      </trkpt>
      <trkpt lat="45.903933523222804" lon="6.801943341270089">
        <ele>1264.27</ele>
        <time>2014-07-16T14:39:34Z</time>
      </trkpt>
      <trkpt lat="45.903911311179399" lon="6.801874022930861">
        <ele>1264.27</ele>
        <time>2014-07-16T14:39:39Z</time>
      </trkpt>
      <trkpt lat="45.90378675609827" lon="6.801696829497814">
        <ele>1261.8699999999999</ele>
        <time>2014-07-16T14:39:52Z</time>
      </trkpt>
      <trkpt lat="45.903686676174402" lon="6.80152022279799">
        <ele>1258.5</ele>
        <time>2014-07-16T14:40:07Z</time>
      </trkpt>
      <trkpt lat="45.903641581535339" lon="6.801517205312848">
        <ele>1257.54</ele>
        <time>2014-07-16T14:40:28Z</time>
      </trkpt>
      <trkpt lat="45.903626577928662" lon="6.801627762615681">
        <ele>1255.1400000000001</ele>
        <time>2014-07-16T14:40:45Z</time>
      </trkpt>
      <trkpt lat="45.90371391735971" lon="6.801730692386627">
        <ele>1253.7</ele>
        <time>2014-07-16T14:41:02Z</time>
      </trkpt>
      <trkpt lat="45.903763957321644" lon="6.801888020709157">
        <ele>1253.22</ele>
        <time>2014-07-16T14:41:26Z</time>
      </trkpt>
      <trkpt lat="45.903624733909965" lon="6.801855834200978">
        <ele>1249.8499999999999</ele>
        <time>2014-07-16T14:41:41Z</time>
      </trkpt>
      <trkpt lat="45.903537226840854" lon="6.801649555563927">
        <ele>1247.45</ele>
        <time>2014-07-16T14:41:55Z</time>
      </trkpt>
      <trkpt lat="45.903489449992776" lon="6.801723651587963">
        <ele>1244.5599999999999</ele>
        <time>2014-07-16T14:42:09Z</time>
      </trkpt>
      <trkpt lat="45.903472686186433" lon="6.801825659349561">
        <ele>1242.1600000000001</ele>
        <time>2014-07-16T14:42:19Z</time>
      </trkpt>
      <trkpt lat="45.903438068926334" lon="6.801909310743213">
        <ele>1238.8</ele>
        <time>2014-07-16T14:42:34Z</time>
      </trkpt>
      <trkpt lat="45.90338995680213" lon="6.802000422030687">
        <ele>1235.9100000000001</ele>
        <time>2014-07-16T14:42:45Z</time>
      </trkpt>
      <trkpt lat="45.903250984847546" lon="6.801951304078102">
        <ele>1233.03</ele>
        <time>2014-07-16T14:42:58Z</time>
      </trkpt>
      <trkpt lat="45.903129614889622" lon="6.801860360428691">
        <ele>1229.6600000000001</ele>
        <time>2014-07-16T14:43:08Z</time>
      </trkpt>
      <trkpt lat="45.903018722310662" lon="6.801768327131867">
        <ele>1226.78</ele>
        <time>2014-07-16T14:43:21Z</time>
      </trkpt>
      <trkpt lat="45.903013860806823" lon="6.801762711256743">
        <ele>1226.78</ele>
        <time>2014-07-16T14:43:22Z</time>
      </trkpt>
      <trkpt lat="45.90296926908195" lon="6.801597503945231">
        <ele>1223.9000000000001</ele>
        <time>2014-07-16T14:43:34Z</time>
      </trkpt>
      <trkpt lat="45.902913864701986" lon="6.801402792334557">
        <ele>1221.01</ele>
        <time>2014-07-16T14:43:48Z</time>
      </trkpt>
      <trkpt lat="45.902882935479283" lon="6.801218474283814">
        <ele>1219.5699999999999</ele>
        <time>2014-07-16T14:44:01Z</time>
      </trkpt>
      <trkpt lat="45.902887294068933" lon="6.801242446526885">
        <ele>1220.53</ele>
        <time>2014-07-16T14:44:14Z</time>
      </trkpt>
      <trkpt lat="45.902862986549735" lon="6.801024684682488">
        <ele>1217.1700000000001</ele>
        <time>2014-07-16T14:44:24Z</time>
      </trkpt>
      <trkpt lat="45.902843875810504" lon="6.800973303616047">
        <ele>1215.72</ele>
        <time>2014-07-16T14:44:39Z</time>
      </trkpt>
      <trkpt lat="45.902754357084632" lon="6.80095779709518">
        <ele>1215.24</ele>
        <time>2014-07-16T14:44:58Z</time>
      </trkpt>
      <trkpt lat="45.902752764523029" lon="6.800946732982993">
        <ele>1215.24</ele>
        <time>2014-07-16T14:45:14Z</time>
      </trkpt>
      <trkpt lat="45.902685290202498" lon="6.800921335816383">
        <ele>1214.76</ele>
        <time>2014-07-16T14:45:37Z</time>
      </trkpt>
      <trkpt lat="45.902831219136715" lon="6.801494657993317">
        <ele>1215.24</ele>
        <time>2014-07-16T14:46:06Z</time>
      </trkpt>
      <trkpt lat="45.902937250211835" lon="6.801452748477459">
        <ele>1215.24</ele>
        <time>2014-07-16T14:46:26Z</time>
      </trkpt>
      <trkpt lat="45.902848318219185" lon="6.801542183384299">
        <ele>1215.72</ele>
        <time>2014-07-16T14:46:39Z</time>
      </trkpt>
      <trkpt lat="45.902846474200487" lon="6.801713341847062">
        <ele>1216.21</ele>
        <time>2014-07-16T14:46:54Z</time>
      </trkpt>
      <trkpt lat="45.902698533609509" lon="6.801665984094143">
        <ele>1215.72</ele>
        <time>2014-07-16T14:47:11Z</time>
      </trkpt>
      <trkpt lat="45.902694007381797" lon="6.801646454259753">
        <ele>1216.6900000000001</ele>
        <time>2014-07-16T14:47:19Z</time>
      </trkpt>
      <trkpt lat="45.902494853362441" lon="6.801673946902156">
        <ele>1215.72</ele>
        <time>2014-07-16T14:47:58Z</time>
      </trkpt>
      <trkpt lat="45.90243911370635" lon="6.801706803962588">
        <ele>1216.6900000000001</ele>
        <time>2014-07-16T14:48:25Z</time>
      </trkpt>
      <trkpt lat="45.902781849727035" lon="6.801818450912833">
        <ele>1216.6900000000001</ele>
        <time>2014-07-16T14:48:45Z</time>
      </trkpt>
      <trkpt lat="45.902817472815514" lon="6.802006708458066">
        <ele>1216.6900000000001</ele>
        <time>2014-07-16T14:49:07Z</time>
      </trkpt>
      <trkpt lat="45.90277480892837" lon="6.801825240254402">
        <ele>1216.6900000000001</ele>
        <time>2014-07-16T14:49:21Z</time>
      </trkpt>
      <trkpt lat="45.902760056778789" lon="6.801802944391966">
        <ele>1216.6900000000001</ele>
        <time>2014-07-16T14:49:23Z</time>
      </trkpt>
      <trkpt lat="45.902743963524699" lon="6.801667157560587">
        <ele>1215.72</ele>
        <time>2014-07-16T14:49:36Z</time>
      </trkpt>
      <trkpt lat="45.902739940211177" lon="6.801658943295479">
        <ele>1215.72</ele>
        <time>2014-07-16T14:49:50Z</time>
      </trkpt>
      <trkpt lat="45.902817472815514" lon="6.801724908873439">
        <ele>1215.72</ele>
        <time>2014-07-16T14:50:10Z</time>
      </trkpt>
      <trkpt lat="45.902838762849569" lon="6.801679227501154">
        <ele>1216.6900000000001</ele>
        <time>2014-07-16T14:50:17Z</time>
      </trkpt>
      <trkpt lat="45.902736587449908" lon="6.801772434264422">
        <ele>1215.24</ele>
        <time>2014-07-16T14:51:00Z</time>
      </trkpt>
      <trkpt lat="45.902761649340391" lon="6.801735302433372">
        <ele>1215.24</ele>
        <time>2014-07-16T14:51:36Z</time>
      </trkpt>
      <trkpt lat="45.902734743431211" lon="6.8017493840307">
        <ele>1215.72</ele>
        <time>2014-07-16T14:52:18Z</time>
      </trkpt>
      <trkpt lat="45.902783526107669" lon="6.80161845870316">
        <ele>1215.24</ele>
        <time>2014-07-16T14:52:56Z</time>
      </trkpt>
      <trkpt lat="45.902778999879956" lon="6.801758017390966">
        <ele>1215.24</ele>
        <time>2014-07-16T14:53:30Z</time>
      </trkpt>
      <trkpt lat="45.902694929391146" lon="6.801665900275111">
        <ele>1215.72</ele>
        <time>2014-07-16T14:54:14Z</time>
      </trkpt>
      <trkpt lat="45.902764331549406" lon="6.80170395411551">
        <ele>1215.24</ele>
        <time>2014-07-16T14:54:55Z</time>
      </trkpt>
      <trkpt lat="45.902790986001492" lon="6.801696913316846">
        <ele>1215.72</ele>
        <time>2014-07-16T14:55:14Z</time>
      </trkpt>
      <trkpt lat="45.902827279642224" lon="6.801568334922195">
        <ele>1216.6900000000001</ele>
        <time>2014-07-16T14:55:28Z</time>
      </trkpt>
      <trkpt lat="45.902840187773108" lon="6.801634216681123">
        <ele>1216.6900000000001</ele>
        <time>2014-07-16T14:55:54Z</time>
      </trkpt>
      <trkpt lat="45.902815125882626" lon="6.801577638834715">
        <ele>1217.1700000000001</ele>
        <time>2014-07-16T14:56:17Z</time>
      </trkpt>
      <trkpt lat="45.902811773121357" lon="6.801442187279463">
        <ele>1215.72</ele>
        <time>2014-07-16T14:56:34Z</time>
      </trkpt>
      <trkpt lat="45.902821160852909" lon="6.801299694925547">
        <ele>1212.3599999999999</ele>
        <time>2014-07-16T14:56:48Z</time>
      </trkpt>
      <trkpt lat="45.90283339843154" lon="6.801157286390662">
        <ele>1209.48</ele>
        <time>2014-07-16T14:57:03Z</time>
      </trkpt>
      <trkpt lat="45.902857454493642" lon="6.800949247553945">
        <ele>1207.0699999999999</ele>
        <time>2014-07-16T14:57:18Z</time>
      </trkpt>
      <trkpt lat="45.902863321825862" lon="6.800837265327573">
        <ele>1205.1500000000001</ele>
        <time>2014-07-16T14:57:26Z</time>
      </trkpt>
      <trkpt lat="45.902858711779118" lon="6.800767863169313">
        <ele>1203.71</ele>
        <time>2014-07-16T14:57:31Z</time>
      </trkpt>
      <trkpt lat="45.902832811698318" lon="6.800583796575666">
        <ele>1200.8199999999999</ele>
        <time>2014-07-16T14:57:47Z</time>
      </trkpt>
      <trkpt lat="45.902849491685629" lon="6.800414649769664">
        <ele>1199.3800000000001</ele>
        <time>2014-07-16T14:58:01Z</time>
      </trkpt>
      <trkpt lat="45.902815796434879" lon="6.800381122156978">
        <ele>1197.9400000000001</ele>
        <time>2014-07-16T14:58:21Z</time>
      </trkpt>
      <trkpt lat="45.902804145589471" lon="6.80050240829587">
        <ele>1195.0599999999999</ele>
        <time>2014-07-16T14:58:32Z</time>
      </trkpt>
      <trkpt lat="45.902759218588471" lon="6.800595950335264">
        <ele>1192.1700000000001</ele>
        <time>2014-07-16T14:58:41Z</time>
      </trkpt>
      <trkpt lat="45.902702892199159" lon="6.800710279494524">
        <ele>1188.8099999999999</ele>
        <time>2014-07-16T14:58:53Z</time>
      </trkpt>
      <trkpt lat="45.902643883600831" lon="6.800813125446439">
        <ele>1186.4000000000001</ele>
        <time>2014-07-16T14:59:05Z</time>
      </trkpt>
      <trkpt lat="45.902617564424872" lon="6.800978668034077">
        <ele>1185.9200000000001</ele>
        <time>2014-07-16T14:59:18Z</time>
      </trkpt>
      <trkpt lat="45.902579007670283" lon="6.801103055477142">
        <ele>1185.4400000000001</ele>
        <time>2014-07-16T14:59:34Z</time>
      </trkpt>
      <trkpt lat="45.9025211725384" lon="6.801262898370624">
        <ele>1183.04</ele>
        <time>2014-07-16T14:59:49Z</time>
      </trkpt>
      <trkpt lat="45.902517735958099" lon="6.801446545869112">
        <ele>1182.5599999999999</ele>
        <time>2014-07-16T15:00:06Z</time>
      </trkpt>
      <trkpt lat="45.90249921195209" lon="6.801671432331204">
        <ele>1180.1600000000001</ele>
        <time>2014-07-16T15:00:23Z</time>
      </trkpt>
      <trkpt lat="45.902454536408186" lon="6.801960105076432">
        <ele>1178.23</ele>
        <time>2014-07-16T15:00:41Z</time>
      </trkpt>
      <trkpt lat="45.902425786480308" lon="6.802108800038695">
        <ele>1174.8699999999999</ele>
        <time>2014-07-16T15:00:55Z</time>
      </trkpt>
      <trkpt lat="45.902395192533731" lon="6.802254477515817">
        <ele>1171.98</ele>
        <time>2014-07-16T15:01:08Z</time>
      </trkpt>
      <trkpt lat="45.902370549738407" lon="6.802444579079747">
        <ele>1168.6199999999999</ele>
        <time>2014-07-16T15:01:24Z</time>
      </trkpt>
      <trkpt lat="45.902340961620212" lon="6.802678517997265">
        <ele>1166.22</ele>
        <time>2014-07-16T15:01:41Z</time>
      </trkpt>
      <trkpt lat="45.902272146195173" lon="6.802819753065705">
        <ele>1163.3299999999999</ele>
        <time>2014-07-16T15:01:51Z</time>
      </trkpt>
      <trkpt lat="45.902238031849265" lon="6.802943805232644">
        <ele>1160.45</ele>
        <time>2014-07-16T15:02:03Z</time>
      </trkpt>
      <trkpt lat="45.902167288586497" lon="6.803140444681048">
        <ele>1158.05</ele>
        <time>2014-07-16T15:02:22Z</time>
      </trkpt>
      <trkpt lat="45.902139293029904" lon="6.8031463958323">
        <ele>1155.6400000000001</ele>
        <time>2014-07-16T15:02:25Z</time>
      </trkpt>
      <trkpt lat="45.90205455198884" lon="6.803079256787896">
        <ele>1152.76</ele>
        <time>2014-07-16T15:02:37Z</time>
      </trkpt>
      <trkpt lat="45.902018845081329" lon="6.803006334230304">
        <ele>1149.3900000000001</ele>
        <time>2014-07-16T15:02:47Z</time>
      </trkpt>
      <trkpt lat="45.901988670229912" lon="6.802898542955518">
        <ele>1146.51</ele>
        <time>2014-07-16T15:02:59Z</time>
      </trkpt>
      <trkpt lat="45.901937624439597" lon="6.802734341472387">
        <ele>1142.6600000000001</ele>
        <time>2014-07-16T15:03:13Z</time>
      </trkpt>
      <trkpt lat="45.901891691610217" lon="6.802613474428654">
        <ele>1139.78</ele>
        <time>2014-07-16T15:03:25Z</time>
      </trkpt>
      <trkpt lat="45.901869144290686" lon="6.802579862996936">
        <ele>1138.8199999999999</ele>
        <time>2014-07-16T15:03:29Z</time>
      </trkpt>
      <trkpt lat="45.901856822893023" lon="6.802615402266383">
        <ele>1135.45</ele>
        <time>2014-07-16T15:03:44Z</time>
      </trkpt>
      <trkpt lat="45.901873586699367" lon="6.802576091140509">
        <ele>1134.49</ele>
        <time>2014-07-16T15:04:02Z</time>
      </trkpt>
      <trkpt lat="45.901795215904713" lon="6.802661921828985">
        <ele>1132.5699999999999</ele>
        <time>2014-07-16T15:04:16Z</time>
      </trkpt>
      <trkpt lat="45.901708379387856" lon="6.802725037559867">
        <ele>1129.6900000000001</ele>
        <time>2014-07-16T15:04:26Z</time>
      </trkpt>
      <trkpt lat="45.901615675538778" lon="6.802800558507443">
        <ele>1126.3199999999999</ele>
        <time>2014-07-16T15:04:38Z</time>
      </trkpt>
      <trkpt lat="45.901506124064326" lon="6.802905080839992">
        <ele>1125.3599999999999</ele>
        <time>2014-07-16T15:04:56Z</time>
      </trkpt>
      <trkpt lat="45.90142322704196" lon="6.80274523794651">
        <ele>1122</ele>
        <time>2014-07-16T15:05:10Z</time>
      </trkpt>
      <trkpt lat="45.901376288384199" lon="6.802777843549848">
        <ele>1118.6300000000001</ele>
        <time>2014-07-16T15:05:26Z</time>
      </trkpt>
      <trkpt lat="45.901363966986537" lon="6.80288152769208">
        <ele>1115.75</ele>
        <time>2014-07-16T15:05:38Z</time>
      </trkpt>
      <trkpt lat="45.901324320584536" lon="6.803023684769869">
        <ele>1112.3800000000001</ele>
        <time>2014-07-16T15:05:49Z</time>
      </trkpt>
      <trkpt lat="45.901224073022604" lon="6.803125943988562">
        <ele>1109.5</ele>
        <time>2014-07-16T15:06:01Z</time>
      </trkpt>
      <trkpt lat="45.90117503888905" lon="6.803236501291394">
        <ele>1107.0999999999999</ele>
        <time>2014-07-16T15:06:16Z</time>
      </trkpt>
      <trkpt lat="45.901199849322438" lon="6.803366169333458">
        <ele>1103.73</ele>
        <time>2014-07-16T15:06:29Z</time>
      </trkpt>
      <trkpt lat="45.901202280074358" lon="6.803609076887369">
        <ele>1100.3699999999999</ele>
        <time>2014-07-16T15:06:47Z</time>
      </trkpt>
      <trkpt lat="45.901208650320768" lon="6.803784007206559">
        <ele>1098.9200000000001</ele>
        <time>2014-07-16T15:07:00Z</time>
      </trkpt>
      <trkpt lat="45.901216277852654" lon="6.803919207304716">
        <ele>1096.52</ele>
        <time>2014-07-16T15:07:11Z</time>
      </trkpt>
      <trkpt lat="45.901220887899399" lon="6.803908729925752">
        <ele>1096.04</ele>
        <time>2014-07-16T15:07:23Z</time>
      </trkpt>
      <trkpt lat="45.901192976161838" lon="6.803890373557806">
        <ele>1095.5599999999999</ele>
        <time>2014-07-16T15:07:27Z</time>
      </trkpt>
      <trkpt lat="45.901094991713762" lon="6.803803369402885">
        <ele>1092.6800000000001</ele>
        <time>2014-07-16T15:07:43Z</time>
      </trkpt>
      <trkpt lat="45.901066493242979" lon="6.803783923387528">
        <ele>1091.23</ele>
        <time>2014-07-16T15:07:47Z</time>
      </trkpt>
      <trkpt lat="45.900959959253669" lon="6.803784342482686">
        <ele>1087.8699999999999</ele>
        <time>2014-07-16T15:08:01Z</time>
      </trkpt>
      <trkpt lat="45.900974711403251" lon="6.803871681913734">
        <ele>1086.4300000000001</ele>
        <time>2014-07-16T15:08:06Z</time>
      </trkpt>
      <trkpt lat="45.900945710018277" lon="6.803925493732095">
        <ele>1084.02</ele>
        <time>2014-07-16T15:08:19Z</time>
      </trkpt>
      <trkpt lat="45.900931293144822" lon="6.804002858698368">
        <ele>1081.1400000000001</ele>
        <time>2014-07-16T15:08:32Z</time>
      </trkpt>
      <trkpt lat="45.900862561538815" lon="6.804096149280667">
        <ele>1077.78</ele>
        <time>2014-07-16T15:08:45Z</time>
      </trkpt>
      <trkpt lat="45.900879492983222" lon="6.804278874769807">
        <ele>1074.8900000000001</ele>
        <time>2014-07-16T15:08:57Z</time>
      </trkpt>
      <trkpt lat="45.900840349495411" lon="6.804420361295342">
        <ele>1072.97</ele>
        <time>2014-07-16T15:09:12Z</time>
      </trkpt>
      <trkpt lat="45.900796931236982" lon="6.804544748738408">
        <ele>1070.0799999999999</ele>
        <time>2014-07-16T15:09:28Z</time>
      </trkpt>
      <trkpt lat="45.900608841329813" lon="6.804442824795842">
        <ele>1067.2</ele>
        <time>2014-07-16T15:09:44Z</time>
      </trkpt>
      <trkpt lat="45.900477077811956" lon="6.804442908614874">
        <ele>1064.3199999999999</ele>
        <time>2014-07-16T15:09:58Z</time>
      </trkpt>
      <trkpt lat="45.90036048553884" lon="6.804468473419547">
        <ele>1061.9100000000001</ele>
        <time>2014-07-16T15:10:13Z</time>
      </trkpt>
      <trkpt lat="45.900281528010964" lon="6.804411308839917">
        <ele>1059.99</ele>
        <time>2014-07-16T15:10:22Z</time>
      </trkpt>
      <trkpt lat="45.900177424773574" lon="6.804275354370475">
        <ele>1057.1099999999999</ele>
        <time>2014-07-16T15:10:35Z</time>
      </trkpt>
      <trkpt lat="45.90010492131114" lon="6.804210226982832">
        <ele>1054.7</ele>
        <time>2014-07-16T15:10:43Z</time>
      </trkpt>
      <trkpt lat="45.899940468370914" lon="6.804030351340771">
        <ele>1052.3</ele>
        <time>2014-07-16T15:10:59Z</time>
      </trkpt>
      <trkpt lat="45.899875592440367" lon="6.803838154301047">
        <ele>1049.4200000000001</ele>
        <time>2014-07-16T15:11:14Z</time>
      </trkpt>
      <trkpt lat="45.899829491972923" lon="6.803787024691701">
        <ele>1048.45</ele>
        <time>2014-07-16T15:11:19Z</time>
      </trkpt>
      <trkpt lat="45.899785403162241" lon="6.803862629458308">
        <ele>1048.45</ele>
        <time>2014-07-16T15:11:28Z</time>
      </trkpt>
      <trkpt lat="45.899828486144543" lon="6.804089359939098">
        <ele>1046.53</ele>
        <time>2014-07-16T15:11:42Z</time>
      </trkpt>
      <trkpt lat="45.899927476420999" lon="6.804321706295013">
        <ele>1045.5699999999999</ele>
        <time>2014-07-16T15:11:57Z</time>
      </trkpt>
      <trkpt lat="45.899982880800962" lon="6.804479788988829">
        <ele>1045.0899999999999</ele>
        <time>2014-07-16T15:12:11Z</time>
      </trkpt>
      <trkpt lat="45.89995639398694" lon="6.804513651877642">
        <ele>1043.1700000000001</ele>
        <time>2014-07-16T15:12:14Z</time>
      </trkpt>
      <trkpt lat="45.899860253557563" lon="6.804511221125722">
        <ele>1042.21</ele>
        <time>2014-07-16T15:12:19Z</time>
      </trkpt>
      <trkpt lat="45.89980049058795" lon="6.804455481469631">
        <ele>1041.25</ele>
        <time>2014-07-16T15:12:25Z</time>
      </trkpt>
      <trkpt lat="45.899764448404312" lon="6.804382978007197">
        <ele>1040.28</ele>
        <time>2014-07-16T15:12:30Z</time>
      </trkpt>
      <trkpt lat="45.899606449529529" lon="6.80426487699151">
        <ele>1038.3599999999999</ele>
        <time>2014-07-16T15:12:46Z</time>
      </trkpt>
      <trkpt lat="45.899590272456408" lon="6.804261524230242">
        <ele>1038.3599999999999</ele>
        <time>2014-07-16T15:12:48Z</time>
      </trkpt>
      <trkpt lat="45.899560181424022" lon="6.804246688261628">
        <ele>1037.8800000000001</ele>
        <time>2014-07-16T15:12:52Z</time>
      </trkpt>
      <trkpt lat="45.899497987702489" lon="6.804224476218224">
        <ele>1037.4000000000001</ele>
        <time>2014-07-16T15:12:57Z</time>
      </trkpt>
      <trkpt lat="45.899356417357922" lon="6.804136047139764">
        <ele>1036.4400000000001</ele>
        <time>2014-07-16T15:13:11Z</time>
      </trkpt>
      <trkpt lat="45.899295900017023" lon="6.80407821200788">
        <ele>1035</ele>
        <time>2014-07-16T15:13:18Z</time>
      </trkpt>
      <trkpt lat="45.899235969409347" lon="6.803835891187191">
        <ele>1033.55</ele>
        <time>2014-07-16T15:13:33Z</time>
      </trkpt>
      <trkpt lat="45.899116359651089" lon="6.803646292537451">
        <ele>1032.5899999999999</ele>
        <time>2014-07-16T15:13:47Z</time>
      </trkpt>
      <trkpt lat="45.89896691031754" lon="6.803548391908407">
        <ele>1032.1099999999999</ele>
        <time>2014-07-16T15:14:03Z</time>
      </trkpt>
      <trkpt lat="45.89882081374526" lon="6.803426602855325">
        <ele>1029.23</ele>
        <time>2014-07-16T15:14:19Z</time>
      </trkpt>
      <trkpt lat="45.89864487759769" lon="6.803285200148821">
        <ele>1027.3099999999999</ele>
        <time>2014-07-16T15:14:35Z</time>
      </trkpt>
      <trkpt lat="45.898479837924242" lon="6.803091494366527">
        <ele>1027.3099999999999</ele>
        <time>2014-07-16T15:14:51Z</time>
      </trkpt>
      <trkpt lat="45.89831261895597" lon="6.802963502705097">
        <ele>1024.4200000000001</ele>
        <time>2014-07-16T15:15:07Z</time>
      </trkpt>
      <trkpt lat="45.898176999762654" lon="6.802869038656354">
        <ele>1023.46</ele>
        <time>2014-07-16T15:15:22Z</time>
      </trkpt>
      <trkpt lat="45.898066610097885" lon="6.802746830508113">
        <ele>1023.9400000000001</ele>
        <time>2014-07-16T15:15:35Z</time>
      </trkpt>
      <trkpt lat="45.897940965369344" lon="6.802595034241676">
        <ele>1023.9400000000001</ele>
        <time>2014-07-16T15:15:50Z</time>
      </trkpt>
      <trkpt lat="45.89782596565783" lon="6.802398646250367">
        <ele>1024.4200000000001</ele>
        <time>2014-07-16T15:16:10Z</time>
      </trkpt>
      <trkpt lat="45.897785648703575" lon="6.802351707592607">
        <ele>1024.4200000000001</ele>
        <time>2014-07-16T15:16:14Z</time>
      </trkpt>
      <trkpt lat="45.897660087794065" lon="6.802151799201965">
        <ele>1024.9000000000001</ele>
        <time>2014-07-16T15:16:30Z</time>
      </trkpt>
      <trkpt lat="45.897614909335971" lon="6.8019306845963">
        <ele>1025.3800000000001</ele>
        <time>2014-07-16T15:16:45Z</time>
      </trkpt>
      <trkpt lat="45.897640977054834" lon="6.801661541685462">
        <ele>1024.9000000000001</ele>
        <time>2014-07-16T15:17:00Z</time>
      </trkpt>
      <trkpt lat="45.897602504119277" lon="6.801405642181635">
        <ele>1025.3800000000001</ele>
        <time>2014-07-16T15:17:15Z</time>
      </trkpt>
      <trkpt lat="45.897592948749661" lon="6.801277063786984">
        <ele>1025.3800000000001</ele>
        <time>2014-07-16T15:17:24Z</time>
      </trkpt>
      <trkpt lat="45.897600073367357" lon="6.80125585757196">
        <ele>1025.3800000000001</ele>
        <time>2014-07-16T15:17:25Z</time>
      </trkpt>
      <trkpt lat="45.897514242678881" lon="6.801012195646763">
        <ele>1024.9000000000001</ele>
        <time>2014-07-16T15:17:42Z</time>
      </trkpt>
      <trkpt lat="45.897500580176711" lon="6.800924856215715">
        <ele>1024.4200000000001</ele>
        <time>2014-07-16T15:17:48Z</time>
      </trkpt>
      <trkpt lat="45.897438386455178" lon="6.80076090618968">
        <ele>1023.9400000000001</ele>
        <time>2014-07-16T15:18:04Z</time>
      </trkpt>
      <trkpt lat="45.89735833927989" lon="6.800562841817737">
        <ele>1022.98</ele>
        <time>2014-07-16T15:18:17Z</time>
      </trkpt>
      <trkpt lat="45.897341659292579" lon="6.80052193813026">
        <ele>1023.46</ele>
        <time>2014-07-16T15:18:20Z</time>
      </trkpt>
      <trkpt lat="45.897173099219799" lon="6.800314066931605">
        <ele>1022.5</ele>
        <time>2014-07-16T15:18:38Z</time>
      </trkpt>
      <trkpt lat="45.896998252719641" lon="6.800181213766336">
        <ele>1022.5</ele>
        <time>2014-07-16T15:18:55Z</time>
      </trkpt>
      <trkpt lat="45.896966401487589" lon="6.800170736387372">
        <ele>1022.5</ele>
        <time>2014-07-16T15:18:58Z</time>
      </trkpt>
      <trkpt lat="45.896881828084588" lon="6.800065459683538">
        <ele>1022.5</ele>
        <time>2014-07-16T15:19:07Z</time>
      </trkpt>
      <trkpt lat="45.896780574694276" lon="6.799915004521608">
        <ele>1021.54</ele>
        <time>2014-07-16T15:19:21Z</time>
      </trkpt>
      <trkpt lat="45.896647721529007" lon="6.799860019236803">
        <ele>1020.58</ele>
        <time>2014-07-16T15:19:36Z</time>
      </trkpt>
      <trkpt lat="45.89637422002852" lon="6.799717610701919">
        <ele>1020.58</ele>
        <time>2014-07-16T15:19:54Z</time>
      </trkpt>
      <trkpt lat="45.89624036103487" lon="6.799612166360021">
        <ele>1017.6900000000001</ele>
        <time>2014-07-16T15:20:09Z</time>
      </trkpt>
      <trkpt lat="45.896081607788801" lon="6.79956522770226">
        <ele>1016.73</ele>
        <time>2014-07-16T15:20:24Z</time>
      </trkpt>
      <trkpt lat="45.895900642499328" lon="6.799463974311948">
        <ele>1015.29</ele>
        <time>2014-07-16T15:20:39Z</time>
      </trkpt>
      <trkpt lat="45.895883878692985" lon="6.799449725076556">
        <ele>1014.8099999999999</ele>
        <time>2014-07-16T15:20:41Z</time>
      </trkpt>
      <trkpt lat="45.895871808752418" lon="6.799436900764704">
        <ele>1014.8099999999999</ele>
        <time>2014-07-16T15:20:43Z</time>
      </trkpt>
      <trkpt lat="45.895646754652262" lon="6.799277141690254">
        <ele>1012.89</ele>
        <time>2014-07-16T15:21:01Z</time>
      </trkpt>
      <trkpt lat="45.895460844039917" lon="6.799136577174068">
        <ele>1010.96</ele>
        <time>2014-07-16T15:21:17Z</time>
      </trkpt>
      <trkpt lat="45.895300498232245" lon="6.799041358754039">
        <ele>1010.48</ele>
        <time>2014-07-16T15:21:32Z</time>
      </trkpt>
      <trkpt lat="45.895107043907046" lon="6.798938764259219">
        <ele>1010.48</ele>
        <time>2014-07-16T15:21:48Z</time>
      </trkpt>
      <trkpt lat="45.894899424165487" lon="6.79880783893168">
        <ele>1011.4400000000001</ele>
        <time>2014-07-16T15:22:08Z</time>
      </trkpt>
      <trkpt lat="45.894755758345127" lon="6.798821333795786">
        <ele>1011.9299999999999</ele>
        <time>2014-07-16T15:22:24Z</time>
      </trkpt>
      <trkpt lat="45.894710663706064" lon="6.798863830044866">
        <ele>1011.4400000000001</ele>
        <time>2014-07-16T15:22:39Z</time>
      </trkpt>
      <trkpt lat="45.894634136930108" lon="6.79892367683351">
        <ele>1010</ele>
        <time>2014-07-16T15:22:47Z</time>
      </trkpt>
      <trkpt lat="45.894606728106737" lon="6.798939183354378">
        <ele>1009.52</ele>
        <time>2014-07-16T15:22:50Z</time>
      </trkpt>
      <trkpt lat="45.894517377018929" lon="6.798920575529337">
        <ele>1008.5599999999999</ele>
        <time>2014-07-16T15:22:58Z</time>
      </trkpt>
      <trkpt lat="45.894384440034628" lon="6.798708010464907">
        <ele>1005.6799999999999</ele>
        <time>2014-07-16T15:23:16Z</time>
      </trkpt>
      <trkpt lat="45.894266087561846" lon="6.798507012426853">
        <ele>1005.6799999999999</ele>
        <time>2014-07-16T15:23:32Z</time>
      </trkpt>
      <trkpt lat="45.89416466653347" lon="6.798331998288631">
        <ele>1003.75</ele>
        <time>2014-07-16T15:23:46Z</time>
      </trkpt>
      <trkpt lat="45.894088726490736" lon="6.798184979707003">
        <ele>1002.3099999999999</ele>
        <time>2014-07-16T15:23:58Z</time>
      </trkpt>
      <trkpt lat="45.89400339871645" lon="6.798029160127044">
        <ele>1000.39</ele>
        <time>2014-07-16T15:24:11Z</time>
      </trkpt>
      <trkpt lat="45.893967356532812" lon="6.798024801537395">
        <ele>999.42999999999995</ele>
        <time>2014-07-16T15:24:15Z</time>
      </trkpt>
      <trkpt lat="45.893907258287072" lon="6.798205683007836">
        <ele>999.42999999999995</ele>
        <time>2014-07-16T15:24:33Z</time>
      </trkpt>
      <trkpt lat="45.893895607441664" lon="6.798267709091306">
        <ele>998.95000000000005</ele>
        <time>2014-07-16T15:24:51Z</time>
      </trkpt>
      <trkpt lat="45.893877502530813" lon="6.798265026882291">
        <ele>998.95000000000005</ele>
        <time>2014-07-16T15:25:08Z</time>
      </trkpt>
      <trkpt lat="45.893866689875722" lon="6.798364687711">
        <ele>998.47000000000003</ele>
        <time>2014-07-16T15:25:17Z</time>
      </trkpt>
      <trkpt lat="45.893861996009946" lon="6.798592926934362">
        <ele>998.47000000000003</ele>
        <time>2014-07-16T15:25:33Z</time>
      </trkpt>
      <trkpt lat="45.893888566643" lon="6.798580102622509">
        <ele>998.95000000000005</ele>
        <time>2014-07-16T15:25:36Z</time>
      </trkpt>
      <trkpt lat="45.893945228308439" lon="6.798671381548047">
        <ele>999.42999999999995</ele>
        <time>2014-07-16T15:25:50Z</time>
      </trkpt>
      <trkpt lat="45.893923435360193" lon="6.798601811751723">
        <ele>999.42999999999995</ele>
        <time>2014-07-16T15:26:05Z</time>
      </trkpt>
      <trkpt lat="45.893861074000597" lon="6.798673896118999">
        <ele>998.95000000000005</ele>
        <time>2014-07-16T15:26:16Z</time>
      </trkpt>
      <trkpt lat="45.893837939947844" lon="6.798665514215827">
        <ele>997.99000000000001</ele>
        <time>2014-07-16T15:26:31Z</time>
      </trkpt>
      <trkpt lat="45.893812542781234" lon="6.798668280243874">
        <ele>997.50999999999999</ele>
        <time>2014-07-16T15:26:50Z</time>
      </trkpt>
      <trkpt lat="45.89382260106504" lon="6.7986842058599">
        <ele>997.50999999999999</ele>
        <time>2014-07-16T15:27:09Z</time>
      </trkpt>
      <trkpt lat="45.893812207505107" lon="6.798729551956058">
        <ele>997.50999999999999</ele>
        <time>2014-07-16T15:27:23Z</time>
      </trkpt>
      <trkpt lat="45.893821427598596" lon="6.798758553341031">
        <ele>997.50999999999999</ele>
        <time>2014-07-16T15:27:42Z</time>
      </trkpt>
      <trkpt lat="45.893810866400599" lon="6.798826027661562">
        <ele>998.47000000000003</ele>
        <time>2014-07-16T15:27:59Z</time>
      </trkpt>
      <trkpt lat="45.893790246918797" lon="6.798923006281257">
        <ele>998.95000000000005</ele>
        <time>2014-07-16T15:28:05Z</time>
      </trkpt>
      <trkpt lat="45.893728220835328" lon="6.799148395657539">
        <ele>1000.39</ele>
        <time>2014-07-16T15:28:21Z</time>
      </trkpt>
      <trkpt lat="45.89363107457757" lon="6.799350148066878">
        <ele>1001.83</ele>
        <time>2014-07-16T15:28:36Z</time>
      </trkpt>
      <trkpt lat="45.893520768731833" lon="6.799524072557688">
        <ele>1003.75</ele>
        <time>2014-07-16T15:28:51Z</time>
      </trkpt>
      <trkpt lat="45.893394537270069" lon="6.799676287919283">
        <ele>1003.27</ele>
        <time>2014-07-16T15:29:08Z</time>
      </trkpt>
      <trkpt lat="45.893321027979255" lon="6.799759352579713">
        <ele>1006.16</ele>
        <time>2014-07-16T15:29:18Z</time>
      </trkpt>
      <trkpt lat="45.893219606950879" lon="6.799781732261181">
        <ele>1006.64</ele>
        <time>2014-07-16T15:29:29Z</time>
      </trkpt>
      <trkpt lat="45.893144840374589" lon="6.799713922664523">
        <ele>1007.12</ele>
        <time>2014-07-16T15:29:39Z</time>
      </trkpt>
      <trkpt lat="45.893034534528852" lon="6.799563216045499">
        <ele>1008.5599999999999</ele>
        <time>2014-07-16T15:29:56Z</time>
      </trkpt>
      <trkpt lat="45.893018776550889" lon="6.799543434754014">
        <ele>1009.04</ele>
        <time>2014-07-16T15:29:58Z</time>
      </trkpt>
      <trkpt lat="45.892885588109493" lon="6.799378897994757">
        <ele>1010</ele>
        <time>2014-07-16T15:30:12Z</time>
      </trkpt>
      <trkpt lat="45.89279355481267" lon="6.799308909103274">
        <ele>1010.48</ele>
        <time>2014-07-16T15:30:18Z</time>
      </trkpt>
      <trkpt lat="45.892637902870774" lon="6.799339335411787">
        <ele>1011.9299999999999</ele>
        <time>2014-07-16T15:30:31Z</time>
      </trkpt>
      <trkpt lat="45.892541510984302" lon="6.799416029825807">
        <ele>1014.8099999999999</ele>
        <time>2014-07-16T15:30:44Z</time>
      </trkpt>
      <trkpt lat="45.892534218728542" lon="6.799486102536321">
        <ele>1016.73</ele>
        <time>2014-07-16T15:30:53Z</time>
      </trkpt>
      <trkpt lat="45.892572775483131" lon="6.799649633467197">
        <ele>1017.6900000000001</ele>
        <time>2014-07-16T15:31:06Z</time>
      </trkpt>
      <trkpt lat="45.892578642815351" lon="6.79980369284749">
        <ele>1018.17</ele>
        <time>2014-07-16T15:31:21Z</time>
      </trkpt>
      <trkpt lat="45.892575709149241" lon="6.799813751131296">
        <ele>1018.17</ele>
        <time>2014-07-16T15:31:33Z</time>
      </trkpt>
      <trkpt lat="45.89256783016026" lon="6.799803609028459">
        <ele>1018.65</ele>
        <time>2014-07-16T15:31:51Z</time>
      </trkpt>
      <trkpt lat="45.892576882615685" lon="6.799807380884886">
        <ele>1018.17</ele>
        <time>2014-07-16T15:32:08Z</time>
      </trkpt>
      <trkpt lat="45.892581073567271" lon="6.799833867698908">
        <ele>1017.6900000000001</ele>
        <time>2014-07-16T15:32:26Z</time>
      </trkpt>
      <trkpt lat="45.892595071345568" lon="6.799858091399074">
        <ele>1018.65</ele>
        <time>2014-07-16T15:32:44Z</time>
      </trkpt>
      <trkpt lat="45.892591467127204" lon="6.799865551292896">
        <ele>1018.17</ele>
        <time>2014-07-16T15:32:56Z</time>
      </trkpt>
      <trkpt lat="45.892595741897821" lon="6.799886170774698">
        <ele>1018.17</ele>
        <time>2014-07-16T15:32:58Z</time>
      </trkpt>
      <trkpt lat="45.892592472955585" lon="6.799914501607418">
        <ele>1018.17</ele>
        <time>2014-07-16T15:33:01Z</time>
      </trkpt>
      <trkpt lat="45.892660114914179" lon="6.800028160214424">
        <ele>1018.17</ele>
        <time>2014-07-16T15:33:16Z</time>
      </trkpt>
      <trkpt lat="45.89262549765408" lon="6.800002595409751">
        <ele>1017.6900000000001</ele>
        <time>2014-07-16T15:33:25Z</time>
      </trkpt>
      <trkpt lat="45.892604794353247" lon="6.799947274848819">
        <ele>1018.17</ele>
        <time>2014-07-16T15:33:30Z</time>
      </trkpt>
      <trkpt lat="45.892599010840058" lon="6.799891032278538">
        <ele>1017.6900000000001</ele>
        <time>2014-07-16T15:33:44Z</time>
      </trkpt>
      <trkpt lat="45.892582582309842" lon="6.799912489950657">
        <ele>1018.17</ele>
        <time>2014-07-16T15:33:59Z</time>
      </trkpt>
      <trkpt lat="45.892583169043064" lon="6.799924140796065">
        <ele>1018.17</ele>
        <time>2014-07-16T15:34:00Z</time>
      </trkpt>
      <trkpt lat="45.892617199569941" lon="6.799986334517598">
        <ele>1017.6900000000001</ele>
        <time>2014-07-16T15:34:06Z</time>
      </trkpt>
      <trkpt lat="45.892658270895481" lon="6.800049198791385">
        <ele>1017.6900000000001</ele>
        <time>2014-07-16T15:34:20Z</time>
      </trkpt>
      <trkpt lat="45.892500439658761" lon="6.800070991739631">
        <ele>1017.6900000000001</ele>
        <time>2014-07-16T15:34:28Z</time>
      </trkpt>
      <trkpt lat="45.892442185431719" lon="6.800028998404741">
        <ele>1018.17</ele>
        <time>2014-07-16T15:34:31Z</time>
      </trkpt>
      <trkpt lat="45.892406227067113" lon="6.799999410286546">
        <ele>1018.17</ele>
        <time>2014-07-16T15:34:45Z</time>
      </trkpt>
      <trkpt lat="45.892328191548586" lon="6.799926990643144">
        <ele>1018.65</ele>
        <time>2014-07-16T15:34:57Z</time>
      </trkpt>
      <trkpt lat="45.8923274371773" lon="6.799925481900573">
        <ele>1019.13</ele>
        <time>2014-07-16T15:35:02Z</time>
      </trkpt>
      <trkpt lat="45.892303716391325" lon="6.799991866573691">
        <ele>1018.65</ele>
        <time>2014-07-16T15:35:14Z</time>
      </trkpt>
      <trkpt lat="45.892363060265779" lon="6.799930678680539">
        <ele>1018.65</ele>
        <time>2014-07-16T15:35:33Z</time>
      </trkpt>
      <trkpt lat="45.892520640045404" lon="6.799863623455167">
        <ele>1018.65</ele>
        <time>2014-07-16T15:36:01Z</time>
      </trkpt>
      <trkpt lat="45.892469761893153" lon="6.799882315099239">
        <ele>1018.65</ele>
        <time>2014-07-16T15:36:30Z</time>
      </trkpt>
      <trkpt lat="45.892438413575292" lon="6.799872675910592">
        <ele>1018.17</ele>
        <time>2014-07-16T15:36:40Z</time>
      </trkpt>
      <trkpt lat="45.892474120482802" lon="6.799838813021779">
        <ele>1018.65</ele>
        <time>2014-07-16T15:37:08Z</time>
      </trkpt>
      <trkpt lat="45.892551233991981" lon="6.799867562949657">
        <ele>1019.13</ele>
        <time>2014-07-16T15:37:31Z</time>
      </trkpt>
      <trkpt lat="45.892496835440397" lon="6.799909304827452">
        <ele>1019.13</ele>
        <time>2014-07-16T15:37:39Z</time>
      </trkpt>
      <trkpt lat="45.8924725279212" lon="6.799805453047156">
        <ele>1019.13</ele>
        <time>2014-07-16T15:37:47Z</time>
      </trkpt>
      <trkpt lat="45.892423242330551" lon="6.799756502732635">
        <ele>1018.65</ele>
        <time>2014-07-16T15:37:59Z</time>
      </trkpt>
      <trkpt lat="45.89241879992187" lon="6.799778882414103">
        <ele>1018.17</ele>
        <time>2014-07-16T15:38:11Z</time>
      </trkpt>
      <trkpt lat="45.8924276009202" lon="6.799724651500583">
        <ele>1018.17</ele>
        <time>2014-07-16T15:38:24Z</time>
      </trkpt>
      <trkpt lat="45.892446544021368" lon="6.799668744206429">
        <ele>1017.6900000000001</ele>
        <time>2014-07-16T15:38:41Z</time>
      </trkpt>
      <trkpt lat="45.892475293949246" lon="6.799680981785059">
        <ele>1017.21</ele>
        <time>2014-07-16T15:38:56Z</time>
      </trkpt>
      <trkpt lat="45.892502954229712" lon="6.799678467214108">
        <ele>1016.73</ele>
        <time>2014-07-16T15:38:59Z</time>
      </trkpt>
      <trkpt lat="45.892540421336889" lon="6.799585847184062">
        <ele>1017.21</ele>
        <time>2014-07-16T15:39:07Z</time>
      </trkpt>
      <trkpt lat="45.892492225393653" lon="6.799460621550679">
        <ele>1016.25</ele>
        <time>2014-07-16T15:39:16Z</time>
      </trkpt>
      <trkpt lat="45.892483256757259" lon="6.799364732578397">
        <ele>1014.8099999999999</ele>
        <time>2014-07-16T15:39:30Z</time>
      </trkpt>
      <trkpt lat="45.892485603690147" lon="6.799337491393089">
        <ele>1014.33</ele>
        <time>2014-07-16T15:39:32Z</time>
      </trkpt>
      <trkpt lat="45.892529524862766" lon="6.799266748130322">
        <ele>1011.9299999999999</ele>
        <time>2014-07-16T15:39:38Z</time>
      </trkpt>
      <trkpt lat="45.892569338902831" lon="6.799207152798772">
        <ele>1010.48</ele>
        <time>2014-07-16T15:39:42Z</time>
      </trkpt>
      <trkpt lat="45.89266506023705" lon="6.799219641834498">
        <ele>1008.5599999999999</ele>
        <time>2014-07-16T15:39:56Z</time>
      </trkpt>
      <trkpt lat="45.892747538164258" lon="6.799405133351684">
        <ele>1007.12</ele>
        <time>2014-07-16T15:40:12Z</time>
      </trkpt>
      <trkpt lat="45.892872847616673" lon="6.799574699252844">
        <ele>1005.2</ele>
        <time>2014-07-16T15:40:29Z</time>
      </trkpt>
      <trkpt lat="45.892907716333866" lon="6.799620045349002">
        <ele>1004.72</ele>
        <time>2014-07-16T15:40:34Z</time>
      </trkpt>
      <trkpt lat="45.893130088225007" lon="6.799689615145326">
        <ele>1004.23</ele>
        <time>2014-07-16T15:40:48Z</time>
      </trkpt>
      <trkpt lat="45.893166633322835" lon="6.799673270434141">
        <ele>1003.75</ele>
        <time>2014-07-16T15:40:53Z</time>
      </trkpt>
      <trkpt lat="45.893239891156554" lon="6.799573777243495">
        <ele>1002.79</ele>
        <time>2014-07-16T15:41:03Z</time>
      </trkpt>
      <trkpt lat="45.893299151211977" lon="6.79949339479208">
        <ele>1001.83</ele>
        <time>2014-07-16T15:41:09Z</time>
      </trkpt>
      <trkpt lat="45.893321698531508" lon="6.799438074231148">
        <ele>1001.35</ele>
        <time>2014-07-16T15:41:13Z</time>
      </trkpt>
      <trkpt lat="45.89333058334887" lon="6.799399517476559">
        <ele>1001.35</ele>
        <time>2014-07-16T15:41:15Z</time>
      </trkpt>
      <trkpt lat="45.893377857282758" lon="6.799348806962371">
        <ele>1000.39</ele>
        <time>2014-07-16T15:41:20Z</time>
      </trkpt>
      <trkpt lat="45.893394034355879" lon="6.799319470301271">
        <ele>999.90999999999997</ele>
        <time>2014-07-16T15:41:22Z</time>
      </trkpt>
      <trkpt lat="45.893406188115478" lon="6.799293402582407">
        <ele>999.90999999999997</ele>
        <time>2014-07-16T15:41:24Z</time>
      </trkpt>
      <trkpt lat="45.893480451777577" lon="6.799217462539673">
        <ele>999.42999999999995</ele>
        <time>2014-07-16T15:41:31Z</time>
      </trkpt>
      <trkpt lat="45.89352848008275" lon="6.799147892743349">
        <ele>998.47000000000003</ele>
        <time>2014-07-16T15:41:37Z</time>
      </trkpt>
      <trkpt lat="45.893559074029326" lon="6.799099696800113">
        <ele>997.99000000000001</ele>
        <time>2014-07-16T15:41:41Z</time>
      </trkpt>
      <trkpt lat="45.893626380711794" lon="6.799044879153371">
        <ele>997.99000000000001</ele>
        <time>2014-07-16T15:41:47Z</time>
      </trkpt>
      <trkpt lat="45.893678516149521" lon="6.79883323609829">
        <ele>996.05999999999995</ele>
        <time>2014-07-16T15:42:00Z</time>
      </trkpt>
      <trkpt lat="45.89371221140027" lon="6.798720834776759">
        <ele>995.58000000000004</ele>
        <time>2014-07-16T15:42:11Z</time>
      </trkpt>
      <trkpt lat="45.893780859187245" lon="6.798620587214828">
        <ele>994.62</ele>
        <time>2014-07-16T15:42:19Z</time>
      </trkpt>
      <trkpt lat="45.893801059573889" lon="6.798556381836534">
        <ele>994.13999999999999</ele>
        <time>2014-07-16T15:42:23Z</time>
      </trkpt>
      <trkpt lat="45.893855290487409" lon="6.798398634418845">
        <ele>994.13999999999999</ele>
        <time>2014-07-16T15:42:33Z</time>
      </trkpt>
      <trkpt lat="45.893862247467041" lon="6.798336775973439">
        <ele>994.13999999999999</ele>
        <time>2014-07-16T15:42:37Z</time>
      </trkpt>
      <trkpt lat="45.893889907747507" lon="6.798185901716352">
        <ele>994.13999999999999</ele>
        <time>2014-07-16T15:42:46Z</time>
      </trkpt>
      <trkpt lat="45.893971044570208" lon="6.79800309240818">
        <ele>993.65999999999997</ele>
        <time>2014-07-16T15:42:58Z</time>
      </trkpt>
      <trkpt lat="45.894066849723458" lon="6.79803972132504">
        <ele>995.10000000000002</ele>
        <time>2014-07-16T15:43:06Z</time>
      </trkpt>
      <trkpt lat="45.894193416461349" lon="6.798219429329038">
        <ele>996.53999999999996</ele>
        <time>2014-07-16T15:43:20Z</time>
      </trkpt>
      <trkpt lat="45.894209006801248" lon="6.7983128875494">
        <ele>997.99000000000001</ele>
        <time>2014-07-16T15:43:31Z</time>
      </trkpt>
      <trkpt lat="45.894287126138806" lon="6.798467617481947">
        <ele>999.42999999999995</ele>
        <time>2014-07-16T15:43:42Z</time>
      </trkpt>
      <trkpt lat="45.894397180527449" lon="6.79864757694304">
        <ele>999.42999999999995</ele>
        <time>2014-07-16T15:43:56Z</time>
      </trkpt>
      <trkpt lat="45.894489213824272" lon="6.798814879730344">
        <ele>1000.39</ele>
        <time>2014-07-16T15:44:12Z</time>
      </trkpt>
      <trkpt lat="45.894527770578861" lon="6.798897692933679">
        <ele>1001.83</ele>
        <time>2014-07-16T15:44:27Z</time>
      </trkpt>
      <trkpt lat="45.894625084474683" lon="6.798902805894613">
        <ele>1002.79</ele>
        <time>2014-07-16T15:44:40Z</time>
      </trkpt>
      <trkpt lat="45.894631957635283" lon="6.798897860571742">
        <ele>1004.23</ele>
        <time>2014-07-16T15:44:41Z</time>
      </trkpt>
      <trkpt lat="45.894736060872674" lon="6.798800714313984">
        <ele>1004.72</ele>
        <time>2014-07-16T15:44:55Z</time>
      </trkpt>
      <trkpt lat="45.894799344241619" lon="6.798731563612819">
        <ele>1005.6799999999999</ele>
        <time>2014-07-16T15:45:07Z</time>
      </trkpt>
      <trkpt lat="45.894891964271665" lon="6.798750422894955">
        <ele>1005.6799999999999</ele>
        <time>2014-07-16T15:45:25Z</time>
      </trkpt>
      <trkpt lat="45.894877715036273" lon="6.798757882788777">
        <ele>1006.16</ele>
        <time>2014-07-16T15:45:41Z</time>
      </trkpt>
      <trkpt lat="45.894851312041283" lon="6.798798199743033">
        <ele>1006.16</ele>
        <time>2014-07-16T15:45:52Z</time>
      </trkpt>
      <trkpt lat="45.894868327304721" lon="6.798791997134686">
        <ele>1006.64</ele>
        <time>2014-07-16T15:46:11Z</time>
      </trkpt>
      <trkpt lat="45.895003862679005" lon="6.798780513927341">
        <ele>1008.5599999999999</ele>
        <time>2014-07-16T15:46:27Z</time>
      </trkpt>
      <trkpt lat="45.89514727704227" lon="6.798751344904304">
        <ele>1010</ele>
        <time>2014-07-16T15:46:44Z</time>
      </trkpt>
      <trkpt lat="45.895316256210208" lon="6.798780262470245">
        <ele>1010.96</ele>
        <time>2014-07-16T15:47:01Z</time>
      </trkpt>
      <trkpt lat="45.895439889281988" lon="6.798855783417821">
        <ele>1012.41</ele>
        <time>2014-07-16T15:47:14Z</time>
      </trkpt>
      <trkpt lat="45.895469142124057" lon="6.798888891935349">
        <ele>1012.41</ele>
        <time>2014-07-16T15:47:25Z</time>
      </trkpt>
      <trkpt lat="45.895542735233903" lon="6.79894614033401">
        <ele>1013.85</ele>
        <time>2014-07-16T15:47:38Z</time>
      </trkpt>
      <trkpt lat="45.895610880106688" lon="6.798946391791105">
        <ele>1014.8099999999999</ele>
        <time>2014-07-16T15:47:56Z</time>
      </trkpt>
      <trkpt lat="45.895724957808852" lon="6.798937087878585">
        <ele>1015.29</ele>
        <time>2014-07-16T15:48:16Z</time>
      </trkpt>
      <trkpt lat="45.895882705226541" lon="6.799048902466893">
        <ele>1017.21</ele>
        <time>2014-07-16T15:48:34Z</time>
      </trkpt>
      <trkpt lat="45.896039111539721" lon="6.799085028469563">
        <ele>1018.65</ele>
        <time>2014-07-16T15:48:52Z</time>
      </trkpt>
      <trkpt lat="45.896221669390798" lon="6.799200028181076">
        <ele>1020.58</ele>
        <time>2014-07-16T15:49:09Z</time>
      </trkpt>
      <trkpt lat="45.896313283592463" lon="6.799223413690925">
        <ele>1022.02</ele>
        <time>2014-07-16T15:49:22Z</time>
      </trkpt>
      <trkpt lat="45.89641579426825" lon="6.799280745908618">
        <ele>1023.46</ele>
        <time>2014-07-16T15:49:37Z</time>
      </trkpt>
      <trkpt lat="45.896522998809814" lon="6.799324247986078">
        <ele>1024.4200000000001</ele>
        <time>2014-07-16T15:49:50Z</time>
      </trkpt>
      <trkpt lat="45.896527441218495" lon="6.799325169995427">
        <ele>1024.9000000000001</ele>
        <time>2014-07-16T15:49:51Z</time>
      </trkpt>
      <trkpt lat="45.896533979102969" lon="6.799358362331986">
        <ele>1024.9000000000001</ele>
        <time>2014-07-16T15:49:56Z</time>
      </trkpt>
      <trkpt lat="45.896733552217484" lon="6.799466488882899">
        <ele>1026.8299999999999</ele>
        <time>2014-07-16T15:50:16Z</time>
      </trkpt>
      <trkpt lat="45.89690295048058" lon="6.799571681767702">
        <ele>1028.75</ele>
        <time>2014-07-16T15:50:32Z</time>
      </trkpt>
      <trkpt lat="45.897028343752027" lon="6.79967955686152">
        <ele>1030.1900000000001</ele>
        <time>2014-07-16T15:50:47Z</time>
      </trkpt>
      <trkpt lat="45.897138733416796" lon="6.799781983718276">
        <ele>1031.6300000000001</ele>
        <time>2014-07-16T15:51:01Z</time>
      </trkpt>
      <trkpt lat="45.897241579368711" lon="6.799832861870527">
        <ele>1033.0699999999999</ele>
        <time>2014-07-16T15:51:15Z</time>
      </trkpt>
      <trkpt lat="45.897311149165034" lon="6.799766477197409">
        <ele>1033.55</ele>
        <time>2014-07-16T15:51:29Z</time>
      </trkpt>
      <trkpt lat="45.897336965426803" lon="6.799608059227467">
        <ele>1034.52</ele>
        <time>2014-07-16T15:51:44Z</time>
      </trkpt>
      <trkpt lat="45.897280303761363" lon="6.799552403390408">
        <ele>1035.48</ele>
        <time>2014-07-16T15:52:00Z</time>
      </trkpt>
      <trkpt lat="45.897202016785741" lon="6.799587858840823">
        <ele>1035.96</ele>
        <time>2014-07-16T15:52:09Z</time>
      </trkpt>
      <trkpt lat="45.897128423675895" lon="6.799503620713949">
        <ele>1035.96</ele>
        <time>2014-07-16T15:52:25Z</time>
      </trkpt>
      <trkpt lat="45.897131860256195" lon="6.799478223547339">
        <ele>1035.96</ele>
        <time>2014-07-16T15:52:52Z</time>
      </trkpt>
      <trkpt lat="45.897041335701942" lon="6.799463806673884">
        <ele>1036.9200000000001</ele>
        <time>2014-07-16T15:53:17Z</time>
      </trkpt>
      <trkpt lat="45.897005377337337" lon="6.799446288496256">
        <ele>1036.9200000000001</ele>
        <time>2014-07-16T15:53:20Z</time>
      </trkpt>
      <trkpt lat="45.896945865824819" lon="6.799376215785742">
        <ele>1037.8800000000001</ele>
        <time>2014-07-16T15:53:28Z</time>
      </trkpt>
      <trkpt lat="45.896876296028495" lon="6.799198854714632">
        <ele>1039.3199999999999</ele>
        <time>2014-07-16T15:53:43Z</time>
      </trkpt>
      <trkpt lat="45.896808654069901" lon="6.799052841961384">
        <ele>1040.28</ele>
        <time>2014-07-16T15:53:55Z</time>
      </trkpt>
      <trkpt lat="45.896788537502289" lon="6.798989474773407">
        <ele>1041.25</ele>
        <time>2014-07-16T15:54:00Z</time>
      </trkpt>
      <trkpt lat="45.896747214719653" lon="6.798872966319323">
        <ele>1042.21</ele>
        <time>2014-07-16T15:54:09Z</time>
      </trkpt>
      <trkpt lat="45.896680662408471" lon="6.798713374882937">
        <ele>1043.1700000000001</ele>
        <time>2014-07-16T15:54:22Z</time>
      </trkpt>
      <trkpt lat="45.89666792191565" lon="6.798683535307646">
        <ele>1043.6500000000001</ele>
        <time>2014-07-16T15:54:24Z</time>
      </trkpt>
      <trkpt lat="45.896554179489613" lon="6.798467449843884">
        <ele>1045.0899999999999</ele>
        <time>2014-07-16T15:54:40Z</time>
      </trkpt>
      <trkpt lat="45.896448064595461" lon="6.798314731568098">
        <ele>1047.49</ele>
        <time>2014-07-16T15:54:56Z</time>
      </trkpt>
      <trkpt lat="45.896281264722347" lon="6.798095293343067">
        <ele>1048.45</ele>
        <time>2014-07-16T15:55:14Z</time>
      </trkpt>
      <trkpt lat="45.896061575040221" lon="6.797994375228882">
        <ele>1050.3800000000001</ele>
        <time>2014-07-16T15:55:33Z</time>
      </trkpt>
      <trkpt lat="45.895942468196154" lon="6.797908879816532">
        <ele>1051.3399999999999</ele>
        <time>2014-07-16T15:55:49Z</time>
      </trkpt>
      <trkpt lat="45.895904414355755" lon="6.797817097976804">
        <ele>1051.3399999999999</ele>
        <time>2014-07-16T15:56:02Z</time>
      </trkpt>
      <trkpt lat="45.895938528701663" lon="6.797771584242582">
        <ele>1051.3399999999999</ele>
        <time>2014-07-16T15:56:16Z</time>
      </trkpt>
      <trkpt lat="45.89617682620883" lon="6.797778960317373">
        <ele>1052.3</ele>
        <time>2014-07-16T15:56:35Z</time>
      </trkpt>
      <trkpt lat="45.896333819255233" lon="6.797842746600509">
        <ele>1051.3399999999999</ele>
        <time>2014-07-16T15:56:59Z</time>
      </trkpt>
      <trkpt lat="45.896535320207477" lon="6.797802681103349">
        <ele>1051.3399999999999</ele>
        <time>2014-07-16T15:57:28Z</time>
      </trkpt>
      <trkpt lat="45.896513611078262" lon="6.79779639467597">
        <ele>1053.26</ele>
        <time>2014-07-16T15:57:32Z</time>
      </trkpt>
      <trkpt lat="45.896493410691619" lon="6.797805782407522">
        <ele>1051.8199999999999</ele>
        <time>2014-07-16T15:57:34Z</time>
      </trkpt>
      <trkpt lat="45.896265674382448" lon="6.797826820984483">
        <ele>1051.8199999999999</ele>
        <time>2014-07-16T15:57:51Z</time>
      </trkpt>
      <trkpt lat="45.896124858409166" lon="6.797852050513029">
        <ele>1051.8199999999999</ele>
        <time>2014-07-16T15:58:08Z</time>
      </trkpt>
      <trkpt lat="45.896001309156418" lon="6.797830760478973">
        <ele>1051.8199999999999</ele>
        <time>2014-07-16T15:58:30Z</time>
      </trkpt>
      <trkpt lat="45.895820511505008" lon="6.797771081328392">
        <ele>1052.3</ele>
        <time>2014-07-16T15:59:00Z</time>
      </trkpt>
      <trkpt lat="45.895896116271615" lon="6.797804441303015">
        <ele>1052.78</ele>
        <time>2014-07-16T15:59:24Z</time>
      </trkpt>
      <trkpt lat="45.895985718816519" lon="6.797750713303685">
        <ele>1053.26</ele>
        <time>2014-07-16T15:59:41Z</time>
      </trkpt>
      <trkpt lat="45.896000219509006" lon="6.797700840979815">
        <ele>1053.26</ele>
        <time>2014-07-16T16:00:03Z</time>
      </trkpt>
      <trkpt lat="45.895885303616524" lon="6.797736631706357">
        <ele>1054.22</ele>
        <time>2014-07-16T16:00:23Z</time>
      </trkpt>
      <trkpt lat="45.895728813484311" lon="6.797848278656602">
        <ele>1053.74</ele>
        <time>2014-07-16T16:00:40Z</time>
      </trkpt>
      <trkpt lat="45.895738955587149" lon="6.797864958643913">
        <ele>1053.74</ele>
        <time>2014-07-16T16:00:56Z</time>
      </trkpt>
      <trkpt lat="45.895712133497" lon="6.797832436859608">
        <ele>1053.74</ele>
        <time>2014-07-16T16:01:28Z</time>
      </trkpt>
      <trkpt lat="45.89575613848865" lon="6.7978501226753">
        <ele>1054.7</ele>
        <time>2014-07-16T16:01:52Z</time>
      </trkpt>
      <trkpt lat="45.895857559517026" lon="6.797759430482984">
        <ele>1054.7</ele>
        <time>2014-07-16T16:02:11Z</time>
      </trkpt>
      <trkpt lat="45.895939283072948" lon="6.797772590070963">
        <ele>1055.6700000000001</ele>
        <time>2014-07-16T16:02:39Z</time>
      </trkpt>
      <trkpt lat="45.895932912826538" lon="6.797777870669961">
        <ele>1056.6300000000001</ele>
        <time>2014-07-16T16:03:03Z</time>
      </trkpt>
      <trkpt lat="45.896012960001826" lon="6.797796813771129">
        <ele>1057.5899999999999</ele>
        <time>2014-07-16T16:03:29Z</time>
      </trkpt>
      <trkpt lat="45.89604145847261" lon="6.797779966145754">
        <ele>1058.0699999999999</ele>
        <time>2014-07-16T16:03:45Z</time>
      </trkpt>
      <trkpt lat="45.895944563671947" lon="6.797697823494673">
        <ele>1059.03</ele>
        <time>2014-07-16T16:04:00Z</time>
      </trkpt>
      <trkpt lat="45.895797880366445" lon="6.79776513017714">
        <ele>1059.51</ele>
        <time>2014-07-16T16:04:16Z</time>
      </trkpt>
      <trkpt lat="45.895762508735061" lon="6.797806285321713">
        <ele>1059.99</ele>
        <time>2014-07-16T16:04:44Z</time>
      </trkpt>
      <trkpt lat="45.895797042176127" lon="6.797769907861948">
        <ele>1060.95</ele>
        <time>2014-07-16T16:05:10Z</time>
      </trkpt>
      <trkpt lat="45.895709618926048" lon="6.797841573134065">
        <ele>1061.4300000000001</ele>
        <time>2014-07-16T16:05:34Z</time>
      </trkpt>
      <trkpt lat="45.895699979737401" lon="6.797874262556434">
        <ele>1062.3900000000001</ele>
        <time>2014-07-16T16:06:02Z</time>
      </trkpt>
      <trkpt lat="45.895651364699006" lon="6.797845344990492">
        <ele>1063.8399999999999</ele>
        <time>2014-07-16T16:06:27Z</time>
      </trkpt>
      <trkpt lat="45.895699476823211" lon="6.797751635313034">
        <ele>1065.76</ele>
        <time>2014-07-16T16:06:52Z</time>
      </trkpt>
      <trkpt lat="45.895791510120034" lon="6.797715844586492">
        <ele>1064.8</ele>
        <time>2014-07-16T16:07:20Z</time>
      </trkpt>
      <trkpt lat="45.89584699831903" lon="6.797779127955437">
        <ele>1065.76</ele>
        <time>2014-07-16T16:07:50Z</time>
      </trkpt>
      <trkpt lat="45.89588220231235" lon="6.797766806557775">
        <ele>1066.24</ele>
        <time>2014-07-16T16:08:22Z</time>
      </trkpt>
      <trkpt lat="45.895934421569109" lon="6.797768147662282">
        <ele>1067.2</ele>
        <time>2014-07-16T16:08:55Z</time>
      </trkpt>
      <trkpt lat="45.895826797932386" lon="6.797774517908692">
        <ele>1067.2</ele>
        <time>2014-07-16T16:09:21Z</time>
      </trkpt>
      <trkpt lat="45.895829731598496" lon="6.797793712466955">
        <ele>1067.2</ele>
        <time>2014-07-16T16:09:48Z</time>
      </trkpt>
      <trkpt lat="45.895845321938396" lon="6.797738559544087">
        <ele>1066.72</ele>
        <time>2014-07-16T16:10:16Z</time>
      </trkpt>
      <trkpt lat="45.896048247814178" lon="6.797776613384485">
        <ele>1067.2</ele>
        <time>2014-07-16T16:10:48Z</time>
      </trkpt>
      <trkpt lat="45.895940456539392" lon="6.797859678044915">
        <ele>1067.6800000000001</ele>
        <time>2014-07-16T16:11:01Z</time>
      </trkpt>
      <trkpt lat="45.895952191203833" lon="6.797890858724713">
        <ele>1067.2</ele>
        <time>2014-07-16T16:11:08Z</time>
      </trkpt>
      <trkpt lat="45.895935008302331" lon="6.797946849837899">
        <ele>1066.72</ele>
        <time>2014-07-16T16:11:11Z</time>
      </trkpt>
      <trkpt lat="45.895977672189474" lon="6.797958835959435">
        <ele>1066.24</ele>
        <time>2014-07-16T16:11:15Z</time>
      </trkpt>
      <trkpt lat="45.896095437929034" lon="6.797993201762438">
        <ele>1064.8</ele>
        <time>2014-07-16T16:11:31Z</time>
      </trkpt>
      <trkpt lat="45.896049505099654" lon="6.798081379383802">
        <ele>1064.8</ele>
        <time>2014-07-16T16:11:41Z</time>
      </trkpt>
      <trkpt lat="45.895845405757427" lon="6.798005271703005">
        <ele>1065.76</ele>
        <time>2014-07-16T16:11:56Z</time>
      </trkpt>
      <trkpt lat="45.895816739648581" lon="6.797884907573462">
        <ele>1066.72</ele>
        <time>2014-07-16T16:12:03Z</time>
      </trkpt>
      <trkpt lat="45.895805507898331" lon="6.797829503193498">
        <ele>1066.72</ele>
        <time>2014-07-16T16:12:06Z</time>
      </trkpt>
      <trkpt lat="45.895852781832218" lon="6.797764878720045">
        <ele>1068.1600000000001</ele>
        <time>2014-07-16T16:12:14Z</time>
      </trkpt>
      <trkpt lat="45.895912377163768" lon="6.797787258401513">
        <ele>1068.6400000000001</ele>
        <time>2014-07-16T16:12:18Z</time>
      </trkpt>
      <trkpt lat="45.8959642611444" lon="6.797823216766119">
        <ele>1069.1199999999999</ele>
        <time>2014-07-16T16:12:22Z</time>
      </trkpt>
      <trkpt lat="45.896000219509006" lon="6.797842746600509">
        <ele>1069.5999999999999</ele>
        <time>2014-07-16T16:12:25Z</time>
      </trkpt>
      <trkpt lat="45.896136928349733" lon="6.797923799604178">
        <ele>1071.05</ele>
        <time>2014-07-16T16:12:38Z</time>
      </trkpt>
      <trkpt lat="45.896286712959409" lon="6.798010719940066">
        <ele>1073.9300000000001</ele>
        <time>2014-07-16T16:12:54Z</time>
      </trkpt>
      <trkpt lat="45.896425684913993" lon="6.798076517879963">
        <ele>1074.8900000000001</ele>
        <time>2014-07-16T16:13:11Z</time>
      </trkpt>
      <trkpt lat="45.896648559719324" lon="6.798174921423197">
        <ele>1076.8099999999999</ele>
        <time>2014-07-16T16:13:28Z</time>
      </trkpt>
      <trkpt lat="45.896845702081919" lon="6.798276510089636">
        <ele>1078.74</ele>
        <time>2014-07-16T16:13:44Z</time>
      </trkpt>
      <trkpt lat="45.897022057324648" lon="6.798331663012505">
        <ele>1080.1800000000001</ele>
        <time>2014-07-16T16:13:59Z</time>
      </trkpt>
      <trkpt lat="45.897154910489917" lon="6.798406261950731">
        <ele>1081.6199999999999</ele>
        <time>2014-07-16T16:14:14Z</time>
      </trkpt>
      <trkpt lat="45.89727426879108" lon="6.798513047397137">
        <ele>1083.0599999999999</ele>
        <time>2014-07-16T16:14:29Z</time>
      </trkpt>
      <trkpt lat="45.897390190511942" lon="6.798546407371759">
        <ele>1084.5</ele>
        <time>2014-07-16T16:14:43Z</time>
      </trkpt>
      <trkpt lat="45.897503346204758" lon="6.798520088195801">
        <ele>1085.95</ele>
        <time>2014-07-16T16:14:57Z</time>
      </trkpt>
      <trkpt lat="45.89764567092061" lon="6.798462923616171">
        <ele>1086.9100000000001</ele>
        <time>2014-07-16T16:15:13Z</time>
      </trkpt>
      <trkpt lat="45.897728651762009" lon="6.798441465944052">
        <ele>1088.3499999999999</ele>
        <time>2014-07-16T16:15:22Z</time>
      </trkpt>
      <trkpt lat="45.897873658686876" lon="6.798433754593134">
        <ele>1089.3099999999999</ele>
        <time>2014-07-16T16:15:34Z</time>
      </trkpt>
      <trkpt lat="45.898018833249807" lon="6.79842185229063">
        <ele>1090.75</ele>
        <time>2014-07-16T16:15:49Z</time>
      </trkpt>
      <trkpt lat="45.898070549592376" lon="6.798459151759744">
        <ele>1091.23</ele>
        <time>2014-07-16T16:15:53Z</time>
      </trkpt>
      <trkpt lat="45.898113884031773" lon="6.798503827303648">
        <ele>1091.23</ele>
        <time>2014-07-16T16:15:57Z</time>
      </trkpt>
      <trkpt lat="45.898232739418745" lon="6.798624275252223">
        <ele>1092.2</ele>
        <time>2014-07-16T16:16:11Z</time>
      </trkpt>
      <trkpt lat="45.898274146020412" lon="6.798656042665243">
        <ele>1092.2</ele>
        <time>2014-07-16T16:16:15Z</time>
      </trkpt>
      <trkpt lat="45.898335417732596" lon="6.798730976879597">
        <ele>1093.1600000000001</ele>
        <time>2014-07-16T16:16:24Z</time>
      </trkpt>
      <trkpt lat="45.898458966985345" lon="6.798844719305635">
        <ele>1094.1199999999999</ele>
        <time>2014-07-16T16:16:39Z</time>
      </trkpt>
      <trkpt lat="45.898546976968646" lon="6.798924598842859">
        <ele>1095.0799999999999</ele>
        <time>2014-07-16T16:16:51Z</time>
      </trkpt>
      <trkpt lat="45.89867664501071" lon="6.798995425924659">
        <ele>1097</ele>
        <time>2014-07-16T16:17:06Z</time>
      </trkpt>
      <trkpt lat="45.898782256990671" lon="6.799071785062552">
        <ele>1097.96</ele>
        <time>2014-07-16T16:17:19Z</time>
      </trkpt>
      <trkpt lat="45.89893514290452" lon="6.799176307395101">
        <ele>1099.4000000000001</ele>
        <time>2014-07-16T16:17:37Z</time>
      </trkpt>
      <trkpt lat="45.899082245305181" lon="6.799313016235828">
        <ele>1101.3299999999999</ele>
        <time>2014-07-16T16:17:55Z</time>
      </trkpt>
      <trkpt lat="45.899165058508515" lon="6.79951636120677">
        <ele>1103.25</ele>
        <time>2014-07-16T16:18:14Z</time>
      </trkpt>
      <trkpt lat="45.899229766801" lon="6.799563132226467">
        <ele>1103.73</ele>
        <time>2014-07-16T16:18:20Z</time>
      </trkpt>
      <trkpt lat="45.899295229464769" lon="6.799749126657844">
        <ele>1105.6500000000001</ele>
        <time>2014-07-16T16:18:35Z</time>
      </trkpt>
      <trkpt lat="45.899366894736886" lon="6.799692129716277">
        <ele>1108.0599999999999</ele>
        <time>2014-07-16T16:18:47Z</time>
      </trkpt>
      <trkpt lat="45.899449372664094" lon="6.799629433080554">
        <ele>1109.98</ele>
        <time>2014-07-16T16:19:01Z</time>
      </trkpt>
      <trkpt lat="45.89954492636025" lon="6.799542177468538">
        <ele>1112.8599999999999</ele>
        <time>2014-07-16T16:19:16Z</time>
      </trkpt>
      <trkpt lat="45.899670738726854" lon="6.79956229403615">
        <ele>1115.27</ele>
        <time>2014-07-16T16:19:32Z</time>
      </trkpt>
      <trkpt lat="45.89976285584271" lon="6.799558438360691">
        <ele>1118.1500000000001</ele>
        <time>2014-07-16T16:19:48Z</time>
      </trkpt>
      <trkpt lat="45.899823540821671" lon="6.799506135284901">
        <ele>1119.1099999999999</ele>
        <time>2014-07-16T16:19:56Z</time>
      </trkpt>
      <trkpt lat="45.899854134768248" lon="6.79945383220911">
        <ele>1119.5899999999999</ele>
        <time>2014-07-16T16:20:05Z</time>
      </trkpt>
      <trkpt lat="45.899898642674088" lon="6.79930773563683">
        <ele>1121.52</ele>
        <time>2014-07-16T16:20:20Z</time>
      </trkpt>
      <trkpt lat="45.899998554959893" lon="6.799304466694593">
        <ele>1123.9200000000001</ele>
        <time>2014-07-16T16:20:33Z</time>
      </trkpt>
      <trkpt lat="45.90010735206306" lon="6.799350818619132">
        <ele>1125.8399999999999</ele>
        <time>2014-07-16T16:20:47Z</time>
      </trkpt>
      <trkpt lat="45.900136437267065" lon="6.799373952671886">
        <ele>1126.3199999999999</ele>
        <time>2014-07-16T16:20:51Z</time>
      </trkpt>
      <trkpt lat="45.900222100317478" lon="6.799435643479228">
        <ele>1126.8</ele>
        <time>2014-07-16T16:21:00Z</time>
      </trkpt>
      <trkpt lat="45.900340871885419" lon="6.799515774473548">
        <ele>1129.6900000000001</ele>
        <time>2014-07-16T16:21:16Z</time>
      </trkpt>
      <trkpt lat="45.900430977344513" lon="6.799489287659526">
        <ele>1132.0899999999999</ele>
        <time>2014-07-16T16:21:31Z</time>
      </trkpt>
      <trkpt lat="45.900513622909784" lon="6.799495825544">
        <ele>1134.97</ele>
        <time>2014-07-16T16:21:48Z</time>
      </trkpt>
      <trkpt lat="45.900475736707449" lon="6.799342688173056">
        <ele>1135.9400000000001</ele>
        <time>2014-07-16T16:22:04Z</time>
      </trkpt>
      <trkpt lat="45.900474982336164" lon="6.799332881346345">
        <ele>1135.9400000000001</ele>
        <time>2014-07-16T16:22:05Z</time>
      </trkpt>
      <trkpt lat="45.900500044226646" lon="6.799215953797102">
        <ele>1136.4200000000001</ele>
        <time>2014-07-16T16:22:17Z</time>
      </trkpt>
      <trkpt lat="45.900499289855361" lon="6.799222743138671">
        <ele>1136.4200000000001</ele>
        <time>2014-07-16T16:22:20Z</time>
      </trkpt>
      <trkpt lat="45.900512281805277" lon="6.799240261316299">
        <ele>1135.9400000000001</ele>
        <time>2014-07-16T16:22:32Z</time>
      </trkpt>
      <trkpt lat="45.900508426129818" lon="6.799237746745348">
        <ele>1136.4200000000001</ele>
        <time>2014-07-16T16:22:47Z</time>
      </trkpt>
    </trkseg>
  </trk>

  <trk>
    <name>6tmb2014-07-17</name>
    <extensions>
      <gpxx:TrackExtension>
        <gpxx:DisplayColor>Yellow</gpxx:DisplayColor>
      </gpxx:TrackExtension>
    </extensions>
    <trkseg>
      <trkpt lat="45.873617520555854" lon="6.778935603797436">
        <ele>1805.01</ele>
        <time>2014-07-17T06:04:27Z</time>
      </trkpt>
      <trkpt lat="45.873595057055354" lon="6.778913224115968">
        <ele>1805.01</ele>
        <time>2014-07-17T06:04:38Z</time>
      </trkpt>
      <trkpt lat="45.873421551659703" lon="6.778718093410134">
        <ele>1805.01</ele>
        <time>2014-07-17T06:04:57Z</time>
      </trkpt>
      <trkpt lat="45.873344773426652" lon="6.778651457279921">
        <ele>1804.53</ele>
        <time>2014-07-17T06:05:15Z</time>
      </trkpt>
      <trkpt lat="45.873324405401945" lon="6.778636453673244">
        <ele>1804.53</ele>
        <time>2014-07-17T06:05:27Z</time>
      </trkpt>
      <trkpt lat="45.873409481719136" lon="6.778712058439851">
        <ele>1805.01</ele>
        <time>2014-07-17T06:05:45Z</time>
      </trkpt>
      <trkpt lat="45.873324740678072" lon="6.778674172237515">
        <ele>1804.53</ele>
        <time>2014-07-17T06:05:56Z</time>
      </trkpt>
      <trkpt lat="45.873286016285419" lon="6.778653301298618">
        <ele>1804.53</ele>
        <time>2014-07-17T06:06:05Z</time>
      </trkpt>
      <trkpt lat="45.873254248872399" lon="6.778439562767744">
        <ele>1800.21</ele>
        <time>2014-07-17T06:06:19Z</time>
      </trkpt>
      <trkpt lat="45.87322055362165" lon="6.778285168111324">
        <ele>1797.3199999999999</ele>
        <time>2014-07-17T06:06:31Z</time>
      </trkpt>
      <trkpt lat="45.873179566115141" lon="6.778172766789794">
        <ele>1794.9200000000001</ele>
        <time>2014-07-17T06:06:41Z</time>
      </trkpt>
      <trkpt lat="45.873184930533171" lon="6.778128677979112">
        <ele>1794.4400000000001</ele>
        <time>2014-07-17T06:06:47Z</time>
      </trkpt>
      <trkpt lat="45.87318979203701" lon="6.778026251122356">
        <ele>1793.48</ele>
        <time>2014-07-17T06:06:53Z</time>
      </trkpt>
      <trkpt lat="45.873147882521152" lon="6.777893900871277">
        <ele>1791.0699999999999</ele>
        <time>2014-07-17T06:07:09Z</time>
      </trkpt>
      <trkpt lat="45.873087113723159" lon="6.777868838980794">
        <ele>1791.0699999999999</ele>
        <time>2014-07-17T06:07:24Z</time>
      </trkpt>
      <trkpt lat="45.873095663264394" lon="6.77791359834373">
        <ele>1792.52</ele>
        <time>2014-07-17T06:07:31Z</time>
      </trkpt>
      <trkpt lat="45.873078564181924" lon="6.777908904477954">
        <ele>1791.0699999999999</ele>
        <time>2014-07-17T06:07:33Z</time>
      </trkpt>
      <trkpt lat="45.873066745698452" lon="6.777834054082632">
        <ele>1790.1099999999999</ele>
        <time>2014-07-17T06:07:38Z</time>
      </trkpt>
      <trkpt lat="45.87301385588944" lon="6.777803879231215">
        <ele>1787.71</ele>
        <time>2014-07-17T06:07:49Z</time>
      </trkpt>
      <trkpt lat="45.872982759028673" lon="6.777774207293987">
        <ele>1787.71</ele>
        <time>2014-07-17T06:08:06Z</time>
      </trkpt>
      <trkpt lat="45.872942190617323" lon="6.777734896168113">
        <ele>1785.79</ele>
        <time>2014-07-17T06:08:22Z</time>
      </trkpt>
      <trkpt lat="45.872910087928176" lon="6.777782170102">
        <ele>1785.3099999999999</ele>
        <time>2014-07-17T06:08:44Z</time>
      </trkpt>
      <trkpt lat="45.872827190905809" lon="6.777702625840902">
        <ele>1782.4200000000001</ele>
        <time>2014-07-17T06:08:56Z</time>
      </trkpt>
      <trkpt lat="45.872727865353227" lon="6.777667757123709">
        <ele>1779.0599999999999</ele>
        <time>2014-07-17T06:09:08Z</time>
      </trkpt>
      <trkpt lat="45.872605741024017" lon="6.777585865929723">
        <ele>1775.6900000000001</ele>
        <time>2014-07-17T06:09:25Z</time>
      </trkpt>
      <trkpt lat="45.872535668313503" lon="6.777639258652926">
        <ele>1772.8099999999999</ele>
        <time>2014-07-17T06:09:35Z</time>
      </trkpt>
      <trkpt lat="45.87245344184339" lon="6.7775818426162">
        <ele>1769.9200000000001</ele>
        <time>2014-07-17T06:09:47Z</time>
      </trkpt>
      <trkpt lat="45.872380770742893" lon="6.777566755190492">
        <ele>1766.5599999999999</ele>
        <time>2014-07-17T06:10:01Z</time>
      </trkpt>
      <trkpt lat="45.872395103797317" lon="6.777460388839245">
        <ele>1765.1199999999999</ele>
        <time>2014-07-17T06:10:13Z</time>
      </trkpt>
      <trkpt lat="45.872386554256082" lon="6.777534149587154">
        <ele>1765.1199999999999</ele>
        <time>2014-07-17T06:10:26Z</time>
      </trkpt>
      <trkpt lat="45.872367778792977" lon="6.777549320831895">
        <ele>1765.1199999999999</ele>
        <time>2014-07-17T06:10:41Z</time>
      </trkpt>
      <trkpt lat="45.872389068827033" lon="6.777547476813197">
        <ele>1765.5999999999999</ele>
        <time>2014-07-17T06:11:03Z</time>
      </trkpt>
      <trkpt lat="45.872404742985964" lon="6.777504393830895">
        <ele>1765.5999999999999</ele>
        <time>2014-07-17T06:11:21Z</time>
      </trkpt>
      <trkpt lat="45.872418908402324" lon="6.777526354417205">
        <ele>1765.5999999999999</ele>
        <time>2014-07-17T06:11:38Z</time>
      </trkpt>
      <trkpt lat="45.872428882867098" lon="6.777511266991496">
        <ele>1765.5999999999999</ele>
        <time>2014-07-17T06:11:59Z</time>
      </trkpt>
      <trkpt lat="45.87242066860199" lon="6.777522582560778">
        <ele>1765.5999999999999</ele>
        <time>2014-07-17T06:12:20Z</time>
      </trkpt>
      <trkpt lat="45.872451094910502" lon="6.777547812089324">
        <ele>1766.0799999999999</ele>
        <time>2014-07-17T06:12:41Z</time>
      </trkpt>
      <trkpt lat="45.872413292527199" lon="6.77754420787096">
        <ele>1766.0799999999999</ele>
        <time>2014-07-17T06:12:58Z</time>
      </trkpt>
      <trkpt lat="45.8724304754287" lon="6.777469357475638">
        <ele>1766.5599999999999</ele>
        <time>2014-07-17T06:13:17Z</time>
      </trkpt>
      <trkpt lat="45.872408095747232" lon="6.777496682479978">
        <ele>1766.5599999999999</ele>
        <time>2014-07-17T06:13:30Z</time>
      </trkpt>
      <trkpt lat="45.872400049120188" lon="6.777458963915706">
        <ele>1766.5599999999999</ele>
        <time>2014-07-17T06:13:56Z</time>
      </trkpt>
      <trkpt lat="45.872375993058085" lon="6.777475140988827">
        <ele>1767.04</ele>
        <time>2014-07-17T06:14:21Z</time>
      </trkpt>
      <trkpt lat="45.872439024969935" lon="6.777480924502015">
        <ele>1767.04</ele>
        <time>2014-07-17T06:14:44Z</time>
      </trkpt>
      <trkpt lat="45.872387643903494" lon="6.777438092976809">
        <ele>1767.04</ele>
        <time>2014-07-17T06:15:01Z</time>
      </trkpt>
      <trkpt lat="45.872424524277449" lon="6.77748310379684">
        <ele>1767.52</ele>
        <time>2014-07-17T06:15:16Z</time>
      </trkpt>
      <trkpt lat="45.872499542310834" lon="6.777475895360112">
        <ele>1768.48</ele>
        <time>2014-07-17T06:15:35Z</time>
      </trkpt>
      <trkpt lat="45.872443467378616" lon="6.777522582560778">
        <ele>1767.04</ele>
        <time>2014-07-17T06:15:49Z</time>
      </trkpt>
      <trkpt lat="45.872436761856079" lon="6.777549488469958">
        <ele>1767.04</ele>
        <time>2014-07-17T06:15:51Z</time>
      </trkpt>
      <trkpt lat="45.872292928397655" lon="6.777718970552087">
        <ele>1766.0799999999999</ele>
        <time>2014-07-17T06:16:06Z</time>
      </trkpt>
      <trkpt lat="45.872206427156925" lon="6.777912341058254">
        <ele>1764.6400000000001</ele>
        <time>2014-07-17T06:16:20Z</time>
      </trkpt>
      <trkpt lat="45.872130990028381" lon="6.77809095941484">
        <ele>1764.6400000000001</ele>
        <time>2014-07-17T06:16:34Z</time>
      </trkpt>
      <trkpt lat="45.872103413566947" lon="6.77813689224422">
        <ele>1764.6400000000001</ele>
        <time>2014-07-17T06:16:38Z</time>
      </trkpt>
      <trkpt lat="45.872061755508184" lon="6.778278797864914">
        <ele>1763.6800000000001</ele>
        <time>2014-07-17T06:16:49Z</time>
      </trkpt>
      <trkpt lat="45.872041303664446" lon="6.778332442045212">
        <ele>1763.2</ele>
        <time>2014-07-17T06:16:53Z</time>
      </trkpt>
      <trkpt lat="45.871970308944583" lon="6.778590437024832">
        <ele>1762.71</ele>
        <time>2014-07-17T06:17:09Z</time>
      </trkpt>
      <trkpt lat="45.871922196820378" lon="6.778823453933001">
        <ele>1762.71</ele>
        <time>2014-07-17T06:17:26Z</time>
      </trkpt>
      <trkpt lat="45.87191054597497" lon="6.779066026210785">
        <ele>1762.71</ele>
        <time>2014-07-17T06:17:42Z</time>
      </trkpt>
      <trkpt lat="45.871904008090496" lon="6.779116820544004">
        <ele>1762.71</ele>
        <time>2014-07-17T06:17:57Z</time>
      </trkpt>
      <trkpt lat="45.871875258162618" lon="6.779191084206104">
        <ele>1762.23</ele>
        <time>2014-07-17T06:18:14Z</time>
      </trkpt>
      <trkpt lat="45.871807867661119" lon="6.779459388926625">
        <ele>1761.75</ele>
        <time>2014-07-17T06:18:31Z</time>
      </trkpt>
      <trkpt lat="45.871784146875143" lon="6.7796247638762">
        <ele>1762.23</ele>
        <time>2014-07-17T06:18:40Z</time>
      </trkpt>
      <trkpt lat="45.871739471331239" lon="6.779858618974686">
        <ele>1763.6800000000001</ele>
        <time>2014-07-17T06:18:55Z</time>
      </trkpt>
      <trkpt lat="45.871709296479821" lon="6.780138155445457">
        <ele>1763.6800000000001</ele>
        <time>2014-07-17T06:19:11Z</time>
      </trkpt>
      <trkpt lat="45.871624471619725" lon="6.780361449345946">
        <ele>1763.2</ele>
        <time>2014-07-17T06:19:25Z</time>
      </trkpt>
      <trkpt lat="45.87151575833559" lon="6.780592203140259">
        <ele>1764.1600000000001</ele>
        <time>2014-07-17T06:19:41Z</time>
      </trkpt>
      <trkpt lat="45.871411236003041" lon="6.780819185078144">
        <ele>1765.1199999999999</ele>
        <time>2014-07-17T06:19:57Z</time>
      </trkpt>
      <trkpt lat="45.871311658993363" lon="6.780984476208687">
        <ele>1764.1600000000001</ele>
        <time>2014-07-17T06:20:10Z</time>
      </trkpt>
      <trkpt lat="45.871248291805387" lon="6.781190168112516">
        <ele>1763.6800000000001</ele>
        <time>2014-07-17T06:20:25Z</time>
      </trkpt>
      <trkpt lat="45.871163969859481" lon="6.781394435092807">
        <ele>1764.1600000000001</ele>
        <time>2014-07-17T06:20:40Z</time>
      </trkpt>
      <trkpt lat="45.871030613780022" lon="6.781602557748556">
        <ele>1764.6400000000001</ele>
        <time>2014-07-17T06:20:55Z</time>
      </trkpt>
      <trkpt lat="45.871014352887869" lon="6.781680341809988">
        <ele>1764.6400000000001</ele>
        <time>2014-07-17T06:21:00Z</time>
      </trkpt>
      <trkpt lat="45.871004294604063" lon="6.781821828335524">
        <ele>1763.6800000000001</ele>
        <time>2014-07-17T06:21:14Z</time>
      </trkpt>
      <trkpt lat="45.870967246592045" lon="6.781911766156554">
        <ele>1761.75</ele>
        <time>2014-07-17T06:21:22Z</time>
      </trkpt>
      <trkpt lat="45.870948722586036" lon="6.781940348446369">
        <ele>1761.27</ele>
        <time>2014-07-17T06:21:24Z</time>
      </trkpt>
      <trkpt lat="45.870837578549981" lon="6.78189349360764">
        <ele>1762.23</ele>
        <time>2014-07-17T06:21:38Z</time>
      </trkpt>
      <trkpt lat="45.870785778388381" lon="6.78192132152617">
        <ele>1762.23</ele>
        <time>2014-07-17T06:21:43Z</time>
      </trkpt>
      <trkpt lat="45.870648231357336" lon="6.782024335116148">
        <ele>1760.79</ele>
        <time>2014-07-17T06:21:59Z</time>
      </trkpt>
      <trkpt lat="45.870539350435138" lon="6.782026346772909">
        <ele>1761.75</ele>
        <time>2014-07-17T06:22:11Z</time>
      </trkpt>
      <trkpt lat="45.870461147278547" lon="6.78207035176456">
        <ele>1763.6800000000001</ele>
        <time>2014-07-17T06:22:26Z</time>
      </trkpt>
      <trkpt lat="45.870355702936649" lon="6.782174874097109">
        <ele>1764.1600000000001</ele>
        <time>2014-07-17T06:22:39Z</time>
      </trkpt>
      <trkpt lat="45.870205918326974" lon="6.782262045890093">
        <ele>1764.6400000000001</ele>
        <time>2014-07-17T06:22:55Z</time>
      </trkpt>
      <trkpt lat="45.870195776224136" lon="6.782269421964884">
        <ele>1764.6400000000001</ele>
        <time>2014-07-17T06:22:56Z</time>
      </trkpt>
      <trkpt lat="45.870039537549019" lon="6.7823566775769">
        <ele>1763.2</ele>
        <time>2014-07-17T06:23:12Z</time>
      </trkpt>
      <trkpt lat="45.869914898648858" lon="6.782467653974891">
        <ele>1763.6800000000001</ele>
        <time>2014-07-17T06:23:27Z</time>
      </trkpt>
      <trkpt lat="45.869845664128661" lon="6.782542672008276">
        <ele>1766.5599999999999</ele>
        <time>2014-07-17T06:23:39Z</time>
      </trkpt>
      <trkpt lat="45.86980115622282" lon="6.782554825767875">
        <ele>1766.0799999999999</ele>
        <time>2014-07-17T06:23:58Z</time>
      </trkpt>
      <trkpt lat="45.869769807904959" lon="6.78259564563632">
        <ele>1768</ele>
        <time>2014-07-17T06:24:09Z</time>
      </trkpt>
      <trkpt lat="45.869695292785764" lon="6.782721625640988">
        <ele>1768.48</ele>
        <time>2014-07-17T06:24:23Z</time>
      </trkpt>
      <trkpt lat="45.86967215873301" lon="6.78275540471077">
        <ele>1768.48</ele>
        <time>2014-07-17T06:24:27Z</time>
      </trkpt>
      <trkpt lat="45.869557242840528" lon="6.782917845994234">
        <ele>1766.0799999999999</ele>
        <time>2014-07-17T06:24:43Z</time>
      </trkpt>
      <trkpt lat="45.869481470435858" lon="6.783063188195229">
        <ele>1766.0799999999999</ele>
        <time>2014-07-17T06:24:56Z</time>
      </trkpt>
      <trkpt lat="45.869450038298965" lon="6.783254211768508">
        <ele>1768.96</ele>
        <time>2014-07-17T06:25:11Z</time>
      </trkpt>
      <trkpt lat="45.869443081319332" lon="6.783398715779185">
        <ele>1770.4100000000001</ele>
        <time>2014-07-17T06:25:23Z</time>
      </trkpt>
      <trkpt lat="45.869414247572422" lon="6.783443475142121">
        <ele>1770.4100000000001</ele>
        <time>2014-07-17T06:25:29Z</time>
      </trkpt>
      <trkpt lat="45.86930125951767" lon="6.783489407971501">
        <ele>1769.9200000000001</ele>
        <time>2014-07-17T06:25:44Z</time>
      </trkpt>
      <trkpt lat="45.86928709410131" lon="6.7835464887321">
        <ele>1769.4400000000001</ele>
        <time>2014-07-17T06:25:59Z</time>
      </trkpt>
      <trkpt lat="45.869281897321343" lon="6.783557469025254">
        <ele>1768.96</ele>
        <time>2014-07-17T06:26:01Z</time>
      </trkpt>
      <trkpt lat="45.869232444092631" lon="6.783717898651958">
        <ele>1767.04</ele>
        <time>2014-07-17T06:26:15Z</time>
      </trkpt>
      <trkpt lat="45.869176872074604" lon="6.783744804561138">
        <ele>1765.5999999999999</ele>
        <time>2014-07-17T06:26:23Z</time>
      </trkpt>
      <trkpt lat="45.869144685566425" lon="6.783781098201871">
        <ele>1766.0799999999999</ele>
        <time>2014-07-17T06:26:36Z</time>
      </trkpt>
      <trkpt lat="45.869117109104991" lon="6.783785372972488">
        <ele>1766.0799999999999</ele>
        <time>2014-07-17T06:26:48Z</time>
      </trkpt>
      <trkpt lat="45.869059944525361" lon="6.783815966919065">
        <ele>1768.96</ele>
        <time>2014-07-17T06:27:03Z</time>
      </trkpt>
      <trkpt lat="45.869004959240556" lon="6.783794425427914">
        <ele>1770.8900000000001</ele>
        <time>2014-07-17T06:27:18Z</time>
      </trkpt>
      <trkpt lat="45.868916362524033" lon="6.783802974969149">
        <ele>1771.3699999999999</ele>
        <time>2014-07-17T06:27:29Z</time>
      </trkpt>
      <trkpt lat="45.86877797730267" lon="6.783962985500693">
        <ele>1771.3699999999999</ele>
        <time>2014-07-17T06:27:45Z</time>
      </trkpt>
      <trkpt lat="45.868712933734059" lon="6.784087121486664">
        <ele>1773.77</ele>
        <time>2014-07-17T06:27:57Z</time>
      </trkpt>
      <trkpt lat="45.868651242926717" lon="6.784221483394504">
        <ele>1775.21</ele>
        <time>2014-07-17T06:28:09Z</time>
      </trkpt>
      <trkpt lat="45.868601454421878" lon="6.784319300204516">
        <ele>1775.21</ele>
        <time>2014-07-17T06:28:24Z</time>
      </trkpt>
      <trkpt lat="45.868548145517707" lon="6.784419715404511">
        <ele>1774.25</ele>
        <time>2014-07-17T06:28:38Z</time>
      </trkpt>
      <trkpt lat="45.868509337306023" lon="6.784421727061272">
        <ele>1775.21</ele>
        <time>2014-07-17T06:28:50Z</time>
      </trkpt>
      <trkpt lat="45.868390230461955" lon="6.784484926611185">
        <ele>1776.1700000000001</ele>
        <time>2014-07-17T06:29:05Z</time>
      </trkpt>
      <trkpt lat="45.868284199386835" lon="6.784578552469611">
        <ele>1775.6900000000001</ele>
        <time>2014-07-17T06:29:18Z</time>
      </trkpt>
      <trkpt lat="45.868247067555785" lon="6.784653821960092">
        <ele>1778.5799999999999</ele>
        <time>2014-07-17T06:29:32Z</time>
      </trkpt>
      <trkpt lat="45.868167271837592" lon="6.784658348187804">
        <ele>1778.0999999999999</ele>
        <time>2014-07-17T06:29:46Z</time>
      </trkpt>
      <trkpt lat="45.868069371208549" lon="6.784709393978119">
        <ele>1777.6099999999999</ele>
        <time>2014-07-17T06:30:00Z</time>
      </trkpt>
      <trkpt lat="45.868101306259632" lon="6.784700425341725">
        <ele>1777.6099999999999</ele>
        <time>2014-07-17T06:30:18Z</time>
      </trkpt>
      <trkpt lat="45.868010194972157" lon="6.784810982644558">
        <ele>1778.5799999999999</ele>
        <time>2014-07-17T06:30:34Z</time>
      </trkpt>
      <trkpt lat="45.8679751586169" lon="6.784900166094303">
        <ele>1778.0999999999999</ele>
        <time>2014-07-17T06:30:42Z</time>
      </trkpt>
      <trkpt lat="45.867949007079005" lon="6.785015752539039">
        <ele>1776.6500000000001</ele>
        <time>2014-07-17T06:30:50Z</time>
      </trkpt>
      <trkpt lat="45.867907013744116" lon="6.785094290971756">
        <ele>1776.1700000000001</ele>
        <time>2014-07-17T06:30:56Z</time>
      </trkpt>
      <trkpt lat="45.867784470319748" lon="6.785013489425182">
        <ele>1777.6099999999999</ele>
        <time>2014-07-17T06:31:10Z</time>
      </trkpt>
      <trkpt lat="45.867613982409239" lon="6.784996557980776">
        <ele>1778.0999999999999</ele>
        <time>2014-07-17T06:31:28Z</time>
      </trkpt>
      <trkpt lat="45.867478949949145" lon="6.785114407539368">
        <ele>1777.1300000000001</ele>
        <time>2014-07-17T06:31:42Z</time>
      </trkpt>
      <trkpt lat="45.867448104545474" lon="6.785123124718666">
        <ele>1776.6500000000001</ele>
        <time>2014-07-17T06:32:00Z</time>
      </trkpt>
      <trkpt lat="45.867264792323112" lon="6.785191772505641">
        <ele>1778.0999999999999</ele>
        <time>2014-07-17T06:32:17Z</time>
      </trkpt>
      <trkpt lat="45.867135459557176" lon="6.785158161073923">
        <ele>1775.6900000000001</ele>
        <time>2014-07-17T06:32:32Z</time>
      </trkpt>
      <trkpt lat="45.867123641073704" lon="6.785153886303306">
        <ele>1775.21</ele>
        <time>2014-07-17T06:32:33Z</time>
      </trkpt>
      <trkpt lat="45.866965809836984" lon="6.78520149551332">
        <ele>1774.73</ele>
        <time>2014-07-17T06:32:47Z</time>
      </trkpt>
      <trkpt lat="45.866809403523803" lon="6.785282548516989">
        <ele>1775.21</ele>
        <time>2014-07-17T06:33:04Z</time>
      </trkpt>
      <trkpt lat="45.866765147075057" lon="6.78528405725956">
        <ele>1775.21</ele>
        <time>2014-07-17T06:33:08Z</time>
      </trkpt>
      <trkpt lat="45.866700941696763" lon="6.785250697284937">
        <ele>1775.21</ele>
        <time>2014-07-17T06:33:14Z</time>
      </trkpt>
      <trkpt lat="45.866601951420307" lon="6.785249272361398">
        <ele>1774.25</ele>
        <time>2014-07-17T06:33:21Z</time>
      </trkpt>
      <trkpt lat="45.866454429924488" lon="6.785237537696958">
        <ele>1772.8099999999999</ele>
        <time>2014-07-17T06:33:38Z</time>
      </trkpt>
      <trkpt lat="45.866374969482422" lon="6.785226808860898">
        <ele>1771.8499999999999</ele>
        <time>2014-07-17T06:33:51Z</time>
      </trkpt>
      <trkpt lat="45.866290228441358" lon="6.785232927650213">
        <ele>1771.3699999999999</ele>
        <time>2014-07-17T06:34:06Z</time>
      </trkpt>
      <trkpt lat="45.866224262863398" lon="6.785285398364067">
        <ele>1771.8499999999999</ele>
        <time>2014-07-17T06:34:20Z</time>
      </trkpt>
      <trkpt lat="45.866047739982605" lon="6.785262180492282">
        <ele>1772.8099999999999</ele>
        <time>2014-07-17T06:34:37Z</time>
      </trkpt>
      <trkpt lat="45.865968866273761" lon="6.785262767225504">
        <ele>1773.29</ele>
        <time>2014-07-17T06:34:47Z</time>
      </trkpt>
      <trkpt lat="45.865868870168924" lon="6.785246841609478">
        <ele>1773.77</ele>
        <time>2014-07-17T06:35:02Z</time>
      </trkpt>
      <trkpt lat="45.865755043923855" lon="6.785211050882936">
        <ele>1775.21</ele>
        <time>2014-07-17T06:35:18Z</time>
      </trkpt>
      <trkpt lat="45.865698885172606" lon="6.785274166613817">
        <ele>1775.21</ele>
        <time>2014-07-17T06:35:29Z</time>
      </trkpt>
      <trkpt lat="45.865694945678115" lon="6.785284979268909">
        <ele>1775.21</ele>
        <time>2014-07-17T06:35:30Z</time>
      </trkpt>
      <trkpt lat="45.865689078345895" lon="6.785500477999449">
        <ele>1773.29</ele>
        <time>2014-07-17T06:35:46Z</time>
      </trkpt>
      <trkpt lat="45.865687904879451" lon="6.785636683925986">
        <ele>1772.3299999999999</ele>
        <time>2014-07-17T06:36:02Z</time>
      </trkpt>
      <trkpt lat="45.865697963163257" lon="6.785708516836166">
        <ele>1770.8900000000001</ele>
        <time>2014-07-17T06:36:08Z</time>
      </trkpt>
      <trkpt lat="45.865673068910837" lon="6.785784875974059">
        <ele>1770.4100000000001</ele>
        <time>2014-07-17T06:36:12Z</time>
      </trkpt>
      <trkpt lat="45.865579526871443" lon="6.786013534292579">
        <ele>1770.4100000000001</ele>
        <time>2014-07-17T06:36:29Z</time>
      </trkpt>
      <trkpt lat="45.865543317049742" lon="6.786088300868869">
        <ele>1770.8900000000001</ele>
        <time>2014-07-17T06:36:36Z</time>
      </trkpt>
      <trkpt lat="45.865551363676786" lon="6.786150243133307">
        <ele>1771.3699999999999</ele>
        <time>2014-07-17T06:36:40Z</time>
      </trkpt>
      <trkpt lat="45.865523116663098" lon="6.786223081871867">
        <ele>1771.8499999999999</ele>
        <time>2014-07-17T06:36:46Z</time>
      </trkpt>
      <trkpt lat="45.865519931539893" lon="6.786260884255171">
        <ele>1771.8499999999999</ele>
        <time>2014-07-17T06:36:49Z</time>
      </trkpt>
      <trkpt lat="45.865454887971282" lon="6.786347217857838">
        <ele>1773.29</ele>
        <time>2014-07-17T06:37:02Z</time>
      </trkpt>
      <trkpt lat="45.865352209657431" lon="6.786453332751989">
        <ele>1775.21</ele>
        <time>2014-07-17T06:37:19Z</time>
      </trkpt>
      <trkpt lat="45.865341229364276" lon="6.786464815959334">
        <ele>1775.21</ele>
        <time>2014-07-17T06:37:21Z</time>
      </trkpt>
      <trkpt lat="45.865287752822042" lon="6.786494068801403">
        <ele>1775.6900000000001</ele>
        <time>2014-07-17T06:37:28Z</time>
      </trkpt>
      <trkpt lat="45.865225056186318" lon="6.786616025492549">
        <ele>1777.1300000000001</ele>
        <time>2014-07-17T06:37:44Z</time>
      </trkpt>
      <trkpt lat="45.8651880081743" lon="6.78672457113862">
        <ele>1778.5799999999999</ele>
        <time>2014-07-17T06:37:57Z</time>
      </trkpt>
      <trkpt lat="45.865209549665451" lon="6.786842085421085">
        <ele>1780.98</ele>
        <time>2014-07-17T06:38:13Z</time>
      </trkpt>
      <trkpt lat="45.86521927267313" lon="6.786883911117911">
        <ele>1780.98</ele>
        <time>2014-07-17T06:38:17Z</time>
      </trkpt>
      <trkpt lat="45.865192366763949" lon="6.787032941356301">
        <ele>1781.9400000000001</ele>
        <time>2014-07-17T06:38:29Z</time>
      </trkpt>
      <trkpt lat="45.865160264074802" lon="6.787147102877498">
        <ele>1782.4200000000001</ele>
        <time>2014-07-17T06:38:39Z</time>
      </trkpt>
      <trkpt lat="45.865180632099509" lon="6.787168560549617">
        <ele>1782.4200000000001</ele>
        <time>2014-07-17T06:38:55Z</time>
      </trkpt>
      <trkpt lat="45.865184571594" lon="6.787172919139266">
        <ele>1782.9000000000001</ele>
        <time>2014-07-17T06:39:00Z</time>
      </trkpt>
      <trkpt lat="45.865141991525888" lon="6.787253301590681">
        <ele>1782.9000000000001</ele>
        <time>2014-07-17T06:39:06Z</time>
      </trkpt>
      <trkpt lat="45.865123635157943" lon="6.7872972227633">
        <ele>1782.9000000000001</ele>
        <time>2014-07-17T06:39:10Z</time>
      </trkpt>
      <trkpt lat="45.865088934078813" lon="6.787358075380325">
        <ele>1783.3800000000001</ele>
        <time>2014-07-17T06:39:15Z</time>
      </trkpt>
      <trkpt lat="45.865012155845761" lon="6.787491096183658">
        <ele>1783.8599999999999</ele>
        <time>2014-07-17T06:39:27Z</time>
      </trkpt>
      <trkpt lat="45.864975610747933" lon="6.787576591596007">
        <ele>1783.8599999999999</ele>
        <time>2014-07-17T06:39:40Z</time>
      </trkpt>
      <trkpt lat="45.864937053993344" lon="6.787585476413369">
        <ele>1783.3800000000001</ele>
        <time>2014-07-17T06:39:54Z</time>
      </trkpt>
      <trkpt lat="45.864926744252443" lon="6.787547925487161">
        <ele>1783.3800000000001</ele>
        <time>2014-07-17T06:40:08Z</time>
      </trkpt>
      <trkpt lat="45.864930348470807" lon="6.787550775334239">
        <ele>1783.8599999999999</ele>
        <time>2014-07-17T06:40:21Z</time>
      </trkpt>
      <trkpt lat="45.864924397319555" lon="6.787580950185657">
        <ele>1783.8599999999999</ele>
        <time>2014-07-17T06:40:32Z</time>
      </trkpt>
      <trkpt lat="45.864928336814046" lon="6.787569802254438">
        <ele>1783.8599999999999</ele>
        <time>2014-07-17T06:40:33Z</time>
      </trkpt>
      <trkpt lat="45.864947531372309" lon="6.78757231682539">
        <ele>1783.8599999999999</ele>
        <time>2014-07-17T06:40:47Z</time>
      </trkpt>
      <trkpt lat="45.864942418411374" lon="6.787565108388662">
        <ele>1783.8599999999999</ele>
        <time>2014-07-17T06:41:04Z</time>
      </trkpt>
      <trkpt lat="45.864930097013712" lon="6.787547674030066">
        <ele>1783.8599999999999</ele>
        <time>2014-07-17T06:41:22Z</time>
      </trkpt>
      <trkpt lat="45.864920122548938" lon="6.787578854709864">
        <ele>1783.3800000000001</ele>
        <time>2014-07-17T06:41:31Z</time>
      </trkpt>
      <trkpt lat="45.864851223304868" lon="6.787521690130234">
        <ele>1784.8199999999999</ele>
        <time>2014-07-17T06:41:43Z</time>
      </trkpt>
      <trkpt lat="45.864845691248775" lon="6.787522779777646">
        <ele>1785.3099999999999</ele>
        <time>2014-07-17T06:41:59Z</time>
      </trkpt>
      <trkpt lat="45.864889863878489" lon="6.787507021799684">
        <ele>1785.3099999999999</ele>
        <time>2014-07-17T06:42:26Z</time>
      </trkpt>
      <trkpt lat="45.864842087030411" lon="6.787506602704525">
        <ele>1785.3099999999999</ele>
        <time>2014-07-17T06:42:42Z</time>
      </trkpt>
      <trkpt lat="45.864799926057458" lon="6.787423705682159">
        <ele>1785.79</ele>
        <time>2014-07-17T06:42:57Z</time>
      </trkpt>
      <trkpt lat="45.864787437021732" lon="6.787375928834081">
        <ele>1785.79</ele>
        <time>2014-07-17T06:43:18Z</time>
      </trkpt>
      <trkpt lat="45.864742593839765" lon="6.787387328222394">
        <ele>1785.79</ele>
        <time>2014-07-17T06:43:35Z</time>
      </trkpt>
      <trkpt lat="45.864629605785012" lon="6.78725665435195">
        <ele>1787.23</ele>
        <time>2014-07-17T06:43:52Z</time>
      </trkpt>
      <trkpt lat="45.864549810066819" lon="6.787171242758632">
        <ele>1788.1900000000001</ele>
        <time>2014-07-17T06:44:07Z</time>
      </trkpt>
      <trkpt lat="45.864487867802382" lon="6.787096140906215">
        <ele>1790.1099999999999</ele>
        <time>2014-07-17T06:44:20Z</time>
      </trkpt>
      <trkpt lat="45.864397427067161" lon="6.787014501169324">
        <ele>1790.5899999999999</ele>
        <time>2014-07-17T06:44:33Z</time>
      </trkpt>
      <trkpt lat="45.864280918613076" lon="6.786936298012734">
        <ele>1790.5899999999999</ele>
        <time>2014-07-17T06:44:48Z</time>
      </trkpt>
      <trkpt lat="45.864197351038456" lon="6.786885671317577">
        <ele>1792.52</ele>
        <time>2014-07-17T06:45:03Z</time>
      </trkpt>
      <trkpt lat="45.864143623039126" lon="6.786755500361323">
        <ele>1794.9200000000001</ele>
        <time>2014-07-17T06:45:19Z</time>
      </trkpt>
      <trkpt lat="45.864079669117928" lon="6.786641422659159">
        <ele>1793.96</ele>
        <time>2014-07-17T06:45:36Z</time>
      </trkpt>
      <trkpt lat="45.864074388518929" lon="6.786610241979361">
        <ele>1793</ele>
        <time>2014-07-17T06:45:38Z</time>
      </trkpt>
      <trkpt lat="45.864021917805076" lon="6.786568332463503">
        <ele>1794.4400000000001</ele>
        <time>2014-07-17T06:45:50Z</time>
      </trkpt>
      <trkpt lat="45.864003393799067" lon="6.786471772938967">
        <ele>1794.4400000000001</ele>
        <time>2014-07-17T06:46:03Z</time>
      </trkpt>
      <trkpt lat="45.863896692171693" lon="6.786419972777367">
        <ele>1793.96</ele>
        <time>2014-07-17T06:46:19Z</time>
      </trkpt>
      <trkpt lat="45.86386232636869" lon="6.786318551748991">
        <ele>1793.96</ele>
        <time>2014-07-17T06:46:35Z</time>
      </trkpt>
      <trkpt lat="45.863840281963348" lon="6.786231128498912">
        <ele>1792.03</ele>
        <time>2014-07-17T06:46:50Z</time>
      </trkpt>
      <trkpt lat="45.863820165395737" lon="6.78623640909791">
        <ele>1789.1500000000001</ele>
        <time>2014-07-17T06:47:06Z</time>
      </trkpt>
      <trkpt lat="45.863803485408425" lon="6.786169186234474">
        <ele>1786.75</ele>
        <time>2014-07-17T06:47:21Z</time>
      </trkpt>
      <trkpt lat="45.863828463479877" lon="6.786175556480885">
        <ele>1785.79</ele>
        <time>2014-07-17T06:47:40Z</time>
      </trkpt>
      <trkpt lat="45.863766605034471" lon="6.78615284152329">
        <ele>1783.3800000000001</ele>
        <time>2014-07-17T06:47:54Z</time>
      </trkpt>
      <trkpt lat="45.863810107111931" lon="6.786054437980056">
        <ele>1780.98</ele>
        <time>2014-07-17T06:48:09Z</time>
      </trkpt>
      <trkpt lat="45.863821925595403" lon="6.785982856526971">
        <ele>1779.0599999999999</ele>
        <time>2014-07-17T06:48:22Z</time>
      </trkpt>
      <trkpt lat="45.863795522600412" lon="6.785979252308607">
        <ele>1777.6099999999999</ele>
        <time>2014-07-17T06:48:36Z</time>
      </trkpt>
      <trkpt lat="45.863731736317277" lon="6.78600674495101">
        <ele>1774.25</ele>
        <time>2014-07-17T06:48:52Z</time>
      </trkpt>
      <trkpt lat="45.863782530650496" lon="6.785869030281901">
        <ele>1771.3699999999999</ele>
        <time>2014-07-17T06:49:06Z</time>
      </trkpt>
      <trkpt lat="45.863860733807087" lon="6.78565445356071">
        <ele>1768.48</ele>
        <time>2014-07-17T06:49:23Z</time>
      </trkpt>
      <trkpt lat="45.863873306661844" lon="6.785607933998108">
        <ele>1768.48</ele>
        <time>2014-07-17T06:49:28Z</time>
      </trkpt>
      <trkpt lat="45.86388579569757" lon="6.785468123853207">
        <ele>1768.96</ele>
        <time>2014-07-17T06:49:43Z</time>
      </trkpt>
      <trkpt lat="45.863863248378038" lon="6.785298641771078">
        <ele>1766.5599999999999</ele>
        <time>2014-07-17T06:49:57Z</time>
      </trkpt>
      <trkpt lat="45.863862661644816" lon="6.785233514383435">
        <ele>1764.6400000000001</ele>
        <time>2014-07-17T06:50:11Z</time>
      </trkpt>
      <trkpt lat="45.863856794312596" lon="6.785162687301636">
        <ele>1762.71</ele>
        <time>2014-07-17T06:50:19Z</time>
      </trkpt>
      <trkpt lat="45.863761408254504" lon="6.785086076706648">
        <ele>1761.75</ele>
        <time>2014-07-17T06:50:32Z</time>
      </trkpt>
      <trkpt lat="45.863676331937313" lon="6.785019021481276">
        <ele>1759.3499999999999</ele>
        <time>2014-07-17T06:50:47Z</time>
      </trkpt>
      <trkpt lat="45.863633919507265" lon="6.784947691485286">
        <ele>1756.47</ele>
        <time>2014-07-17T06:51:02Z</time>
      </trkpt>
      <trkpt lat="45.863585639744997" lon="6.784922881051898">
        <ele>1755.02</ele>
        <time>2014-07-17T06:51:16Z</time>
      </trkpt>
      <trkpt lat="45.86355596780777" lon="6.784873260185123">
        <ele>1752.6199999999999</ele>
        <time>2014-07-17T06:51:29Z</time>
      </trkpt>
      <trkpt lat="45.863538030534983" lon="6.784812407568097">
        <ele>1750.7</ele>
        <time>2014-07-17T06:51:41Z</time>
      </trkpt>
      <trkpt lat="45.863587064668536" lon="6.784760607406497">
        <ele>1748.29</ele>
        <time>2014-07-17T06:51:56Z</time>
      </trkpt>
      <trkpt lat="45.863595949485898" lon="6.784756584092975">
        <ele>1748.29</ele>
        <time>2014-07-17T06:51:57Z</time>
      </trkpt>
      <trkpt lat="45.863648420199752" lon="6.784710232168436">
        <ele>1746.8499999999999</ele>
        <time>2014-07-17T06:52:04Z</time>
      </trkpt>
      <trkpt lat="45.863644815981388" lon="6.784643009305">
        <ele>1745.8900000000001</ele>
        <time>2014-07-17T06:52:08Z</time>
      </trkpt>
      <trkpt lat="45.863630399107933" lon="6.784417200833559">
        <ele>1743.49</ele>
        <time>2014-07-17T06:52:24Z</time>
      </trkpt>
      <trkpt lat="45.863631572574377" lon="6.784309828653932">
        <ele>1741.5699999999999</ele>
        <time>2014-07-17T06:52:37Z</time>
      </trkpt>
      <trkpt lat="45.863611372187734" lon="6.784186949953437">
        <ele>1738.6800000000001</ele>
        <time>2014-07-17T06:52:52Z</time>
      </trkpt>
      <trkpt lat="45.863574324175715" lon="6.784079913049936">
        <ele>1736.28</ele>
        <time>2014-07-17T06:53:07Z</time>
      </trkpt>
      <trkpt lat="45.863544065505266" lon="6.784043870866299">
        <ele>1735.3199999999999</ele>
        <time>2014-07-17T06:53:14Z</time>
      </trkpt>
      <trkpt lat="45.863509783521295" lon="6.783801466226578">
        <ele>1732.4300000000001</ele>
        <time>2014-07-17T06:53:31Z</time>
      </trkpt>
      <trkpt lat="45.863513723015785" lon="6.783769279718399">
        <ele>1731.95</ele>
        <time>2014-07-17T06:53:35Z</time>
      </trkpt>
      <trkpt lat="45.863502575084567" lon="6.783648580312729">
        <ele>1730.03</ele>
        <time>2014-07-17T06:53:48Z</time>
      </trkpt>
      <trkpt lat="45.863497378304601" lon="6.783637935295701">
        <ele>1730.03</ele>
        <time>2014-07-17T06:53:49Z</time>
      </trkpt>
      <trkpt lat="45.863478602841496" lon="6.783511955291033">
        <ele>1727.6300000000001</ele>
        <time>2014-07-17T06:54:05Z</time>
      </trkpt>
      <trkpt lat="45.863410625606775" lon="6.78349862806499">
        <ele>1724.74</ele>
        <time>2014-07-17T06:54:18Z</time>
      </trkpt>
      <trkpt lat="45.863341558724642" lon="6.783511871472001">
        <ele>1723.3</ele>
        <time>2014-07-17T06:54:33Z</time>
      </trkpt>
      <trkpt lat="45.863302582874894" lon="6.783507093787193">
        <ele>1722.8199999999999</ele>
        <time>2014-07-17T06:54:52Z</time>
      </trkpt>
      <trkpt lat="45.863291351124644" lon="6.7835049983114">
        <ele>1722.8199999999999</ele>
        <time>2014-07-17T06:55:17Z</time>
      </trkpt>
      <trkpt lat="45.863237455487251" lon="6.783495610579848">
        <ele>1721.3800000000001</ele>
        <time>2014-07-17T06:55:35Z</time>
      </trkpt>
      <trkpt lat="45.863153804093599" lon="6.783523606136441">
        <ele>1720.4200000000001</ele>
        <time>2014-07-17T06:55:52Z</time>
      </trkpt>
      <trkpt lat="45.863107452169061" lon="6.783449929207563">
        <ele>1718.49</ele>
        <time>2014-07-17T06:56:09Z</time>
      </trkpt>
      <trkpt lat="45.863020364195108" lon="6.783418832346797">
        <ele>1717.05</ele>
        <time>2014-07-17T06:56:23Z</time>
      </trkpt>
      <trkpt lat="45.862941406667233" lon="6.78341313265264">
        <ele>1715.1300000000001</ele>
        <time>2014-07-17T06:56:35Z</time>
      </trkpt>
      <trkpt lat="45.862900838255882" lon="6.783327888697386">
        <ele>1713.21</ele>
        <time>2014-07-17T06:56:49Z</time>
      </trkpt>
      <trkpt lat="45.862892623990774" lon="6.783274160698056">
        <ele>1711.76</ele>
        <time>2014-07-17T06:57:01Z</time>
      </trkpt>
      <trkpt lat="45.862912321463227" lon="6.78315463475883">
        <ele>1709.3599999999999</ele>
        <time>2014-07-17T06:57:16Z</time>
      </trkpt>
      <trkpt lat="45.862874435260892" lon="6.783109875395894">
        <ele>1707.9200000000001</ele>
        <time>2014-07-17T06:57:29Z</time>
      </trkpt>
      <trkpt lat="45.862848702818155" lon="6.783088920637965">
        <ele>1706.96</ele>
        <time>2014-07-17T06:57:32Z</time>
      </trkpt>
      <trkpt lat="45.86282548494637" lon="6.783055728301406">
        <ele>1706.48</ele>
        <time>2014-07-17T06:57:47Z</time>
      </trkpt>
      <trkpt lat="45.862731942906976" lon="6.782948775216937">
        <ele>1709.3599999999999</ele>
        <time>2014-07-17T06:58:03Z</time>
      </trkpt>
      <trkpt lat="45.862744599580765" lon="6.782938297837973">
        <ele>1710.3199999999999</ele>
        <time>2014-07-17T06:58:17Z</time>
      </trkpt>
      <trkpt lat="45.862778127193451" lon="6.782932933419943">
        <ele>1709.8399999999999</ele>
        <time>2014-07-17T06:58:38Z</time>
      </trkpt>
      <trkpt lat="45.862818108871579" lon="6.78290837444365">
        <ele>1709.8399999999999</ele>
        <time>2014-07-17T06:59:04Z</time>
      </trkpt>
      <trkpt lat="45.862805200740695" lon="6.782925054430962">
        <ele>1710.3199999999999</ele>
        <time>2014-07-17T06:59:26Z</time>
      </trkpt>
      <trkpt lat="45.862839734181762" lon="6.782933603972197">
        <ele>1710.3199999999999</ele>
        <time>2014-07-17T06:59:49Z</time>
      </trkpt>
      <trkpt lat="45.862851720303297" lon="6.782919941470027">
        <ele>1710.3199999999999</ele>
        <time>2014-07-17T07:00:12Z</time>
      </trkpt>
      <trkpt lat="45.862863203510642" lon="6.78292497061193">
        <ele>1710.8</ele>
        <time>2014-07-17T07:00:38Z</time>
      </trkpt>
      <trkpt lat="45.862895054742694" lon="6.782926730811596">
        <ele>1711.28</ele>
        <time>2014-07-17T07:01:05Z</time>
      </trkpt>
      <trkpt lat="45.862914584577084" lon="6.782879708334804">
        <ele>1711.28</ele>
        <time>2014-07-17T07:01:23Z</time>
      </trkpt>
      <trkpt lat="45.862893126904964" lon="6.782890353351831">
        <ele>1711.28</ele>
        <time>2014-07-17T07:01:42Z</time>
      </trkpt>
      <trkpt lat="45.862912572920322" lon="6.782886916771531">
        <ele>1711.28</ele>
        <time>2014-07-17T07:01:59Z</time>
      </trkpt>
      <trkpt lat="45.862908884882927" lon="6.782888676971197">
        <ele>1711.76</ele>
        <time>2014-07-17T07:02:20Z</time>
      </trkpt>
      <trkpt lat="45.862886253744364" lon="6.782916756346822">
        <ele>1711.28</ele>
        <time>2014-07-17T07:02:47Z</time>
      </trkpt>
      <trkpt lat="45.862830514088273" lon="6.782884737476707">
        <ele>1711.28</ele>
        <time>2014-07-17T07:03:13Z</time>
      </trkpt>
      <trkpt lat="45.862844092771411" lon="6.782883647829294">
        <ele>1711.76</ele>
        <time>2014-07-17T07:03:35Z</time>
      </trkpt>
      <trkpt lat="45.86284208111465" lon="6.78287367336452">
        <ele>1711.28</ele>
        <time>2014-07-17T07:03:59Z</time>
      </trkpt>
      <trkpt lat="45.862835962325335" lon="6.782924048602581">
        <ele>1710.8</ele>
        <time>2014-07-17T07:04:15Z</time>
      </trkpt>
      <trkpt lat="45.862818863242865" lon="6.78293569944799">
        <ele>1711.28</ele>
        <time>2014-07-17T07:04:44Z</time>
      </trkpt>
      <trkpt lat="45.862740073353052" lon="6.782918516546488">
        <ele>1712.25</ele>
        <time>2014-07-17T07:05:02Z</time>
      </trkpt>
      <trkpt lat="45.862654913216829" lon="6.782971490174532">
        <ele>1714.1700000000001</ele>
        <time>2014-07-17T07:05:16Z</time>
      </trkpt>
      <trkpt lat="45.862600598484278" lon="6.783033180981875">
        <ele>1717.05</ele>
        <time>2014-07-17T07:05:30Z</time>
      </trkpt>
      <trkpt lat="45.862546367570758" lon="6.783050447702408">
        <ele>1719.46</ele>
        <time>2014-07-17T07:05:46Z</time>
      </trkpt>
      <trkpt lat="45.862504541873932" lon="6.782988924533129">
        <ele>1721.8599999999999</ele>
        <time>2014-07-17T07:06:00Z</time>
      </trkpt>
      <trkpt lat="45.862414352595806" lon="6.783026056364179">
        <ele>1723.78</ele>
        <time>2014-07-17T07:06:15Z</time>
      </trkpt>
      <trkpt lat="45.86232609115541" lon="6.783073330298066">
        <ele>1726.6700000000001</ele>
        <time>2014-07-17T07:06:32Z</time>
      </trkpt>
      <trkpt lat="45.862255012616515" lon="6.783015159890056">
        <ele>1728.5899999999999</ele>
        <time>2014-07-17T07:06:47Z</time>
      </trkpt>
      <trkpt lat="45.862242020666599" lon="6.782914409413934">
        <ele>1731.47</ele>
        <time>2014-07-17T07:07:01Z</time>
      </trkpt>
      <trkpt lat="45.862219221889973" lon="6.782872918993235">
        <ele>1729.0699999999999</ele>
        <time>2014-07-17T07:07:09Z</time>
      </trkpt>
      <trkpt lat="45.862226765602827" lon="6.782851293683052">
        <ele>1731.47</ele>
        <time>2014-07-17T07:07:18Z</time>
      </trkpt>
      <trkpt lat="45.862207151949406" lon="6.782837212085724">
        <ele>1731.95</ele>
        <time>2014-07-17T07:07:39Z</time>
      </trkpt>
      <trkpt lat="45.86224352940917" lon="6.782839139923453">
        <ele>1731.95</ele>
        <time>2014-07-17T07:07:57Z</time>
      </trkpt>
      <trkpt lat="45.862206062301993" lon="6.782834613695741">
        <ele>1733.3900000000001</ele>
        <time>2014-07-17T07:08:16Z</time>
      </trkpt>
      <trkpt lat="45.862172450870275" lon="6.782887754961848">
        <ele>1734.8399999999999</ele>
        <time>2014-07-17T07:08:30Z</time>
      </trkpt>
      <trkpt lat="45.862094666808844" lon="6.782898735255003">
        <ele>1737.72</ele>
        <time>2014-07-17T07:08:45Z</time>
      </trkpt>
      <trkpt lat="45.862055774778128" lon="6.782933436334133">
        <ele>1739.1600000000001</ele>
        <time>2014-07-17T07:08:59Z</time>
      </trkpt>
      <trkpt lat="45.862028365954757" lon="6.783021194860339">
        <ele>1741.5699999999999</ele>
        <time>2014-07-17T07:09:13Z</time>
      </trkpt>
      <trkpt lat="45.861948989331722" lon="6.783020608127117">
        <ele>1743.97</ele>
        <time>2014-07-17T07:09:28Z</time>
      </trkpt>
      <trkpt lat="45.861876402050257" lon="6.783000826835632">
        <ele>1746.8499999999999</ele>
        <time>2014-07-17T07:09:44Z</time>
      </trkpt>
      <trkpt lat="45.861842874437571" lon="6.7830456700176">
        <ele>1748.29</ele>
        <time>2014-07-17T07:10:00Z</time>
      </trkpt>
      <trkpt lat="45.861808760091662" lon="6.78309503942728">
        <ele>1750.22</ele>
        <time>2014-07-17T07:10:19Z</time>
      </trkpt>
      <trkpt lat="45.861772214993834" lon="6.783128064125776">
        <ele>1752.1400000000001</ele>
        <time>2014-07-17T07:10:35Z</time>
      </trkpt>
      <trkpt lat="45.861750924959779" lon="6.783163854852319">
        <ele>1753.5799999999999</ele>
        <time>2014-07-17T07:10:48Z</time>
      </trkpt>
      <trkpt lat="45.86170163936913" lon="6.783113311976194">
        <ele>1755.02</ele>
        <time>2014-07-17T07:11:01Z</time>
      </trkpt>
      <trkpt lat="45.861683115363121" lon="6.783050447702408">
        <ele>1756.95</ele>
        <time>2014-07-17T07:11:14Z</time>
      </trkpt>
      <trkpt lat="45.861680516973138" lon="6.78298020735383">
        <ele>1758.8699999999999</ele>
        <time>2014-07-17T07:11:29Z</time>
      </trkpt>
      <trkpt lat="45.861677918583155" lon="6.782956821843982">
        <ele>1759.8299999999999</ele>
        <time>2014-07-17T07:11:49Z</time>
      </trkpt>
      <trkpt lat="45.861657047644258" lon="6.782971322536469">
        <ele>1761.27</ele>
        <time>2014-07-17T07:12:00Z</time>
      </trkpt>
      <trkpt lat="45.861626956611872" lon="6.782942656427622">
        <ele>1763.2</ele>
        <time>2014-07-17T07:12:17Z</time>
      </trkpt>
      <trkpt lat="45.861636763438582" lon="6.782810809090734">
        <ele>1765.5999999999999</ele>
        <time>2014-07-17T07:12:30Z</time>
      </trkpt>
      <trkpt lat="45.861655538901687" lon="6.782728666439652">
        <ele>1766.5599999999999</ele>
        <time>2014-07-17T07:12:42Z</time>
      </trkpt>
      <trkpt lat="45.861664423719049" lon="6.782763535156846">
        <ele>1768</ele>
        <time>2014-07-17T07:13:02Z</time>
      </trkpt>
      <trkpt lat="45.861626705154777" lon="6.782752806320787">
        <ele>1768.96</ele>
        <time>2014-07-17T07:13:16Z</time>
      </trkpt>
      <trkpt lat="45.861604241654277" lon="6.782715506851673">
        <ele>1770.8900000000001</ele>
        <time>2014-07-17T07:13:35Z</time>
      </trkpt>
      <trkpt lat="45.861595692113042" lon="6.782750627025962">
        <ele>1772.8099999999999</ele>
        <time>2014-07-17T07:13:51Z</time>
      </trkpt>
      <trkpt lat="45.861572222784162" lon="6.782675441354513">
        <ele>1775.21</ele>
        <time>2014-07-17T07:14:07Z</time>
      </trkpt>
      <trkpt lat="45.861540287733078" lon="6.782601093873382">
        <ele>1777.1300000000001</ele>
        <time>2014-07-17T07:14:23Z</time>
      </trkpt>
      <trkpt lat="45.86153844371438" lon="6.782499924302101">
        <ele>1778.0999999999999</ele>
        <time>2014-07-17T07:14:35Z</time>
      </trkpt>
      <trkpt lat="45.861515393480659" lon="6.782452985644341">
        <ele>1779.0599999999999</ele>
        <time>2014-07-17T07:14:45Z</time>
      </trkpt>
      <trkpt lat="45.861504413187504" lon="6.782379560172558">
        <ele>1780.98</ele>
        <time>2014-07-17T07:14:58Z</time>
      </trkpt>
      <trkpt lat="45.861474992707372" lon="6.782347541302443">
        <ele>1782.9000000000001</ele>
        <time>2014-07-17T07:15:12Z</time>
      </trkpt>
      <trkpt lat="45.861425874754786" lon="6.782219130545855">
        <ele>1784.8199999999999</ele>
        <time>2014-07-17T07:15:28Z</time>
      </trkpt>
      <trkpt lat="45.861415900290012" lon="6.782068507745862">
        <ele>1786.27</ele>
        <time>2014-07-17T07:15:42Z</time>
      </trkpt>
      <trkpt lat="45.861419588327408" lon="6.782007068395615">
        <ele>1786.75</ele>
        <time>2014-07-17T07:15:56Z</time>
      </trkpt>
      <trkpt lat="45.861388072371483" lon="6.781951831653714">
        <ele>1786.75</ele>
        <time>2014-07-17T07:16:09Z</time>
      </trkpt>
      <trkpt lat="45.861383881419897" lon="6.781903803348541">
        <ele>1786.75</ele>
        <time>2014-07-17T07:16:19Z</time>
      </trkpt>
      <trkpt lat="45.861305929720402" lon="6.781777068972588">
        <ele>1785.79</ele>
        <time>2014-07-17T07:16:33Z</time>
      </trkpt>
      <trkpt lat="45.861255638301373" lon="6.781646981835365">
        <ele>1789.1500000000001</ele>
        <time>2014-07-17T07:16:45Z</time>
      </trkpt>
      <trkpt lat="45.861190930008888" lon="6.781588392332196">
        <ele>1790.5899999999999</ele>
        <time>2014-07-17T07:17:00Z</time>
      </trkpt>
      <trkpt lat="45.861119600012898" lon="6.781552098691464">
        <ele>1793.48</ele>
        <time>2014-07-17T07:17:16Z</time>
      </trkpt>
      <trkpt lat="45.861029494553804" lon="6.781514380127192">
        <ele>1795.8800000000001</ele>
        <time>2014-07-17T07:17:30Z</time>
      </trkpt>
      <trkpt lat="45.860970569774508" lon="6.781486971303821">
        <ele>1797.3199999999999</ele>
        <time>2014-07-17T07:17:46Z</time>
      </trkpt>
      <trkpt lat="45.860897395759821" lon="6.781481942161918">
        <ele>1799.73</ele>
        <time>2014-07-17T07:18:04Z</time>
      </trkpt>
      <trkpt lat="45.860843500122428" lon="6.781462747603655">
        <ele>1801.6500000000001</ele>
        <time>2014-07-17T07:18:21Z</time>
      </trkpt>
      <trkpt lat="45.860794046893716" lon="6.781454114243388">
        <ele>1804.05</ele>
        <time>2014-07-17T07:18:37Z</time>
      </trkpt>
      <trkpt lat="45.860721962526441" lon="6.781418072059751">
        <ele>1806.45</ele>
        <time>2014-07-17T07:18:52Z</time>
      </trkpt>
      <trkpt lat="45.860666055232286" lon="6.781389573588967">
        <ele>1807.9000000000001</ele>
        <time>2014-07-17T07:19:09Z</time>
      </trkpt>
      <trkpt lat="45.860648369416595" lon="6.78136040456593">
        <ele>1808.8599999999999</ele>
        <time>2014-07-17T07:19:24Z</time>
      </trkpt>
      <trkpt lat="45.860589947551489" lon="6.781359566375613">
        <ele>1810.3</ele>
        <time>2014-07-17T07:19:37Z</time>
      </trkpt>
      <trkpt lat="45.860557425767183" lon="6.78124263882637">
        <ele>1812.22</ele>
        <time>2014-07-17T07:19:51Z</time>
      </trkpt>
      <trkpt lat="45.860504116863012" lon="6.781200729310513">
        <ele>1814.1500000000001</ele>
        <time>2014-07-17T07:20:06Z</time>
      </trkpt>
      <trkpt lat="45.860516102984548" lon="6.781074162572622">
        <ele>1816.0699999999999</ele>
        <time>2014-07-17T07:20:19Z</time>
      </trkpt>
      <trkpt lat="45.860539404675364" lon="6.780936531722546">
        <ele>1818.47</ele>
        <time>2014-07-17T07:20:36Z</time>
      </trkpt>
      <trkpt lat="45.860563209280372" lon="6.780889090150595">
        <ele>1819.4300000000001</ele>
        <time>2014-07-17T07:20:55Z</time>
      </trkpt>
      <trkpt lat="45.860498417168856" lon="6.780813736841083">
        <ele>1821.3499999999999</ele>
        <time>2014-07-17T07:21:07Z</time>
      </trkpt>
      <trkpt lat="45.860392972826958" lon="6.780780963599682">
        <ele>1823.28</ele>
        <time>2014-07-17T07:21:21Z</time>
      </trkpt>
      <trkpt lat="45.8602958265692" lon="6.780772162601352">
        <ele>1825.6800000000001</ele>
        <time>2014-07-17T07:21:37Z</time>
      </trkpt>
      <trkpt lat="45.860210498794913" lon="6.780758332461119">
        <ele>1827.5999999999999</ele>
        <time>2014-07-17T07:21:49Z</time>
      </trkpt>
      <trkpt lat="45.860176216810942" lon="6.780749699100852">
        <ele>1828.0799999999999</ele>
        <time>2014-07-17T07:22:03Z</time>
      </trkpt>
      <trkpt lat="45.860135983675718" lon="6.780774341896176">
        <ele>1830.01</ele>
        <time>2014-07-17T07:22:19Z</time>
      </trkpt>
      <trkpt lat="45.860110335052013" lon="6.78068901412189">
        <ele>1832.4100000000001</ele>
        <time>2014-07-17T07:22:36Z</time>
      </trkpt>
      <trkpt lat="45.860108491033316" lon="6.780597316101193">
        <ele>1833.8499999999999</ele>
        <time>2014-07-17T07:22:50Z</time>
      </trkpt>
      <trkpt lat="45.860072029754519" lon="6.780553227290511">
        <ele>1835.29</ele>
        <time>2014-07-17T07:23:00Z</time>
      </trkpt>
      <trkpt lat="45.859969351440668" lon="6.780487932264805">
        <ele>1837.7</ele>
        <time>2014-07-17T07:23:15Z</time>
      </trkpt>
      <trkpt lat="45.859921323135495" lon="6.78041098639369">
        <ele>1839.6199999999999</ele>
        <time>2014-07-17T07:23:27Z</time>
      </trkpt>
      <trkpt lat="45.859889220446348" lon="6.780379973351955">
        <ele>1842.98</ele>
        <time>2014-07-17T07:23:41Z</time>
      </trkpt>
      <trkpt lat="45.859836582094431" lon="6.780360108241439">
        <ele>1841.54</ele>
        <time>2014-07-17T07:24:01Z</time>
      </trkpt>
      <trkpt lat="45.85978863760829" lon="6.780304620042443">
        <ele>1842.5</ele>
        <time>2014-07-17T07:24:08Z</time>
      </trkpt>
      <trkpt lat="45.859694257378578" lon="6.780244521796703">
        <ele>1844.4300000000001</ele>
        <time>2014-07-17T07:24:22Z</time>
      </trkpt>
      <trkpt lat="45.859639523550868" lon="6.780217280611396">
        <ele>1845.3900000000001</ele>
        <time>2014-07-17T07:24:38Z</time>
      </trkpt>
      <trkpt lat="45.859598871320486" lon="6.780191799625754">
        <ele>1845.3900000000001</ele>
        <time>2014-07-17T07:24:52Z</time>
      </trkpt>
      <trkpt lat="45.859533073380589" lon="6.780162882059813">
        <ele>1846.3499999999999</ele>
        <time>2014-07-17T07:25:09Z</time>
      </trkpt>
      <trkpt lat="45.859545394778252" lon="6.780133629217744">
        <ele>1845.8699999999999</ele>
        <time>2014-07-17T07:25:27Z</time>
      </trkpt>
      <trkpt lat="45.859446907415986" lon="6.780011253431439">
        <ele>1846.3499999999999</ele>
        <time>2014-07-17T07:25:39Z</time>
      </trkpt>
      <trkpt lat="45.859398292377591" lon="6.78004008717835">
        <ele>1846.8299999999999</ele>
        <time>2014-07-17T07:25:48Z</time>
      </trkpt>
      <trkpt lat="45.859346827492118" lon="6.780026592314243">
        <ele>1846.8299999999999</ele>
        <time>2014-07-17T07:25:53Z</time>
      </trkpt>
      <trkpt lat="45.859317071735859" lon="6.780020724982023">
        <ele>1846.8299999999999</ele>
        <time>2014-07-17T07:25:56Z</time>
      </trkpt>
      <trkpt lat="45.859212381765246" lon="6.779953334480524">
        <ele>1848.75</ele>
        <time>2014-07-17T07:26:10Z</time>
      </trkpt>
      <trkpt lat="45.85914658382535" lon="6.779879992827773">
        <ele>1850.6800000000001</ele>
        <time>2014-07-17T07:26:23Z</time>
      </trkpt>
      <trkpt lat="45.859130071476102" lon="6.779752252623439">
        <ele>1852.1199999999999</ele>
        <time>2014-07-17T07:26:36Z</time>
      </trkpt>
      <trkpt lat="45.859067542478442" lon="6.779694249853492">
        <ele>1854.04</ele>
        <time>2014-07-17T07:26:50Z</time>
      </trkpt>
      <trkpt lat="45.859010629355907" lon="6.779667679220438">
        <ele>1855</ele>
        <time>2014-07-17T07:26:59Z</time>
      </trkpt>
      <trkpt lat="45.858935192227364" lon="6.7795764002949">
        <ele>1855.96</ele>
        <time>2014-07-17T07:27:15Z</time>
      </trkpt>
      <trkpt lat="45.858885822817683" lon="6.779539184644818">
        <ele>1857.4000000000001</ele>
        <time>2014-07-17T07:27:24Z</time>
      </trkpt>
      <trkpt lat="45.858815498650074" lon="6.779501382261515">
        <ele>1858.8499999999999</ele>
        <time>2014-07-17T07:27:36Z</time>
      </trkpt>
      <trkpt lat="45.858789011836052" lon="6.779417227953672">
        <ele>1860.29</ele>
        <time>2014-07-17T07:27:49Z</time>
      </trkpt>
      <trkpt lat="45.858813151717186" lon="6.779412031173706">
        <ele>1860.29</ele>
        <time>2014-07-17T07:28:07Z</time>
      </trkpt>
      <trkpt lat="45.858837040141225" lon="6.779487384483218">
        <ele>1860.29</ele>
        <time>2014-07-17T07:28:42Z</time>
      </trkpt>
      <trkpt lat="45.858827820047736" lon="6.779451090842485">
        <ele>1860.77</ele>
        <time>2014-07-17T07:29:12Z</time>
      </trkpt>
      <trkpt lat="45.858781971037388" lon="6.779414378106594">
        <ele>1860.77</ele>
        <time>2014-07-17T07:29:45Z</time>
      </trkpt>
      <trkpt lat="45.858771242201328" lon="6.779271382838488">
        <ele>1862.21</ele>
        <time>2014-07-17T07:29:57Z</time>
      </trkpt>
      <trkpt lat="45.858756070956588" lon="6.779200304299593">
        <ele>1863.6500000000001</ele>
        <time>2014-07-17T07:30:11Z</time>
      </trkpt>
      <trkpt lat="45.858729165047407" lon="6.779159232974052">
        <ele>1864.6099999999999</ele>
        <time>2014-07-17T07:30:18Z</time>
      </trkpt>
      <trkpt lat="45.858609136193991" lon="6.77912587299943">
        <ele>1866.54</ele>
        <time>2014-07-17T07:30:34Z</time>
      </trkpt>
      <trkpt lat="45.858554653823376" lon="6.779052028432488">
        <ele>1868.46</ele>
        <time>2014-07-17T07:30:46Z</time>
      </trkpt>
      <trkpt lat="45.85849673487246" lon="6.77898514084518">
        <ele>1870.3800000000001</ele>
        <time>2014-07-17T07:30:59Z</time>
      </trkpt>
      <trkpt lat="45.85844099521637" lon="6.778893442824483">
        <ele>1871.8199999999999</ele>
        <time>2014-07-17T07:31:14Z</time>
      </trkpt>
      <trkpt lat="45.858436468988657" lon="6.77880878560245">
        <ele>1874.23</ele>
        <time>2014-07-17T07:31:26Z</time>
      </trkpt>
      <trkpt lat="45.85839313454926" lon="6.778734857216477">
        <ele>1876.1500000000001</ele>
        <time>2014-07-17T07:31:41Z</time>
      </trkpt>
      <trkpt lat="45.858342507854104" lon="6.778675094246864">
        <ele>1879.03</ele>
        <time>2014-07-17T07:31:57Z</time>
      </trkpt>
      <trkpt lat="45.858300598338246" lon="6.77861868403852">
        <ele>1880.48</ele>
        <time>2014-07-17T07:32:10Z</time>
      </trkpt>
      <trkpt lat="45.85827000439167" lon="6.778550120070577">
        <ele>1881.9200000000001</ele>
        <time>2014-07-17T07:32:24Z</time>
      </trkpt>
      <trkpt lat="45.858230609446764" lon="6.778461188077927">
        <ele>1884.3199999999999</ele>
        <time>2014-07-17T07:32:38Z</time>
      </trkpt>
      <trkpt lat="45.858171433210373" lon="6.778418105095625">
        <ele>1886.24</ele>
        <time>2014-07-17T07:32:53Z</time>
      </trkpt>
      <trkpt lat="45.858125668019056" lon="6.778367394581437">
        <ele>1888.1700000000001</ele>
        <time>2014-07-17T07:33:04Z</time>
      </trkpt>
      <trkpt lat="45.858067665249109" lon="6.77839488722384">
        <ele>1890.0899999999999</ele>
        <time>2014-07-17T07:33:16Z</time>
      </trkpt>
      <trkpt lat="45.858056517317891" lon="6.778406789526343">
        <ele>1890.0899999999999</ele>
        <time>2014-07-17T07:33:18Z</time>
      </trkpt>
      <trkpt lat="45.857997508719563" lon="6.778376111760736">
        <ele>1892.01</ele>
        <time>2014-07-17T07:33:31Z</time>
      </trkpt>
      <trkpt lat="45.857948306947947" lon="6.778379213064909">
        <ele>1894.4200000000001</ele>
        <time>2014-07-17T07:33:43Z</time>
      </trkpt>
      <trkpt lat="45.8579489775002" lon="6.778340069577098">
        <ele>1896.3399999999999</ele>
        <time>2014-07-17T07:33:57Z</time>
      </trkpt>
      <trkpt lat="45.857893489301205" lon="6.778329173102975">
        <ele>1897.3</ele>
        <time>2014-07-17T07:34:09Z</time>
      </trkpt>
      <trkpt lat="45.857839426025748" lon="6.778274103999138">
        <ele>1899.7</ele>
        <time>2014-07-17T07:34:23Z</time>
      </trkpt>
      <trkpt lat="45.857766084372997" lon="6.778219873085618">
        <ele>1902.5899999999999</ele>
        <time>2014-07-17T07:34:36Z</time>
      </trkpt>
      <trkpt lat="45.857741022482514" lon="6.778206378221512">
        <ele>1903.55</ele>
        <time>2014-07-17T07:34:48Z</time>
      </trkpt>
      <trkpt lat="45.857706069946289" lon="6.77817989140749">
        <ele>1904.99</ele>
        <time>2014-07-17T07:34:59Z</time>
      </trkpt>
      <trkpt lat="45.857707913964987" lon="6.778145022690296">
        <ele>1906.4300000000001</ele>
        <time>2014-07-17T07:35:13Z</time>
      </trkpt>
      <trkpt lat="45.857682600617409" lon="6.77805726416409">
        <ele>1907.8699999999999</ele>
        <time>2014-07-17T07:35:28Z</time>
      </trkpt>
      <trkpt lat="45.857668099924922" lon="6.778059443458915">
        <ele>1908.3499999999999</ele>
        <time>2014-07-17T07:35:41Z</time>
      </trkpt>
      <trkpt lat="45.857637338340282" lon="6.777969924733043">
        <ele>1909.8</ele>
        <time>2014-07-17T07:35:55Z</time>
      </trkpt>
      <trkpt lat="45.857654437422752" lon="6.777924243360758">
        <ele>1910.28</ele>
        <time>2014-07-17T07:36:00Z</time>
      </trkpt>
      <trkpt lat="45.857649408280849" lon="6.777831623330712">
        <ele>1909.8</ele>
        <time>2014-07-17T07:36:13Z</time>
      </trkpt>
      <trkpt lat="45.857640188187361" lon="6.777815194800496">
        <ele>1912.6800000000001</ele>
        <time>2014-07-17T07:36:15Z</time>
      </trkpt>
      <trkpt lat="45.857600374147296" lon="6.777744283899665">
        <ele>1914.1199999999999</ele>
        <time>2014-07-17T07:36:28Z</time>
      </trkpt>
      <trkpt lat="45.857589477673173" lon="6.777656273916364">
        <ele>1917.01</ele>
        <time>2014-07-17T07:36:41Z</time>
      </trkpt>
      <trkpt lat="45.857562990859151" lon="6.777602378278971">
        <ele>1918.9300000000001</ele>
        <time>2014-07-17T07:36:53Z</time>
      </trkpt>
      <trkpt lat="45.857531726360321" lon="6.777508249506354">
        <ele>1920.8499999999999</ele>
        <time>2014-07-17T07:37:07Z</time>
      </trkpt>
      <trkpt lat="45.85754924453795" lon="6.777523085474968">
        <ele>1921.3299999999999</ele>
        <time>2014-07-17T07:37:22Z</time>
      </trkpt>
      <trkpt lat="45.857508843764663" lon="6.777415378019214">
        <ele>1922.29</ele>
        <time>2014-07-17T07:37:36Z</time>
      </trkpt>
      <trkpt lat="45.857485458254814" lon="6.777404733002186">
        <ele>1922.77</ele>
        <time>2014-07-17T07:37:39Z</time>
      </trkpt>
      <trkpt lat="45.857381941750646" lon="6.777346897870302">
        <ele>1924.22</ele>
        <time>2014-07-17T07:37:53Z</time>
      </trkpt>
      <trkpt lat="45.857326788827777" lon="6.777281099930406">
        <ele>1925.6600000000001</ele>
        <time>2014-07-17T07:38:04Z</time>
      </trkpt>
      <trkpt lat="45.857258727774024" lon="6.777236256748438">
        <ele>1927.0999999999999</ele>
        <time>2014-07-17T07:38:17Z</time>
      </trkpt>
      <trkpt lat="45.857190582901239" lon="6.777152772992849">
        <ele>1929.02</ele>
        <time>2014-07-17T07:38:30Z</time>
      </trkpt>
      <trkpt lat="45.857160156592727" lon="6.777076330035925">
        <ele>1929.98</ele>
        <time>2014-07-17T07:38:39Z</time>
      </trkpt>
      <trkpt lat="45.857120845466852" lon="6.777066020295024">
        <ele>1930.46</ele>
        <time>2014-07-17T07:38:44Z</time>
      </trkpt>
      <trkpt lat="45.857089580968022" lon="6.777004497125745">
        <ele>1930.95</ele>
        <time>2014-07-17T07:38:50Z</time>
      </trkpt>
      <trkpt lat="45.857033170759678" lon="6.776851695030928">
        <ele>1932.3900000000001</ele>
        <time>2014-07-17T07:39:04Z</time>
      </trkpt>
      <trkpt lat="45.85698489099741" lon="6.77672864869237">
        <ele>1934.3099999999999</ele>
        <time>2014-07-17T07:39:18Z</time>
      </trkpt>
      <trkpt lat="45.856981286779046" lon="6.776721607893705">
        <ele>1934.3099999999999</ele>
        <time>2014-07-17T07:39:19Z</time>
      </trkpt>
      <trkpt lat="45.856959661468863" lon="6.776596046984196">
        <ele>1935.75</ele>
        <time>2014-07-17T07:39:32Z</time>
      </trkpt>
      <trkpt lat="45.856909705325961" lon="6.776545336470008">
        <ele>1937.1900000000001</ele>
        <time>2014-07-17T07:39:46Z</time>
      </trkpt>
      <trkpt lat="45.856851618736982" lon="6.776442071422935">
        <ele>1939.5999999999999</ele>
        <time>2014-07-17T07:40:00Z</time>
      </trkpt>
      <trkpt lat="45.856814654543996" lon="6.77645212970674">
        <ele>1940.5599999999999</ele>
        <time>2014-07-17T07:40:12Z</time>
      </trkpt>
      <trkpt lat="45.856754556298256" lon="6.776409633457661">
        <ele>1942</ele>
        <time>2014-07-17T07:40:25Z</time>
      </trkpt>
      <trkpt lat="45.856659673154354" lon="6.776327323168516">
        <ele>1943.9200000000001</ele>
        <time>2014-07-17T07:40:41Z</time>
      </trkpt>
      <trkpt lat="45.856651207432151" lon="6.776323383674026">
        <ele>1944.4000000000001</ele>
        <time>2014-07-17T07:40:42Z</time>
      </trkpt>
      <trkpt lat="45.856629833579063" lon="6.776300584897399">
        <ele>1944.4000000000001</ele>
        <time>2014-07-17T07:40:45Z</time>
      </trkpt>
      <trkpt lat="45.85661600343883" lon="6.776269068941474">
        <ele>1944.8800000000001</ele>
        <time>2014-07-17T07:40:48Z</time>
      </trkpt>
      <trkpt lat="45.856513995677233" lon="6.776120709255338">
        <ele>1946.3299999999999</ele>
        <time>2014-07-17T07:41:05Z</time>
      </trkpt>
      <trkpt lat="45.856432020664215" lon="6.77603580057621">
        <ele>1948.25</ele>
        <time>2014-07-17T07:41:20Z</time>
      </trkpt>
      <trkpt lat="45.856361109763384" lon="6.775939408689737">
        <ele>1950.1700000000001</ele>
        <time>2014-07-17T07:41:33Z</time>
      </trkpt>
      <trkpt lat="45.856323055922985" lon="6.775872521102428">
        <ele>1951.6099999999999</ele>
        <time>2014-07-17T07:41:48Z</time>
      </trkpt>
      <trkpt lat="45.856286427006125" lon="6.77578367292881">
        <ele>1953.54</ele>
        <time>2014-07-17T07:42:03Z</time>
      </trkpt>
      <trkpt lat="45.856260107830167" lon="6.775660878047347">
        <ele>1955.9400000000001</ele>
        <time>2014-07-17T07:42:21Z</time>
      </trkpt>
      <trkpt lat="45.856247199699283" lon="6.775608658790588">
        <ele>1957.3800000000001</ele>
        <time>2014-07-17T07:42:36Z</time>
      </trkpt>
      <trkpt lat="45.856218114495277" lon="6.775569599121809">
        <ele>1959.3</ele>
        <time>2014-07-17T07:42:52Z</time>
      </trkpt>
      <trkpt lat="45.856179725378752" lon="6.775496006011963">
        <ele>1961.23</ele>
        <time>2014-07-17T07:43:06Z</time>
      </trkpt>
      <trkpt lat="45.856118788942695" lon="6.775403050705791">
        <ele>1963.6300000000001</ele>
        <time>2014-07-17T07:43:25Z</time>
      </trkpt>
      <trkpt lat="45.856068329885602" lon="6.775343455374241">
        <ele>1965.55</ele>
        <time>2014-07-17T07:43:40Z</time>
      </trkpt>
      <trkpt lat="45.856028934940696" lon="6.77524664439261">
        <ele>1967.48</ele>
        <time>2014-07-17T07:43:56Z</time>
      </trkpt>
      <trkpt lat="45.856023402884603" lon="6.775271622464061">
        <ele>1968.4400000000001</ele>
        <time>2014-07-17T07:44:09Z</time>
      </trkpt>
      <trkpt lat="45.856018960475922" lon="6.775274053215981">
        <ele>1968.9200000000001</ele>
        <time>2014-07-17T07:44:25Z</time>
      </trkpt>
      <trkpt lat="45.855970596894622" lon="6.775199035182595">
        <ele>1970.3599999999999</ele>
        <time>2014-07-17T07:44:38Z</time>
      </trkpt>
      <trkpt lat="45.855989875271916" lon="6.775234071537852">
        <ele>1969.8800000000001</ele>
        <time>2014-07-17T07:45:05Z</time>
      </trkpt>
      <trkpt lat="45.855926005169749" lon="6.775154108181596">
        <ele>1971.3199999999999</ele>
        <time>2014-07-17T07:45:19Z</time>
      </trkpt>
      <trkpt lat="45.855876635760069" lon="6.775139188393951">
        <ele>1972.76</ele>
        <time>2014-07-17T07:45:31Z</time>
      </trkpt>
      <trkpt lat="45.855843778699636" lon="6.775036510080099">
        <ele>1974.2</ele>
        <time>2014-07-17T07:45:41Z</time>
      </trkpt>
      <trkpt lat="45.855794241651893" lon="6.774954786524177">
        <ele>1975.6500000000001</ele>
        <time>2014-07-17T07:45:51Z</time>
      </trkpt>
      <trkpt lat="45.855771359056234" lon="6.774970879778266">
        <ele>1976.1300000000001</ele>
        <time>2014-07-17T07:45:54Z</time>
      </trkpt>
      <trkpt lat="45.855709668248892" lon="6.774905165657401">
        <ele>1978.53</ele>
        <time>2014-07-17T07:46:05Z</time>
      </trkpt>
      <trkpt lat="45.855650324374437" lon="6.774774240329862">
        <ele>1980.45</ele>
        <time>2014-07-17T07:46:19Z</time>
      </trkpt>
      <trkpt lat="45.855592740699649" lon="6.774658150970936">
        <ele>1982.3800000000001</ele>
        <time>2014-07-17T07:46:33Z</time>
      </trkpt>
      <trkpt lat="45.855515962466598" lon="6.774606434628367">
        <ele>1983.8199999999999</ele>
        <time>2014-07-17T07:46:45Z</time>
      </trkpt>
      <trkpt lat="45.855448488146067" lon="6.774541307240725">
        <ele>1986.22</ele>
        <time>2014-07-17T07:47:00Z</time>
      </trkpt>
      <trkpt lat="45.855379840359092" lon="6.774443490430713">
        <ele>1988.6199999999999</ele>
        <time>2014-07-17T07:47:17Z</time>
      </trkpt>
      <trkpt lat="45.855344049632549" lon="6.774418344721198">
        <ele>1990.55</ele>
        <time>2014-07-17T07:47:25Z</time>
      </trkpt>
      <trkpt lat="45.85532158613205" lon="6.774394875392318">
        <ele>1990.55</ele>
        <time>2014-07-17T07:47:42Z</time>
      </trkpt>
      <trkpt lat="45.855310522019863" lon="6.774375261738896">
        <ele>1991.03</ele>
        <time>2014-07-17T07:48:04Z</time>
      </trkpt>
      <trkpt lat="45.855236174538732" lon="6.774345422163606">
        <ele>1993.4300000000001</ele>
        <time>2014-07-17T07:48:17Z</time>
      </trkpt>
      <trkpt lat="45.855205748230219" lon="6.774335531517863">
        <ele>1994.3900000000001</ele>
        <time>2014-07-17T07:48:22Z</time>
      </trkpt>
      <trkpt lat="45.855123521760106" lon="6.774200331419706">
        <ele>1996.3199999999999</ele>
        <time>2014-07-17T07:48:36Z</time>
      </trkpt>
      <trkpt lat="45.85506945848465" lon="6.774160768836737">
        <ele>1997.28</ele>
        <time>2014-07-17T07:48:50Z</time>
      </trkpt>
      <trkpt lat="45.855017323046923" lon="6.77410863339901">
        <ele>1998.72</ele>
        <time>2014-07-17T07:48:57Z</time>
      </trkpt>
      <trkpt lat="45.854961583390832" lon="6.774016264826059">
        <ele>2000.1600000000001</ele>
        <time>2014-07-17T07:49:08Z</time>
      </trkpt>
      <trkpt lat="45.854877093806863" lon="6.773918028920889">
        <ele>2002.0799999999999</ele>
        <time>2014-07-17T07:49:20Z</time>
      </trkpt>
      <trkpt lat="45.854826383292675" lon="6.773883160203695">
        <ele>2002.5599999999999</ele>
        <time>2014-07-17T07:49:26Z</time>
      </trkpt>
      <trkpt lat="45.854698559269309" lon="6.773827085271478">
        <ele>2004.49</ele>
        <time>2014-07-17T07:49:43Z</time>
      </trkpt>
      <trkpt lat="45.854638880118728" lon="6.773765813559294">
        <ele>2005.9300000000001</ele>
        <time>2014-07-17T07:49:52Z</time>
      </trkpt>
      <trkpt lat="45.854613985866308" lon="6.773757096379995">
        <ele>2006.4100000000001</ele>
        <time>2014-07-17T07:49:55Z</time>
      </trkpt>
      <trkpt lat="45.854535112157464" lon="6.773738823831081">
        <ele>2008.3299999999999</ele>
        <time>2014-07-17T07:50:07Z</time>
      </trkpt>
      <trkpt lat="45.854467637836933" lon="6.773679312318564">
        <ele>2009.29</ele>
        <time>2014-07-17T07:50:16Z</time>
      </trkpt>
      <trkpt lat="45.854381639510393" lon="6.773603707551956">
        <ele>2011.22</ele>
        <time>2014-07-17T07:50:30Z</time>
      </trkpt>
      <trkpt lat="45.854325983673334" lon="6.773540927097201">
        <ele>2012.1800000000001</ele>
        <time>2014-07-17T07:50:39Z</time>
      </trkpt>
      <trkpt lat="45.854240320622921" lon="6.773450989276171">
        <ele>2013.6199999999999</ele>
        <time>2014-07-17T07:50:52Z</time>
      </trkpt>
      <trkpt lat="45.854179384186864" lon="6.773384688422084">
        <ele>2015.54</ele>
        <time>2014-07-17T07:51:02Z</time>
      </trkpt>
      <trkpt lat="45.85407754406333" lon="6.773325093090534">
        <ele>2017.46</ele>
        <time>2014-07-17T07:51:16Z</time>
      </trkpt>
      <trkpt lat="45.85397151298821" lon="6.77329852245748">
        <ele>2018.9100000000001</ele>
        <time>2014-07-17T07:51:30Z</time>
      </trkpt>
      <trkpt lat="45.853878725320101" lon="6.773239094763994">
        <ele>2020.3499999999999</ele>
        <time>2014-07-17T07:51:43Z</time>
      </trkpt>
      <trkpt lat="45.853782836347818" lon="6.773178158327937">
        <ele>2022.75</ele>
        <time>2014-07-17T07:51:57Z</time>
      </trkpt>
      <trkpt lat="45.853701950982213" lon="6.773133482784033">
        <ele>2024.6700000000001</ele>
        <time>2014-07-17T07:52:10Z</time>
      </trkpt>
      <trkpt lat="45.853604050353169" lon="6.773079335689545">
        <ele>2027.0799999999999</ele>
        <time>2014-07-17T07:52:27Z</time>
      </trkpt>
      <trkpt lat="45.853504221886396" lon="6.773044299334288">
        <ele>2029.48</ele>
        <time>2014-07-17T07:52:41Z</time>
      </trkpt>
      <trkpt lat="45.853393748402596" lon="6.772997360676527">
        <ele>2031.8800000000001</ele>
        <time>2014-07-17T07:52:56Z</time>
      </trkpt>
      <trkpt lat="45.853275144472718" lon="6.772947991266847">
        <ele>2034.29</ele>
        <time>2014-07-17T07:53:13Z</time>
      </trkpt>
      <trkpt lat="45.853211106732488" lon="6.772921001538634">
        <ele>2035.73</ele>
        <time>2014-07-17T07:53:21Z</time>
      </trkpt>
      <trkpt lat="45.853165509179235" lon="6.772896023467183">
        <ele>2036.21</ele>
        <time>2014-07-17T07:53:26Z</time>
      </trkpt>
      <trkpt lat="45.853145560249686" lon="6.772899208590388">
        <ele>2036.6900000000001</ele>
        <time>2014-07-17T07:53:28Z</time>
      </trkpt>
      <trkpt lat="45.853103650733829" lon="6.772855455055833">
        <ele>2037.1700000000001</ele>
        <time>2014-07-17T07:53:33Z</time>
      </trkpt>
      <trkpt lat="45.853069452568889" lon="6.772749507799745">
        <ele>2039.0899999999999</ele>
        <time>2014-07-17T07:53:43Z</time>
      </trkpt>
      <trkpt lat="45.853033242747188" lon="6.772688152268529">
        <ele>2040.54</ele>
        <time>2014-07-17T07:53:50Z</time>
      </trkpt>
      <trkpt lat="45.852933498099446" lon="6.772609362378717">
        <ele>2042.46</ele>
        <time>2014-07-17T07:54:05Z</time>
      </trkpt>
      <trkpt lat="45.852841967716813" lon="6.772522525861859">
        <ele>2045.3399999999999</ele>
        <time>2014-07-17T07:54:20Z</time>
      </trkpt>
      <trkpt lat="45.852757059037685" lon="6.772447340190411">
        <ele>2047.75</ele>
        <time>2014-07-17T07:54:34Z</time>
      </trkpt>
      <trkpt lat="45.852743647992611" lon="6.772408867254853">
        <ele>2048.71</ele>
        <time>2014-07-17T07:54:39Z</time>
      </trkpt>
      <trkpt lat="45.852694446220994" lon="6.772299148142338">
        <ele>2050.6300000000001</ele>
        <time>2014-07-17T07:54:52Z</time>
      </trkpt>
      <trkpt lat="45.852667540311813" lon="6.772303255274892">
        <ele>2051.5900000000001</ele>
        <time>2014-07-17T07:54:57Z</time>
      </trkpt>
      <trkpt lat="45.852552875876427" lon="6.77222597412765">
        <ele>2053.5100000000002</ele>
        <time>2014-07-17T07:55:11Z</time>
      </trkpt>
      <trkpt lat="45.852443408221006" lon="6.772165289148688">
        <ele>2055.9200000000001</ele>
        <time>2014-07-17T07:55:25Z</time>
      </trkpt>
      <trkpt lat="45.852350452914834" lon="6.77211700938642">
        <ele>2057.8400000000001</ele>
        <time>2014-07-17T07:55:38Z</time>
      </trkpt>
      <trkpt lat="45.852285576984286" lon="6.772049786522985">
        <ele>2060.7199999999998</ele>
        <time>2014-07-17T07:55:51Z</time>
      </trkpt>
      <trkpt lat="45.852187843993306" lon="6.771957920864224">
        <ele>2063.1300000000001</ele>
        <time>2014-07-17T07:56:05Z</time>
      </trkpt>
      <trkpt lat="45.85211182013154" lon="6.771845770999789">
        <ele>2065.5300000000002</ele>
        <time>2014-07-17T07:56:19Z</time>
      </trkpt>
      <trkpt lat="45.852035628631711" lon="6.771785672754049">
        <ele>2068.4099999999999</ele>
        <time>2014-07-17T07:56:33Z</time>
      </trkpt>
      <trkpt lat="45.851950887590647" lon="6.77175491116941">
        <ele>2070.8200000000002</ele>
        <time>2014-07-17T07:56:46Z</time>
      </trkpt>
      <trkpt lat="45.85187578573823" lon="6.771706882864237">
        <ele>2073.6999999999998</ele>
        <time>2014-07-17T07:56:59Z</time>
      </trkpt>
      <trkpt lat="45.851791966706514" lon="6.771647036075592">
        <ele>2076.0999999999999</ele>
        <time>2014-07-17T07:57:11Z</time>
      </trkpt>
      <trkpt lat="45.851728767156601" lon="6.771558523178101">
        <ele>2079.4699999999998</ele>
        <time>2014-07-17T07:57:26Z</time>
      </trkpt>
      <trkpt lat="45.851663053035736" lon="6.771487696096301">
        <ele>2082.3499999999999</ele>
        <time>2014-07-17T07:57:41Z</time>
      </trkpt>
      <trkpt lat="45.851643439382315" lon="6.771378647536039">
        <ele>2085.2399999999998</ele>
        <time>2014-07-17T07:57:56Z</time>
      </trkpt>
      <trkpt lat="45.851562051102519" lon="6.771388202905655">
        <ele>2088.1199999999999</ele>
        <time>2014-07-17T07:58:11Z</time>
      </trkpt>
      <trkpt lat="45.851488290354609" lon="6.771306311711669">
        <ele>2091.4899999999998</ele>
        <time>2014-07-17T07:58:26Z</time>
      </trkpt>
      <trkpt lat="45.851461216807365" lon="6.771285105496645">
        <ele>2091.9699999999998</ele>
        <time>2014-07-17T07:58:30Z</time>
      </trkpt>
      <trkpt lat="45.851394748315215" lon="6.771240346133709">
        <ele>2094.3699999999999</ele>
        <time>2014-07-17T07:58:43Z</time>
      </trkpt>
      <trkpt lat="45.851382343098521" lon="6.771228108555079">
        <ele>2094.8499999999999</ele>
        <time>2014-07-17T07:58:47Z</time>
      </trkpt>
      <trkpt lat="45.851299865171313" lon="6.771124424412847">
        <ele>2096.77</ele>
        <time>2014-07-17T07:59:01Z</time>
      </trkpt>
      <trkpt lat="45.851285699754953" lon="6.771114282310009">
        <ele>2097.25</ele>
        <time>2014-07-17T07:59:03Z</time>
      </trkpt>
      <trkpt lat="45.851250160485506" lon="6.771096596494317">
        <ele>2097.73</ele>
        <time>2014-07-17T07:59:08Z</time>
      </trkpt>
      <trkpt lat="45.851162150502205" lon="6.770981512963772">
        <ele>2098.6999999999998</ele>
        <time>2014-07-17T07:59:21Z</time>
      </trkpt>
      <trkpt lat="45.851117894053459" lon="6.770859304815531">
        <ele>2101.0999999999999</ele>
        <time>2014-07-17T07:59:33Z</time>
      </trkpt>
      <trkpt lat="45.851103644818068" lon="6.770841367542744">
        <ele>2101.5799999999999</ele>
        <time>2014-07-17T07:59:35Z</time>
      </trkpt>
      <trkpt lat="45.851032063364983" lon="6.770746065303683">
        <ele>2103.5</ele>
        <time>2014-07-17T07:59:47Z</time>
      </trkpt>
      <trkpt lat="45.851015718653798" lon="6.770718405023217">
        <ele>2104.46</ele>
        <time>2014-07-17T07:59:50Z</time>
      </trkpt>
      <trkpt lat="45.850949082523584" lon="6.770573230460286">
        <ele>2106.3899999999999</ele>
        <time>2014-07-17T08:00:06Z</time>
      </trkpt>
      <trkpt lat="45.850939694792032" lon="6.770556969568133">
        <ele>2106.8699999999999</ele>
        <time>2014-07-17T08:00:08Z</time>
      </trkpt>
      <trkpt lat="45.850885128602386" lon="6.770421350374818">
        <ele>2109.27</ele>
        <time>2014-07-17T08:00:22Z</time>
      </trkpt>
      <trkpt lat="45.850830059498549" lon="6.770333256572485">
        <ele>2112.6300000000001</ele>
        <time>2014-07-17T08:00:35Z</time>
      </trkpt>
      <trkpt lat="45.850812373682857" lon="6.770322779193521">
        <ele>2112.6300000000001</ele>
        <time>2014-07-17T08:00:38Z</time>
      </trkpt>
      <trkpt lat="45.85073878057301" lon="6.770240133628249">
        <ele>2115.52</ele>
        <time>2014-07-17T08:00:52Z</time>
      </trkpt>
      <trkpt lat="45.850654877722263" lon="6.770170982927084">
        <ele>2118.4000000000001</ele>
        <time>2014-07-17T08:01:06Z</time>
      </trkpt>
      <trkpt lat="45.850566532462835" lon="6.770076770335436">
        <ele>2121.77</ele>
        <time>2014-07-17T08:01:21Z</time>
      </trkpt>
      <trkpt lat="45.850541554391384" lon="6.770049864426255">
        <ele>2122.25</ele>
        <time>2014-07-17T08:01:25Z</time>
      </trkpt>
      <trkpt lat="45.850431248545647" lon="6.769983731210232">
        <ele>2123.6900000000001</ele>
        <time>2014-07-17T08:01:40Z</time>
      </trkpt>
      <trkpt lat="45.850406270474195" lon="6.769877951592207">
        <ele>2124.1700000000001</ele>
        <time>2014-07-17T08:01:52Z</time>
      </trkpt>
      <trkpt lat="45.850412389263511" lon="6.769891865551472">
        <ele>2123.6900000000001</ele>
        <time>2014-07-17T08:02:05Z</time>
      </trkpt>
      <trkpt lat="45.850410461425781" lon="6.769866133108735">
        <ele>2124.1700000000001</ele>
        <time>2014-07-17T08:02:17Z</time>
      </trkpt>
      <trkpt lat="45.850415490567684" lon="6.769878286868334">
        <ele>2124.1700000000001</ele>
        <time>2014-07-17T08:02:18Z</time>
      </trkpt>
      <trkpt lat="45.85041624493897" lon="6.769864540547133">
        <ele>2123.6900000000001</ele>
        <time>2014-07-17T08:02:28Z</time>
      </trkpt>
      <trkpt lat="45.850413981825113" lon="6.769887674599886">
        <ele>2124.1700000000001</ele>
        <time>2014-07-17T08:02:51Z</time>
      </trkpt>
      <trkpt lat="45.850419094786048" lon="6.769889602437615">
        <ele>2123.6900000000001</ele>
        <time>2014-07-17T08:03:15Z</time>
      </trkpt>
      <trkpt lat="45.850415825843811" lon="6.769878789782524">
        <ele>2123.6900000000001</ele>
        <time>2014-07-17T08:03:46Z</time>
      </trkpt>
      <trkpt lat="45.850428566336632" lon="6.769893877208233">
        <ele>2124.1700000000001</ele>
        <time>2014-07-17T08:03:53Z</time>
      </trkpt>
      <trkpt lat="45.850432338193059" lon="6.76989764906466">
        <ele>2124.1700000000001</ele>
        <time>2014-07-17T08:04:08Z</time>
      </trkpt>
      <trkpt lat="45.850418927147985" lon="6.769898235797882">
        <ele>2124.1700000000001</ele>
        <time>2014-07-17T08:04:41Z</time>
      </trkpt>
      <trkpt lat="45.850422950461507" lon="6.769900666549802">
        <ele>2124.1700000000001</ele>
        <time>2014-07-17T08:05:17Z</time>
      </trkpt>
      <trkpt lat="45.850432338193059" lon="6.769899073988199">
        <ele>2124.6500000000001</ele>
        <time>2014-07-17T08:05:55Z</time>
      </trkpt>
      <trkpt lat="45.85041968151927" lon="6.769891697913408">
        <ele>2124.6500000000001</ele>
        <time>2014-07-17T08:06:28Z</time>
      </trkpt>
      <trkpt lat="45.85044214501977" lon="6.769880130887032">
        <ele>2125.1300000000001</ele>
        <time>2014-07-17T08:07:04Z</time>
      </trkpt>
      <trkpt lat="45.850434685125947" lon="6.769910976290703">
        <ele>2125.1300000000001</ele>
        <time>2014-07-17T08:07:38Z</time>
      </trkpt>
      <trkpt lat="45.850416915491223" lon="6.769902929663658">
        <ele>2125.1300000000001</ele>
        <time>2014-07-17T08:08:13Z</time>
      </trkpt>
      <trkpt lat="45.850425967946649" lon="6.769904773682356">
        <ele>2125.1300000000001</ele>
        <time>2014-07-17T08:08:53Z</time>
      </trkpt>
      <trkpt lat="45.850433176383376" lon="6.769907791167498">
        <ele>2125.1300000000001</ele>
        <time>2014-07-17T08:09:26Z</time>
      </trkpt>
      <trkpt lat="45.850433176383376" lon="6.7699059471488">
        <ele>2125.6100000000001</ele>
        <time>2014-07-17T08:10:05Z</time>
      </trkpt>
      <trkpt lat="45.850440720096231" lon="6.769916424527764">
        <ele>2125.6100000000001</ele>
        <time>2014-07-17T08:10:44Z</time>
      </trkpt>
      <trkpt lat="45.850430577993393" lon="6.769893374294043">
        <ele>2125.6100000000001</ele>
        <time>2014-07-17T08:11:12Z</time>
      </trkpt>
      <trkpt lat="45.850421274080873" lon="6.769893961027265">
        <ele>2125.6100000000001</ele>
        <time>2014-07-17T08:11:51Z</time>
      </trkpt>
      <trkpt lat="45.850415322929621" lon="6.769901001825929">
        <ele>2125.6100000000001</ele>
        <time>2014-07-17T08:12:20Z</time>
      </trkpt>
      <trkpt lat="45.850440133363008" lon="6.76989178173244">
        <ele>2126.0900000000001</ele>
        <time>2014-07-17T08:12:48Z</time>
      </trkpt>
      <trkpt lat="45.850445833057165" lon="6.769883316010237">
        <ele>2126.5700000000002</ele>
        <time>2014-07-17T08:13:22Z</time>
      </trkpt>
      <trkpt lat="45.850431751459837" lon="6.769886333495379">
        <ele>2126.5700000000002</ele>
        <time>2014-07-17T08:14:00Z</time>
      </trkpt>
      <trkpt lat="45.85044608451426" lon="6.769880130887032">
        <ele>2127.0500000000002</ele>
        <time>2014-07-17T08:14:40Z</time>
      </trkpt>
      <trkpt lat="45.850416328758001" lon="6.769887506961823">
        <ele>2126.0900000000001</ele>
        <time>2014-07-17T08:15:06Z</time>
      </trkpt>
      <trkpt lat="45.850430326536298" lon="6.769869737327099">
        <ele>2127.5300000000002</ele>
        <time>2014-07-17T08:15:43Z</time>
      </trkpt>
      <trkpt lat="45.850439127534628" lon="6.769885495305061">
        <ele>2127.5300000000002</ele>
        <time>2014-07-17T08:16:04Z</time>
      </trkpt>
      <trkpt lat="45.850429404526949" lon="6.769860852509737">
        <ele>2127.5300000000002</ele>
        <time>2014-07-17T08:16:24Z</time>
      </trkpt>
      <trkpt lat="45.85043041035533" lon="6.769876359030604">
        <ele>2127.5300000000002</ele>
        <time>2014-07-17T08:16:53Z</time>
      </trkpt>
      <trkpt lat="45.850431667640805" lon="6.769881136715412">
        <ele>2128.02</ele>
        <time>2014-07-17T08:17:42Z</time>
      </trkpt>
      <trkpt lat="45.850435858592391" lon="6.769875604659319">
        <ele>2128.02</ele>
        <time>2014-07-17T08:18:10Z</time>
      </trkpt>
      <trkpt lat="45.850426470860839" lon="6.769886920228601">
        <ele>2127.5300000000002</ele>
        <time>2014-07-17T08:18:53Z</time>
      </trkpt>
      <trkpt lat="45.850417334586382" lon="6.769891697913408">
        <ele>2127.5300000000002</ele>
        <time>2014-07-17T08:19:31Z</time>
      </trkpt>
      <trkpt lat="45.850446671247482" lon="6.769912485033274">
        <ele>2127.5300000000002</ele>
        <time>2014-07-17T08:20:02Z</time>
      </trkpt>
      <trkpt lat="45.850445665419102" lon="6.76990888081491">
        <ele>2128.02</ele>
        <time>2014-07-17T08:20:36Z</time>
      </trkpt>
      <trkpt lat="45.850430745631456" lon="6.769900415092707">
        <ele>2128.02</ele>
        <time>2014-07-17T08:21:10Z</time>
      </trkpt>
      <trkpt lat="45.850441306829453" lon="6.769900415092707">
        <ele>2128.02</ele>
        <time>2014-07-17T08:21:41Z</time>
      </trkpt>
      <trkpt lat="45.850424962118268" lon="6.76989714615047">
        <ele>2128.02</ele>
        <time>2014-07-17T08:22:09Z</time>
      </trkpt>
      <trkpt lat="45.850433427840471" lon="6.769888680428267">
        <ele>2127.5300000000002</ele>
        <time>2014-07-17T08:22:35Z</time>
      </trkpt>
      <trkpt lat="45.850437870249152" lon="6.769893625751138">
        <ele>2127.5300000000002</ele>
        <time>2014-07-17T08:23:09Z</time>
      </trkpt>
      <trkpt lat="45.850424710661173" lon="6.769889937713742">
        <ele>2127.5300000000002</ele>
        <time>2014-07-17T08:23:40Z</time>
      </trkpt>
      <trkpt lat="45.850419430062175" lon="6.769885662943125">
        <ele>2128.02</ele>
        <time>2014-07-17T08:24:14Z</time>
      </trkpt>
      <trkpt lat="45.850429655984044" lon="6.769892871379852">
        <ele>2127.5300000000002</ele>
        <time>2014-07-17T08:24:42Z</time>
      </trkpt>
      <trkpt lat="45.850433176383376" lon="6.769888931885362">
        <ele>2128.02</ele>
        <time>2014-07-17T08:25:13Z</time>
      </trkpt>
      <trkpt lat="45.850436110049486" lon="6.769882729277015">
        <ele>2128.02</ele>
        <time>2014-07-17T08:25:49Z</time>
      </trkpt>
      <trkpt lat="45.850435020402074" lon="6.769882310181856">
        <ele>2128.02</ele>
        <time>2014-07-17T08:26:19Z</time>
      </trkpt>
      <trkpt lat="45.850433008745313" lon="6.769883232191205">
        <ele>2128.02</ele>
        <time>2014-07-17T08:26:56Z</time>
      </trkpt>
      <trkpt lat="45.850435690954328" lon="6.769883651286364">
        <ele>2128.02</ele>
        <time>2014-07-17T08:27:27Z</time>
      </trkpt>
      <trkpt lat="45.850431835278869" lon="6.769888428971171">
        <ele>2128.02</ele>
        <time>2014-07-17T08:28:00Z</time>
      </trkpt>
      <trkpt lat="45.850429823622108" lon="6.769890775904059">
        <ele>2128.02</ele>
        <time>2014-07-17T08:28:38Z</time>
      </trkpt>
      <trkpt lat="45.850433008745313" lon="6.769900750368834">
        <ele>2128.02</ele>
        <time>2014-07-17T08:29:09Z</time>
      </trkpt>
      <trkpt lat="45.85043384693563" lon="6.769891865551472">
        <ele>2127.5300000000002</ele>
        <time>2014-07-17T08:29:36Z</time>
      </trkpt>
      <trkpt lat="45.85043485276401" lon="6.769896475598216">
        <ele>2128.5</ele>
        <time>2014-07-17T08:29:47Z</time>
      </trkpt>
      <trkpt lat="45.850430494174361" lon="6.769901337102056">
        <ele>2128.5</ele>
        <time>2014-07-17T08:30:01Z</time>
      </trkpt>
      <trkpt lat="45.850403672084212" lon="6.769906282424927">
        <ele>2128.5</ele>
        <time>2014-07-17T08:30:16Z</time>
      </trkpt>
      <trkpt lat="45.850364528596401" lon="6.769967302680016">
        <ele>2128.02</ele>
        <time>2014-07-17T08:30:26Z</time>
      </trkpt>
      <trkpt lat="45.850352374836802" lon="6.769976355135441">
        <ele>2128.5</ele>
        <time>2014-07-17T08:30:44Z</time>
      </trkpt>
      <trkpt lat="45.850364863872528" lon="6.7699836473912">
        <ele>2128.5</ele>
        <time>2014-07-17T08:30:57Z</time>
      </trkpt>
      <trkpt lat="45.850343741476536" lon="6.769963363185525">
        <ele>2128.02</ele>
        <time>2014-07-17T08:31:19Z</time>
      </trkpt>
      <trkpt lat="45.850320439785719" lon="6.769931595772505">
        <ele>2128.02</ele>
        <time>2014-07-17T08:31:43Z</time>
      </trkpt>
      <trkpt lat="45.850346172228456" lon="6.769971158355475">
        <ele>2128.02</ele>
        <time>2014-07-17T08:32:00Z</time>
      </trkpt>
      <trkpt lat="45.850339299067855" lon="6.769973002374172">
        <ele>2128.02</ele>
        <time>2014-07-17T08:32:13Z</time>
      </trkpt>
      <trkpt lat="45.850319433957338" lon="6.769988257437944">
        <ele>2128.02</ele>
        <time>2014-07-17T08:32:28Z</time>
      </trkpt>
      <trkpt lat="45.850326558575034" lon="6.769997477531433">
        <ele>2128.02</ele>
        <time>2014-07-17T08:32:46Z</time>
      </trkpt>
      <trkpt lat="45.850313566625118" lon="6.770015666261315">
        <ele>2127.5300000000002</ele>
        <time>2014-07-17T08:32:53Z</time>
      </trkpt>
      <trkpt lat="45.850261179730296" lon="6.770073417574167">
        <ele>2127.0500000000002</ele>
        <time>2014-07-17T08:32:59Z</time>
      </trkpt>
      <trkpt lat="45.85019102320075" lon="6.7702133115381">
        <ele>2123.6900000000001</ele>
        <time>2014-07-17T08:33:11Z</time>
      </trkpt>
      <trkpt lat="45.85014115087688" lon="6.770241977646947">
        <ele>2121.29</ele>
        <time>2014-07-17T08:33:21Z</time>
      </trkpt>
      <trkpt lat="45.850105527788401" lon="6.770083056762815">
        <ele>2117.9200000000001</ele>
        <time>2014-07-17T08:33:34Z</time>
      </trkpt>
      <trkpt lat="45.850076694041491" lon="6.770089762285352">
        <ele>2116.48</ele>
        <time>2014-07-17T08:33:41Z</time>
      </trkpt>
      <trkpt lat="45.850062863901258" lon="6.770174000412226">
        <ele>2115.04</ele>
        <time>2014-07-17T08:33:47Z</time>
      </trkpt>
      <trkpt lat="45.850003520026803" lon="6.770131504163146">
        <ele>2112.1500000000001</ele>
        <time>2014-07-17T08:34:00Z</time>
      </trkpt>
      <trkpt lat="45.849956916645169" lon="6.769992364570499">
        <ele>2109.75</ele>
        <time>2014-07-17T08:34:14Z</time>
      </trkpt>
      <trkpt lat="45.849953815340996" lon="6.769966967403889">
        <ele>2108.3099999999999</ele>
        <time>2014-07-17T08:34:16Z</time>
      </trkpt>
      <trkpt lat="45.849973261356354" lon="6.769849788397551">
        <ele>2105.4200000000001</ele>
        <time>2014-07-17T08:34:31Z</time>
      </trkpt>
      <trkpt lat="45.849976949393749" lon="6.769839394837618">
        <ele>2104.9400000000001</ele>
        <time>2014-07-17T08:34:32Z</time>
      </trkpt>
      <trkpt lat="45.850019110366702" lon="6.769786002114415">
        <ele>2104.46</ele>
        <time>2014-07-17T08:34:37Z</time>
      </trkpt>
      <trkpt lat="45.85006688721478" lon="6.769646443426609">
        <ele>2103.5</ele>
        <time>2014-07-17T08:34:48Z</time>
      </trkpt>
      <trkpt lat="45.850073173642159" lon="6.769589530304074">
        <ele>2102.54</ele>
        <time>2014-07-17T08:34:52Z</time>
      </trkpt>
      <trkpt lat="45.850072586908937" lon="6.769480314105749">
        <ele>2099.1799999999998</ele>
        <time>2014-07-17T08:35:04Z</time>
      </trkpt>
      <trkpt lat="45.850058924406767" lon="6.76948232576251">
        <ele>2098.21</ele>
        <time>2014-07-17T08:35:06Z</time>
      </trkpt>
      <trkpt lat="45.850030761212111" lon="6.7695243190974">
        <ele>2097.73</ele>
        <time>2014-07-17T08:35:10Z</time>
      </trkpt>
      <trkpt lat="45.849959347397089" lon="6.769604785367847">
        <ele>2094.8499999999999</ele>
        <time>2014-07-17T08:35:19Z</time>
      </trkpt>
      <trkpt lat="45.84986312314868" lon="6.76962842233479">
        <ele>2091.4899999999998</ele>
        <time>2014-07-17T08:35:31Z</time>
      </trkpt>
      <trkpt lat="45.849785758182406" lon="6.76968751475215">
        <ele>2088.1199999999999</ele>
        <time>2014-07-17T08:35:42Z</time>
      </trkpt>
      <trkpt lat="45.849713506177068" lon="6.769719868898392">
        <ele>2086.1999999999998</ele>
        <time>2014-07-17T08:35:50Z</time>
      </trkpt>
      <trkpt lat="45.849678721278906" lon="6.769563462585211">
        <ele>2082.8299999999999</ele>
        <time>2014-07-17T08:36:03Z</time>
      </trkpt>
      <trkpt lat="45.849652150645852" lon="6.769440583884716">
        <ele>2079.4699999999998</ele>
        <time>2014-07-17T08:36:15Z</time>
      </trkpt>
      <trkpt lat="45.849619461223483" lon="6.769348969683051">
        <ele>2076.5900000000001</ele>
        <time>2014-07-17T08:36:29Z</time>
      </trkpt>
      <trkpt lat="45.849617701023817" lon="6.769375707954168">
        <ele>2076.0999999999999</ele>
        <time>2014-07-17T08:36:31Z</time>
      </trkpt>
      <trkpt lat="45.849551483988762" lon="6.769458185881376">
        <ele>2072.7399999999998</ele>
        <time>2014-07-17T08:36:43Z</time>
      </trkpt>
      <trkpt lat="45.849461881443858" lon="6.76954192109406">
        <ele>2069.8600000000001</ele>
        <time>2014-07-17T08:36:55Z</time>
      </trkpt>
      <trkpt lat="45.849410248920321" lon="6.769452150911093">
        <ele>2067.9299999999998</ele>
        <time>2014-07-17T08:37:05Z</time>
      </trkpt>
      <trkpt lat="45.849399520084262" lon="6.76940361969173">
        <ele>2066.4899999999998</ele>
        <time>2014-07-17T08:37:10Z</time>
      </trkpt>
      <trkpt lat="45.849381750449538" lon="6.769291134551168">
        <ele>2062.6500000000001</ele>
        <time>2014-07-17T08:37:22Z</time>
      </trkpt>
      <trkpt lat="45.849350905045867" lon="6.769236065447331">
        <ele>2059.7600000000002</ele>
        <time>2014-07-17T08:37:34Z</time>
      </trkpt>
      <trkpt lat="45.849317796528339" lon="6.769273029640317">
        <ele>2058.3200000000002</ele>
        <time>2014-07-17T08:37:40Z</time>
      </trkpt>
      <trkpt lat="45.849308827891946" lon="6.769173536449671">
        <ele>2055.9200000000001</ele>
        <time>2014-07-17T08:37:52Z</time>
      </trkpt>
      <trkpt lat="45.849297679960728" lon="6.76918862387538">
        <ele>2055.4400000000001</ele>
        <time>2014-07-17T08:37:54Z</time>
      </trkpt>
      <trkpt lat="45.849244957789779" lon="6.7691754642874">
        <ele>2053.0300000000002</ele>
        <time>2014-07-17T08:38:04Z</time>
      </trkpt>
      <trkpt lat="45.849226349964738" lon="6.769109079614282">
        <ele>2051.5900000000001</ele>
        <time>2014-07-17T08:38:09Z</time>
      </trkpt>
      <trkpt lat="45.849189721047878" lon="6.769081335514784">
        <ele>2048.71</ele>
        <time>2014-07-17T08:38:22Z</time>
      </trkpt>
      <trkpt lat="45.84913607686758" lon="6.769117042422295">
        <ele>2046.3</ele>
        <time>2014-07-17T08:38:35Z</time>
      </trkpt>
      <trkpt lat="45.849085785448551" lon="6.769121149554849">
        <ele>2043.4200000000001</ele>
        <time>2014-07-17T08:38:45Z</time>
      </trkpt>
      <trkpt lat="45.849040187895298" lon="6.769067170098424">
        <ele>2041.5</ele>
        <time>2014-07-17T08:38:52Z</time>
      </trkpt>
      <trkpt lat="45.849070446565747" lon="6.768937669694424">
        <ele>2038.6099999999999</ele>
        <time>2014-07-17T08:39:05Z</time>
      </trkpt>
      <trkpt lat="45.849044127389789" lon="6.768936077132821">
        <ele>2037.6500000000001</ele>
        <time>2014-07-17T08:39:08Z</time>
      </trkpt>
      <trkpt lat="45.848947567865252" lon="6.769057279452682">
        <ele>2034.29</ele>
        <time>2014-07-17T08:39:23Z</time>
      </trkpt>
      <trkpt lat="45.848904317244887" lon="6.76916423253715">
        <ele>2031.8800000000001</ele>
        <time>2014-07-17T08:39:35Z</time>
      </trkpt>
      <trkpt lat="45.848869951441884" lon="6.769053675234318">
        <ele>2029</ele>
        <time>2014-07-17T08:39:45Z</time>
      </trkpt>
      <trkpt lat="45.848850756883621" lon="6.768955606967211">
        <ele>2027.0799999999999</ele>
        <time>2014-07-17T08:39:54Z</time>
      </trkpt>
      <trkpt lat="45.848843799903989" lon="6.768873045220971">
        <ele>2025.6400000000001</ele>
        <time>2014-07-17T08:40:00Z</time>
      </trkpt>
      <trkpt lat="45.848829131573439" lon="6.768805822357535">
        <ele>2023.23</ele>
        <time>2014-07-17T08:40:11Z</time>
      </trkpt>
      <trkpt lat="45.84877154789865" lon="6.768857790157199">
        <ele>2020.8299999999999</ele>
        <time>2014-07-17T08:40:20Z</time>
      </trkpt>
      <trkpt lat="45.848746821284294" lon="6.768723092973232">
        <ele>2017.9400000000001</ele>
        <time>2014-07-17T08:40:31Z</time>
      </trkpt>
      <trkpt lat="45.848769703879952" lon="6.768588898703456">
        <ele>2014.5799999999999</ele>
        <time>2014-07-17T08:40:42Z</time>
      </trkpt>
      <trkpt lat="45.848737685009837" lon="6.768516059964895">
        <ele>2011.22</ele>
        <time>2014-07-17T08:40:52Z</time>
      </trkpt>
      <trkpt lat="45.848702816292644" lon="6.768431402742863">
        <ele>2007.8499999999999</ele>
        <time>2014-07-17T08:41:02Z</time>
      </trkpt>
      <trkpt lat="45.848698709160089" lon="6.76841807551682">
        <ele>2007.3699999999999</ele>
        <time>2014-07-17T08:41:03Z</time>
      </trkpt>
      <trkpt lat="45.84864841774106" lon="6.768344063311815">
        <ele>2003.52</ele>
        <time>2014-07-17T08:41:13Z</time>
      </trkpt>
      <trkpt lat="45.848601311445236" lon="6.768229315057397">
        <ele>2000.6400000000001</ele>
        <time>2014-07-17T08:41:21Z</time>
      </trkpt>
      <trkpt lat="45.848580189049244" lon="6.768096797168255">
        <ele>1997.76</ele>
        <time>2014-07-17T08:41:31Z</time>
      </trkpt>
      <trkpt lat="45.848480444401503" lon="6.76794558763504">
        <ele>1994.3900000000001</ele>
        <time>2014-07-17T08:41:47Z</time>
      </trkpt>
      <trkpt lat="45.848460411652923" lon="6.767920358106494">
        <ele>1992.95</ele>
        <time>2014-07-17T08:41:50Z</time>
      </trkpt>
      <trkpt lat="45.848495867103338" lon="6.767811393365264">
        <ele>1990.0699999999999</ele>
        <time>2014-07-17T08:42:00Z</time>
      </trkpt>
      <trkpt lat="45.848460914567113" lon="6.767702177166939">
        <ele>1987.6600000000001</ele>
        <time>2014-07-17T08:42:09Z</time>
      </trkpt>
      <trkpt lat="45.848405929282308" lon="6.767638558521867">
        <ele>1983.8199999999999</ele>
        <time>2014-07-17T08:42:19Z</time>
      </trkpt>
      <trkpt lat="45.848363768309355" lon="6.767597990110517">
        <ele>1980.45</ele>
        <time>2014-07-17T08:42:31Z</time>
      </trkpt>
      <trkpt lat="45.848329905420542" lon="6.767683401703835">
        <ele>1977.0899999999999</ele>
        <time>2014-07-17T08:42:44Z</time>
      </trkpt>
      <trkpt lat="45.848327139392495" lon="6.76769052632153">
        <ele>1976.6099999999999</ele>
        <time>2014-07-17T08:42:45Z</time>
      </trkpt>
      <trkpt lat="45.848273411393166" lon="6.76775892265141">
        <ele>1973.24</ele>
        <time>2014-07-17T08:42:55Z</time>
      </trkpt>
      <trkpt lat="45.848209876567125" lon="6.767826145514846">
        <ele>1970.3599999999999</ele>
        <time>2014-07-17T08:43:05Z</time>
      </trkpt>
      <trkpt lat="45.848207864910364" lon="6.767967715859413">
        <ele>1966.99</ele>
        <time>2014-07-17T08:43:17Z</time>
      </trkpt>
      <trkpt lat="45.848159668967128" lon="6.768078356981278">
        <ele>1964.1099999999999</ele>
        <time>2014-07-17T08:43:29Z</time>
      </trkpt>
      <trkpt lat="45.848081801086664" lon="6.768145496025682">
        <ele>1960.75</ele>
        <time>2014-07-17T08:43:41Z</time>
      </trkpt>
      <trkpt lat="45.847918270155787" lon="6.768245073035359">
        <ele>1957.8599999999999</ele>
        <time>2014-07-17T08:43:58Z</time>
      </trkpt>
      <trkpt lat="45.847860854119062" lon="6.768287988379598">
        <ele>1955.9400000000001</ele>
        <time>2014-07-17T08:44:05Z</time>
      </trkpt>
      <trkpt lat="45.847766641527414" lon="6.768397456035018">
        <ele>1954.02</ele>
        <time>2014-07-17T08:44:19Z</time>
      </trkpt>
      <trkpt lat="45.847679134458303" lon="6.768416566774249">
        <ele>1951.1300000000001</ele>
        <time>2014-07-17T08:44:31Z</time>
      </trkpt>
      <trkpt lat="45.847644349560142" lon="6.768359821289778">
        <ele>1948.25</ele>
        <time>2014-07-17T08:44:42Z</time>
      </trkpt>
      <trkpt lat="45.847657257691026" lon="6.768287485465407">
        <ele>1946.3299999999999</ele>
        <time>2014-07-17T08:44:53Z</time>
      </trkpt>
      <trkpt lat="45.847645439207554" lon="6.768219172954559">
        <ele>1944.4000000000001</ele>
        <time>2014-07-17T08:45:03Z</time>
      </trkpt>
      <trkpt lat="45.847639571875334" lon="6.768137952312827">
        <ele>1942</ele>
        <time>2014-07-17T08:45:13Z</time>
      </trkpt>
      <trkpt lat="45.847640410065651" lon="6.768115237355232">
        <ele>1941.04</ele>
        <time>2014-07-17T08:45:15Z</time>
      </trkpt>
      <trkpt lat="45.847639571875334" lon="6.768086403608322">
        <ele>1940.5599999999999</ele>
        <time>2014-07-17T08:45:17Z</time>
      </trkpt>
      <trkpt lat="45.847650803625584" lon="6.768012391403318">
        <ele>1939.1199999999999</ele>
        <time>2014-07-17T08:45:24Z</time>
      </trkpt>
      <trkpt lat="45.847640493884683" lon="6.767919855192304">
        <ele>1937.1900000000001</ele>
        <time>2014-07-17T08:45:34Z</time>
      </trkpt>
      <trkpt lat="45.847652899101377" lon="6.767857745289803">
        <ele>1935.27</ele>
        <time>2014-07-17T08:45:43Z</time>
      </trkpt>
      <trkpt lat="45.847642840817571" lon="6.767834275960922">
        <ele>1934.79</ele>
        <time>2014-07-17T08:45:45Z</time>
      </trkpt>
      <trkpt lat="45.847630351781845" lon="6.767711732536554">
        <ele>1932.3900000000001</ele>
        <time>2014-07-17T08:45:55Z</time>
      </trkpt>
      <trkpt lat="45.847578635439277" lon="6.767603605985642">
        <ele>1929.5</ele>
        <time>2014-07-17T08:46:07Z</time>
      </trkpt>
      <trkpt lat="45.847557010129094" lon="6.767559936270118">
        <ele>1927.5799999999999</ele>
        <time>2014-07-17T08:46:13Z</time>
      </trkpt>
      <trkpt lat="45.847518285736442" lon="6.76748282276094">
        <ele>1924.22</ele>
        <time>2014-07-17T08:46:24Z</time>
      </trkpt>
      <trkpt lat="45.847500348463655" lon="6.767459018155932">
        <ele>1922.77</ele>
        <time>2014-07-17T08:46:29Z</time>
      </trkpt>
      <trkpt lat="45.847474280744791" lon="6.767338570207357">
        <ele>1919.4100000000001</ele>
        <time>2014-07-17T08:46:40Z</time>
      </trkpt>
      <trkpt lat="45.847423821687698" lon="6.76722876727581">
        <ele>1916.04</ele>
        <time>2014-07-17T08:46:52Z</time>
      </trkpt>
      <trkpt lat="45.847413260489702" lon="6.76726346835494">
        <ele>1915.0799999999999</ele>
        <time>2014-07-17T08:46:57Z</time>
      </trkpt>
      <trkpt lat="45.847415020689368" lon="6.767325829714537">
        <ele>1914.1199999999999</ele>
        <time>2014-07-17T08:47:02Z</time>
      </trkpt>
      <trkpt lat="45.847336649894714" lon="6.767440745607019">
        <ele>1910.76</ele>
        <time>2014-07-17T08:47:14Z</time>
      </trkpt>
      <trkpt lat="45.847239252179861" lon="6.767574939876795">
        <ele>1907.3900000000001</ele>
        <time>2014-07-17T08:47:28Z</time>
      </trkpt>
      <trkpt lat="45.847169095650315" lon="6.767584579065442">
        <ele>1904.51</ele>
        <time>2014-07-17T08:47:39Z</time>
      </trkpt>
      <trkpt lat="45.84715467877686" lon="6.767499167472124">
        <ele>1902.5899999999999</ele>
        <time>2014-07-17T08:47:48Z</time>
      </trkpt>
      <trkpt lat="45.847143614664674" lon="6.767370002344251">
        <ele>1899.22</ele>
        <time>2014-07-17T08:48:01Z</time>
      </trkpt>
      <trkpt lat="45.847124084830284" lon="6.767357597127557">
        <ele>1898.74</ele>
        <time>2014-07-17T08:48:14Z</time>
      </trkpt>
      <trkpt lat="45.847125425934792" lon="6.767336642369628">
        <ele>1898.26</ele>
        <time>2014-07-17T08:48:47Z</time>
      </trkpt>
      <trkpt lat="45.847101118415594" lon="6.76732499152422">
        <ele>1896.8199999999999</ele>
        <time>2014-07-17T08:49:00Z</time>
      </trkpt>
      <trkpt lat="45.847108578309417" lon="6.76724880002439">
        <ele>1893.9300000000001</ele>
        <time>2014-07-17T08:49:12Z</time>
      </trkpt>
      <trkpt lat="45.847102124243975" lon="6.767280148342252">
        <ele>1894.4200000000001</ele>
        <time>2014-07-17T08:49:26Z</time>
      </trkpt>
      <trkpt lat="45.847084270790219" lon="6.767173698171973">
        <ele>1892.01</ele>
        <time>2014-07-17T08:49:36Z</time>
      </trkpt>
      <trkpt lat="45.847041103988886" lon="6.767087783664465">
        <ele>1888.6500000000001</ele>
        <time>2014-07-17T08:49:46Z</time>
      </trkpt>
      <trkpt lat="45.847026603296399" lon="6.767043275758624">
        <ele>1887.6900000000001</ele>
        <time>2014-07-17T08:49:49Z</time>
      </trkpt>
      <trkpt lat="45.846993578597903" lon="6.766957025974989">
        <ele>1885.28</ele>
        <time>2014-07-17T08:49:58Z</time>
      </trkpt>
      <trkpt lat="45.846940856426954" lon="6.766825430095196">
        <ele>1883.8399999999999</ele>
        <time>2014-07-17T08:50:12Z</time>
      </trkpt>
      <trkpt lat="45.846904646605253" lon="6.766803385689855">
        <ele>1881.4400000000001</ele>
        <time>2014-07-17T08:50:25Z</time>
      </trkpt>
      <trkpt lat="45.846892492845654" lon="6.766820820048451">
        <ele>1880.48</ele>
        <time>2014-07-17T08:50:30Z</time>
      </trkpt>
      <trkpt lat="45.846885954961181" lon="6.766980160027742">
        <ele>1877.5899999999999</ele>
        <time>2014-07-17T08:50:42Z</time>
      </trkpt>
      <trkpt lat="45.84678185172379" lon="6.767069092020392">
        <ele>1875.1900000000001</ele>
        <time>2014-07-17T08:50:57Z</time>
      </trkpt>
      <trkpt lat="45.846702894195914" lon="6.767064230516553">
        <ele>1872.3</ele>
        <time>2014-07-17T08:51:11Z</time>
      </trkpt>
      <trkpt lat="45.846621003001928" lon="6.767069008201361">
        <ele>1869.4200000000001</ele>
        <time>2014-07-17T08:51:24Z</time>
      </trkpt>
      <trkpt lat="45.84654925391078" lon="6.767105218023062">
        <ele>1867.02</ele>
        <time>2014-07-17T08:51:34Z</time>
      </trkpt>
      <trkpt lat="45.846515726298094" lon="6.76700446754694">
        <ele>1863.6500000000001</ele>
        <time>2014-07-17T08:51:48Z</time>
      </trkpt>
      <trkpt lat="45.846506590023637" lon="6.766918553039432">
        <ele>1860.77</ele>
        <time>2014-07-17T08:51:59Z</time>
      </trkpt>
      <trkpt lat="45.846473146229982" lon="6.766843870282173">
        <ele>1858.3699999999999</ele>
        <time>2014-07-17T08:52:10Z</time>
      </trkpt>
      <trkpt lat="45.846412796527147" lon="6.766868932172656">
        <ele>1855.48</ele>
        <time>2014-07-17T08:52:21Z</time>
      </trkpt>
      <trkpt lat="45.846334090456367" lon="6.766911176964641">
        <ele>1852.5999999999999</ele>
        <time>2014-07-17T08:52:32Z</time>
      </trkpt>
      <trkpt lat="45.846229568123817" lon="6.766964988783002">
        <ele>1849.23</ele>
        <time>2014-07-17T08:52:45Z</time>
      </trkpt>
      <trkpt lat="45.846130158752203" lon="6.766957864165306">
        <ele>1846.3499999999999</ele>
        <time>2014-07-17T08:52:59Z</time>
      </trkpt>
      <trkpt lat="45.846098894253373" lon="6.766867591068149">
        <ele>1843.47</ele>
        <time>2014-07-17T08:53:11Z</time>
      </trkpt>
      <trkpt lat="45.84610559977591" lon="6.766840098425746">
        <ele>1842.02</ele>
        <time>2014-07-17T08:53:16Z</time>
      </trkpt>
      <trkpt lat="45.846093529835343" lon="6.766703724861145">
        <ele>1838.6600000000001</ele>
        <time>2014-07-17T08:53:28Z</time>
      </trkpt>
      <trkpt lat="45.846081124618649" lon="6.766631808131933">
        <ele>1837.22</ele>
        <time>2014-07-17T08:53:35Z</time>
      </trkpt>
      <trkpt lat="45.846060756593943" lon="6.766516054049134">
        <ele>1834.3299999999999</ele>
        <time>2014-07-17T08:53:46Z</time>
      </trkpt>
      <trkpt lat="45.846013985574245" lon="6.7664850410074">
        <ele>1832.4100000000001</ele>
        <time>2014-07-17T08:53:58Z</time>
      </trkpt>
      <trkpt lat="45.845966376364231" lon="6.76649484783411">
        <ele>1830.49</ele>
        <time>2014-07-17T08:54:08Z</time>
      </trkpt>
      <trkpt lat="45.845939051359892" lon="6.766401054337621">
        <ele>1828.0799999999999</ele>
        <time>2014-07-17T08:54:18Z</time>
      </trkpt>
      <trkpt lat="45.845875013619661" lon="6.76633601076901">
        <ele>1824.72</ele>
        <time>2014-07-17T08:54:30Z</time>
      </trkpt>
      <trkpt lat="45.845844252035022" lon="6.766344560310245">
        <ele>1823.76</ele>
        <time>2014-07-17T08:54:34Z</time>
      </trkpt>
      <trkpt lat="45.845767892897129" lon="6.766315391287208">
        <ele>1820.8699999999999</ele>
        <time>2014-07-17T08:54:47Z</time>
      </trkpt>
      <trkpt lat="45.845717685297132" lon="6.766274403780699">
        <ele>1817.99</ele>
        <time>2014-07-17T08:54:59Z</time>
      </trkpt>
      <trkpt lat="45.845689186826348" lon="6.766204666346312">
        <ele>1816.0699999999999</ele>
        <time>2014-07-17T08:55:09Z</time>
      </trkpt>
      <trkpt lat="45.845621293410659" lon="6.766195949167013">
        <ele>1812.7</ele>
        <time>2014-07-17T08:55:20Z</time>
      </trkpt>
      <trkpt lat="45.84555733948946" lon="6.766127301380038">
        <ele>1810.3</ele>
        <time>2014-07-17T08:55:32Z</time>
      </trkpt>
      <trkpt lat="45.845534205436707" lon="6.766103329136968">
        <ele>1808.3800000000001</ele>
        <time>2014-07-17T08:55:40Z</time>
      </trkpt>
      <trkpt lat="45.845442423596978" lon="6.766088996082544">
        <ele>1805.01</ele>
        <time>2014-07-17T08:55:53Z</time>
      </trkpt>
      <trkpt lat="45.845393305644393" lon="6.766022024676204">
        <ele>1802.1300000000001</ele>
        <time>2014-07-17T08:56:04Z</time>
      </trkpt>
      <trkpt lat="45.845334716141224" lon="6.765985563397408">
        <ele>1799.24</ele>
        <time>2014-07-17T08:56:15Z</time>
      </trkpt>
      <trkpt lat="45.845288364216685" lon="6.765954717993736">
        <ele>1797.3199999999999</ele>
        <time>2014-07-17T08:56:22Z</time>
      </trkpt>
      <trkpt lat="45.845248298719525" lon="6.765902247279882">
        <ele>1794.4400000000001</ele>
        <time>2014-07-17T08:56:34Z</time>
      </trkpt>
      <trkpt lat="45.845231115818024" lon="6.765810968354344">
        <ele>1792.03</ele>
        <time>2014-07-17T08:56:44Z</time>
      </trkpt>
      <trkpt lat="45.845189038664103" lon="6.765796635299921">
        <ele>1789.1500000000001</ele>
        <time>2014-07-17T08:56:57Z</time>
      </trkpt>
      <trkpt lat="45.845110835507512" lon="6.765711223706603">
        <ele>1785.3099999999999</ele>
        <time>2014-07-17T08:57:10Z</time>
      </trkpt>
      <trkpt lat="45.845118127763271" lon="6.765643078833818">
        <ele>1783.8599999999999</ele>
        <time>2014-07-17T08:57:16Z</time>
      </trkpt>
      <trkpt lat="45.845074038952589" lon="6.765612149611116">
        <ele>1781.9400000000001</ele>
        <time>2014-07-17T08:57:24Z</time>
      </trkpt>
      <trkpt lat="45.845040176063776" lon="6.765625225380063">
        <ele>1780.98</ele>
        <time>2014-07-17T08:57:28Z</time>
      </trkpt>
      <trkpt lat="45.845018634572625" lon="6.765496646985412">
        <ele>1777.6099999999999</ele>
        <time>2014-07-17T08:57:40Z</time>
      </trkpt>
      <trkpt lat="45.844982843846083" lon="6.765444427728653">
        <ele>1774.73</ele>
        <time>2014-07-17T08:57:50Z</time>
      </trkpt>
      <trkpt lat="45.844957446679473" lon="6.765353064984083">
        <ele>1771.8499999999999</ele>
        <time>2014-07-17T08:58:01Z</time>
      </trkpt>
      <trkpt lat="45.844931462779641" lon="6.765283495187759">
        <ele>1770.4100000000001</ele>
        <time>2014-07-17T08:58:08Z</time>
      </trkpt>
      <trkpt lat="45.844919309020042" lon="6.765226079151034">
        <ele>1768.96</ele>
        <time>2014-07-17T08:58:12Z</time>
      </trkpt>
      <trkpt lat="45.84490405395627" lon="6.765183918178082">
        <ele>1767.04</ele>
        <time>2014-07-17T08:58:25Z</time>
      </trkpt>
      <trkpt lat="45.844877399504185" lon="6.765140080824494">
        <ele>1766.0799999999999</ele>
        <time>2014-07-17T08:58:37Z</time>
      </trkpt>
      <trkpt lat="45.84482878446579" lon="6.765033965930343">
        <ele>1763.2</ele>
        <time>2014-07-17T08:58:49Z</time>
      </trkpt>
      <trkpt lat="45.844759633764625" lon="6.765046706423163">
        <ele>1760.3099999999999</ele>
        <time>2014-07-17T08:59:00Z</time>
      </trkpt>
      <trkpt lat="45.844743875786662" lon="6.765050226822496">
        <ele>1759.8299999999999</ele>
        <time>2014-07-17T08:59:02Z</time>
      </trkpt>
      <trkpt lat="45.844674138352275" lon="6.764977723360062">
        <ele>1755.99</ele>
        <time>2014-07-17T08:59:14Z</time>
      </trkpt>
      <trkpt lat="45.844618650153279" lon="6.764965150505304">
        <ele>1753.0999999999999</ele>
        <time>2014-07-17T08:59:27Z</time>
      </trkpt>
      <trkpt lat="45.84455318748951" lon="6.764892982318997">
        <ele>1749.74</ele>
        <time>2014-07-17T08:59:37Z</time>
      </trkpt>
      <trkpt lat="45.84449015557766" lon="6.764860795810819">
        <ele>1747.3299999999999</ele>
        <time>2014-07-17T08:59:45Z</time>
      </trkpt>
      <trkpt lat="45.844422597438097" lon="6.764843612909317">
        <ele>1743.97</ele>
        <time>2014-07-17T08:59:56Z</time>
      </trkpt>
      <trkpt lat="45.844358894973993" lon="6.764785861596465">
        <ele>1741.5699999999999</ele>
        <time>2014-07-17T09:00:10Z</time>
      </trkpt>
      <trkpt lat="45.844291839748621" lon="6.76478561013937">
        <ele>1738.2</ele>
        <time>2014-07-17T09:00:20Z</time>
      </trkpt>
      <trkpt lat="45.844218079000711" lon="6.764695756137371">
        <ele>1734.8399999999999</ele>
        <time>2014-07-17T09:00:32Z</time>
      </trkpt>
      <trkpt lat="45.844153705984354" lon="6.76462777890265">
        <ele>1731.95</ele>
        <time>2014-07-17T09:00:43Z</time>
      </trkpt>
      <trkpt lat="45.844110455363989" lon="6.764615876600146">
        <ele>1730.03</ele>
        <time>2014-07-17T09:00:56Z</time>
      </trkpt>
      <trkpt lat="45.844043651595712" lon="6.764595927670598">
        <ele>1728.1099999999999</ele>
        <time>2014-07-17T09:01:04Z</time>
      </trkpt>
      <trkpt lat="45.844018422067165" lon="6.764560220763087">
        <ele>1726.6700000000001</ele>
        <time>2014-07-17T09:01:07Z</time>
      </trkpt>
      <trkpt lat="45.843968968838453" lon="6.764557035639882">
        <ele>1723.78</ele>
        <time>2014-07-17T09:01:18Z</time>
      </trkpt>
      <trkpt lat="45.843921694904566" lon="6.764557873830199">
        <ele>1722.3399999999999</ele>
        <time>2014-07-17T09:01:27Z</time>
      </trkpt>
      <trkpt lat="45.843929825350642" lon="6.764702377840877">
        <ele>1720.9000000000001</ele>
        <time>2014-07-17T09:01:36Z</time>
      </trkpt>
      <trkpt lat="45.843826895579696" lon="6.764722829684615">
        <ele>1719.46</ele>
        <time>2014-07-17T09:01:47Z</time>
      </trkpt>
      <trkpt lat="45.843769228085876" lon="6.764742024242878">
        <ele>1717.05</ele>
        <time>2014-07-17T09:01:58Z</time>
      </trkpt>
      <trkpt lat="45.843750452622771" lon="6.764743449166417">
        <ele>1716.5699999999999</ele>
        <time>2014-07-17T09:02:02Z</time>
      </trkpt>
      <trkpt lat="45.843682391569018" lon="6.764659211039543">
        <ele>1712.73</ele>
        <time>2014-07-17T09:02:15Z</time>
      </trkpt>
      <trkpt lat="45.843658335506916" lon="6.764567848294973">
        <ele>1710.8</ele>
        <time>2014-07-17T09:02:27Z</time>
      </trkpt>
      <trkpt lat="45.843601506203413" lon="6.764485202729702">
        <ele>1707.4400000000001</ele>
        <time>2014-07-17T09:02:38Z</time>
      </trkpt>
      <trkpt lat="45.843513328582048" lon="6.764465756714344">
        <ele>1704.55</ele>
        <time>2014-07-17T09:02:51Z</time>
      </trkpt>
      <trkpt lat="45.843503186479211" lon="6.764461230486631">
        <ele>1704.0699999999999</ele>
        <time>2014-07-17T09:02:52Z</time>
      </trkpt>
      <trkpt lat="45.843428168445826" lon="6.764383362606168">
        <ele>1700.23</ele>
        <time>2014-07-17T09:03:05Z</time>
      </trkpt>
      <trkpt lat="45.843360191211104" lon="6.764337094500661">
        <ele>1697.3399999999999</ele>
        <time>2014-07-17T09:03:18Z</time>
      </trkpt>
      <trkpt lat="45.843342086300254" lon="6.764330724254251">
        <ele>1696.8599999999999</ele>
        <time>2014-07-17T09:03:21Z</time>
      </trkpt>
      <trkpt lat="45.843258770182729" lon="6.764225699007511">
        <ele>1693.5</ele>
        <time>2014-07-17T09:03:33Z</time>
      </trkpt>
      <trkpt lat="45.843165898695588" lon="6.764138778671622">
        <ele>1690.1400000000001</ele>
        <time>2014-07-17T09:03:47Z</time>
      </trkpt>
      <trkpt lat="45.843143099918962" lon="6.764064515009522">
        <ele>1688.21</ele>
        <time>2014-07-17T09:03:55Z</time>
      </trkpt>
      <trkpt lat="45.843113511800766" lon="6.764020090922713">
        <ele>1686.77</ele>
        <time>2014-07-17T09:04:01Z</time>
      </trkpt>
      <trkpt lat="45.843025920912623" lon="6.763954879716039">
        <ele>1683.4100000000001</ele>
        <time>2014-07-17T09:04:14Z</time>
      </trkpt>
      <trkpt lat="45.842979736626148" lon="6.76391389220953">
        <ele>1681.96</ele>
        <time>2014-07-17T09:04:21Z</time>
      </trkpt>
      <trkpt lat="45.842931708320975" lon="6.7638791911304">
        <ele>1679.5599999999999</ele>
        <time>2014-07-17T09:04:35Z</time>
      </trkpt>
      <trkpt lat="45.842837411910295" lon="6.763810459524393">
        <ele>1676.6800000000001</ele>
        <time>2014-07-17T09:04:49Z</time>
      </trkpt>
      <trkpt lat="45.842756107449532" lon="6.763774082064629">
        <ele>1673.3099999999999</ele>
        <time>2014-07-17T09:05:02Z</time>
      </trkpt>
      <trkpt lat="45.84266658872366" lon="6.763724461197853">
        <ele>1670.4300000000001</ele>
        <time>2014-07-17T09:05:14Z</time>
      </trkpt>
      <trkpt lat="45.842573130503297" lon="6.763634188100696">
        <ele>1667.0599999999999</ele>
        <time>2014-07-17T09:05:27Z</time>
      </trkpt>
      <trkpt lat="45.842510852962732" lon="6.763562690466642">
        <ele>1664.1800000000001</ele>
        <time>2014-07-17T09:05:42Z</time>
      </trkpt>
      <trkpt lat="45.842420663684607" lon="6.763481637462974">
        <ele>1660.8099999999999</ele>
        <time>2014-07-17T09:05:55Z</time>
      </trkpt>
      <trkpt lat="45.842360397800803" lon="6.763449031859636">
        <ele>1659.3699999999999</ele>
        <time>2014-07-17T09:06:02Z</time>
      </trkpt>
      <trkpt lat="45.842223521322012" lon="6.763386251404882">
        <ele>1656.49</ele>
        <time>2014-07-17T09:06:18Z</time>
      </trkpt>
      <trkpt lat="45.842142635956407" lon="6.76334023475647">
        <ele>1654.0899999999999</ele>
        <time>2014-07-17T09:06:27Z</time>
      </trkpt>
      <trkpt lat="45.842126961797476" lon="6.763324560597539">
        <ele>1654.0899999999999</ele>
        <time>2014-07-17T09:06:29Z</time>
      </trkpt>
      <trkpt lat="45.842022355645895" lon="6.763201430439949">
        <ele>1650.24</ele>
        <time>2014-07-17T09:06:44Z</time>
      </trkpt>
      <trkpt lat="45.841935938224196" lon="6.763119287788868">
        <ele>1648.3199999999999</ele>
        <time>2014-07-17T09:06:58Z</time>
      </trkpt>
      <trkpt lat="45.841850442811847" lon="6.763060949742794">
        <ele>1645.9100000000001</ele>
        <time>2014-07-17T09:07:08Z</time>
      </trkpt>
      <trkpt lat="45.841794870793819" lon="6.763014430180192">
        <ele>1644.47</ele>
        <time>2014-07-17T09:07:15Z</time>
      </trkpt>
      <trkpt lat="45.841757319867611" lon="6.762929605320096">
        <ele>1643.03</ele>
        <time>2014-07-17T09:07:22Z</time>
      </trkpt>
      <trkpt lat="45.841641817241907" lon="6.762822652235627">
        <ele>1640.1500000000001</ele>
        <time>2014-07-17T09:07:37Z</time>
      </trkpt>
      <trkpt lat="45.84155791439116" lon="6.762708742171526">
        <ele>1637.74</ele>
        <time>2014-07-17T09:07:50Z</time>
      </trkpt>
      <trkpt lat="45.841480297967792" lon="6.762587120756507">
        <ele>1634.8599999999999</ele>
        <time>2014-07-17T09:08:02Z</time>
      </trkpt>
      <trkpt lat="45.841421205550432" lon="6.762596089392901">
        <ele>1633.4200000000001</ele>
        <time>2014-07-17T09:08:14Z</time>
      </trkpt>
      <trkpt lat="45.841387929394841" lon="6.762548564001918">
        <ele>1632.9400000000001</ele>
        <time>2014-07-17T09:08:17Z</time>
      </trkpt>
      <trkpt lat="45.841371081769466" lon="6.762462062761188">
        <ele>1631.01</ele>
        <time>2014-07-17T09:08:23Z</time>
      </trkpt>
      <trkpt lat="45.841368734836578" lon="6.762407161295414">
        <ele>1630.53</ele>
        <time>2014-07-17T09:08:27Z</time>
      </trkpt>
      <trkpt lat="45.841354401782155" lon="6.76237229257822">
        <ele>1630.05</ele>
        <time>2014-07-17T09:08:30Z</time>
      </trkpt>
      <trkpt lat="45.841355072334409" lon="6.762331807985902">
        <ele>1629.5699999999999</ele>
        <time>2014-07-17T09:08:33Z</time>
      </trkpt>
      <trkpt lat="45.841267146170139" lon="6.762209935113788">
        <ele>1627.1700000000001</ele>
        <time>2014-07-17T09:08:47Z</time>
      </trkpt>
      <trkpt lat="45.841232025995851" lon="6.762159811332822">
        <ele>1626.21</ele>
        <time>2014-07-17T09:08:54Z</time>
      </trkpt>
      <trkpt lat="45.841185757890344" lon="6.762088900431991">
        <ele>1623.8</ele>
        <time>2014-07-17T09:09:08Z</time>
      </trkpt>
      <trkpt lat="45.841180058196187" lon="6.76206543110311">
        <ele>1623.8</ele>
        <time>2014-07-17T09:09:21Z</time>
      </trkpt>
      <trkpt lat="45.841159103438258" lon="6.761987311765552">
        <ele>1622.8399999999999</ele>
        <time>2014-07-17T09:09:36Z</time>
      </trkpt>
      <trkpt lat="45.841149631887674" lon="6.762023605406284">
        <ele>1622.8399999999999</ele>
        <time>2014-07-17T09:09:53Z</time>
      </trkpt>
      <trkpt lat="45.841174609959126" lon="6.762011200189591">
        <ele>1621.8800000000001</ele>
        <time>2014-07-17T09:10:17Z</time>
      </trkpt>
      <trkpt lat="45.841178884729743" lon="6.76197943277657">
        <ele>1622.3599999999999</ele>
        <time>2014-07-17T09:10:31Z</time>
      </trkpt>
      <trkpt lat="45.841198498383164" lon="6.761962836608291">
        <ele>1621.8800000000001</ele>
        <time>2014-07-17T09:10:56Z</time>
      </trkpt>
      <trkpt lat="45.841186931356788" lon="6.761948252096772">
        <ele>1621.4000000000001</ele>
        <time>2014-07-17T09:11:12Z</time>
      </trkpt>
      <trkpt lat="45.841184500604868" lon="6.761980522423983">
        <ele>1620.9200000000001</ele>
        <time>2014-07-17T09:11:33Z</time>
      </trkpt>
      <trkpt lat="45.841208891943097" lon="6.761968117207289">
        <ele>1621.4000000000001</ele>
        <time>2014-07-17T09:11:55Z</time>
      </trkpt>
      <trkpt lat="45.841194475069642" lon="6.76194473169744">
        <ele>1620.9200000000001</ele>
        <time>2014-07-17T09:12:18Z</time>
      </trkpt>
      <trkpt lat="45.841192128136754" lon="6.761791594326496">
        <ele>1619.96</ele>
        <time>2014-07-17T09:12:32Z</time>
      </trkpt>
      <trkpt lat="45.841163964942098" lon="6.761664357036352">
        <ele>1617.0699999999999</ele>
        <time>2014-07-17T09:12:42Z</time>
      </trkpt>
      <trkpt lat="45.84116161800921" lon="6.761652370914817">
        <ele>1616.5899999999999</ele>
        <time>2014-07-17T09:12:43Z</time>
      </trkpt>
      <trkpt lat="45.84115139208734" lon="6.761621441692114">
        <ele>1615.1500000000001</ele>
        <time>2014-07-17T09:12:46Z</time>
      </trkpt>
      <trkpt lat="45.841099927201867" lon="6.76148783415556">
        <ele>1615.1500000000001</ele>
        <time>2014-07-17T09:13:00Z</time>
      </trkpt>
      <trkpt lat="45.841095400974154" lon="6.761383395642042">
        <ele>1613.23</ele>
        <time>2014-07-17T09:13:08Z</time>
      </trkpt>
      <trkpt lat="45.84109079092741" lon="6.761291949078441">
        <ele>1612.27</ele>
        <time>2014-07-17T09:13:15Z</time>
      </trkpt>
      <trkpt lat="45.841044439002872" lon="6.761107379570603">
        <ele>1609.3800000000001</ele>
        <time>2014-07-17T09:13:31Z</time>
      </trkpt>
      <trkpt lat="45.841021640226245" lon="6.761031690984964">
        <ele>1608.4200000000001</ele>
        <time>2014-07-17T09:13:45Z</time>
      </trkpt>
      <trkpt lat="45.841000685468316" lon="6.760992128401995">
        <ele>1607.9400000000001</ele>
        <time>2014-07-17T09:13:50Z</time>
      </trkpt>
      <trkpt lat="45.840968163684011" lon="6.760981986299157">
        <ele>1607.46</ele>
        <time>2014-07-17T09:14:04Z</time>
      </trkpt>
      <trkpt lat="45.840975120663643" lon="6.760961282998323">
        <ele>1607.46</ele>
        <time>2014-07-17T09:14:06Z</time>
      </trkpt>
      <trkpt lat="45.840994063764811" lon="6.760944351553917">
        <ele>1606.5</ele>
        <time>2014-07-17T09:14:08Z</time>
      </trkpt>
      <trkpt lat="45.841005127876997" lon="6.760914847254753">
        <ele>1606.5</ele>
        <time>2014-07-17T09:14:10Z</time>
      </trkpt>
      <trkpt lat="45.840924074873328" lon="6.760683171451092">
        <ele>1603.1400000000001</ele>
        <time>2014-07-17T09:14:25Z</time>
      </trkpt>
      <trkpt lat="45.840850733220577" lon="6.760428193956614">
        <ele>1600.25</ele>
        <time>2014-07-17T09:14:41Z</time>
      </trkpt>
      <trkpt lat="45.840825252234936" lon="6.760310344398022">
        <ele>1598.3299999999999</ele>
        <time>2014-07-17T09:14:55Z</time>
      </trkpt>
      <trkpt lat="45.84080689586699" lon="6.760211857035756">
        <ele>1597.3699999999999</ele>
        <time>2014-07-17T09:15:09Z</time>
      </trkpt>
      <trkpt lat="45.840746629983187" lon="6.760105490684509">
        <ele>1595.9300000000001</ele>
        <time>2014-07-17T09:15:22Z</time>
      </trkpt>
      <trkpt lat="45.840711342170835" lon="6.760063664987683">
        <ele>1595.45</ele>
        <time>2014-07-17T09:15:27Z</time>
      </trkpt>
      <trkpt lat="45.840666498988867" lon="6.760051175951958">
        <ele>1594.96</ele>
        <time>2014-07-17T09:15:31Z</time>
      </trkpt>
      <trkpt lat="45.84043649956584" lon="6.760040447115898">
        <ele>1594</ele>
        <time>2014-07-17T09:15:51Z</time>
      </trkpt>
      <trkpt lat="45.840346645563841" lon="6.760080344974995">
        <ele>1593.04</ele>
        <time>2014-07-17T09:16:00Z</time>
      </trkpt>
      <trkpt lat="45.84018386900425" lon="6.760094594210386">
        <ele>1589.6800000000001</ele>
        <time>2014-07-17T09:16:16Z</time>
      </trkpt>
      <trkpt lat="45.839980524033308" lon="6.760138683021069">
        <ele>1588.24</ele>
        <time>2014-07-17T09:16:35Z</time>
      </trkpt>
      <trkpt lat="45.839829985052347" lon="6.76018905825913">
        <ele>1587.75</ele>
        <time>2014-07-17T09:16:52Z</time>
      </trkpt>
      <trkpt lat="45.839832918718457" lon="6.760176150128245">
        <ele>1587.27</ele>
        <time>2014-07-17T09:17:06Z</time>
      </trkpt>
      <trkpt lat="45.839690761640668" lon="6.76027849316597">
        <ele>1586.3099999999999</ele>
        <time>2014-07-17T09:17:20Z</time>
      </trkpt>
      <trkpt lat="45.839522369205952" lon="6.760266507044435">
        <ele>1583.9100000000001</ele>
        <time>2014-07-17T09:17:37Z</time>
      </trkpt>
      <trkpt lat="45.839427066966891" lon="6.760209258645773">
        <ele>1582.95</ele>
        <time>2014-07-17T09:17:55Z</time>
      </trkpt>
      <trkpt lat="45.839288430288434" lon="6.760200206190348">
        <ele>1581.51</ele>
        <time>2014-07-17T09:18:09Z</time>
      </trkpt>
      <trkpt lat="45.839142333716154" lon="6.760272374376655">
        <ele>1582.95</ele>
        <time>2014-07-17T09:18:25Z</time>
      </trkpt>
      <trkpt lat="45.839108722284436" lon="6.760175814852119">
        <ele>1581.51</ele>
        <time>2014-07-17T09:18:39Z</time>
      </trkpt>
      <trkpt lat="45.839106794446707" lon="6.760162068530917">
        <ele>1580.54</ele>
        <time>2014-07-17T09:18:51Z</time>
      </trkpt>
      <trkpt lat="45.839094892144203" lon="6.760160978883505">
        <ele>1581.03</ele>
        <time>2014-07-17T09:19:05Z</time>
      </trkpt>
      <trkpt lat="45.839079050347209" lon="6.760168019682169">
        <ele>1580.54</ele>
        <time>2014-07-17T09:19:35Z</time>
      </trkpt>
      <trkpt lat="45.83909522742033" lon="6.760163912549615">
        <ele>1580.54</ele>
        <time>2014-07-17T09:19:54Z</time>
      </trkpt>
      <trkpt lat="45.839113583788276" lon="6.760162319988012">
        <ele>1580.54</ele>
        <time>2014-07-17T09:20:09Z</time>
      </trkpt>
      <trkpt lat="45.839110985398293" lon="6.760111190378666">
        <ele>1580.0599999999999</ele>
        <time>2014-07-17T09:20:21Z</time>
      </trkpt>
      <trkpt lat="45.839097909629345" lon="6.759980097413063">
        <ele>1579.0999999999999</ele>
        <time>2014-07-17T09:20:34Z</time>
      </trkpt>
      <trkpt lat="45.83908936008811" lon="6.75994866527617">
        <ele>1579.0999999999999</ele>
        <time>2014-07-17T09:20:39Z</time>
      </trkpt>
      <trkpt lat="45.839154487475753" lon="6.759730149060488">
        <ele>1579.0999999999999</ele>
        <time>2014-07-17T09:20:58Z</time>
      </trkpt>
      <trkpt lat="45.839148787781596" lon="6.759997783228755">
        <ele>1579.0999999999999</ele>
        <time>2014-07-17T09:21:42Z</time>
      </trkpt>
      <trkpt lat="45.83912942558527" lon="6.760011278092861">
        <ele>1579.0999999999999</ele>
        <time>2014-07-17T09:21:46Z</time>
      </trkpt>
      <trkpt lat="45.839153649285436" lon="6.760122170671821">
        <ele>1580.0599999999999</ele>
        <time>2014-07-17T09:21:53Z</time>
      </trkpt>
      <trkpt lat="45.839115679264069" lon="6.76017589867115">
        <ele>1580.0599999999999</ele>
        <time>2014-07-17T09:22:07Z</time>
      </trkpt>
      <trkpt lat="45.839091204106808" lon="6.760171288624406">
        <ele>1580.54</ele>
        <time>2014-07-17T09:22:28Z</time>
      </trkpt>
      <trkpt lat="45.839108387008309" lon="6.760147903114557">
        <ele>1580.0599999999999</ele>
        <time>2014-07-17T09:22:45Z</time>
      </trkpt>
      <trkpt lat="45.839110650122166" lon="6.760134911164641">
        <ele>1579.5799999999999</ele>
        <time>2014-07-17T09:22:46Z</time>
      </trkpt>
      <trkpt lat="45.839094892144203" lon="6.760037261992693">
        <ele>1578.6199999999999</ele>
        <time>2014-07-17T09:22:55Z</time>
      </trkpt>
      <trkpt lat="45.839092545211315" lon="6.760020414367318">
        <ele>1578.6199999999999</ele>
        <time>2014-07-17T09:22:56Z</time>
      </trkpt>
      <trkpt lat="45.839103357866406" lon="6.759898541495204">
        <ele>1578.1400000000001</ele>
        <time>2014-07-17T09:23:06Z</time>
      </trkpt>
      <trkpt lat="45.839185249060392" lon="6.759789241477847">
        <ele>1578.1400000000001</ele>
        <time>2014-07-17T09:23:31Z</time>
      </trkpt>
      <trkpt lat="45.839042672887444" lon="6.759881693869829">
        <ele>1578.6199999999999</ele>
        <time>2014-07-17T09:23:42Z</time>
      </trkpt>
      <trkpt lat="45.839025154709816" lon="6.759887477383018">
        <ele>1578.1400000000001</ele>
        <time>2014-07-17T09:23:46Z</time>
      </trkpt>
      <trkpt lat="45.839038481935859" lon="6.760020246729255">
        <ele>1578.6199999999999</ele>
        <time>2014-07-17T09:23:58Z</time>
      </trkpt>
      <trkpt lat="45.839010570198298" lon="6.76004346460104">
        <ele>1579.5799999999999</ele>
        <time>2014-07-17T09:24:02Z</time>
      </trkpt>
      <trkpt lat="45.838984837755561" lon="6.760067855939269">
        <ele>1579.0999999999999</ele>
        <time>2014-07-17T09:24:17Z</time>
      </trkpt>
      <trkpt lat="45.838994728401303" lon="6.760088559240103">
        <ele>1579.5799999999999</ele>
        <time>2014-07-17T09:24:39Z</time>
      </trkpt>
      <trkpt lat="45.838997578248382" lon="6.760077746585012">
        <ele>1578.6199999999999</ele>
        <time>2014-07-17T09:24:56Z</time>
      </trkpt>
      <trkpt lat="45.83899699151516" lon="6.760067353025079">
        <ele>1578.1400000000001</ele>
        <time>2014-07-17T09:25:19Z</time>
      </trkpt>
      <trkpt lat="45.838996488600969" lon="6.760047907009721">
        <ele>1578.1400000000001</ele>
        <time>2014-07-17T09:25:48Z</time>
      </trkpt>
      <trkpt lat="45.839004786685109" lon="6.760063832625747">
        <ele>1578.6199999999999</ele>
        <time>2014-07-17T09:26:10Z</time>
      </trkpt>
      <trkpt lat="45.839010318741202" lon="6.760085122659802">
        <ele>1578.1400000000001</ele>
        <time>2014-07-17T09:26:40Z</time>
      </trkpt>
      <trkpt lat="45.83900973200798" lon="6.760086882859469">
        <ele>1578.1400000000001</ele>
        <time>2014-07-17T09:27:03Z</time>
      </trkpt>
      <trkpt lat="45.839012833312154" lon="6.760056624189019">
        <ele>1578.1400000000001</ele>
        <time>2014-07-17T09:27:15Z</time>
      </trkpt>
      <trkpt lat="45.839031441137195" lon="6.760034579783678">
        <ele>1578.1400000000001</ele>
        <time>2014-07-17T09:27:18Z</time>
      </trkpt>
      <trkpt lat="45.83908692933619" lon="6.759973308071494">
        <ele>1577.1800000000001</ele>
        <time>2014-07-17T09:27:26Z</time>
      </trkpt>
      <trkpt lat="45.83907276391983" lon="6.759960232302547">
        <ele>1577.1800000000001</ele>
        <time>2014-07-17T09:27:42Z</time>
      </trkpt>
      <trkpt lat="45.839094305410981" lon="6.759895607829094">
        <ele>1577.1800000000001</ele>
        <time>2014-07-17T09:28:13Z</time>
      </trkpt>
      <trkpt lat="45.839113667607307" lon="6.75989787094295">
        <ele>1577.1800000000001</ele>
        <time>2014-07-17T09:28:36Z</time>
      </trkpt>
      <trkpt lat="45.839090449735522" lon="6.759931733831763">
        <ele>1577.1800000000001</ele>
        <time>2014-07-17T09:29:06Z</time>
      </trkpt>
      <trkpt lat="45.839094221591949" lon="6.760052097961307">
        <ele>1577.1800000000001</ele>
        <time>2014-07-17T09:29:27Z</time>
      </trkpt>
      <trkpt lat="45.839102016761899" lon="6.760093756020069">
        <ele>1577.1800000000001</ele>
        <time>2014-07-17T09:29:33Z</time>
      </trkpt>
      <trkpt lat="45.839084833860397" lon="6.760132564231753">
        <ele>1577.1800000000001</ele>
        <time>2014-07-17T09:29:54Z</time>
      </trkpt>
      <trkpt lat="45.839069997891784" lon="6.760012535378337">
        <ele>1576.7</ele>
        <time>2014-07-17T09:30:09Z</time>
      </trkpt>
      <trkpt lat="45.839020209386945" lon="6.759900720790029">
        <ele>1577.1800000000001</ele>
        <time>2014-07-17T09:32:13Z</time>
      </trkpt>
      <trkpt lat="45.839098496362567" lon="6.759970206767321">
        <ele>1577.6600000000001</ele>
        <time>2014-07-17T09:32:33Z</time>
      </trkpt>
      <trkpt lat="45.839121546596289" lon="6.759963752701879">
        <ele>1577.1800000000001</ele>
        <time>2014-07-17T09:33:07Z</time>
      </trkpt>
      <trkpt lat="45.839156415313482" lon="6.759974816814065">
        <ele>1577.1800000000001</ele>
        <time>2014-07-17T09:33:39Z</time>
      </trkpt>
      <trkpt lat="45.839078966528177" lon="6.759999794885516">
        <ele>1577.1800000000001</ele>
        <time>2014-07-17T09:34:03Z</time>
      </trkpt>
      <trkpt lat="45.839015264064074" lon="6.760020665824413">
        <ele>1577.1800000000001</ele>
        <time>2014-07-17T09:34:18Z</time>
      </trkpt>
      <trkpt lat="45.838982993736863" lon="6.760069029405713">
        <ele>1576.7</ele>
        <time>2014-07-17T09:34:41Z</time>
      </trkpt>
      <trkpt lat="45.839027334004641" lon="6.760096438229084">
        <ele>1576.7</ele>
        <time>2014-07-17T09:35:04Z</time>
      </trkpt>
      <trkpt lat="45.839001350104809" lon="6.760088978335261">
        <ele>1576.7</ele>
        <time>2014-07-17T09:35:27Z</time>
      </trkpt>
      <trkpt lat="45.838993974030018" lon="6.760106412693858">
        <ele>1574.78</ele>
        <time>2014-07-17T09:35:43Z</time>
      </trkpt>
      <trkpt lat="45.838993219658732" lon="6.76010305993259">
        <ele>1577.1800000000001</ele>
        <time>2014-07-17T09:35:44Z</time>
      </trkpt>
      <trkpt lat="45.839007636532187" lon="6.760051511228085">
        <ele>1573.8199999999999</ele>
        <time>2014-07-17T09:36:02Z</time>
      </trkpt>
      <trkpt lat="45.839010234922171" lon="6.760052097961307">
        <ele>1579.5799999999999</ele>
        <time>2014-07-17T09:36:03Z</time>
      </trkpt>
      <trkpt lat="45.839011240750551" lon="6.760053941980004">
        <ele>1576.7</ele>
        <time>2014-07-17T09:36:04Z</time>
      </trkpt>
      <trkpt lat="45.838978886604309" lon="6.760056708008051">
        <ele>1575.74</ele>
        <time>2014-07-17T09:36:30Z</time>
      </trkpt>
      <trkpt lat="45.839033704251051" lon="6.760083194822073">
        <ele>1577.1800000000001</ele>
        <time>2014-07-17T09:36:36Z</time>
      </trkpt>
      <trkpt lat="45.839073183014989" lon="6.760088978335261">
        <ele>1577.1800000000001</ele>
        <time>2014-07-17T09:36:40Z</time>
      </trkpt>
      <trkpt lat="45.839090617373586" lon="6.76016902551055">
        <ele>1577.1800000000001</ele>
        <time>2014-07-17T09:36:55Z</time>
      </trkpt>
      <trkpt lat="45.839085588231683" lon="6.760134240612388">
        <ele>1577.1800000000001</ele>
        <time>2014-07-17T09:37:18Z</time>
      </trkpt>
      <trkpt lat="45.839073015376925" lon="6.760098282247782">
        <ele>1577.1800000000001</ele>
        <time>2014-07-17T09:37:52Z</time>
      </trkpt>
      <trkpt lat="45.839091539382935" lon="6.76009526476264">
        <ele>1576.7</ele>
        <time>2014-07-17T09:38:27Z</time>
      </trkpt>
      <trkpt lat="45.839081816375256" lon="6.760055953636766">
        <ele>1576.7</ele>
        <time>2014-07-17T09:38:59Z</time>
      </trkpt>
      <trkpt lat="45.83908936008811" lon="6.760050589218736">
        <ele>1577.1800000000001</ele>
        <time>2014-07-17T09:39:24Z</time>
      </trkpt>
      <trkpt lat="45.839085420593619" lon="6.760030053555965">
        <ele>1577.1800000000001</ele>
        <time>2014-07-17T09:39:46Z</time>
      </trkpt>
      <trkpt lat="45.83910595625639" lon="6.76000046543777">
        <ele>1577.1800000000001</ele>
        <time>2014-07-17T09:40:09Z</time>
      </trkpt>
      <trkpt lat="45.839084666222334" lon="6.760059976950288">
        <ele>1577.6600000000001</ele>
        <time>2014-07-17T09:40:36Z</time>
      </trkpt>
      <trkpt lat="45.839096568524837" lon="6.760091492906213">
        <ele>1577.1800000000001</ele>
        <time>2014-07-17T09:41:02Z</time>
      </trkpt>
      <trkpt lat="45.839101430028677" lon="6.760060647502542">
        <ele>1577.1800000000001</ele>
        <time>2014-07-17T09:41:27Z</time>
      </trkpt>
      <trkpt lat="45.839088605716825" lon="6.760083362460136">
        <ele>1577.1800000000001</ele>
        <time>2014-07-17T09:41:58Z</time>
      </trkpt>
      <trkpt lat="45.839102268218994" lon="6.760080512613058">
        <ele>1577.1800000000001</ele>
        <time>2014-07-17T09:42:22Z</time>
      </trkpt>
      <trkpt lat="45.83910109475255" lon="6.760113285854459">
        <ele>1577.1800000000001</ele>
        <time>2014-07-17T09:42:45Z</time>
      </trkpt>
      <trkpt lat="45.839095814153552" lon="6.760089816525579">
        <ele>1576.7</ele>
        <time>2014-07-17T09:43:12Z</time>
      </trkpt>
      <trkpt lat="45.839095562696457" lon="6.760079590603709">
        <ele>1577.1800000000001</ele>
        <time>2014-07-17T09:43:29Z</time>
      </trkpt>
      <trkpt lat="45.839089527726173" lon="6.760071879252791">
        <ele>1576.7</ele>
        <time>2014-07-17T09:43:57Z</time>
      </trkpt>
      <trkpt lat="45.839111991226673" lon="6.760106412693858">
        <ele>1577.1800000000001</ele>
        <time>2014-07-17T09:44:15Z</time>
      </trkpt>
      <trkpt lat="45.839089192450047" lon="6.760087804868817">
        <ele>1577.1800000000001</ele>
        <time>2014-07-17T09:44:39Z</time>
      </trkpt>
      <trkpt lat="45.839124647900462" lon="6.760084871202707">
        <ele>1577.1800000000001</ele>
        <time>2014-07-17T09:45:02Z</time>
      </trkpt>
      <trkpt lat="45.839113332331181" lon="6.760044638067484">
        <ele>1577.1800000000001</ele>
        <time>2014-07-17T09:45:26Z</time>
      </trkpt>
      <trkpt lat="45.839113835245371" lon="6.760064251720905">
        <ele>1578.1400000000001</ele>
        <time>2014-07-17T09:45:37Z</time>
      </trkpt>
      <trkpt lat="45.839120205491781" lon="6.760073890909553">
        <ele>1578.1400000000001</ele>
        <time>2014-07-17T09:45:50Z</time>
      </trkpt>
      <trkpt lat="45.83913529291749" lon="6.760071543976665">
        <ele>1578.1400000000001</ele>
        <time>2014-07-17T09:46:03Z</time>
      </trkpt>
      <trkpt lat="45.839107381179929" lon="6.760083781555295">
        <ele>1578.1400000000001</ele>
        <time>2014-07-17T09:46:17Z</time>
      </trkpt>
      <trkpt lat="45.83911869674921" lon="6.76010062918067">
        <ele>1578.1400000000001</ele>
        <time>2014-07-17T09:46:32Z</time>
      </trkpt>
      <trkpt lat="45.839097322896123" lon="6.760109597817063">
        <ele>1577.6600000000001</ele>
        <time>2014-07-17T09:46:53Z</time>
      </trkpt>
      <trkpt lat="45.839110147207975" lon="6.76012460142374">
        <ele>1578.1400000000001</ele>
        <time>2014-07-17T09:47:10Z</time>
      </trkpt>
      <trkpt lat="45.839112410321832" lon="6.760125020518899">
        <ele>1578.1400000000001</ele>
        <time>2014-07-17T09:47:29Z</time>
      </trkpt>
      <trkpt lat="45.839101262390614" lon="6.760125774890184">
        <ele>1578.1400000000001</ele>
        <time>2014-07-17T09:47:50Z</time>
      </trkpt>
      <trkpt lat="45.839094892144203" lon="6.760068694129586">
        <ele>1578.1400000000001</ele>
        <time>2014-07-17T09:48:16Z</time>
      </trkpt>
      <trkpt lat="45.839095646515489" lon="6.760109765455127">
        <ele>1578.1400000000001</ele>
        <time>2014-07-17T09:48:38Z</time>
      </trkpt>
      <trkpt lat="45.839098915457726" lon="6.760071543976665">
        <ele>1577.6600000000001</ele>
        <time>2014-07-17T09:48:46Z</time>
      </trkpt>
      <trkpt lat="45.839090785011649" lon="6.760049583390355">
        <ele>1577.6600000000001</ele>
        <time>2014-07-17T09:48:48Z</time>
      </trkpt>
      <trkpt lat="45.839062705636024" lon="6.759941373020411">
        <ele>1576.7</ele>
        <time>2014-07-17T09:49:00Z</time>
      </trkpt>
      <trkpt lat="45.838990872725844" lon="6.759805753827095">
        <ele>1575.74</ele>
        <time>2014-07-17T09:49:11Z</time>
      </trkpt>
      <trkpt lat="45.838935971260071" lon="6.759711792692542">
        <ele>1575.26</ele>
        <time>2014-07-17T09:49:19Z</time>
      </trkpt>
      <trkpt lat="45.838923398405313" lon="6.759604923427105">
        <ele>1573.8199999999999</ele>
        <time>2014-07-17T09:49:25Z</time>
      </trkpt>
      <trkpt lat="45.838927002623677" lon="6.759515404701233">
        <ele>1572.8499999999999</ele>
        <time>2014-07-17T09:49:31Z</time>
      </trkpt>
      <trkpt lat="45.838868245482445" lon="6.759389592334628">
        <ele>1569.01</ele>
        <time>2014-07-17T09:49:44Z</time>
      </trkpt>
      <trkpt lat="45.838851733133197" lon="6.759373331442475">
        <ele>1568.53</ele>
        <time>2014-07-17T09:49:46Z</time>
      </trkpt>
      <trkpt lat="45.83887386135757" lon="6.759271407499909">
        <ele>1567.0899999999999</ele>
        <time>2014-07-17T09:49:52Z</time>
      </trkpt>
      <trkpt lat="45.838913591578603" lon="6.759125646203756">
        <ele>1566.1199999999999</ele>
        <time>2014-07-17T09:50:05Z</time>
      </trkpt>
      <trkpt lat="45.838852990418673" lon="6.759090861305594">
        <ele>1566.6099999999999</ele>
        <time>2014-07-17T09:50:18Z</time>
      </trkpt>
      <trkpt lat="45.838858438655734" lon="6.759103601798415">
        <ele>1565.6400000000001</ele>
        <time>2014-07-17T09:50:28Z</time>
      </trkpt>
      <trkpt lat="45.83887486718595" lon="6.759100751951337">
        <ele>1565.6400000000001</ele>
        <time>2014-07-17T09:50:57Z</time>
      </trkpt>
      <trkpt lat="45.838887272402644" lon="6.759094214066863">
        <ele>1565.1600000000001</ele>
        <time>2014-07-17T09:51:22Z</time>
      </trkpt>
      <trkpt lat="45.83889783360064" lon="6.759098740294576">
        <ele>1566.6099999999999</ele>
        <time>2014-07-17T09:51:31Z</time>
      </trkpt>
      <trkpt lat="45.838856426998973" lon="6.759083401411772">
        <ele>1566.6099999999999</ele>
        <time>2014-07-17T09:51:52Z</time>
      </trkpt>
      <trkpt lat="45.838874783366919" lon="6.759082647040486">
        <ele>1566.1199999999999</ele>
        <time>2014-07-17T09:52:07Z</time>
      </trkpt>
      <trkpt lat="45.838885176926851" lon="6.759040150791407">
        <ele>1566.1199999999999</ele>
        <time>2014-07-17T09:52:28Z</time>
      </trkpt>
      <trkpt lat="45.83889976143837" lon="6.759018609300256">
        <ele>1566.6099999999999</ele>
        <time>2014-07-17T09:52:31Z</time>
      </trkpt>
      <trkpt lat="45.838904371485114" lon="6.75891031511128">
        <ele>1568.05</ele>
        <time>2014-07-17T09:52:44Z</time>
      </trkpt>
      <trkpt lat="45.83889146335423" lon="6.758823897689581">
        <ele>1569.49</ele>
        <time>2014-07-17T09:52:58Z</time>
      </trkpt>
      <trkpt lat="45.838870676234365" lon="6.758725410327315">
        <ele>1570.45</ele>
        <time>2014-07-17T09:53:11Z</time>
      </trkpt>
      <trkpt lat="45.838878052309155" lon="6.758652990683913">
        <ele>1570.45</ele>
        <time>2014-07-17T09:53:22Z</time>
      </trkpt>
      <trkpt lat="45.838879477232695" lon="6.758612086996436">
        <ele>1570.9300000000001</ele>
        <time>2014-07-17T09:53:27Z</time>
      </trkpt>
      <trkpt lat="45.838874615728855" lon="6.758385943248868">
        <ele>1570.45</ele>
        <time>2014-07-17T09:53:43Z</time>
      </trkpt>
      <trkpt lat="45.838865898549557" lon="6.758209755644202">
        <ele>1570.45</ele>
        <time>2014-07-17T09:53:58Z</time>
      </trkpt>
      <trkpt lat="45.838894732296467" lon="6.75804253667593">
        <ele>1569.97</ele>
        <time>2014-07-17T09:54:12Z</time>
      </trkpt>
      <trkpt lat="45.838909735903144" lon="6.758044045418501">
        <ele>1569.49</ele>
        <time>2014-07-17T09:54:24Z</time>
      </trkpt>
      <trkpt lat="45.838859947398305" lon="6.758017977699637">
        <ele>1569.49</ele>
        <time>2014-07-17T09:54:49Z</time>
      </trkpt>
      <trkpt lat="45.838897246867418" lon="6.758035076782107">
        <ele>1569.01</ele>
        <time>2014-07-17T09:55:19Z</time>
      </trkpt>
      <trkpt lat="45.83890319801867" lon="6.758058965206146">
        <ele>1569.49</ele>
        <time>2014-07-17T09:55:44Z</time>
      </trkpt>
      <trkpt lat="45.83890906535089" lon="6.75807086750865">
        <ele>1569.97</ele>
        <time>2014-07-17T09:56:07Z</time>
      </trkpt>
      <trkpt lat="45.838885176926851" lon="6.75806793384254">
        <ele>1569.97</ele>
        <time>2014-07-17T09:56:32Z</time>
      </trkpt>
      <trkpt lat="45.838883081451058" lon="6.758021246641874">
        <ele>1569.97</ele>
        <time>2014-07-17T09:56:51Z</time>
      </trkpt>
      <trkpt lat="45.838890457525849" lon="6.758041866123676">
        <ele>1569.97</ele>
        <time>2014-07-17T09:57:10Z</time>
      </trkpt>
      <trkpt lat="45.838894313201308" lon="6.758022671565414">
        <ele>1569.97</ele>
        <time>2014-07-17T09:57:35Z</time>
      </trkpt>
      <trkpt lat="45.838903784751892" lon="6.758023425936699">
        <ele>1569.97</ele>
        <time>2014-07-17T09:57:56Z</time>
      </trkpt>
      <trkpt lat="45.838888278231025" lon="6.758020576089621">
        <ele>1570.45</ele>
        <time>2014-07-17T09:58:19Z</time>
      </trkpt>
      <trkpt lat="45.838926415890455" lon="6.758033651858568">
        <ele>1571.4100000000001</ele>
        <time>2014-07-17T09:58:44Z</time>
      </trkpt>
      <trkpt lat="45.838921470567584" lon="6.757991993799806">
        <ele>1570.45</ele>
        <time>2014-07-17T09:58:48Z</time>
      </trkpt>
      <trkpt lat="45.838971259072423" lon="6.757858637720347">
        <ele>1570.45</ele>
        <time>2014-07-17T09:59:02Z</time>
      </trkpt>
      <trkpt lat="45.838939407840371" lon="6.757829384878278">
        <ele>1571.8900000000001</ele>
        <time>2014-07-17T09:59:14Z</time>
      </trkpt>
      <trkpt lat="45.838951729238033" lon="6.757739027962089">
        <ele>1572.8499999999999</ele>
        <time>2014-07-17T09:59:26Z</time>
      </trkpt>
      <trkpt lat="45.838999170809984" lon="6.757606845349073">
        <ele>1575.26</ele>
        <time>2014-07-17T09:59:43Z</time>
      </trkpt>
      <trkpt lat="45.839006043970585" lon="6.757585890591145">
        <ele>1575.74</ele>
        <time>2014-07-17T09:59:45Z</time>
      </trkpt>
      <trkpt lat="45.839011995121837" lon="6.757529228925705">
        <ele>1575.74</ele>
        <time>2014-07-17T09:59:51Z</time>
      </trkpt>
      <trkpt lat="45.839057341217995" lon="6.757445158436894">
        <ele>1576.22</ele>
        <time>2014-07-17T10:00:00Z</time>
      </trkpt>
      <trkpt lat="45.839150799438357" lon="6.757358321920037">
        <ele>1578.1400000000001</ele>
        <time>2014-07-17T10:00:15Z</time>
      </trkpt>
      <trkpt lat="45.839199749752879" lon="6.757292859256268">
        <ele>1579.5799999999999</ele>
        <time>2014-07-17T10:00:27Z</time>
      </trkpt>
      <trkpt lat="45.839141830801964" lon="6.757302163168788">
        <ele>1581.51</ele>
        <time>2014-07-17T10:00:41Z</time>
      </trkpt>
      <trkpt lat="45.839059101417661" lon="6.757274502888322">
        <ele>1583.4300000000001</ele>
        <time>2014-07-17T10:00:55Z</time>
      </trkpt>
      <trkpt lat="45.838972181081772" lon="6.75724558532238">
        <ele>1585.8299999999999</ele>
        <time>2014-07-17T10:01:11Z</time>
      </trkpt>
      <trkpt lat="45.838875034824014" lon="6.757190767675638">
        <ele>1588.72</ele>
        <time>2014-07-17T10:01:31Z</time>
      </trkpt>
      <trkpt lat="45.838897917419672" lon="6.757148187607527">
        <ele>1589.2</ele>
        <time>2014-07-17T10:01:35Z</time>
      </trkpt>
      <trkpt lat="45.838989950716496" lon="6.757031343877316">
        <ele>1591.1199999999999</ele>
        <time>2014-07-17T10:01:51Z</time>
      </trkpt>
      <trkpt lat="45.839051054790616" lon="6.756984991952777">
        <ele>1592.5599999999999</ele>
        <time>2014-07-17T10:02:02Z</time>
      </trkpt>
      <trkpt lat="45.839111153036356" lon="6.756893629208207">
        <ele>1594</ele>
        <time>2014-07-17T10:02:17Z</time>
      </trkpt>
      <trkpt lat="45.839177872985601" lon="6.756817437708378">
        <ele>1596.4100000000001</ele>
        <time>2014-07-17T10:02:35Z</time>
      </trkpt>
      <trkpt lat="45.839112494140863" lon="6.756815174594522">
        <ele>1598.8099999999999</ele>
        <time>2014-07-17T10:02:50Z</time>
      </trkpt>
      <trkpt lat="45.839064214378595" lon="6.756778713315725">
        <ele>1600.73</ele>
        <time>2014-07-17T10:03:03Z</time>
      </trkpt>
      <trkpt lat="45.83905566483736" lon="6.756756165996194">
        <ele>1601.21</ele>
        <time>2014-07-17T10:03:06Z</time>
      </trkpt>
      <trkpt lat="45.839015347883105" lon="6.756727583706379">
        <ele>1603.6199999999999</ele>
        <time>2014-07-17T10:03:20Z</time>
      </trkpt>
      <trkpt lat="45.839022137224674" lon="6.75664845854044">
        <ele>1605.0599999999999</ele>
        <time>2014-07-17T10:03:33Z</time>
      </trkpt>
      <trkpt lat="45.839086007326841" lon="6.756577799096704">
        <ele>1607.9400000000001</ele>
        <time>2014-07-17T10:03:50Z</time>
      </trkpt>
      <trkpt lat="45.839163707569242" lon="6.756485179066658">
        <ele>1609.3800000000001</ele>
        <time>2014-07-17T10:04:06Z</time>
      </trkpt>
      <trkpt lat="45.839253729209304" lon="6.756450310349464">
        <ele>1611.79</ele>
        <time>2014-07-17T10:04:21Z</time>
      </trkpt>
      <trkpt lat="45.839323550462723" lon="6.756379902362824">
        <ele>1613.23</ele>
        <time>2014-07-17T10:04:35Z</time>
      </trkpt>
      <trkpt lat="45.839416505768895" lon="6.756353415548801">
        <ele>1615.1500000000001</ele>
        <time>2014-07-17T10:04:51Z</time>
      </trkpt>
      <trkpt lat="45.839476939290762" lon="6.756276218220592">
        <ele>1617.5599999999999</ele>
        <time>2014-07-17T10:05:06Z</time>
      </trkpt>
      <trkpt lat="45.839539133012295" lon="6.756200613453984">
        <ele>1619.48</ele>
        <time>2014-07-17T10:05:20Z</time>
      </trkpt>
      <trkpt lat="45.839561345055699" lon="6.756127523258328">
        <ele>1621.8800000000001</ele>
        <time>2014-07-17T10:05:36Z</time>
      </trkpt>
      <trkpt lat="45.839586909860373" lon="6.756014535203576">
        <ele>1625.25</ele>
        <time>2014-07-17T10:05:54Z</time>
      </trkpt>
      <trkpt lat="45.839581042528152" lon="6.755897691473365">
        <ele>1628.1300000000001</ele>
        <time>2014-07-17T10:06:12Z</time>
      </trkpt>
      <trkpt lat="45.839515160769224" lon="6.7559321410954">
        <ele>1630.05</ele>
        <time>2014-07-17T10:06:27Z</time>
      </trkpt>
      <trkpt lat="45.839469227939844" lon="6.755913700908423">
        <ele>1630.05</ele>
        <time>2014-07-17T10:06:40Z</time>
      </trkpt>
      <trkpt lat="45.839462438598275" lon="6.755915796384215">
        <ele>1631.98</ele>
        <time>2014-07-17T10:06:42Z</time>
      </trkpt>
      <trkpt lat="45.839401166886091" lon="6.755944713950157">
        <ele>1633.4200000000001</ele>
        <time>2014-07-17T10:06:55Z</time>
      </trkpt>
      <trkpt lat="45.839355569332838" lon="6.755915461108089">
        <ele>1634.8599999999999</ele>
        <time>2014-07-17T10:07:04Z</time>
      </trkpt>
      <trkpt lat="45.839350959286094" lon="6.755913197994232">
        <ele>1634.8599999999999</ele>
        <time>2014-07-17T10:07:05Z</time>
      </trkpt>
      <trkpt lat="45.839255405589938" lon="6.75585544668138">
        <ele>1636.78</ele>
        <time>2014-07-17T10:07:19Z</time>
      </trkpt>
      <trkpt lat="45.839200001209974" lon="6.755818985402584">
        <ele>1637.26</ele>
        <time>2014-07-17T10:07:28Z</time>
      </trkpt>
      <trkpt lat="45.839053066447377" lon="6.755787972360849">
        <ele>1638.22</ele>
        <time>2014-07-17T10:07:42Z</time>
      </trkpt>
      <trkpt lat="45.838975282385945" lon="6.755788307636976">
        <ele>1640.6300000000001</ele>
        <time>2014-07-17T10:07:57Z</time>
      </trkpt>
      <trkpt lat="45.83895156159997" lon="6.755811357870698">
        <ele>1642.0699999999999</ele>
        <time>2014-07-17T10:08:03Z</time>
      </trkpt>
      <trkpt lat="45.838846452534199" lon="6.755828624591231">
        <ele>1643.03</ele>
        <time>2014-07-17T10:08:18Z</time>
      </trkpt>
      <trkpt lat="45.838772021234035" lon="6.755869193002582">
        <ele>1645.4300000000001</ele>
        <time>2014-07-17T10:08:34Z</time>
      </trkpt>
      <trkpt lat="45.838667834177613" lon="6.755879921838641">
        <ele>1646.8800000000001</ele>
        <time>2014-07-17T10:08:50Z</time>
      </trkpt>
      <trkpt lat="45.838540764525533" lon="6.755844801664352">
        <ele>1647.3599999999999</ele>
        <time>2014-07-17T10:09:05Z</time>
      </trkpt>
      <trkpt lat="45.838456358760595" lon="6.755816135555506">
        <ele>1649.28</ele>
        <time>2014-07-17T10:09:18Z</time>
      </trkpt>
      <trkpt lat="45.838405145332217" lon="6.755790822207928">
        <ele>1650.72</ele>
        <time>2014-07-17T10:09:28Z</time>
      </trkpt>
      <trkpt lat="45.838335994631052" lon="6.755778165534139">
        <ele>1652.6400000000001</ele>
        <time>2014-07-17T10:09:40Z</time>
      </trkpt>
      <trkpt lat="45.838257456198335" lon="6.75575377419591">
        <ele>1655.05</ele>
        <time>2014-07-17T10:09:55Z</time>
      </trkpt>
      <trkpt lat="45.838190484791994" lon="6.755729718133807">
        <ele>1656.97</ele>
        <time>2014-07-17T10:10:08Z</time>
      </trkpt>
      <trkpt lat="45.838128793984652" lon="6.755740782245994">
        <ele>1658.8900000000001</ele>
        <time>2014-07-17T10:10:23Z</time>
      </trkpt>
      <trkpt lat="45.838089818134904" lon="6.755733909085393">
        <ele>1661.3</ele>
        <time>2014-07-17T10:10:38Z</time>
      </trkpt>
      <trkpt lat="45.837991833686829" lon="6.755704740062356">
        <ele>1662.74</ele>
        <time>2014-07-17T10:10:52Z</time>
      </trkpt>
      <trkpt lat="45.837902231141925" lon="6.755616310983896">
        <ele>1663.7</ele>
        <time>2014-07-17T10:11:05Z</time>
      </trkpt>
      <trkpt lat="45.837818495929241" lon="6.755639361217618">
        <ele>1666.0999999999999</ele>
        <time>2014-07-17T10:11:22Z</time>
      </trkpt>
      <trkpt lat="45.837728977203369" lon="6.755589405074716">
        <ele>1668.51</ele>
        <time>2014-07-17T10:11:37Z</time>
      </trkpt>
      <trkpt lat="45.837646499276161" lon="6.755593093112111">
        <ele>1670.4300000000001</ele>
        <time>2014-07-17T10:11:53Z</time>
      </trkpt>
      <trkpt lat="45.837638536468148" lon="6.7555988766253">
        <ele>1670.9100000000001</ele>
        <time>2014-07-17T10:11:54Z</time>
      </trkpt>
      <trkpt lat="45.837583299726248" lon="6.755626956000924">
        <ele>1672.8299999999999</ele>
        <time>2014-07-17T10:12:08Z</time>
      </trkpt>
      <trkpt lat="45.837545664981008" lon="6.755667692050338">
        <ele>1674.75</ele>
        <time>2014-07-17T10:12:23Z</time>
      </trkpt>
      <trkpt lat="45.837502917274833" lon="6.755699710920453">
        <ele>1677.6400000000001</ele>
        <time>2014-07-17T10:12:39Z</time>
      </trkpt>
      <trkpt lat="45.83743435330689" lon="6.755703566595912">
        <ele>1679.5599999999999</ele>
        <time>2014-07-17T10:12:54Z</time>
      </trkpt>
      <trkpt lat="45.837389677762985" lon="6.7557577136904">
        <ele>1681.96</ele>
        <time>2014-07-17T10:13:08Z</time>
      </trkpt>
      <trkpt lat="45.837330250069499" lon="6.755742961540818">
        <ele>1684.8499999999999</ele>
        <time>2014-07-17T10:13:20Z</time>
      </trkpt>
      <trkpt lat="45.837232768535614" lon="6.755736004561186">
        <ele>1685.8099999999999</ele>
        <time>2014-07-17T10:13:37Z</time>
      </trkpt>
      <trkpt lat="45.837155235931277" lon="6.75574547611177">
        <ele>1687.25</ele>
        <time>2014-07-17T10:13:51Z</time>
      </trkpt>
      <trkpt lat="45.837129084393382" lon="6.755700632929802">
        <ele>1690.1400000000001</ele>
        <time>2014-07-17T10:14:07Z</time>
      </trkpt>
      <trkpt lat="45.837053060531616" lon="6.755729299038649">
        <ele>1692.0599999999999</ele>
        <time>2014-07-17T10:14:23Z</time>
      </trkpt>
      <trkpt lat="45.836944095790386" lon="6.755604157224298">
        <ele>1694.46</ele>
        <time>2014-07-17T10:14:38Z</time>
      </trkpt>
      <trkpt lat="45.836920291185379" lon="6.755569204688072">
        <ele>1696.8599999999999</ele>
        <time>2014-07-17T10:14:50Z</time>
      </trkpt>
      <trkpt lat="45.836857007816434" lon="6.755494102835655">
        <ele>1698.79</ele>
        <time>2014-07-17T10:15:05Z</time>
      </trkpt>
      <trkpt lat="45.836805626749992" lon="6.755394022911787">
        <ele>1700.71</ele>
        <time>2014-07-17T10:15:16Z</time>
      </trkpt>
      <trkpt lat="45.836828090250492" lon="6.755355214700103">
        <ele>1703.5899999999999</ele>
        <time>2014-07-17T10:15:35Z</time>
      </trkpt>
      <trkpt lat="45.836736476048827" lon="6.755319340154529">
        <ele>1706.48</ele>
        <time>2014-07-17T10:15:52Z</time>
      </trkpt>
      <trkpt lat="45.836696913465858" lon="6.755302073433995">
        <ele>1708.8800000000001</ele>
        <time>2014-07-17T10:16:05Z</time>
      </trkpt>
      <trkpt lat="45.836638240143657" lon="6.755311628803611">
        <ele>1711.76</ele>
        <time>2014-07-17T10:16:24Z</time>
      </trkpt>
      <trkpt lat="45.836580321192741" lon="6.75528229214251">
        <ele>1713.6900000000001</ele>
        <time>2014-07-17T10:16:37Z</time>
      </trkpt>
      <trkpt lat="45.836536400020123" lon="6.755298972129822">
        <ele>1717.53</ele>
        <time>2014-07-17T10:16:51Z</time>
      </trkpt>
      <trkpt lat="45.836531203240156" lon="6.755297714844346">
        <ele>1717.53</ele>
        <time>2014-07-17T10:16:52Z</time>
      </trkpt>
      <trkpt lat="45.836467333137989" lon="6.755249351263046">
        <ele>1718.49</ele>
        <time>2014-07-17T10:17:06Z</time>
      </trkpt>
      <trkpt lat="45.836403714492917" lon="6.755212051793933">
        <ele>1720.9000000000001</ele>
        <time>2014-07-17T10:17:21Z</time>
      </trkpt>
      <trkpt lat="45.836384771391749" lon="6.755090681836009">
        <ele>1722.8199999999999</ele>
        <time>2014-07-17T10:17:35Z</time>
      </trkpt>
      <trkpt lat="45.83640580996871" lon="6.754983896389604">
        <ele>1725.7</ele>
        <time>2014-07-17T10:17:52Z</time>
      </trkpt>
      <trkpt lat="45.836330289021134" lon="6.754854060709477">
        <ele>1727.6300000000001</ele>
        <time>2014-07-17T10:18:07Z</time>
      </trkpt>
      <trkpt lat="45.836243284866214" lon="6.754828160628676">
        <ele>1730.03</ele>
        <time>2014-07-17T10:18:23Z</time>
      </trkpt>
      <trkpt lat="45.836154688149691" lon="6.754727913066745">
        <ele>1731.95</ele>
        <time>2014-07-17T10:18:38Z</time>
      </trkpt>
      <trkpt lat="45.836082184687257" lon="6.754643674939871">
        <ele>1733.3900000000001</ele>
        <time>2014-07-17T10:18:53Z</time>
      </trkpt>
      <trkpt lat="45.836081597954035" lon="6.754627246409655">
        <ele>1733.8800000000001</ele>
        <time>2014-07-17T10:18:55Z</time>
      </trkpt>
      <trkpt lat="45.836020074784756" lon="6.75452683120966">
        <ele>1734.3599999999999</ele>
        <time>2014-07-17T10:19:06Z</time>
      </trkpt>
      <trkpt lat="45.83603834733367" lon="6.754342177882791">
        <ele>1733.3900000000001</ele>
        <time>2014-07-17T10:19:18Z</time>
      </trkpt>
      <trkpt lat="45.83603105507791" lon="6.754185855388641">
        <ele>1732.4300000000001</ele>
        <time>2014-07-17T10:19:28Z</time>
      </trkpt>
      <trkpt lat="45.836038012057543" lon="6.754155680537224">
        <ele>1731.95</ele>
        <time>2014-07-17T10:19:30Z</time>
      </trkpt>
      <trkpt lat="45.836056368425488" lon="6.754048140719533">
        <ele>1731.95</ele>
        <time>2014-07-17T10:19:37Z</time>
      </trkpt>
      <trkpt lat="45.836061900481582" lon="6.754016792401671">
        <ele>1731.95</ele>
        <time>2014-07-17T10:19:39Z</time>
      </trkpt>
      <trkpt lat="45.836121076717973" lon="6.753828367218375">
        <ele>1733.3900000000001</ele>
        <time>2014-07-17T10:19:54Z</time>
      </trkpt>
      <trkpt lat="45.836151167750359" lon="6.753714038059115">
        <ele>1733.8800000000001</ele>
        <time>2014-07-17T10:20:03Z</time>
      </trkpt>
      <trkpt lat="45.836163824424148" lon="6.753658801317215">
        <ele>1733.8800000000001</ele>
        <time>2014-07-17T10:20:07Z</time>
      </trkpt>
      <trkpt lat="45.836193580180407" lon="6.753533240407705">
        <ele>1733.8800000000001</ele>
        <time>2014-07-17T10:20:16Z</time>
      </trkpt>
      <trkpt lat="45.836261557415128" lon="6.753374487161636">
        <ele>1735.3199999999999</ele>
        <time>2014-07-17T10:20:30Z</time>
      </trkpt>
      <trkpt lat="45.836256109178066" lon="6.753345066681504">
        <ele>1735.3199999999999</ele>
        <time>2014-07-17T10:20:32Z</time>
      </trkpt>
      <trkpt lat="45.836278824135661" lon="6.753130657598376">
        <ele>1736.28</ele>
        <time>2014-07-17T10:20:47Z</time>
      </trkpt>
      <trkpt lat="45.836295671761036" lon="6.752974754199386">
        <ele>1736.28</ele>
        <time>2014-07-17T10:20:58Z</time>
      </trkpt>
      <trkpt lat="45.836364151909947" lon="6.752795297652483">
        <ele>1737.24</ele>
        <time>2014-07-17T10:21:12Z</time>
      </trkpt>
      <trkpt lat="45.836407318711281" lon="6.752568986266851">
        <ele>1738.6800000000001</ele>
        <time>2014-07-17T10:21:29Z</time>
      </trkpt>
      <trkpt lat="45.836375718936324" lon="6.752417609095573">
        <ele>1739.6400000000001</ele>
        <time>2014-07-17T10:21:42Z</time>
      </trkpt>
      <trkpt lat="45.836235741153359" lon="6.752388942986727">
        <ele>1740.5999999999999</ele>
        <time>2014-07-17T10:21:57Z</time>
      </trkpt>
      <trkpt lat="45.836069779470563" lon="6.752329096198082">
        <ele>1741.5699999999999</ele>
        <time>2014-07-17T10:22:13Z</time>
      </trkpt>
      <trkpt lat="45.835936591029167" lon="6.752189705148339">
        <ele>1743.01</ele>
        <time>2014-07-17T10:22:29Z</time>
      </trkpt>
      <trkpt lat="45.835817568004131" lon="6.752047464251518">
        <ele>1743.01</ele>
        <time>2014-07-17T10:22:43Z</time>
      </trkpt>
      <trkpt lat="45.835634507238865" lon="6.751931291073561">
        <ele>1740.5999999999999</ele>
        <time>2014-07-17T10:23:01Z</time>
      </trkpt>
      <trkpt lat="45.83552336320281" lon="6.751739848405123">
        <ele>1739.1600000000001</ele>
        <time>2014-07-17T10:23:17Z</time>
      </trkpt>
      <trkpt lat="45.835502911359072" lon="6.751644797623158">
        <ele>1738.2</ele>
        <time>2014-07-17T10:23:24Z</time>
      </trkpt>
      <trkpt lat="45.835493607446551" lon="6.751614203676581">
        <ele>1738.2</ele>
        <time>2014-07-17T10:23:42Z</time>
      </trkpt>
      <trkpt lat="45.835491511970758" lon="6.751584364101291">
        <ele>1738.2</ele>
        <time>2014-07-17T10:23:47Z</time>
      </trkpt>
      <trkpt lat="45.835444405674934" lon="6.751513034105301">
        <ele>1738.2</ele>
        <time>2014-07-17T10:24:01Z</time>
      </trkpt>
      <trkpt lat="45.835445243865252" lon="6.751484870910645">
        <ele>1738.2</ele>
        <time>2014-07-17T10:24:12Z</time>
      </trkpt>
      <trkpt lat="45.835453877225518" lon="6.751455869525671">
        <ele>1738.2</ele>
        <time>2014-07-17T10:24:23Z</time>
      </trkpt>
      <trkpt lat="45.835446082055569" lon="6.751460144296289">
        <ele>1738.2</ele>
        <time>2014-07-17T10:24:31Z</time>
      </trkpt>
      <trkpt lat="45.835472736507654" lon="6.751398704946041">
        <ele>1737.24</ele>
        <time>2014-07-17T10:24:46Z</time>
      </trkpt>
      <trkpt lat="45.835451446473598" lon="6.751398285850883">
        <ele>1737.24</ele>
        <time>2014-07-17T10:25:01Z</time>
      </trkpt>
      <trkpt lat="45.835438035428524" lon="6.751312371343374">
        <ele>1736.76</ele>
        <time>2014-07-17T10:25:06Z</time>
      </trkpt>
      <trkpt lat="45.835424792021513" lon="6.751041719689965">
        <ele>1735.3199999999999</ele>
        <time>2014-07-17T10:25:22Z</time>
      </trkpt>
      <trkpt lat="45.835426636040211" lon="6.751023279502988">
        <ele>1735.3199999999999</ele>
        <time>2014-07-17T10:25:23Z</time>
      </trkpt>
      <trkpt lat="45.835435772314668" lon="6.750793112441897">
        <ele>1733.3900000000001</ele>
        <time>2014-07-17T10:25:37Z</time>
      </trkpt>
      <trkpt lat="45.835475921630859" lon="6.750567806884646">
        <ele>1730.99</ele>
        <time>2014-07-17T10:25:53Z</time>
      </trkpt>
      <trkpt lat="45.835572313517332" lon="6.750409724190831">
        <ele>1729.0699999999999</ele>
        <time>2014-07-17T10:26:06Z</time>
      </trkpt>
      <trkpt lat="45.835620006546378" lon="6.750334287062287">
        <ele>1728.5899999999999</ele>
        <time>2014-07-17T10:26:12Z</time>
      </trkpt>
      <trkpt lat="45.835638111457229" lon="6.750303693115711">
        <ele>1728.1099999999999</ele>
        <time>2014-07-17T10:26:15Z</time>
      </trkpt>
      <trkpt lat="45.835650265216827" lon="6.750256083905697">
        <ele>1727.6300000000001</ele>
        <time>2014-07-17T10:26:31Z</time>
      </trkpt>
      <trkpt lat="45.835656384006143" lon="6.750249210745096">
        <ele>1727.6300000000001</ele>
        <time>2014-07-17T10:26:32Z</time>
      </trkpt>
      <trkpt lat="45.835705921053886" lon="6.75019565038383">
        <ele>1726.6700000000001</ele>
        <time>2014-07-17T10:26:37Z</time>
      </trkpt>
      <trkpt lat="45.835834247991443" lon="6.750012002885342">
        <ele>1726.1800000000001</ele>
        <time>2014-07-17T10:26:53Z</time>
      </trkpt>
      <trkpt lat="45.835934914648533" lon="6.749744703993201">
        <ele>1724.26</ele>
        <time>2014-07-17T10:27:10Z</time>
      </trkpt>
      <trkpt lat="45.836052931845188" lon="6.749569103121758">
        <ele>1723.3</ele>
        <time>2014-07-17T10:27:24Z</time>
      </trkpt>
      <trkpt lat="45.836091237142682" lon="6.749556111171842">
        <ele>1723.3</ele>
        <time>2014-07-17T10:27:34Z</time>
      </trkpt>
      <trkpt lat="45.836093751713634" lon="6.749552926048636">
        <ele>1721.8599999999999</ele>
        <time>2014-07-17T10:27:46Z</time>
      </trkpt>
      <trkpt lat="45.836101043969393" lon="6.749552087858319">
        <ele>1722.3399999999999</ele>
        <time>2014-07-17T10:28:01Z</time>
      </trkpt>
      <trkpt lat="45.836099032312632" lon="6.74956675618887">
        <ele>1723.3</ele>
        <time>2014-07-17T10:28:17Z</time>
      </trkpt>
      <trkpt lat="45.836075814440846" lon="6.749560469761491">
        <ele>1722.3399999999999</ele>
        <time>2014-07-17T10:28:38Z</time>
      </trkpt>
      <trkpt lat="45.836097104474902" lon="6.749567845836282">
        <ele>1718.49</ele>
        <time>2014-07-17T11:03:37Z</time>
      </trkpt>
      <trkpt lat="45.836101295426488" lon="6.749561559408903">
        <ele>1718.01</ele>
        <time>2014-07-17T11:03:38Z</time>
      </trkpt>
      <trkpt lat="45.836103726178408" lon="6.749564409255981">
        <ele>1728.1099999999999</ele>
        <time>2014-07-17T11:03:39Z</time>
      </trkpt>
      <trkpt lat="45.836106240749359" lon="6.749564744532108">
        <ele>1726.6700000000001</ele>
        <time>2014-07-17T11:03:40Z</time>
      </trkpt>
      <trkpt lat="45.836102971807122" lon="6.749565079808235">
        <ele>1726.1800000000001</ele>
        <time>2014-07-17T11:04:06Z</time>
      </trkpt>
      <trkpt lat="45.836089979857206" lon="6.74958142451942">
        <ele>1726.6700000000001</ele>
        <time>2014-07-17T11:04:27Z</time>
      </trkpt>
      <trkpt lat="45.836083609610796" lon="6.749560888856649">
        <ele>1726.6700000000001</ele>
        <time>2014-07-17T11:04:54Z</time>
      </trkpt>
      <trkpt lat="45.836104396730661" lon="6.749519482254982">
        <ele>1726.1800000000001</ele>
        <time>2014-07-17T11:05:24Z</time>
      </trkpt>
      <trkpt lat="45.836110515519977" lon="6.749534234404564">
        <ele>1726.6700000000001</ele>
        <time>2014-07-17T11:05:51Z</time>
      </trkpt>
      <trkpt lat="45.836121160537004" lon="6.749549824744463">
        <ele>1726.1800000000001</ele>
        <time>2014-07-17T11:06:11Z</time>
      </trkpt>
      <trkpt lat="45.83611998707056" lon="6.749544711783528">
        <ele>1723.78</ele>
        <time>2014-07-17T11:34:02Z</time>
      </trkpt>
      <trkpt lat="45.836139768362045" lon="6.749562649056315">
        <ele>1724.26</ele>
        <time>2014-07-17T11:34:09Z</time>
      </trkpt>
      <trkpt lat="45.836131973192096" lon="6.74955066293478">
        <ele>1723.3</ele>
        <time>2014-07-17T11:34:37Z</time>
      </trkpt>
      <trkpt lat="45.836141025647521" lon="6.749558877199888">
        <ele>1723.3</ele>
        <time>2014-07-17T11:35:06Z</time>
      </trkpt>
      <trkpt lat="45.836125770583749" lon="6.749567594379187">
        <ele>1723.78</ele>
        <time>2014-07-17T11:35:31Z</time>
      </trkpt>
      <trkpt lat="45.83610188215971" lon="6.749574299901724">
        <ele>1723.78</ele>
        <time>2014-07-17T11:35:58Z</time>
      </trkpt>
      <trkpt lat="45.83612778224051" lon="6.749548818916082">
        <ele>1723.78</ele>
        <time>2014-07-17T11:36:32Z</time>
      </trkpt>
      <trkpt lat="45.836141025647521" lon="6.749531552195549">
        <ele>1723.78</ele>
        <time>2014-07-17T11:37:14Z</time>
      </trkpt>
      <trkpt lat="45.836132895201445" lon="6.749547813087702">
        <ele>1723.78</ele>
        <time>2014-07-17T11:37:48Z</time>
      </trkpt>
      <trkpt lat="45.83613415248692" lon="6.749551333487034">
        <ele>1723.78</ele>
        <time>2014-07-17T11:38:29Z</time>
      </trkpt>
      <trkpt lat="45.836145635694265" lon="6.749550579115748">
        <ele>1724.26</ele>
        <time>2014-07-17T11:39:04Z</time>
      </trkpt>
      <trkpt lat="45.8361473120749" lon="6.749541023746133">
        <ele>1724.26</ele>
        <time>2014-07-17T11:39:36Z</time>
      </trkpt>
      <trkpt lat="45.836148485541344" lon="6.749549992382526">
        <ele>1724.26</ele>
        <time>2014-07-17T11:40:03Z</time>
      </trkpt>
      <trkpt lat="45.836140438914299" lon="6.749553680419922">
        <ele>1724.26</ele>
        <time>2014-07-17T11:40:36Z</time>
      </trkpt>
      <trkpt lat="45.836136918514967" lon="6.749512692913413">
        <ele>1725.22</ele>
        <time>2014-07-17T11:40:53Z</time>
      </trkpt>
      <trkpt lat="45.836135828867555" lon="6.74953306093812">
        <ele>1725.7</ele>
        <time>2014-07-17T11:41:11Z</time>
      </trkpt>
      <trkpt lat="45.836141193285584" lon="6.749523924663663">
        <ele>1725.22</ele>
        <time>2014-07-17T11:41:24Z</time>
      </trkpt>
      <trkpt lat="45.836154520511627" lon="6.749534821137786">
        <ele>1724.74</ele>
        <time>2014-07-17T11:41:45Z</time>
      </trkpt>
      <trkpt lat="45.836150916293263" lon="6.749528786167502">
        <ele>1724.74</ele>
        <time>2014-07-17T11:42:21Z</time>
      </trkpt>
      <trkpt lat="45.83614781498909" lon="6.74954236485064">
        <ele>1724.74</ele>
        <time>2014-07-17T11:42:46Z</time>
      </trkpt>
      <trkpt lat="45.836148150265217" lon="6.749546220526099">
        <ele>1724.74</ele>
        <time>2014-07-17T11:43:15Z</time>
      </trkpt>
      <trkpt lat="45.836144043132663" lon="6.749537922441959">
        <ele>1725.22</ele>
        <time>2014-07-17T11:43:45Z</time>
      </trkpt>
      <trkpt lat="45.836146306246519" lon="6.749537419527769">
        <ele>1725.22</ele>
        <time>2014-07-17T11:44:16Z</time>
      </trkpt>
      <trkpt lat="45.836150832474232" lon="6.749539179727435">
        <ele>1725.22</ele>
        <time>2014-07-17T11:44:50Z</time>
      </trkpt>
      <trkpt lat="45.836142785847187" lon="6.749543957412243">
        <ele>1725.22</ele>
        <time>2014-07-17T11:45:20Z</time>
      </trkpt>
      <trkpt lat="45.836166255176067" lon="6.749543957412243">
        <ele>1725.7</ele>
        <time>2014-07-17T11:45:50Z</time>
      </trkpt>
      <trkpt lat="45.836152844130993" lon="6.749542532488704">
        <ele>1725.7</ele>
        <time>2014-07-17T11:46:20Z</time>
      </trkpt>
      <trkpt lat="45.836140103638172" lon="6.749537168070674">
        <ele>1725.7</ele>
        <time>2014-07-17T11:46:49Z</time>
      </trkpt>
      <trkpt lat="45.836130380630493" lon="6.749534318223596">
        <ele>1725.7</ele>
        <time>2014-07-17T11:47:16Z</time>
      </trkpt>
      <trkpt lat="45.836138594895601" lon="6.749535324051976">
        <ele>1726.1800000000001</ele>
        <time>2014-07-17T11:47:50Z</time>
      </trkpt>
      <trkpt lat="45.836140941828489" lon="6.74954529851675">
        <ele>1726.1800000000001</ele>
        <time>2014-07-17T11:48:17Z</time>
      </trkpt>
      <trkpt lat="45.836140941828489" lon="6.749538676813245">
        <ele>1726.1800000000001</ele>
        <time>2014-07-17T11:48:42Z</time>
      </trkpt>
      <trkpt lat="45.836141109466553" lon="6.74954236485064">
        <ele>1726.6700000000001</ele>
        <time>2014-07-17T11:49:11Z</time>
      </trkpt>
      <trkpt lat="45.836149994283915" lon="6.74953892827034">
        <ele>1726.6700000000001</ele>
        <time>2014-07-17T11:49:20Z</time>
      </trkpt>
      <trkpt lat="45.836149742826819" lon="6.749552674591541">
        <ele>1727.1500000000001</ele>
        <time>2014-07-17T11:49:33Z</time>
      </trkpt>
      <trkpt lat="45.836129542440176" lon="6.749563068151474">
        <ele>1727.1500000000001</ele>
        <time>2014-07-17T11:49:49Z</time>
      </trkpt>
      <trkpt lat="45.836133733391762" lon="6.749532893300057">
        <ele>1727.1500000000001</ele>
        <time>2014-07-17T11:50:01Z</time>
      </trkpt>
      <trkpt lat="45.83613851107657" lon="6.749529289081693">
        <ele>1726.6700000000001</ele>
        <time>2014-07-17T11:50:17Z</time>
      </trkpt>
      <trkpt lat="45.836128788068891" lon="6.74952819943428">
        <ele>1726.1800000000001</ele>
        <time>2014-07-17T11:50:42Z</time>
      </trkpt>
      <trkpt lat="45.836127363145351" lon="6.749475728720427">
        <ele>1726.6700000000001</ele>
        <time>2014-07-17T11:51:03Z</time>
      </trkpt>
      <trkpt lat="45.836135158315301" lon="6.749460557475686">
        <ele>1726.6700000000001</ele>
        <time>2014-07-17T11:51:08Z</time>
      </trkpt>
      <trkpt lat="45.836223838850856" lon="6.749321250244975">
        <ele>1725.7</ele>
        <time>2014-07-17T11:51:24Z</time>
      </trkpt>
      <trkpt lat="45.836215373128653" lon="6.749148080125451">
        <ele>1724.74</ele>
        <time>2014-07-17T11:51:39Z</time>
      </trkpt>
      <trkpt lat="45.836205901578069" lon="6.748948004096746">
        <ele>1721.8599999999999</ele>
        <time>2014-07-17T11:51:54Z</time>
      </trkpt>
      <trkpt lat="45.836185198277235" lon="6.748891845345497">
        <ele>1720.9000000000001</ele>
        <time>2014-07-17T11:51:59Z</time>
      </trkpt>
      <trkpt lat="45.836155358701944" lon="6.748827053233981">
        <ele>1720.4200000000001</ele>
        <time>2014-07-17T11:52:05Z</time>
      </trkpt>
      <trkpt lat="45.836033737286925" lon="6.748669054359198">
        <ele>1719.46</ele>
        <time>2014-07-17T11:52:21Z</time>
      </trkpt>
      <trkpt lat="45.835949582979083" lon="6.748606944456697">
        <ele>1718.97</ele>
        <time>2014-07-17T11:52:33Z</time>
      </trkpt>
      <trkpt lat="45.835837265476584" lon="6.748468643054366">
        <ele>1718.49</ele>
        <time>2014-07-17T11:52:49Z</time>
      </trkpt>
      <trkpt lat="45.835819998756051" lon="6.748439893126488">
        <ele>1718.01</ele>
        <time>2014-07-17T11:52:52Z</time>
      </trkpt>
      <trkpt lat="45.835785549134016" lon="6.74835548736155">
        <ele>1717.53</ele>
        <time>2014-07-17T11:53:00Z</time>
      </trkpt>
      <trkpt lat="45.835696281865239" lon="6.748216431587935">
        <ele>1716.0899999999999</ele>
        <time>2014-07-17T11:53:13Z</time>
      </trkpt>
      <trkpt lat="45.835673483088613" lon="6.748207127675414">
        <ele>1715.1300000000001</ele>
        <time>2014-07-17T11:53:15Z</time>
      </trkpt>
      <trkpt lat="45.835551358759403" lon="6.748165218159556">
        <ele>1714.1700000000001</ele>
        <time>2014-07-17T11:53:26Z</time>
      </trkpt>
      <trkpt lat="45.835384307429194" lon="6.748070837929845">
        <ele>1712.25</ele>
        <time>2014-07-17T11:53:43Z</time>
      </trkpt>
      <trkpt lat="45.835305349901319" lon="6.748012332245708">
        <ele>1709.8399999999999</ele>
        <time>2014-07-17T11:53:51Z</time>
      </trkpt>
      <trkpt lat="45.835146093741059" lon="6.74790202639997">
        <ele>1708.4000000000001</ele>
        <time>2014-07-17T11:54:06Z</time>
      </trkpt>
      <trkpt lat="45.835027573630214" lon="6.747776716947556">
        <ele>1707.4400000000001</ele>
        <time>2014-07-17T11:54:21Z</time>
      </trkpt>
      <trkpt lat="45.83492623642087" lon="6.747632464393973">
        <ele>1705.52</ele>
        <time>2014-07-17T11:54:34Z</time>
      </trkpt>
      <trkpt lat="45.834906455129385" lon="6.747582843527198">
        <ele>1704.55</ele>
        <time>2014-07-17T11:54:38Z</time>
      </trkpt>
      <trkpt lat="45.83484610542655" lon="6.747443284839392">
        <ele>1702.6300000000001</ele>
        <time>2014-07-17T11:54:48Z</time>
      </trkpt>
      <trkpt lat="45.834766393527389" lon="6.747209429740906">
        <ele>1701.1900000000001</ele>
        <time>2014-07-17T11:55:04Z</time>
      </trkpt>
      <trkpt lat="45.834661284461617" lon="6.747032823041081">
        <ele>1699.27</ele>
        <time>2014-07-17T11:55:20Z</time>
      </trkpt>
      <trkpt lat="45.834497585892677" lon="6.746830483898521">
        <ele>1696.8599999999999</ele>
        <time>2014-07-17T11:55:39Z</time>
      </trkpt>
      <trkpt lat="45.834346963092685" lon="6.746741635724902">
        <ele>1695.4200000000001</ele>
        <time>2014-07-17T11:55:54Z</time>
      </trkpt>
      <trkpt lat="45.834214864298701" lon="6.746665108948946">
        <ele>1693.5</ele>
        <time>2014-07-17T11:56:07Z</time>
      </trkpt>
      <trkpt lat="45.834059966728091" lon="6.746582379564643">
        <ele>1691.0999999999999</ele>
        <time>2014-07-17T11:56:21Z</time>
      </trkpt>
      <trkpt lat="45.833966340869665" lon="6.746513228863478">
        <ele>1690.1400000000001</ele>
        <time>2014-07-17T11:56:30Z</time>
      </trkpt>
      <trkpt lat="45.833883443847299" lon="6.746483137831092">
        <ele>1689.1700000000001</ele>
        <time>2014-07-17T11:56:38Z</time>
      </trkpt>
      <trkpt lat="45.833788812160492" lon="6.746464613825083">
        <ele>1688.21</ele>
        <time>2014-07-17T11:56:45Z</time>
      </trkpt>
      <trkpt lat="45.833681942895055" lon="6.746375346556306">
        <ele>1687.25</ele>
        <time>2014-07-17T11:56:55Z</time>
      </trkpt>
      <trkpt lat="45.833509443327785" lon="6.746300244703889">
        <ele>1686.77</ele>
        <time>2014-07-17T11:57:12Z</time>
      </trkpt>
      <trkpt lat="45.833495194092393" lon="6.74628272652626">
        <ele>1686.29</ele>
        <time>2014-07-17T11:57:14Z</time>
      </trkpt>
      <trkpt lat="45.833404418081045" lon="6.746216928586364">
        <ele>1685.3299999999999</ele>
        <time>2014-07-17T11:57:24Z</time>
      </trkpt>
      <trkpt lat="45.833209957927465" lon="6.746081560850143">
        <ele>1682.9300000000001</ele>
        <time>2014-07-17T11:57:42Z</time>
      </trkpt>
      <trkpt lat="45.833151284605265" lon="6.746040908619762">
        <ele>1682.4400000000001</ele>
        <time>2014-07-17T11:57:48Z</time>
      </trkpt>
      <trkpt lat="45.833040475845337" lon="6.746008470654488">
        <ele>1681.48</ele>
        <time>2014-07-17T11:57:59Z</time>
      </trkpt>
      <trkpt lat="45.833016503602266" lon="6.746028251945972">
        <ele>1681.48</ele>
        <time>2014-07-17T11:58:00Z</time>
      </trkpt>
      <trkpt lat="45.832905694842339" lon="6.746023641899228">
        <ele>1681</ele>
        <time>2014-07-17T11:58:08Z</time>
      </trkpt>
      <trkpt lat="45.832865629345179" lon="6.745998160913587">
        <ele>1680.52</ele>
        <time>2014-07-17T11:58:13Z</time>
      </trkpt>
      <trkpt lat="45.832677287980914" lon="6.745958095416427">
        <ele>1679.0799999999999</ele>
        <time>2014-07-17T11:58:29Z</time>
      </trkpt>
      <trkpt lat="45.832570502534509" lon="6.745894979685545">
        <ele>1677.6400000000001</ele>
        <time>2014-07-17T11:58:39Z</time>
      </trkpt>
      <trkpt lat="45.832359362393618" lon="6.745842425152659">
        <ele>1676.2</ele>
        <time>2014-07-17T11:58:59Z</time>
      </trkpt>
      <trkpt lat="45.832220893353224" lon="6.74577453173697">
        <ele>1675.23</ele>
        <time>2014-07-17T11:59:13Z</time>
      </trkpt>
      <trkpt lat="45.832212176173925" lon="6.745767239481211">
        <ele>1674.75</ele>
        <time>2014-07-17T11:59:14Z</time>
      </trkpt>
      <trkpt lat="45.832193400710821" lon="6.745758438482881">
        <ele>1674.27</ele>
        <time>2014-07-17T11:59:16Z</time>
      </trkpt>
      <trkpt lat="45.832129865884781" lon="6.745719714090228">
        <ele>1673.79</ele>
        <time>2014-07-17T11:59:22Z</time>
      </trkpt>
      <trkpt lat="45.831964910030365" lon="6.745757600292563">
        <ele>1673.3099999999999</ele>
        <time>2014-07-17T11:59:36Z</time>
      </trkpt>
      <trkpt lat="45.83188746124506" lon="6.745762042701244">
        <ele>1671.8699999999999</ele>
        <time>2014-07-17T11:59:42Z</time>
      </trkpt>
      <trkpt lat="45.831747567281127" lon="6.745801018550992">
        <ele>1669.95</ele>
        <time>2014-07-17T11:59:54Z</time>
      </trkpt>
      <trkpt lat="45.831663329154253" lon="6.74574326723814">
        <ele>1668.02</ele>
        <time>2014-07-17T12:00:05Z</time>
      </trkpt>
      <trkpt lat="45.831573223695159" lon="6.745641343295574">
        <ele>1665.1400000000001</ele>
        <time>2014-07-17T12:00:17Z</time>
      </trkpt>
      <trkpt lat="45.831417571753263" lon="6.745634386315942">
        <ele>1661.78</ele>
        <time>2014-07-17T12:00:30Z</time>
      </trkpt>
      <trkpt lat="45.831260159611702" lon="6.745650311931968">
        <ele>1659.8499999999999</ele>
        <time>2014-07-17T12:00:45Z</time>
      </trkpt>
      <trkpt lat="45.831167874857783" lon="6.745576802641153">
        <ele>1657.9300000000001</ele>
        <time>2014-07-17T12:01:02Z</time>
      </trkpt>
      <trkpt lat="45.831148428842425" lon="6.745565989986062">
        <ele>1657.45</ele>
        <time>2014-07-17T12:01:04Z</time>
      </trkpt>
      <trkpt lat="45.830978443846107" lon="6.745493821799755">
        <ele>1655.53</ele>
        <time>2014-07-17T12:01:18Z</time>
      </trkpt>
      <trkpt lat="45.830828156322241" lon="6.745368679985404">
        <ele>1653.1199999999999</ele>
        <time>2014-07-17T12:01:33Z</time>
      </trkpt>
      <trkpt lat="45.830724304541945" lon="6.745212441310287">
        <ele>1650.24</ele>
        <time>2014-07-17T12:01:48Z</time>
      </trkpt>
      <trkpt lat="45.830610897392035" lon="6.745154103264213">
        <ele>1647.3599999999999</ele>
        <time>2014-07-17T12:02:02Z</time>
      </trkpt>
      <trkpt lat="45.830576699227095" lon="6.745163658633828">
        <ele>1646.4000000000001</ele>
        <time>2014-07-17T12:02:06Z</time>
      </trkpt>
      <trkpt lat="45.830501094460487" lon="6.745030554011464">
        <ele>1643.03</ele>
        <time>2014-07-17T12:02:19Z</time>
      </trkpt>
      <trkpt lat="45.830472595989704" lon="6.744988644495606">
        <ele>1642.0699999999999</ele>
        <time>2014-07-17T12:02:23Z</time>
      </trkpt>
      <trkpt lat="45.830308310687542" lon="6.744884876534343">
        <ele>1639.6700000000001</ele>
        <time>2014-07-17T12:02:38Z</time>
      </trkpt>
      <trkpt lat="45.830220887437463" lon="6.744826454669237">
        <ele>1638.22</ele>
        <time>2014-07-17T12:02:47Z</time>
      </trkpt>
      <trkpt lat="45.830107983201742" lon="6.744698714464903">
        <ele>1635.8199999999999</ele>
        <time>2014-07-17T12:03:01Z</time>
      </trkpt>
      <trkpt lat="45.829990217462182" lon="6.744627635926008">
        <ele>1633.9000000000001</ele>
        <time>2014-07-17T12:03:12Z</time>
      </trkpt>
      <trkpt lat="45.829875469207764" lon="6.744483215734363">
        <ele>1630.53</ele>
        <time>2014-07-17T12:03:26Z</time>
      </trkpt>
      <trkpt lat="45.829829955473542" lon="6.744394032284617">
        <ele>1629.5699999999999</ele>
        <time>2014-07-17T12:03:32Z</time>
      </trkpt>
      <trkpt lat="45.82978829741478" lon="6.744342315942049">
        <ele>1629.0899999999999</ele>
        <time>2014-07-17T12:03:37Z</time>
      </trkpt>
      <trkpt lat="45.829762145876884" lon="6.74431599676609">
        <ele>1628.6099999999999</ele>
        <time>2014-07-17T12:03:40Z</time>
      </trkpt>
      <trkpt lat="45.829617138952017" lon="6.744167385622859">
        <ele>1626.6900000000001</ele>
        <time>2014-07-17T12:03:56Z</time>
      </trkpt>
      <trkpt lat="45.829540863633156" lon="6.744028581306338">
        <ele>1623.8</ele>
        <time>2014-07-17T12:04:10Z</time>
      </trkpt>
      <trkpt lat="45.829524518921971" lon="6.744014667347074">
        <ele>1623.3199999999999</ele>
        <time>2014-07-17T12:04:12Z</time>
      </trkpt>
      <trkpt lat="45.8293710462749" lon="6.743985749781132">
        <ele>1619.48</ele>
        <time>2014-07-17T12:04:26Z</time>
      </trkpt>
      <trkpt lat="45.829218160361052" lon="6.743966974318028">
        <ele>1617.0699999999999</ele>
        <time>2014-07-17T12:04:38Z</time>
      </trkpt>
      <trkpt lat="45.829175664111972" lon="6.743851136416197">
        <ele>1615.6300000000001</ele>
        <time>2014-07-17T12:04:47Z</time>
      </trkpt>
      <trkpt lat="45.829165354371071" lon="6.74369053915143">
        <ele>1613.23</ele>
        <time>2014-07-17T12:04:57Z</time>
      </trkpt>
      <trkpt lat="45.829250514507294" lon="6.743653742596507">
        <ele>1610.8299999999999</ele>
        <time>2014-07-17T12:05:05Z</time>
      </trkpt>
      <trkpt lat="45.829401137307286" lon="6.743647791445255">
        <ele>1607.46</ele>
        <time>2014-07-17T12:05:19Z</time>
      </trkpt>
      <trkpt lat="45.829533403739333" lon="6.743566654622555">
        <ele>1605.54</ele>
        <time>2014-07-17T12:05:35Z</time>
      </trkpt>
      <trkpt lat="45.829553436487913" lon="6.743542933836579">
        <ele>1603.6199999999999</ele>
        <time>2014-07-17T12:05:38Z</time>
      </trkpt>
      <trkpt lat="45.829580090939999" lon="6.743479315191507">
        <ele>1602.6600000000001</ele>
        <time>2014-07-17T12:05:44Z</time>
      </trkpt>
      <trkpt lat="45.82953323610127" lon="6.74349607899785">
        <ele>1602.6600000000001</ele>
        <time>2014-07-17T12:05:58Z</time>
      </trkpt>
      <trkpt lat="45.829480430111289" lon="6.743541425094008">
        <ele>1602.6600000000001</ele>
        <time>2014-07-17T12:06:13Z</time>
      </trkpt>
      <trkpt lat="45.829467354342341" lon="6.743541341274977">
        <ele>1602.6600000000001</ele>
        <time>2014-07-17T12:06:35Z</time>
      </trkpt>
      <trkpt lat="45.829502390697598" lon="6.743534803390503">
        <ele>1602.6600000000001</ele>
        <time>2014-07-17T12:06:53Z</time>
      </trkpt>
      <trkpt lat="45.829475065693259" lon="6.743532456457615">
        <ele>1602.1700000000001</ele>
        <time>2014-07-17T12:07:17Z</time>
      </trkpt>
      <trkpt lat="45.829470623284578" lon="6.743533043190837">
        <ele>1602.6600000000001</ele>
        <time>2014-07-17T12:07:37Z</time>
      </trkpt>
      <trkpt lat="45.829473808407784" lon="6.743558775633574">
        <ele>1602.6600000000001</ele>
        <time>2014-07-17T12:07:55Z</time>
      </trkpt>
      <trkpt lat="45.829477747902274" lon="6.74354343675077">
        <ele>1602.6600000000001</ele>
        <time>2014-07-17T12:08:18Z</time>
      </trkpt>
      <trkpt lat="45.829535415396094" lon="6.743508987128735">
        <ele>1602.6600000000001</ele>
        <time>2014-07-17T12:08:50Z</time>
      </trkpt>
      <trkpt lat="45.829525776207447" lon="6.743529103696346">
        <ele>1602.1700000000001</ele>
        <time>2014-07-17T12:09:10Z</time>
      </trkpt>
      <trkpt lat="45.829445309937" lon="6.743539664894342">
        <ele>1601.6900000000001</ele>
        <time>2014-07-17T12:09:27Z</time>
      </trkpt>
      <trkpt lat="45.829421170055866" lon="6.743377055972815">
        <ele>1599.29</ele>
        <time>2014-07-17T12:09:40Z</time>
      </trkpt>
      <trkpt lat="45.829413626343012" lon="6.743368841707707">
        <ele>1599.29</ele>
        <time>2014-07-17T12:09:41Z</time>
      </trkpt>
      <trkpt lat="45.829346068203449" lon="6.743195587769151">
        <ele>1596.4100000000001</ele>
        <time>2014-07-17T12:09:55Z</time>
      </trkpt>
      <trkpt lat="45.829342380166054" lon="6.743180500343442">
        <ele>1596.4100000000001</ele>
        <time>2014-07-17T12:09:56Z</time>
      </trkpt>
      <trkpt lat="45.82928353920579" lon="6.743078660219908">
        <ele>1594.96</ele>
        <time>2014-07-17T12:10:08Z</time>
      </trkpt>
      <trkpt lat="45.82925914786756" lon="6.742921499535441">
        <ele>1592.0799999999999</ele>
        <time>2014-07-17T12:10:22Z</time>
      </trkpt>
      <trkpt lat="45.829236516728997" lon="6.742811612784863">
        <ele>1590.1600000000001</ele>
        <time>2014-07-17T12:10:35Z</time>
      </trkpt>
      <trkpt lat="45.829181950539351" lon="6.742811026051641">
        <ele>1586.79</ele>
        <time>2014-07-17T12:10:51Z</time>
      </trkpt>
      <trkpt lat="45.829061670228839" lon="6.742967180907726">
        <ele>1584.3900000000001</ele>
        <time>2014-07-17T12:11:06Z</time>
      </trkpt>
      <trkpt lat="45.828978773206472" lon="6.742968689650297">
        <ele>1581.51</ele>
        <time>2014-07-17T12:11:16Z</time>
      </trkpt>
      <trkpt lat="45.828846590593457" lon="6.743073463439941">
        <ele>1578.1400000000001</ele>
        <time>2014-07-17T12:11:32Z</time>
      </trkpt>
      <trkpt lat="45.828730668872595" lon="6.743092993274331">
        <ele>1577.1800000000001</ele>
        <time>2014-07-17T12:11:46Z</time>
      </trkpt>
      <trkpt lat="45.828711474314332" lon="6.74295024946332">
        <ele>1575.26</ele>
        <time>2014-07-17T12:11:59Z</time>
      </trkpt>
      <trkpt lat="45.828686077147722" lon="6.74282225780189">
        <ele>1573.3299999999999</ele>
        <time>2014-07-17T12:12:13Z</time>
      </trkpt>
      <trkpt lat="45.828645508736372" lon="6.742738438770175">
        <ele>1572.3699999999999</ele>
        <time>2014-07-17T12:12:22Z</time>
      </trkpt>
      <trkpt lat="45.828573759645224" lon="6.742588989436626">
        <ele>1572.8499999999999</ele>
        <time>2014-07-17T12:12:37Z</time>
      </trkpt>
      <trkpt lat="45.828465800732374" lon="6.742541547864676">
        <ele>1573.3299999999999</ele>
        <time>2014-07-17T12:12:52Z</time>
      </trkpt>
      <trkpt lat="45.82839916460216" lon="6.742409029975534">
        <ele>1572.8499999999999</ele>
        <time>2014-07-17T12:13:03Z</time>
      </trkpt>
      <trkpt lat="45.828298078849912" lon="6.742377681657672">
        <ele>1571.4100000000001</ele>
        <time>2014-07-17T12:13:16Z</time>
      </trkpt>
      <trkpt lat="45.828168159350753" lon="6.742394110187888">
        <ele>1569.01</ele>
        <time>2014-07-17T12:13:31Z</time>
      </trkpt>
      <trkpt lat="45.828073779121041" lon="6.742384051904082">
        <ele>1568.05</ele>
        <time>2014-07-17T12:13:43Z</time>
      </trkpt>
      <trkpt lat="45.828065061941743" lon="6.742383129894733">
        <ele>1567.5699999999999</ele>
        <time>2014-07-17T12:13:44Z</time>
      </trkpt>
      <trkpt lat="45.827948888763785" lon="6.742312721908093">
        <ele>1566.1199999999999</ele>
        <time>2014-07-17T12:13:58Z</time>
      </trkpt>
      <trkpt lat="45.827878816053271" lon="6.742259915918112">
        <ele>1566.1199999999999</ele>
        <time>2014-07-17T12:14:08Z</time>
      </trkpt>
      <trkpt lat="45.827747974544764" lon="6.742067383602262">
        <ele>1566.6099999999999</ele>
        <time>2014-07-17T12:14:24Z</time>
      </trkpt>
      <trkpt lat="45.827653594315052" lon="6.741973254829645">
        <ele>1568.05</ele>
        <time>2014-07-17T12:14:39Z</time>
      </trkpt>
      <trkpt lat="45.827631885185838" lon="6.74180343747139">
        <ele>1570.9300000000001</ele>
        <time>2014-07-17T12:14:58Z</time>
      </trkpt>
      <trkpt lat="45.82754940725863" lon="6.741607300937176">
        <ele>1569.01</ele>
        <time>2014-07-17T12:15:13Z</time>
      </trkpt>
      <trkpt lat="45.827544713392854" lon="6.741545526310802">
        <ele>1568.05</ele>
        <time>2014-07-17T12:15:17Z</time>
      </trkpt>
      <trkpt lat="45.827462822198868" lon="6.741410661488771">
        <ele>1564.6800000000001</ele>
        <time>2014-07-17T12:15:32Z</time>
      </trkpt>
      <trkpt lat="45.827327705919743" lon="6.741345953196287">
        <ele>1561.8</ele>
        <time>2014-07-17T12:15:47Z</time>
      </trkpt>
      <trkpt lat="45.827271630987525" lon="6.741225169971585">
        <ele>1558.9200000000001</ele>
        <time>2014-07-17T12:16:00Z</time>
      </trkpt>
      <trkpt lat="45.827237516641617" lon="6.741137243807316">
        <ele>1556.99</ele>
        <time>2014-07-17T12:16:12Z</time>
      </trkpt>
      <trkpt lat="45.827188566327095" lon="6.741026351228356">
        <ele>1554.1099999999999</ele>
        <time>2014-07-17T12:16:26Z</time>
      </trkpt>
      <trkpt lat="45.827100472524762" lon="6.741019729524851">
        <ele>1551.22</ele>
        <time>2014-07-17T12:16:39Z</time>
      </trkpt>
      <trkpt lat="45.827012713998556" lon="6.741076475009322">
        <ele>1547.8599999999999</ele>
        <time>2014-07-17T12:16:53Z</time>
      </trkpt>
      <trkpt lat="45.826932918280363" lon="6.741163479164243">
        <ele>1544.5</ele>
        <time>2014-07-17T12:17:07Z</time>
      </trkpt>
      <trkpt lat="45.826802831143141" lon="6.741240927949548">
        <ele>1541.6099999999999</ele>
        <time>2014-07-17T12:17:23Z</time>
      </trkpt>
      <trkpt lat="45.826730830594897" lon="6.741292225196958">
        <ele>1539.6900000000001</ele>
        <time>2014-07-17T12:17:32Z</time>
      </trkpt>
      <trkpt lat="45.826697973534465" lon="6.741337319836021">
        <ele>1538.73</ele>
        <time>2014-07-17T12:17:36Z</time>
      </trkpt>
      <trkpt lat="45.826652962714434" lon="6.741366656497121">
        <ele>1537.77</ele>
        <time>2014-07-17T12:17:40Z</time>
      </trkpt>
      <trkpt lat="45.826571406796575" lon="6.741425832733512">
        <ele>1535.8399999999999</ele>
        <time>2014-07-17T12:17:53Z</time>
      </trkpt>
      <trkpt lat="45.826551876962185" lon="6.741453073918819">
        <ele>1535.3599999999999</ele>
        <time>2014-07-17T12:17:55Z</time>
      </trkpt>
      <trkpt lat="45.826428830623627" lon="6.741468077525497">
        <ele>1532.48</ele>
        <time>2014-07-17T12:18:07Z</time>
      </trkpt>
      <trkpt lat="45.826387507840991" lon="6.741462294012308">
        <ele>1532</ele>
        <time>2014-07-17T12:18:11Z</time>
      </trkpt>
      <trkpt lat="45.826231688261032" lon="6.741489367559552">
        <ele>1529.1099999999999</ele>
        <time>2014-07-17T12:18:26Z</time>
      </trkpt>
      <trkpt lat="45.826121466234326" lon="6.741470508277416">
        <ele>1526.23</ele>
        <time>2014-07-17T12:18:40Z</time>
      </trkpt>
      <trkpt lat="45.82609036937356" lon="6.741464054211974">
        <ele>1525.75</ele>
        <time>2014-07-17T12:18:43Z</time>
      </trkpt>
      <trkpt lat="45.826030690222979" lon="6.741336565464735">
        <ele>1522.3900000000001</ele>
        <time>2014-07-17T12:18:58Z</time>
      </trkpt>
      <trkpt lat="45.826078299432993" lon="6.741279233247042">
        <ele>1521.9000000000001</ele>
        <time>2014-07-17T12:19:25Z</time>
      </trkpt>
      <trkpt lat="45.826014513149858" lon="6.741412756964564">
        <ele>1521.9000000000001</ele>
        <time>2014-07-17T12:19:44Z</time>
      </trkpt>
      <trkpt lat="45.825994983315468" lon="6.741428095847368">
        <ele>1521.9000000000001</ele>
        <time>2014-07-17T12:19:58Z</time>
      </trkpt>
      <trkpt lat="45.82600437104702" lon="6.741378726437688">
        <ele>1521.9000000000001</ele>
        <time>2014-07-17T12:20:16Z</time>
      </trkpt>
      <trkpt lat="45.826027756556869" lon="6.74133924767375">
        <ele>1520.46</ele>
        <time>2014-07-17T12:20:49Z</time>
      </trkpt>
      <trkpt lat="45.826045610010624" lon="6.741326339542866">
        <ele>1521.4200000000001</ele>
        <time>2014-07-17T12:21:15Z</time>
      </trkpt>
      <trkpt lat="45.825920887291431" lon="6.741277640685439">
        <ele>1519.5</ele>
        <time>2014-07-17T12:21:29Z</time>
      </trkpt>
      <trkpt lat="45.825894065201283" lon="6.741285435855389">
        <ele>1519.5</ele>
        <time>2014-07-17T12:21:31Z</time>
      </trkpt>
      <trkpt lat="45.825722990557551" lon="6.741240005940199">
        <ele>1516.1400000000001</ele>
        <time>2014-07-17T12:21:47Z</time>
      </trkpt>
      <trkpt lat="45.825615534558892" lon="6.741202957928181">
        <ele>1513.25</ele>
        <time>2014-07-17T12:21:59Z</time>
      </trkpt>
      <trkpt lat="45.825579576194286" lon="6.741093657910824">
        <ele>1508.9300000000001</ele>
        <time>2014-07-17T12:22:12Z</time>
      </trkpt>
      <trkpt lat="45.825580917298794" lon="6.741090640425682">
        <ele>1508.9300000000001</ele>
        <time>2014-07-17T12:22:13Z</time>
      </trkpt>
      <trkpt lat="45.825457368046045" lon="6.740990560501814">
        <ele>1506.52</ele>
        <time>2014-07-17T12:22:28Z</time>
      </trkpt>
      <trkpt lat="45.8253906480968" lon="6.740915458649397">
        <ele>1503.1600000000001</ele>
        <time>2014-07-17T12:22:40Z</time>
      </trkpt>
      <trkpt lat="45.825407328084111" lon="6.740895425900817">
        <ele>1503.1600000000001</ele>
        <time>2014-07-17T12:22:55Z</time>
      </trkpt>
      <trkpt lat="45.825423588976264" lon="6.740939933806658">
        <ele>1503.1600000000001</ele>
        <time>2014-07-17T12:23:13Z</time>
      </trkpt>
      <trkpt lat="45.82544001750648" lon="6.740880170837045">
        <ele>1502.6800000000001</ele>
        <time>2014-07-17T12:23:28Z</time>
      </trkpt>
      <trkpt lat="45.825593406334519" lon="6.740831891074777">
        <ele>1502.6800000000001</ele>
        <time>2014-07-17T12:23:42Z</time>
      </trkpt>
      <trkpt lat="45.825624754652381" lon="6.740816719830036">
        <ele>1501.72</ele>
        <time>2014-07-17T12:23:48Z</time>
      </trkpt>
      <trkpt lat="45.825532050803304" lon="6.74072653055191">
        <ele>1499.3099999999999</ele>
        <time>2014-07-17T12:24:02Z</time>
      </trkpt>
      <trkpt lat="45.82543071359396" lon="6.740668527781963">
        <ele>1496.4300000000001</ele>
        <time>2014-07-17T12:24:18Z</time>
      </trkpt>
      <trkpt lat="45.825404142960906" lon="6.74064782448113">
        <ele>1495.47</ele>
        <time>2014-07-17T12:24:21Z</time>
      </trkpt>
      <trkpt lat="45.825315378606319" lon="6.740609770640731">
        <ele>1494.51</ele>
        <time>2014-07-17T12:24:33Z</time>
      </trkpt>
      <trkpt lat="45.825287885963917" lon="6.740657882764936">
        <ele>1494.03</ele>
        <time>2014-07-17T12:24:54Z</time>
      </trkpt>
      <trkpt lat="45.825303895398974" lon="6.740641789510846">
        <ele>1494.51</ele>
        <time>2014-07-17T12:25:15Z</time>
      </trkpt>
      <trkpt lat="45.82533398643136" lon="6.740637179464102">
        <ele>1494.51</ele>
        <time>2014-07-17T12:25:34Z</time>
      </trkpt>
      <trkpt lat="45.825353097170591" lon="6.740608680993319">
        <ele>1494.03</ele>
        <time>2014-07-17T12:26:03Z</time>
      </trkpt>
      <trkpt lat="45.825338596478105" lon="6.740600047633052">
        <ele>1493.55</ele>
        <time>2014-07-17T12:26:28Z</time>
      </trkpt>
      <trkpt lat="45.825340943410993" lon="6.740611949935556">
        <ele>1494.99</ele>
        <time>2014-07-17T12:26:55Z</time>
      </trkpt>
      <trkpt lat="45.825363826006651" lon="6.740624774247408">
        <ele>1494.99</ele>
        <time>2014-07-17T12:27:15Z</time>
      </trkpt>
      <trkpt lat="45.825352510437369" lon="6.740629551932216">
        <ele>1494.99</ele>
        <time>2014-07-17T12:27:36Z</time>
      </trkpt>
      <trkpt lat="45.825317054986954" lon="6.740594012662768">
        <ele>1494.51</ele>
        <time>2014-07-17T12:28:02Z</time>
      </trkpt>
      <trkpt lat="45.825342368334532" lon="6.740620331838727">
        <ele>1494.99</ele>
        <time>2014-07-17T12:28:26Z</time>
      </trkpt>
      <trkpt lat="45.825355527922511" lon="6.740610273554921">
        <ele>1494.99</ele>
        <time>2014-07-17T12:28:45Z</time>
      </trkpt>
      <trkpt lat="45.825365670025349" lon="6.740627456456423">
        <ele>1494.51</ele>
        <time>2014-07-17T12:29:00Z</time>
      </trkpt>
      <trkpt lat="45.825360473245382" lon="6.740658888593316">
        <ele>1494.51</ele>
        <time>2014-07-17T12:29:11Z</time>
      </trkpt>
      <trkpt lat="45.825291825458407" lon="6.740767601877451">
        <ele>1494.03</ele>
        <time>2014-07-17T12:29:18Z</time>
      </trkpt>
      <trkpt lat="45.825239438563585" lon="6.740978993475437">
        <ele>1492.5799999999999</ele>
        <time>2014-07-17T12:29:30Z</time>
      </trkpt>
      <trkpt lat="45.82523918710649" lon="6.74102358520031">
        <ele>1492.0999999999999</ele>
        <time>2014-07-17T12:29:33Z</time>
      </trkpt>
      <trkpt lat="45.825236923992634" lon="6.741090305149555">
        <ele>1491.6199999999999</ele>
        <time>2014-07-17T12:29:38Z</time>
      </trkpt>
      <trkpt lat="45.825253687798977" lon="6.741192312911153">
        <ele>1490.1800000000001</ele>
        <time>2014-07-17T12:29:44Z</time>
      </trkpt>
      <trkpt lat="45.825245724990964" lon="6.741247633472085">
        <ele>1489.7</ele>
        <time>2014-07-17T12:29:47Z</time>
      </trkpt>
      <trkpt lat="45.825257040560246" lon="6.741394652053714">
        <ele>1488.26</ele>
        <time>2014-07-17T12:29:55Z</time>
      </trkpt>
      <trkpt lat="45.825252011418343" lon="6.741488948464394">
        <ele>1487.3</ele>
        <time>2014-07-17T12:30:01Z</time>
      </trkpt>
      <trkpt lat="45.825258297845721" lon="6.741573438048363">
        <ele>1486.3399999999999</ele>
        <time>2014-07-17T12:30:06Z</time>
      </trkpt>
      <trkpt lat="45.825286209583282" lon="6.7416578438133">
        <ele>1485.3699999999999</ele>
        <time>2014-07-17T12:30:12Z</time>
      </trkpt>
      <trkpt lat="45.825305236503482" lon="6.741824224591255">
        <ele>1483.45</ele>
        <time>2014-07-17T12:30:22Z</time>
      </trkpt>
      <trkpt lat="45.825307248160243" lon="6.741843419149518">
        <ele>1482.97</ele>
        <time>2014-07-17T12:30:23Z</time>
      </trkpt>
      <trkpt lat="45.825303979218006" lon="6.741932099685073">
        <ele>1482.49</ele>
        <time>2014-07-17T12:30:27Z</time>
      </trkpt>
      <trkpt lat="45.825279084965587" lon="6.742126559838653">
        <ele>1480.0899999999999</ele>
        <time>2014-07-17T12:30:38Z</time>
      </trkpt>
      <trkpt lat="45.825240025296807" lon="6.742251869291067">
        <ele>1478.6500000000001</ele>
        <time>2014-07-17T12:30:45Z</time>
      </trkpt>
      <trkpt lat="45.8252127841115" lon="6.742295371368527">
        <ele>1477.6800000000001</ele>
        <time>2014-07-17T12:30:48Z</time>
      </trkpt>
      <trkpt lat="45.825211443006992" lon="6.742314901202917">
        <ele>1477.6800000000001</ele>
        <time>2014-07-17T12:30:49Z</time>
      </trkpt>
      <trkpt lat="45.825208593159914" lon="6.742331916466355">
        <ele>1477.6800000000001</ele>
        <time>2014-07-17T12:30:50Z</time>
      </trkpt>
      <trkpt lat="45.825185459107161" lon="6.742385728284717">
        <ele>1476.72</ele>
        <time>2014-07-17T12:30:53Z</time>
      </trkpt>
      <trkpt lat="45.825177496299148" lon="6.742422105744481">
        <ele>1476.24</ele>
        <time>2014-07-17T12:30:54Z</time>
      </trkpt>
      <trkpt lat="45.825143633410335" lon="6.742511708289385">
        <ele>1475.28</ele>
        <time>2014-07-17T12:30:59Z</time>
      </trkpt>
      <trkpt lat="45.825143968686461" lon="6.742529897019267">
        <ele>1474.8</ele>
        <time>2014-07-17T12:31:00Z</time>
      </trkpt>
      <trkpt lat="45.825115637853742" lon="6.74261162057519">
        <ele>1473.8399999999999</ele>
        <time>2014-07-17T12:31:04Z</time>
      </trkpt>
      <trkpt lat="45.825108010321856" lon="6.742652859538794">
        <ele>1473.8399999999999</ele>
        <time>2014-07-17T12:31:06Z</time>
      </trkpt>
      <trkpt lat="45.825092503800988" lon="6.742701893672347">
        <ele>1472.8800000000001</ele>
        <time>2014-07-17T12:31:09Z</time>
      </trkpt>
      <trkpt lat="45.825074231252074" lon="6.742974640801549">
        <ele>1469.99</ele>
        <time>2014-07-17T12:31:25Z</time>
      </trkpt>
      <trkpt lat="45.825052773579955" lon="6.743033733218908">
        <ele>1469.51</ele>
        <time>2014-07-17T12:31:29Z</time>
      </trkpt>
      <trkpt lat="45.825251005589962" lon="6.743105566129088">
        <ele>1467.1099999999999</ele>
        <time>2014-07-17T12:31:47Z</time>
      </trkpt>
      <trkpt lat="45.825246730819345" lon="6.743261637166143">
        <ele>1463.74</ele>
        <time>2014-07-17T12:32:02Z</time>
      </trkpt>
      <trkpt lat="45.825239522382617" lon="6.743308240547776">
        <ele>1463.74</ele>
        <time>2014-07-17T12:32:06Z</time>
      </trkpt>
      <trkpt lat="45.825191242620349" lon="6.743534971028566">
        <ele>1460.8599999999999</ele>
        <time>2014-07-17T12:32:20Z</time>
      </trkpt>
      <trkpt lat="45.825128965079784" lon="6.743733789771795">
        <ele>1458.9400000000001</ele>
        <time>2014-07-17T12:32:34Z</time>
      </trkpt>
      <trkpt lat="45.825027711689472" lon="6.743801767006517">
        <ele>1457.02</ele>
        <time>2014-07-17T12:32:47Z</time>
      </trkpt>
      <trkpt lat="45.824870131909847" lon="6.743781985715032">
        <ele>1454.1300000000001</ele>
        <time>2014-07-17T12:33:00Z</time>
      </trkpt>
      <trkpt lat="45.824832497164607" lon="6.7437560018152">
        <ele>1453.6500000000001</ele>
        <time>2014-07-17T12:33:03Z</time>
      </trkpt>
      <trkpt lat="45.824598474428058" lon="6.743686180561781">
        <ele>1450.29</ele>
        <time>2014-07-17T12:33:17Z</time>
      </trkpt>
      <trkpt lat="45.824389429762959" lon="6.743580652400851">
        <ele>1446.9200000000001</ele>
        <time>2014-07-17T12:33:30Z</time>
      </trkpt>
      <trkpt lat="45.824270071461797" lon="6.74348970875144">
        <ele>1443.5599999999999</ele>
        <time>2014-07-17T12:33:40Z</time>
      </trkpt>
      <trkpt lat="45.824229419231415" lon="6.743381163105369">
        <ele>1440.1900000000001</ele>
        <time>2014-07-17T12:33:49Z</time>
      </trkpt>
      <trkpt lat="45.824219025671482" lon="6.74336414784193">
        <ele>1440.1900000000001</ele>
        <time>2014-07-17T12:33:51Z</time>
      </trkpt>
      <trkpt lat="45.824190862476826" lon="6.743200281634927">
        <ele>1436.8299999999999</ele>
        <time>2014-07-17T12:34:02Z</time>
      </trkpt>
      <trkpt lat="45.82415540702641" lon="6.743074553087354">
        <ele>1434.4200000000001</ele>
        <time>2014-07-17T12:34:11Z</time>
      </trkpt>
      <trkpt lat="45.824142917990685" lon="6.743047563359141">
        <ele>1433.9400000000001</ele>
        <time>2014-07-17T12:34:13Z</time>
      </trkpt>
      <trkpt lat="45.824131853878498" lon="6.743006911128759">
        <ele>1433.46</ele>
        <time>2014-07-17T12:34:16Z</time>
      </trkpt>
      <trkpt lat="45.824089692905545" lon="6.742899203673005">
        <ele>1431.54</ele>
        <time>2014-07-17T12:34:24Z</time>
      </trkpt>
      <trkpt lat="45.82400931045413" lon="6.742756376042962">
        <ele>1428.1800000000001</ele>
        <time>2014-07-17T12:34:36Z</time>
      </trkpt>
      <trkpt lat="45.824000677093863" lon="6.742747155949473">
        <ele>1428.1800000000001</ele>
        <time>2014-07-17T12:34:37Z</time>
      </trkpt>
      <trkpt lat="45.823965137824416" lon="6.742643304169178">
        <ele>1425.29</ele>
        <time>2014-07-17T12:34:45Z</time>
      </trkpt>
      <trkpt lat="45.823884503915906" lon="6.742496537044644">
        <ele>1421.9300000000001</ele>
        <time>2014-07-17T12:34:58Z</time>
      </trkpt>
      <trkpt lat="45.82381971180439" lon="6.742341555655003">
        <ele>1418.5599999999999</ele>
        <time>2014-07-17T12:35:11Z</time>
      </trkpt>
      <trkpt lat="45.823734719306231" lon="6.742202499881387">
        <ele>1415.2</ele>
        <time>2014-07-17T12:35:24Z</time>
      </trkpt>
      <trkpt lat="45.823680823668838" lon="6.742027485743165">
        <ele>1411.8299999999999</ele>
        <time>2014-07-17T12:35:37Z</time>
      </trkpt>
      <trkpt lat="45.823644530028105" lon="6.741902427747846">
        <ele>1408.95</ele>
        <time>2014-07-17T12:35:47Z</time>
      </trkpt>
      <trkpt lat="45.823613936081529" lon="6.741829672828317">
        <ele>1407.03</ele>
        <time>2014-07-17T12:35:55Z</time>
      </trkpt>
      <trkpt lat="45.823610834777355" lon="6.741765970364213">
        <ele>1405.5799999999999</ele>
        <time>2014-07-17T12:35:59Z</time>
      </trkpt>
      <trkpt lat="45.823579905554652" lon="6.741543849930167">
        <ele>1401.26</ele>
        <time>2014-07-17T12:36:12Z</time>
      </trkpt>
      <trkpt lat="45.82357638515532" lon="6.741527337580919">
        <ele>1401.26</ele>
        <time>2014-07-17T12:36:13Z</time>
      </trkpt>
      <trkpt lat="45.823524249717593" lon="6.741402950137854">
        <ele>1399.8199999999999</ele>
        <time>2014-07-17T12:36:23Z</time>
      </trkpt>
      <trkpt lat="45.823491895571351" lon="6.741232546046376">
        <ele>1396.45</ele>
        <time>2014-07-17T12:36:35Z</time>
      </trkpt>
      <trkpt lat="45.823499942198396" lon="6.741203628480434">
        <ele>1395.97</ele>
        <time>2014-07-17T12:36:37Z</time>
      </trkpt>
      <trkpt lat="45.823517544195056" lon="6.741084856912494">
        <ele>1394.05</ele>
        <time>2014-07-17T12:36:44Z</time>
      </trkpt>
      <trkpt lat="45.823528356850147" lon="6.74099525436759">
        <ele>1392.1300000000001</ele>
        <time>2014-07-17T12:36:50Z</time>
      </trkpt>
      <trkpt lat="45.823526764288545" lon="6.74094001762569">
        <ele>1391.1700000000001</ele>
        <time>2014-07-17T12:36:54Z</time>
      </trkpt>
      <trkpt lat="45.823520058766007" lon="6.740911854431033">
        <ele>1390.6800000000001</ele>
        <time>2014-07-17T12:36:56Z</time>
      </trkpt>
      <trkpt lat="45.823506060987711" lon="6.740870531648397">
        <ele>1390.2</ele>
        <time>2014-07-17T12:36:59Z</time>
      </trkpt>
      <trkpt lat="45.823503294959664" lon="6.740782773122191">
        <ele>1388.76</ele>
        <time>2014-07-17T12:37:05Z</time>
      </trkpt>
      <trkpt lat="45.82341905683279" lon="6.74060189165175">
        <ele>1385.8800000000001</ele>
        <time>2014-07-17T12:37:19Z</time>
      </trkpt>
      <trkpt lat="45.823365496471524" lon="6.740450849756599">
        <ele>1382.51</ele>
        <time>2014-07-17T12:37:32Z</time>
      </trkpt>
      <trkpt lat="45.823328113183379" lon="6.740282708778977">
        <ele>1379.6300000000001</ele>
        <time>2014-07-17T12:37:44Z</time>
      </trkpt>
      <trkpt lat="45.823317635804415" lon="6.740129739046097">
        <ele>1376.26</ele>
        <time>2014-07-17T12:37:56Z</time>
      </trkpt>
      <trkpt lat="45.823311600834131" lon="6.740057487040758">
        <ele>1374.3399999999999</ele>
        <time>2014-07-17T12:38:07Z</time>
      </trkpt>
      <trkpt lat="45.823306404054165" lon="6.740017589181662">
        <ele>1373.3800000000001</ele>
        <time>2014-07-17T12:38:10Z</time>
      </trkpt>
      <trkpt lat="45.823272289708257" lon="6.73988800495863">
        <ele>1370.5</ele>
        <time>2014-07-17T12:38:19Z</time>
      </trkpt>
      <trkpt lat="45.823230128735304" lon="6.739672087132931">
        <ele>1366.6500000000001</ele>
        <time>2014-07-17T12:38:33Z</time>
      </trkpt>
      <trkpt lat="45.823226105421782" lon="6.739663537591696">
        <ele>1366.6500000000001</ele>
        <time>2014-07-17T12:38:34Z</time>
      </trkpt>
      <trkpt lat="45.823206324130297" lon="6.739581227302551">
        <ele>1364.73</ele>
        <time>2014-07-17T12:38:48Z</time>
      </trkpt>
      <trkpt lat="45.823242785409093" lon="6.739558763802052">
        <ele>1364.73</ele>
        <time>2014-07-17T12:39:08Z</time>
      </trkpt>
      <trkpt lat="45.823211437091231" lon="6.739523140713573">
        <ele>1365.21</ele>
        <time>2014-07-17T12:39:25Z</time>
      </trkpt>
      <trkpt lat="45.823196768760681" lon="6.739505706354976">
        <ele>1364.73</ele>
        <time>2014-07-17T12:39:32Z</time>
      </trkpt>
      <trkpt lat="45.823271283879876" lon="6.739398669451475">
        <ele>1362.3299999999999</ele>
        <time>2014-07-17T12:39:47Z</time>
      </trkpt>
      <trkpt lat="45.823239348828793" lon="6.739481901749969">
        <ele>1362.8099999999999</ele>
        <time>2014-07-17T12:40:05Z</time>
      </trkpt>
      <trkpt lat="45.823205066844821" lon="6.73939841799438">
        <ele>1362.8099999999999</ele>
        <time>2014-07-17T12:40:28Z</time>
      </trkpt>
      <trkpt lat="45.823035081848502" lon="6.735562607645989">
        <ele>1300.3199999999999</ele>
        <time>2014-07-17T12:53:45Z</time>
      </trkpt>
      <trkpt lat="45.823036003857851" lon="6.735359346494079">
        <ele>1296.96</ele>
        <time>2014-07-17T12:53:59Z</time>
      </trkpt>
      <trkpt lat="45.823041787371039" lon="6.735160863026977">
        <ele>1295.51</ele>
        <time>2014-07-17T12:54:13Z</time>
      </trkpt>
      <trkpt lat="45.823030052706599" lon="6.735164299607277">
        <ele>1295.51</ele>
        <time>2014-07-17T12:54:26Z</time>
      </trkpt>
      <trkpt lat="45.82308922894299" lon="6.735210567712784">
        <ele>1295.03</ele>
        <time>2014-07-17T12:54:44Z</time>
      </trkpt>
      <trkpt lat="45.823141783475876" lon="6.735312575474381">
        <ele>1294.0699999999999</ele>
        <time>2014-07-17T12:55:11Z</time>
      </trkpt>
      <trkpt lat="45.823131054639816" lon="6.73530075699091">
        <ele>1294.0699999999999</ele>
        <time>2014-07-17T12:55:14Z</time>
      </trkpt>
      <trkpt lat="45.823104484006763" lon="6.735244430601597">
        <ele>1294.55</ele>
        <time>2014-07-17T12:55:26Z</time>
      </trkpt>
      <trkpt lat="45.823086211457849" lon="6.735173435881734">
        <ele>1294.55</ele>
        <time>2014-07-17T12:55:42Z</time>
      </trkpt>
      <trkpt lat="45.8230887260288" lon="6.735084503889084">
        <ele>1294.0699999999999</ele>
        <time>2014-07-17T12:55:51Z</time>
      </trkpt>
      <trkpt lat="45.823092497885227" lon="6.734991297125816">
        <ele>1293.1099999999999</ele>
        <time>2014-07-17T12:56:06Z</time>
      </trkpt>
      <trkpt lat="45.823092749342322" lon="6.734993644058704">
        <ele>1292.6300000000001</ele>
        <time>2014-07-17T12:56:37Z</time>
      </trkpt>
      <trkpt lat="45.823106076568365" lon="6.735033122822642">
        <ele>1292.6300000000001</ele>
        <time>2014-07-17T12:56:48Z</time>
      </trkpt>
      <trkpt lat="45.823095599189401" lon="6.735047288239002">
        <ele>1292.6300000000001</ele>
        <time>2014-07-17T12:57:00Z</time>
      </trkpt>
      <trkpt lat="45.823104819282889" lon="6.735050724819303">
        <ele>1293.1099999999999</ele>
        <time>2014-07-17T12:57:09Z</time>
      </trkpt>
      <trkpt lat="45.823097862303257" lon="6.735083581879735">
        <ele>1293.1099999999999</ele>
        <time>2014-07-17T12:57:28Z</time>
      </trkpt>
      <trkpt lat="45.823046816512942" lon="6.735133454203606">
        <ele>1293.1099999999999</ele>
        <time>2014-07-17T12:57:49Z</time>
      </trkpt>
      <trkpt lat="45.823068274185061" lon="6.735089449211955">
        <ele>1292.6300000000001</ele>
        <time>2014-07-17T12:58:07Z</time>
      </trkpt>
      <trkpt lat="45.823087804019451" lon="6.735075786709786">
        <ele>1292.6300000000001</ele>
        <time>2014-07-17T12:58:23Z</time>
      </trkpt>
      <trkpt lat="45.82308629527688" lon="6.735057178884745">
        <ele>1292.1500000000001</ele>
        <time>2014-07-17T12:58:38Z</time>
      </trkpt>
      <trkpt lat="45.823128875344992" lon="6.735041840001941">
        <ele>1292.1500000000001</ele>
        <time>2014-07-17T12:59:05Z</time>
      </trkpt>
      <trkpt lat="45.823095599189401" lon="6.735050054267049">
        <ele>1292.1500000000001</ele>
        <time>2014-07-17T12:59:40Z</time>
      </trkpt>
      <trkpt lat="45.823117308318615" lon="6.735041756182909">
        <ele>1291.6700000000001</ele>
        <time>2014-07-17T13:00:15Z</time>
      </trkpt>
      <trkpt lat="45.823086043819785" lon="6.735036559402943">
        <ele>1292.6300000000001</ele>
        <time>2014-07-17T13:00:46Z</time>
      </trkpt>
      <trkpt lat="45.823082271963358" lon="6.735025495290756">
        <ele>1291.1900000000001</ele>
        <time>2014-07-17T13:01:13Z</time>
      </trkpt>
      <trkpt lat="45.823078500106931" lon="6.73504033125937">
        <ele>1291.1900000000001</ele>
        <time>2014-07-17T13:01:46Z</time>
      </trkpt>
      <trkpt lat="45.82305645570159" lon="6.735048294067383">
        <ele>1290.71</ele>
        <time>2014-07-17T13:02:21Z</time>
      </trkpt>
      <trkpt lat="45.823051258921623" lon="6.735024908557534">
        <ele>1290.71</ele>
        <time>2014-07-17T13:02:53Z</time>
      </trkpt>
      <trkpt lat="45.823045056313276" lon="6.735033458098769">
        <ele>1291.1900000000001</ele>
        <time>2014-07-17T13:03:30Z</time>
      </trkpt>
      <trkpt lat="45.823060898110271" lon="6.735040247440338">
        <ele>1290.71</ele>
        <time>2014-07-17T13:03:59Z</time>
      </trkpt>
      <trkpt lat="45.823063161224127" lon="6.735044773668051">
        <ele>1290.71</ele>
        <time>2014-07-17T13:04:23Z</time>
      </trkpt>
      <trkpt lat="45.823070621117949" lon="6.735059274360538">
        <ele>1291.6700000000001</ele>
        <time>2014-07-17T13:04:32Z</time>
      </trkpt>
      <trkpt lat="45.823079505935311" lon="6.735056843608618">
        <ele>1292.1500000000001</ele>
        <time>2014-07-17T13:04:44Z</time>
      </trkpt>
      <trkpt lat="45.823081433773041" lon="6.735045276582241">
        <ele>1290.23</ele>
        <time>2014-07-17T13:04:53Z</time>
      </trkpt>
      <trkpt lat="45.82307355478406" lon="6.735033122822642">
        <ele>1291.1900000000001</ele>
        <time>2014-07-17T13:05:06Z</time>
      </trkpt>
      <trkpt lat="45.823079589754343" lon="6.735045360401273">
        <ele>1290.71</ele>
        <time>2014-07-17T13:05:25Z</time>
      </trkpt>
      <trkpt lat="45.823039021342993" lon="6.734967492520809">
        <ele>1290.23</ele>
        <time>2014-07-17T13:05:39Z</time>
      </trkpt>
      <trkpt lat="45.82302812486887" lon="6.734945783391595">
        <ele>1289.75</ele>
        <time>2014-07-17T13:05:41Z</time>
      </trkpt>
      <trkpt lat="45.82292452454567" lon="6.734812008216977">
        <ele>1288.3</ele>
        <time>2014-07-17T13:05:57Z</time>
      </trkpt>
      <trkpt lat="45.822864174842834" lon="6.7347745411098">
        <ele>1287.8199999999999</ele>
        <time>2014-07-17T13:06:04Z</time>
      </trkpt>
      <trkpt lat="45.822837520390749" lon="6.734751490876079">
        <ele>1287.3399999999999</ele>
        <time>2014-07-17T13:06:07Z</time>
      </trkpt>
      <trkpt lat="45.822826707735658" lon="6.734727853909135">
        <ele>1286.3800000000001</ele>
        <time>2014-07-17T13:06:09Z</time>
      </trkpt>
      <trkpt lat="45.822814973071218" lon="6.734589301049709">
        <ele>1285.4200000000001</ele>
        <time>2014-07-17T13:06:19Z</time>
      </trkpt>
      <trkpt lat="45.822810279205441" lon="6.734520317986608">
        <ele>1284.9400000000001</ele>
        <time>2014-07-17T13:06:26Z</time>
      </trkpt>
      <trkpt lat="45.822803238406777" lon="6.734492657706142">
        <ele>1284.9400000000001</ele>
        <time>2014-07-17T13:06:27Z</time>
      </trkpt>
      <trkpt lat="45.822801478207111" lon="6.734398864209652">
        <ele>1284.46</ele>
        <time>2014-07-17T13:06:36Z</time>
      </trkpt>
      <trkpt lat="45.822741463780403" lon="6.734234662726522">
        <ele>1281.0899999999999</ele>
        <time>2014-07-17T13:06:49Z</time>
      </trkpt>
      <trkpt lat="45.822739787399769" lon="6.734227119013667">
        <ele>1281.0899999999999</ele>
        <time>2014-07-17T13:06:50Z</time>
      </trkpt>
      <trkpt lat="45.822734674438834" lon="6.73420918174088">
        <ele>1280.6099999999999</ele>
        <time>2014-07-17T13:06:51Z</time>
      </trkpt>
      <trkpt lat="45.8227105345577" lon="6.734008267521858">
        <ele>1278.21</ele>
        <time>2014-07-17T13:07:06Z</time>
      </trkpt>
      <trkpt lat="45.822697794064879" lon="6.73395898193121">
        <ele>1277.25</ele>
        <time>2014-07-17T13:07:10Z</time>
      </trkpt>
      <trkpt lat="45.822670217603445" lon="6.733905421569943">
        <ele>1276.29</ele>
        <time>2014-07-17T13:07:13Z</time>
      </trkpt>
      <trkpt lat="45.822654124349356" lon="6.733691766858101">
        <ele>1272.9200000000001</ele>
        <time>2014-07-17T13:07:28Z</time>
      </trkpt>
      <trkpt lat="45.822618333622813" lon="6.733492612838745">
        <ele>1270.52</ele>
        <time>2014-07-17T13:07:41Z</time>
      </trkpt>
      <trkpt lat="45.822585811838508" lon="6.733252974227071">
        <ele>1267.1600000000001</ele>
        <time>2014-07-17T13:07:56Z</time>
      </trkpt>
      <trkpt lat="45.822551026940346" lon="6.73313956707716">
        <ele>1266.6700000000001</ele>
        <time>2014-07-17T13:08:02Z</time>
      </trkpt>
      <trkpt lat="45.822517750784755" lon="6.733123976737261">
        <ele>1266.1900000000001</ele>
        <time>2014-07-17T13:08:05Z</time>
      </trkpt>
      <trkpt lat="45.822436697781086" lon="6.7331254016608">
        <ele>1265.71</ele>
        <time>2014-07-17T13:08:16Z</time>
      </trkpt>
      <trkpt lat="45.822430662810802" lon="6.733110398054123">
        <ele>1265.71</ele>
        <time>2014-07-17T13:08:17Z</time>
      </trkpt>
      <trkpt lat="45.822424711659551" lon="6.73305599950254">
        <ele>1263.79</ele>
        <time>2014-07-17T13:08:20Z</time>
      </trkpt>
      <trkpt lat="45.822410881519318" lon="6.733024483546615">
        <ele>1263.3099999999999</ele>
        <time>2014-07-17T13:08:22Z</time>
      </trkpt>
      <trkpt lat="45.822408283129334" lon="6.732973018661141">
        <ele>1263.3099999999999</ele>
        <time>2014-07-17T13:08:25Z</time>
      </trkpt>
      <trkpt lat="45.822411384433508" lon="6.732858689501882">
        <ele>1262.3499999999999</ele>
        <time>2014-07-17T13:08:35Z</time>
      </trkpt>
      <trkpt lat="45.822377018630505" lon="6.732722315937281">
        <ele>1259.46</ele>
        <time>2014-07-17T13:08:44Z</time>
      </trkpt>
      <trkpt lat="45.822349693626165" lon="6.732493489980698">
        <ele>1257.54</ele>
        <time>2014-07-17T13:08:57Z</time>
      </trkpt>
      <trkpt lat="45.822293283417821" lon="6.732295090332627">
        <ele>1255.1400000000001</ele>
        <time>2014-07-17T13:09:12Z</time>
      </trkpt>
      <trkpt lat="45.822269981727004" lon="6.732183862477541">
        <ele>1253.22</ele>
        <time>2014-07-17T13:09:22Z</time>
      </trkpt>
      <trkpt lat="45.822230335325003" lon="6.732025109231472">
        <ele>1250.3299999999999</ele>
        <time>2014-07-17T13:09:33Z</time>
      </trkpt>
      <trkpt lat="45.822232011705637" lon="6.731944223865867">
        <ele>1249.8499999999999</ele>
        <time>2014-07-17T13:09:40Z</time>
      </trkpt>
      <trkpt lat="45.822223210707307" lon="6.731891920790076">
        <ele>1249.3699999999999</ele>
        <time>2014-07-17T13:09:43Z</time>
      </trkpt>
      <trkpt lat="45.822223294526339" lon="6.73181832768023">
        <ele>1247.9300000000001</ele>
        <time>2014-07-17T13:09:57Z</time>
      </trkpt>
      <trkpt lat="45.822218600660563" lon="6.731819417327642">
        <ele>1247.9300000000001</ele>
        <time>2014-07-17T13:10:00Z</time>
      </trkpt>
      <trkpt lat="45.822071665897965" lon="6.731641050428152">
        <ele>1246.01</ele>
        <time>2014-07-17T13:10:15Z</time>
      </trkpt>
      <trkpt lat="45.821868656203151" lon="6.731440052390099">
        <ele>1242.6400000000001</ele>
        <time>2014-07-17T13:10:34Z</time>
      </trkpt>
      <trkpt lat="45.821733875200152" lon="6.731213992461562">
        <ele>1241.2</ele>
        <time>2014-07-17T13:10:50Z</time>
      </trkpt>
      <trkpt lat="45.82163161598146" lon="6.731002014130354">
        <ele>1239.28</ele>
        <time>2014-07-17T13:11:04Z</time>
      </trkpt>
      <trkpt lat="45.821561543270946" lon="6.730787605047226">
        <ele>1237.3499999999999</ele>
        <time>2014-07-17T13:11:19Z</time>
      </trkpt>
      <trkpt lat="45.821507731452584" lon="6.730598341673613">
        <ele>1234.47</ele>
        <time>2014-07-17T13:11:33Z</time>
      </trkpt>
      <trkpt lat="45.821507563814521" lon="6.730577051639557">
        <ele>1233.99</ele>
        <time>2014-07-17T13:11:34Z</time>
      </trkpt>
      <trkpt lat="45.821522735059261" lon="6.730534974485636">
        <ele>1233.03</ele>
        <time>2014-07-17T13:11:37Z</time>
      </trkpt>
      <trkpt lat="45.821518041193485" lon="6.730504967272282">
        <ele>1232.55</ele>
        <time>2014-07-17T13:11:39Z</time>
      </trkpt>
      <trkpt lat="45.821531284600496" lon="6.730439756065607">
        <ele>1231.1099999999999</ele>
        <time>2014-07-17T13:11:44Z</time>
      </trkpt>
      <trkpt lat="45.821538828313351" lon="6.730416789650917">
        <ele>1231.1099999999999</ele>
        <time>2014-07-17T13:11:52Z</time>
      </trkpt>
      <trkpt lat="45.82166388630867" lon="6.730185616761446">
        <ele>1229.6600000000001</ele>
        <time>2014-07-17T13:12:09Z</time>
      </trkpt>
      <trkpt lat="45.821629352867603" lon="6.729930136352778">
        <ele>1227.26</ele>
        <time>2014-07-17T13:12:25Z</time>
      </trkpt>
      <trkpt lat="45.821617785841227" lon="6.729634338989854">
        <ele>1223.9000000000001</ele>
        <time>2014-07-17T13:12:42Z</time>
      </trkpt>
      <trkpt lat="45.821628347039223" lon="6.729435855522752">
        <ele>1222.9300000000001</ele>
        <time>2014-07-17T13:12:54Z</time>
      </trkpt>
      <trkpt lat="45.821614013984799" lon="6.729379529133439">
        <ele>1221.01</ele>
        <time>2014-07-17T13:12:57Z</time>
      </trkpt>
      <trkpt lat="45.821455176919699" lon="6.729293530806899">
        <ele>1220.05</ele>
        <time>2014-07-17T13:13:11Z</time>
      </trkpt>
      <trkpt lat="45.821282090619206" lon="6.729295207187533">
        <ele>1218.6099999999999</ele>
        <time>2014-07-17T13:13:26Z</time>
      </trkpt>
      <trkpt lat="45.821253005415201" lon="6.729276096448302">
        <ele>1218.6099999999999</ele>
        <time>2014-07-17T13:13:29Z</time>
      </trkpt>
      <trkpt lat="45.821244288235903" lon="6.729270899668336">
        <ele>1218.6099999999999</ele>
        <time>2014-07-17T13:13:30Z</time>
      </trkpt>
      <trkpt lat="45.821147225797176" lon="6.729084569960833">
        <ele>1216.6900000000001</ele>
        <time>2014-07-17T13:13:44Z</time>
      </trkpt>
      <trkpt lat="45.82109559327364" lon="6.728910058736801">
        <ele>1214.28</ele>
        <time>2014-07-17T13:13:58Z</time>
      </trkpt>
      <trkpt lat="45.821062820032239" lon="6.728781061246991">
        <ele>1212.8399999999999</ele>
        <time>2014-07-17T13:14:13Z</time>
      </trkpt>
      <trkpt lat="45.821065669879317" lon="6.728791035711765">
        <ele>1212.8399999999999</ele>
        <time>2014-07-17T13:14:15Z</time>
      </trkpt>
      <trkpt lat="45.82105946727097" lon="6.728753987699747">
        <ele>1212.3599999999999</ele>
        <time>2014-07-17T13:14:25Z</time>
      </trkpt>
      <trkpt lat="45.821059048175812" lon="6.728723645210266">
        <ele>1212.3599999999999</ele>
        <time>2014-07-17T13:14:27Z</time>
      </trkpt>
      <trkpt lat="45.821000291034579" lon="6.72847755253315">
        <ele>1209.48</ele>
        <time>2014-07-17T13:14:41Z</time>
      </trkpt>
      <trkpt lat="45.820950167253613" lon="6.72836858779192">
        <ele>1208.03</ele>
        <time>2014-07-17T13:14:54Z</time>
      </trkpt>
      <trkpt lat="45.820936923846602" lon="6.728327181190252">
        <ele>1207.55</ele>
        <time>2014-07-17T13:15:18Z</time>
      </trkpt>
      <trkpt lat="45.820917058736086" lon="6.728279404342175">
        <ele>1207.55</ele>
        <time>2014-07-17T13:15:35Z</time>
      </trkpt>
      <trkpt lat="45.820887889713049" lon="6.728302789852023">
        <ele>1207.0699999999999</ele>
        <time>2014-07-17T13:15:49Z</time>
      </trkpt>
      <trkpt lat="45.820862827822566" lon="6.728338915854693">
        <ele>1207.0699999999999</ele>
        <time>2014-07-17T13:15:52Z</time>
      </trkpt>
      <trkpt lat="45.820851009339094" lon="6.728335646912456">
        <ele>1207.0699999999999</ele>
        <time>2014-07-17T13:15:53Z</time>
      </trkpt>
      <trkpt lat="45.820844974368811" lon="6.72832315787673">
        <ele>1207.0699999999999</ele>
        <time>2014-07-17T13:15:54Z</time>
      </trkpt>
      <trkpt lat="45.820843297988176" lon="6.72828652895987">
        <ele>1207.0699999999999</ele>
        <time>2014-07-17T13:15:56Z</time>
      </trkpt>
      <trkpt lat="45.820872550830245" lon="6.728222910314798">
        <ele>1206.5899999999999</ele>
        <time>2014-07-17T13:16:01Z</time>
      </trkpt>
      <trkpt lat="45.820855535566807" lon="6.72819416038692">
        <ele>1206.5899999999999</ele>
        <time>2014-07-17T13:16:04Z</time>
      </trkpt>
      <trkpt lat="45.820823181420565" lon="6.728203715756536">
        <ele>1206.5899999999999</ele>
        <time>2014-07-17T13:16:18Z</time>
      </trkpt>
      <trkpt lat="45.820902222767472" lon="6.728187957778573">
        <ele>1207.0699999999999</ele>
        <time>2014-07-17T13:16:31Z</time>
      </trkpt>
      <trkpt lat="45.820941785350442" lon="6.728143868967891">
        <ele>1206.5899999999999</ele>
        <time>2014-07-17T13:16:39Z</time>
      </trkpt>
      <trkpt lat="45.820892667397857" lon="6.728029455989599">
        <ele>1206.1099999999999</ele>
        <time>2014-07-17T13:16:50Z</time>
      </trkpt>
      <trkpt lat="45.820871209725738" lon="6.72794840298593">
        <ele>1205.1500000000001</ele>
        <time>2014-07-17T13:16:55Z</time>
      </trkpt>
      <trkpt lat="45.820839107036591" lon="6.727766264230013">
        <ele>1203.71</ele>
        <time>2014-07-17T13:17:07Z</time>
      </trkpt>
      <trkpt lat="45.820833407342434" lon="6.727734748274088">
        <ele>1202.27</ele>
        <time>2014-07-17T13:17:09Z</time>
      </trkpt>
      <trkpt lat="45.820758808404207" lon="6.727639781311154">
        <ele>1201.3</ele>
        <time>2014-07-17T13:17:23Z</time>
      </trkpt>
      <trkpt lat="45.820768028497696" lon="6.727587394416332">
        <ele>1201.3</ele>
        <time>2014-07-17T13:17:29Z</time>
      </trkpt>
      <trkpt lat="45.820856625214219" lon="6.727495612576604">
        <ele>1199.8599999999999</ele>
        <time>2014-07-17T13:17:38Z</time>
      </trkpt>
      <trkpt lat="45.820860648527741" lon="6.727452697232366">
        <ele>1199.3800000000001</ele>
        <time>2014-07-17T13:17:41Z</time>
      </trkpt>
      <trkpt lat="45.820812536403537" lon="6.727450015023351">
        <ele>1198.9000000000001</ele>
        <time>2014-07-17T13:17:48Z</time>
      </trkpt>
      <trkpt lat="45.820751097053289" lon="6.727544395253062">
        <ele>1198.9000000000001</ele>
        <time>2014-07-17T13:18:03Z</time>
      </trkpt>
      <trkpt lat="45.82072033546865" lon="6.727576330304146">
        <ele>1198.9000000000001</ele>
        <time>2014-07-17T13:18:09Z</time>
      </trkpt>
      <trkpt lat="45.820661578327417" lon="6.727599715813994">
        <ele>1198.4200000000001</ele>
        <time>2014-07-17T13:18:19Z</time>
      </trkpt>
      <trkpt lat="45.820618411526084" lon="6.727599883452058">
        <ele>1198.4200000000001</ele>
        <time>2014-07-17T13:18:31Z</time>
      </trkpt>
      <trkpt lat="45.820575077086687" lon="6.727519584819675">
        <ele>1198.4200000000001</ele>
        <time>2014-07-17T13:18:37Z</time>
      </trkpt>
      <trkpt lat="45.820484217256308" lon="6.7275355104357">
        <ele>1197.9400000000001</ele>
        <time>2014-07-17T13:18:54Z</time>
      </trkpt>
      <trkpt lat="45.820454880595207" lon="6.727532995864749">
        <ele>1197.9400000000001</ele>
        <time>2014-07-17T13:18:59Z</time>
      </trkpt>
      <trkpt lat="45.820382377132773" lon="6.727520171552897">
        <ele>1197.46</ele>
        <time>2014-07-17T13:19:14Z</time>
      </trkpt>
      <trkpt lat="45.820360332727432" lon="6.727560069411993">
        <ele>1197.46</ele>
        <time>2014-07-17T13:19:34Z</time>
      </trkpt>
      <trkpt lat="45.820375084877014" lon="6.727529391646385">
        <ele>1197.46</ele>
        <time>2014-07-17T13:19:57Z</time>
      </trkpt>
      <trkpt lat="45.82020535133779" lon="6.727556632831693">
        <ele>1196.98</ele>
        <time>2014-07-17T13:20:12Z</time>
      </trkpt>
      <trkpt lat="45.820084987208247" lon="6.727591166272759">
        <ele>1196.5</ele>
        <time>2014-07-17T13:20:27Z</time>
      </trkpt>
      <trkpt lat="45.820059673860669" lon="6.727612372487783">
        <ele>1196.5</ele>
        <time>2014-07-17T13:20:35Z</time>
      </trkpt>
      <trkpt lat="45.819985410198569" lon="6.727659478783608">
        <ele>1196.5</ele>
        <time>2014-07-17T13:20:49Z</time>
      </trkpt>
      <trkpt lat="45.819986332207918" lon="6.727653695270419">
        <ele>1196.5</ele>
        <time>2014-07-17T13:20:59Z</time>
      </trkpt>
      <trkpt lat="45.819939896464348" lon="6.72766593284905">
        <ele>1196.02</ele>
        <time>2014-07-17T13:21:12Z</time>
      </trkpt>
      <trkpt lat="45.81984375603497" lon="6.727606253698468">
        <ele>1195.54</ele>
        <time>2014-07-17T13:21:27Z</time>
      </trkpt>
      <trkpt lat="45.819846857339144" lon="6.727537773549557">
        <ele>1196.02</ele>
        <time>2014-07-17T13:21:39Z</time>
      </trkpt>
      <trkpt lat="45.819831686094403" lon="6.727529894560576">
        <ele>1195.54</ele>
        <time>2014-07-17T13:21:57Z</time>
      </trkpt>
      <trkpt lat="45.819771587848663" lon="6.727508353069425">
        <ele>1195.0599999999999</ele>
        <time>2014-07-17T13:22:12Z</time>
      </trkpt>
      <trkpt lat="45.819755746051669" lon="6.727519584819675">
        <ele>1194.5799999999999</ele>
        <time>2014-07-17T13:22:28Z</time>
      </trkpt>
      <trkpt lat="45.819746945053339" lon="6.727531738579273">
        <ele>1194.5799999999999</ele>
        <time>2014-07-17T13:22:34Z</time>
      </trkpt>
      <trkpt lat="45.819766307249665" lon="6.727522350847721">
        <ele>1196.02</ele>
        <time>2014-07-17T13:22:43Z</time>
      </trkpt>
      <trkpt lat="45.819788854569197" lon="6.727537186816335">
        <ele>1196.98</ele>
        <time>2014-07-17T13:22:57Z</time>
      </trkpt>
      <trkpt lat="45.819771084934473" lon="6.727558309212327">
        <ele>1196.02</ele>
        <time>2014-07-17T13:23:15Z</time>
      </trkpt>
      <trkpt lat="45.819718111306429" lon="6.72752813436091">
        <ele>1195.0599999999999</ele>
        <time>2014-07-17T13:23:33Z</time>
      </trkpt>
      <trkpt lat="45.819765217602253" lon="6.727565601468086">
        <ele>1195.54</ele>
        <time>2014-07-17T13:23:52Z</time>
      </trkpt>
      <trkpt lat="45.819781059399247" lon="6.727583119645715">
        <ele>1195.54</ele>
        <time>2014-07-17T13:24:12Z</time>
      </trkpt>
      <trkpt lat="45.81977971829474" lon="6.727578341960907">
        <ele>1195.54</ele>
        <time>2014-07-17T13:24:29Z</time>
      </trkpt>
      <trkpt lat="45.819783573970199" lon="6.727588986977935">
        <ele>1195.54</ele>
        <time>2014-07-17T13:24:45Z</time>
      </trkpt>
      <trkpt lat="45.819761613383889" lon="6.727540707215667">
        <ele>1196.02</ele>
        <time>2014-07-17T13:25:05Z</time>
      </trkpt>
      <trkpt lat="45.819769408553839" lon="6.727550681680441">
        <ele>1195.54</ele>
        <time>2014-07-17T13:25:32Z</time>
      </trkpt>
      <trkpt lat="45.819797236472368" lon="6.727578341960907">
        <ele>1196.02</ele>
        <time>2014-07-17T13:26:03Z</time>
      </trkpt>
      <trkpt lat="45.819782903417945" lon="6.72760927118361">
        <ele>1195.54</ele>
        <time>2014-07-17T13:26:30Z</time>
      </trkpt>
      <trkpt lat="45.819745352491736" lon="6.727572977542877">
        <ele>1196.02</ele>
        <time>2014-07-17T13:26:51Z</time>
      </trkpt>
      <trkpt lat="45.8197264932096" lon="6.727632489055395">
        <ele>1196.98</ele>
        <time>2014-07-17T13:27:00Z</time>
      </trkpt>
      <trkpt lat="45.81970495171845" lon="6.727719996124506">
        <ele>1195.54</ele>
        <time>2014-07-17T13:27:18Z</time>
      </trkpt>
      <trkpt lat="45.819727163761854" lon="6.727753104642034">
        <ele>1195.54</ele>
        <time>2014-07-17T13:27:43Z</time>
      </trkpt>
      <trkpt lat="45.819705035537481" lon="6.727751092985272">
        <ele>1195.54</ele>
        <time>2014-07-17T13:27:55Z</time>
      </trkpt>
      <trkpt lat="45.819606967270374" lon="6.727743716910482">
        <ele>1195.0599999999999</ele>
        <time>2014-07-17T13:28:09Z</time>
      </trkpt>
      <trkpt lat="45.819490710273385" lon="6.727769868448377">
        <ele>1194.5799999999999</ele>
        <time>2014-07-17T13:28:23Z</time>
      </trkpt>
      <trkpt lat="45.819357102736831" lon="6.727885538712144">
        <ele>1194.0899999999999</ele>
        <time>2014-07-17T13:28:38Z</time>
      </trkpt>
      <trkpt lat="45.819172114133835" lon="6.728021325543523">
        <ele>1193.1300000000001</ele>
        <time>2014-07-17T13:28:55Z</time>
      </trkpt>
      <trkpt lat="45.819113440811634" lon="6.728075724095106">
        <ele>1194.0899999999999</ele>
        <time>2014-07-17T13:29:01Z</time>
      </trkpt>
      <trkpt lat="45.818916885182261" lon="6.72823179513216">
        <ele>1192.1700000000001</ele>
        <time>2014-07-17T13:29:21Z</time>
      </trkpt>
      <trkpt lat="45.818729633465409" lon="6.728373365476728">
        <ele>1191.21</ele>
        <time>2014-07-17T13:29:38Z</time>
      </trkpt>
      <trkpt lat="45.81853374838829" lon="6.728526838123798">
        <ele>1190.25</ele>
        <time>2014-07-17T13:29:55Z</time>
      </trkpt>
      <trkpt lat="45.818325541913509" lon="6.728634545579553">
        <ele>1189.29</ele>
        <time>2014-07-17T13:30:12Z</time>
      </trkpt>
      <trkpt lat="45.818117503076792" lon="6.728737391531467">
        <ele>1188.8099999999999</ele>
        <time>2014-07-17T13:30:28Z</time>
      </trkpt>
      <trkpt lat="45.818052375689149" lon="6.728718029335141">
        <ele>1188.8099999999999</ele>
        <time>2014-07-17T13:30:34Z</time>
      </trkpt>
      <trkpt lat="45.817876607179642" lon="6.728622978553176">
        <ele>1188.8099999999999</ele>
        <time>2014-07-17T13:30:50Z</time>
      </trkpt>
      <trkpt lat="45.817749621346593" lon="6.728568496182561">
        <ele>1190.25</ele>
        <time>2014-07-17T13:31:02Z</time>
      </trkpt>
      <trkpt lat="45.817555328831077" lon="6.728505380451679">
        <ele>1189.29</ele>
        <time>2014-07-17T13:31:20Z</time>
      </trkpt>
      <trkpt lat="45.817364389076829" lon="6.728467661887407">
        <ele>1189.29</ele>
        <time>2014-07-17T13:31:38Z</time>
      </trkpt>
      <trkpt lat="45.817192057147622" lon="6.728393314406276">
        <ele>1189.29</ele>
        <time>2014-07-17T13:31:54Z</time>
      </trkpt>
      <trkpt lat="45.817054677754641" lon="6.728335730731487">
        <ele>1189.77</ele>
        <time>2014-07-17T13:32:08Z</time>
      </trkpt>
      <trkpt lat="45.81703850068152" lon="6.728315865620971">
        <ele>1189.29</ele>
        <time>2014-07-17T13:32:10Z</time>
      </trkpt>
      <trkpt lat="45.81687287427485" lon="6.728162560611963">
        <ele>1189.77</ele>
        <time>2014-07-17T13:32:26Z</time>
      </trkpt>
      <trkpt lat="45.816699285060167" lon="6.727979835122824">
        <ele>1189.77</ele>
        <time>2014-07-17T13:32:44Z</time>
      </trkpt>
      <trkpt lat="45.816565342247486" lon="6.727788643911481">
        <ele>1189.77</ele>
        <time>2014-07-17T13:32:57Z</time>
      </trkpt>
      <trkpt lat="45.8165542781353" lon="6.727740531787276">
        <ele>1189.77</ele>
        <time>2014-07-17T13:33:00Z</time>
      </trkpt>
      <trkpt lat="45.816438440233469" lon="6.727536432445049">
        <ele>1188.8099999999999</ele>
        <time>2014-07-17T13:33:16Z</time>
      </trkpt>
      <trkpt lat="45.816371468827128" lon="6.727422019466758">
        <ele>1187.8499999999999</ele>
        <time>2014-07-17T13:33:32Z</time>
      </trkpt>
      <trkpt lat="45.816353531554341" lon="6.727381786331534">
        <ele>1188.3299999999999</ele>
        <time>2014-07-17T13:33:38Z</time>
      </trkpt>
      <trkpt lat="45.81628161482513" lon="6.727323029190302">
        <ele>1187.3699999999999</ele>
        <time>2014-07-17T13:33:48Z</time>
      </trkpt>
      <trkpt lat="45.816099559888244" lon="6.727198977023363">
        <ele>1186.8800000000001</ele>
        <time>2014-07-17T13:34:04Z</time>
      </trkpt>
      <trkpt lat="45.816043233498931" lon="6.727149775251746">
        <ele>1186.8800000000001</ele>
        <time>2014-07-17T13:34:10Z</time>
      </trkpt>
      <trkpt lat="45.816021356731653" lon="6.727106356993318">
        <ele>1187.3699999999999</ele>
        <time>2014-07-17T13:34:13Z</time>
      </trkpt>
      <trkpt lat="45.816079946234822" lon="6.726876525208354">
        <ele>1187.3699999999999</ele>
        <time>2014-07-17T13:34:27Z</time>
      </trkpt>
      <trkpt lat="45.816077683120966" lon="6.726859845221043">
        <ele>1187.3699999999999</ele>
        <time>2014-07-17T13:34:28Z</time>
      </trkpt>
      <trkpt lat="45.81591758877039" lon="6.726741241291165">
        <ele>1187.3699999999999</ele>
        <time>2014-07-17T13:34:44Z</time>
      </trkpt>
      <trkpt lat="45.815765289589763" lon="6.726582823321223">
        <ele>1187.3699999999999</ele>
        <time>2014-07-17T13:35:00Z</time>
      </trkpt>
      <trkpt lat="45.815719524398446" lon="6.726541835814714">
        <ele>1188.3299999999999</ele>
        <time>2014-07-17T13:35:05Z</time>
      </trkpt>
      <trkpt lat="45.815538726747036" lon="6.726413005962968">
        <ele>1187.3699999999999</ele>
        <time>2014-07-17T13:35:24Z</time>
      </trkpt>
      <trkpt lat="45.815443340688944" lon="6.726389955729246">
        <ele>1188.3299999999999</ele>
        <time>2014-07-17T13:35:34Z</time>
      </trkpt>
      <trkpt lat="45.815418865531683" lon="6.72640428878367">
        <ele>1188.8099999999999</ele>
        <time>2014-07-17T13:35:37Z</time>
      </trkpt>
      <trkpt lat="45.815395312383771" lon="6.726411748677492">
        <ele>1188.8099999999999</ele>
        <time>2014-07-17T13:35:39Z</time>
      </trkpt>
      <trkpt lat="45.815260028466582" lon="6.726406468078494">
        <ele>1189.29</ele>
        <time>2014-07-17T13:35:51Z</time>
      </trkpt>
      <trkpt lat="45.815182747319341" lon="6.726394565775991">
        <ele>1189.77</ele>
        <time>2014-07-17T13:35:59Z</time>
      </trkpt>
      <trkpt lat="45.815087696537375" lon="6.726406803354621">
        <ele>1189.77</ele>
        <time>2014-07-17T13:36:08Z</time>
      </trkpt>
      <trkpt lat="45.814899019896984" lon="6.726386686787009">
        <ele>1190.25</ele>
        <time>2014-07-17T13:36:25Z</time>
      </trkpt>
      <trkpt lat="45.814729873090982" lon="6.726372856646776">
        <ele>1191.6900000000001</ele>
        <time>2014-07-17T13:36:41Z</time>
      </trkpt>
      <trkpt lat="45.814564665779471" lon="6.726386016234756">
        <ele>1192.6500000000001</ele>
        <time>2014-07-17T13:36:57Z</time>
      </trkpt>
      <trkpt lat="45.81447422504425" lon="6.72639305703342">
        <ele>1194.0899999999999</ele>
        <time>2014-07-17T13:37:06Z</time>
      </trkpt>
      <trkpt lat="45.814326368272305" lon="6.726452987641096">
        <ele>1192.1700000000001</ele>
        <time>2014-07-17T13:37:20Z</time>
      </trkpt>
      <trkpt lat="45.814159987494349" lon="6.726493556052446">
        <ele>1192.6500000000001</ele>
        <time>2014-07-17T13:37:36Z</time>
      </trkpt>
      <trkpt lat="45.814028391614556" lon="6.726629845798016">
        <ele>1192.6500000000001</ele>
        <time>2014-07-17T13:37:49Z</time>
      </trkpt>
      <trkpt lat="45.813904507085681" lon="6.726771919056773">
        <ele>1192.6500000000001</ele>
        <time>2014-07-17T13:38:03Z</time>
      </trkpt>
      <trkpt lat="45.813761427998543" lon="6.726921619847417">
        <ele>1193.6099999999999</ele>
        <time>2014-07-17T13:38:18Z</time>
      </trkpt>
      <trkpt lat="45.813603261485696" lon="6.727012479677796">
        <ele>1194.0899999999999</ele>
        <time>2014-07-17T13:38:35Z</time>
      </trkpt>
      <trkpt lat="45.813431683927774" lon="6.727123623713851">
        <ele>1194.0899999999999</ele>
        <time>2014-07-17T13:38:50Z</time>
      </trkpt>
      <trkpt lat="45.813267314806581" lon="6.727148685604334">
        <ele>1195.0599999999999</ele>
        <time>2014-07-17T13:39:05Z</time>
      </trkpt>
      <trkpt lat="45.813243761658669" lon="6.727149356156588">
        <ele>1196.5</ele>
        <time>2014-07-17T13:39:07Z</time>
      </trkpt>
      <trkpt lat="45.813098670914769" lon="6.72707567922771">
        <ele>1195.54</ele>
        <time>2014-07-17T13:39:22Z</time>
      </trkpt>
      <trkpt lat="45.813023149967194" lon="6.727060591802001">
        <ele>1195.54</ele>
        <time>2014-07-17T13:39:29Z</time>
      </trkpt>
      <trkpt lat="45.812893062829971" lon="6.727034524083138">
        <ele>1196.5</ele>
        <time>2014-07-17T13:39:42Z</time>
      </trkpt>
      <trkpt lat="45.81273858435452" lon="6.727058328688145">
        <ele>1196.98</ele>
        <time>2014-07-17T13:39:57Z</time>
      </trkpt>
      <trkpt lat="45.812700698152184" lon="6.727055897936225">
        <ele>1196.5</ele>
        <time>2014-07-17T13:40:01Z</time>
      </trkpt>
      <trkpt lat="45.812592403963208" lon="6.726994961500168">
        <ele>1196.5</ele>
        <time>2014-07-17T13:40:11Z</time>
      </trkpt>
      <trkpt lat="45.812573041766882" lon="6.726988675072789">
        <ele>1196.5</ele>
        <time>2014-07-17T13:40:13Z</time>
      </trkpt>
      <trkpt lat="45.812423592433333" lon="6.726993704214692">
        <ele>1196.5</ele>
        <time>2014-07-17T13:40:27Z</time>
      </trkpt>
      <trkpt lat="45.812363661825657" lon="6.726989848539233">
        <ele>1196.98</ele>
        <time>2014-07-17T13:40:34Z</time>
      </trkpt>
      <trkpt lat="45.81222603097558" lon="6.726991189643741">
        <ele>1196.02</ele>
        <time>2014-07-17T13:40:48Z</time>
      </trkpt>
      <trkpt lat="45.812157550826669" lon="6.726983226835728">
        <ele>1197.9400000000001</ele>
        <time>2014-07-17T13:40:55Z</time>
      </trkpt>
      <trkpt lat="45.811955295503139" lon="6.726945172995329">
        <ele>1197.46</ele>
        <time>2014-07-17T13:41:12Z</time>
      </trkpt>
      <trkpt lat="45.811828225851059" lon="6.72701021656394">
        <ele>1196.98</ele>
        <time>2014-07-17T13:41:25Z</time>
      </trkpt>
      <trkpt lat="45.811764523386955" lon="6.727044247090817">
        <ele>1196.98</ele>
        <time>2014-07-17T13:41:30Z</time>
      </trkpt>
      <trkpt lat="45.811527147889137" lon="6.727090682834387">
        <ele>1197.46</ele>
        <time>2014-07-17T13:41:48Z</time>
      </trkpt>
      <trkpt lat="45.81136261112988" lon="6.727137537673116">
        <ele>1197.46</ele>
        <time>2014-07-17T13:42:00Z</time>
      </trkpt>
      <trkpt lat="45.811195392161608" lon="6.72715337947011">
        <ele>1198.9000000000001</ele>
        <time>2014-07-17T13:42:18Z</time>
      </trkpt>
      <trkpt lat="45.81098441965878" lon="6.727259578183293">
        <ele>1199.3800000000001</ele>
        <time>2014-07-17T13:42:36Z</time>
      </trkpt>
      <trkpt lat="45.810813680291176" lon="6.727390252053738">
        <ele>1199.3800000000001</ele>
        <time>2014-07-17T13:42:51Z</time>
      </trkpt>
      <trkpt lat="45.81076699309051" lon="6.727444315329194">
        <ele>1199.8599999999999</ele>
        <time>2014-07-17T13:42:56Z</time>
      </trkpt>
      <trkpt lat="45.810741009190679" lon="6.727666100487113">
        <ele>1199.8599999999999</ele>
        <time>2014-07-17T13:43:11Z</time>
      </trkpt>
      <trkpt lat="45.810721563175321" lon="6.727703902870417">
        <ele>1199.3800000000001</ele>
        <time>2014-07-17T13:43:14Z</time>
      </trkpt>
      <trkpt lat="45.810540514066815" lon="6.727731395512819">
        <ele>1198.4200000000001</ele>
        <time>2014-07-17T13:43:30Z</time>
      </trkpt>
      <trkpt lat="45.810378156602383" lon="6.727699711918831">
        <ele>1197.9400000000001</ele>
        <time>2014-07-17T13:43:45Z</time>
      </trkpt>
      <trkpt lat="45.810220828279853" lon="6.727574151009321">
        <ele>1197.9400000000001</ele>
        <time>2014-07-17T13:44:00Z</time>
      </trkpt>
      <trkpt lat="45.810017734766006" lon="6.727506509050727">
        <ele>1197.9400000000001</ele>
        <time>2014-07-17T13:44:18Z</time>
      </trkpt>
      <trkpt lat="45.809830902144313" lon="6.727428641170263">
        <ele>1198.4200000000001</ele>
        <time>2014-07-17T13:44:35Z</time>
      </trkpt>
      <trkpt lat="45.809736689552665" lon="6.72734783962369">
        <ele>1198.9000000000001</ele>
        <time>2014-07-17T13:44:45Z</time>
      </trkpt>
      <trkpt lat="45.809626635164022" lon="6.727301403880119">
        <ele>1198.9000000000001</ele>
        <time>2014-07-17T13:44:57Z</time>
      </trkpt>
      <trkpt lat="45.80952538177371" lon="6.727255806326866">
        <ele>1199.3800000000001</ele>
        <time>2014-07-17T13:45:09Z</time>
      </trkpt>
      <trkpt lat="45.80941298045218" lon="6.727217417210341">
        <ele>1199.3800000000001</ele>
        <time>2014-07-17T13:45:23Z</time>
      </trkpt>
      <trkpt lat="45.809250203892589" lon="6.727316491305828">
        <ele>1199.3800000000001</ele>
        <time>2014-07-17T13:45:37Z</time>
      </trkpt>
      <trkpt lat="45.809113746508956" lon="6.727389162406325">
        <ele>1200.3399999999999</ele>
        <time>2014-07-17T13:45:50Z</time>
      </trkpt>
      <trkpt lat="45.809016097337008" lon="6.72748270444572">
        <ele>1200.8199999999999</ele>
        <time>2014-07-17T13:46:04Z</time>
      </trkpt>
      <trkpt lat="45.808944851160049" lon="6.727522015571594">
        <ele>1201.79</ele>
        <time>2014-07-17T13:46:12Z</time>
      </trkpt>
      <trkpt lat="45.808918280526996" lon="6.727529978379607">
        <ele>1201.79</ele>
        <time>2014-07-17T13:46:14Z</time>
      </trkpt>
      <trkpt lat="45.808858433738351" lon="6.727578844875097">
        <ele>1201.79</ele>
        <time>2014-07-17T13:46:18Z</time>
      </trkpt>
      <trkpt lat="45.80871376208961" lon="6.727601559832692">
        <ele>1202.75</ele>
        <time>2014-07-17T13:46:30Z</time>
      </trkpt>
      <trkpt lat="45.808575376868248" lon="6.727378098294139">
        <ele>1203.23</ele>
        <time>2014-07-17T13:46:47Z</time>
      </trkpt>
      <trkpt lat="45.808424754068255" lon="6.727217249572277">
        <ele>1203.23</ele>
        <time>2014-07-17T13:47:04Z</time>
      </trkpt>
      <trkpt lat="45.80835266970098" lon="6.727143740281463">
        <ele>1204.6700000000001</ele>
        <time>2014-07-17T13:47:12Z</time>
      </trkpt>
      <trkpt lat="45.808165837079287" lon="6.726952716708183">
        <ele>1204.1900000000001</ele>
        <time>2014-07-17T13:47:31Z</time>
      </trkpt>
      <trkpt lat="45.807989062741399" lon="6.72683578915894">
        <ele>1204.6700000000001</ele>
        <time>2014-07-17T13:47:48Z</time>
      </trkpt>
      <trkpt lat="45.807794686406851" lon="6.726656500250101">
        <ele>1205.6300000000001</ele>
        <time>2014-07-17T13:48:07Z</time>
      </trkpt>
      <trkpt lat="45.807658648118377" lon="6.726408647373319">
        <ele>1205.6300000000001</ele>
        <time>2014-07-17T13:48:25Z</time>
      </trkpt>
      <trkpt lat="45.807513557374477" lon="6.7262870259583">
        <ele>1206.1099999999999</ele>
        <time>2014-07-17T13:48:42Z</time>
      </trkpt>
      <trkpt lat="45.807322198525071" lon="6.726156184449792">
        <ele>1206.5899999999999</ele>
        <time>2014-07-17T13:49:00Z</time>
      </trkpt>
      <trkpt lat="45.807201582938433" lon="6.726078819483519">
        <ele>1206.5899999999999</ele>
        <time>2014-07-17T13:49:17Z</time>
      </trkpt>
      <trkpt lat="45.807098401710391" lon="6.72611896879971">
        <ele>1207.0699999999999</ele>
        <time>2014-07-17T13:49:28Z</time>
      </trkpt>
      <trkpt lat="45.807045763358474" lon="6.726075047627091">
        <ele>1206.5899999999999</ele>
        <time>2014-07-17T13:49:33Z</time>
      </trkpt>
      <trkpt lat="45.807013744488358" lon="6.726033557206392">
        <ele>1206.5899999999999</ele>
        <time>2014-07-17T13:49:37Z</time>
      </trkpt>
      <trkpt lat="45.806876784190536" lon="6.725885448977351">
        <ele>1206.1099999999999</ele>
        <time>2014-07-17T13:49:54Z</time>
      </trkpt>
      <trkpt lat="45.80668450333178" lon="6.725764079019427">
        <ele>1205.1500000000001</ele>
        <time>2014-07-17T13:50:11Z</time>
      </trkpt>
      <trkpt lat="45.806575203314424" lon="6.72573683783412">
        <ele>1205.6300000000001</ele>
        <time>2014-07-17T13:50:28Z</time>
      </trkpt>
      <trkpt lat="45.806566653773189" lon="6.725735915824771">
        <ele>1205.6300000000001</ele>
        <time>2014-07-17T13:50:42Z</time>
      </trkpt>
      <trkpt lat="45.806560451164842" lon="6.725726360455155">
        <ele>1204.6700000000001</ele>
        <time>2014-07-17T13:51:01Z</time>
      </trkpt>
      <trkpt lat="45.806553829461336" lon="6.725716721266508">
        <ele>1204.6700000000001</ele>
        <time>2014-07-17T13:51:02Z</time>
      </trkpt>
      <trkpt lat="45.806430950760841" lon="6.725553693249822">
        <ele>1204.6700000000001</ele>
        <time>2014-07-17T13:51:16Z</time>
      </trkpt>
      <trkpt lat="45.806421479210258" lon="6.725548831745982">
        <ele>1204.6700000000001</ele>
        <time>2014-07-17T13:51:18Z</time>
      </trkpt>
      <trkpt lat="45.806356519460678" lon="6.725513711571693">
        <ele>1204.6700000000001</ele>
        <time>2014-07-17T13:51:29Z</time>
      </trkpt>
      <trkpt lat="45.806241855025291" lon="6.72545243985951">
        <ele>1204.1900000000001</ele>
        <time>2014-07-17T13:51:40Z</time>
      </trkpt>
      <trkpt lat="45.806189803406596" lon="6.725425031036139">
        <ele>1204.1900000000001</ele>
        <time>2014-07-17T13:51:44Z</time>
      </trkpt>
      <trkpt lat="45.806049825623631" lon="6.725372141227126">
        <ele>1203.71</ele>
        <time>2014-07-17T13:51:56Z</time>
      </trkpt>
      <trkpt lat="45.80592317506671" lon="6.725301146507263">
        <ele>1203.23</ele>
        <time>2014-07-17T13:52:08Z</time>
      </trkpt>
      <trkpt lat="45.805709520354867" lon="6.725161084905267">
        <ele>1203.23</ele>
        <time>2014-07-17T13:52:26Z</time>
      </trkpt>
      <trkpt lat="45.80568965524435" lon="6.725144404917955">
        <ele>1203.23</ele>
        <time>2014-07-17T13:52:28Z</time>
      </trkpt>
      <trkpt lat="45.805528974160552" lon="6.725084893405438">
        <ele>1202.75</ele>
        <time>2014-07-17T13:52:42Z</time>
      </trkpt>
      <trkpt lat="45.805381620302796" lon="6.724986406043172">
        <ele>1202.75</ele>
        <time>2014-07-17T13:52:57Z</time>
      </trkpt>
      <trkpt lat="45.80523569136858" lon="6.724934354424477">
        <ele>1202.27</ele>
        <time>2014-07-17T13:53:11Z</time>
      </trkpt>
      <trkpt lat="45.805146591737866" lon="6.72492329031229">
        <ele>1202.75</ele>
        <time>2014-07-17T13:53:18Z</time>
      </trkpt>
      <trkpt lat="45.804978283122182" lon="6.724882805719972">
        <ele>1202.75</ele>
        <time>2014-07-17T13:53:32Z</time>
      </trkpt>
      <trkpt lat="45.804803855717182" lon="6.724869562312961">
        <ele>1202.75</ele>
        <time>2014-07-17T13:53:45Z</time>
      </trkpt>
      <trkpt lat="45.804790193215013" lon="6.724868975579739">
        <ele>1203.23</ele>
        <time>2014-07-17T13:53:46Z</time>
      </trkpt>
      <trkpt lat="45.804652646183968" lon="6.72485045157373">
        <ele>1202.75</ele>
        <time>2014-07-17T13:53:58Z</time>
      </trkpt>
      <trkpt lat="45.804477967321873" lon="6.724849194288254">
        <ele>1202.75</ele>
        <time>2014-07-17T13:54:12Z</time>
      </trkpt>
      <trkpt lat="45.804307227954268" lon="6.724831676110625">
        <ele>1202.27</ele>
        <time>2014-07-17T13:54:26Z</time>
      </trkpt>
      <trkpt lat="45.804123748093843" lon="6.7247742600739">
        <ele>1201.79</ele>
        <time>2014-07-17T13:54:42Z</time>
      </trkpt>
      <trkpt lat="45.804001875221729" lon="6.724733440205455">
        <ele>1202.27</ele>
        <time>2014-07-17T13:54:55Z</time>
      </trkpt>
      <trkpt lat="45.803816299885511" lon="6.724649118259549">
        <ele>1202.75</ele>
        <time>2014-07-17T13:55:10Z</time>
      </trkpt>
      <trkpt lat="45.803707083687186" lon="6.724575189873576">
        <ele>1203.23</ele>
        <time>2014-07-17T13:55:20Z</time>
      </trkpt>
      <trkpt lat="45.803574817255139" lon="6.724485671147704">
        <ele>1202.75</ele>
        <time>2014-07-17T13:55:32Z</time>
      </trkpt>
      <trkpt lat="45.803408604115248" lon="6.724430937319994">
        <ele>1202.75</ele>
        <time>2014-07-17T13:55:47Z</time>
      </trkpt>
      <trkpt lat="45.803332580253482" lon="6.724432278424501">
        <ele>1202.75</ele>
        <time>2014-07-17T13:55:55Z</time>
      </trkpt>
      <trkpt lat="45.80322939902544" lon="6.724482402205467">
        <ele>1202.75</ele>
        <time>2014-07-17T13:56:07Z</time>
      </trkpt>
      <trkpt lat="45.80320299603045" lon="6.724491706117988">
        <ele>1202.27</ele>
        <time>2014-07-17T13:56:09Z</time>
      </trkpt>
      <trkpt lat="45.803164187818766" lon="6.724523054435849">
        <ele>1202.75</ele>
        <time>2014-07-17T13:56:12Z</time>
      </trkpt>
      <trkpt lat="45.802960759028792" lon="6.724633695557714">
        <ele>1202.27</ele>
        <time>2014-07-17T13:56:28Z</time>
      </trkpt>
      <trkpt lat="45.802794462069869" lon="6.724621960893273">
        <ele>1202.75</ele>
        <time>2014-07-17T13:56:42Z</time>
      </trkpt>
      <trkpt lat="45.802587177604437" lon="6.724591534584761">
        <ele>1202.75</ele>
        <time>2014-07-17T13:56:59Z</time>
      </trkpt>
      <trkpt lat="45.802573431283236" lon="6.724593630060554">
        <ele>1202.75</ele>
        <time>2014-07-17T13:57:00Z</time>
      </trkpt>
      <trkpt lat="45.802541244775057" lon="6.724593797698617">
        <ele>1202.75</ele>
        <time>2014-07-17T13:57:03Z</time>
      </trkpt>
      <trkpt lat="45.802436051890254" lon="6.724566807970405">
        <ele>1202.75</ele>
        <time>2014-07-17T13:57:12Z</time>
      </trkpt>
      <trkpt lat="45.802262797951698" lon="6.724563036113977">
        <ele>1202.75</ele>
        <time>2014-07-17T13:57:26Z</time>
      </trkpt>
      <trkpt lat="45.802127178758383" lon="6.724511235952377">
        <ele>1202.75</ele>
        <time>2014-07-17T13:57:38Z</time>
      </trkpt>
      <trkpt lat="45.801979741081595" lon="6.724473182111979">
        <ele>1203.23</ele>
        <time>2014-07-17T13:57:52Z</time>
      </trkpt>
      <trkpt lat="45.80183289013803" lon="6.724471589550376">
        <ele>1203.71</ele>
        <time>2014-07-17T13:58:04Z</time>
      </trkpt>
      <trkpt lat="45.80162669532001" lon="6.724421633407474">
        <ele>1203.23</ele>
        <time>2014-07-17T13:58:22Z</time>
      </trkpt>
      <trkpt lat="45.801444808021188" lon="6.724378634244204">
        <ele>1204.1900000000001</ele>
        <time>2014-07-17T13:58:38Z</time>
      </trkpt>
      <trkpt lat="45.801273146644235" lon="6.724310992285609">
        <ele>1204.6700000000001</ele>
        <time>2014-07-17T13:58:54Z</time>
      </trkpt>
      <trkpt lat="45.801086565479636" lon="6.724258018657565">
        <ele>1205.1500000000001</ele>
        <time>2014-07-17T13:59:12Z</time>
      </trkpt>
      <trkpt lat="45.800917167216539" lon="6.724224910140038">
        <ele>1205.1500000000001</ele>
        <time>2014-07-17T13:59:26Z</time>
      </trkpt>
      <trkpt lat="45.800791941583157" lon="6.724182832986116">
        <ele>1205.6300000000001</ele>
        <time>2014-07-17T13:59:39Z</time>
      </trkpt>
      <trkpt lat="45.800635702908039" lon="6.724149724468589">
        <ele>1205.1500000000001</ele>
        <time>2014-07-17T13:59:52Z</time>
      </trkpt>
      <trkpt lat="45.800596391782165" lon="6.724139079451561">
        <ele>1205.6300000000001</ele>
        <time>2014-07-17T13:59:56Z</time>
      </trkpt>
      <trkpt lat="45.80048818141222" lon="6.724122315645218">
        <ele>1206.1099999999999</ele>
        <time>2014-07-17T14:00:05Z</time>
      </trkpt>
      <trkpt lat="45.80043344758451" lon="6.724139163270593">
        <ele>1206.1099999999999</ele>
        <time>2014-07-17T14:00:09Z</time>
      </trkpt>
      <trkpt lat="45.800401512533426" lon="6.724136648699641">
        <ele>1206.1099999999999</ele>
        <time>2014-07-17T14:00:12Z</time>
      </trkpt>
      <trkpt lat="45.800228929147124" lon="6.724158357828856">
        <ele>1206.5899999999999</ele>
        <time>2014-07-17T14:00:27Z</time>
      </trkpt>
      <trkpt lat="45.800119042396545" lon="6.724119214341044">
        <ele>1207.0699999999999</ele>
        <time>2014-07-17T14:00:36Z</time>
      </trkpt>
      <trkpt lat="45.800092052668333" lon="6.72413120046258">
        <ele>1206.5899999999999</ele>
        <time>2014-07-17T14:00:38Z</time>
      </trkpt>
      <trkpt lat="45.799932796508074" lon="6.724008657038212">
        <ele>1207.0699999999999</ele>
        <time>2014-07-17T14:00:53Z</time>
      </trkpt>
      <trkpt lat="45.799921145662665" lon="6.724005471915007">
        <ele>1207.0699999999999</ele>
        <time>2014-07-17T14:00:54Z</time>
      </trkpt>
      <trkpt lat="45.799737833440304" lon="6.723906900733709">
        <ele>1207.55</ele>
        <time>2014-07-17T14:01:10Z</time>
      </trkpt>
      <trkpt lat="45.799689469859004" lon="6.72383121214807">
        <ele>1207.55</ele>
        <time>2014-07-17T14:01:16Z</time>
      </trkpt>
      <trkpt lat="45.799676477909088" lon="6.723825763911009">
        <ele>1207.55</ele>
        <time>2014-07-17T14:01:17Z</time>
      </trkpt>
      <trkpt lat="45.799655858427286" lon="6.723773628473282">
        <ele>1209.48</ele>
        <time>2014-07-17T14:01:20Z</time>
      </trkpt>
      <trkpt lat="45.799626773223281" lon="6.723695257678628">
        <ele>1208.51</ele>
        <time>2014-07-17T14:01:25Z</time>
      </trkpt>
      <trkpt lat="45.799581427127123" lon="6.723582940176129">
        <ele>1208.03</ele>
        <time>2014-07-17T14:01:32Z</time>
      </trkpt>
      <trkpt lat="45.799562567844987" lon="6.723567852750421">
        <ele>1208.51</ele>
        <time>2014-07-17T14:01:34Z</time>
      </trkpt>
      <trkpt lat="45.7995480671525" lon="6.723525691777468">
        <ele>1208.51</ele>
        <time>2014-07-17T14:01:37Z</time>
      </trkpt>
      <trkpt lat="45.799532812088728" lon="6.723431563004851">
        <ele>1208.51</ele>
        <time>2014-07-17T14:01:46Z</time>
      </trkpt>
      <trkpt lat="45.799460224807262" lon="6.723273228853941">
        <ele>1208.51</ele>
        <time>2014-07-17T14:01:52Z</time>
      </trkpt>
      <trkpt lat="45.799433318898082" lon="6.723201060667634">
        <ele>1209</ele>
        <time>2014-07-17T14:01:56Z</time>
      </trkpt>
      <trkpt lat="45.799316056072712" lon="6.72298782505095">
        <ele>1209</ele>
        <time>2014-07-17T14:02:13Z</time>
      </trkpt>
      <trkpt lat="45.799292670562863" lon="6.72294775955379">
        <ele>1209.48</ele>
        <time>2014-07-17T14:02:16Z</time>
      </trkpt>
      <trkpt lat="45.799209522083402" lon="6.722833849489689">
        <ele>1209.48</ele>
        <time>2014-07-17T14:02:24Z</time>
      </trkpt>
      <trkpt lat="45.799156213179231" lon="6.722802668809891">
        <ele>1209.48</ele>
        <time>2014-07-17T14:02:29Z</time>
      </trkpt>
      <trkpt lat="45.799075243994594" lon="6.722734523937106">
        <ele>1209.96</ele>
        <time>2014-07-17T14:02:38Z</time>
      </trkpt>
      <trkpt lat="45.798932919278741" lon="6.722628911957145">
        <ele>1209.96</ele>
        <time>2014-07-17T14:02:51Z</time>
      </trkpt>
      <trkpt lat="45.798835353925824" lon="6.722454400733113">
        <ele>1210.4400000000001</ele>
        <time>2014-07-17T14:03:06Z</time>
      </trkpt>
      <trkpt lat="45.798804089426994" lon="6.722440151497722">
        <ele>1210.4400000000001</ele>
        <time>2014-07-17T14:03:09Z</time>
      </trkpt>
      <trkpt lat="45.798752373084426" lon="6.722432523965836">
        <ele>1210.4400000000001</ele>
        <time>2014-07-17T14:03:12Z</time>
      </trkpt>
      <trkpt lat="45.798694705590606" lon="6.722358595579863">
        <ele>1210.9200000000001</ele>
        <time>2014-07-17T14:03:20Z</time>
      </trkpt>
      <trkpt lat="45.798673331737518" lon="6.72232816927135">
        <ele>1210.9200000000001</ele>
        <time>2014-07-17T14:03:23Z</time>
      </trkpt>
      <trkpt lat="45.798560846596956" lon="6.722150640562177">
        <ele>1210.9200000000001</ele>
        <time>2014-07-17T14:03:33Z</time>
      </trkpt>
      <trkpt lat="45.798485493287444" lon="6.722071850672364">
        <ele>1211.4000000000001</ele>
        <time>2014-07-17T14:03:44Z</time>
      </trkpt>
      <trkpt lat="45.798391699790955" lon="6.721995072439313">
        <ele>1211.8800000000001</ele>
        <time>2014-07-17T14:03:55Z</time>
      </trkpt>
      <trkpt lat="45.798359680920839" lon="6.721949893981218">
        <ele>1211.8800000000001</ele>
        <time>2014-07-17T14:03:59Z</time>
      </trkpt>
      <trkpt lat="45.798220289871097" lon="6.721831457689405">
        <ele>1212.3599999999999</ele>
        <time>2014-07-17T14:04:13Z</time>
      </trkpt>
      <trkpt lat="45.798175279051065" lon="6.721729701384902">
        <ele>1212.3599999999999</ele>
        <time>2014-07-17T14:04:21Z</time>
      </trkpt>
      <trkpt lat="45.798160694539547" lon="6.721684858202934">
        <ele>1212.3599999999999</ele>
        <time>2014-07-17T14:04:24Z</time>
      </trkpt>
      <trkpt lat="45.798012418672442" lon="6.721564074978232">
        <ele>1212.8399999999999</ele>
        <time>2014-07-17T14:04:37Z</time>
      </trkpt>
      <trkpt lat="45.797939412295818" lon="6.721481345593929">
        <ele>1212.8399999999999</ele>
        <time>2014-07-17T14:04:46Z</time>
      </trkpt>
      <trkpt lat="45.797909237444401" lon="6.721461899578571">
        <ele>1213.3199999999999</ele>
        <time>2014-07-17T14:04:49Z</time>
      </trkpt>
      <trkpt lat="45.79788233153522" lon="6.721426695585251">
        <ele>1212.8399999999999</ele>
        <time>2014-07-17T14:04:52Z</time>
      </trkpt>
      <trkpt lat="45.797866405919194" lon="6.72140222042799">
        <ele>1213.3199999999999</ele>
        <time>2014-07-17T14:04:53Z</time>
      </trkpt>
      <trkpt lat="45.797713017091155" lon="6.721298284828663">
        <ele>1213.8</ele>
        <time>2014-07-17T14:05:05Z</time>
      </trkpt>
      <trkpt lat="45.797663647681475" lon="6.721241287887096">
        <ele>1213.8</ele>
        <time>2014-07-17T14:05:10Z</time>
      </trkpt>
      <trkpt lat="45.797651410102844" lon="6.721241371706128">
        <ele>1213.8</ele>
        <time>2014-07-17T14:05:11Z</time>
      </trkpt>
      <trkpt lat="45.79760430380702" lon="6.721182279288769">
        <ele>1215.24</ele>
        <time>2014-07-17T14:05:23Z</time>
      </trkpt>
      <trkpt lat="45.797435157001019" lon="6.721064262092114">
        <ele>1214.28</ele>
        <time>2014-07-17T14:05:38Z</time>
      </trkpt>
      <trkpt lat="45.797259639948606" lon="6.720919674262404">
        <ele>1214.76</ele>
        <time>2014-07-17T14:05:54Z</time>
      </trkpt>
      <trkpt lat="45.797094600275159" lon="6.720799477770925">
        <ele>1215.24</ele>
        <time>2014-07-17T14:06:09Z</time>
      </trkpt>
      <trkpt lat="45.797075657173991" lon="6.720785982906818">
        <ele>1215.24</ele>
        <time>2014-07-17T14:06:11Z</time>
      </trkpt>
      <trkpt lat="45.797066688537598" lon="6.720775254070759">
        <ele>1215.24</ele>
        <time>2014-07-17T14:06:12Z</time>
      </trkpt>
      <trkpt lat="45.797038273885846" lon="6.720763854682446">
        <ele>1215.24</ele>
        <time>2014-07-17T14:06:15Z</time>
      </trkpt>
      <trkpt lat="45.797029891982675" lon="6.720755891874433">
        <ele>1215.24</ele>
        <time>2014-07-17T14:06:16Z</time>
      </trkpt>
      <trkpt lat="45.796861415728927" lon="6.720654303207994">
        <ele>1215.72</ele>
        <time>2014-07-17T14:06:31Z</time>
      </trkpt>
      <trkpt lat="45.796727892011404" lon="6.720524216070771">
        <ele>1216.21</ele>
        <time>2014-07-17T14:06:47Z</time>
      </trkpt>
      <trkpt lat="45.79655421897769" lon="6.720409635454416">
        <ele>1216.6900000000001</ele>
        <time>2014-07-17T14:07:01Z</time>
      </trkpt>
      <trkpt lat="45.796384233981371" lon="6.720249960198999">
        <ele>1217.1700000000001</ele>
        <time>2014-07-17T14:07:18Z</time>
      </trkpt>
      <trkpt lat="45.796357411891222" lon="6.720202770084143">
        <ele>1217.1700000000001</ele>
        <time>2014-07-17T14:07:21Z</time>
      </trkpt>
      <trkpt lat="45.796208465471864" lon="6.720045441761613">
        <ele>1217.1700000000001</ele>
        <time>2014-07-17T14:07:36Z</time>
      </trkpt>
      <trkpt lat="45.795979555696249" lon="6.719883251935244">
        <ele>1218.1300000000001</ele>
        <time>2014-07-17T14:07:54Z</time>
      </trkpt>
      <trkpt lat="45.795871010050178" lon="6.71980001963675">
        <ele>1218.6099999999999</ele>
        <time>2014-07-17T14:08:06Z</time>
      </trkpt>
      <trkpt lat="45.795734720304608" lon="6.719667417928577">
        <ele>1219.5699999999999</ele>
        <time>2014-07-17T14:08:21Z</time>
      </trkpt>
      <trkpt lat="45.795724410563707" lon="6.719662388786674">
        <ele>1219.5699999999999</ele>
        <time>2014-07-17T14:08:22Z</time>
      </trkpt>
      <trkpt lat="45.795534895732999" lon="6.719537246972323">
        <ele>1220.53</ele>
        <time>2014-07-17T14:08:38Z</time>
      </trkpt>
      <trkpt lat="45.795451914891601" lon="6.719481842592359">
        <ele>1220.53</ele>
        <time>2014-07-17T14:08:47Z</time>
      </trkpt>
      <trkpt lat="45.795390140265226" lon="6.719406405463815">
        <ele>1221.49</ele>
        <time>2014-07-17T14:08:55Z</time>
      </trkpt>
      <trkpt lat="45.795285534113646" lon="6.719352677464485">
        <ele>1221.97</ele>
        <time>2014-07-17T14:09:05Z</time>
      </trkpt>
      <trkpt lat="45.795142035931349" lon="6.719212867319584">
        <ele>1222.45</ele>
        <time>2014-07-17T14:09:20Z</time>
      </trkpt>
      <trkpt lat="45.795114627107978" lon="6.719187637791038">
        <ele>1222.45</ele>
        <time>2014-07-17T14:09:22Z</time>
      </trkpt>
      <trkpt lat="45.794956544414163" lon="6.719077499583364">
        <ele>1222.9300000000001</ele>
        <time>2014-07-17T14:09:36Z</time>
      </trkpt>
      <trkpt lat="45.794727299362421" lon="6.719039948657155">
        <ele>1223.4200000000001</ele>
        <time>2014-07-17T14:09:54Z</time>
      </trkpt>
      <trkpt lat="45.794653873890638" lon="6.71899477019906">
        <ele>1223.9000000000001</ele>
        <time>2014-07-17T14:10:00Z</time>
      </trkpt>
      <trkpt lat="45.794535772874951" lon="6.718784971162677">
        <ele>1224.3800000000001</ele>
        <time>2014-07-17T14:10:15Z</time>
      </trkpt>
      <trkpt lat="45.794375091791153" lon="6.718683382496238">
        <ele>1224.8599999999999</ele>
        <time>2014-07-17T14:10:30Z</time>
      </trkpt>
      <trkpt lat="45.794130926951766" lon="6.718660164624453">
        <ele>1226.3</ele>
        <time>2014-07-17T14:10:47Z</time>
      </trkpt>
      <trkpt lat="45.793944010511041" lon="6.718608951196075">
        <ele>1226.3</ele>
        <time>2014-07-17T14:11:04Z</time>
      </trkpt>
      <trkpt lat="45.793864130973816" lon="6.718506440520287">
        <ele>1226.3</ele>
        <time>2014-07-17T14:11:18Z</time>
      </trkpt>
      <trkpt lat="45.793846361339092" lon="6.718545164912939">
        <ele>1226.3</ele>
        <time>2014-07-17T14:11:33Z</time>
      </trkpt>
      <trkpt lat="45.793789364397526" lon="6.718582129105926">
        <ele>1226.3</ele>
        <time>2014-07-17T14:11:43Z</time>
      </trkpt>
      <trkpt lat="45.793730271980166" lon="6.718634096905589">
        <ele>1227.26</ele>
        <time>2014-07-17T14:12:00Z</time>
      </trkpt>
      <trkpt lat="45.793695235624909" lon="6.718652620911598">
        <ele>1227.74</ele>
        <time>2014-07-17T14:12:12Z</time>
      </trkpt>
      <trkpt lat="45.79372214153409" lon="6.718562599271536">
        <ele>1227.26</ele>
        <time>2014-07-17T14:12:37Z</time>
      </trkpt>
      <trkpt lat="45.793625665828586" lon="6.718649938702583">
        <ele>1227.74</ele>
        <time>2014-07-17T14:12:52Z</time>
      </trkpt>
      <trkpt lat="45.793533213436604" lon="6.718521360307932">
        <ele>1228.22</ele>
        <time>2014-07-17T14:13:04Z</time>
      </trkpt>
      <trkpt lat="45.793409580364823" lon="6.718428656458855">
        <ele>1228.7</ele>
        <time>2014-07-17T14:13:15Z</time>
      </trkpt>
      <trkpt lat="45.793387033045292" lon="6.718413485214114">
        <ele>1228.7</ele>
        <time>2014-07-17T14:13:17Z</time>
      </trkpt>
      <trkpt lat="45.793314026668668" lon="6.718366043642163">
        <ele>1228.22</ele>
        <time>2014-07-17T14:13:24Z</time>
      </trkpt>
      <trkpt lat="45.79318368807435" lon="6.718250876292586">
        <ele>1229.1800000000001</ele>
        <time>2014-07-17T14:13:40Z</time>
      </trkpt>
      <trkpt lat="45.793110011145473" lon="6.718161860480905">
        <ele>1229.1800000000001</ele>
        <time>2014-07-17T14:13:47Z</time>
      </trkpt>
      <trkpt lat="45.793103808537126" lon="6.718140318989754">
        <ele>1229.1800000000001</ele>
        <time>2014-07-17T14:13:48Z</time>
      </trkpt>
      <trkpt lat="45.793023677542806" lon="6.718074604868889">
        <ele>1229.1800000000001</ele>
        <time>2014-07-17T14:13:56Z</time>
      </trkpt>
      <trkpt lat="45.792906498536468" lon="6.71790218912065">
        <ele>1229.6600000000001</ele>
        <time>2014-07-17T14:14:09Z</time>
      </trkpt>
      <trkpt lat="45.792863080278039" lon="6.717828512191773">
        <ele>1230.1400000000001</ele>
        <time>2014-07-17T14:14:15Z</time>
      </trkpt>
      <trkpt lat="45.792778506875038" lon="6.71769012697041">
        <ele>1230.6199999999999</ele>
        <time>2014-07-17T14:14:27Z</time>
      </trkpt>
      <trkpt lat="45.792767023667693" lon="6.717682080343366">
        <ele>1230.6199999999999</ele>
        <time>2014-07-17T14:14:28Z</time>
      </trkpt>
      <trkpt lat="45.792671637609601" lon="6.717515951022506">
        <ele>1231.1099999999999</ele>
        <time>2014-07-17T14:14:40Z</time>
      </trkpt>
      <trkpt lat="45.792602738365531" lon="6.717425845563412">
        <ele>1231.1099999999999</ele>
        <time>2014-07-17T14:14:49Z</time>
      </trkpt>
      <trkpt lat="45.792495952919126" lon="6.717315288260579">
        <ele>1231.5899999999999</ele>
        <time>2014-07-17T14:15:01Z</time>
      </trkpt>
      <trkpt lat="45.792374415323138" lon="6.71717363409698">
        <ele>1232.0699999999999</ele>
        <time>2014-07-17T14:15:15Z</time>
      </trkpt>
      <trkpt lat="45.792243322357535" lon="6.71706223860383">
        <ele>1233.99</ele>
        <time>2014-07-17T14:15:29Z</time>
      </trkpt>
      <trkpt lat="45.792119773104787" lon="6.716968864202499">
        <ele>1233.03</ele>
        <time>2014-07-17T14:15:43Z</time>
      </trkpt>
      <trkpt lat="45.792022626847029" lon="6.716826623305678">
        <ele>1233.51</ele>
        <time>2014-07-17T14:15:55Z</time>
      </trkpt>
      <trkpt lat="45.791895054280758" lon="6.716714641079307">
        <ele>1233.99</ele>
        <time>2014-07-17T14:16:07Z</time>
      </trkpt>
      <trkpt lat="45.791767230257392" lon="6.716561755165458">
        <ele>1233.99</ele>
        <time>2014-07-17T14:16:20Z</time>
      </trkpt>
      <trkpt lat="45.791673269122839" lon="6.716429404914379">
        <ele>1234.47</ele>
        <time>2014-07-17T14:16:32Z</time>
      </trkpt>
      <trkpt lat="45.791592802852392" lon="6.716271406039596">
        <ele>1235.4300000000001</ele>
        <time>2014-07-17T14:16:48Z</time>
      </trkpt>
      <trkpt lat="45.791674945503473" lon="6.716165207326412">
        <ele>1235.9100000000001</ele>
        <time>2014-07-17T14:17:02Z</time>
      </trkpt>
      <trkpt lat="45.791933946311474" lon="6.715818280354142">
        <ele>1235.4300000000001</ele>
        <time>2014-07-17T14:17:15Z</time>
      </trkpt>
      <trkpt lat="45.791971664875746" lon="6.715795733034611">
        <ele>1235.4300000000001</ele>
        <time>2014-07-17T14:17:28Z</time>
      </trkpt>
      <trkpt lat="45.791970072314143" lon="6.715798079967499">
        <ele>1236.8699999999999</ele>
        <time>2014-07-17T14:17:30Z</time>
      </trkpt>
      <trkpt lat="45.791877452284098" lon="6.715930178761482">
        <ele>1235.4300000000001</ele>
        <time>2014-07-17T14:17:47Z</time>
      </trkpt>
      <trkpt lat="45.791868986561894" lon="6.715890364721417">
        <ele>1235.4300000000001</ele>
        <time>2014-07-17T14:17:56Z</time>
      </trkpt>
      <trkpt lat="45.791871920228004" lon="6.715875025838614">
        <ele>1235.4300000000001</ele>
        <time>2014-07-17T14:17:57Z</time>
      </trkpt>
      <trkpt lat="45.791949452832341" lon="6.715795733034611">
        <ele>1235.4300000000001</ele>
        <time>2014-07-17T14:18:05Z</time>
      </trkpt>
      <trkpt lat="45.79196797683835" lon="6.715688779950142">
        <ele>1234.95</ele>
        <time>2014-07-17T14:18:20Z</time>
      </trkpt>
      <trkpt lat="45.791960936039686" lon="6.715688360854983">
        <ele>1234.95</ele>
        <time>2014-07-17T14:18:26Z</time>
      </trkpt>
      <trkpt lat="45.791940987110138" lon="6.715688528493047">
        <ele>1234.95</ele>
        <time>2014-07-17T14:18:28Z</time>
      </trkpt>
      <trkpt lat="45.791859515011311" lon="6.715643769130111">
        <ele>1235.4300000000001</ele>
        <time>2014-07-17T14:18:41Z</time>
      </trkpt>
      <trkpt lat="45.791856748983264" lon="6.715644858777523">
        <ele>1234.95</ele>
        <time>2014-07-17T14:18:42Z</time>
      </trkpt>
      <trkpt lat="45.791848115622997" lon="6.715695988386869">
        <ele>1235.4300000000001</ele>
        <time>2014-07-17T14:18:55Z</time>
      </trkpt>
      <trkpt lat="45.791822466999292" lon="6.715711243450642">
        <ele>1235.4300000000001</ele>
        <time>2014-07-17T14:19:14Z</time>
      </trkpt>
      <trkpt lat="45.791822383180261" lon="6.715743681415916">
        <ele>1234.95</ele>
        <time>2014-07-17T14:19:30Z</time>
      </trkpt>
      <trkpt lat="45.791838308796287" lon="6.715795397758484">
        <ele>1235.4300000000001</ele>
        <time>2014-07-17T14:19:44Z</time>
      </trkpt>
      <trkpt lat="45.791849372908473" lon="6.715689618140459">
        <ele>1235.4300000000001</ele>
        <time>2014-07-17T14:19:48Z</time>
      </trkpt>
      <trkpt lat="45.791803020983934" lon="6.715559363365173">
        <ele>1235.4300000000001</ele>
        <time>2014-07-17T14:19:56Z</time>
      </trkpt>
      <trkpt lat="45.791793214157224" lon="6.715555256232619">
        <ele>1235.4300000000001</ele>
        <time>2014-07-17T14:19:57Z</time>
      </trkpt>
      <trkpt lat="45.791673269122839" lon="6.715503120794892">
        <ele>1236.3900000000001</ele>
        <time>2014-07-17T14:20:10Z</time>
      </trkpt>
      <trkpt lat="45.791578385978937" lon="6.715388037264347">
        <ele>1235.9100000000001</ele>
        <time>2014-07-17T14:20:24Z</time>
      </trkpt>
      <trkpt lat="45.791531866416335" lon="6.715414272621274">
        <ele>1235.9100000000001</ele>
        <time>2014-07-17T14:20:33Z</time>
      </trkpt>
      <trkpt lat="45.79151401296258" lon="6.7154301982373">
        <ele>1234.95</ele>
        <time>2014-07-17T14:20:45Z</time>
      </trkpt>
      <trkpt lat="45.791638903319836" lon="6.715314192697406">
        <ele>1234.95</ele>
        <time>2014-07-17T14:21:03Z</time>
      </trkpt>
      <trkpt lat="45.79161275178194" lon="6.71530656516552">
        <ele>1234.95</ele>
        <time>2014-07-17T14:21:07Z</time>
      </trkpt>
      <trkpt lat="45.791520467028022" lon="6.715333051979542">
        <ele>1234.95</ele>
        <time>2014-07-17T14:21:21Z</time>
      </trkpt>
      <trkpt lat="45.791466571390629" lon="6.715471688657999">
        <ele>1234.47</ele>
        <time>2014-07-17T14:21:52Z</time>
      </trkpt>
      <trkpt lat="45.791493225842714" lon="6.715492643415928">
        <ele>1233.99</ele>
        <time>2014-07-17T14:22:24Z</time>
      </trkpt>
      <trkpt lat="45.79147931188345" lon="6.715642511844635">
        <ele>1233.99</ele>
        <time>2014-07-17T14:22:57Z</time>
      </trkpt>
      <trkpt lat="45.79154385253787" lon="6.715489961206913">
        <ele>1233.99</ele>
        <time>2014-07-17T14:23:34Z</time>
      </trkpt>
      <trkpt lat="45.791624989360571" lon="6.715343948453665">
        <ele>1233.51</ele>
        <time>2014-07-17T14:24:13Z</time>
      </trkpt>
      <trkpt lat="45.791618702933192" lon="6.715281419456005">
        <ele>1233.03</ele>
        <time>2014-07-17T14:24:48Z</time>
      </trkpt>
      <trkpt lat="45.791692044585943" lon="6.715117134153843">
        <ele>1233.03</ele>
        <time>2014-07-17T14:25:15Z</time>
      </trkpt>
      <trkpt lat="45.791647117584944" lon="6.715159295126796">
        <ele>1233.99</ele>
        <time>2014-07-17T14:25:35Z</time>
      </trkpt>
      <trkpt lat="45.791410831734538" lon="6.715548215433955">
        <ele>1232.55</ele>
        <time>2014-07-17T14:26:12Z</time>
      </trkpt>
      <trkpt lat="45.791423069313169" lon="6.715570259839296">
        <ele>1232.0699999999999</ele>
        <time>2014-07-17T14:26:42Z</time>
      </trkpt>
      <trkpt lat="45.791482497006655" lon="6.715525835752487">
        <ele>1231.5899999999999</ele>
        <time>2014-07-17T14:27:11Z</time>
      </trkpt>
      <trkpt lat="45.791492890566587" lon="6.715432880446315">
        <ele>1231.5899999999999</ele>
        <time>2014-07-17T14:27:33Z</time>
      </trkpt>
      <trkpt lat="45.79148811288178" lon="6.715413350611925">
        <ele>1231.1099999999999</ele>
        <time>2014-07-17T14:28:07Z</time>
      </trkpt>
      <trkpt lat="45.791392140090466" lon="6.715454505756497">
        <ele>1230.6199999999999</ele>
        <time>2014-07-17T14:28:46Z</time>
      </trkpt>
      <trkpt lat="45.791415525600314" lon="6.715494152158499">
        <ele>1230.1400000000001</ele>
        <time>2014-07-17T14:29:24Z</time>
      </trkpt>
      <trkpt lat="45.791435725986958" lon="6.715517118573189">
        <ele>1229.6600000000001</ele>
        <time>2014-07-17T14:30:08Z</time>
      </trkpt>
      <trkpt lat="45.791539074853063" lon="6.715499181300402">
        <ele>1229.1800000000001</ele>
        <time>2014-07-17T14:30:39Z</time>
      </trkpt>
      <trkpt lat="45.791486436501145" lon="6.715411255136132">
        <ele>1229.6600000000001</ele>
        <time>2014-07-17T14:30:51Z</time>
      </trkpt>
      <trkpt lat="45.791554916650057" lon="6.715342774987221">
        <ele>1230.1400000000001</ele>
        <time>2014-07-17T14:31:05Z</time>
      </trkpt>
      <trkpt lat="45.791538404300809" lon="6.715369261801243">
        <ele>1230.1400000000001</ele>
        <time>2014-07-17T14:31:19Z</time>
      </trkpt>
      <trkpt lat="45.791517533361912" lon="6.715339422225952">
        <ele>1229.6600000000001</ele>
        <time>2014-07-17T14:31:44Z</time>
      </trkpt>
      <trkpt lat="45.791511917486787" lon="6.715406393632293">
        <ele>1230.1400000000001</ele>
        <time>2014-07-17T14:32:07Z</time>
      </trkpt>
      <trkpt lat="45.791565058752894" lon="6.71537546440959">
        <ele>1230.1400000000001</ele>
        <time>2014-07-17T14:32:41Z</time>
      </trkpt>
      <trkpt lat="45.791566148400307" lon="6.715354761108756">
        <ele>1230.1400000000001</ele>
        <time>2014-07-17T14:33:01Z</time>
      </trkpt>
      <trkpt lat="45.791564807295799" lon="6.715369094163179">
        <ele>1229.6600000000001</ele>
        <time>2014-07-17T14:33:21Z</time>
      </trkpt>
      <trkpt lat="45.791601184755564" lon="6.715277479961515">
        <ele>1229.6600000000001</ele>
        <time>2014-07-17T14:34:04Z</time>
      </trkpt>
      <trkpt lat="45.791579056531191" lon="6.715298686176539">
        <ele>1229.6600000000001</ele>
        <time>2014-07-17T14:34:40Z</time>
      </trkpt>
      <trkpt lat="45.791565226390958" lon="6.715358449146152">
        <ele>1229.6600000000001</ele>
        <time>2014-07-17T14:35:28Z</time>
      </trkpt>
      <trkpt lat="45.791626498103142" lon="6.71535300090909">
        <ele>1230.1400000000001</ele>
        <time>2014-07-17T14:35:51Z</time>
      </trkpt>
      <trkpt lat="45.791631024330854" lon="6.7153334710747">
        <ele>1230.6199999999999</ele>
        <time>2014-07-17T14:35:56Z</time>
      </trkpt>
      <trkpt lat="45.791639909148216" lon="6.715344451367855">
        <ele>1230.6199999999999</ele>
        <time>2014-07-17T14:35:58Z</time>
      </trkpt>
      <trkpt lat="45.791643681004643" lon="6.715470934286714">
        <ele>1230.6199999999999</ele>
        <time>2014-07-17T14:36:09Z</time>
      </trkpt>
      <trkpt lat="45.791698079556227" lon="6.715599093586206">
        <ele>1230.1400000000001</ele>
        <time>2014-07-17T14:36:25Z</time>
      </trkpt>
      <trkpt lat="45.791705874726176" lon="6.715687857940793">
        <ele>1229.1800000000001</ele>
        <time>2014-07-17T14:36:37Z</time>
      </trkpt>
      <trkpt lat="45.791632365435362" lon="6.715774945914745">
        <ele>1229.1800000000001</ele>
        <time>2014-07-17T14:37:19Z</time>
      </trkpt>
      <trkpt lat="45.791699420660734" lon="6.715693725273013">
        <ele>1228.7</ele>
        <time>2014-07-17T14:37:39Z</time>
      </trkpt>
      <trkpt lat="45.791703360155225" lon="6.715667154639959">
        <ele>1229.1800000000001</ele>
        <time>2014-07-17T14:38:03Z</time>
      </trkpt>
      <trkpt lat="45.791710400953889" lon="6.71567059122026">
        <ele>1228.7</ele>
        <time>2014-07-17T14:38:28Z</time>
      </trkpt>
      <trkpt lat="45.791697911918163" lon="6.715689450502396">
        <ele>1229.1800000000001</ele>
        <time>2014-07-17T14:38:57Z</time>
      </trkpt>
      <trkpt lat="45.791687769815326" lon="6.715661203488708">
        <ele>1229.1800000000001</ele>
        <time>2014-07-17T14:39:33Z</time>
      </trkpt>
      <trkpt lat="45.791679387912154" lon="6.715656174346805">
        <ele>1228.7</ele>
        <time>2014-07-17T14:40:12Z</time>
      </trkpt>
      <trkpt lat="45.791712328791618" lon="6.715684337541461">
        <ele>1228.22</ele>
        <time>2014-07-17T14:40:52Z</time>
      </trkpt>
      <trkpt lat="45.791774187237024" lon="6.715681403875351">
        <ele>1228.22</ele>
        <time>2014-07-17T14:41:33Z</time>
      </trkpt>
      <trkpt lat="45.791697995737195" lon="6.715659778565168">
        <ele>1228.7</ele>
        <time>2014-07-17T14:42:05Z</time>
      </trkpt>
      <trkpt lat="45.791763877496123" lon="6.715691294521093">
        <ele>1228.22</ele>
        <time>2014-07-17T14:42:41Z</time>
      </trkpt>
      <trkpt lat="45.79170704819262" lon="6.715652151033282">
        <ele>1228.22</ele>
        <time>2014-07-17T14:43:16Z</time>
      </trkpt>
      <trkpt lat="45.791707299649715" lon="6.715649720281363">
        <ele>1229.1800000000001</ele>
        <time>2014-07-17T14:43:23Z</time>
      </trkpt>
      <trkpt lat="45.791673520579934" lon="6.715674195438623">
        <ele>1229.6600000000001</ele>
        <time>2014-07-17T14:43:32Z</time>
      </trkpt>
      <trkpt lat="45.791680812835693" lon="6.715629519894719">
        <ele>1229.1800000000001</ele>
        <time>2014-07-17T14:43:52Z</time>
      </trkpt>
      <trkpt lat="45.791660947725177" lon="6.715641841292381">
        <ele>1229.6600000000001</ele>
        <time>2014-07-17T14:44:12Z</time>
      </trkpt>
      <trkpt lat="45.791672682389617" lon="6.715644942596555">
        <ele>1229.6600000000001</ele>
        <time>2014-07-17T14:44:33Z</time>
      </trkpt>
      <trkpt lat="45.7917202077806" lon="6.715688025578857">
        <ele>1229.6600000000001</ele>
        <time>2014-07-17T14:44:55Z</time>
      </trkpt>
      <trkpt lat="45.791708137840033" lon="6.715691545978189">
        <ele>1229.1800000000001</ele>
        <time>2014-07-17T14:45:06Z</time>
      </trkpt>
      <trkpt lat="45.791757255792618" lon="6.715892041102052">
        <ele>1228.7</ele>
        <time>2014-07-17T14:45:20Z</time>
      </trkpt>
      <trkpt lat="45.791760189458728" lon="6.71590126119554">
        <ele>1228.7</ele>
        <time>2014-07-17T14:45:21Z</time>
      </trkpt>
      <trkpt lat="45.791761949658394" lon="6.716085579246283">
        <ele>1228.22</ele>
        <time>2014-07-17T14:45:36Z</time>
      </trkpt>
      <trkpt lat="45.791699839755893" lon="6.716154143214226">
        <ele>1228.22</ele>
        <time>2014-07-17T14:45:45Z</time>
      </trkpt>
      <trkpt lat="45.791552653536201" lon="6.716106031090021">
        <ele>1229.1800000000001</ele>
        <time>2014-07-17T14:46:01Z</time>
      </trkpt>
      <trkpt lat="45.791468750685453" lon="6.716046268120408">
        <ele>1231.1099999999999</ele>
        <time>2014-07-17T14:46:18Z</time>
      </trkpt>
      <trkpt lat="45.7914231531322" lon="6.715997150167823">
        <ele>1232.0699999999999</ele>
        <time>2014-07-17T14:46:32Z</time>
      </trkpt>
      <trkpt lat="45.791330449283123" lon="6.715880306437612">
        <ele>1234.47</ele>
        <time>2014-07-17T14:46:49Z</time>
      </trkpt>
      <trkpt lat="45.791217461228371" lon="6.715826829895377">
        <ele>1237.3499999999999</ele>
        <time>2014-07-17T14:47:07Z</time>
      </trkpt>
      <trkpt lat="45.791130876168609" lon="6.715724319219589">
        <ele>1239.28</ele>
        <time>2014-07-17T14:47:23Z</time>
      </trkpt>
      <trkpt lat="45.791039932519197" lon="6.715666651725769">
        <ele>1241.6800000000001</ele>
        <time>2014-07-17T14:47:38Z</time>
      </trkpt>
      <trkpt lat="45.790980001911521" lon="6.715648965910077">
        <ele>1245.04</ele>
        <time>2014-07-17T14:47:48Z</time>
      </trkpt>
      <trkpt lat="45.790885286405683" lon="6.715577049180865">
        <ele>1246.49</ele>
        <time>2014-07-17T14:48:05Z</time>
      </trkpt>
      <trkpt lat="45.790798449888825" lon="6.71551913022995">
        <ele>1249.3699999999999</ele>
        <time>2014-07-17T14:48:24Z</time>
      </trkpt>
      <trkpt lat="45.790732568129897" lon="6.715439166873694">
        <ele>1251.77</ele>
        <time>2014-07-17T14:48:40Z</time>
      </trkpt>
      <trkpt lat="45.790639445185661" lon="6.715407902374864">
        <ele>1254.1800000000001</ele>
        <time>2014-07-17T14:48:54Z</time>
      </trkpt>
      <trkpt lat="45.790531570091844" lon="6.715350737795234">
        <ele>1256.5799999999999</ele>
        <time>2014-07-17T14:49:09Z</time>
      </trkpt>
      <trkpt lat="45.790459234267473" lon="6.715266918763518">
        <ele>1258.98</ele>
        <time>2014-07-17T14:49:24Z</time>
      </trkpt>
      <trkpt lat="45.790369380265474" lon="6.715183854103088">
        <ele>1260.9100000000001</ele>
        <time>2014-07-17T14:49:39Z</time>
      </trkpt>
      <trkpt lat="45.790281621739268" lon="6.715101962909102">
        <ele>1263.3099999999999</ele>
        <time>2014-07-17T14:49:54Z</time>
      </trkpt>
      <trkpt lat="45.790177853778005" lon="6.715032560750842">
        <ele>1266.1900000000001</ele>
        <time>2014-07-17T14:50:11Z</time>
      </trkpt>
      <trkpt lat="45.790073750540614" lon="6.714986292645335">
        <ele>1269.0799999999999</ele>
        <time>2014-07-17T14:50:28Z</time>
      </trkpt>
      <trkpt lat="45.789997391402721" lon="6.714924182742834">
        <ele>1271.48</ele>
        <time>2014-07-17T14:50:42Z</time>
      </trkpt>
      <trkpt lat="45.789903933182359" lon="6.714859558269382">
        <ele>1274.8499999999999</ele>
        <time>2014-07-17T14:50:58Z</time>
      </trkpt>
      <trkpt lat="45.789849534630775" lon="6.71479158103466">
        <ele>1277.25</ele>
        <time>2014-07-17T14:51:12Z</time>
      </trkpt>
      <trkpt lat="45.78976521268487" lon="6.714711869135499">
        <ele>1280.1300000000001</ele>
        <time>2014-07-17T14:51:29Z</time>
      </trkpt>
      <trkpt lat="45.789655912667513" lon="6.714700805023313">
        <ele>1282.54</ele>
        <time>2014-07-17T14:51:47Z</time>
      </trkpt>
      <trkpt lat="45.789506714791059" lon="6.714657889679074">
        <ele>1285.9000000000001</ele>
        <time>2014-07-17T14:52:03Z</time>
      </trkpt>
      <trkpt lat="45.789409400895238" lon="6.714601311832666">
        <ele>1289.27</ele>
        <time>2014-07-17T14:52:20Z</time>
      </trkpt>
      <trkpt lat="45.789336478337646" lon="6.714533837512136">
        <ele>1290.23</ele>
        <time>2014-07-17T14:52:33Z</time>
      </trkpt>
      <trkpt lat="45.789291970431805" lon="6.714509781450033">
        <ele>1290.23</ele>
        <time>2014-07-17T14:52:38Z</time>
      </trkpt>
      <trkpt lat="45.789171103388071" lon="6.714375168085098">
        <ele>1289.75</ele>
        <time>2014-07-17T14:52:54Z</time>
      </trkpt>
      <trkpt lat="45.789054175838828" lon="6.714302664622665">
        <ele>1291.6700000000001</ele>
        <time>2014-07-17T14:53:08Z</time>
      </trkpt>
      <trkpt lat="45.788924675434828" lon="6.714247511699796">
        <ele>1293.5899999999999</ele>
        <time>2014-07-17T14:53:23Z</time>
      </trkpt>
      <trkpt lat="45.788771789520979" lon="6.71419789083302">
        <ele>1294.0699999999999</ele>
        <time>2014-07-17T14:53:39Z</time>
      </trkpt>
      <trkpt lat="45.788758378475904" lon="6.714196046814323">
        <ele>1294.0699999999999</ele>
        <time>2014-07-17T14:53:40Z</time>
      </trkpt>
      <trkpt lat="45.788747649639845" lon="6.714190430939198">
        <ele>1294.0699999999999</ele>
        <time>2014-07-17T14:53:41Z</time>
      </trkpt>
      <trkpt lat="45.788609767332673" lon="6.714151371270418">
        <ele>1295.03</ele>
        <time>2014-07-17T14:53:56Z</time>
      </trkpt>
      <trkpt lat="45.788466520607471" lon="6.714077359065414">
        <ele>1296.96</ele>
        <time>2014-07-17T14:54:12Z</time>
      </trkpt>
      <trkpt lat="45.788351101800799" lon="6.713995970785618">
        <ele>1299.3599999999999</ele>
        <time>2014-07-17T14:54:26Z</time>
      </trkpt>
      <trkpt lat="45.788230402395129" lon="6.713917599990964">
        <ele>1301.28</ele>
        <time>2014-07-17T14:54:41Z</time>
      </trkpt>
      <trkpt lat="45.788126718252897" lon="6.713821208104491">
        <ele>1303.2</ele>
        <time>2014-07-17T14:54:55Z</time>
      </trkpt>
      <trkpt lat="45.788080953061581" lon="6.713787596672773">
        <ele>1303.6900000000001</ele>
        <time>2014-07-17T14:55:00Z</time>
      </trkpt>
      <trkpt lat="45.787918260321021" lon="6.713666897267103">
        <ele>1304.6500000000001</ele>
        <time>2014-07-17T14:55:17Z</time>
      </trkpt>
      <trkpt lat="45.787783311679959" lon="6.713607804849744">
        <ele>1305.1300000000001</ele>
        <time>2014-07-17T14:55:31Z</time>
      </trkpt>
      <trkpt lat="45.787611063569784" lon="6.713539659976959">
        <ele>1306.0899999999999</ele>
        <time>2014-07-17T14:55:49Z</time>
      </trkpt>
      <trkpt lat="45.787443006411195" lon="6.713428013026714">
        <ele>1308.01</ele>
        <time>2014-07-17T14:56:06Z</time>
      </trkpt>
      <trkpt lat="45.787271680310369" lon="6.71332667581737">
        <ele>1309.9300000000001</ele>
        <time>2014-07-17T14:56:23Z</time>
      </trkpt>
      <trkpt lat="45.787140335887671" lon="6.713271522894502">
        <ele>1311.3800000000001</ele>
        <time>2014-07-17T14:56:37Z</time>
      </trkpt>
      <trkpt lat="45.786991808563471" lon="6.713197259232402">
        <ele>1312.8199999999999</ele>
        <time>2014-07-17T14:56:52Z</time>
      </trkpt>
      <trkpt lat="45.786839760839939" lon="6.713127186521888">
        <ele>1314.74</ele>
        <time>2014-07-17T14:57:07Z</time>
      </trkpt>
      <trkpt lat="45.786735657602549" lon="6.713054683059454">
        <ele>1317.6199999999999</ele>
        <time>2014-07-17T14:57:20Z</time>
      </trkpt>
      <trkpt lat="45.786624513566494" lon="6.713001793250442">
        <ele>1320.03</ele>
        <time>2014-07-17T14:57:35Z</time>
      </trkpt>
      <trkpt lat="45.786496438086033" lon="6.712945215404034">
        <ele>1323.8699999999999</ele>
        <time>2014-07-17T14:57:54Z</time>
      </trkpt>
      <trkpt lat="45.786385964602232" lon="6.71293524093926">
        <ele>1324.8299999999999</ele>
        <time>2014-07-17T14:58:08Z</time>
      </trkpt>
      <trkpt lat="45.786261074244976" lon="6.712920824065805">
        <ele>1326.76</ele>
        <time>2014-07-17T14:58:24Z</time>
      </trkpt>
      <trkpt lat="45.786144565790892" lon="6.712933480739594">
        <ele>1329.1600000000001</ele>
        <time>2014-07-17T14:58:38Z</time>
      </trkpt>
      <trkpt lat="45.78605311922729" lon="6.712959464639425">
        <ele>1331.5599999999999</ele>
        <time>2014-07-17T14:58:53Z</time>
      </trkpt>
      <trkpt lat="45.785910375416279" lon="6.712905317544937">
        <ele>1333.97</ele>
        <time>2014-07-17T14:59:08Z</time>
      </trkpt>
      <trkpt lat="45.785796884447336" lon="6.712816720828414">
        <ele>1334.9300000000001</ele>
        <time>2014-07-17T14:59:21Z</time>
      </trkpt>
      <trkpt lat="45.785647351294756" lon="6.712792497128248">
        <ele>1336.3699999999999</ele>
        <time>2014-07-17T14:59:38Z</time>
      </trkpt>
      <trkpt lat="45.785519275814295" lon="6.71275888569653">
        <ele>1337.3299999999999</ele>
        <time>2014-07-17T14:59:51Z</time>
      </trkpt>
      <trkpt lat="45.785377621650696" lon="6.712734326720238">
        <ele>1339.73</ele>
        <time>2014-07-17T15:00:07Z</time>
      </trkpt>
      <trkpt lat="45.785214761272073" lon="6.712676826864481">
        <ele>1340.22</ele>
        <time>2014-07-17T15:00:21Z</time>
      </trkpt>
      <trkpt lat="45.785108227282763" lon="6.712657799944282">
        <ele>1341.6600000000001</ele>
        <time>2014-07-17T15:00:32Z</time>
      </trkpt>
      <trkpt lat="45.784979900345206" lon="6.71262594871223">
        <ele>1344.0599999999999</ele>
        <time>2014-07-17T15:00:47Z</time>
      </trkpt>
      <trkpt lat="45.784857524558902" lon="6.712663248181343">
        <ele>1345.98</ele>
        <time>2014-07-17T15:01:03Z</time>
      </trkpt>
      <trkpt lat="45.784752080217004" lon="6.712685041129589">
        <ele>1348.8699999999999</ele>
        <time>2014-07-17T15:01:16Z</time>
      </trkpt>
      <trkpt lat="45.784664740785956" lon="6.712723933160305">
        <ele>1352.23</ele>
        <time>2014-07-17T15:01:29Z</time>
      </trkpt>
      <trkpt lat="45.784571617841721" lon="6.712769279256463">
        <ele>1355.5999999999999</ele>
        <time>2014-07-17T15:01:43Z</time>
      </trkpt>
      <trkpt lat="45.784512273967266" lon="6.712822085246444">
        <ele>1356.5599999999999</ele>
        <time>2014-07-17T15:01:50Z</time>
      </trkpt>
      <trkpt lat="45.784397106617689" lon="6.712943455204368">
        <ele>1358.96</ele>
        <time>2014-07-17T15:02:05Z</time>
      </trkpt>
      <trkpt lat="45.784311527386308" lon="6.713043870404363">
        <ele>1360.8800000000001</ele>
        <time>2014-07-17T15:02:19Z</time>
      </trkpt>
      <trkpt lat="45.784203233197331" lon="6.713100532069802">
        <ele>1361.8399999999999</ele>
        <time>2014-07-17T15:02:34Z</time>
      </trkpt>
      <trkpt lat="45.784075241535902" lon="6.713160546496511">
        <ele>1362.3299999999999</ele>
        <time>2014-07-17T15:02:47Z</time>
      </trkpt>
      <trkpt lat="45.784015981480479" lon="6.713191140443087">
        <ele>1363.29</ele>
        <time>2014-07-17T15:02:54Z</time>
      </trkpt>
      <trkpt lat="45.783959906548262" lon="6.713246377184987">
        <ele>1363.77</ele>
        <time>2014-07-17T15:02:59Z</time>
      </trkpt>
      <trkpt lat="45.783840632066131" lon="6.713392809033394">
        <ele>1364.73</ele>
        <time>2014-07-17T15:03:13Z</time>
      </trkpt>
      <trkpt lat="45.783755388110876" lon="6.713497918099165">
        <ele>1366.6500000000001</ele>
        <time>2014-07-17T15:03:24Z</time>
      </trkpt>
      <trkpt lat="45.783667713403702" lon="6.713623479008675">
        <ele>1367.1300000000001</ele>
        <time>2014-07-17T15:03:37Z</time>
      </trkpt>
      <trkpt lat="45.783552965149283" lon="6.713830847293139">
        <ele>1367.6099999999999</ele>
        <time>2014-07-17T15:03:51Z</time>
      </trkpt>
      <trkpt lat="45.78349320217967" lon="6.713884491473436">
        <ele>1370.98</ele>
        <time>2014-07-17T15:03:57Z</time>
      </trkpt>
      <trkpt lat="45.783388093113899" lon="6.714070569723845">
        <ele>1371.9400000000001</ele>
        <time>2014-07-17T15:04:12Z</time>
      </trkpt>
      <trkpt lat="45.783337382599711" lon="6.714193196967244">
        <ele>1371.9400000000001</ele>
        <time>2014-07-17T15:04:23Z</time>
      </trkpt>
      <trkpt lat="45.783322546631098" lon="6.71427114866674">
        <ele>1371.9400000000001</ele>
        <time>2014-07-17T15:04:27Z</time>
      </trkpt>
      <trkpt lat="45.783256078138947" lon="6.714460412040353">
        <ele>1372.9000000000001</ele>
        <time>2014-07-17T15:04:41Z</time>
      </trkpt>
      <trkpt lat="45.783157842233777" lon="6.714610448107123">
        <ele>1372.4200000000001</ele>
        <time>2014-07-17T15:04:54Z</time>
      </trkpt>
      <trkpt lat="45.783075867220759" lon="6.714682951569557">
        <ele>1372.9000000000001</ele>
        <time>2014-07-17T15:05:02Z</time>
      </trkpt>
      <trkpt lat="45.782931447029114" lon="6.714828461408615">
        <ele>1374.3399999999999</ele>
        <time>2014-07-17T15:05:15Z</time>
      </trkpt>
      <trkpt lat="45.782775459811091" lon="6.715022334828973">
        <ele>1377.23</ele>
        <time>2014-07-17T15:05:31Z</time>
      </trkpt>
      <trkpt lat="45.782715361565351" lon="6.715041445568204">
        <ele>1377.71</ele>
        <time>2014-07-17T15:05:36Z</time>
      </trkpt>
      <trkpt lat="45.782582676038146" lon="6.715041277930141">
        <ele>1379.1500000000001</ele>
        <time>2014-07-17T15:05:49Z</time>
      </trkpt>
      <trkpt lat="45.782369440421462" lon="6.715033482760191">
        <ele>1381.0699999999999</ele>
        <time>2014-07-17T15:06:06Z</time>
      </trkpt>
      <trkpt lat="45.782227450981736" lon="6.715111434459686">
        <ele>1383.96</ele>
        <time>2014-07-17T15:06:23Z</time>
      </trkpt>
      <trkpt lat="45.782051514834166" lon="6.715181339532137">
        <ele>1386.3599999999999</ele>
        <time>2014-07-17T15:06:38Z</time>
      </trkpt>
      <trkpt lat="45.781967863440514" lon="6.715239845216274">
        <ele>1389.24</ele>
        <time>2014-07-17T15:06:51Z</time>
      </trkpt>
      <trkpt lat="45.781893683597445" lon="6.715322574600577">
        <ele>1392.1300000000001</ele>
        <time>2014-07-17T15:07:05Z</time>
      </trkpt>
      <trkpt lat="45.781787317246199" lon="6.715433802455664">
        <ele>1393.0899999999999</ele>
        <time>2014-07-17T15:07:19Z</time>
      </trkpt>
      <trkpt lat="45.781746245920658" lon="6.715478394180536">
        <ele>1394.05</ele>
        <time>2014-07-17T15:07:31Z</time>
      </trkpt>
      <trkpt lat="45.781642897054553" lon="6.715483004227281">
        <ele>1394.05</ele>
        <time>2014-07-17T15:07:45Z</time>
      </trkpt>
      <trkpt lat="45.781500907614827" lon="6.715457271784544">
        <ele>1395.01</ele>
        <time>2014-07-17T15:07:58Z</time>
      </trkpt>
      <trkpt lat="45.781489424407482" lon="6.715514101088047">
        <ele>1395.49</ele>
        <time>2014-07-17T15:08:18Z</time>
      </trkpt>
      <trkpt lat="45.781489508226514" lon="6.71556506305933">
        <ele>1395.49</ele>
        <time>2014-07-17T15:08:44Z</time>
      </trkpt>
      <trkpt lat="45.781418429687619" lon="6.715519046410918">
        <ele>1395.97</ele>
        <time>2014-07-17T15:09:05Z</time>
      </trkpt>
      <trkpt lat="45.781404431909323" lon="6.715531451627612">
        <ele>1396.45</ele>
        <time>2014-07-17T15:09:17Z</time>
      </trkpt>
      <trkpt lat="45.781436283141375" lon="6.715519381687045">
        <ele>1395.49</ele>
        <time>2014-07-17T15:09:35Z</time>
      </trkpt>
      <trkpt lat="45.781507613137364" lon="6.715638991445303">
        <ele>1395.49</ele>
        <time>2014-07-17T15:09:58Z</time>
      </trkpt>
      <trkpt lat="45.781573746353388" lon="6.715656593441963">
        <ele>1395.97</ele>
        <time>2014-07-17T15:10:22Z</time>
      </trkpt>
      <trkpt lat="45.781563268974423" lon="6.715634800493717">
        <ele>1396.45</ele>
        <time>2014-07-17T15:10:50Z</time>
      </trkpt>
      <trkpt lat="45.781538542360067" lon="6.715611163526774">
        <ele>1396.9300000000001</ele>
        <time>2014-07-17T15:10:52Z</time>
      </trkpt>
      <trkpt lat="45.781422536820173" lon="6.715455008670688">
        <ele>1399.3399999999999</ele>
        <time>2014-07-17T15:11:06Z</time>
      </trkpt>
      <trkpt lat="45.781350620090961" lon="6.715401113033295">
        <ele>1401.74</ele>
        <time>2014-07-17T15:11:20Z</time>
      </trkpt>
      <trkpt lat="45.781340645626187" lon="6.715396838262677">
        <ele>1402.22</ele>
        <time>2014-07-17T15:11:21Z</time>
      </trkpt>
      <trkpt lat="45.781242912635207" lon="6.715342858806253">
        <ele>1404.1400000000001</ele>
        <time>2014-07-17T15:11:29Z</time>
      </trkpt>
      <trkpt lat="45.781092708930373" lon="6.715280497446656">
        <ele>1407.03</ele>
        <time>2014-07-17T15:11:43Z</time>
      </trkpt>
      <trkpt lat="45.780986845493317" lon="6.715251160785556">
        <ele>1408.47</ele>
        <time>2014-07-17T15:11:53Z</time>
      </trkpt>
      <trkpt lat="45.780927753075957" lon="6.715246718376875">
        <ele>1409.4300000000001</ele>
        <time>2014-07-17T15:11:59Z</time>
      </trkpt>
      <trkpt lat="45.780905792489648" lon="6.715242275968194">
        <ele>1410.8699999999999</ele>
        <time>2014-07-17T15:12:01Z</time>
      </trkpt>
      <trkpt lat="45.780794732272625" lon="6.715202797204256">
        <ele>1411.3499999999999</ele>
        <time>2014-07-17T15:12:12Z</time>
      </trkpt>
      <trkpt lat="45.780768496915698" lon="6.715185530483723">
        <ele>1411.8299999999999</ele>
        <time>2014-07-17T15:12:15Z</time>
      </trkpt>
      <trkpt lat="45.780647713690996" lon="6.71514144167304">
        <ele>1413.76</ele>
        <time>2014-07-17T15:12:31Z</time>
      </trkpt>
      <trkpt lat="45.780523912981153" lon="6.71509743668139">
        <ele>1416.1600000000001</ele>
        <time>2014-07-17T15:12:42Z</time>
      </trkpt>
      <trkpt lat="45.780458450317383" lon="6.715143201872706">
        <ele>1416.6400000000001</ele>
        <time>2014-07-17T15:12:48Z</time>
      </trkpt>
      <trkpt lat="45.780423833057284" lon="6.7151262704283">
        <ele>1417.5999999999999</ele>
        <time>2014-07-17T15:12:56Z</time>
      </trkpt>
      <trkpt lat="45.780380833894014" lon="6.715115793049336">
        <ele>1420</ele>
        <time>2014-07-17T15:13:09Z</time>
      </trkpt>
      <trkpt lat="45.78037329018116" lon="6.715115290135145">
        <ele>1420.49</ele>
        <time>2014-07-17T15:13:11Z</time>
      </trkpt>
      <trkpt lat="45.780304558575153" lon="6.715071368962526">
        <ele>1421.45</ele>
        <time>2014-07-17T15:13:23Z</time>
      </trkpt>
      <trkpt lat="45.780258793383837" lon="6.715045887976885">
        <ele>1422.8900000000001</ele>
        <time>2014-07-17T15:13:30Z</time>
      </trkpt>
      <trkpt lat="45.780092747882009" lon="6.714970450848341">
        <ele>1424.8099999999999</ele>
        <time>2014-07-17T15:13:42Z</time>
      </trkpt>
      <trkpt lat="45.779973641037941" lon="6.714898869395256">
        <ele>1426.25</ele>
        <time>2014-07-17T15:13:51Z</time>
      </trkpt>
      <trkpt lat="45.779905999079347" lon="6.714836256578565">
        <ele>1428.6600000000001</ele>
        <time>2014-07-17T15:14:01Z</time>
      </trkpt>
      <trkpt lat="45.779810780659318" lon="6.714758640155196">
        <ele>1430.5799999999999</ele>
        <time>2014-07-17T15:14:17Z</time>
      </trkpt>
      <trkpt lat="45.779699636623263" lon="6.714735422283411">
        <ele>1432.5</ele>
        <time>2014-07-17T15:14:29Z</time>
      </trkpt>
      <trkpt lat="45.77957583591342" lon="6.714827958494425">
        <ele>1434.9100000000001</ele>
        <time>2014-07-17T15:14:43Z</time>
      </trkpt>
      <trkpt lat="45.779489167034626" lon="6.71488638035953">
        <ele>1437.3099999999999</ele>
        <time>2014-07-17T15:14:58Z</time>
      </trkpt>
      <trkpt lat="45.779386823996902" lon="6.7149743065238">
        <ele>1438.75</ele>
        <time>2014-07-17T15:15:09Z</time>
      </trkpt>
      <trkpt lat="45.779362935572863" lon="6.714981431141496">
        <ele>1439.23</ele>
        <time>2014-07-17T15:15:11Z</time>
      </trkpt>
      <trkpt lat="45.779188089072704" lon="6.714990064501762">
        <ele>1441.1500000000001</ele>
        <time>2014-07-17T15:15:27Z</time>
      </trkpt>
      <trkpt lat="45.779030928388238" lon="6.714928038418293">
        <ele>1443.0799999999999</ele>
        <time>2014-07-17T15:15:41Z</time>
      </trkpt>
      <trkpt lat="45.77886002138257" lon="6.714908676221967">
        <ele>1445</ele>
        <time>2014-07-17T15:15:56Z</time>
      </trkpt>
      <trkpt lat="45.778679139912128" lon="6.714888056740165">
        <ele>1446.9200000000001</ele>
        <time>2014-07-17T15:16:11Z</time>
      </trkpt>
      <trkpt lat="45.77858098782599" lon="6.714868694543839">
        <ele>1449.3199999999999</ele>
        <time>2014-07-17T15:16:23Z</time>
      </trkpt>
      <trkpt lat="45.778466574847698" lon="6.714863833039999">
        <ele>1451.73</ele>
        <time>2014-07-17T15:16:35Z</time>
      </trkpt>
      <trkpt lat="45.778419049456716" lon="6.714824689552188">
        <ele>1453.1700000000001</ele>
        <time>2014-07-17T15:16:44Z</time>
      </trkpt>
      <trkpt lat="45.778321819379926" lon="6.714746318757534">
        <ele>1455.0899999999999</ele>
        <time>2014-07-17T15:16:56Z</time>
      </trkpt>
      <trkpt lat="45.77827169559896" lon="6.714634001255035">
        <ele>1456.53</ele>
        <time>2014-07-17T15:17:07Z</time>
      </trkpt>
      <trkpt lat="45.778290135785937" lon="6.714608855545521">
        <ele>1457.02</ele>
        <time>2014-07-17T15:17:09Z</time>
      </trkpt>
      <trkpt lat="45.77843832783401" lon="6.714470805600286">
        <ele>1458.46</ele>
        <time>2014-07-17T15:17:22Z</time>
      </trkpt>
      <trkpt lat="45.778431454673409" lon="6.714410120621324">
        <ele>1458.46</ele>
        <time>2014-07-17T15:17:36Z</time>
      </trkpt>
      <trkpt lat="45.778373535722494" lon="6.714365528896451">
        <ele>1459.9000000000001</ele>
        <time>2014-07-17T15:17:48Z</time>
      </trkpt>
      <trkpt lat="45.778307318687439" lon="6.714292271062732">
        <ele>1460.3800000000001</ele>
        <time>2014-07-17T15:18:05Z</time>
      </trkpt>
      <trkpt lat="45.778382923454046" lon="6.714268550276756">
        <ele>1460.3800000000001</ele>
        <time>2014-07-17T15:18:22Z</time>
      </trkpt>
      <trkpt lat="45.778383929282427" lon="6.71429512090981">
        <ele>1461.3399999999999</ele>
        <time>2014-07-17T15:18:32Z</time>
      </trkpt>
      <trkpt lat="45.77841879799962" lon="6.714350441470742">
        <ele>1459.9000000000001</ele>
        <time>2014-07-17T15:18:42Z</time>
      </trkpt>
    </trkseg>
  </trk>

  <trk>
    <name>7tmb2014-07-18</name>
    <extensions>
      <gpxx:TrackExtension>
        <gpxx:DisplayColor>Yellow</gpxx:DisplayColor>
      </gpxx:TrackExtension>
      <gpxtrkx:TrackStatsExtension xmlns:gpxtrkx="http://www.garmin.com/xmlschemas/TrackStatsExtension/v1">
        <gpxtrkx:Distance>19165</gpxtrkx:Distance>
        <gpxtrkx:TotalElapsedTime>31564</gpxtrkx:TotalElapsedTime>
        <gpxtrkx:MovingTime>19632</gpxtrkx:MovingTime>
        <gpxtrkx:StoppedTime>11918</gpxtrkx:StoppedTime>
        <gpxtrkx:MovingSpeed>1</gpxtrkx:MovingSpeed>
        <gpxtrkx:MaxSpeed>2</gpxtrkx:MaxSpeed>
        <gpxtrkx:MaxElevation>2671</gpxtrkx:MaxElevation>
        <gpxtrkx:MinElevation>1494</gpxtrkx:MinElevation>
        <gpxtrkx:Ascent>1388</gpxtrkx:Ascent>
        <gpxtrkx:Descent>1004</gpxtrkx:Descent>
        <gpxtrkx:AvgAscentRate>0</gpxtrkx:AvgAscentRate>
        <gpxtrkx:MaxAscentRate>0</gpxtrkx:MaxAscentRate>
        <gpxtrkx:AvgDescentRate>0</gpxtrkx:AvgDescentRate>
        <gpxtrkx:MaxDescentRate>-0</gpxtrkx:MaxDescentRate>
      </gpxtrkx:TrackStatsExtension>
    </extensions>
    <trkseg>
      <trkpt lat="45.777169223874807" lon="6.714625870808959">
        <ele>1493.55</ele>
        <time>2014-07-18T06:03:33Z</time>
      </trkpt>
      <trkpt lat="45.777164697647095" lon="6.714646574109793">
        <ele>1495.47</ele>
        <time>2014-07-18T06:03:46Z</time>
      </trkpt>
      <trkpt lat="45.777096888050437" lon="6.714767441153526">
        <ele>1498.3499999999999</ele>
        <time>2014-07-18T06:04:00Z</time>
      </trkpt>
      <trkpt lat="45.776993539184332" lon="6.714881099760532">
        <ele>1500.27</ele>
        <time>2014-07-18T06:04:15Z</time>
      </trkpt>
      <trkpt lat="45.776808885857463" lon="6.71493130736053">
        <ele>1502.6800000000001</ele>
        <time>2014-07-18T06:04:30Z</time>
      </trkpt>
      <trkpt lat="45.776716768741608" lon="6.71496307477355">
        <ele>1505.0799999999999</ele>
        <time>2014-07-18T06:04:44Z</time>
      </trkpt>
      <trkpt lat="45.776627166196704" lon="6.714965924620628">
        <ele>1507.48</ele>
        <time>2014-07-18T06:04:59Z</time>
      </trkpt>
      <trkpt lat="45.776537647470832" lon="6.714950921013951">
        <ele>1509.4100000000001</ele>
        <time>2014-07-18T06:05:12Z</time>
      </trkpt>
      <trkpt lat="45.776495654135942" lon="6.71495377086103">
        <ele>1509.4100000000001</ele>
        <time>2014-07-18T06:05:17Z</time>
      </trkpt>
      <trkpt lat="45.776368249207735" lon="6.714987298473716">
        <ele>1510.3699999999999</ele>
        <time>2014-07-18T06:05:33Z</time>
      </trkpt>
      <trkpt lat="45.776293147355318" lon="6.715017724782229">
        <ele>1511.3299999999999</ele>
        <time>2014-07-18T06:05:45Z</time>
      </trkpt>
      <trkpt lat="45.776211926713586" lon="6.715056700631976">
        <ele>1513.25</ele>
        <time>2014-07-18T06:05:56Z</time>
      </trkpt>
      <trkpt lat="45.776094663888216" lon="6.715130796656013">
        <ele>1514.6900000000001</ele>
        <time>2014-07-18T06:06:10Z</time>
      </trkpt>
      <trkpt lat="45.776021238416433" lon="6.71514336951077">
        <ele>1516.1400000000001</ele>
        <time>2014-07-18T06:06:22Z</time>
      </trkpt>
      <trkpt lat="45.775915123522282" lon="6.71520103700459">
        <ele>1517.5799999999999</ele>
        <time>2014-07-18T06:06:34Z</time>
      </trkpt>
      <trkpt lat="45.775861227884889" lon="6.715255100280047">
        <ele>1518.54</ele>
        <time>2014-07-18T06:06:41Z</time>
      </trkpt>
      <trkpt lat="45.775788221508265" lon="6.715388204902411">
        <ele>1519.98</ele>
        <time>2014-07-18T06:06:53Z</time>
      </trkpt>
      <trkpt lat="45.775684034451842" lon="6.715518292039633">
        <ele>1521.9000000000001</ele>
        <time>2014-07-18T06:07:06Z</time>
      </trkpt>
      <trkpt lat="45.775555707514286" lon="6.715604709461331">
        <ele>1523.8299999999999</ele>
        <time>2014-07-18T06:07:22Z</time>
      </trkpt>
      <trkpt lat="45.775442887097597" lon="6.715707806870341">
        <ele>1526.23</ele>
        <time>2014-07-18T06:07:38Z</time>
      </trkpt>
      <trkpt lat="45.775377759709954" lon="6.71579229645431">
        <ele>1528.6300000000001</ele>
        <time>2014-07-18T06:07:52Z</time>
      </trkpt>
      <trkpt lat="45.775218503549695" lon="6.715863961726427">
        <ele>1531.04</ele>
        <time>2014-07-18T06:08:08Z</time>
      </trkpt>
      <trkpt lat="45.775054050609469" lon="6.715863291174173">
        <ele>1534.4000000000001</ele>
        <time>2014-07-18T06:08:25Z</time>
      </trkpt>
      <trkpt lat="45.774973416700959" lon="6.715842839330435">
        <ele>1536.3199999999999</ele>
        <time>2014-07-18T06:08:38Z</time>
      </trkpt>
      <trkpt lat="45.774869313463569" lon="6.715814340859652">
        <ele>1539.21</ele>
        <time>2014-07-18T06:08:55Z</time>
      </trkpt>
      <trkpt lat="45.774771412834525" lon="6.715807551518083">
        <ele>1541.1300000000001</ele>
        <time>2014-07-18T06:09:10Z</time>
      </trkpt>
      <trkpt lat="45.774634703993797" lon="6.715819956734777">
        <ele>1542.5699999999999</ele>
        <time>2014-07-18T06:09:25Z</time>
      </trkpt>
      <trkpt lat="45.774574438109994" lon="6.715814927592874">
        <ele>1543.53</ele>
        <time>2014-07-18T06:09:32Z</time>
      </trkpt>
      <trkpt lat="45.774439657106996" lon="6.715845353901386">
        <ele>1544.5</ele>
        <time>2014-07-18T06:09:45Z</time>
      </trkpt>
      <trkpt lat="45.774359107017517" lon="6.715867985039949">
        <ele>1546.4200000000001</ele>
        <time>2014-07-18T06:09:54Z</time>
      </trkpt>
      <trkpt lat="45.774256009608507" lon="6.715907547622919">
        <ele>1547.8599999999999</ele>
        <time>2014-07-18T06:10:08Z</time>
      </trkpt>
      <trkpt lat="45.774194486439228" lon="6.715943925082684">
        <ele>1547.8599999999999</ele>
        <time>2014-07-18T06:10:14Z</time>
      </trkpt>
      <trkpt lat="45.774167915806174" lon="6.715956330299377">
        <ele>1548.3399999999999</ele>
        <time>2014-07-18T06:10:16Z</time>
      </trkpt>
      <trkpt lat="45.774124162271619" lon="6.715992372483015">
        <ele>1548.8199999999999</ele>
        <time>2014-07-18T06:10:20Z</time>
      </trkpt>
      <trkpt lat="45.774086276069283" lon="6.716033611446619">
        <ele>1549.3</ele>
        <time>2014-07-18T06:10:25Z</time>
      </trkpt>
      <trkpt lat="45.774065488949418" lon="6.716060014441609">
        <ele>1548.8199999999999</ele>
        <time>2014-07-18T06:10:36Z</time>
      </trkpt>
      <trkpt lat="45.774075295776129" lon="6.716039143502712">
        <ele>1547.8599999999999</ele>
        <time>2014-07-18T06:10:50Z</time>
      </trkpt>
      <trkpt lat="45.774057861417532" lon="6.715929424390197">
        <ele>1547.8599999999999</ele>
        <time>2014-07-18T06:11:30Z</time>
      </trkpt>
      <trkpt lat="45.774041516706347" lon="6.715934034436941">
        <ele>1548.3399999999999</ele>
        <time>2014-07-18T06:12:02Z</time>
      </trkpt>
      <trkpt lat="45.773981586098671" lon="6.715947026386857">
        <ele>1548.3399999999999</ele>
        <time>2014-07-18T06:12:49Z</time>
      </trkpt>
      <trkpt lat="45.774002289399505" lon="6.715962868183851">
        <ele>1548.8199999999999</ele>
        <time>2014-07-18T06:13:27Z</time>
      </trkpt>
      <trkpt lat="45.774001702666283" lon="6.715958761051297">
        <ele>1548.8199999999999</ele>
        <time>2014-07-18T06:14:04Z</time>
      </trkpt>
      <trkpt lat="45.77400203794241" lon="6.715988097712398">
        <ele>1549.3</ele>
        <time>2014-07-18T06:14:35Z</time>
      </trkpt>
      <trkpt lat="45.773984603583813" lon="6.715894974768162">
        <ele>1549.3</ele>
        <time>2014-07-18T06:15:08Z</time>
      </trkpt>
      <trkpt lat="45.773975048214197" lon="6.715968567878008">
        <ele>1549.78</ele>
        <time>2014-07-18T06:15:28Z</time>
      </trkpt>
      <trkpt lat="45.773988962173462" lon="6.715937722474337">
        <ele>1549.78</ele>
        <time>2014-07-18T06:15:37Z</time>
      </trkpt>
      <trkpt lat="45.77398250810802" lon="6.715941997244954">
        <ele>1550.26</ele>
        <time>2014-07-18T06:15:51Z</time>
      </trkpt>
      <trkpt lat="45.77394587919116" lon="6.715919282287359">
        <ele>1550.26</ele>
        <time>2014-07-18T06:16:04Z</time>
      </trkpt>
      <trkpt lat="45.773909585550427" lon="6.715903608128429">
        <ele>1550.26</ele>
        <time>2014-07-18T06:16:07Z</time>
      </trkpt>
      <trkpt lat="45.773840518668294" lon="6.715899165719748">
        <ele>1550.74</ele>
        <time>2014-07-18T06:16:14Z</time>
      </trkpt>
      <trkpt lat="45.773683777078986" lon="6.715940991416574">
        <ele>1552.1900000000001</ele>
        <time>2014-07-18T06:16:31Z</time>
      </trkpt>
      <trkpt lat="45.773533741012216" lon="6.715991450473666">
        <ele>1553.6300000000001</ele>
        <time>2014-07-18T06:16:47Z</time>
      </trkpt>
      <trkpt lat="45.773395607247949" lon="6.715972339734435">
        <ele>1555.55</ele>
        <time>2014-07-18T06:17:01Z</time>
      </trkpt>
      <trkpt lat="45.773239284753799" lon="6.715918779373169">
        <ele>1556.99</ele>
        <time>2014-07-18T06:17:18Z</time>
      </trkpt>
      <trkpt lat="45.773203996941447" lon="6.715914504602552">
        <ele>1557.47</ele>
        <time>2014-07-18T06:17:25Z</time>
      </trkpt>
      <trkpt lat="45.772973243147135" lon="6.715841582044959">
        <ele>1558.4300000000001</ele>
        <time>2014-07-18T06:17:45Z</time>
      </trkpt>
      <trkpt lat="45.77282790094614" lon="6.715788273140788">
        <ele>1559.4000000000001</ele>
        <time>2014-07-18T06:17:58Z</time>
      </trkpt>
      <trkpt lat="45.772595470771194" lon="6.71577176079154">
        <ele>1558.9200000000001</ele>
        <time>2014-07-18T06:18:17Z</time>
      </trkpt>
      <trkpt lat="45.772369829937816" lon="6.715779472142458">
        <ele>1559.4000000000001</ele>
        <time>2014-07-18T06:18:36Z</time>
      </trkpt>
      <trkpt lat="45.772134466096759" lon="6.715795984491706">
        <ele>1559.8800000000001</ele>
        <time>2014-07-18T06:18:56Z</time>
      </trkpt>
      <trkpt lat="45.771909160539508" lon="6.715797744691372">
        <ele>1560.3599999999999</ele>
        <time>2014-07-18T06:19:15Z</time>
      </trkpt>
      <trkpt lat="45.771745042875409" lon="6.715770922601223">
        <ele>1561.3199999999999</ele>
        <time>2014-07-18T06:19:28Z</time>
      </trkpt>
      <trkpt lat="45.771537506952882" lon="6.715697161853313">
        <ele>1562.76</ele>
        <time>2014-07-18T06:19:46Z</time>
      </trkpt>
      <trkpt lat="45.77142745256424" lon="6.715596746653318">
        <ele>1563.72</ele>
        <time>2014-07-18T06:19:57Z</time>
      </trkpt>
      <trkpt lat="45.771386465057731" lon="6.715506054461002">
        <ele>1565.6400000000001</ele>
        <time>2014-07-18T06:20:10Z</time>
      </trkpt>
      <trkpt lat="45.77129602432251" lon="6.715471688657999">
        <ele>1565.1600000000001</ele>
        <time>2014-07-18T06:20:16Z</time>
      </trkpt>
      <trkpt lat="45.771114723756909" lon="6.715451655909419">
        <ele>1566.1199999999999</ele>
        <time>2014-07-18T06:20:34Z</time>
      </trkpt>
      <trkpt lat="45.771089997142553" lon="6.715461714193225">
        <ele>1566.1199999999999</ele>
        <time>2014-07-18T06:20:59Z</time>
      </trkpt>
      <trkpt lat="45.77108496800065" lon="6.715457607060671">
        <ele>1566.1199999999999</ele>
        <time>2014-07-18T06:21:03Z</time>
      </trkpt>
      <trkpt lat="45.7709373626858" lon="6.715409327298403">
        <ele>1566.6099999999999</ele>
        <time>2014-07-18T06:21:15Z</time>
      </trkpt>
      <trkpt lat="45.770909450948238" lon="6.715402957051992">
        <ele>1564.6800000000001</ele>
        <time>2014-07-18T06:21:17Z</time>
      </trkpt>
      <trkpt lat="45.770679451525211" lon="6.715332213789225">
        <ele>1564.6800000000001</ele>
        <time>2014-07-18T06:21:36Z</time>
      </trkpt>
      <trkpt lat="45.770510556176305" lon="6.715239509940147">
        <ele>1564.2</ele>
        <time>2014-07-18T06:21:51Z</time>
      </trkpt>
      <trkpt lat="45.77029581181705" lon="6.715103639289737">
        <ele>1563.72</ele>
        <time>2014-07-18T06:22:09Z</time>
      </trkpt>
      <trkpt lat="45.770084504038095" lon="6.714929966256023">
        <ele>1562.76</ele>
        <time>2014-07-18T06:22:27Z</time>
      </trkpt>
      <trkpt lat="45.769863557070494" lon="6.714819157496095">
        <ele>1563.24</ele>
        <time>2014-07-18T06:22:45Z</time>
      </trkpt>
      <trkpt lat="45.769722070544958" lon="6.714809266850352">
        <ele>1563.24</ele>
        <time>2014-07-18T06:22:56Z</time>
      </trkpt>
      <trkpt lat="45.769542697817087" lon="6.714786384254694">
        <ele>1564.6800000000001</ele>
        <time>2014-07-18T06:23:11Z</time>
      </trkpt>
      <trkpt lat="45.769365420565009" lon="6.714742798358202">
        <ele>1565.1600000000001</ele>
        <time>2014-07-18T06:23:26Z</time>
      </trkpt>
      <trkpt lat="45.769212199375033" lon="6.714714132249355">
        <ele>1566.1199999999999</ele>
        <time>2014-07-18T06:23:41Z</time>
      </trkpt>
      <trkpt lat="45.769037939608097" lon="6.714647831395268">
        <ele>1567.5699999999999</ele>
        <time>2014-07-18T06:23:57Z</time>
      </trkpt>
      <trkpt lat="45.768875749781728" lon="6.714579435065389">
        <ele>1568.05</ele>
        <time>2014-07-18T06:24:13Z</time>
      </trkpt>
      <trkpt lat="45.768715236335993" lon="6.714504165574908">
        <ele>1569.01</ele>
        <time>2014-07-18T06:24:28Z</time>
      </trkpt>
      <trkpt lat="45.768562266603112" lon="6.71444364823401">
        <ele>1569.49</ele>
        <time>2014-07-18T06:24:42Z</time>
      </trkpt>
      <trkpt lat="45.768383396789432" lon="6.714340467005968">
        <ele>1569.97</ele>
        <time>2014-07-18T06:24:58Z</time>
      </trkpt>
      <trkpt lat="45.76821961440146" lon="6.714240051805973">
        <ele>1570.9300000000001</ele>
        <time>2014-07-18T06:25:13Z</time>
      </trkpt>
      <trkpt lat="45.768052814528346" lon="6.714175343513489">
        <ele>1571.8900000000001</ele>
        <time>2014-07-18T06:25:27Z</time>
      </trkpt>
      <trkpt lat="45.767869250848889" lon="6.714115748181939">
        <ele>1572.8499999999999</ele>
        <time>2014-07-18T06:25:42Z</time>
      </trkpt>
      <trkpt lat="45.767715023830533" lon="6.714009298011661">
        <ele>1573.3299999999999</ele>
        <time>2014-07-18T06:25:56Z</time>
      </trkpt>
      <trkpt lat="45.767473457381129" lon="6.713789021596313">
        <ele>1573.8199999999999</ele>
        <time>2014-07-18T06:26:17Z</time>
      </trkpt>
      <trkpt lat="45.767246307805181" lon="6.713590789586306">
        <ele>1573.8199999999999</ele>
        <time>2014-07-18T06:26:36Z</time>
      </trkpt>
      <trkpt lat="45.767024271190166" lon="6.713392389938235">
        <ele>1574.3</ele>
        <time>2014-07-18T06:26:56Z</time>
      </trkpt>
      <trkpt lat="45.766812795773149" lon="6.713198684155941">
        <ele>1575.26</ele>
        <time>2014-07-18T06:27:15Z</time>
      </trkpt>
      <trkpt lat="45.766634764149785" lon="6.713104555383325">
        <ele>1575.74</ele>
        <time>2014-07-18T06:27:31Z</time>
      </trkpt>
      <trkpt lat="45.766418930143118" lon="6.713049905374646">
        <ele>1578.1400000000001</ele>
        <time>2014-07-18T06:27:50Z</time>
      </trkpt>
      <trkpt lat="45.766263864934444" lon="6.713006487116218">
        <ele>1578.6199999999999</ele>
        <time>2014-07-18T06:28:04Z</time>
      </trkpt>
      <trkpt lat="45.766232600435615" lon="6.712996177375317">
        <ele>1578.1400000000001</ele>
        <time>2014-07-18T06:28:07Z</time>
      </trkpt>
      <trkpt lat="45.766187841072679" lon="6.712995255365968">
        <ele>1578.1400000000001</ele>
        <time>2014-07-18T06:28:11Z</time>
      </trkpt>
      <trkpt lat="45.766118271276355" lon="6.712953178212047">
        <ele>1580.54</ele>
        <time>2014-07-18T06:28:18Z</time>
      </trkpt>
      <trkpt lat="45.765947867184877" lon="6.712894001975656">
        <ele>1582.47</ele>
        <time>2014-07-18T06:28:35Z</time>
      </trkpt>
      <trkpt lat="45.765802608802915" lon="6.712834993377328">
        <ele>1583.4300000000001</ele>
        <time>2014-07-18T06:28:49Z</time>
      </trkpt>
      <trkpt lat="45.76564553193748" lon="6.712801633402705">
        <ele>1584.3900000000001</ele>
        <time>2014-07-18T06:29:04Z</time>
      </trkpt>
      <trkpt lat="45.765468087047338" lon="6.712738182395697">
        <ele>1585.3499999999999</ele>
        <time>2014-07-18T06:29:20Z</time>
      </trkpt>
      <trkpt lat="45.765268513932824" lon="6.712656123563647">
        <ele>1587.27</ele>
        <time>2014-07-18T06:29:37Z</time>
      </trkpt>
      <trkpt lat="45.765085201710463" lon="6.712608933448792">
        <ele>1588.72</ele>
        <time>2014-07-18T06:29:53Z</time>
      </trkpt>
      <trkpt lat="45.764918401837349" lon="6.712578758597374">
        <ele>1589.6800000000001</ele>
        <time>2014-07-18T06:30:06Z</time>
      </trkpt>
      <trkpt lat="45.764734502881765" lon="6.71247499063611">
        <ele>1591.5999999999999</ele>
        <time>2014-07-18T06:30:23Z</time>
      </trkpt>
      <trkpt lat="45.764541802927852" lon="6.712395865470171">
        <ele>1592.5599999999999</ele>
        <time>2014-07-18T06:30:39Z</time>
      </trkpt>
      <trkpt lat="45.764326890930533" lon="6.712370552122593">
        <ele>1594</ele>
        <time>2014-07-18T06:30:57Z</time>
      </trkpt>
      <trkpt lat="45.764155397191644" lon="6.712331743910909">
        <ele>1594.48</ele>
        <time>2014-07-18T06:31:12Z</time>
      </trkpt>
      <trkpt lat="45.76414693146944" lon="6.71233031898737">
        <ele>1594.48</ele>
        <time>2014-07-18T06:31:13Z</time>
      </trkpt>
      <trkpt lat="45.764115834608674" lon="6.712231328710914">
        <ele>1594.48</ele>
        <time>2014-07-18T06:31:19Z</time>
      </trkpt>
      <trkpt lat="45.764088509604335" lon="6.712205931544304">
        <ele>1594.48</ele>
        <time>2014-07-18T06:31:22Z</time>
      </trkpt>
      <trkpt lat="45.764042912051082" lon="6.71223602257669">
        <ele>1595.45</ele>
        <time>2014-07-18T06:31:34Z</time>
      </trkpt>
      <trkpt lat="45.76383076608181" lon="6.712144073098898">
        <ele>1597.3699999999999</ele>
        <time>2014-07-18T06:31:53Z</time>
      </trkpt>
      <trkpt lat="45.763689195737243" lon="6.712058242410421">
        <ele>1599.29</ele>
        <time>2014-07-18T06:32:08Z</time>
      </trkpt>
      <trkpt lat="45.763624906539917" lon="6.712035611271858">
        <ele>1599.77</ele>
        <time>2014-07-18T06:32:15Z</time>
      </trkpt>
      <trkpt lat="45.763550726696849" lon="6.712003508582711">
        <ele>1600.73</ele>
        <time>2014-07-18T06:32:24Z</time>
      </trkpt>
      <trkpt lat="45.763539746403694" lon="6.711998814716935">
        <ele>1601.21</ele>
        <time>2014-07-18T06:32:26Z</time>
      </trkpt>
      <trkpt lat="45.763411335647106" lon="6.711972244083881">
        <ele>1602.6600000000001</ele>
        <time>2014-07-18T06:32:40Z</time>
      </trkpt>
      <trkpt lat="45.763275381177664" lon="6.71193553134799">
        <ele>1605.0599999999999</ele>
        <time>2014-07-18T06:32:56Z</time>
      </trkpt>
      <trkpt lat="45.763123668730259" lon="6.71187543310225">
        <ele>1606.98</ele>
        <time>2014-07-18T06:33:13Z</time>
      </trkpt>
      <trkpt lat="45.763038508594036" lon="6.711823381483555">
        <ele>1607.9400000000001</ele>
        <time>2014-07-18T06:33:23Z</time>
      </trkpt>
      <trkpt lat="45.763011435046792" lon="6.711817346513271">
        <ele>1607.9400000000001</ele>
        <time>2014-07-18T06:33:26Z</time>
      </trkpt>
      <trkpt lat="45.762877156957984" lon="6.711750207468867">
        <ele>1609.8599999999999</ele>
        <time>2014-07-18T06:33:41Z</time>
      </trkpt>
      <trkpt lat="45.762795433402061" lon="6.711709136143327">
        <ele>1610.8299999999999</ele>
        <time>2014-07-18T06:33:51Z</time>
      </trkpt>
      <trkpt lat="45.762658892199397" lon="6.71162229962647">
        <ele>1612.27</ele>
        <time>2014-07-18T06:34:07Z</time>
      </trkpt>
      <trkpt lat="45.762591334059834" lon="6.711568487808108">
        <ele>1613.71</ele>
        <time>2014-07-18T06:34:16Z</time>
      </trkpt>
      <trkpt lat="45.762519668787718" lon="6.71155440621078">
        <ele>1615.1500000000001</ele>
        <time>2014-07-18T06:34:24Z</time>
      </trkpt>
      <trkpt lat="45.762387989088893" lon="6.711500342935324">
        <ele>1616.5899999999999</ele>
        <time>2014-07-18T06:34:38Z</time>
      </trkpt>
      <trkpt lat="45.762278856709599" lon="6.711447788402438">
        <ele>1618.04</ele>
        <time>2014-07-18T06:34:50Z</time>
      </trkpt>
      <trkpt lat="45.762161174789071" lon="6.711394730955362">
        <ele>1619.96</ele>
        <time>2014-07-18T06:35:04Z</time>
      </trkpt>
      <trkpt lat="45.762043241411448" lon="6.711369082331657">
        <ele>1621.8800000000001</ele>
        <time>2014-07-18T06:35:18Z</time>
      </trkpt>
      <trkpt lat="45.761942742392421" lon="6.711375871673226">
        <ele>1623.8</ele>
        <time>2014-07-18T06:35:31Z</time>
      </trkpt>
      <trkpt lat="45.761852469295263" lon="6.711367405951023">
        <ele>1625.25</ele>
        <time>2014-07-18T06:35:41Z</time>
      </trkpt>
      <trkpt lat="45.761743253096938" lon="6.711363634094596">
        <ele>1626.6900000000001</ele>
        <time>2014-07-18T06:35:53Z</time>
      </trkpt>
      <trkpt lat="45.761635713279247" lon="6.711329100653529">
        <ele>1628.1300000000001</ele>
        <time>2014-07-18T06:36:06Z</time>
      </trkpt>
      <trkpt lat="45.761544685810804" lon="6.711309654638171">
        <ele>1630.05</ele>
        <time>2014-07-18T06:36:18Z</time>
      </trkpt>
      <trkpt lat="45.761514259502292" lon="6.711312253028154">
        <ele>1631.01</ele>
        <time>2014-07-18T06:36:22Z</time>
      </trkpt>
      <trkpt lat="45.761482743546367" lon="6.711307978257537">
        <ele>1631.49</ele>
        <time>2014-07-18T06:36:26Z</time>
      </trkpt>
      <trkpt lat="45.761449383571744" lon="6.711297333240509">
        <ele>1631.98</ele>
        <time>2014-07-18T06:36:29Z</time>
      </trkpt>
      <trkpt lat="45.761359110474586" lon="6.711230361834168">
        <ele>1633.9000000000001</ele>
        <time>2014-07-18T06:36:42Z</time>
      </trkpt>
      <trkpt lat="45.761329354718328" lon="6.711204880848527">
        <ele>1634.3800000000001</ele>
        <time>2014-07-18T06:36:46Z</time>
      </trkpt>
      <trkpt lat="45.761199099943042" lon="6.711096670478582">
        <ele>1636.3</ele>
        <time>2014-07-18T06:37:03Z</time>
      </trkpt>
      <trkpt lat="45.761098517104983" lon="6.711033135652542">
        <ele>1638.7</ele>
        <time>2014-07-18T06:37:17Z</time>
      </trkpt>
      <trkpt lat="45.761081082746387" lon="6.711024837568402">
        <ele>1639.1900000000001</ele>
        <time>2014-07-18T06:37:19Z</time>
      </trkpt>
      <trkpt lat="45.76105635613203" lon="6.71101444400847">
        <ele>1639.6700000000001</ele>
        <time>2014-07-18T06:37:22Z</time>
      </trkpt>
      <trkpt lat="45.760950995609164" lon="6.711002290248871">
        <ele>1641.1099999999999</ele>
        <time>2014-07-18T06:37:34Z</time>
      </trkpt>
      <trkpt lat="45.760931884869933" lon="6.711006313562393">
        <ele>1641.5899999999999</ele>
        <time>2014-07-18T06:37:36Z</time>
      </trkpt>
      <trkpt lat="45.760799534618855" lon="6.711021987721324">
        <ele>1643.51</ele>
        <time>2014-07-18T06:37:51Z</time>
      </trkpt>
      <trkpt lat="45.760684786364436" lon="6.711065322160721">
        <ele>1645.9100000000001</ele>
        <time>2014-07-18T06:38:04Z</time>
      </trkpt>
      <trkpt lat="45.760586969554424" lon="6.711106644943357">
        <ele>1647.8399999999999</ele>
        <time>2014-07-18T06:38:18Z</time>
      </trkpt>
      <trkpt lat="45.760468449443579" lon="6.711142435669899">
        <ele>1650.24</ele>
        <time>2014-07-18T06:38:33Z</time>
      </trkpt>
      <trkpt lat="45.760358730331063" lon="6.711183171719313">
        <ele>1652.6400000000001</ele>
        <time>2014-07-18T06:38:47Z</time>
      </trkpt>
      <trkpt lat="45.760245239362121" lon="6.711222818121314">
        <ele>1654.5699999999999</ele>
        <time>2014-07-18T06:39:01Z</time>
      </trkpt>
      <trkpt lat="45.760139124467969" lon="6.711284928023815">
        <ele>1656.97</ele>
        <time>2014-07-18T06:39:15Z</time>
      </trkpt>
      <trkpt lat="45.7601288985461" lon="6.711292052641511">
        <ele>1657.45</ele>
        <time>2014-07-18T06:39:17Z</time>
      </trkpt>
      <trkpt lat="45.760040553286672" lon="6.711258860304952">
        <ele>1659.3699999999999</ele>
        <time>2014-07-18T06:39:29Z</time>
      </trkpt>
      <trkpt lat="45.759954387322068" lon="6.711209742352366">
        <ele>1662.26</ele>
        <time>2014-07-18T06:39:44Z</time>
      </trkpt>
      <trkpt lat="45.759847601875663" lon="6.711181662976742">
        <ele>1664.6600000000001</ele>
        <time>2014-07-18T06:39:58Z</time>
      </trkpt>
      <trkpt lat="45.759739391505718" lon="6.711143273860216">
        <ele>1667.0599999999999</ele>
        <time>2014-07-18T06:40:12Z</time>
      </trkpt>
      <trkpt lat="45.759665463119745" lon="6.711078230291605">
        <ele>1668.99</ele>
        <time>2014-07-18T06:40:26Z</time>
      </trkpt>
      <trkpt lat="45.759554654359818" lon="6.711025675758719">
        <ele>1671.3900000000001</ele>
        <time>2014-07-18T06:40:42Z</time>
      </trkpt>
      <trkpt lat="45.759545937180519" lon="6.711021233350039">
        <ele>1671.8699999999999</ele>
        <time>2014-07-18T06:40:43Z</time>
      </trkpt>
      <trkpt lat="45.75942138209939" lon="6.71096708625555">
        <ele>1673.79</ele>
        <time>2014-07-18T06:40:59Z</time>
      </trkpt>
      <trkpt lat="45.759321805089712" lon="6.71084051951766">
        <ele>1676.2</ele>
        <time>2014-07-18T06:41:14Z</time>
      </trkpt>
      <trkpt lat="45.759246284142137" lon="6.71074572019279">
        <ele>1678.1199999999999</ele>
        <time>2014-07-18T06:41:26Z</time>
      </trkpt>
      <trkpt lat="45.759233376011252" lon="6.710744379088283">
        <ele>1678.1199999999999</ele>
        <time>2014-07-18T06:41:31Z</time>
      </trkpt>
      <trkpt lat="45.759096667170525" lon="6.710669947788119">
        <ele>1681</ele>
        <time>2014-07-18T06:41:49Z</time>
      </trkpt>
      <trkpt lat="45.759075125679374" lon="6.710516810417175">
        <ele>1682.9300000000001</ele>
        <time>2014-07-18T06:42:03Z</time>
      </trkpt>
      <trkpt lat="45.758973369374871" lon="6.710462244227529">
        <ele>1685.3299999999999</ele>
        <time>2014-07-18T06:42:19Z</time>
      </trkpt>
      <trkpt lat="45.758890891447663" lon="6.710477080196142">
        <ele>1688.6900000000001</ele>
        <time>2014-07-18T06:42:34Z</time>
      </trkpt>
      <trkpt lat="45.758835487067699" lon="6.710582105442882">
        <ele>1690.1400000000001</ele>
        <time>2014-07-18T06:42:49Z</time>
      </trkpt>
      <trkpt lat="45.75879936106503" lon="6.710641533136368">
        <ele>1690.6199999999999</ele>
        <time>2014-07-18T06:43:04Z</time>
      </trkpt>
      <trkpt lat="45.758783770725131" lon="6.710651759058237">
        <ele>1691.0999999999999</ele>
        <time>2014-07-18T06:43:17Z</time>
      </trkpt>
      <trkpt lat="45.758768683299422" lon="6.710669947788119">
        <ele>1691.0999999999999</ele>
        <time>2014-07-18T06:43:19Z</time>
      </trkpt>
      <trkpt lat="45.758640775457025" lon="6.710726525634527">
        <ele>1692.0599999999999</ele>
        <time>2014-07-18T06:43:33Z</time>
      </trkpt>
      <trkpt lat="45.758550250902772" lon="6.710800789296627">
        <ele>1693.5</ele>
        <time>2014-07-18T06:43:44Z</time>
      </trkpt>
      <trkpt lat="45.758451512083411" lon="6.710815457627177">
        <ele>1695.4200000000001</ele>
        <time>2014-07-18T06:43:55Z</time>
      </trkpt>
      <trkpt lat="45.758394347503781" lon="6.710796179249883">
        <ele>1696.8599999999999</ele>
        <time>2014-07-18T06:44:03Z</time>
      </trkpt>
      <trkpt lat="45.758331147953868" lon="6.710782097652555">
        <ele>1698.3099999999999</ele>
        <time>2014-07-18T06:44:12Z</time>
      </trkpt>
      <trkpt lat="45.758307427167892" lon="6.710771704092622">
        <ele>1698.79</ele>
        <time>2014-07-18T06:44:15Z</time>
      </trkpt>
      <trkpt lat="45.758204581215978" lon="6.710736667737365">
        <ele>1701.6700000000001</ele>
        <time>2014-07-18T06:44:30Z</time>
      </trkpt>
      <trkpt lat="45.7581118773669" lon="6.710765585303307">
        <ele>1703.5899999999999</ele>
        <time>2014-07-18T06:44:43Z</time>
      </trkpt>
      <trkpt lat="45.758034847676754" lon="6.710843788459897">
        <ele>1705.52</ele>
        <time>2014-07-18T06:44:56Z</time>
      </trkpt>
      <trkpt lat="45.757992183789611" lon="6.71104621142149">
        <ele>1706.48</ele>
        <time>2014-07-18T06:45:12Z</time>
      </trkpt>
      <trkpt lat="45.757908951491117" lon="6.711104214191437">
        <ele>1707.9200000000001</ele>
        <time>2014-07-18T06:45:24Z</time>
      </trkpt>
      <trkpt lat="45.757793784141541" lon="6.711059790104628">
        <ele>1709.3599999999999</ele>
        <time>2014-07-18T06:45:38Z</time>
      </trkpt>
      <trkpt lat="45.757695296779275" lon="6.710983766242862">
        <ele>1710.8</ele>
        <time>2014-07-18T06:45:52Z</time>
      </trkpt>
      <trkpt lat="45.75765447691083" lon="6.71095535159111">
        <ele>1711.28</ele>
        <time>2014-07-18T06:45:58Z</time>
      </trkpt>
      <trkpt lat="45.757562527433038" lon="6.710854433476925">
        <ele>1713.21</ele>
        <time>2014-07-18T06:46:15Z</time>
      </trkpt>
      <trkpt lat="45.757537381723523" lon="6.710802800953388">
        <ele>1714.1700000000001</ele>
        <time>2014-07-18T06:46:27Z</time>
      </trkpt>
      <trkpt lat="45.757530760020018" lon="6.710781510919333">
        <ele>1714.6500000000001</ele>
        <time>2014-07-18T06:46:33Z</time>
      </trkpt>
      <trkpt lat="45.757527407258749" lon="6.710764998570085">
        <ele>1714.1700000000001</ele>
        <time>2014-07-18T06:46:43Z</time>
      </trkpt>
      <trkpt lat="45.757517600432038" lon="6.710762903094292">
        <ele>1714.6500000000001</ele>
        <time>2014-07-18T06:47:00Z</time>
      </trkpt>
      <trkpt lat="45.757540734484792" lon="6.710776649415493">
        <ele>1714.1700000000001</ele>
        <time>2014-07-18T06:47:26Z</time>
      </trkpt>
      <trkpt lat="45.757545763626695" lon="6.710783103480935">
        <ele>1714.1700000000001</ele>
        <time>2014-07-18T06:47:48Z</time>
      </trkpt>
      <trkpt lat="45.757540818303823" lon="6.710780505090952">
        <ele>1714.1700000000001</ele>
        <time>2014-07-18T06:48:25Z</time>
      </trkpt>
      <trkpt lat="45.7575230486691" lon="6.710791820660234">
        <ele>1714.6500000000001</ele>
        <time>2014-07-18T06:49:02Z</time>
      </trkpt>
      <trkpt lat="45.757530760020018" lon="6.71081067994237">
        <ele>1715.1300000000001</ele>
        <time>2014-07-18T06:49:35Z</time>
      </trkpt>
      <trkpt lat="45.757554899901152" lon="6.710855690762401">
        <ele>1715.1300000000001</ele>
        <time>2014-07-18T06:50:08Z</time>
      </trkpt>
      <trkpt lat="45.757547607645392" lon="6.710846051573753">
        <ele>1715.6099999999999</ele>
        <time>2014-07-18T06:50:44Z</time>
      </trkpt>
      <trkpt lat="45.757542746141553" lon="6.710889888927341">
        <ele>1715.6099999999999</ele>
        <time>2014-07-18T06:51:14Z</time>
      </trkpt>
      <trkpt lat="45.757540399208665" lon="6.710781259462237">
        <ele>1716.0899999999999</ele>
        <time>2014-07-18T06:51:55Z</time>
      </trkpt>
      <trkpt lat="45.75755137950182" lon="6.710780169814825">
        <ele>1716.5699999999999</ele>
        <time>2014-07-18T06:52:28Z</time>
      </trkpt>
      <trkpt lat="45.757555570453405" lon="6.710821744054556">
        <ele>1716.5699999999999</ele>
        <time>2014-07-18T06:53:14Z</time>
      </trkpt>
      <trkpt lat="45.757553307339549" lon="6.710808333009481">
        <ele>1717.05</ele>
        <time>2014-07-18T06:53:56Z</time>
      </trkpt>
      <trkpt lat="45.757548278197646" lon="6.710807578638196">
        <ele>1717.05</ele>
        <time>2014-07-18T06:54:35Z</time>
      </trkpt>
      <trkpt lat="45.757569232955575" lon="6.710821408778429">
        <ele>1717.05</ele>
        <time>2014-07-18T06:55:08Z</time>
      </trkpt>
      <trkpt lat="45.75754995457828" lon="6.710803052410483">
        <ele>1717.53</ele>
        <time>2014-07-18T06:55:43Z</time>
      </trkpt>
      <trkpt lat="45.757546098902822" lon="6.710793664678931">
        <ele>1717.53</ele>
        <time>2014-07-18T06:56:30Z</time>
      </trkpt>
      <trkpt lat="45.757546685636044" lon="6.710808668285608">
        <ele>1717.53</ele>
        <time>2014-07-18T06:57:14Z</time>
      </trkpt>
      <trkpt lat="45.757553810253739" lon="6.710806405171752">
        <ele>1718.01</ele>
        <time>2014-07-18T06:58:02Z</time>
      </trkpt>
      <trkpt lat="45.757551630958915" lon="6.710801711305976">
        <ele>1718.01</ele>
        <time>2014-07-18T06:58:57Z</time>
      </trkpt>
      <trkpt lat="45.757554145529866" lon="6.710784779861569">
        <ele>1718.01</ele>
        <time>2014-07-18T06:59:43Z</time>
      </trkpt>
      <trkpt lat="45.757563281804323" lon="6.710758544504643">
        <ele>1718.49</ele>
        <time>2014-07-18T07:00:11Z</time>
      </trkpt>
      <trkpt lat="45.757548194378614" lon="6.710803471505642">
        <ele>1718.49</ele>
        <time>2014-07-18T07:00:57Z</time>
      </trkpt>
      <trkpt lat="45.757541321218014" lon="6.710803052410483">
        <ele>1718.49</ele>
        <time>2014-07-18T07:01:32Z</time>
      </trkpt>
      <trkpt lat="45.757556576281786" lon="6.710773967206478">
        <ele>1719.9400000000001</ele>
        <time>2014-07-18T07:01:45Z</time>
      </trkpt>
      <trkpt lat="45.757556324824691" lon="6.710769357159734">
        <ele>1719.46</ele>
        <time>2014-07-18T07:02:03Z</time>
      </trkpt>
      <trkpt lat="45.757550625130534" lon="6.710780588909984">
        <ele>1719.9400000000001</ele>
        <time>2014-07-18T07:02:22Z</time>
      </trkpt>
      <trkpt lat="45.757542578503489" lon="6.710792323574424">
        <ele>1719.9400000000001</ele>
        <time>2014-07-18T07:02:36Z</time>
      </trkpt>
      <trkpt lat="45.757546182721853" lon="6.710799196735025">
        <ele>1719.9400000000001</ele>
        <time>2014-07-18T07:02:57Z</time>
      </trkpt>
      <trkpt lat="45.757526149973273" lon="6.710816882550716">
        <ele>1720.4200000000001</ele>
        <time>2014-07-18T07:03:18Z</time>
      </trkpt>
      <trkpt lat="45.757505362853408" lon="6.710824342444539">
        <ele>1720.4200000000001</ele>
        <time>2014-07-18T07:03:25Z</time>
      </trkpt>
      <trkpt lat="45.757435290142894" lon="6.710689645260572">
        <ele>1721.8599999999999</ele>
        <time>2014-07-18T07:03:38Z</time>
      </trkpt>
      <trkpt lat="45.757337221875787" lon="6.710673635825515">
        <ele>1723.3</ele>
        <time>2014-07-18T07:03:49Z</time>
      </trkpt>
      <trkpt lat="45.757244601845741" lon="6.710620494559407">
        <ele>1724.74</ele>
        <time>2014-07-18T07:04:02Z</time>
      </trkpt>
      <trkpt lat="45.757160447537899" lon="6.710538938641548">
        <ele>1726.1800000000001</ele>
        <time>2014-07-18T07:04:13Z</time>
      </trkpt>
      <trkpt lat="45.757073862478137" lon="6.710437098518014">
        <ele>1728.1099999999999</ele>
        <time>2014-07-18T07:04:28Z</time>
      </trkpt>
      <trkpt lat="45.756994821131229" lon="6.710332660004497">
        <ele>1730.51</ele>
        <time>2014-07-18T07:04:43Z</time>
      </trkpt>
      <trkpt lat="45.756942350417376" lon="6.71024682931602">
        <ele>1733.3900000000001</ele>
        <time>2014-07-18T07:04:58Z</time>
      </trkpt>
      <trkpt lat="45.756888119503856" lon="6.710260072723031">
        <ele>1735.3199999999999</ele>
        <time>2014-07-18T07:05:10Z</time>
      </trkpt>
      <trkpt lat="45.756857693195343" lon="6.71014666557312">
        <ele>1737.24</ele>
        <time>2014-07-18T07:05:24Z</time>
      </trkpt>
      <trkpt lat="45.756830871105194" lon="6.710024541243911">
        <ele>1740.1199999999999</ele>
        <time>2014-07-18T07:05:41Z</time>
      </trkpt>
      <trkpt lat="45.756781250238419" lon="6.70998246408999">
        <ele>1742.53</ele>
        <time>2014-07-18T07:05:52Z</time>
      </trkpt>
      <trkpt lat="45.756776221096516" lon="6.709976429119706">
        <ele>1742.53</ele>
        <time>2014-07-18T07:05:53Z</time>
      </trkpt>
      <trkpt lat="45.756718218326569" lon="6.709875678643584">
        <ele>1744.45</ele>
        <time>2014-07-18T07:06:07Z</time>
      </trkpt>
      <trkpt lat="45.75667429715395" lon="6.709786914288998">
        <ele>1746.8499999999999</ele>
        <time>2014-07-18T07:06:19Z</time>
      </trkpt>
      <trkpt lat="45.756635153666139" lon="6.709694294258952">
        <ele>1748.29</ele>
        <time>2014-07-18T07:06:32Z</time>
      </trkpt>
      <trkpt lat="45.756613947451115" lon="6.709600584581494">
        <ele>1749.74</ele>
        <time>2014-07-18T07:06:45Z</time>
      </trkpt>
      <trkpt lat="45.756566505879164" lon="6.709511568769813">
        <ele>1752.1400000000001</ele>
        <time>2014-07-18T07:06:59Z</time>
      </trkpt>
      <trkpt lat="45.756554687395692" lon="6.709400927647948">
        <ele>1754.54</ele>
        <time>2014-07-18T07:07:13Z</time>
      </trkpt>
      <trkpt lat="45.756523590534925" lon="6.70935214497149">
        <ele>1756.95</ele>
        <time>2014-07-18T07:07:25Z</time>
      </trkpt>
      <trkpt lat="45.756487380713224" lon="6.709258770570159">
        <ele>1758.8699999999999</ele>
        <time>2014-07-18T07:07:39Z</time>
      </trkpt>
      <trkpt lat="45.756448488682508" lon="6.709184758365154">
        <ele>1760.79</ele>
        <time>2014-07-18T07:07:53Z</time>
      </trkpt>
      <trkpt lat="45.756440944969654" lon="6.709066238254309">
        <ele>1763.6800000000001</ele>
        <time>2014-07-18T07:08:07Z</time>
      </trkpt>
      <trkpt lat="45.756392246112227" lon="6.708978395909071">
        <ele>1765.5999999999999</ele>
        <time>2014-07-18T07:08:21Z</time>
      </trkpt>
      <trkpt lat="45.756369531154633" lon="6.708929277956486">
        <ele>1766.5599999999999</ele>
        <time>2014-07-18T07:08:28Z</time>
      </trkpt>
      <trkpt lat="45.756340278312564" lon="6.708895666524768">
        <ele>1767.52</ele>
        <time>2014-07-18T07:08:33Z</time>
      </trkpt>
      <trkpt lat="45.756269535049796" lon="6.708803800866008">
        <ele>1769.4400000000001</ele>
        <time>2014-07-18T07:08:48Z</time>
      </trkpt>
      <trkpt lat="45.756202144548297" lon="6.708713779225946">
        <ele>1770.4100000000001</ele>
        <time>2014-07-18T07:09:01Z</time>
      </trkpt>
      <trkpt lat="45.756093431264162" lon="6.708578411489725">
        <ele>1771.8499999999999</ele>
        <time>2014-07-18T07:09:17Z</time>
      </trkpt>
      <trkpt lat="45.755969462916255" lon="6.708429548889399">
        <ele>1773.29</ele>
        <time>2014-07-18T07:09:33Z</time>
      </trkpt>
      <trkpt lat="45.755830323323607" lon="6.70828253030777">
        <ele>1774.73</ele>
        <time>2014-07-18T07:09:50Z</time>
      </trkpt>
      <trkpt lat="45.75569998472929" lon="6.708171805366874">
        <ele>1776.1700000000001</ele>
        <time>2014-07-18T07:10:05Z</time>
      </trkpt>
      <trkpt lat="45.755582638084888" lon="6.708101565018296">
        <ele>1778.0999999999999</ele>
        <time>2014-07-18T07:10:20Z</time>
      </trkpt>
      <trkpt lat="45.755523629486561" lon="6.708133667707443">
        <ele>1780.02</ele>
        <time>2014-07-18T07:10:32Z</time>
      </trkpt>
      <trkpt lat="45.755505105480552" lon="6.708166524767876">
        <ele>1780.5</ele>
        <time>2014-07-18T07:10:37Z</time>
      </trkpt>
      <trkpt lat="45.755423381924629" lon="6.708244644105434">
        <ele>1782.9000000000001</ele>
        <time>2014-07-18T07:10:49Z</time>
      </trkpt>
      <trkpt lat="45.755357751622796" lon="6.708229808136821">
        <ele>1784.8199999999999</ele>
        <time>2014-07-18T07:11:00Z</time>
      </trkpt>
      <trkpt lat="45.755322463810444" lon="6.708211535587907">
        <ele>1785.79</ele>
        <time>2014-07-18T07:11:05Z</time>
      </trkpt>
      <trkpt lat="45.755276447162032" lon="6.708193933591247">
        <ele>1787.23</ele>
        <time>2014-07-18T07:11:11Z</time>
      </trkpt>
      <trkpt lat="45.75523772276938" lon="6.708204075694084">
        <ele>1787.71</ele>
        <time>2014-07-18T07:11:15Z</time>
      </trkpt>
      <trkpt lat="45.755139235407114" lon="6.708124531432986">
        <ele>1787.71</ele>
        <time>2014-07-18T07:11:28Z</time>
      </trkpt>
      <trkpt lat="45.755068240687251" lon="6.708089662715793">
        <ele>1788.6700000000001</ele>
        <time>2014-07-18T07:11:40Z</time>
      </trkpt>
      <trkpt lat="45.754961706697941" lon="6.708046663552523">
        <ele>1791.0699999999999</ele>
        <time>2014-07-18T07:11:54Z</time>
      </trkpt>
      <trkpt lat="45.754904625937343" lon="6.707966281101108">
        <ele>1793</ele>
        <time>2014-07-18T07:12:05Z</time>
      </trkpt>
      <trkpt lat="45.754890209063888" lon="6.707918168976903">
        <ele>1792.52</ele>
        <time>2014-07-18T07:12:23Z</time>
      </trkpt>
      <trkpt lat="45.754858944565058" lon="6.707928227260709">
        <ele>1793.96</ele>
        <time>2014-07-18T07:12:40Z</time>
      </trkpt>
      <trkpt lat="45.754854250699282" lon="6.707929819822311">
        <ele>1793.96</ele>
        <time>2014-07-18T07:12:41Z</time>
      </trkpt>
      <trkpt lat="45.754835391417146" lon="6.707931328564882">
        <ele>1794.4400000000001</ele>
        <time>2014-07-18T07:12:44Z</time>
      </trkpt>
      <trkpt lat="45.754750818014145" lon="6.707909032702446">
        <ele>1795.8800000000001</ele>
        <time>2014-07-18T07:12:57Z</time>
      </trkpt>
      <trkpt lat="45.754652330651879" lon="6.707906015217304">
        <ele>1797.3199999999999</ele>
        <time>2014-07-18T07:13:08Z</time>
      </trkpt>
      <trkpt lat="45.75454680249095" lon="6.707912050187588">
        <ele>1798.76</ele>
        <time>2014-07-18T07:13:20Z</time>
      </trkpt>
      <trkpt lat="45.754477148875594" lon="6.707925796508789">
        <ele>1800.21</ele>
        <time>2014-07-18T07:13:34Z</time>
      </trkpt>
      <trkpt lat="45.754412356764078" lon="6.708015482872725">
        <ele>1801.1700000000001</ele>
        <time>2014-07-18T07:13:46Z</time>
      </trkpt>
      <trkpt lat="45.754321748390794" lon="6.708124196156859">
        <ele>1802.6099999999999</ele>
        <time>2014-07-18T07:14:00Z</time>
      </trkpt>
      <trkpt lat="45.754236169159412" lon="6.708180774003267">
        <ele>1804.05</ele>
        <time>2014-07-18T07:14:12Z</time>
      </trkpt>
      <trkpt lat="45.754231475293636" lon="6.708183623850346">
        <ele>1804.05</ele>
        <time>2014-07-18T07:14:13Z</time>
      </trkpt>
      <trkpt lat="45.754219237715006" lon="6.708136266097426">
        <ele>1804.53</ele>
        <time>2014-07-18T07:14:26Z</time>
      </trkpt>
      <trkpt lat="45.754206916317344" lon="6.708161076530814">
        <ele>1804.53</ele>
        <time>2014-07-18T07:14:41Z</time>
      </trkpt>
      <trkpt lat="45.75412661768496" lon="6.708219414576888">
        <ele>1806.45</ele>
        <time>2014-07-18T07:14:52Z</time>
      </trkpt>
      <trkpt lat="45.754072135314345" lon="6.708298288285732">
        <ele>1808.3800000000001</ele>
        <time>2014-07-18T07:15:05Z</time>
      </trkpt>
      <trkpt lat="45.753998542204499" lon="6.708416137844324">
        <ele>1810.3</ele>
        <time>2014-07-18T07:15:21Z</time>
      </trkpt>
      <trkpt lat="45.753952274098992" lon="6.708437008783221">
        <ele>1810.78</ele>
        <time>2014-07-18T07:15:32Z</time>
      </trkpt>
      <trkpt lat="45.753947999328375" lon="6.708526611328125">
        <ele>1812.7</ele>
        <time>2014-07-18T07:15:45Z</time>
      </trkpt>
      <trkpt lat="45.753861414268613" lon="6.708637923002243">
        <ele>1814.6300000000001</ele>
        <time>2014-07-18T07:15:59Z</time>
      </trkpt>
      <trkpt lat="45.753796035423875" lon="6.708753509446979">
        <ele>1817.03</ele>
        <time>2014-07-18T07:16:14Z</time>
      </trkpt>
      <trkpt lat="45.753750102594495" lon="6.708750072866678">
        <ele>1817.99</ele>
        <time>2014-07-18T07:16:20Z</time>
      </trkpt>
      <trkpt lat="45.753653878346086" lon="6.708749150857329">
        <ele>1819.9100000000001</ele>
        <time>2014-07-18T07:16:35Z</time>
      </trkpt>
      <trkpt lat="45.753616327419877" lon="6.708782091736794">
        <ele>1821.8399999999999</ele>
        <time>2014-07-18T07:16:46Z</time>
      </trkpt>
      <trkpt lat="45.753593696281314" lon="6.708825845271349">
        <ele>1823.28</ele>
        <time>2014-07-18T07:16:53Z</time>
      </trkpt>
      <trkpt lat="45.753580117598176" lon="6.70893145725131">
        <ele>1824.72</ele>
        <time>2014-07-18T07:17:05Z</time>
      </trkpt>
      <trkpt lat="45.753516582772136" lon="6.709019718691707">
        <ele>1826.6400000000001</ele>
        <time>2014-07-18T07:17:19Z</time>
      </trkpt>
      <trkpt lat="45.753426142036915" lon="6.709051569923759">
        <ele>1829.53</ele>
        <time>2014-07-18T07:17:34Z</time>
      </trkpt>
      <trkpt lat="45.753391440957785" lon="6.709074033424258">
        <ele>1830.97</ele>
        <time>2014-07-18T07:17:42Z</time>
      </trkpt>
      <trkpt lat="45.753353051841259" lon="6.709092557430267">
        <ele>1832.4100000000001</ele>
        <time>2014-07-18T07:17:50Z</time>
      </trkpt>
      <trkpt lat="45.753271244466305" lon="6.709112171083689">
        <ele>1834.8099999999999</ele>
        <time>2014-07-18T07:18:02Z</time>
      </trkpt>
      <trkpt lat="45.753237213939428" lon="6.709187440574169">
        <ele>1837.22</ele>
        <time>2014-07-18T07:18:17Z</time>
      </trkpt>
      <trkpt lat="45.753216091543436" lon="6.709287520498037">
        <ele>1839.1400000000001</ele>
        <time>2014-07-18T07:18:30Z</time>
      </trkpt>
      <trkpt lat="45.753152556717396" lon="6.709287604317069">
        <ele>1841.0599999999999</ele>
        <time>2014-07-18T07:18:43Z</time>
      </trkpt>
      <trkpt lat="45.753092207014561" lon="6.709308559074998">
        <ele>1842.98</ele>
        <time>2014-07-18T07:18:56Z</time>
      </trkpt>
      <trkpt lat="45.753047615289688" lon="6.709340745583177">
        <ele>1845.3900000000001</ele>
        <time>2014-07-18T07:19:09Z</time>
      </trkpt>
      <trkpt lat="45.752999754622579" lon="6.709427582100034">
        <ele>1847.79</ele>
        <time>2014-07-18T07:19:24Z</time>
      </trkpt>
      <trkpt lat="45.752983829006553" lon="6.709527745842934">
        <ele>1850.1900000000001</ele>
        <time>2014-07-18T07:19:37Z</time>
      </trkpt>
      <trkpt lat="45.75290990062058" lon="6.709470832720399">
        <ele>1852.1199999999999</ele>
        <time>2014-07-18T07:19:50Z</time>
      </trkpt>
      <trkpt lat="45.752871092408895" lon="6.709486003965139">
        <ele>1854.52</ele>
        <time>2014-07-18T07:20:00Z</time>
      </trkpt>
      <trkpt lat="45.752812754362822" lon="6.709475107491016">
        <ele>1856.9200000000001</ele>
        <time>2014-07-18T07:20:13Z</time>
      </trkpt>
      <trkpt lat="45.752807976678014" lon="6.709492122754455">
        <ele>1857.4000000000001</ele>
        <time>2014-07-18T07:20:16Z</time>
      </trkpt>
      <trkpt lat="45.752770090475678" lon="6.709466809406877">
        <ele>1859.3299999999999</ele>
        <time>2014-07-18T07:20:29Z</time>
      </trkpt>
      <trkpt lat="45.752711249515414" lon="6.70941567979753">
        <ele>1861.25</ele>
        <time>2014-07-18T07:20:42Z</time>
      </trkpt>
      <trkpt lat="45.752662299200892" lon="6.709419870749116">
        <ele>1864.1300000000001</ele>
        <time>2014-07-18T07:20:55Z</time>
      </trkpt>
      <trkpt lat="45.752604631707072" lon="6.709436131641269">
        <ele>1866.54</ele>
        <time>2014-07-18T07:21:09Z</time>
      </trkpt>
      <trkpt lat="45.752543359994888" lon="6.709433533251286">
        <ele>1868.9400000000001</ele>
        <time>2014-07-18T07:21:22Z</time>
      </trkpt>
      <trkpt lat="45.752500612288713" lon="6.709403190761805">
        <ele>1871.3399999999999</ele>
        <time>2014-07-18T07:21:37Z</time>
      </trkpt>
      <trkpt lat="45.752456774935126" lon="6.70938584022224">
        <ele>1873.27</ele>
        <time>2014-07-18T07:21:49Z</time>
      </trkpt>
      <trkpt lat="45.752426767721772" lon="6.709375698119402">
        <ele>1875.6700000000001</ele>
        <time>2014-07-18T07:22:00Z</time>
      </trkpt>
      <trkpt lat="45.7523890491575" lon="6.709351474419236">
        <ele>1877.5899999999999</ele>
        <time>2014-07-18T07:22:13Z</time>
      </trkpt>
      <trkpt lat="45.752350827679038" lon="6.709411656484008">
        <ele>1880</ele>
        <time>2014-07-18T07:22:25Z</time>
      </trkpt>
      <trkpt lat="45.752302799373865" lon="6.709459768608213">
        <ele>1881.4400000000001</ele>
        <time>2014-07-18T07:22:39Z</time>
      </trkpt>
      <trkpt lat="45.752269104123116" lon="6.709500001743436">
        <ele>1883.3599999999999</ele>
        <time>2014-07-18T07:22:52Z</time>
      </trkpt>
      <trkpt lat="45.752236498519778" lon="6.709530092775822">
        <ele>1885.28</ele>
        <time>2014-07-18T07:23:06Z</time>
      </trkpt>
      <trkpt lat="45.75221705250442" lon="6.709539480507374">
        <ele>1885.76</ele>
        <time>2014-07-18T07:23:21Z</time>
      </trkpt>
      <trkpt lat="45.752198109403253" lon="6.709561524912715">
        <ele>1886.72</ele>
        <time>2014-07-18T07:23:25Z</time>
      </trkpt>
      <trkpt lat="45.752172376960516" lon="6.709531182423234">
        <ele>1887.6900000000001</ele>
        <time>2014-07-18T07:23:40Z</time>
      </trkpt>
      <trkpt lat="45.752184363082051" lon="6.709533780813217">
        <ele>1887.6900000000001</ele>
        <time>2014-07-18T07:23:56Z</time>
      </trkpt>
      <trkpt lat="45.752174723893404" lon="6.709528500214219">
        <ele>1887.6900000000001</ele>
        <time>2014-07-18T07:24:24Z</time>
      </trkpt>
      <trkpt lat="45.752090737223625" lon="6.709587089717388">
        <ele>1888.6500000000001</ele>
        <time>2014-07-18T07:24:39Z</time>
      </trkpt>
      <trkpt lat="45.752083025872707" lon="6.709557166323066">
        <ele>1888.6500000000001</ele>
        <time>2014-07-18T07:24:50Z</time>
      </trkpt>
      <trkpt lat="45.75209341943264" lon="6.709563285112381">
        <ele>1888.6500000000001</ele>
        <time>2014-07-18T07:25:20Z</time>
      </trkpt>
      <trkpt lat="45.752084031701088" lon="6.709588933736086">
        <ele>1889.1300000000001</ele>
        <time>2014-07-18T07:25:33Z</time>
      </trkpt>
      <trkpt lat="45.752088977023959" lon="6.709602093324065">
        <ele>1889.1300000000001</ele>
        <time>2014-07-18T07:25:56Z</time>
      </trkpt>
      <trkpt lat="45.752086210995913" lon="6.709587341174483">
        <ele>1889.1300000000001</ele>
        <time>2014-07-18T07:26:15Z</time>
      </trkpt>
      <trkpt lat="45.752081433311105" lon="6.709584491327405">
        <ele>1889.6099999999999</ele>
        <time>2014-07-18T07:26:31Z</time>
      </trkpt>
      <trkpt lat="45.752087803557515" lon="6.709568649530411">
        <ele>1889.6099999999999</ele>
        <time>2014-07-18T07:26:59Z</time>
      </trkpt>
      <trkpt lat="45.752088557928801" lon="6.709574097767472">
        <ele>1889.6099999999999</ele>
        <time>2014-07-18T07:27:25Z</time>
      </trkpt>
      <trkpt lat="45.752085959538817" lon="6.709587341174483">
        <ele>1889.6099999999999</ele>
        <time>2014-07-18T07:27:52Z</time>
      </trkpt>
      <trkpt lat="45.752068106085062" lon="6.709596980363131">
        <ele>1890.0899999999999</ele>
        <time>2014-07-18T07:28:04Z</time>
      </trkpt>
      <trkpt lat="45.752063831314445" lon="6.709598740562797">
        <ele>1891.05</ele>
        <time>2014-07-18T07:28:32Z</time>
      </trkpt>
      <trkpt lat="45.752017982304096" lon="6.709602428600192">
        <ele>1892.01</ele>
        <time>2014-07-18T07:28:45Z</time>
      </trkpt>
      <trkpt lat="45.751933408901095" lon="6.709572924301028">
        <ele>1894.9000000000001</ele>
        <time>2014-07-18T07:29:00Z</time>
      </trkpt>
      <trkpt lat="45.751904994249344" lon="6.709570409730077">
        <ele>1896.8199999999999</ele>
        <time>2014-07-18T07:29:10Z</time>
      </trkpt>
      <trkpt lat="45.751842381432652" lon="6.709601506590843">
        <ele>1899.7</ele>
        <time>2014-07-18T07:29:24Z</time>
      </trkpt>
      <trkpt lat="45.751733835786581" lon="6.709613744169474">
        <ele>1902.5899999999999</ele>
        <time>2014-07-18T07:29:42Z</time>
      </trkpt>
      <trkpt lat="45.751686813309789" lon="6.709663113579154">
        <ele>1905.47</ele>
        <time>2014-07-18T07:29:58Z</time>
      </trkpt>
      <trkpt lat="45.751669881865382" lon="6.709660347551107">
        <ele>1905.95</ele>
        <time>2014-07-18T07:30:01Z</time>
      </trkpt>
      <trkpt lat="45.751611460000277" lon="6.709655234590173">
        <ele>1906.9100000000001</ele>
        <time>2014-07-18T07:30:12Z</time>
      </trkpt>
      <trkpt lat="45.7515808660537" lon="6.709699993953109">
        <ele>1907.8699999999999</ele>
        <time>2014-07-18T07:30:26Z</time>
      </trkpt>
      <trkpt lat="45.751546584069729" lon="6.709723044186831">
        <ele>1909.3199999999999</ele>
        <time>2014-07-18T07:30:39Z</time>
      </trkpt>
      <trkpt lat="45.751555720344186" lon="6.709769731387496">
        <ele>1911.24</ele>
        <time>2014-07-18T07:30:54Z</time>
      </trkpt>
      <trkpt lat="45.751520181074739" lon="6.709798816591501">
        <ele>1912.2</ele>
        <time>2014-07-18T07:30:59Z</time>
      </trkpt>
      <trkpt lat="45.75144499540329" lon="6.709806695580483">
        <ele>1913.6400000000001</ele>
        <time>2014-07-18T07:31:09Z</time>
      </trkpt>
      <trkpt lat="45.751341646537185" lon="6.709838295355439">
        <ele>1915.5599999999999</ele>
        <time>2014-07-18T07:31:21Z</time>
      </trkpt>
      <trkpt lat="45.75125053524971" lon="6.709898812696338">
        <ele>1917.01</ele>
        <time>2014-07-18T07:31:33Z</time>
      </trkpt>
      <trkpt lat="45.751185994595289" lon="6.709969053044915">
        <ele>1917.97</ele>
        <time>2014-07-18T07:31:42Z</time>
      </trkpt>
      <trkpt lat="45.75106923468411" lon="6.710098888725042">
        <ele>1917.97</ele>
        <time>2014-07-18T07:31:56Z</time>
      </trkpt>
      <trkpt lat="45.751036126166582" lon="6.710135769098997">
        <ele>1917.97</ele>
        <time>2014-07-18T07:32:01Z</time>
      </trkpt>
      <trkpt lat="45.750966388732195" lon="6.710201650857925">
        <ele>1917.01</ele>
        <time>2014-07-18T07:32:11Z</time>
      </trkpt>
      <trkpt lat="45.750785507261753" lon="6.710324781015515">
        <ele>1914.1199999999999</ele>
        <time>2014-07-18T07:32:29Z</time>
      </trkpt>
      <trkpt lat="45.750620299950242" lon="6.7103929258883">
        <ele>1914.1199999999999</ele>
        <time>2014-07-18T07:32:44Z</time>
      </trkpt>
      <trkpt lat="45.750477388501167" lon="6.71053709462285">
        <ele>1913.6400000000001</ele>
        <time>2014-07-18T07:33:00Z</time>
      </trkpt>
      <trkpt lat="45.750405471771955" lon="6.710705906152725">
        <ele>1914.1199999999999</ele>
        <time>2014-07-18T07:33:14Z</time>
      </trkpt>
      <trkpt lat="45.75030111707747" lon="6.710884608328342">
        <ele>1916.04</ele>
        <time>2014-07-18T07:33:30Z</time>
      </trkpt>
      <trkpt lat="45.750227440148592" lon="6.71103791333735">
        <ele>1917.97</ele>
        <time>2014-07-18T07:33:45Z</time>
      </trkpt>
      <trkpt lat="45.750175472348928" lon="6.711260536685586">
        <ele>1917.97</ele>
        <time>2014-07-18T07:34:01Z</time>
      </trkpt>
      <trkpt lat="45.750147812068462" lon="6.711399424821138">
        <ele>1917.49</ele>
        <time>2014-07-18T07:34:10Z</time>
      </trkpt>
      <trkpt lat="45.750136831775308" lon="6.711461367085576">
        <ele>1917.49</ele>
        <time>2014-07-18T07:34:15Z</time>
      </trkpt>
      <trkpt lat="45.750178322196007" lon="6.711561447009444">
        <ele>1916.53</ele>
        <time>2014-07-18T07:34:29Z</time>
      </trkpt>
      <trkpt lat="45.750163905322552" lon="6.711579384282231">
        <ele>1917.01</ele>
        <time>2014-07-18T07:34:36Z</time>
      </trkpt>
      <trkpt lat="45.750099113211036" lon="6.711702682077885">
        <ele>1917.01</ele>
        <time>2014-07-18T07:34:45Z</time>
      </trkpt>
      <trkpt lat="45.750084612518549" lon="6.711738388985395">
        <ele>1917.49</ele>
        <time>2014-07-18T07:34:48Z</time>
      </trkpt>
      <trkpt lat="45.750036668032408" lon="6.711776526644826">
        <ele>1917.97</ele>
        <time>2014-07-18T07:34:53Z</time>
      </trkpt>
      <trkpt lat="45.749999955296516" lon="6.711819944903255">
        <ele>1918.45</ele>
        <time>2014-07-18T07:34:58Z</time>
      </trkpt>
      <trkpt lat="45.749916639178991" lon="6.711896974593401">
        <ele>1919.8900000000001</ele>
        <time>2014-07-18T07:35:10Z</time>
      </trkpt>
      <trkpt lat="45.749847237020731" lon="6.711949026212096">
        <ele>1921.8099999999999</ele>
        <time>2014-07-18T07:35:21Z</time>
      </trkpt>
      <trkpt lat="45.749842124059796" lon="6.711963945999742">
        <ele>1921.8099999999999</ele>
        <time>2014-07-18T07:35:22Z</time>
      </trkpt>
      <trkpt lat="45.749755790457129" lon="6.712137786671519">
        <ele>1922.77</ele>
        <time>2014-07-18T07:35:37Z</time>
      </trkpt>
      <trkpt lat="45.749622853472829" lon="6.712274998426437">
        <ele>1922.77</ele>
        <time>2014-07-18T07:35:51Z</time>
      </trkpt>
      <trkpt lat="45.74955546297133" lon="6.712392093613744">
        <ele>1923.25</ele>
        <time>2014-07-18T07:36:01Z</time>
      </trkpt>
      <trkpt lat="45.74953249655664" lon="6.712475661188364">
        <ele>1923.25</ele>
        <time>2014-07-18T07:36:06Z</time>
      </trkpt>
      <trkpt lat="45.749512296169996" lon="6.712532322853804">
        <ele>1923.25</ele>
        <time>2014-07-18T07:36:10Z</time>
      </trkpt>
      <trkpt lat="45.749494107440114" lon="6.712599713355303">
        <ele>1923.74</ele>
        <time>2014-07-18T07:36:14Z</time>
      </trkpt>
      <trkpt lat="45.749411545693874" lon="6.712872544303536">
        <ele>1923.74</ele>
        <time>2014-07-18T07:36:33Z</time>
      </trkpt>
      <trkpt lat="45.749326972290874" lon="6.713056191802025">
        <ele>1925.1800000000001</ele>
        <time>2014-07-18T07:36:50Z</time>
      </trkpt>
      <trkpt lat="45.749276848509908" lon="6.713233552873135">
        <ele>1926.6199999999999</ele>
        <time>2014-07-18T07:37:04Z</time>
      </trkpt>
      <trkpt lat="45.74916310608387" lon="6.713390210643411">
        <ele>1927.5799999999999</ele>
        <time>2014-07-18T07:37:19Z</time>
      </trkpt>
      <trkpt lat="45.749062774702907" lon="6.713552316650748">
        <ele>1928.54</ele>
        <time>2014-07-18T07:37:33Z</time>
      </trkpt>
      <trkpt lat="45.749019021168351" lon="6.713626412674785">
        <ele>1929.02</ele>
        <time>2014-07-18T07:37:40Z</time>
      </trkpt>
      <trkpt lat="45.748963700607419" lon="6.713709980249405">
        <ele>1929.5</ele>
        <time>2014-07-18T07:37:48Z</time>
      </trkpt>
      <trkpt lat="45.748913660645485" lon="6.713809305801988">
        <ele>1930.46</ele>
        <time>2014-07-18T07:37:57Z</time>
      </trkpt>
      <trkpt lat="45.748885832726955" lon="6.713864961639047">
        <ele>1930.46</ele>
        <time>2014-07-18T07:38:01Z</time>
      </trkpt>
      <trkpt lat="45.748746525496244" lon="6.714065372943878">
        <ele>1930.95</ele>
        <time>2014-07-18T07:38:18Z</time>
      </trkpt>
      <trkpt lat="45.748602189123631" lon="6.714229909703136">
        <ele>1931.4300000000001</ele>
        <time>2014-07-18T07:38:32Z</time>
      </trkpt>
      <trkpt lat="45.748461373150349" lon="6.71432294882834">
        <ele>1931.9100000000001</ele>
        <time>2014-07-18T07:38:44Z</time>
      </trkpt>
      <trkpt lat="45.748278815299273" lon="6.714359242469072">
        <ele>1932.3900000000001</ele>
        <time>2014-07-18T07:38:59Z</time>
      </trkpt>
      <trkpt lat="45.748141519725323" lon="6.714391428977251">
        <ele>1933.8299999999999</ele>
        <time>2014-07-18T07:39:11Z</time>
      </trkpt>
      <trkpt lat="45.747982850298285" lon="6.714521599933505">
        <ele>1934.3099999999999</ele>
        <time>2014-07-18T07:39:26Z</time>
      </trkpt>
      <trkpt lat="45.747845135629177" lon="6.714596534147859">
        <ele>1935.27</ele>
        <time>2014-07-18T07:39:40Z</time>
      </trkpt>
      <trkpt lat="45.747822755947709" lon="6.714620590209961">
        <ele>1935.75</ele>
        <time>2014-07-18T07:39:42Z</time>
      </trkpt>
      <trkpt lat="45.747797694057226" lon="6.714727459475398">
        <ele>1937.1900000000001</ele>
        <time>2014-07-18T07:39:50Z</time>
      </trkpt>
      <trkpt lat="45.747763998806477" lon="6.714770207181573">
        <ele>1937.6700000000001</ele>
        <time>2014-07-18T07:39:54Z</time>
      </trkpt>
      <trkpt lat="45.747748324647546" lon="6.714794263243675">
        <ele>1937.6700000000001</ele>
        <time>2014-07-18T07:39:56Z</time>
      </trkpt>
      <trkpt lat="45.747686801478267" lon="6.714827623218298">
        <ele>1938.1600000000001</ele>
        <time>2014-07-18T07:40:02Z</time>
      </trkpt>
      <trkpt lat="45.74766400270164" lon="6.714865509420633">
        <ele>1938.6400000000001</ele>
        <time>2014-07-18T07:40:07Z</time>
      </trkpt>
      <trkpt lat="45.747751006856561" lon="6.7149190697819">
        <ele>1939.5999999999999</ele>
        <time>2014-07-18T07:40:17Z</time>
      </trkpt>
      <trkpt lat="45.747768608853221" lon="6.71496064402163">
        <ele>1940.5599999999999</ele>
        <time>2014-07-18T07:40:21Z</time>
      </trkpt>
      <trkpt lat="45.747683700174093" lon="6.715056365355849">
        <ele>1942.96</ele>
        <time>2014-07-18T07:40:35Z</time>
      </trkpt>
      <trkpt lat="45.747590493410826" lon="6.715099448338151">
        <ele>1945.3599999999999</ele>
        <time>2014-07-18T07:40:47Z</time>
      </trkpt>
      <trkpt lat="45.747496364638209" lon="6.715184189379215">
        <ele>1946.8099999999999</ele>
        <time>2014-07-18T07:41:00Z</time>
      </trkpt>
      <trkpt lat="45.747420843690634" lon="6.71521813608706">
        <ele>1946.8099999999999</ele>
        <time>2014-07-18T07:41:08Z</time>
      </trkpt>
      <trkpt lat="45.747378431260586" lon="6.715217046439648">
        <ele>1947.77</ele>
        <time>2014-07-18T07:41:12Z</time>
      </trkpt>
      <trkpt lat="45.747353201732039" lon="6.715246131643653">
        <ele>1947.29</ele>
        <time>2014-07-18T07:41:15Z</time>
      </trkpt>
      <trkpt lat="45.747256055474281" lon="6.715344032272697">
        <ele>1948.73</ele>
        <time>2014-07-18T07:41:31Z</time>
      </trkpt>
      <trkpt lat="45.74720760807395" lon="6.715425923466682">
        <ele>1951.1300000000001</ele>
        <time>2014-07-18T07:41:43Z</time>
      </trkpt>
      <trkpt lat="45.747190844267607" lon="6.715454505756497">
        <ele>1951.6099999999999</ele>
        <time>2014-07-18T07:41:46Z</time>
      </trkpt>
      <trkpt lat="45.747156981378794" lon="6.715615103021264">
        <ele>1953.54</ele>
        <time>2014-07-18T07:42:00Z</time>
      </trkpt>
      <trkpt lat="45.747141810134053" lon="6.715661454945803">
        <ele>1953.54</ele>
        <time>2014-07-18T07:42:03Z</time>
      </trkpt>
      <trkpt lat="45.747141726315022" lon="6.715683499351144">
        <ele>1954.02</ele>
        <time>2014-07-18T07:42:05Z</time>
      </trkpt>
      <trkpt lat="45.747132254764438" lon="6.715752147138119">
        <ele>1954.02</ele>
        <time>2014-07-18T07:42:10Z</time>
      </trkpt>
      <trkpt lat="45.747114401310682" lon="6.715818280354142">
        <ele>1954.5</ele>
        <time>2014-07-18T07:42:15Z</time>
      </trkpt>
      <trkpt lat="45.747085567563772" lon="6.715941242873669">
        <ele>1955.9400000000001</ele>
        <time>2014-07-18T07:42:27Z</time>
      </trkpt>
      <trkpt lat="45.747027229517698" lon="6.716076359152794">
        <ele>1958.8199999999999</ele>
        <time>2014-07-18T07:42:40Z</time>
      </trkpt>
      <trkpt lat="45.747015997767448" lon="6.716119190678001">
        <ele>1958.8199999999999</ele>
        <time>2014-07-18T07:42:44Z</time>
      </trkpt>
      <trkpt lat="45.746945925056934" lon="6.716232597827911">
        <ele>1960.27</ele>
        <time>2014-07-18T07:42:56Z</time>
      </trkpt>
      <trkpt lat="45.746941231191158" lon="6.716245003044605">
        <ele>1960.75</ele>
        <time>2014-07-18T07:42:57Z</time>
      </trkpt>
      <trkpt lat="45.746936537325382" lon="6.716267969459295">
        <ele>1960.75</ele>
        <time>2014-07-18T07:42:59Z</time>
      </trkpt>
      <trkpt lat="45.746925305575132" lon="6.716340389102697">
        <ele>1961.71</ele>
        <time>2014-07-18T07:43:06Z</time>
      </trkpt>
      <trkpt lat="45.746918600052595" lon="6.716480366885662">
        <ele>1963.1500000000001</ele>
        <time>2014-07-18T07:43:18Z</time>
      </trkpt>
      <trkpt lat="45.746864369139075" lon="6.716607939451933">
        <ele>1965.55</ele>
        <time>2014-07-18T07:43:31Z</time>
      </trkpt>
      <trkpt lat="45.746850538998842" lon="6.716664517298341">
        <ele>1966.03</ele>
        <time>2014-07-18T07:43:35Z</time>
      </trkpt>
      <trkpt lat="45.746811144053936" lon="6.716771554201841">
        <ele>1966.99</ele>
        <time>2014-07-18T07:43:44Z</time>
      </trkpt>
      <trkpt lat="45.746763367205858" lon="6.716809356585145">
        <ele>1967.48</ele>
        <time>2014-07-18T07:43:50Z</time>
      </trkpt>
      <trkpt lat="45.746754314750433" lon="6.716846404597163">
        <ele>1968.4400000000001</ele>
        <time>2014-07-18T07:43:54Z</time>
      </trkpt>
      <trkpt lat="45.746750626713037" lon="6.71686576679349">
        <ele>1967.96</ele>
        <time>2014-07-18T07:43:55Z</time>
      </trkpt>
      <trkpt lat="45.746722128242254" lon="6.717023849487305">
        <ele>1969.4000000000001</ele>
        <time>2014-07-18T07:44:09Z</time>
      </trkpt>
      <trkpt lat="45.746662700548768" lon="6.717134406790137">
        <ele>1971.3199999999999</ele>
        <time>2014-07-18T07:44:21Z</time>
      </trkpt>
      <trkpt lat="45.746608721092343" lon="6.717230379581451">
        <ele>1973.24</ele>
        <time>2014-07-18T07:44:34Z</time>
      </trkpt>
      <trkpt lat="45.746576115489006" lon="6.717350408434868">
        <ele>1974.6900000000001</ele>
        <time>2014-07-18T07:44:46Z</time>
      </trkpt>
      <trkpt lat="45.746601512655616" lon="6.717431209981442">
        <ele>1975.6500000000001</ele>
        <time>2014-07-18T07:44:53Z</time>
      </trkpt>
      <trkpt lat="45.746619533747435" lon="6.717533888295293">
        <ele>1976.6099999999999</ele>
        <time>2014-07-18T07:45:01Z</time>
      </trkpt>
      <trkpt lat="45.746595729142427" lon="6.717607984319329">
        <ele>1976.6099999999999</ele>
        <time>2014-07-18T07:45:06Z</time>
      </trkpt>
      <trkpt lat="45.746636381372809" lon="6.717782830819488">
        <ele>1977.5699999999999</ele>
        <time>2014-07-18T07:45:20Z</time>
      </trkpt>
      <trkpt lat="45.746671920642257" lon="6.717934375628829">
        <ele>1979.01</ele>
        <time>2014-07-18T07:45:33Z</time>
      </trkpt>
      <trkpt lat="45.746677871793509" lon="6.718048034235835">
        <ele>1979.97</ele>
        <time>2014-07-18T07:45:42Z</time>
      </trkpt>
      <trkpt lat="45.746640572324395" lon="6.718191280961037">
        <ele>1981.4100000000001</ele>
        <time>2014-07-18T07:45:55Z</time>
      </trkpt>
      <trkpt lat="45.746573600918055" lon="6.71808835119009">
        <ele>1983.3399999999999</ele>
        <time>2014-07-18T07:46:07Z</time>
      </trkpt>
      <trkpt lat="45.746558010578156" lon="6.71805415302515">
        <ele>1982.8599999999999</ele>
        <time>2014-07-18T07:46:22Z</time>
      </trkpt>
      <trkpt lat="45.746527165174484" lon="6.718003442510963">
        <ele>1983.8199999999999</ele>
        <time>2014-07-18T07:46:28Z</time>
      </trkpt>
      <trkpt lat="45.746504366397858" lon="6.71797351911664">
        <ele>1984.3</ele>
        <time>2014-07-18T07:46:32Z</time>
      </trkpt>
      <trkpt lat="45.746399257332087" lon="6.717910654842854">
        <ele>1986.7</ele>
        <time>2014-07-18T07:46:47Z</time>
      </trkpt>
      <trkpt lat="45.746376207098365" lon="6.717868661507964">
        <ele>1987.1800000000001</ele>
        <time>2014-07-18T07:46:51Z</time>
      </trkpt>
      <trkpt lat="45.746351899579167" lon="6.717805461958051">
        <ele>1987.1800000000001</ele>
        <time>2014-07-18T07:46:56Z</time>
      </trkpt>
      <trkpt lat="45.746251316741109" lon="6.717687947675586">
        <ele>1989.0999999999999</ele>
        <time>2014-07-18T07:47:11Z</time>
      </trkpt>
      <trkpt lat="45.746227847412229" lon="6.717666573822498">
        <ele>1989.5899999999999</ele>
        <time>2014-07-18T07:47:14Z</time>
      </trkpt>
      <trkpt lat="45.746132964268327" lon="6.717567918822169">
        <ele>1992.95</ele>
        <time>2014-07-18T07:47:31Z</time>
      </trkpt>
      <trkpt lat="45.746067417785525" lon="6.717493068426848">
        <ele>1995.3499999999999</ele>
        <time>2014-07-18T07:47:46Z</time>
      </trkpt>
      <trkpt lat="45.746002541854978" lon="6.717408075928688">
        <ele>1998.72</ele>
        <time>2014-07-18T07:48:02Z</time>
      </trkpt>
      <trkpt lat="45.745922159403563" lon="6.717298524454236">
        <ele>2000.6400000000001</ele>
        <time>2014-07-18T07:48:19Z</time>
      </trkpt>
      <trkpt lat="45.745834400877357" lon="6.717224093154073">
        <ele>2003.52</ele>
        <time>2014-07-18T07:48:37Z</time>
      </trkpt>
      <trkpt lat="45.745764244347811" lon="6.717201126739383">
        <ele>2005.9300000000001</ele>
        <time>2014-07-18T07:48:50Z</time>
      </trkpt>
      <trkpt lat="45.745707415044308" lon="6.717180926352739">
        <ele>2008.3299999999999</ele>
        <time>2014-07-18T07:49:04Z</time>
      </trkpt>
      <trkpt lat="45.745651172474027" lon="6.717134490609169">
        <ele>2010.73</ele>
        <time>2014-07-18T07:49:18Z</time>
      </trkpt>
      <trkpt lat="45.745578501373529" lon="6.717090737074614">
        <ele>2014.0999999999999</ele>
        <time>2014-07-18T07:49:34Z</time>
      </trkpt>
      <trkpt lat="45.745502645149827" lon="6.717076571658254">
        <ele>2016.5</ele>
        <time>2014-07-18T07:49:49Z</time>
      </trkpt>
      <trkpt lat="45.745426537469029" lon="6.717079170048237">
        <ele>2019.3900000000001</ele>
        <time>2014-07-18T07:50:04Z</time>
      </trkpt>
      <trkpt lat="45.745366355404258" lon="6.717021921649575">
        <ele>2021.79</ele>
        <time>2014-07-18T07:50:17Z</time>
      </trkpt>
      <trkpt lat="45.745314219966531" lon="6.716958722099662">
        <ele>2024.6700000000001</ele>
        <time>2014-07-18T07:50:30Z</time>
      </trkpt>
      <trkpt lat="45.745276417583227" lon="6.71698696911335">
        <ele>2026.5999999999999</ele>
        <time>2014-07-18T07:50:41Z</time>
      </trkpt>
      <trkpt lat="45.745216151699424" lon="6.716885799542069">
        <ele>2029.48</ele>
        <time>2014-07-18T07:50:56Z</time>
      </trkpt>
      <trkpt lat="45.745195867493749" lon="6.716817067936063">
        <ele>2031.4000000000001</ele>
        <time>2014-07-18T07:51:08Z</time>
      </trkpt>
      <trkpt lat="45.745141552761197" lon="6.716777421534061">
        <ele>2033.8099999999999</ele>
        <time>2014-07-18T07:51:22Z</time>
      </trkpt>
      <trkpt lat="45.745083969086409" lon="6.716761495918036">
        <ele>2035.73</ele>
        <time>2014-07-18T07:51:33Z</time>
      </trkpt>
      <trkpt lat="45.745031414553523" lon="6.716690836474299">
        <ele>2037.6500000000001</ele>
        <time>2014-07-18T07:51:46Z</time>
      </trkpt>
      <trkpt lat="45.74500828050077" lon="6.716639790683985">
        <ele>2038.6099999999999</ele>
        <time>2014-07-18T07:51:52Z</time>
      </trkpt>
      <trkpt lat="45.744953043758869" lon="6.716566029936075">
        <ele>2040.54</ele>
        <time>2014-07-18T07:52:07Z</time>
      </trkpt>
      <trkpt lat="45.744926724582911" lon="6.716493861749768">
        <ele>2041.98</ele>
        <time>2014-07-18T07:52:18Z</time>
      </trkpt>
      <trkpt lat="45.744883306324482" lon="6.716452287510037">
        <ele>2042.9400000000001</ele>
        <time>2014-07-18T07:52:25Z</time>
      </trkpt>
      <trkpt lat="45.744830248877406" lon="6.716356398537755">
        <ele>2045.3399999999999</ele>
        <time>2014-07-18T07:52:40Z</time>
      </trkpt>
      <trkpt lat="45.744811221957207" lon="6.716284649446607">
        <ele>2046.3</ele>
        <time>2014-07-18T07:52:56Z</time>
      </trkpt>
      <trkpt lat="45.744752800092101" lon="6.716283475980163">
        <ele>2048.23</ele>
        <time>2014-07-18T07:53:08Z</time>
      </trkpt>
      <trkpt lat="45.744777442887425" lon="6.716298814862967">
        <ele>2048.71</ele>
        <time>2014-07-18T07:53:28Z</time>
      </trkpt>
      <trkpt lat="45.744764115661383" lon="6.716305017471314">
        <ele>2048.71</ele>
        <time>2014-07-18T07:53:52Z</time>
      </trkpt>
      <trkpt lat="45.744772832840681" lon="6.716286912560463">
        <ele>2048.71</ele>
        <time>2014-07-18T07:54:21Z</time>
      </trkpt>
      <trkpt lat="45.744763948023319" lon="6.716279871761799">
        <ele>2048.71</ele>
        <time>2014-07-18T07:54:40Z</time>
      </trkpt>
      <trkpt lat="45.744784651324153" lon="6.716288588941097">
        <ele>2048.71</ele>
        <time>2014-07-18T07:54:58Z</time>
      </trkpt>
      <trkpt lat="45.744763445109129" lon="6.716216839849949">
        <ele>2047.75</ele>
        <time>2014-07-18T07:55:10Z</time>
      </trkpt>
      <trkpt lat="45.744793619960546" lon="6.71620661392808">
        <ele>2047.75</ele>
        <time>2014-07-18T07:55:23Z</time>
      </trkpt>
      <trkpt lat="45.744801415130496" lon="6.716219438239932">
        <ele>2047.75</ele>
        <time>2014-07-18T07:55:44Z</time>
      </trkpt>
      <trkpt lat="45.744774090126157" lon="6.716159675270319">
        <ele>2048.23</ele>
        <time>2014-07-18T07:56:04Z</time>
      </trkpt>
      <trkpt lat="45.744783142581582" lon="6.716164117679">
        <ele>2047.26</ele>
        <time>2014-07-18T07:56:18Z</time>
      </trkpt>
      <trkpt lat="45.744768306612968" lon="6.716151544824243">
        <ele>2048.23</ele>
        <time>2014-07-18T07:56:50Z</time>
      </trkpt>
      <trkpt lat="45.744790434837341" lon="6.716168224811554">
        <ele>2048.23</ele>
        <time>2014-07-18T07:57:09Z</time>
      </trkpt>
      <trkpt lat="45.744773000478745" lon="6.716149616986513">
        <ele>2048.23</ele>
        <time>2014-07-18T07:57:27Z</time>
      </trkpt>
      <trkpt lat="45.744767719879746" lon="6.716140899807215">
        <ele>2048.71</ele>
        <time>2014-07-18T07:58:01Z</time>
      </trkpt>
      <trkpt lat="45.74477132409811" lon="6.716175014153123">
        <ele>2047.75</ele>
        <time>2014-07-18T07:58:31Z</time>
      </trkpt>
      <trkpt lat="45.744755314663053" lon="6.716134194284678">
        <ele>2047.75</ele>
        <time>2014-07-18T07:59:07Z</time>
      </trkpt>
      <trkpt lat="45.744764115661383" lon="6.716136876493692">
        <ele>2048.23</ele>
        <time>2014-07-18T07:59:30Z</time>
      </trkpt>
      <trkpt lat="45.744765875861049" lon="6.716140815988183">
        <ele>2048.23</ele>
        <time>2014-07-18T08:00:12Z</time>
      </trkpt>
      <trkpt lat="45.744764367118478" lon="6.716157412156463">
        <ele>2048.23</ele>
        <time>2014-07-18T08:00:44Z</time>
      </trkpt>
      <trkpt lat="45.744739724323153" lon="6.71614064835012">
        <ele>2048.71</ele>
        <time>2014-07-18T08:01:14Z</time>
      </trkpt>
      <trkpt lat="45.744759002700448" lon="6.71616218984127">
        <ele>2048.71</ele>
        <time>2014-07-18T08:01:45Z</time>
      </trkpt>
      <trkpt lat="45.744756571948528" lon="6.71615238301456">
        <ele>2048.71</ele>
        <time>2014-07-18T08:02:22Z</time>
      </trkpt>
      <trkpt lat="45.744763780385256" lon="6.716166129335761">
        <ele>2048.71</ele>
        <time>2014-07-18T08:02:54Z</time>
      </trkpt>
      <trkpt lat="45.744784735143185" lon="6.716174427419901">
        <ele>2048.71</ele>
        <time>2014-07-18T08:03:26Z</time>
      </trkpt>
      <trkpt lat="45.744770569726825" lon="6.716146180406213">
        <ele>2048.71</ele>
        <time>2014-07-18T08:04:09Z</time>
      </trkpt>
      <trkpt lat="45.744782639667392" lon="6.716180462390184">
        <ele>2049.1900000000001</ele>
        <time>2014-07-18T08:04:48Z</time>
      </trkpt>
      <trkpt lat="45.744759924709797" lon="6.716136457398534">
        <ele>2049.1900000000001</ele>
        <time>2014-07-18T08:05:26Z</time>
      </trkpt>
      <trkpt lat="45.744770234450698" lon="6.716126650571823">
        <ele>2049.1900000000001</ele>
        <time>2014-07-18T08:06:06Z</time>
      </trkpt>
      <trkpt lat="45.744771240279078" lon="6.716173505410552">
        <ele>2049.6700000000001</ele>
        <time>2014-07-18T08:06:42Z</time>
      </trkpt>
      <trkpt lat="45.744782304391265" lon="6.716190939769149">
        <ele>2049.6700000000001</ele>
        <time>2014-07-18T08:07:09Z</time>
      </trkpt>
      <trkpt lat="45.744793703779578" lon="6.716174595057964">
        <ele>2049.6700000000001</ele>
        <time>2014-07-18T08:07:42Z</time>
      </trkpt>
      <trkpt lat="45.744772916659713" lon="6.716144336387515">
        <ele>2050.1500000000001</ele>
        <time>2014-07-18T08:08:09Z</time>
      </trkpt>
      <trkpt lat="45.744774928316474" lon="6.716119525954127">
        <ele>2050.1500000000001</ele>
        <time>2014-07-18T08:08:42Z</time>
      </trkpt>
      <trkpt lat="45.744780376553535" lon="6.716149197891355">
        <ele>2050.1500000000001</ele>
        <time>2014-07-18T08:09:13Z</time>
      </trkpt>
      <trkpt lat="45.744777275249362" lon="6.716128662228584">
        <ele>2050.1500000000001</ele>
        <time>2014-07-18T08:09:41Z</time>
      </trkpt>
      <trkpt lat="45.744788758456707" lon="6.716128410771489">
        <ele>2050.1500000000001</ele>
        <time>2014-07-18T08:10:03Z</time>
      </trkpt>
      <trkpt lat="45.744805270805955" lon="6.716172331944108">
        <ele>2050.6300000000001</ele>
        <time>2014-07-18T08:10:30Z</time>
      </trkpt>
      <trkpt lat="45.744788758456707" lon="6.716160262003541">
        <ele>2050.6300000000001</ele>
        <time>2014-07-18T08:10:59Z</time>
      </trkpt>
      <trkpt lat="45.744786914438009" lon="6.716138049960136">
        <ele>2050.6300000000001</ele>
        <time>2014-07-18T08:11:35Z</time>
      </trkpt>
      <trkpt lat="45.744784567505121" lon="6.716132601723075">
        <ele>2051.1100000000001</ele>
        <time>2014-07-18T08:11:58Z</time>
      </trkpt>
      <trkpt lat="45.744771407917142" lon="6.716095972806215">
        <ele>2051.1100000000001</ele>
        <time>2014-07-18T08:12:25Z</time>
      </trkpt>
      <trkpt lat="45.744788255542517" lon="6.71613771468401">
        <ele>2051.1100000000001</ele>
        <time>2014-07-18T08:12:57Z</time>
      </trkpt>
      <trkpt lat="45.744782472029328" lon="6.716114915907383">
        <ele>2051.1100000000001</ele>
        <time>2014-07-18T08:13:24Z</time>
      </trkpt>
      <trkpt lat="45.744793200865388" lon="6.716148611158133">
        <ele>2051.5900000000001</ele>
        <time>2014-07-18T08:13:53Z</time>
      </trkpt>
      <trkpt lat="45.744800576940179" lon="6.71614752151072">
        <ele>2051.5900000000001</ele>
        <time>2014-07-18T08:14:31Z</time>
      </trkpt>
      <trkpt lat="45.744793117046356" lon="6.716160597279668">
        <ele>2052.0700000000002</ele>
        <time>2014-07-18T08:15:01Z</time>
      </trkpt>
      <trkpt lat="45.744789680466056" lon="6.716137966141105">
        <ele>2052.0700000000002</ele>
        <time>2014-07-18T08:15:37Z</time>
      </trkpt>
      <trkpt lat="45.744811221957207" lon="6.716189179569483">
        <ele>2052.0700000000002</ele>
        <time>2014-07-18T08:16:02Z</time>
      </trkpt>
      <trkpt lat="45.744796637445688" lon="6.716158837080002">
        <ele>2052.5500000000002</ele>
        <time>2014-07-18T08:16:36Z</time>
      </trkpt>
      <trkpt lat="45.744795463979244" lon="6.716165039688349">
        <ele>2052.5500000000002</ele>
        <time>2014-07-18T08:16:47Z</time>
      </trkpt>
      <trkpt lat="45.744784567505121" lon="6.716109802946448">
        <ele>2053.5100000000002</ele>
        <time>2014-07-18T08:16:59Z</time>
      </trkpt>
      <trkpt lat="45.744782974943519" lon="6.716084321960807">
        <ele>2053.9899999999998</ele>
        <time>2014-07-18T08:17:11Z</time>
      </trkpt>
      <trkpt lat="45.744777275249362" lon="6.716102845966816">
        <ele>2053.9899999999998</ele>
        <time>2014-07-18T08:17:29Z</time>
      </trkpt>
      <trkpt lat="45.744774676859379" lon="6.716165458783507">
        <ele>2054.4699999999998</ele>
        <time>2014-07-18T08:17:43Z</time>
      </trkpt>
      <trkpt lat="45.744769396260381" lon="6.716172164306045">
        <ele>2053.9899999999998</ele>
        <time>2014-07-18T08:17:47Z</time>
      </trkpt>
      <trkpt lat="45.744674513116479" lon="6.716128494590521">
        <ele>2055.4400000000001</ele>
        <time>2014-07-18T08:18:00Z</time>
      </trkpt>
      <trkpt lat="45.744583401829004" lon="6.716063031926751">
        <ele>2056.4000000000001</ele>
        <time>2014-07-18T08:18:15Z</time>
      </trkpt>
      <trkpt lat="45.744557585567236" lon="6.716027157381177">
        <ele>2057.8400000000001</ele>
        <time>2014-07-18T08:18:33Z</time>
      </trkpt>
      <trkpt lat="45.744520956650376" lon="6.716000251471996">
        <ele>2059.7600000000002</ele>
        <time>2014-07-18T08:18:41Z</time>
      </trkpt>
      <trkpt lat="45.744441077113152" lon="6.715993378311396">
        <ele>2061.1999999999998</ele>
        <time>2014-07-18T08:18:52Z</time>
      </trkpt>
      <trkpt lat="45.744392378255725" lon="6.715992875397205">
        <ele>2062.6500000000001</ele>
        <time>2014-07-18T08:18:59Z</time>
      </trkpt>
      <trkpt lat="45.744321215897799" lon="6.716012237593532">
        <ele>2064.0900000000001</ele>
        <time>2014-07-18T08:19:09Z</time>
      </trkpt>
      <trkpt lat="45.744273103773594" lon="6.716020703315735">
        <ele>2064.5700000000002</ele>
        <time>2014-07-18T08:19:14Z</time>
      </trkpt>
      <trkpt lat="45.74418936856091" lon="6.715990528464317">
        <ele>2066.4899999999998</ele>
        <time>2014-07-18T08:19:28Z</time>
      </trkpt>
      <trkpt lat="45.74409356340766" lon="6.715943925082684">
        <ele>2068.4099999999999</ele>
        <time>2014-07-18T08:19:43Z</time>
      </trkpt>
      <trkpt lat="45.744017036631703" lon="6.715848874300718">
        <ele>2070.8200000000002</ele>
        <time>2014-07-18T08:19:57Z</time>
      </trkpt>
      <trkpt lat="45.743918800726533" lon="6.715805623680353">
        <ele>2072.7399999999998</ele>
        <time>2014-07-18T08:20:11Z</time>
      </trkpt>
      <trkpt lat="45.74383364059031" lon="6.715742675587535">
        <ele>2074.6599999999999</ele>
        <time>2014-07-18T08:20:26Z</time>
      </trkpt>
      <trkpt lat="45.743725262582302" lon="6.71572339721024">
        <ele>2077.0700000000002</ele>
        <time>2014-07-18T08:20:41Z</time>
      </trkpt>
      <trkpt lat="45.743626607581973" lon="6.71565399505198">
        <ele>2079.9499999999998</ele>
        <time>2014-07-18T08:20:54Z</time>
      </trkpt>
      <trkpt lat="45.743503645062447" lon="6.715592388063669">
        <ele>2079.9499999999998</ele>
        <time>2014-07-18T08:21:09Z</time>
      </trkpt>
      <trkpt lat="45.743480511009693" lon="6.715591633692384">
        <ele>2079.9499999999998</ele>
        <time>2014-07-18T08:21:11Z</time>
      </trkpt>
      <trkpt lat="45.743307676166296" lon="6.715619042515755">
        <ele>2080.9099999999999</ele>
        <time>2014-07-18T08:21:28Z</time>
      </trkpt>
      <trkpt lat="45.743225198239088" lon="6.715609654784203">
        <ele>2080.9099999999999</ele>
        <time>2014-07-18T08:21:35Z</time>
      </trkpt>
      <trkpt lat="45.743081364780664" lon="6.715556010603905">
        <ele>2081.8699999999999</ele>
        <time>2014-07-18T08:21:49Z</time>
      </trkpt>
      <trkpt lat="45.743068205192685" lon="6.715529607608914">
        <ele>2081.8699999999999</ele>
        <time>2014-07-18T08:21:51Z</time>
      </trkpt>
      <trkpt lat="45.743032079190016" lon="6.715518208220601">
        <ele>2082.3499999999999</ele>
        <time>2014-07-18T08:21:55Z</time>
      </trkpt>
      <trkpt lat="45.743002993986011" lon="6.715514939278364">
        <ele>2082.8299999999999</ele>
        <time>2014-07-18T08:21:58Z</time>
      </trkpt>
      <trkpt lat="45.74291598983109" lon="6.715440675616264">
        <ele>2083.3099999999999</ele>
        <time>2014-07-18T08:22:08Z</time>
      </trkpt>
      <trkpt lat="45.742894113063812" lon="6.71539306640625">
        <ele>2083.79</ele>
        <time>2014-07-18T08:22:11Z</time>
      </trkpt>
      <trkpt lat="45.742730498313904" lon="6.715319557115436">
        <ele>2083.3099999999999</ele>
        <time>2014-07-18T08:22:26Z</time>
      </trkpt>
      <trkpt lat="45.742652714252472" lon="6.715101124718785">
        <ele>2084.7600000000002</ele>
        <time>2014-07-18T08:22:41Z</time>
      </trkpt>
      <trkpt lat="45.742605440318584" lon="6.715052761137486">
        <ele>2085.7199999999998</ele>
        <time>2014-07-18T08:22:47Z</time>
      </trkpt>
      <trkpt lat="45.742478286847472" lon="6.714956369251013">
        <ele>2087.6399999999999</ele>
        <time>2014-07-18T08:23:03Z</time>
      </trkpt>
      <trkpt lat="45.742473592981696" lon="6.714948574081063">
        <ele>2087.6399999999999</ele>
        <time>2014-07-18T08:23:04Z</time>
      </trkpt>
      <trkpt lat="45.742386505007744" lon="6.714868023991585">
        <ele>2088.5999999999999</ele>
        <time>2014-07-18T08:23:15Z</time>
      </trkpt>
      <trkpt lat="45.742257675155997" lon="6.714717317372561">
        <ele>2091</ele>
        <time>2014-07-18T08:23:34Z</time>
      </trkpt>
      <trkpt lat="45.742156337946653" lon="6.714630397036672">
        <ele>2092.4499999999998</ele>
        <time>2014-07-18T08:23:48Z</time>
      </trkpt>
      <trkpt lat="45.742067405954003" lon="6.714579435065389">
        <ele>2093.8899999999999</ele>
        <time>2014-07-18T08:23:59Z</time>
      </trkpt>
      <trkpt lat="45.741943437606096" lon="6.714549763128161">
        <ele>2095.3299999999999</ele>
        <time>2014-07-18T08:24:13Z</time>
      </trkpt>
      <trkpt lat="45.741908987984061" lon="6.714465189725161">
        <ele>2095.8099999999999</ele>
        <time>2014-07-18T08:24:21Z</time>
      </trkpt>
      <trkpt lat="45.741873867809772" lon="6.714414395391941">
        <ele>2096.29</ele>
        <time>2014-07-18T08:24:26Z</time>
      </trkpt>
      <trkpt lat="45.741797592490911" lon="6.714358236640692">
        <ele>2096.77</ele>
        <time>2014-07-18T08:24:35Z</time>
      </trkpt>
      <trkpt lat="45.741767752915621" lon="6.714359829202294">
        <ele>2097.25</ele>
        <time>2014-07-18T08:24:46Z</time>
      </trkpt>
      <trkpt lat="45.741708744317293" lon="6.714296881109476">
        <ele>2097.25</ele>
        <time>2014-07-18T08:24:52Z</time>
      </trkpt>
      <trkpt lat="45.74156055226922" lon="6.714104264974594">
        <ele>2098.21</ele>
        <time>2014-07-18T08:25:09Z</time>
      </trkpt>
      <trkpt lat="45.741461645811796" lon="6.714035784825683">
        <ele>2099.1799999999998</ele>
        <time>2014-07-18T08:25:19Z</time>
      </trkpt>
      <trkpt lat="45.741349160671234" lon="6.713948529213667">
        <ele>2100.1399999999999</ele>
        <time>2014-07-18T08:25:32Z</time>
      </trkpt>
      <trkpt lat="45.741241788491607" lon="6.713879462331533">
        <ele>2102.0599999999999</ele>
        <time>2014-07-18T08:25:47Z</time>
      </trkpt>
      <trkpt lat="45.741142379119992" lon="6.713819028809667">
        <ele>2104.46</ele>
        <time>2014-07-18T08:26:00Z</time>
      </trkpt>
      <trkpt lat="45.741096027195454" lon="6.713802013546228">
        <ele>2105.9099999999999</ele>
        <time>2014-07-18T08:26:08Z</time>
      </trkpt>
      <trkpt lat="45.741066187620163" lon="6.713804276660085">
        <ele>2106.3899999999999</ele>
        <time>2014-07-18T08:26:13Z</time>
      </trkpt>
      <trkpt lat="45.740998713299632" lon="6.713787345215678">
        <ele>2107.8299999999999</ele>
        <time>2014-07-18T08:26:22Z</time>
      </trkpt>
      <trkpt lat="45.740879187360406" lon="6.71371903270483">
        <ele>2109.27</ele>
        <time>2014-07-18T08:26:36Z</time>
      </trkpt>
      <trkpt lat="45.740852952003479" lon="6.713692797347903">
        <ele>2109.27</ele>
        <time>2014-07-18T08:26:40Z</time>
      </trkpt>
      <trkpt lat="45.740754213184118" lon="6.713641248643398">
        <ele>2111.6700000000001</ele>
        <time>2014-07-18T08:26:54Z</time>
      </trkpt>
      <trkpt lat="45.74067173525691" lon="6.713643008843064">
        <ele>2113.5999999999999</ele>
        <time>2014-07-18T08:27:05Z</time>
      </trkpt>
      <trkpt lat="45.740607781335711" lon="6.713580563664436">
        <ele>2115.52</ele>
        <time>2014-07-18T08:27:19Z</time>
      </trkpt>
      <trkpt lat="45.740560507401824" lon="6.713514011353254">
        <ele>2116</ele>
        <time>2014-07-18T08:27:26Z</time>
      </trkpt>
      <trkpt lat="45.740532428026199" lon="6.713418373838067">
        <ele>2116.48</ele>
        <time>2014-07-18T08:27:33Z</time>
      </trkpt>
      <trkpt lat="45.740530919283628" lon="6.713330782949925">
        <ele>2116.48</ele>
        <time>2014-07-18T08:27:38Z</time>
      </trkpt>
      <trkpt lat="45.740488758310676" lon="6.713178735226393">
        <ele>2118.4000000000001</ele>
        <time>2014-07-18T08:27:52Z</time>
      </trkpt>
      <trkpt lat="45.740467384457588" lon="6.71315710991621">
        <ele>2118.8800000000001</ele>
        <time>2014-07-18T08:27:55Z</time>
      </trkpt>
      <trkpt lat="45.740435281768441" lon="6.71315174549818">
        <ele>2118.8800000000001</ele>
        <time>2014-07-18T08:27:59Z</time>
      </trkpt>
      <trkpt lat="45.740358084440231" lon="6.713123498484492">
        <ele>2119.8400000000001</ele>
        <time>2014-07-18T08:28:09Z</time>
      </trkpt>
      <trkpt lat="45.740309720858932" lon="6.713069770485163">
        <ele>2120.8099999999999</ele>
        <time>2014-07-18T08:28:18Z</time>
      </trkpt>
      <trkpt lat="45.740288598462939" lon="6.713053844869137">
        <ele>2121.29</ele>
        <time>2014-07-18T08:28:22Z</time>
      </trkpt>
      <trkpt lat="45.740163624286652" lon="6.713016126304865">
        <ele>2123.21</ele>
        <time>2014-07-18T08:28:36Z</time>
      </trkpt>
      <trkpt lat="45.740111405029893" lon="6.713009504601359">
        <ele>2123.6900000000001</ele>
        <time>2014-07-18T08:28:42Z</time>
      </trkpt>
      <trkpt lat="45.740085169672966" lon="6.712967930361629">
        <ele>2123.6900000000001</ele>
        <time>2014-07-18T08:28:46Z</time>
      </trkpt>
      <trkpt lat="45.740053653717041" lon="6.71294161118567">
        <ele>2124.6500000000001</ele>
        <time>2014-07-18T08:28:50Z</time>
      </trkpt>
      <trkpt lat="45.739989196881652" lon="6.712864078581333">
        <ele>2125.6100000000001</ele>
        <time>2014-07-18T08:29:00Z</time>
      </trkpt>
      <trkpt lat="45.739967068657279" lon="6.712847985327244">
        <ele>2126.0900000000001</ele>
        <time>2014-07-18T08:29:03Z</time>
      </trkpt>
      <trkpt lat="45.739914262667298" lon="6.712815128266811">
        <ele>2126.5700000000002</ele>
        <time>2014-07-18T08:29:10Z</time>
      </trkpt>
      <trkpt lat="45.739894732832909" lon="6.712779169902206">
        <ele>2127.0500000000002</ele>
        <time>2014-07-18T08:29:13Z</time>
      </trkpt>
      <trkpt lat="45.739886099472642" lon="6.712726783007383">
        <ele>2127.0500000000002</ele>
        <time>2014-07-18T08:29:17Z</time>
      </trkpt>
      <trkpt lat="45.73981024324894" lon="6.712634665891528">
        <ele>2128.98</ele>
        <time>2014-07-18T08:29:29Z</time>
      </trkpt>
      <trkpt lat="45.739794569090009" lon="6.712605245411396">
        <ele>2128.98</ele>
        <time>2014-07-18T08:29:32Z</time>
      </trkpt>
      <trkpt lat="45.739759700372815" lon="6.712472895160317">
        <ele>2129.46</ele>
        <time>2014-07-18T08:29:45Z</time>
      </trkpt>
      <trkpt lat="45.739726591855288" lon="6.71243148855865">
        <ele>2130.9000000000001</ele>
        <time>2014-07-18T08:29:52Z</time>
      </trkpt>
      <trkpt lat="45.739710414782166" lon="6.712399553507567">
        <ele>2131.8600000000001</ele>
        <time>2014-07-18T08:29:56Z</time>
      </trkpt>
      <trkpt lat="45.739687867462635" lon="6.712388908490539">
        <ele>2132.3400000000001</ele>
        <time>2014-07-18T08:30:00Z</time>
      </trkpt>
      <trkpt lat="45.739672780036926" lon="6.712372731417418">
        <ele>2132.8200000000002</ele>
        <time>2014-07-18T08:30:02Z</time>
      </trkpt>
      <trkpt lat="45.739607065916061" lon="6.712276423349977">
        <ele>2135.23</ele>
        <time>2014-07-18T08:30:15Z</time>
      </trkpt>
      <trkpt lat="45.739550236612558" lon="6.712231747806072">
        <ele>2137.1500000000001</ele>
        <time>2014-07-18T08:30:26Z</time>
      </trkpt>
      <trkpt lat="45.73947798460722" lon="6.712193191051483">
        <ele>2139.5500000000002</ele>
        <time>2014-07-18T08:30:41Z</time>
      </trkpt>
      <trkpt lat="45.739528527483344" lon="6.712079280987382">
        <ele>2141.9499999999998</ele>
        <time>2014-07-18T08:30:57Z</time>
      </trkpt>
      <trkpt lat="45.739517044275999" lon="6.711998982354999">
        <ele>2144.3600000000001</ele>
        <time>2014-07-18T08:31:10Z</time>
      </trkpt>
      <trkpt lat="45.739488378167152" lon="6.711952881887555">
        <ele>2147.2399999999998</ele>
        <time>2014-07-18T08:31:24Z</time>
      </trkpt>
      <trkpt lat="45.739421574398875" lon="6.711941231042147">
        <ele>2148.1999999999998</ele>
        <time>2014-07-18T08:31:37Z</time>
      </trkpt>
      <trkpt lat="45.739370277151465" lon="6.711860010400415">
        <ele>2150.6100000000001</ele>
        <time>2014-07-18T08:31:49Z</time>
      </trkpt>
      <trkpt lat="45.739323254674673" lon="6.711825476959348">
        <ele>2152.5300000000002</ele>
        <time>2014-07-18T08:31:59Z</time>
      </trkpt>
      <trkpt lat="45.739249745383859" lon="6.711758589372039">
        <ele>2154.9299999999998</ele>
        <time>2014-07-18T08:32:14Z</time>
      </trkpt>
      <trkpt lat="45.739201130345464" lon="6.711693713441491">
        <ele>2156.8600000000001</ele>
        <time>2014-07-18T08:32:27Z</time>
      </trkpt>
      <trkpt lat="45.739170704036951" lon="6.711658593267202">
        <ele>2158.7800000000002</ele>
        <time>2014-07-18T08:32:39Z</time>
      </trkpt>
      <trkpt lat="45.739126615226269" lon="6.711556753143668">
        <ele>2161.6599999999999</ele>
        <time>2014-07-18T08:32:52Z</time>
      </trkpt>
      <trkpt lat="45.739064253866673" lon="6.711446112021804">
        <ele>2164.0599999999999</ele>
        <time>2014-07-18T08:33:07Z</time>
      </trkpt>
      <trkpt lat="45.739058302715421" lon="6.711426414549351">
        <ele>2164.5500000000002</ele>
        <time>2014-07-18T08:33:09Z</time>
      </trkpt>
      <trkpt lat="45.739019913598895" lon="6.711281156167388">
        <ele>2166.4699999999998</ele>
        <time>2014-07-18T08:33:24Z</time>
      </trkpt>
      <trkpt lat="45.73897666297853" lon="6.711209239438176">
        <ele>2167.4299999999998</ele>
        <time>2014-07-18T08:33:33Z</time>
      </trkpt>
      <trkpt lat="45.738903237506747" lon="6.711127432063222">
        <ele>2169.8299999999999</ele>
        <time>2014-07-18T08:33:46Z</time>
      </trkpt>
      <trkpt lat="45.738842217251658" lon="6.711101951077581">
        <ele>2171.7600000000002</ele>
        <time>2014-07-18T08:33:56Z</time>
      </trkpt>
      <trkpt lat="45.738806091248989" lon="6.711009247228503">
        <ele>2174.1599999999999</ele>
        <time>2014-07-18T08:34:08Z</time>
      </trkpt>
      <trkpt lat="45.738801648840308" lon="6.710993405431509">
        <ele>2174.6399999999999</ele>
        <time>2014-07-18T08:34:10Z</time>
      </trkpt>
      <trkpt lat="45.738767115399241" lon="6.71092702075839">
        <ele>2176.5599999999999</ele>
        <time>2014-07-18T08:34:22Z</time>
      </trkpt>
      <trkpt lat="45.738763008266687" lon="6.710921321064234">
        <ele>2176.5599999999999</ele>
        <time>2014-07-18T08:34:23Z</time>
      </trkpt>
      <trkpt lat="45.738741550594568" lon="6.710868598893285">
        <ele>2177.52</ele>
        <time>2014-07-18T08:34:30Z</time>
      </trkpt>
      <trkpt lat="45.738718835636973" lon="6.71081755310297">
        <ele>2179.4499999999998</ele>
        <time>2014-07-18T08:34:40Z</time>
      </trkpt>
      <trkpt lat="45.738670136779547" lon="6.710723843425512">
        <ele>2181.8499999999999</ele>
        <time>2014-07-18T08:34:53Z</time>
      </trkpt>
      <trkpt lat="45.738652618601918" lon="6.710667349398136">
        <ele>2182.8099999999999</ele>
        <time>2014-07-18T08:34:59Z</time>
      </trkpt>
      <trkpt lat="45.738600566983223" lon="6.71059031970799">
        <ele>2185.21</ele>
        <time>2014-07-18T08:35:12Z</time>
      </trkpt>
      <trkpt lat="45.738555639982224" lon="6.710489401593804">
        <ele>2186.6599999999999</ele>
        <time>2014-07-18T08:35:24Z</time>
      </trkpt>
      <trkpt lat="45.738511802628636" lon="6.710380269214511">
        <ele>2189.0599999999999</ele>
        <time>2014-07-18T08:35:38Z</time>
      </trkpt>
      <trkpt lat="45.738455979153514" lon="6.710325870662928">
        <ele>2190.98</ele>
        <time>2014-07-18T08:35:49Z</time>
      </trkpt>
      <trkpt lat="45.738408202305436" lon="6.710227048024535">
        <ele>2193.3899999999999</ele>
        <time>2014-07-18T08:36:03Z</time>
      </trkpt>
      <trkpt lat="45.738386828452349" lon="6.710144402459264">
        <ele>2196.27</ele>
        <time>2014-07-18T08:36:15Z</time>
      </trkpt>
      <trkpt lat="45.738346679136157" lon="6.710083717480302">
        <ele>2198.6700000000001</ele>
        <time>2014-07-18T08:36:28Z</time>
      </trkpt>
      <trkpt lat="45.738326562568545" lon="6.710022361949086">
        <ele>2199.6300000000001</ele>
        <time>2014-07-18T08:36:41Z</time>
      </trkpt>
      <trkpt lat="45.738300159573555" lon="6.709950109943748">
        <ele>2201.0799999999999</ele>
        <time>2014-07-18T08:36:49Z</time>
      </trkpt>
      <trkpt lat="45.738295214250684" lon="6.709924461320043">
        <ele>2200.5900000000001</ele>
        <time>2014-07-18T08:36:51Z</time>
      </trkpt>
      <trkpt lat="45.738294208422303" lon="6.709863776341081">
        <ele>2201.0799999999999</ele>
        <time>2014-07-18T08:37:07Z</time>
      </trkpt>
      <trkpt lat="45.738312480971217" lon="6.709907865151763">
        <ele>2201.0799999999999</ele>
        <time>2014-07-18T08:37:23Z</time>
      </trkpt>
      <trkpt lat="45.738294878974557" lon="6.709909038618207">
        <ele>2201.0799999999999</ele>
        <time>2014-07-18T08:37:25Z</time>
      </trkpt>
      <trkpt lat="45.738198738545179" lon="6.710005598142743">
        <ele>2202.52</ele>
        <time>2014-07-18T08:37:38Z</time>
      </trkpt>
      <trkpt lat="45.738134114071727" lon="6.710038790479302">
        <ele>2204.4400000000001</ele>
        <time>2014-07-18T08:37:49Z</time>
      </trkpt>
      <trkpt lat="45.738106956705451" lon="6.709954217076302">
        <ele>2206.8400000000001</ele>
        <time>2014-07-18T08:38:00Z</time>
      </trkpt>
      <trkpt lat="45.73806831613183" lon="6.709842821583152">
        <ele>2209.25</ele>
        <time>2014-07-18T08:38:15Z</time>
      </trkpt>
      <trkpt lat="45.738119781017303" lon="6.709838546812534">
        <ele>2211.1700000000001</ele>
        <time>2014-07-18T08:38:25Z</time>
      </trkpt>
      <trkpt lat="45.738125061616302" lon="6.709785657003522">
        <ele>2212.6100000000001</ele>
        <time>2014-07-18T08:38:33Z</time>
      </trkpt>
      <trkpt lat="45.738052222877741" lon="6.709689013659954">
        <ele>2214.5300000000002</ele>
        <time>2014-07-18T08:38:48Z</time>
      </trkpt>
      <trkpt lat="45.738046858459711" lon="6.709683146327734">
        <ele>2214.0500000000002</ele>
        <time>2014-07-18T08:38:49Z</time>
      </trkpt>
      <trkpt lat="45.737969828769565" lon="6.709658587351441">
        <ele>2216.9400000000001</ele>
        <time>2014-07-18T08:39:03Z</time>
      </trkpt>
      <trkpt lat="45.737974187359214" lon="6.709617096930742">
        <ele>2218.3800000000001</ele>
        <time>2014-07-18T08:39:09Z</time>
      </trkpt>
      <trkpt lat="45.737939989194274" lon="6.70951290987432">
        <ele>2220.7800000000002</ele>
        <time>2014-07-18T08:39:23Z</time>
      </trkpt>
      <trkpt lat="45.737889781594276" lon="6.709497654810548">
        <ele>2223.1900000000001</ele>
        <time>2014-07-18T08:39:35Z</time>
      </trkpt>
      <trkpt lat="45.737866898998618" lon="6.709445016458631">
        <ele>2225.1100000000001</ele>
        <time>2014-07-18T08:39:46Z</time>
      </trkpt>
      <trkpt lat="45.737870335578918" lon="6.709404699504376">
        <ele>2226.0700000000002</ele>
        <time>2014-07-18T08:39:51Z</time>
      </trkpt>
      <trkpt lat="45.737860864028335" lon="6.709327166900039">
        <ele>2226.5500000000002</ele>
        <time>2014-07-18T08:40:04Z</time>
      </trkpt>
      <trkpt lat="45.737827252596617" lon="6.709333369508386">
        <ele>2229.4299999999998</ele>
        <time>2014-07-18T08:40:11Z</time>
      </trkpt>
      <trkpt lat="45.737790958955884" lon="6.709320209920406">
        <ele>2230.4000000000001</ele>
        <time>2014-07-18T08:40:18Z</time>
      </trkpt>
      <trkpt lat="45.737761622294784" lon="6.709242761135101">
        <ele>2232.3200000000002</ele>
        <time>2014-07-18T08:40:31Z</time>
      </trkpt>
      <trkpt lat="45.737706134095788" lon="6.709215687587857">
        <ele>2235.1999999999998</ele>
        <time>2014-07-18T08:40:46Z</time>
      </trkpt>
      <trkpt lat="45.737657183781266" lon="6.70914251357317">
        <ele>2237.1300000000001</ele>
        <time>2014-07-18T08:41:02Z</time>
      </trkpt>
      <trkpt lat="45.737596247345209" lon="6.709017120301724">
        <ele>2239.5300000000002</ele>
        <time>2014-07-18T08:41:17Z</time>
      </trkpt>
      <trkpt lat="45.737629439681768" lon="6.709020808339119">
        <ele>2240.4899999999998</ele>
        <time>2014-07-18T08:41:30Z</time>
      </trkpt>
      <trkpt lat="45.737547967582941" lon="6.708940342068672">
        <ele>2241.4499999999998</ele>
        <time>2014-07-18T08:41:41Z</time>
      </trkpt>
      <trkpt lat="45.737537909299135" lon="6.70889038592577">
        <ele>2242.4099999999999</ele>
        <time>2014-07-18T08:41:46Z</time>
      </trkpt>
      <trkpt lat="45.737523576244712" lon="6.708860378712416">
        <ele>2242.8899999999999</ele>
        <time>2014-07-18T08:41:49Z</time>
      </trkpt>
      <trkpt lat="45.737487114965916" lon="6.708832299336791">
        <ele>2243.8499999999999</ele>
        <time>2014-07-18T08:41:53Z</time>
      </trkpt>
      <trkpt lat="45.737470351159573" lon="6.708817128092051">
        <ele>2244.3299999999999</ele>
        <time>2014-07-18T08:41:55Z</time>
      </trkpt>
      <trkpt lat="45.737455850467086" lon="6.708796257153153">
        <ele>2244.8200000000002</ele>
        <time>2014-07-18T08:41:57Z</time>
      </trkpt>
      <trkpt lat="45.737423412501812" lon="6.708741774782538">
        <ele>2245.7800000000002</ele>
        <time>2014-07-18T08:42:02Z</time>
      </trkpt>
      <trkpt lat="45.737418467178941" lon="6.708697350695729">
        <ele>2246.7399999999998</ele>
        <time>2014-07-18T08:42:06Z</time>
      </trkpt>
      <trkpt lat="45.737481666728854" lon="6.708653680980206">
        <ele>2248.1799999999998</ele>
        <time>2014-07-18T08:42:13Z</time>
      </trkpt>
      <trkpt lat="45.737496167421341" lon="6.708581931889057">
        <ele>2249.6199999999999</ele>
        <time>2014-07-18T08:42:21Z</time>
      </trkpt>
      <trkpt lat="45.737448809668422" lon="6.708432817831636">
        <ele>2252.9899999999998</ele>
        <time>2014-07-18T08:42:35Z</time>
      </trkpt>
      <trkpt lat="45.737398937344551" lon="6.708392333239317">
        <ele>2254.4299999999998</ele>
        <time>2014-07-18T08:42:43Z</time>
      </trkpt>
      <trkpt lat="45.737303802743554" lon="6.70830943621695">
        <ele>2257.3099999999999</ele>
        <time>2014-07-18T08:42:59Z</time>
      </trkpt>
      <trkpt lat="45.737281087785959" lon="6.708275070413947">
        <ele>2258.75</ele>
        <time>2014-07-18T08:43:05Z</time>
      </trkpt>
      <trkpt lat="45.73723666369915" lon="6.708215391263366">
        <ele>2260.1999999999998</ele>
        <time>2014-07-18T08:43:15Z</time>
      </trkpt>
      <trkpt lat="45.737228449434042" lon="6.708215977996588">
        <ele>2260.1999999999998</ele>
        <time>2014-07-18T08:43:16Z</time>
      </trkpt>
      <trkpt lat="45.737160136923194" lon="6.708132494240999">
        <ele>2262.1199999999999</ele>
        <time>2014-07-18T08:43:27Z</time>
      </trkpt>
      <trkpt lat="45.737086879089475" lon="6.708115059882402">
        <ele>2263.5599999999999</ele>
        <time>2014-07-18T08:43:38Z</time>
      </trkpt>
      <trkpt lat="45.737052764743567" lon="6.70805973932147">
        <ele>2265</ele>
        <time>2014-07-18T08:43:47Z</time>
      </trkpt>
      <trkpt lat="45.736986715346575" lon="6.708023445680738">
        <ele>2267.4099999999999</ele>
        <time>2014-07-18T08:43:58Z</time>
      </trkpt>
      <trkpt lat="45.736965928226709" lon="6.707972902804613">
        <ele>2269.8099999999999</ele>
        <time>2014-07-18T08:44:09Z</time>
      </trkpt>
      <trkpt lat="45.736889401450753" lon="6.707943147048354">
        <ele>2272.6900000000001</ele>
        <time>2014-07-18T08:44:23Z</time>
      </trkpt>
      <trkpt lat="45.736861238256097" lon="6.707886066287756">
        <ele>2274.6199999999999</ele>
        <time>2014-07-18T08:44:34Z</time>
      </trkpt>
      <trkpt lat="45.736834248527884" lon="6.707838959991932">
        <ele>2277.5</ele>
        <time>2014-07-18T08:44:47Z</time>
      </trkpt>
      <trkpt lat="45.73678269982338" lon="6.70779294334352">
        <ele>2279.9000000000001</ele>
        <time>2014-07-18T08:44:59Z</time>
      </trkpt>
      <trkpt lat="45.736765181645751" lon="6.707792356610298">
        <ele>2280.3800000000001</ele>
        <time>2014-07-18T08:45:02Z</time>
      </trkpt>
      <trkpt lat="45.736678261309862" lon="6.707765618339181">
        <ele>2282.79</ele>
        <time>2014-07-18T08:45:16Z</time>
      </trkpt>
      <trkpt lat="45.736672058701515" lon="6.707767378538847">
        <ele>2282.79</ele>
        <time>2014-07-18T08:45:17Z</time>
      </trkpt>
      <trkpt lat="45.736592598259449" lon="6.707789422944188">
        <ele>2284.71</ele>
        <time>2014-07-18T08:45:29Z</time>
      </trkpt>
      <trkpt lat="45.736514562740922" lon="6.707739550620318">
        <ele>2287.1100000000001</ele>
        <time>2014-07-18T08:45:43Z</time>
      </trkpt>
      <trkpt lat="45.736497547477484" lon="6.707693869248033">
        <ele>2288.5599999999999</ele>
        <time>2014-07-18T08:45:48Z</time>
      </trkpt>
      <trkpt lat="45.736432000994682" lon="6.707691606134176">
        <ele>2290.96</ele>
        <time>2014-07-18T08:46:02Z</time>
      </trkpt>
      <trkpt lat="45.736353378742933" lon="6.707640895619988">
        <ele>2293.8400000000001</ele>
        <time>2014-07-18T08:46:15Z</time>
      </trkpt>
      <trkpt lat="45.736265452578664" lon="6.707585407420993">
        <ele>2296.73</ele>
        <time>2014-07-18T08:46:30Z</time>
      </trkpt>
      <trkpt lat="45.736190434545279" lon="6.707535870373249">
        <ele>2300.0900000000001</ele>
        <time>2014-07-18T08:46:44Z</time>
      </trkpt>
      <trkpt lat="45.736143998801708" lon="6.707481555640698">
        <ele>2302.98</ele>
        <time>2014-07-18T08:46:56Z</time>
      </trkpt>
      <trkpt lat="45.736057665199041" lon="6.707440568134189">
        <ele>2304.9000000000001</ele>
        <time>2014-07-18T08:47:08Z</time>
      </trkpt>
      <trkpt lat="45.735990442335606" lon="6.70739371329546">
        <ele>2307.3000000000002</ele>
        <time>2014-07-18T08:47:21Z</time>
      </trkpt>
      <trkpt lat="45.735904444009066" lon="6.707343505695462">
        <ele>2309.6999999999998</ele>
        <time>2014-07-18T08:47:35Z</time>
      </trkpt>
      <trkpt lat="45.735832024365664" lon="6.707259770482779">
        <ele>2312.5900000000001</ele>
        <time>2014-07-18T08:47:48Z</time>
      </trkpt>
      <trkpt lat="45.73582255281508" lon="6.707245521247387">
        <ele>2313.0700000000002</ele>
        <time>2014-07-18T08:47:50Z</time>
      </trkpt>
      <trkpt lat="45.735755329951644" lon="6.707177879288793">
        <ele>2314.9899999999998</ele>
        <time>2014-07-18T08:48:02Z</time>
      </trkpt>
      <trkpt lat="45.735704032704234" lon="6.707048965618014">
        <ele>2317.4000000000001</ele>
        <time>2014-07-18T08:48:18Z</time>
      </trkpt>
      <trkpt lat="45.735645862296224" lon="6.706984005868435">
        <ele>2320.2800000000002</ele>
        <time>2014-07-18T08:48:31Z</time>
      </trkpt>
      <trkpt lat="45.735619375482202" lon="6.706982078030706">
        <ele>2321.2399999999998</ele>
        <time>2014-07-18T08:48:45Z</time>
      </trkpt>
      <trkpt lat="45.735597917810082" lon="6.706959782168269">
        <ele>2322.1999999999998</ele>
        <time>2014-07-18T08:48:48Z</time>
      </trkpt>
      <trkpt lat="45.735505381599069" lon="6.706888619810343">
        <ele>2324.6100000000001</ele>
        <time>2014-07-18T08:49:01Z</time>
      </trkpt>
      <trkpt lat="45.735423322767019" lon="6.70683573000133">
        <ele>2327.0100000000002</ele>
        <time>2014-07-18T08:49:13Z</time>
      </trkpt>
      <trkpt lat="45.735334390774369" lon="6.70681469142437">
        <ele>2328.4499999999998</ele>
        <time>2014-07-18T08:49:25Z</time>
      </trkpt>
      <trkpt lat="45.735295917838812" lon="6.706798011437058">
        <ele>2329.4099999999999</ele>
        <time>2014-07-18T08:49:31Z</time>
      </trkpt>
      <trkpt lat="45.735201118513942" lon="6.706691393628717">
        <ele>2331.8099999999999</ele>
        <time>2014-07-18T08:49:46Z</time>
      </trkpt>
      <trkpt lat="45.735117299482226" lon="6.706640515476465">
        <ele>2333.2600000000002</ele>
        <time>2014-07-18T08:49:59Z</time>
      </trkpt>
      <trkpt lat="45.735060218721628" lon="6.706604808568955">
        <ele>2334.2199999999998</ele>
        <time>2014-07-18T08:50:10Z</time>
      </trkpt>
      <trkpt lat="45.734993163496256" lon="6.706618303433061">
        <ele>2334.2199999999998</ele>
        <time>2014-07-18T08:50:25Z</time>
      </trkpt>
      <trkpt lat="45.735005903989077" lon="6.706629954278469">
        <ele>2333.7399999999998</ele>
        <time>2014-07-18T08:50:39Z</time>
      </trkpt>
      <trkpt lat="45.735014537349343" lon="6.706628110259771">
        <ele>2333.7399999999998</ele>
        <time>2014-07-18T08:50:57Z</time>
      </trkpt>
      <trkpt lat="45.735002551227808" lon="6.706630289554596">
        <ele>2333.7399999999998</ele>
        <time>2014-07-18T08:51:04Z</time>
      </trkpt>
      <trkpt lat="45.734952259808779" lon="6.706566670909524">
        <ele>2334.2199999999998</ele>
        <time>2014-07-18T08:51:10Z</time>
      </trkpt>
      <trkpt lat="45.734910434111953" lon="6.706560216844082">
        <ele>2333.7399999999998</ele>
        <time>2014-07-18T08:51:21Z</time>
      </trkpt>
      <trkpt lat="45.73493960313499" lon="6.706567928195">
        <ele>2333.7399999999998</ele>
        <time>2014-07-18T08:51:36Z</time>
      </trkpt>
      <trkpt lat="45.73497673496604" lon="6.706601539626718">
        <ele>2334.2199999999998</ele>
        <time>2014-07-18T08:51:40Z</time>
      </trkpt>
      <trkpt lat="45.734984278678894" lon="6.706619644537568">
        <ele>2334.2199999999998</ele>
        <time>2014-07-18T08:51:42Z</time>
      </trkpt>
      <trkpt lat="45.734997019171715" lon="6.706607239320874">
        <ele>2333.7399999999998</ele>
        <time>2014-07-18T08:51:54Z</time>
      </trkpt>
      <trkpt lat="45.734990481287241" lon="6.706640431657434">
        <ele>2334.2199999999998</ele>
        <time>2014-07-18T08:52:28Z</time>
      </trkpt>
      <trkpt lat="45.735039934515953" lon="6.70661922544241">
        <ele>2333.7399999999998</ele>
        <time>2014-07-18T08:52:46Z</time>
      </trkpt>
      <trkpt lat="45.735047226771712" lon="6.706615788862109">
        <ele>2333.7399999999998</ele>
        <time>2014-07-18T08:53:12Z</time>
      </trkpt>
      <trkpt lat="45.735019315034151" lon="6.706641269847751">
        <ele>2333.2600000000002</ele>
        <time>2014-07-18T08:53:31Z</time>
      </trkpt>
      <trkpt lat="45.735023086890578" lon="6.706629451364279">
        <ele>2333.7399999999998</ele>
        <time>2014-07-18T08:54:03Z</time>
      </trkpt>
      <trkpt lat="45.735014202073216" lon="6.706610508263111">
        <ele>2333.7399999999998</ele>
        <time>2014-07-18T08:54:34Z</time>
      </trkpt>
      <trkpt lat="45.735013280063868" lon="6.706642610952258">
        <ele>2333.7399999999998</ele>
        <time>2014-07-18T08:55:06Z</time>
      </trkpt>
      <trkpt lat="45.735011603683233" lon="6.706635653972626">
        <ele>2333.7399999999998</ele>
        <time>2014-07-18T08:55:25Z</time>
      </trkpt>
      <trkpt lat="45.73500364087522" lon="6.706640347838402">
        <ele>2333.7399999999998</ele>
        <time>2014-07-18T08:55:58Z</time>
      </trkpt>
      <trkpt lat="45.735002132132649" lon="6.706643113866448">
        <ele>2333.7399999999998</ele>
        <time>2014-07-18T08:56:25Z</time>
      </trkpt>
      <trkpt lat="45.735003808513284" lon="6.706636156886816">
        <ele>2333.7399999999998</ele>
        <time>2014-07-18T08:56:51Z</time>
      </trkpt>
      <trkpt lat="45.73501244187355" lon="6.70662609860301">
        <ele>2333.7399999999998</ele>
        <time>2014-07-18T08:57:29Z</time>
      </trkpt>
      <trkpt lat="45.735007412731647" lon="6.706625679507852">
        <ele>2334.2199999999998</ele>
        <time>2014-07-18T08:57:58Z</time>
      </trkpt>
      <trkpt lat="45.735006825998425" lon="6.706620818004012">
        <ele>2334.2199999999998</ele>
        <time>2014-07-18T08:58:28Z</time>
      </trkpt>
      <trkpt lat="45.734998695552349" lon="6.706615705043078">
        <ele>2334.2199999999998</ele>
        <time>2014-07-18T08:58:57Z</time>
      </trkpt>
      <trkpt lat="45.734996516257524" lon="6.706628696992993">
        <ele>2334.2199999999998</ele>
        <time>2014-07-18T08:59:27Z</time>
      </trkpt>
      <trkpt lat="45.735005233436823" lon="6.706625344231725">
        <ele>2334.2199999999998</ele>
        <time>2014-07-18T09:00:02Z</time>
      </trkpt>
      <trkpt lat="45.735006825998425" lon="6.706609167158604">
        <ele>2334.2199999999998</ele>
        <time>2014-07-18T09:00:30Z</time>
      </trkpt>
      <trkpt lat="45.734997186809778" lon="6.70661729760468">
        <ele>2334.6999999999998</ele>
        <time>2014-07-18T09:01:08Z</time>
      </trkpt>
      <trkpt lat="45.734993498772383" lon="6.706629702821374">
        <ele>2334.6999999999998</ele>
        <time>2014-07-18T09:01:40Z</time>
      </trkpt>
      <trkpt lat="45.73499676771462" lon="6.706631546840072">
        <ele>2334.6999999999998</ele>
        <time>2014-07-18T09:02:08Z</time>
      </trkpt>
      <trkpt lat="45.735007328912616" lon="6.706624673679471">
        <ele>2334.6999999999998</ele>
        <time>2014-07-18T09:02:43Z</time>
      </trkpt>
      <trkpt lat="45.735000120475888" lon="6.706620650365949">
        <ele>2334.6999999999998</ele>
        <time>2014-07-18T09:03:24Z</time>
      </trkpt>
      <trkpt lat="45.734996432438493" lon="6.706624673679471">
        <ele>2334.6999999999998</ele>
        <time>2014-07-18T09:03:50Z</time>
      </trkpt>
      <trkpt lat="45.735001964494586" lon="6.706629451364279">
        <ele>2335.1799999999998</ele>
        <time>2014-07-18T09:04:20Z</time>
      </trkpt>
      <trkpt lat="45.734998863190413" lon="6.706629619002342">
        <ele>2334.6999999999998</ele>
        <time>2014-07-18T09:04:52Z</time>
      </trkpt>
      <trkpt lat="45.735008250921965" lon="6.706637749448419">
        <ele>2334.6999999999998</ele>
        <time>2014-07-18T09:05:28Z</time>
      </trkpt>
      <trkpt lat="45.734998695552349" lon="6.706650406122208">
        <ele>2334.6999999999998</ele>
        <time>2014-07-18T09:06:14Z</time>
      </trkpt>
      <trkpt lat="45.735005065798759" lon="6.706651160493493">
        <ele>2334.6999999999998</ele>
        <time>2014-07-18T09:06:51Z</time>
      </trkpt>
      <trkpt lat="45.735002132132649" lon="6.706629786640406">
        <ele>2334.6999999999998</ele>
        <time>2014-07-18T09:07:33Z</time>
      </trkpt>
      <trkpt lat="45.735000958666205" lon="6.706658201292157">
        <ele>2334.6999999999998</ele>
        <time>2014-07-18T09:08:15Z</time>
      </trkpt>
      <trkpt lat="45.735019398853183" lon="6.706647472456098">
        <ele>2334.6999999999998</ele>
        <time>2014-07-18T09:08:57Z</time>
      </trkpt>
      <trkpt lat="45.735005233436823" lon="6.70664370059967">
        <ele>2334.6999999999998</ele>
        <time>2014-07-18T09:09:31Z</time>
      </trkpt>
      <trkpt lat="45.735008753836155" lon="6.706646298989654">
        <ele>2335.1799999999998</ele>
        <time>2014-07-18T09:09:56Z</time>
      </trkpt>
      <trkpt lat="45.735018560662866" lon="6.706649987027049">
        <ele>2334.6999999999998</ele>
        <time>2014-07-18T09:10:33Z</time>
      </trkpt>
      <trkpt lat="45.735013447701931" lon="6.706671444699168">
        <ele>2335.1799999999998</ele>
        <time>2014-07-18T09:11:21Z</time>
      </trkpt>
      <trkpt lat="45.735019817948341" lon="6.706676557660103">
        <ele>2335.1799999999998</ele>
        <time>2014-07-18T09:12:02Z</time>
      </trkpt>
      <trkpt lat="45.735020907595754" lon="6.70665392652154">
        <ele>2335.1799999999998</ele>
        <time>2014-07-18T09:12:45Z</time>
      </trkpt>
      <trkpt lat="45.735025098547339" lon="6.706658201292157">
        <ele>2335.1799999999998</ele>
        <time>2014-07-18T09:13:20Z</time>
      </trkpt>
      <trkpt lat="45.735021829605103" lon="6.706667002290487">
        <ele>2334.6999999999998</ele>
        <time>2014-07-18T09:13:55Z</time>
      </trkpt>
      <trkpt lat="45.735028199851513" lon="6.706643532961607">
        <ele>2334.6999999999998</ele>
        <time>2014-07-18T09:14:30Z</time>
      </trkpt>
      <trkpt lat="45.735014202073216" lon="6.706657446920872">
        <ele>2334.6999999999998</ele>
        <time>2014-07-18T09:14:57Z</time>
      </trkpt>
      <trkpt lat="45.73502954095602" lon="6.706647137179971">
        <ele>2334.6999999999998</ele>
        <time>2014-07-18T09:15:28Z</time>
      </trkpt>
      <trkpt lat="45.735012022778392" lon="6.70663783326745">
        <ele>2334.6999999999998</ele>
        <time>2014-07-18T09:16:00Z</time>
      </trkpt>
      <trkpt lat="45.735019398853183" lon="6.706636995077133">
        <ele>2334.6999999999998</ele>
        <time>2014-07-18T09:16:35Z</time>
      </trkpt>
      <trkpt lat="45.735005401074886" lon="6.706643616780639">
        <ele>2334.6999999999998</ele>
        <time>2014-07-18T09:17:10Z</time>
      </trkpt>
      <trkpt lat="45.735007664188743" lon="6.706637581810355">
        <ele>2334.6999999999998</ele>
        <time>2014-07-18T09:17:46Z</time>
      </trkpt>
      <trkpt lat="45.735008418560028" lon="6.706642359495163">
        <ele>2334.6999999999998</ele>
        <time>2014-07-18T09:18:22Z</time>
      </trkpt>
      <trkpt lat="45.735013280063868" lon="6.706648394465447">
        <ele>2334.6999999999998</ele>
        <time>2014-07-18T09:18:57Z</time>
      </trkpt>
      <trkpt lat="45.735011603683233" lon="6.706658452749252">
        <ele>2334.6999999999998</ele>
        <time>2014-07-18T09:19:37Z</time>
      </trkpt>
      <trkpt lat="45.735010011121631" lon="6.706637414172292">
        <ele>2334.6999999999998</ele>
        <time>2014-07-18T09:20:14Z</time>
      </trkpt>
      <trkpt lat="45.735003808513284" lon="6.706641688942909">
        <ele>2334.6999999999998</ele>
        <time>2014-07-18T09:20:56Z</time>
      </trkpt>
      <trkpt lat="45.73501780629158" lon="6.706650909036398">
        <ele>2335.1799999999998</ele>
        <time>2014-07-18T09:21:38Z</time>
      </trkpt>
      <trkpt lat="45.735018141567707" lon="6.706645293161273">
        <ele>2335.1799999999998</ele>
        <time>2014-07-18T09:22:02Z</time>
      </trkpt>
      <trkpt lat="45.735015040263534" lon="6.70664269477129">
        <ele>2335.1799999999998</ele>
        <time>2014-07-18T09:22:41Z</time>
      </trkpt>
      <trkpt lat="45.735020153224468" lon="6.706663062795997">
        <ele>2335.1799999999998</ele>
        <time>2014-07-18T09:23:13Z</time>
      </trkpt>
      <trkpt lat="45.73503783904016" lon="6.706640431657434">
        <ele>2335.1799999999998</ele>
        <time>2014-07-18T09:23:44Z</time>
      </trkpt>
      <trkpt lat="45.73502266779542" lon="6.706653758883476">
        <ele>2335.1799999999998</ele>
        <time>2014-07-18T09:24:17Z</time>
      </trkpt>
      <trkpt lat="45.735022416338325" lon="6.706651831045747">
        <ele>2335.6599999999999</ele>
        <time>2014-07-18T09:24:44Z</time>
      </trkpt>
      <trkpt lat="45.735026355832815" lon="6.706667840480804">
        <ele>2336.1399999999999</ele>
        <time>2014-07-18T09:24:59Z</time>
      </trkpt>
      <trkpt lat="45.735017973929644" lon="6.706675970926881">
        <ele>2335.6599999999999</ele>
        <time>2014-07-18T09:25:20Z</time>
      </trkpt>
      <trkpt lat="45.734994420781732" lon="6.706668846309185">
        <ele>2336.1399999999999</ele>
        <time>2014-07-18T09:25:42Z</time>
      </trkpt>
      <trkpt lat="45.735001210123301" lon="6.706665242090821">
        <ele>2335.6599999999999</ele>
        <time>2014-07-18T09:25:59Z</time>
      </trkpt>
      <trkpt lat="45.735007496550679" lon="6.706676809117198">
        <ele>2336.1399999999999</ele>
        <time>2014-07-18T09:26:16Z</time>
      </trkpt>
      <trkpt lat="45.735010514035821" lon="6.706679910421372">
        <ele>2335.6599999999999</ele>
        <time>2014-07-18T09:26:38Z</time>
      </trkpt>
      <trkpt lat="45.734995594248176" lon="6.706691477447748">
        <ele>2335.6599999999999</ele>
        <time>2014-07-18T09:27:05Z</time>
      </trkpt>
      <trkpt lat="45.734983859583735" lon="6.706702541559935">
        <ele>2335.6599999999999</ele>
        <time>2014-07-18T09:27:19Z</time>
      </trkpt>
      <trkpt lat="45.734915295615792" lon="6.706848638132215">
        <ele>2335.6599999999999</ele>
        <time>2014-07-18T09:27:34Z</time>
      </trkpt>
      <trkpt lat="45.734897274523973" lon="6.706859618425369">
        <ele>2335.6599999999999</ele>
        <time>2014-07-18T09:27:46Z</time>
      </trkpt>
      <trkpt lat="45.734875649213791" lon="6.706921560689807">
        <ele>2336.6199999999999</ele>
        <time>2014-07-18T09:28:02Z</time>
      </trkpt>
      <trkpt lat="45.734793674200773" lon="6.706998590379953">
        <ele>2337.5799999999999</ele>
        <time>2014-07-18T09:28:12Z</time>
      </trkpt>
      <trkpt lat="45.734702395275235" lon="6.707108560949564">
        <ele>2339.9899999999998</ele>
        <time>2014-07-18T09:28:28Z</time>
      </trkpt>
      <trkpt lat="45.734686804935336" lon="6.707125492393971">
        <ele>2339.9899999999998</ele>
        <time>2014-07-18T09:28:31Z</time>
      </trkpt>
      <trkpt lat="45.734599968418479" lon="6.707208976149559">
        <ele>2340.9499999999998</ele>
        <time>2014-07-18T09:28:44Z</time>
      </trkpt>
      <trkpt lat="45.734510701149702" lon="6.707286173477769">
        <ele>2342.8699999999999</ele>
        <time>2014-07-18T09:28:59Z</time>
      </trkpt>
      <trkpt lat="45.734423696994781" lon="6.707388767972589">
        <ele>2344.3099999999999</ele>
        <time>2014-07-18T09:29:14Z</time>
      </trkpt>
      <trkpt lat="45.734404502436519" lon="6.707409890368581">
        <ele>2344.79</ele>
        <time>2014-07-18T09:29:17Z</time>
      </trkpt>
      <trkpt lat="45.734358401969075" lon="6.707579372450709">
        <ele>2344.79</ele>
        <time>2014-07-18T09:29:32Z</time>
      </trkpt>
      <trkpt lat="45.734335519373417" lon="6.707715578377247">
        <ele>2346.23</ele>
        <time>2014-07-18T09:29:46Z</time>
      </trkpt>
      <trkpt lat="45.734277348965406" lon="6.707849353551865">
        <ele>2347.6799999999998</ele>
        <time>2014-07-18T09:30:01Z</time>
      </trkpt>
      <trkpt lat="45.734256897121668" lon="6.707885814830661">
        <ele>2347.6799999999998</ele>
        <time>2014-07-18T09:30:05Z</time>
      </trkpt>
      <trkpt lat="45.734169976785779" lon="6.707995785400271">
        <ele>2348.1599999999999</ele>
        <time>2014-07-18T09:30:19Z</time>
      </trkpt>
      <trkpt lat="45.734113231301308" lon="6.708027385175228">
        <ele>2350.0799999999999</ele>
        <time>2014-07-18T09:30:33Z</time>
      </trkpt>
      <trkpt lat="45.734050953760743" lon="6.708100391551852">
        <ele>2351.04</ele>
        <time>2014-07-18T09:30:42Z</time>
      </trkpt>
      <trkpt lat="45.734031507745385" lon="6.708241626620293">
        <ele>2352.48</ele>
        <time>2014-07-18T09:30:57Z</time>
      </trkpt>
      <trkpt lat="45.733998734503984" lon="6.708298288285732">
        <ele>2352.96</ele>
        <time>2014-07-18T09:31:03Z</time>
      </trkpt>
      <trkpt lat="45.733971912413836" lon="6.708322931081057">
        <ele>2352.96</ele>
        <time>2014-07-18T09:31:06Z</time>
      </trkpt>
      <trkpt lat="45.733857415616512" lon="6.708402978256345">
        <ele>2352.96</ele>
        <time>2014-07-18T09:31:20Z</time>
      </trkpt>
      <trkpt lat="45.733783822506666" lon="6.708478918299079">
        <ele>2354.8899999999999</ele>
        <time>2014-07-18T09:31:36Z</time>
      </trkpt>
      <trkpt lat="45.733733447268605" lon="6.708513116464019">
        <ele>2357.77</ele>
        <time>2014-07-18T09:31:49Z</time>
      </trkpt>
      <trkpt lat="45.733654322102666" lon="6.70857229270041">
        <ele>2359.21</ele>
        <time>2014-07-18T09:32:03Z</time>
      </trkpt>
      <trkpt lat="45.733559103682637" lon="6.708616632968187">
        <ele>2360.6500000000001</ele>
        <time>2014-07-18T09:32:18Z</time>
      </trkpt>
      <trkpt lat="45.733483079820871" lon="6.708650495857">
        <ele>2362.5799999999999</ele>
        <time>2014-07-18T09:32:32Z</time>
      </trkpt>
      <trkpt lat="45.733398506417871" lon="6.708707911893725">
        <ele>2364.98</ele>
        <time>2014-07-18T09:32:49Z</time>
      </trkpt>
      <trkpt lat="45.733339581638575" lon="6.708722077310085">
        <ele>2366.9000000000001</ele>
        <time>2014-07-18T09:33:05Z</time>
      </trkpt>
      <trkpt lat="45.733283422887325" lon="6.708711767569184">
        <ele>2369.3099999999999</ele>
        <time>2014-07-18T09:33:20Z</time>
      </trkpt>
      <trkpt lat="45.733233969658613" lon="6.708673965185881">
        <ele>2370.75</ele>
        <time>2014-07-18T09:33:28Z</time>
      </trkpt>
      <trkpt lat="45.733120897784829" lon="6.708627361804247">
        <ele>2371.23</ele>
        <time>2014-07-18T09:33:42Z</time>
      </trkpt>
      <trkpt lat="45.733033642172813" lon="6.708542620763183">
        <ele>2370.75</ele>
        <time>2014-07-18T09:33:58Z</time>
      </trkpt>
      <trkpt lat="45.733003132045269" lon="6.708513954654336">
        <ele>2370.27</ele>
        <time>2014-07-18T09:34:05Z</time>
      </trkpt>
      <trkpt lat="45.732907494530082" lon="6.708458969369531">
        <ele>2371.23</ele>
        <time>2014-07-18T09:34:18Z</time>
      </trkpt>
      <trkpt lat="45.73285904712975" lon="6.708451677113771">
        <ele>2372.1900000000001</ele>
        <time>2014-07-18T09:34:26Z</time>
      </trkpt>
      <trkpt lat="45.732759637758136" lon="6.708463663235307">
        <ele>2374.5900000000001</ele>
        <time>2014-07-18T09:34:42Z</time>
      </trkpt>
      <trkpt lat="45.73272468522191" lon="6.708475314080715">
        <ele>2376.04</ele>
        <time>2014-07-18T09:35:00Z</time>
      </trkpt>
      <trkpt lat="45.7326924148947" lon="6.708415383473039">
        <ele>2377.48</ele>
        <time>2014-07-18T09:35:13Z</time>
      </trkpt>
      <trkpt lat="45.73258688673377" lon="6.708357967436314">
        <ele>2379.4000000000001</ele>
        <time>2014-07-18T09:35:29Z</time>
      </trkpt>
      <trkpt lat="45.732501391321421" lon="6.708347238600254">
        <ele>2380.3600000000001</ele>
        <time>2014-07-18T09:35:41Z</time>
      </trkpt>
      <trkpt lat="45.732409190386534" lon="6.708281775936484">
        <ele>2383.25</ele>
        <time>2014-07-18T09:35:56Z</time>
      </trkpt>
      <trkpt lat="45.732358228415251" lon="6.708289571106434">
        <ele>2384.6900000000001</ele>
        <time>2014-07-18T09:36:06Z</time>
      </trkpt>
      <trkpt lat="45.73223358951509" lon="6.708307508379221">
        <ele>2385.6500000000001</ele>
        <time>2014-07-18T09:36:22Z</time>
      </trkpt>
      <trkpt lat="45.732152871787548" lon="6.708283284679055">
        <ele>2387.5700000000002</ele>
        <time>2014-07-18T09:36:35Z</time>
      </trkpt>
      <trkpt lat="45.73210752569139" lon="6.708288313820958">
        <ele>2389.0100000000002</ele>
        <time>2014-07-18T09:36:48Z</time>
      </trkpt>
      <trkpt lat="45.732029993087053" lon="6.708331145346165">
        <ele>2388.0500000000002</ele>
        <time>2014-07-18T09:37:03Z</time>
      </trkpt>
      <trkpt lat="45.731838466599584" lon="6.708335336297751">
        <ele>2386.1300000000001</ele>
        <time>2014-07-18T09:37:19Z</time>
      </trkpt>
      <trkpt lat="45.731703182682395" lon="6.70836366713047">
        <ele>2386.6100000000001</ele>
        <time>2014-07-18T09:37:34Z</time>
      </trkpt>
      <trkpt lat="45.731625398620963" lon="6.70837682671845">
        <ele>2388.0500000000002</ele>
        <time>2014-07-18T09:37:47Z</time>
      </trkpt>
      <trkpt lat="45.731562618166208" lon="6.708368947729468">
        <ele>2390.46</ele>
        <time>2014-07-18T09:38:00Z</time>
      </trkpt>
      <trkpt lat="45.73150796815753" lon="6.70833089388907">
        <ele>2391.4200000000001</ele>
        <time>2014-07-18T09:38:11Z</time>
      </trkpt>
      <trkpt lat="45.731421383097768" lon="6.708344221115112">
        <ele>2393.8200000000002</ele>
        <time>2014-07-18T09:38:25Z</time>
      </trkpt>
      <trkpt lat="45.731345862150192" lon="6.708415718749166">
        <ele>2396.2199999999998</ele>
        <time>2014-07-18T09:38:41Z</time>
      </trkpt>
      <trkpt lat="45.73126757517457" lon="6.708459304645658">
        <ele>2394.7800000000002</ele>
        <time>2014-07-18T09:38:52Z</time>
      </trkpt>
      <trkpt lat="45.731096165254712" lon="6.70848679728806">
        <ele>2394.3000000000002</ele>
        <time>2014-07-18T09:39:09Z</time>
      </trkpt>
      <trkpt lat="45.730995582416654" lon="6.708482941612601">
        <ele>2395.2600000000002</ele>
        <time>2014-07-18T09:39:24Z</time>
      </trkpt>
      <trkpt lat="45.730881169438362" lon="6.708515547215939">
        <ele>2396.6999999999998</ele>
        <time>2014-07-18T09:39:38Z</time>
      </trkpt>
      <trkpt lat="45.730864992365241" lon="6.708617303520441">
        <ele>2399.1100000000001</ele>
        <time>2014-07-18T09:39:51Z</time>
      </trkpt>
      <trkpt lat="45.730809671804309" lon="6.708738338202238">
        <ele>2401.5100000000002</ele>
        <time>2014-07-18T09:40:07Z</time>
      </trkpt>
      <trkpt lat="45.730826519429684" lon="6.70881955884397">
        <ele>2402.9499999999998</ele>
        <time>2014-07-18T09:40:19Z</time>
      </trkpt>
      <trkpt lat="45.730770276859403" lon="6.708875549957156">
        <ele>2404.3899999999999</ele>
        <time>2014-07-18T09:40:31Z</time>
      </trkpt>
      <trkpt lat="45.73071202263236" lon="6.70899985358119">
        <ele>2406.3200000000002</ele>
        <time>2014-07-18T09:40:46Z</time>
      </trkpt>
      <trkpt lat="45.730657707899809" lon="6.709081996232271">
        <ele>2408.7199999999998</ele>
        <time>2014-07-18T09:41:00Z</time>
      </trkpt>
      <trkpt lat="45.730614038184285" lon="6.709167324006558">
        <ele>2409.6799999999998</ele>
        <time>2014-07-18T09:41:11Z</time>
      </trkpt>
      <trkpt lat="45.730584198608994" lon="6.709156176075339">
        <ele>2409.6799999999998</ele>
        <time>2014-07-18T09:41:14Z</time>
      </trkpt>
      <trkpt lat="45.730543965473771" lon="6.709066573530436">
        <ele>2409.6799999999998</ele>
        <time>2014-07-18T09:41:28Z</time>
      </trkpt>
      <trkpt lat="45.730532314628363" lon="6.709062047302723">
        <ele>2409.6799999999998</ele>
        <time>2014-07-18T09:41:43Z</time>
      </trkpt>
      <trkpt lat="45.730436677113175" lon="6.709017371758819">
        <ele>2409.1999999999998</ele>
        <time>2014-07-18T09:42:01Z</time>
      </trkpt>
      <trkpt lat="45.730397198349237" lon="6.709071351215243">
        <ele>2407.7600000000002</ele>
        <time>2014-07-18T09:42:06Z</time>
      </trkpt>
      <trkpt lat="45.730275325477123" lon="6.70917528681457">
        <ele>2407.7600000000002</ele>
        <time>2014-07-18T09:42:21Z</time>
      </trkpt>
      <trkpt lat="45.730253951624036" lon="6.709150308743119">
        <ele>2408.2399999999998</ele>
        <time>2014-07-18T09:42:36Z</time>
      </trkpt>
      <trkpt lat="45.730232913047075" lon="6.709178974851966">
        <ele>2408.2399999999998</ele>
        <time>2014-07-18T09:42:56Z</time>
      </trkpt>
      <trkpt lat="45.730210868641734" lon="6.709170425310731">
        <ele>2408.2399999999998</ele>
        <time>2014-07-18T09:43:16Z</time>
      </trkpt>
      <trkpt lat="45.730105340480804" lon="6.709248209372163">
        <ele>2408.7199999999998</ele>
        <time>2014-07-18T09:43:29Z</time>
      </trkpt>
      <trkpt lat="45.730107184499502" lon="6.709322389215231">
        <ele>2409.6799999999998</ele>
        <time>2014-07-18T09:43:37Z</time>
      </trkpt>
      <trkpt lat="45.730066867545247" lon="6.709377625957131">
        <ele>2410.6399999999999</ele>
        <time>2014-07-18T09:43:44Z</time>
      </trkpt>
      <trkpt lat="45.729967709630728" lon="6.709387935698032">
        <ele>2412.0900000000001</ele>
        <time>2014-07-18T09:43:56Z</time>
      </trkpt>
      <trkpt lat="45.729850195348263" lon="6.70942883938551">
        <ele>2412.5700000000002</ele>
        <time>2014-07-18T09:44:11Z</time>
      </trkpt>
      <trkpt lat="45.72981733828783" lon="6.709535708650947">
        <ele>2412.5700000000002</ele>
        <time>2014-07-18T09:44:22Z</time>
      </trkpt>
      <trkpt lat="45.729790180921555" lon="6.709665711969137">
        <ele>2413.5300000000002</ele>
        <time>2014-07-18T09:44:35Z</time>
      </trkpt>
      <trkpt lat="45.729739721864462" lon="6.709762355312705">
        <ele>2413.5300000000002</ele>
        <time>2014-07-18T09:44:46Z</time>
      </trkpt>
      <trkpt lat="45.729615669697523" lon="6.709804767742753">
        <ele>2414.4899999999998</ele>
        <time>2014-07-18T09:45:01Z</time>
      </trkpt>
      <trkpt lat="45.72956713847816" lon="6.709891520440579">
        <ele>2416.4099999999999</ele>
        <time>2014-07-18T09:45:14Z</time>
      </trkpt>
      <trkpt lat="45.729555319994688" lon="6.710036946460605">
        <ele>2417.3699999999999</ele>
        <time>2014-07-18T09:45:28Z</time>
      </trkpt>
      <trkpt lat="45.729473009705544" lon="6.710182121023536">
        <ele>2417.3699999999999</ele>
        <time>2014-07-18T09:45:43Z</time>
      </trkpt>
      <trkpt lat="45.729394303634763" lon="6.710262922570109">
        <ele>2418.3299999999999</ele>
        <time>2014-07-18T09:45:56Z</time>
      </trkpt>
      <trkpt lat="45.729334456846118" lon="6.710265688598156">
        <ele>2419.7800000000002</ele>
        <time>2014-07-18T09:46:07Z</time>
      </trkpt>
      <trkpt lat="45.72925440967083" lon="6.710225874558091">
        <ele>2420.7399999999998</ele>
        <time>2014-07-18T09:46:18Z</time>
      </trkpt>
      <trkpt lat="45.729145361110568" lon="6.710167117416859">
        <ele>2420.7399999999998</ele>
        <time>2014-07-18T09:46:32Z</time>
      </trkpt>
      <trkpt lat="45.729166651144624" lon="6.710024708881974">
        <ele>2420.2600000000002</ele>
        <time>2014-07-18T09:46:44Z</time>
      </trkpt>
      <trkpt lat="45.729166902601719" lon="6.710002245381475">
        <ele>2420.2600000000002</ele>
        <time>2014-07-18T09:47:03Z</time>
      </trkpt>
      <trkpt lat="45.729158101603389" lon="6.710045160725713">
        <ele>2420.7399999999998</ele>
        <time>2014-07-18T09:47:23Z</time>
      </trkpt>
      <trkpt lat="45.729150306433439" lon="6.710049016401172">
        <ele>2420.7399999999998</ele>
        <time>2014-07-18T09:47:28Z</time>
      </trkpt>
      <trkpt lat="45.729095824062824" lon="6.71009779907763">
        <ele>2420.7399999999998</ele>
        <time>2014-07-18T09:47:32Z</time>
      </trkpt>
      <trkpt lat="45.728936651721597" lon="6.71019310131669">
        <ele>2419.7800000000002</ele>
        <time>2014-07-18T09:47:44Z</time>
      </trkpt>
      <trkpt lat="45.728815030306578" lon="6.710190419107676">
        <ele>2419.3000000000002</ele>
        <time>2014-07-18T09:47:56Z</time>
      </trkpt>
      <trkpt lat="45.728685446083546" lon="6.710293013602495">
        <ele>2417.3699999999999</ele>
        <time>2014-07-18T09:48:13Z</time>
      </trkpt>
      <trkpt lat="45.728627359494567" lon="6.710307262837887">
        <ele>2416.8899999999999</ele>
        <time>2014-07-18T09:48:19Z</time>
      </trkpt>
      <trkpt lat="45.728546222671866" lon="6.710280189290643">
        <ele>2415.4499999999998</ele>
        <time>2014-07-18T09:48:33Z</time>
      </trkpt>
      <trkpt lat="45.728505654260516" lon="6.710278261452913">
        <ele>2414.9699999999998</ele>
        <time>2014-07-18T09:48:37Z</time>
      </trkpt>
      <trkpt lat="45.728379925712943" lon="6.710252612829208">
        <ele>2414.0100000000002</ele>
        <time>2014-07-18T09:48:50Z</time>
      </trkpt>
      <trkpt lat="45.728262662887573" lon="6.710260827094317">
        <ele>2411.1199999999999</ele>
        <time>2014-07-18T09:49:04Z</time>
      </trkpt>
      <trkpt lat="45.728188566863537" lon="6.710311537608504">
        <ele>2410.1599999999999</ele>
        <time>2014-07-18T09:49:13Z</time>
      </trkpt>
      <trkpt lat="45.728051103651524" lon="6.710344478487968">
        <ele>2411.1199999999999</ele>
        <time>2014-07-18T09:49:30Z</time>
      </trkpt>
      <trkpt lat="45.728015899658203" lon="6.710418239235878">
        <ele>2412.5700000000002</ele>
        <time>2014-07-18T09:49:41Z</time>
      </trkpt>
      <trkpt lat="45.728004248812795" lon="6.71055369079113">
        <ele>2414.4899999999998</ele>
        <time>2014-07-18T09:49:55Z</time>
      </trkpt>
      <trkpt lat="45.728003159165382" lon="6.710655195638537">
        <ele>2415.4499999999998</ele>
        <time>2014-07-18T09:50:06Z</time>
      </trkpt>
      <trkpt lat="45.727980695664883" lon="6.710734404623509">
        <ele>2417.3699999999999</ele>
        <time>2014-07-18T09:50:20Z</time>
      </trkpt>
      <trkpt lat="45.727956891059875" lon="6.710802465677261">
        <ele>2417.8499999999999</ele>
        <time>2014-07-18T09:50:28Z</time>
      </trkpt>
      <trkpt lat="45.727869719266891" lon="6.71089424751699">
        <ele>2417.8499999999999</ele>
        <time>2014-07-18T09:50:42Z</time>
      </trkpt>
      <trkpt lat="45.727756982669234" lon="6.710950909182429">
        <ele>2417.8499999999999</ele>
        <time>2014-07-18T09:50:56Z</time>
      </trkpt>
      <trkpt lat="45.727720269933343" lon="6.710962224751711">
        <ele>2418.3299999999999</ele>
        <time>2014-07-18T09:51:02Z</time>
      </trkpt>
      <trkpt lat="45.727638211101294" lon="6.710983430966735">
        <ele>2417.8499999999999</ele>
        <time>2014-07-18T09:51:17Z</time>
      </trkpt>
      <trkpt lat="45.727541148662567" lon="6.711023831740022">
        <ele>2418.8099999999999</ele>
        <time>2014-07-18T09:51:33Z</time>
      </trkpt>
      <trkpt lat="45.727517511695623" lon="6.711117457598448">
        <ele>2421.2199999999998</ele>
        <time>2014-07-18T09:51:48Z</time>
      </trkpt>
      <trkpt lat="45.727449283003807" lon="6.71117227524519">
        <ele>2422.6599999999999</ele>
        <time>2014-07-18T09:52:00Z</time>
      </trkpt>
      <trkpt lat="45.727344173938036" lon="6.711201779544354">
        <ele>2421.6999999999998</ele>
        <time>2014-07-18T09:52:13Z</time>
      </trkpt>
      <trkpt lat="45.727332942187786" lon="6.711201695725322">
        <ele>2421.6999999999998</ele>
        <time>2014-07-18T09:52:14Z</time>
      </trkpt>
      <trkpt lat="45.727193551138043" lon="6.711240755394101">
        <ele>2420.7399999999998</ele>
        <time>2014-07-18T09:52:29Z</time>
      </trkpt>
      <trkpt lat="45.727065056562424" lon="6.711268667131662">
        <ele>2420.2600000000002</ele>
        <time>2014-07-18T09:52:42Z</time>
      </trkpt>
      <trkpt lat="45.72698911651969" lon="6.711331447586417">
        <ele>2420.7399999999998</ele>
        <time>2014-07-18T09:52:56Z</time>
      </trkpt>
      <trkpt lat="45.726949889212847" lon="6.711388863623142">
        <ele>2422.6599999999999</ele>
        <time>2014-07-18T09:53:10Z</time>
      </trkpt>
      <trkpt lat="45.726923067122698" lon="6.711452901363373">
        <ele>2423.6199999999999</ele>
        <time>2014-07-18T09:53:25Z</time>
      </trkpt>
      <trkpt lat="45.726934047415853" lon="6.711504282429814">
        <ele>2425.54</ele>
        <time>2014-07-18T09:53:38Z</time>
      </trkpt>
      <trkpt lat="45.726901441812515" lon="6.711561111733317">
        <ele>2426.9899999999998</ele>
        <time>2014-07-18T09:53:48Z</time>
      </trkpt>
      <trkpt lat="45.72686648927629" lon="6.711643841117621">
        <ele>2426.9899999999998</ele>
        <time>2014-07-18T09:53:55Z</time>
      </trkpt>
      <trkpt lat="45.726812006905675" lon="6.71180603094399">
        <ele>2426.9899999999998</ele>
        <time>2014-07-18T09:54:09Z</time>
      </trkpt>
      <trkpt lat="45.726773198693991" lon="6.711866296827793">
        <ele>2426.5</ele>
        <time>2014-07-18T09:54:14Z</time>
      </trkpt>
      <trkpt lat="45.726717794314027" lon="6.71204105950892">
        <ele>2427.9499999999998</ele>
        <time>2014-07-18T09:54:29Z</time>
      </trkpt>
      <trkpt lat="45.72667739354074" lon="6.712190508842468">
        <ele>2429.8699999999999</ele>
        <time>2014-07-18T09:54:44Z</time>
      </trkpt>
      <trkpt lat="45.726654343307018" lon="6.712321601808071">
        <ele>2431.3099999999999</ele>
        <time>2014-07-18T09:54:59Z</time>
      </trkpt>
      <trkpt lat="45.726630287244916" lon="6.712379604578018">
        <ele>2431.79</ele>
        <time>2014-07-18T09:55:05Z</time>
      </trkpt>
      <trkpt lat="45.726545797660947" lon="6.712513295933604">
        <ele>2431.3099999999999</ele>
        <time>2014-07-18T09:55:20Z</time>
      </trkpt>
      <trkpt lat="45.726532805711031" lon="6.712518827989698">
        <ele>2431.79</ele>
        <time>2014-07-18T09:55:23Z</time>
      </trkpt>
      <trkpt lat="45.726489387452602" lon="6.712610023096204">
        <ele>2433.23</ele>
        <time>2014-07-18T09:55:38Z</time>
      </trkpt>
      <trkpt lat="45.726452507078648" lon="6.712743798270822">
        <ele>2435.1599999999999</ele>
        <time>2014-07-18T09:55:54Z</time>
      </trkpt>
      <trkpt lat="45.726398443803191" lon="6.712769446894527">
        <ele>2434.6799999999998</ele>
        <time>2014-07-18T09:56:06Z</time>
      </trkpt>
      <trkpt lat="45.726341111585498" lon="6.712809763848782">
        <ele>2432.75</ele>
        <time>2014-07-18T09:56:16Z</time>
      </trkpt>
      <trkpt lat="45.726321581751108" lon="6.712841615080833">
        <ele>2432.27</ele>
        <time>2014-07-18T09:56:19Z</time>
      </trkpt>
      <trkpt lat="45.726199708878994" lon="6.712903724983335">
        <ele>2433.23</ele>
        <time>2014-07-18T09:56:34Z</time>
      </trkpt>
      <trkpt lat="45.726136760786176" lon="6.712963320314884">
        <ele>2435.6399999999999</ele>
        <time>2014-07-18T09:56:48Z</time>
      </trkpt>
      <trkpt lat="45.726079680025578" lon="6.713006990030408">
        <ele>2437.0799999999999</ele>
        <time>2014-07-18T09:56:58Z</time>
      </trkpt>
      <trkpt lat="45.725969038903713" lon="6.713081672787666">
        <ele>2436.5999999999999</ele>
        <time>2014-07-18T09:57:16Z</time>
      </trkpt>
      <trkpt lat="45.725921932607889" lon="6.713162055239081">
        <ele>2438.52</ele>
        <time>2014-07-18T09:57:32Z</time>
      </trkpt>
      <trkpt lat="45.725921345874667" lon="6.713218716904521">
        <ele>2438.52</ele>
        <time>2014-07-18T09:57:45Z</time>
      </trkpt>
      <trkpt lat="45.725918915122747" lon="6.713249981403351">
        <ele>2439.96</ele>
        <time>2014-07-18T09:57:57Z</time>
      </trkpt>
      <trkpt lat="45.72589410468936" lon="6.713310163468123">
        <ele>2441.8899999999999</ele>
        <time>2014-07-18T09:58:11Z</time>
      </trkpt>
      <trkpt lat="45.725884297862649" lon="6.713311169296503">
        <ele>2442.3699999999999</ele>
        <time>2014-07-18T09:58:12Z</time>
      </trkpt>
      <trkpt lat="45.725851273164153" lon="6.713422983884811">
        <ele>2441.8899999999999</ele>
        <time>2014-07-18T09:58:22Z</time>
      </trkpt>
      <trkpt lat="45.725758485496044" lon="6.713457852602005">
        <ele>2439.48</ele>
        <time>2014-07-18T09:58:36Z</time>
      </trkpt>
      <trkpt lat="45.725717414170504" lon="6.713459612801671">
        <ele>2438.04</ele>
        <time>2014-07-18T09:58:46Z</time>
      </trkpt>
      <trkpt lat="45.725591769441962" lon="6.713478974997997">
        <ele>2435.6399999999999</ele>
        <time>2014-07-18T09:59:02Z</time>
      </trkpt>
      <trkpt lat="45.725523792207241" lon="6.713504372164607">
        <ele>2435.1599999999999</ele>
        <time>2014-07-18T09:59:10Z</time>
      </trkpt>
      <trkpt lat="45.725467717275023" lon="6.71354359947145">
        <ele>2435.1599999999999</ele>
        <time>2014-07-18T09:59:16Z</time>
      </trkpt>
      <trkpt lat="45.725360428914428" lon="6.713582994416356">
        <ele>2435.1599999999999</ele>
        <time>2014-07-18T09:59:28Z</time>
      </trkpt>
      <trkpt lat="45.725304773077369" lon="6.713733617216349">
        <ele>2436.5999999999999</ele>
        <time>2014-07-18T09:59:46Z</time>
      </trkpt>
      <trkpt lat="45.725351208820939" lon="6.713838055729866">
        <ele>2438.04</ele>
        <time>2014-07-18T09:59:58Z</time>
      </trkpt>
      <trkpt lat="45.72533855214715" lon="6.713985577225685">
        <ele>2439</ele>
        <time>2014-07-18T10:00:11Z</time>
      </trkpt>
      <trkpt lat="45.725288260728121" lon="6.714104767888784">
        <ele>2439.48</ele>
        <time>2014-07-18T10:00:23Z</time>
      </trkpt>
      <trkpt lat="45.725265629589558" lon="6.714196382090449">
        <ele>2440.4400000000001</ele>
        <time>2014-07-18T10:00:36Z</time>
      </trkpt>
      <trkpt lat="45.72519295848906" lon="6.714367205277085">
        <ele>2441.4099999999999</ele>
        <time>2014-07-18T10:00:50Z</time>
      </trkpt>
      <trkpt lat="45.725104697048664" lon="6.714489497244358">
        <ele>2441.4099999999999</ele>
        <time>2014-07-18T10:01:02Z</time>
      </trkpt>
      <trkpt lat="45.725131938233972" lon="6.71469091437757">
        <ele>2442.8499999999999</ele>
        <time>2014-07-18T10:01:18Z</time>
      </trkpt>
      <trkpt lat="45.725127495825291" lon="6.714741624891758">
        <ele>2443.3299999999999</ele>
        <time>2014-07-18T10:01:22Z</time>
      </trkpt>
      <trkpt lat="45.72515582665801" lon="6.714886715635657">
        <ele>2444.29</ele>
        <time>2014-07-18T10:01:35Z</time>
      </trkpt>
      <trkpt lat="45.7251719199121" lon="6.714897025376558">
        <ele>2444.77</ele>
        <time>2014-07-18T10:01:38Z</time>
      </trkpt>
      <trkpt lat="45.72521441616118" lon="6.714987382292748">
        <ele>2447.1700000000001</ele>
        <time>2014-07-18T10:01:53Z</time>
      </trkpt>
      <trkpt lat="45.725236125290394" lon="6.715116044506431">
        <ele>2449.5799999999999</ele>
        <time>2014-07-18T10:02:10Z</time>
      </trkpt>
      <trkpt lat="45.725274933502078" lon="6.715176980942488">
        <ele>2451.5</ele>
        <time>2014-07-18T10:02:23Z</time>
      </trkpt>
      <trkpt lat="45.72531851939857" lon="6.715247891843319">
        <ele>2453.9000000000001</ele>
        <time>2014-07-18T10:02:37Z</time>
      </trkpt>
      <trkpt lat="45.72533218190074" lon="6.715401448309422">
        <ele>2455.8200000000002</ele>
        <time>2014-07-18T10:02:53Z</time>
      </trkpt>
      <trkpt lat="45.725384736433625" lon="6.715500773862004">
        <ele>2458.23</ele>
        <time>2014-07-18T10:03:08Z</time>
      </trkpt>
      <trkpt lat="45.725407116115093" lon="6.715533128008246">
        <ele>2459.6700000000001</ele>
        <time>2014-07-18T10:03:20Z</time>
      </trkpt>
      <trkpt lat="45.725414324551821" lon="6.715617030858994">
        <ele>2460.1500000000001</ele>
        <time>2014-07-18T10:03:30Z</time>
      </trkpt>
      <trkpt lat="45.725359758362174" lon="6.715715769678354">
        <ele>2460.6300000000001</ele>
        <time>2014-07-18T10:03:43Z</time>
      </trkpt>
      <trkpt lat="45.725387167185545" lon="6.715799672529101">
        <ele>2462.5500000000002</ele>
        <time>2014-07-18T10:04:00Z</time>
      </trkpt>
      <trkpt lat="45.725423209369183" lon="6.715815346688032">
        <ele>2464.96</ele>
        <time>2014-07-18T10:04:17Z</time>
      </trkpt>
      <trkpt lat="45.725460927933455" lon="6.715853400528431">
        <ele>2466.8800000000001</ele>
        <time>2014-07-18T10:04:32Z</time>
      </trkpt>
      <trkpt lat="45.725465957075357" lon="6.715903859585524">
        <ele>2468.8000000000002</ele>
        <time>2014-07-18T10:04:45Z</time>
      </trkpt>
      <trkpt lat="45.725467130541801" lon="6.71602145768702">
        <ele>2470.2399999999998</ele>
        <time>2014-07-18T10:04:59Z</time>
      </trkpt>
      <trkpt lat="45.725486492738128" lon="6.7160864174366">
        <ele>2471.6900000000001</ele>
        <time>2014-07-18T10:05:09Z</time>
      </trkpt>
      <trkpt lat="45.72546411305666" lon="6.716136541217566">
        <ele>2472.6500000000001</ele>
        <time>2014-07-18T10:05:20Z</time>
      </trkpt>
      <trkpt lat="45.72541382163763" lon="6.716169398277998">
        <ele>2474.0900000000001</ele>
        <time>2014-07-18T10:05:31Z</time>
      </trkpt>
      <trkpt lat="45.725386245176196" lon="6.716132769361138">
        <ele>2474.5700000000002</ele>
        <time>2014-07-18T10:05:46Z</time>
      </trkpt>
      <trkpt lat="45.725317681208253" lon="6.716085160151124">
        <ele>2477.4499999999998</ele>
        <time>2014-07-18T10:06:00Z</time>
      </trkpt>
      <trkpt lat="45.725237969309092" lon="6.716098487377167">
        <ele>2477.9400000000001</ele>
        <time>2014-07-18T10:06:12Z</time>
      </trkpt>
      <trkpt lat="45.725177200511098" lon="6.716224802657962">
        <ele>2480.8200000000002</ele>
        <time>2014-07-18T10:06:29Z</time>
      </trkpt>
      <trkpt lat="45.725147109478712" lon="6.716301077976823">
        <ele>2481.7800000000002</ele>
        <time>2014-07-18T10:06:39Z</time>
      </trkpt>
      <trkpt lat="45.725074354559183" lon="6.716453963890672">
        <ele>2482.7399999999998</ele>
        <time>2014-07-18T10:06:54Z</time>
      </trkpt>
      <trkpt lat="45.725058345124125" lon="6.716475253924727">
        <ele>2483.2199999999998</ele>
        <time>2014-07-18T10:06:56Z</time>
      </trkpt>
      <trkpt lat="45.725020710378885" lon="6.716563431546092">
        <ele>2484.1799999999998</ele>
        <time>2014-07-18T10:07:05Z</time>
      </trkpt>
      <trkpt lat="45.725008472800255" lon="6.716586984694004">
        <ele>2484.1799999999998</ele>
        <time>2014-07-18T10:07:07Z</time>
      </trkpt>
      <trkpt lat="45.724981315433979" lon="6.716667031869292">
        <ele>2484.6599999999999</ele>
        <time>2014-07-18T10:07:14Z</time>
      </trkpt>
      <trkpt lat="45.724882073700428" lon="6.716674575582147">
        <ele>2486.5900000000001</ele>
        <time>2014-07-18T10:07:27Z</time>
      </trkpt>
      <trkpt lat="45.72476145811379" lon="6.716716317459941">
        <ele>2489.4699999999998</ele>
        <time>2014-07-18T10:07:42Z</time>
      </trkpt>
      <trkpt lat="45.724660456180573" lon="6.716747498139739">
        <ele>2490.4299999999998</ele>
        <time>2014-07-18T10:07:55Z</time>
      </trkpt>
      <trkpt lat="45.724560376256704" lon="6.716790916398168">
        <ele>2492.8400000000001</ele>
        <time>2014-07-18T10:08:13Z</time>
      </trkpt>
      <trkpt lat="45.724502373486757" lon="6.716812122613192">
        <ele>2493.8000000000002</ele>
        <time>2014-07-18T10:08:30Z</time>
      </trkpt>
      <trkpt lat="45.724440347403288" lon="6.716824695467949">
        <ele>2494.2800000000002</ele>
        <time>2014-07-18T10:08:42Z</time>
      </trkpt>
      <trkpt lat="45.724427103996277" lon="6.716824946925044">
        <ele>2493.8000000000002</ele>
        <time>2014-07-18T10:09:07Z</time>
      </trkpt>
      <trkpt lat="45.724420985206962" lon="6.716811368241906">
        <ele>2493.3200000000002</ele>
        <time>2014-07-18T10:09:23Z</time>
      </trkpt>
      <trkpt lat="45.724436156451702" lon="6.716770799830556">
        <ele>2493.3200000000002</ele>
        <time>2014-07-18T10:09:44Z</time>
      </trkpt>
      <trkpt lat="45.724427942186594" lon="6.716760406270623">
        <ele>2493.3200000000002</ele>
        <time>2014-07-18T10:10:06Z</time>
      </trkpt>
      <trkpt lat="45.724433977156878" lon="6.716742133721709">
        <ele>2492.8400000000001</ele>
        <time>2014-07-18T10:10:43Z</time>
      </trkpt>
      <trkpt lat="45.724447723478079" lon="6.716753784567118">
        <ele>2493.3200000000002</ele>
        <time>2014-07-18T10:11:11Z</time>
      </trkpt>
      <trkpt lat="45.72444193996489" lon="6.716754790395498">
        <ele>2494.7600000000002</ele>
        <time>2014-07-18T10:11:44Z</time>
      </trkpt>
      <trkpt lat="45.724439676851034" lon="6.716790329664946">
        <ele>2493.8000000000002</ele>
        <time>2014-07-18T10:12:16Z</time>
      </trkpt>
      <trkpt lat="45.724436910822988" lon="6.716771889477968">
        <ele>2494.2800000000002</ele>
        <time>2014-07-18T10:12:34Z</time>
      </trkpt>
      <trkpt lat="45.724444957450032" lon="6.716795610263944">
        <ele>2494.2800000000002</ele>
        <time>2014-07-18T10:13:04Z</time>
      </trkpt>
      <trkpt lat="45.724443783983588" lon="6.716760573908687">
        <ele>2493.3200000000002</ele>
        <time>2014-07-18T10:13:22Z</time>
      </trkpt>
      <trkpt lat="45.724425092339516" lon="6.716747833415866">
        <ele>2493.8000000000002</ele>
        <time>2014-07-18T10:13:49Z</time>
      </trkpt>
      <trkpt lat="45.724419560283422" lon="6.716744313016534">
        <ele>2493.3200000000002</ele>
        <time>2014-07-18T10:14:24Z</time>
      </trkpt>
      <trkpt lat="45.724411429837346" lon="6.716740289703012">
        <ele>2493.8000000000002</ele>
        <time>2014-07-18T10:15:02Z</time>
      </trkpt>
      <trkpt lat="45.724386451765895" lon="6.716712713241577">
        <ele>2493.8000000000002</ele>
        <time>2014-07-18T10:15:30Z</time>
      </trkpt>
      <trkpt lat="45.724349487572908" lon="6.716684382408857">
        <ele>2494.2800000000002</ele>
        <time>2014-07-18T10:16:16Z</time>
      </trkpt>
      <trkpt lat="45.724337585270405" lon="6.71666887588799">
        <ele>2494.7600000000002</ele>
        <time>2014-07-18T10:16:56Z</time>
      </trkpt>
      <trkpt lat="45.724347895011306" lon="6.716676838696003">
        <ele>2495.2399999999998</ele>
        <time>2014-07-18T10:17:29Z</time>
      </trkpt>
      <trkpt lat="45.724402042105794" lon="6.716736350208521">
        <ele>2495.7199999999998</ele>
        <time>2014-07-18T10:18:03Z</time>
      </trkpt>
      <trkpt lat="45.724431965500116" lon="6.716758226975799">
        <ele>2495.7199999999998</ele>
        <time>2014-07-18T10:18:40Z</time>
      </trkpt>
      <trkpt lat="45.724437162280083" lon="6.716754203662276">
        <ele>2495.7199999999998</ele>
        <time>2014-07-18T10:19:18Z</time>
      </trkpt>
      <trkpt lat="45.72444043122232" lon="6.716755880042911">
        <ele>2495.7199999999998</ele>
        <time>2014-07-18T10:19:58Z</time>
      </trkpt>
      <trkpt lat="45.724437246099114" lon="6.716761998832226">
        <ele>2496.1999999999998</ele>
        <time>2014-07-18T10:20:40Z</time>
      </trkpt>
      <trkpt lat="45.724431127309799" lon="6.716759400442243">
        <ele>2495.7199999999998</ele>
        <time>2014-07-18T10:21:27Z</time>
      </trkpt>
      <trkpt lat="45.724436240270734" lon="6.716754706576467">
        <ele>2496.1999999999998</ele>
        <time>2014-07-18T10:22:15Z</time>
      </trkpt>
      <trkpt lat="45.724438754841685" lon="6.71676023863256">
        <ele>2496.6799999999998</ele>
        <time>2014-07-18T10:23:02Z</time>
      </trkpt>
      <trkpt lat="45.724463649094105" lon="6.716791838407517">
        <ele>2497.1599999999999</ele>
        <time>2014-07-18T10:23:33Z</time>
      </trkpt>
      <trkpt lat="45.724444454535842" lon="6.716769710183144">
        <ele>2496.6799999999998</ele>
        <time>2014-07-18T10:23:55Z</time>
      </trkpt>
      <trkpt lat="45.724436240270734" lon="6.716757975518704">
        <ele>2496.6799999999998</ele>
        <time>2014-07-18T10:24:42Z</time>
      </trkpt>
      <trkpt lat="45.724444454535842" lon="6.716756634414196">
        <ele>2496.6799999999998</ele>
        <time>2014-07-18T10:25:19Z</time>
      </trkpt>
      <trkpt lat="45.724447555840015" lon="6.716766692698002">
        <ele>2497.6399999999999</ele>
        <time>2014-07-18T10:25:39Z</time>
      </trkpt>
      <trkpt lat="45.724470522254705" lon="6.716768033802509">
        <ele>2496.6799999999998</ele>
        <time>2014-07-18T10:25:49Z</time>
      </trkpt>
      <trkpt lat="45.724465744569898" lon="6.716743893921375">
        <ele>2497.6399999999999</ele>
        <time>2014-07-18T10:25:59Z</time>
      </trkpt>
      <trkpt lat="45.724465241655707" lon="6.71674657613039">
        <ele>2497.6399999999999</ele>
        <time>2014-07-18T10:26:13Z</time>
      </trkpt>
      <trkpt lat="45.724470019340515" lon="6.716752946376801">
        <ele>2497.6399999999999</ele>
        <time>2014-07-18T10:26:27Z</time>
      </trkpt>
      <trkpt lat="45.724455434828997" lon="6.71674070879817">
        <ele>2497.1599999999999</ele>
        <time>2014-07-18T10:26:42Z</time>
      </trkpt>
      <trkpt lat="45.724449399858713" lon="6.716747330501676">
        <ele>2496.6799999999998</ele>
        <time>2014-07-18T10:27:09Z</time>
      </trkpt>
      <trkpt lat="45.72444336488843" lon="6.716750934720039">
        <ele>2496.6799999999998</ele>
        <time>2014-07-18T10:27:36Z</time>
      </trkpt>
      <trkpt lat="45.724457195028663" lon="6.716769374907017">
        <ele>2497.6399999999999</ele>
        <time>2014-07-18T10:27:55Z</time>
      </trkpt>
      <trkpt lat="45.724484100937843" lon="6.716768033802509">
        <ele>2497.6399999999999</ele>
        <time>2014-07-18T10:28:23Z</time>
      </trkpt>
      <trkpt lat="45.724492901936173" lon="6.716753952205181">
        <ele>2497.6399999999999</ele>
        <time>2014-07-18T10:28:35Z</time>
      </trkpt>
      <trkpt lat="45.724514108151197" lon="6.716715563088656">
        <ele>2497.1599999999999</ele>
        <time>2014-07-18T10:28:39Z</time>
      </trkpt>
      <trkpt lat="45.724494997411966" lon="6.716689914464951">
        <ele>2496.6799999999998</ele>
        <time>2014-07-18T10:28:51Z</time>
      </trkpt>
      <trkpt lat="45.724465325474739" lon="6.716766189783812">
        <ele>2497.1599999999999</ele>
        <time>2014-07-18T10:29:04Z</time>
      </trkpt>
      <trkpt lat="45.724453842267394" lon="6.716766022145748">
        <ele>2497.1599999999999</ele>
        <time>2014-07-18T10:29:22Z</time>
      </trkpt>
      <trkpt lat="45.724444873631001" lon="6.71674900688231">
        <ele>2496.6799999999998</ele>
        <time>2014-07-18T10:29:46Z</time>
      </trkpt>
      <trkpt lat="45.72444730438292" lon="6.716751689091325">
        <ele>2496.6799999999998</ele>
        <time>2014-07-18T10:30:15Z</time>
      </trkpt>
      <trkpt lat="45.724448729306459" lon="6.716749425977469">
        <ele>2496.6799999999998</ele>
        <time>2014-07-18T10:30:40Z</time>
      </trkpt>
      <trkpt lat="45.724444203078747" lon="6.716745318844914">
        <ele>2496.6799999999998</ele>
        <time>2014-07-18T10:31:12Z</time>
      </trkpt>
      <trkpt lat="45.724459206685424" lon="6.716739367693663">
        <ele>2496.6799999999998</ele>
        <time>2014-07-18T10:31:49Z</time>
      </trkpt>
      <trkpt lat="45.724456943571568" lon="6.716739870607853">
        <ele>2496.6799999999998</ele>
        <time>2014-07-18T10:32:08Z</time>
      </trkpt>
      <trkpt lat="45.72445560246706" lon="6.716762753203511">
        <ele>2496.6799999999998</ele>
        <time>2014-07-18T10:32:38Z</time>
      </trkpt>
      <trkpt lat="45.724487537518144" lon="6.716779097914696">
        <ele>2497.1599999999999</ele>
        <time>2014-07-18T10:32:49Z</time>
      </trkpt>
      <trkpt lat="45.724480664357543" lon="6.716771889477968">
        <ele>2497.1599999999999</ele>
        <time>2014-07-18T10:33:02Z</time>
      </trkpt>
      <trkpt lat="45.724458368495107" lon="6.716744061559439">
        <ele>2497.1599999999999</ele>
        <time>2014-07-18T10:33:18Z</time>
      </trkpt>
      <trkpt lat="45.724460044875741" lon="6.7167460732162">
        <ele>2497.1599999999999</ele>
        <time>2014-07-18T10:33:37Z</time>
      </trkpt>
      <trkpt lat="45.724466750398278" lon="6.716738026589155">
        <ele>2497.1599999999999</ele>
        <time>2014-07-18T10:33:53Z</time>
      </trkpt>
      <trkpt lat="45.724467756226659" lon="6.716732913628221">
        <ele>2497.1599999999999</ele>
        <time>2014-07-18T10:34:13Z</time>
      </trkpt>
      <trkpt lat="45.724476054310799" lon="6.71676711179316">
        <ele>2497.1599999999999</ele>
        <time>2014-07-18T10:34:29Z</time>
      </trkpt>
      <trkpt lat="45.724488627165556" lon="6.716748336330056">
        <ele>2497.1599999999999</ele>
        <time>2014-07-18T10:34:42Z</time>
      </trkpt>
      <trkpt lat="45.724489046260715" lon="6.716746492311359">
        <ele>2496.6799999999998</ele>
        <time>2014-07-18T10:35:05Z</time>
      </trkpt>
      <trkpt lat="45.724492985755205" lon="6.716743474826217">
        <ele>2496.6799999999998</ele>
        <time>2014-07-18T10:35:28Z</time>
      </trkpt>
      <trkpt lat="45.724464654922485" lon="6.716781109571457">
        <ele>2496.6799999999998</ele>
        <time>2014-07-18T10:35:45Z</time>
      </trkpt>
      <trkpt lat="45.724414950236678" lon="6.716840453445911">
        <ele>2496.6799999999998</ele>
        <time>2014-07-18T10:35:57Z</time>
      </trkpt>
      <trkpt lat="45.724399443715811" lon="6.716864928603172">
        <ele>2495.7199999999998</ele>
        <time>2014-07-18T10:36:00Z</time>
      </trkpt>
      <trkpt lat="45.724272709339857" lon="6.716992417350411">
        <ele>2492.3600000000001</ele>
        <time>2014-07-18T10:36:15Z</time>
      </trkpt>
      <trkpt lat="45.724157961085439" lon="6.717034326866269">
        <ele>2489.4699999999998</ele>
        <time>2014-07-18T10:36:26Z</time>
      </trkpt>
      <trkpt lat="45.724056456238031" lon="6.71715309843421">
        <ele>2486.5900000000001</ele>
        <time>2014-07-18T10:36:37Z</time>
      </trkpt>
      <trkpt lat="45.7239303085953" lon="6.717166509479284">
        <ele>2483.2199999999998</ele>
        <time>2014-07-18T10:36:48Z</time>
      </trkpt>
      <trkpt lat="45.723759904503822" lon="6.717130215838552">
        <ele>2480.3400000000001</ele>
        <time>2014-07-18T10:37:02Z</time>
      </trkpt>
      <trkpt lat="45.723592769354582" lon="6.717091239988804">
        <ele>2478.4200000000001</ele>
        <time>2014-07-18T10:37:16Z</time>
      </trkpt>
      <trkpt lat="45.723545411601663" lon="6.717076571658254">
        <ele>2477.4499999999998</ele>
        <time>2014-07-18T10:37:20Z</time>
      </trkpt>
      <trkpt lat="45.723363691940904" lon="6.717086378484964">
        <ele>2476.0100000000002</ele>
        <time>2014-07-18T10:37:35Z</time>
      </trkpt>
      <trkpt lat="45.723197730258107" lon="6.717138849198818">
        <ele>2473.1300000000001</ele>
        <time>2014-07-18T10:37:49Z</time>
      </trkpt>
      <trkpt lat="45.723059177398682" lon="6.717140777036548">
        <ele>2470.2399999999998</ele>
        <time>2014-07-18T10:37:59Z</time>
      </trkpt>
      <trkpt lat="45.722997151315212" lon="6.717164497822523">
        <ele>2469.2800000000002</ele>
        <time>2014-07-18T10:38:05Z</time>
      </trkpt>
      <trkpt lat="45.722968736663461" lon="6.717156283557415">
        <ele>2468.3200000000002</ele>
        <time>2014-07-18T10:38:08Z</time>
      </trkpt>
      <trkpt lat="45.722903441637754" lon="6.717141447588801">
        <ele>2466.8800000000001</ele>
        <time>2014-07-18T10:38:13Z</time>
      </trkpt>
      <trkpt lat="45.722857089713216" lon="6.717177657410502">
        <ele>2466.8800000000001</ele>
        <time>2014-07-18T10:38:17Z</time>
      </trkpt>
      <trkpt lat="45.722739659249783" lon="6.717176232486963">
        <ele>2463.52</ele>
        <time>2014-07-18T10:38:29Z</time>
      </trkpt>
      <trkpt lat="45.72260320186615" lon="6.717229625210166">
        <ele>2460.6300000000001</ele>
        <time>2014-07-18T10:38:40Z</time>
      </trkpt>
      <trkpt lat="45.722457440569997" lon="6.717313695698977">
        <ele>2459.1900000000001</ele>
        <time>2014-07-18T10:38:56Z</time>
      </trkpt>
      <trkpt lat="45.722360629588366" lon="6.717384522780776">
        <ele>2457.75</ele>
        <time>2014-07-18T10:39:08Z</time>
      </trkpt>
      <trkpt lat="45.722223334014416" lon="6.717489380389452">
        <ele>2454.3800000000001</ele>
        <time>2014-07-18T10:39:24Z</time>
      </trkpt>
      <trkpt lat="45.722200116142631" lon="6.717509832233191">
        <ele>2453.9000000000001</ele>
        <time>2014-07-18T10:39:27Z</time>
      </trkpt>
      <trkpt lat="45.722087128087878" lon="6.717509580776095">
        <ele>2451.5</ele>
        <time>2014-07-18T10:39:39Z</time>
      </trkpt>
      <trkpt lat="45.722017055377364" lon="6.717431209981442">
        <ele>2450.0599999999999</ele>
        <time>2014-07-18T10:39:49Z</time>
      </trkpt>
      <trkpt lat="45.721936756744981" lon="6.717370608821511">
        <ele>2450.0599999999999</ele>
        <time>2014-07-18T10:40:04Z</time>
      </trkpt>
      <trkpt lat="45.721949497237802" lon="6.717349905520678">
        <ele>2450.54</ele>
        <time>2014-07-18T10:40:15Z</time>
      </trkpt>
      <trkpt lat="45.722002219408751" lon="6.717149913311005">
        <ele>2450.54</ele>
        <time>2014-07-18T10:40:35Z</time>
      </trkpt>
      <trkpt lat="45.722050163894892" lon="6.717310762032867">
        <ele>2450.0599999999999</ele>
        <time>2014-07-18T10:43:02Z</time>
      </trkpt>
      <trkpt lat="45.72205008007586" lon="6.717549646273255">
        <ele>2450.0599999999999</ele>
        <time>2014-07-18T10:43:24Z</time>
      </trkpt>
      <trkpt lat="45.722226183861494" lon="6.717160642147064">
        <ele>2450.0599999999999</ele>
        <time>2014-07-18T10:46:50Z</time>
      </trkpt>
      <trkpt lat="45.721940277144313" lon="6.717337081208825">
        <ele>2449.5799999999999</ele>
        <time>2014-07-18T10:47:04Z</time>
      </trkpt>
      <trkpt lat="45.7218614872545" lon="6.717437412589788">
        <ele>2449.5799999999999</ele>
        <time>2014-07-18T10:47:37Z</time>
      </trkpt>
      <trkpt lat="45.721790576353669" lon="6.717523913830519">
        <ele>2449.5799999999999</ele>
        <time>2014-07-18T10:48:09Z</time>
      </trkpt>
      <trkpt lat="45.721782362088561" lon="6.717518968507648">
        <ele>2449.5799999999999</ele>
        <time>2014-07-18T10:48:39Z</time>
      </trkpt>
      <trkpt lat="45.721696866676211" lon="6.717597674578428">
        <ele>2449.5799999999999</ele>
        <time>2014-07-18T10:49:11Z</time>
      </trkpt>
      <trkpt lat="45.721638612449169" lon="6.71756942756474">
        <ele>2447.6500000000001</ele>
        <time>2014-07-18T10:49:42Z</time>
      </trkpt>
      <trkpt lat="45.72175981476903" lon="6.717506814748049">
        <ele>2446.6900000000001</ele>
        <time>2014-07-18T10:50:04Z</time>
      </trkpt>
      <trkpt lat="45.721802227199078" lon="6.717371279373765">
        <ele>2446.6900000000001</ele>
        <time>2014-07-18T10:50:26Z</time>
      </trkpt>
      <trkpt lat="45.721795354038477" lon="6.717356024309993">
        <ele>2447.1700000000001</ele>
        <time>2014-07-18T10:50:47Z</time>
      </trkpt>
      <trkpt lat="45.721807759255171" lon="6.717433724552393">
        <ele>2447.1700000000001</ele>
        <time>2014-07-18T10:51:08Z</time>
      </trkpt>
      <trkpt lat="45.721789402887225" lon="6.717447722330689">
        <ele>2447.1700000000001</ele>
        <time>2014-07-18T10:51:30Z</time>
      </trkpt>
      <trkpt lat="45.721805663779378" lon="6.717422911897302">
        <ele>2446.6900000000001</ele>
        <time>2014-07-18T10:51:57Z</time>
      </trkpt>
      <trkpt lat="45.721796527504921" lon="6.717468677088618">
        <ele>2446.6900000000001</ele>
        <time>2014-07-18T10:52:32Z</time>
      </trkpt>
      <trkpt lat="45.721774399280548" lon="6.717419810593128">
        <ele>2446.21</ele>
        <time>2014-07-18T10:53:05Z</time>
      </trkpt>
      <trkpt lat="45.721783954650164" lon="6.717433892190456">
        <ele>2446.21</ele>
        <time>2014-07-18T10:53:41Z</time>
      </trkpt>
      <trkpt lat="45.721736513078213" lon="6.717467922717333">
        <ele>2446.21</ele>
        <time>2014-07-18T10:54:10Z</time>
      </trkpt>
      <trkpt lat="45.721684545278549" lon="6.717525674030185">
        <ele>2446.21</ele>
        <time>2014-07-18T10:54:41Z</time>
      </trkpt>
      <trkpt lat="45.721653951331973" lon="6.717542773112655">
        <ele>2445.25</ele>
        <time>2014-07-18T10:55:11Z</time>
      </trkpt>
      <trkpt lat="45.721660740673542" lon="6.717511005699635">
        <ele>2444.29</ele>
        <time>2014-07-18T10:55:36Z</time>
      </trkpt>
      <trkpt lat="45.721621261909604" lon="6.717553501948714">
        <ele>2442.8499999999999</ele>
        <time>2014-07-18T10:56:00Z</time>
      </trkpt>
      <trkpt lat="45.721626710146666" lon="6.717538665980101">
        <ele>2443.8099999999999</ele>
        <time>2014-07-18T10:56:04Z</time>
      </trkpt>
      <trkpt lat="45.721658980473876" lon="6.71749365516007">
        <ele>2440.9200000000001</ele>
        <time>2014-07-18T10:56:28Z</time>
      </trkpt>
      <trkpt lat="45.721670212224126" lon="6.71745459549129">
        <ele>2439</ele>
        <time>2014-07-18T10:56:58Z</time>
      </trkpt>
      <trkpt lat="45.721692759543657" lon="6.717443615198135">
        <ele>2438.52</ele>
        <time>2014-07-18T10:57:27Z</time>
      </trkpt>
      <trkpt lat="45.721693011000752" lon="6.717446716502309">
        <ele>2438.04</ele>
        <time>2014-07-18T10:57:59Z</time>
      </trkpt>
      <trkpt lat="45.721693430095911" lon="6.717407740652561">
        <ele>2436.1199999999999</ele>
        <time>2014-07-18T10:58:35Z</time>
      </trkpt>
      <trkpt lat="45.721638277173042" lon="6.717465743422508">
        <ele>2435.6399999999999</ele>
        <time>2014-07-18T10:59:13Z</time>
      </trkpt>
      <trkpt lat="45.721611371263862" lon="6.717466749250889">
        <ele>2434.1999999999998</ele>
        <time>2014-07-18T10:59:43Z</time>
      </trkpt>
      <trkpt lat="45.721589326858521" lon="6.717508072033525">
        <ele>2432.75</ele>
        <time>2014-07-18T11:00:13Z</time>
      </trkpt>
      <trkpt lat="45.72160298936069" lon="6.717517711222172">
        <ele>2432.75</ele>
        <time>2014-07-18T11:00:32Z</time>
      </trkpt>
      <trkpt lat="45.721576670184731" lon="6.717529864981771">
        <ele>2432.75</ele>
        <time>2014-07-18T11:00:55Z</time>
      </trkpt>
      <trkpt lat="45.72162888944149" lon="6.717424085363746">
        <ele>2432.75</ele>
        <time>2014-07-18T11:01:22Z</time>
      </trkpt>
      <trkpt lat="45.72164255194366" lon="6.717438083142042">
        <ele>2432.75</ele>
        <time>2014-07-18T11:01:46Z</time>
      </trkpt>
      <trkpt lat="45.721669374033809" lon="6.717461971566081">
        <ele>2432.75</ele>
        <time>2014-07-18T11:02:10Z</time>
      </trkpt>
      <trkpt lat="45.721721593290567" lon="6.7173573654145">
        <ele>2433.71</ele>
        <time>2014-07-18T11:02:40Z</time>
      </trkpt>
      <trkpt lat="45.721786888316274" lon="6.717361221089959">
        <ele>2433.71</ele>
        <time>2014-07-18T11:03:00Z</time>
      </trkpt>
      <trkpt lat="45.721801472827792" lon="6.717383433133364">
        <ele>2433.71</ele>
        <time>2014-07-18T11:03:02Z</time>
      </trkpt>
      <trkpt lat="45.721877161413431" lon="6.717400951310992">
        <ele>2433.23</ele>
        <time>2014-07-18T11:03:08Z</time>
      </trkpt>
      <trkpt lat="45.721907671540976" lon="6.717427102848887">
        <ele>2433.23</ele>
        <time>2014-07-18T11:03:11Z</time>
      </trkpt>
      <trkpt lat="45.722011271864176" lon="6.717498013749719">
        <ele>2434.1999999999998</ele>
        <time>2014-07-18T11:03:23Z</time>
      </trkpt>
      <trkpt lat="45.722124595195055" lon="6.717503210529685">
        <ele>2434.6799999999998</ele>
        <time>2014-07-18T11:03:27Z</time>
      </trkpt>
      <trkpt lat="45.722246132791042" lon="6.717404890805483">
        <ele>2436.1199999999999</ele>
        <time>2014-07-18T11:03:41Z</time>
      </trkpt>
      <trkpt lat="45.722257532179356" lon="6.71738519333303">
        <ele>2436.1199999999999</ele>
        <time>2014-07-18T11:03:43Z</time>
      </trkpt>
      <trkpt lat="45.722348392009735" lon="6.717278575524688">
        <ele>2437.0799999999999</ele>
        <time>2014-07-18T11:03:56Z</time>
      </trkpt>
      <trkpt lat="45.722396168857813" lon="6.7172313015908">
        <ele>2438.04</ele>
        <time>2014-07-18T11:04:03Z</time>
      </trkpt>
      <trkpt lat="45.72249666787684" lon="6.717175310477614">
        <ele>2439.48</ele>
        <time>2014-07-18T11:04:17Z</time>
      </trkpt>
      <trkpt lat="45.722611332312226" lon="6.717139687389135">
        <ele>2441.4099999999999</ele>
        <time>2014-07-18T11:04:31Z</time>
      </trkpt>
      <trkpt lat="45.722726583480835" lon="6.717098196968436">
        <ele>2442.8499999999999</ele>
        <time>2014-07-18T11:04:45Z</time>
      </trkpt>
      <trkpt lat="45.72282406501472" lon="6.717067854478955">
        <ele>2446.21</ele>
        <time>2014-07-18T11:05:01Z</time>
      </trkpt>
      <trkpt lat="45.722921211272478" lon="6.717089144513011">
        <ele>2448.1300000000001</ele>
        <time>2014-07-18T11:05:16Z</time>
      </trkpt>
      <trkpt lat="45.723017016425729" lon="6.717111859470606">
        <ele>2451.02</ele>
        <time>2014-07-18T11:05:31Z</time>
      </trkpt>
      <trkpt lat="45.723113995045424" lon="6.717138178646565">
        <ele>2453.9000000000001</ele>
        <time>2014-07-18T11:05:48Z</time>
      </trkpt>
      <trkpt lat="45.723228491842747" lon="6.717129293829203">
        <ele>2456.3099999999999</ele>
        <time>2014-07-18T11:06:03Z</time>
      </trkpt>
      <trkpt lat="45.723367631435394" lon="6.717084366828203">
        <ele>2458.71</ele>
        <time>2014-07-18T11:06:22Z</time>
      </trkpt>
      <trkpt lat="45.723514314740896" lon="6.717085372656584">
        <ele>2460.1500000000001</ele>
        <time>2014-07-18T11:06:37Z</time>
      </trkpt>
      <trkpt lat="45.723659405484796" lon="6.717110350728035">
        <ele>2461.5900000000001</ele>
        <time>2014-07-18T11:06:53Z</time>
      </trkpt>
      <trkpt lat="45.723772309720516" lon="6.717154523357749">
        <ele>2463.52</ele>
        <time>2014-07-18T11:07:06Z</time>
      </trkpt>
      <trkpt lat="45.723848417401314" lon="6.717174472287297">
        <ele>2464.48</ele>
        <time>2014-07-18T11:07:15Z</time>
      </trkpt>
      <trkpt lat="45.723921842873096" lon="6.717187548056245">
        <ele>2465.9200000000001</ele>
        <time>2014-07-18T11:07:30Z</time>
      </trkpt>
      <trkpt lat="45.724028795957565" lon="6.717185536399484">
        <ele>2468.8000000000002</ele>
        <time>2014-07-18T11:07:45Z</time>
      </trkpt>
      <trkpt lat="45.724130300804973" lon="6.717091575264931">
        <ele>2472.1700000000001</ele>
        <time>2014-07-18T11:08:00Z</time>
      </trkpt>
      <trkpt lat="45.72415167465806" lon="6.71706953085959">
        <ele>2472.1700000000001</ele>
        <time>2014-07-18T11:08:03Z</time>
      </trkpt>
      <trkpt lat="45.724274469539523" lon="6.716980934143066">
        <ele>2474.5700000000002</ele>
        <time>2014-07-18T11:08:21Z</time>
      </trkpt>
      <trkpt lat="45.724380919709802" lon="6.716926451772451">
        <ele>2477.4499999999998</ele>
        <time>2014-07-18T11:08:36Z</time>
      </trkpt>
      <trkpt lat="45.724474880844355" lon="6.716813631355763">
        <ele>2480.8200000000002</ele>
        <time>2014-07-18T11:08:54Z</time>
      </trkpt>
      <trkpt lat="45.724494662135839" lon="6.716758813709021">
        <ele>2481.3000000000002</ele>
        <time>2014-07-18T11:09:07Z</time>
      </trkpt>
      <trkpt lat="45.724489800632" lon="6.716754538938403">
        <ele>2480.8200000000002</ele>
        <time>2014-07-18T11:09:21Z</time>
      </trkpt>
      <trkpt lat="45.724472114816308" lon="6.71674364246428">
        <ele>2480.3400000000001</ele>
        <time>2014-07-18T11:09:35Z</time>
      </trkpt>
      <trkpt lat="45.724473288282752" lon="6.716768201440573">
        <ele>2481.7800000000002</ele>
        <time>2014-07-18T11:09:47Z</time>
      </trkpt>
      <trkpt lat="45.724471360445023" lon="6.716747581958771">
        <ele>2481.3000000000002</ele>
        <time>2014-07-18T11:10:08Z</time>
      </trkpt>
      <trkpt lat="45.724461888894439" lon="6.716752108186483">
        <ele>2481.3000000000002</ele>
        <time>2014-07-18T11:10:40Z</time>
      </trkpt>
      <trkpt lat="45.724471192806959" lon="6.716750683262944">
        <ele>2481.7800000000002</ele>
        <time>2014-07-18T11:11:14Z</time>
      </trkpt>
      <trkpt lat="45.724470019340515" lon="6.716744229197502">
        <ele>2482.2600000000002</ele>
        <time>2014-07-18T11:11:47Z</time>
      </trkpt>
      <trkpt lat="45.724467923864722" lon="6.716744815930724">
        <ele>2482.7399999999998</ele>
        <time>2014-07-18T11:12:21Z</time>
      </trkpt>
      <trkpt lat="45.724466498941183" lon="6.716771554201841">
        <ele>2483.2199999999998</ele>
        <time>2014-07-18T11:12:52Z</time>
      </trkpt>
      <trkpt lat="45.724501116201282" lon="6.716753449290991">
        <ele>2483.6999999999998</ele>
        <time>2014-07-18T11:13:10Z</time>
      </trkpt>
      <trkpt lat="45.724499691277742" lon="6.716736266389489">
        <ele>2483.6999999999998</ele>
        <time>2014-07-18T11:13:25Z</time>
      </trkpt>
      <trkpt lat="45.724489884451032" lon="6.716770045459271">
        <ele>2483.6999999999998</ele>
        <time>2014-07-18T11:13:46Z</time>
      </trkpt>
      <trkpt lat="45.724499272182584" lon="6.7167685367167">
        <ele>2483.6999999999998</ele>
        <time>2014-07-18T11:14:10Z</time>
      </trkpt>
      <trkpt lat="45.72450052946806" lon="6.716772895306349">
        <ele>2484.1799999999998</ele>
        <time>2014-07-18T11:14:33Z</time>
      </trkpt>
      <trkpt lat="45.724478317424655" lon="6.716742804273963">
        <ele>2483.2199999999998</ele>
        <time>2014-07-18T11:14:52Z</time>
      </trkpt>
      <trkpt lat="45.724473455920815" lon="6.716743726283312">
        <ele>2483.6999999999998</ele>
        <time>2014-07-18T11:15:26Z</time>
      </trkpt>
      <trkpt lat="45.724476054310799" lon="6.716747833415866">
        <ele>2484.1799999999998</ele>
        <time>2014-07-18T11:16:03Z</time>
      </trkpt>
      <trkpt lat="45.72447856888175" lon="6.716748923063278">
        <ele>2484.6599999999999</ele>
        <time>2014-07-18T11:16:37Z</time>
      </trkpt>
      <trkpt lat="45.724473875015974" lon="6.716752192005515">
        <ele>2485.1500000000001</ele>
        <time>2014-07-18T11:17:16Z</time>
      </trkpt>
      <trkpt lat="45.724471863359213" lon="6.716752611100674">
        <ele>2485.1500000000001</ele>
        <time>2014-07-18T11:17:44Z</time>
      </trkpt>
      <trkpt lat="45.724475299939513" lon="6.716756634414196">
        <ele>2485.6300000000001</ele>
        <time>2014-07-18T11:18:14Z</time>
      </trkpt>
      <trkpt lat="45.724475802853703" lon="6.716748168691993">
        <ele>2486.1100000000001</ele>
        <time>2014-07-18T11:18:53Z</time>
      </trkpt>
      <trkpt lat="45.724474461749196" lon="6.716754455119371">
        <ele>2486.1100000000001</ele>
        <time>2014-07-18T11:19:32Z</time>
      </trkpt>
      <trkpt lat="45.724483095109463" lon="6.71675143763423">
        <ele>2486.5900000000001</ele>
        <time>2014-07-18T11:19:59Z</time>
      </trkpt>
      <trkpt lat="45.724478401243687" lon="6.716748252511025">
        <ele>2486.5900000000001</ele>
        <time>2014-07-18T11:20:28Z</time>
      </trkpt>
      <trkpt lat="45.724478401243687" lon="6.716752778738737">
        <ele>2486.5900000000001</ele>
        <time>2014-07-18T11:20:54Z</time>
      </trkpt>
      <trkpt lat="45.724487956613302" lon="6.716741044074297">
        <ele>2487.0700000000002</ele>
        <time>2014-07-18T11:21:27Z</time>
      </trkpt>
      <trkpt lat="45.724493991583586" lon="6.716742971912026">
        <ele>2487.0700000000002</ele>
        <time>2014-07-18T11:21:52Z</time>
      </trkpt>
      <trkpt lat="45.724504636600614" lon="6.716741714626551">
        <ele>2487.5500000000002</ele>
        <time>2014-07-18T11:22:29Z</time>
      </trkpt>
      <trkpt lat="45.724483178928494" lon="6.71676266938448">
        <ele>2488.0300000000002</ele>
        <time>2014-07-18T11:23:03Z</time>
      </trkpt>
      <trkpt lat="45.724482173100114" lon="6.716762417927384">
        <ele>2488.5100000000002</ele>
        <time>2014-07-18T11:23:31Z</time>
      </trkpt>
      <trkpt lat="45.72448049671948" lon="6.716767782345414">
        <ele>2488.5100000000002</ele>
        <time>2014-07-18T11:24:01Z</time>
      </trkpt>
      <trkpt lat="45.724476892501116" lon="6.716757975518704">
        <ele>2488.9899999999998</ele>
        <time>2014-07-18T11:24:40Z</time>
      </trkpt>
      <trkpt lat="45.724484855309129" lon="6.71673777513206">
        <ele>2488.9899999999998</ele>
        <time>2014-07-18T11:25:06Z</time>
      </trkpt>
      <trkpt lat="45.724477227777243" lon="6.716739200055599">
        <ele>2488.9899999999998</ele>
        <time>2014-07-18T11:25:37Z</time>
      </trkpt>
      <trkpt lat="45.724483346566558" lon="6.716750264167786">
        <ele>2489.4699999999998</ele>
        <time>2014-07-18T11:26:05Z</time>
      </trkpt>
      <trkpt lat="45.724482424557209" lon="6.716742720454931">
        <ele>2489.4699999999998</ele>
        <time>2014-07-18T11:26:37Z</time>
      </trkpt>
      <trkpt lat="45.724483849480748" lon="6.716776918619871">
        <ele>2489.9499999999998</ele>
        <time>2014-07-18T11:26:54Z</time>
      </trkpt>
      <trkpt lat="45.724480077624321" lon="6.716790832579136">
        <ele>2490.9099999999999</ele>
        <time>2014-07-18T11:27:11Z</time>
      </trkpt>
      <trkpt lat="45.724460715427995" lon="6.716775745153427">
        <ele>2489.9499999999998</ele>
        <time>2014-07-18T11:27:33Z</time>
      </trkpt>
      <trkpt lat="45.724461721256375" lon="6.716758059337735">
        <ele>2490.4299999999998</ele>
        <time>2014-07-18T11:28:01Z</time>
      </trkpt>
      <trkpt lat="45.724452920258045" lon="6.71676317229867">
        <ele>2490.9099999999999</ele>
        <time>2014-07-18T11:28:15Z</time>
      </trkpt>
      <trkpt lat="45.724474294111133" lon="6.716797454282641">
        <ele>2491.3899999999999</ele>
        <time>2014-07-18T11:28:25Z</time>
      </trkpt>
      <trkpt lat="45.724483598023653" lon="6.71678664162755">
        <ele>2490.9099999999999</ele>
        <time>2014-07-18T11:28:44Z</time>
      </trkpt>
      <trkpt lat="45.724480664357543" lon="6.716797286644578">
        <ele>2490.9099999999999</ele>
        <time>2014-07-18T11:29:04Z</time>
      </trkpt>
      <trkpt lat="45.724472114816308" lon="6.716770296916366">
        <ele>2490.9099999999999</ele>
        <time>2014-07-18T11:29:33Z</time>
      </trkpt>
      <trkpt lat="45.724480245262384" lon="6.716791838407517">
        <ele>2491.8699999999999</ele>
        <time>2014-07-18T11:29:55Z</time>
      </trkpt>
      <trkpt lat="45.724531123414636" lon="6.71681497246027">
        <ele>2491.8699999999999</ele>
        <time>2014-07-18T11:30:13Z</time>
      </trkpt>
      <trkpt lat="45.724548893049359" lon="6.716872388496995">
        <ele>2492.3600000000001</ele>
        <time>2014-07-18T11:30:29Z</time>
      </trkpt>
      <trkpt lat="45.72455626912415" lon="6.716905497014523">
        <ele>2491.3899999999999</ele>
        <time>2014-07-18T11:30:54Z</time>
      </trkpt>
      <trkpt lat="45.724557191133499" lon="6.716938186436892">
        <ele>2492.8400000000001</ele>
        <time>2014-07-18T11:31:15Z</time>
      </trkpt>
      <trkpt lat="45.724593820050359" lon="6.717068022117019">
        <ele>2493.3200000000002</ele>
        <time>2014-07-18T11:31:31Z</time>
      </trkpt>
      <trkpt lat="45.724605973809958" lon="6.717126360163093">
        <ele>2494.7600000000002</ele>
        <time>2014-07-18T11:31:39Z</time>
      </trkpt>
      <trkpt lat="45.724651822820306" lon="6.717265248298645">
        <ele>2496.6799999999998</ele>
        <time>2014-07-18T11:31:52Z</time>
      </trkpt>
      <trkpt lat="45.724661378189921" lon="6.717456439509988">
        <ele>2498.1199999999999</ele>
        <time>2014-07-18T11:32:07Z</time>
      </trkpt>
      <trkpt lat="45.724748885259032" lon="6.717577055096626">
        <ele>2499.0799999999999</ele>
        <time>2014-07-18T11:32:23Z</time>
      </trkpt>
      <trkpt lat="45.724854161962867" lon="6.71765492297709">
        <ele>2501.4899999999998</ele>
        <time>2014-07-18T11:32:38Z</time>
      </trkpt>
      <trkpt lat="45.724963042885065" lon="6.71780152246356">
        <ele>2503.4099999999999</ele>
        <time>2014-07-18T11:32:58Z</time>
      </trkpt>
      <trkpt lat="45.724971843883395" lon="6.717904787510634">
        <ele>2505.8099999999999</ele>
        <time>2014-07-18T11:33:11Z</time>
      </trkpt>
      <trkpt lat="45.724962623789907" lon="6.718037221580744">
        <ele>2508.2199999999998</ele>
        <time>2014-07-18T11:33:26Z</time>
      </trkpt>
      <trkpt lat="45.724990284070373" lon="6.71810788102448">
        <ele>2509.1799999999998</ele>
        <time>2014-07-18T11:33:34Z</time>
      </trkpt>
      <trkpt lat="45.725089944899082" lon="6.718204189091921">
        <ele>2509.6599999999999</ele>
        <time>2014-07-18T11:33:49Z</time>
      </trkpt>
      <trkpt lat="45.725161945447326" lon="6.718271914869547">
        <ele>2512.0599999999999</ele>
        <time>2014-07-18T11:34:05Z</time>
      </trkpt>
      <trkpt lat="45.725233778357506" lon="6.718327822163701">
        <ele>2514.4699999999998</ele>
        <time>2014-07-18T11:34:18Z</time>
      </trkpt>
      <trkpt lat="45.725320782512426" lon="6.718361098319292">
        <ele>2516.8699999999999</ele>
        <time>2014-07-18T11:34:32Z</time>
      </trkpt>
      <trkpt lat="45.72538984939456" lon="6.718427902087569">
        <ele>2517.8299999999999</ele>
        <time>2014-07-18T11:34:44Z</time>
      </trkpt>
      <trkpt lat="45.725465873256326" lon="6.718510799109936">
        <ele>2519.75</ele>
        <time>2014-07-18T11:34:57Z</time>
      </trkpt>
      <trkpt lat="45.725479954853654" lon="6.7185921035707">
        <ele>2520.71</ele>
        <time>2014-07-18T11:35:08Z</time>
      </trkpt>
      <trkpt lat="45.725492192432284" lon="6.718628983944655">
        <ele>2521.1900000000001</ele>
        <time>2014-07-18T11:35:23Z</time>
      </trkpt>
      <trkpt lat="45.725515075027943" lon="6.718666115775704">
        <ele>2521.1900000000001</ele>
        <time>2014-07-18T11:35:26Z</time>
      </trkpt>
      <trkpt lat="45.725654130801558" lon="6.718792850151658">
        <ele>2521.1900000000001</ele>
        <time>2014-07-18T11:35:42Z</time>
      </trkpt>
      <trkpt lat="45.725766364485025" lon="6.718813804909587">
        <ele>2523.5999999999999</ele>
        <time>2014-07-18T11:35:58Z</time>
      </trkpt>
      <trkpt lat="45.725859655067325" lon="6.718816654756665">
        <ele>2526.48</ele>
        <time>2014-07-18T11:36:15Z</time>
      </trkpt>
      <trkpt lat="45.725891254842281" lon="6.718859318643808">
        <ele>2527.9200000000001</ele>
        <time>2014-07-18T11:36:30Z</time>
      </trkpt>
      <trkpt lat="45.72594104334712" lon="6.718839704990387">
        <ele>2528.8899999999999</ele>
        <time>2014-07-18T11:36:45Z</time>
      </trkpt>
      <trkpt lat="45.72595520876348" lon="6.718808440491557">
        <ele>2528.8899999999999</ele>
        <time>2014-07-18T11:36:52Z</time>
      </trkpt>
      <trkpt lat="45.726023018360138" lon="6.71877633780241">
        <ele>2530.8099999999999</ele>
        <time>2014-07-18T11:37:07Z</time>
      </trkpt>
      <trkpt lat="45.726074650883675" lon="6.718754544854164">
        <ele>2533.21</ele>
        <time>2014-07-18T11:37:21Z</time>
      </trkpt>
      <trkpt lat="45.726159811019897" lon="6.718749348074198">
        <ele>2536.0999999999999</ele>
        <time>2014-07-18T11:37:38Z</time>
      </trkpt>
      <trkpt lat="45.726218316704035" lon="6.718775583431125">
        <ele>2538.98</ele>
        <time>2014-07-18T11:37:52Z</time>
      </trkpt>
      <trkpt lat="45.726281264796853" lon="6.718811374157667">
        <ele>2540.4200000000001</ele>
        <time>2014-07-18T11:38:05Z</time>
      </trkpt>
      <trkpt lat="45.726380925625563" lon="6.718836268410087">
        <ele>2543.3099999999999</ele>
        <time>2014-07-18T11:38:20Z</time>
      </trkpt>
      <trkpt lat="45.726480502635241" lon="6.71886719763279">
        <ele>2543.79</ele>
        <time>2014-07-18T11:38:34Z</time>
      </trkpt>
      <trkpt lat="45.726575888693333" lon="6.71888723038137">
        <ele>2545.23</ele>
        <time>2014-07-18T11:38:46Z</time>
      </trkpt>
      <trkpt lat="45.726597094908357" lon="6.718943892046809">
        <ele>2546.1900000000001</ele>
        <time>2014-07-18T11:38:53Z</time>
      </trkpt>
      <trkpt lat="45.726679572835565" lon="6.719153355807066">
        <ele>2547.1500000000001</ele>
        <time>2014-07-18T11:39:11Z</time>
      </trkpt>
      <trkpt lat="45.726736653596163" lon="6.719264499843121">
        <ele>2548.5900000000001</ele>
        <time>2014-07-18T11:39:25Z</time>
      </trkpt>
      <trkpt lat="45.726747047156096" lon="6.719291238114238">
        <ele>2548.5900000000001</ele>
        <time>2014-07-18T11:39:27Z</time>
      </trkpt>
      <trkpt lat="45.72686456143856" lon="6.719468683004379">
        <ele>2550.5100000000002</ele>
        <time>2014-07-18T11:39:43Z</time>
      </trkpt>
      <trkpt lat="45.726956427097321" lon="6.71955811791122">
        <ele>2553.8800000000001</ele>
        <time>2014-07-18T11:39:58Z</time>
      </trkpt>
      <trkpt lat="45.727059859782457" lon="6.719722570851445">
        <ele>2555.3200000000002</ele>
        <time>2014-07-18T11:40:14Z</time>
      </trkpt>
      <trkpt lat="45.727151306346059" lon="6.719837905839086">
        <ele>2557.73</ele>
        <time>2014-07-18T11:40:29Z</time>
      </trkpt>
      <trkpt lat="45.727151054888964" lon="6.719869840890169">
        <ele>2558.21</ele>
        <time>2014-07-18T11:40:31Z</time>
      </trkpt>
      <trkpt lat="45.727030104026198" lon="6.72003697603941">
        <ele>2557.73</ele>
        <time>2014-07-18T11:40:47Z</time>
      </trkpt>
      <trkpt lat="45.726968916133046" lon="6.720173517242074">
        <ele>2560.1300000000001</ele>
        <time>2014-07-18T11:41:02Z</time>
      </trkpt>
      <trkpt lat="45.726953744888306" lon="6.720329755917192">
        <ele>2563.0100000000002</ele>
        <time>2014-07-18T11:41:17Z</time>
      </trkpt>
      <trkpt lat="45.726950392127037" lon="6.720352806150913">
        <ele>2563.0100000000002</ele>
        <time>2014-07-18T11:41:19Z</time>
      </trkpt>
      <trkpt lat="45.72696422226727" lon="6.720528909936547">
        <ele>2564.4499999999998</ele>
        <time>2014-07-18T11:41:35Z</time>
      </trkpt>
      <trkpt lat="45.726996408775449" lon="6.720640137791634">
        <ele>2566.8600000000001</ele>
        <time>2014-07-18T11:41:48Z</time>
      </trkpt>
      <trkpt lat="45.727080730721354" lon="6.720735691487789">
        <ele>2569.7399999999998</ele>
        <time>2014-07-18T11:42:05Z</time>
      </trkpt>
      <trkpt lat="45.727137560024858" lon="6.720844404771924">
        <ele>2573.1100000000001</ele>
        <time>2014-07-18T11:42:23Z</time>
      </trkpt>
      <trkpt lat="45.727210398763418" lon="6.720908274874091">
        <ele>2575.5100000000002</ele>
        <time>2014-07-18T11:42:37Z</time>
      </trkpt>
      <trkpt lat="45.727311316877604" lon="6.720966026186943">
        <ele>2576.9499999999998</ele>
        <time>2014-07-18T11:42:51Z</time>
      </trkpt>
      <trkpt lat="45.727345682680607" lon="6.721024699509144">
        <ele>2577.4299999999998</ele>
        <time>2014-07-18T11:42:57Z</time>
      </trkpt>
      <trkpt lat="45.727463196963072" lon="6.721145315095782">
        <ele>2577.9099999999999</ele>
        <time>2014-07-18T11:43:11Z</time>
      </trkpt>
      <trkpt lat="45.72753494605422" lon="6.721222680062056">
        <ele>2579.3499999999999</ele>
        <time>2014-07-18T11:43:23Z</time>
      </trkpt>
      <trkpt lat="45.72757501155138" lon="6.721190745010972">
        <ele>2579.8400000000001</ele>
        <time>2014-07-18T11:43:38Z</time>
      </trkpt>
      <trkpt lat="45.727562690153718" lon="6.72126199118793">
        <ele>2579.8400000000001</ele>
        <time>2014-07-18T11:43:54Z</time>
      </trkpt>
      <trkpt lat="45.727562103420496" lon="6.721265176311135">
        <ele>2580.3200000000002</ele>
        <time>2014-07-18T11:43:55Z</time>
      </trkpt>
      <trkpt lat="45.727571994066238" lon="6.721278335899115">
        <ele>2580.8000000000002</ele>
        <time>2014-07-18T11:43:57Z</time>
      </trkpt>
      <trkpt lat="45.727635445073247" lon="6.721324101090431">
        <ele>2581.7600000000002</ele>
        <time>2014-07-18T11:44:06Z</time>
      </trkpt>
      <trkpt lat="45.727707613259554" lon="6.721422169357538">
        <ele>2582.7199999999998</ele>
        <time>2014-07-18T11:44:18Z</time>
      </trkpt>
      <trkpt lat="45.727734100073576" lon="6.721410267055035">
        <ele>2583.1999999999998</ele>
        <time>2014-07-18T11:44:24Z</time>
      </trkpt>
      <trkpt lat="45.727884052321315" lon="6.721360646188259">
        <ele>2583.6799999999998</ele>
        <time>2014-07-18T11:44:39Z</time>
      </trkpt>
      <trkpt lat="45.727999219670892" lon="6.721431640908122">
        <ele>2586.0799999999999</ele>
        <time>2014-07-18T11:44:55Z</time>
      </trkpt>
      <trkpt lat="45.728007853031158" lon="6.721433149650693">
        <ele>2586.0799999999999</ele>
        <time>2014-07-18T11:44:56Z</time>
      </trkpt>
      <trkpt lat="45.728064011782408" lon="6.721472628414631">
        <ele>2588.9699999999998</ele>
        <time>2014-07-18T11:45:09Z</time>
      </trkpt>
      <trkpt lat="45.728075746446848" lon="6.721476232632995">
        <ele>2589.9299999999998</ele>
        <time>2014-07-18T11:45:11Z</time>
      </trkpt>
      <trkpt lat="45.728111118078232" lon="6.721467599272728">
        <ele>2589.9299999999998</ele>
        <time>2014-07-18T11:45:16Z</time>
      </trkpt>
      <trkpt lat="45.728233242407441" lon="6.721480172127485">
        <ele>2591.8499999999999</ele>
        <time>2014-07-18T11:45:31Z</time>
      </trkpt>
      <trkpt lat="45.728258639574051" lon="6.721516884863377">
        <ele>2592.3299999999999</ele>
        <time>2014-07-18T11:45:36Z</time>
      </trkpt>
      <trkpt lat="45.728284874930978" lon="6.721618305891752">
        <ele>2593.77</ele>
        <time>2014-07-18T11:45:46Z</time>
      </trkpt>
      <trkpt lat="45.72836366482079" lon="6.721743615344167">
        <ele>2594.7399999999998</ele>
        <time>2014-07-18T11:46:00Z</time>
      </trkpt>
      <trkpt lat="45.72839786298573" lon="6.721763480454683">
        <ele>2594.7399999999998</ele>
        <time>2014-07-18T11:46:04Z</time>
      </trkpt>
      <trkpt lat="45.72844622656703" lon="6.721763731911779">
        <ele>2595.2199999999998</ele>
        <time>2014-07-18T11:46:17Z</time>
      </trkpt>
      <trkpt lat="45.728541361168027" lon="6.721773874014616">
        <ele>2596.6599999999999</ele>
        <time>2014-07-18T11:46:30Z</time>
      </trkpt>
      <trkpt lat="45.728632807731628" lon="6.721779154613614">
        <ele>2598.5799999999999</ele>
        <time>2014-07-18T11:46:44Z</time>
      </trkpt>
      <trkpt lat="45.728743448853493" lon="6.721766665577889">
        <ele>2600.02</ele>
        <time>2014-07-18T11:47:00Z</time>
      </trkpt>
      <trkpt lat="45.728875547647476" lon="6.721787033602595">
        <ele>2602.4299999999998</ele>
        <time>2014-07-18T11:47:18Z</time>
      </trkpt>
      <trkpt lat="45.729010915383697" lon="6.721822991967201">
        <ele>2603.8699999999999</ele>
        <time>2014-07-18T11:47:35Z</time>
      </trkpt>
      <trkpt lat="45.729115772992373" lon="6.72184587456286">
        <ele>2604.8299999999999</ele>
        <time>2014-07-18T11:47:49Z</time>
      </trkpt>
      <trkpt lat="45.729199340566993" lon="6.721870768815279">
        <ele>2606.27</ele>
        <time>2014-07-18T11:48:02Z</time>
      </trkpt>
      <trkpt lat="45.729292631149292" lon="6.721893148496747">
        <ele>2607.23</ele>
        <time>2014-07-18T11:48:18Z</time>
      </trkpt>
      <trkpt lat="45.729307383298874" lon="6.72191577963531">
        <ele>2607.71</ele>
        <time>2014-07-18T11:48:32Z</time>
      </trkpt>
      <trkpt lat="45.729382736608386" lon="6.721939500421286">
        <ele>2609.1599999999999</ele>
        <time>2014-07-18T11:48:46Z</time>
      </trkpt>
      <trkpt lat="45.729470495134592" lon="6.721966993063688">
        <ele>2610.1199999999999</ele>
        <time>2014-07-18T11:48:58Z</time>
      </trkpt>
      <trkpt lat="45.729575352743268" lon="6.721999766305089">
        <ele>2611.5599999999999</ele>
        <time>2014-07-18T11:49:12Z</time>
      </trkpt>
      <trkpt lat="45.729661183431745" lon="6.722031617537141">
        <ele>2613</ele>
        <time>2014-07-18T11:49:25Z</time>
      </trkpt>
      <trkpt lat="45.729746930301189" lon="6.722069922834635">
        <ele>2614.9200000000001</ele>
        <time>2014-07-18T11:49:39Z</time>
      </trkpt>
      <trkpt lat="45.729821277782321" lon="6.722130859270692">
        <ele>2616.8499999999999</ele>
        <time>2014-07-18T11:49:53Z</time>
      </trkpt>
      <trkpt lat="45.729910293594003" lon="6.722152652218938">
        <ele>2619.25</ele>
        <time>2014-07-18T11:50:13Z</time>
      </trkpt>
      <trkpt lat="45.729965195059776" lon="6.722211828455329">
        <ele>2622.1300000000001</ele>
        <time>2014-07-18T11:50:32Z</time>
      </trkpt>
      <trkpt lat="45.729988664388657" lon="6.722229178994894">
        <ele>2622.6100000000001</ele>
        <time>2014-07-18T11:50:50Z</time>
      </trkpt>
      <trkpt lat="45.730053540319204" lon="6.72227980569005">
        <ele>2624.0599999999999</ele>
        <time>2014-07-18T11:51:06Z</time>
      </trkpt>
      <trkpt lat="45.730130318552256" lon="6.722378293052316">
        <ele>2625.5</ele>
        <time>2014-07-18T11:51:19Z</time>
      </trkpt>
      <trkpt lat="45.730162840336561" lon="6.722468733787537">
        <ele>2626.46</ele>
        <time>2014-07-18T11:51:29Z</time>
      </trkpt>
      <trkpt lat="45.73018966242671" lon="6.722552720457315">
        <ele>2627.4200000000001</ele>
        <time>2014-07-18T11:51:41Z</time>
      </trkpt>
      <trkpt lat="45.730219837278128" lon="6.722641484811902">
        <ele>2628.8600000000001</ele>
        <time>2014-07-18T11:51:54Z</time>
      </trkpt>
      <trkpt lat="45.730253029614687" lon="6.722756316885352">
        <ele>2630.79</ele>
        <time>2014-07-18T11:52:08Z</time>
      </trkpt>
      <trkpt lat="45.730282282456756" lon="6.722847009077668">
        <ele>2632.71</ele>
        <time>2014-07-18T11:52:21Z</time>
      </trkpt>
      <trkpt lat="45.730292508378625" lon="6.722945747897029">
        <ele>2634.6300000000001</ele>
        <time>2014-07-18T11:52:35Z</time>
      </trkpt>
      <trkpt lat="45.730364425107837" lon="6.722984137013555">
        <ele>2636.0700000000002</ele>
        <time>2014-07-18T11:52:49Z</time>
      </trkpt>
      <trkpt lat="45.730436258018017" lon="6.72303426079452">
        <ele>2637.9899999999998</ele>
        <time>2014-07-18T11:53:02Z</time>
      </trkpt>
      <trkpt lat="45.730500966310501" lon="6.723090754821897">
        <ele>2639.4400000000001</ele>
        <time>2014-07-18T11:53:15Z</time>
      </trkpt>
      <trkpt lat="45.730569111183286" lon="6.723147919401527">
        <ele>2640.8800000000001</ele>
        <time>2014-07-18T11:53:30Z</time>
      </trkpt>
      <trkpt lat="45.73064454831183" lon="6.723186727613211">
        <ele>2642.3200000000002</ele>
        <time>2014-07-18T11:53:43Z</time>
      </trkpt>
      <trkpt lat="45.73075351305306" lon="6.723233163356781">
        <ele>2644.2399999999998</ele>
        <time>2014-07-18T11:54:01Z</time>
      </trkpt>
      <trkpt lat="45.730828950181603" lon="6.723273061215878">
        <ele>2646.1700000000001</ele>
        <time>2014-07-18T11:54:16Z</time>
      </trkpt>
      <trkpt lat="45.730900783091784" lon="6.723294351249933">
        <ele>2648.0900000000001</ele>
        <time>2014-07-18T11:54:30Z</time>
      </trkpt>
      <trkpt lat="45.730947470292449" lon="6.723310193046928">
        <ele>2650.0100000000002</ele>
        <time>2014-07-18T11:54:39Z</time>
      </trkpt>
      <trkpt lat="45.731036234647036" lon="6.72330348752439">
        <ele>2650.9699999999998</ele>
        <time>2014-07-18T11:54:55Z</time>
      </trkpt>
      <trkpt lat="45.731070851907134" lon="6.723370291292667">
        <ele>2652.4200000000001</ele>
        <time>2014-07-18T11:55:10Z</time>
      </trkpt>
      <trkpt lat="45.731106558814645" lon="6.723416224122047">
        <ele>2654.3400000000001</ele>
        <time>2014-07-18T11:55:32Z</time>
      </trkpt>
      <trkpt lat="45.731160873547196" lon="6.723476238548756">
        <ele>2656.7399999999998</ele>
        <time>2014-07-18T11:55:45Z</time>
      </trkpt>
      <trkpt lat="45.731200687587261" lon="6.723506581038237">
        <ele>2658.6599999999999</ele>
        <time>2014-07-18T11:55:59Z</time>
      </trkpt>
      <trkpt lat="45.731207560747862" lon="6.72352435067296">
        <ele>2658.6599999999999</ele>
        <time>2014-07-18T11:56:14Z</time>
      </trkpt>
      <trkpt lat="45.731246704235673" lon="6.723583107814193">
        <ele>2660.5900000000001</ele>
        <time>2014-07-18T11:56:25Z</time>
      </trkpt>
      <trkpt lat="45.731282997876406" lon="6.723655862733722">
        <ele>2662.5100000000002</ele>
        <time>2014-07-18T11:56:39Z</time>
      </trkpt>
      <trkpt lat="45.731286266818643" lon="6.72367044724524">
        <ele>2662.9899999999998</ele>
        <time>2014-07-18T11:56:53Z</time>
      </trkpt>
      <trkpt lat="45.731280902400613" lon="6.723675979301333">
        <ele>2662.9899999999998</ele>
        <time>2014-07-18T11:57:12Z</time>
      </trkpt>
      <trkpt lat="45.731309484690428" lon="6.723729036748409">
        <ele>2664.4299999999998</ele>
        <time>2014-07-18T11:57:25Z</time>
      </trkpt>
      <trkpt lat="45.731339072808623" lon="6.723764995113015">
        <ele>2665.8699999999999</ele>
        <time>2014-07-18T11:57:39Z</time>
      </trkpt>
      <trkpt lat="45.731310239061713" lon="6.723734317347407">
        <ele>2664.9099999999999</ele>
        <time>2014-07-18T11:57:52Z</time>
      </trkpt>
      <trkpt lat="45.731369247660041" lon="6.723773796111345">
        <ele>2666.8299999999999</ele>
        <time>2014-07-18T11:58:04Z</time>
      </trkpt>
      <trkpt lat="45.731404954567552" lon="6.723814532160759">
        <ele>2668.2800000000002</ele>
        <time>2014-07-18T11:58:15Z</time>
      </trkpt>
      <trkpt lat="45.731411743909121" lon="6.723859626799822">
        <ele>2668.2800000000002</ele>
        <time>2014-07-18T11:58:30Z</time>
      </trkpt>
      <trkpt lat="45.731424987316132" lon="6.723884353414178">
        <ele>2668.2800000000002</ele>
        <time>2014-07-18T11:58:44Z</time>
      </trkpt>
      <trkpt lat="45.731416353955865" lon="6.723897680640221">
        <ele>2668.2800000000002</ele>
        <time>2014-07-18T11:59:03Z</time>
      </trkpt>
      <trkpt lat="45.731429178267717" lon="6.723895333707333">
        <ele>2668.7600000000002</ele>
        <time>2014-07-18T11:59:20Z</time>
      </trkpt>
      <trkpt lat="45.731381569057703" lon="6.723840264603496">
        <ele>2668.2800000000002</ele>
        <time>2014-07-18T11:59:35Z</time>
      </trkpt>
      <trkpt lat="45.731383245438337" lon="6.723840683698654">
        <ele>2669.2399999999998</ele>
        <time>2014-07-18T11:59:52Z</time>
      </trkpt>
      <trkpt lat="45.731379054486752" lon="6.723831798881292">
        <ele>2669.2399999999998</ele>
        <time>2014-07-18T12:00:11Z</time>
      </trkpt>
      <trkpt lat="45.731383329257369" lon="6.723840432241559">
        <ele>2669.2399999999998</ele>
        <time>2014-07-18T12:00:34Z</time>
      </trkpt>
      <trkpt lat="45.731363967061043" lon="6.723836660385132">
        <ele>2669.7199999999998</ele>
        <time>2014-07-18T12:00:54Z</time>
      </trkpt>
      <trkpt lat="45.731343515217304" lon="6.723791314288974">
        <ele>2668.2800000000002</ele>
        <time>2014-07-18T12:01:11Z</time>
      </trkpt>
      <trkpt lat="45.731348041445017" lon="6.723790727555752">
        <ele>2668.7600000000002</ele>
        <time>2014-07-18T12:01:28Z</time>
      </trkpt>
      <trkpt lat="45.731356926262379" lon="6.723804473876953">
        <ele>2669.2399999999998</ele>
        <time>2014-07-18T12:01:46Z</time>
      </trkpt>
      <trkpt lat="45.731392800807953" lon="6.723886867985129">
        <ele>2669.2399999999998</ele>
        <time>2014-07-18T12:01:56Z</time>
      </trkpt>
      <trkpt lat="45.731332702562213" lon="6.723954426124692">
        <ele>2668.2800000000002</ele>
        <time>2014-07-18T12:02:04Z</time>
      </trkpt>
      <trkpt lat="45.731297666206956" lon="6.723921736702323">
        <ele>2667.8000000000002</ele>
        <time>2014-07-18T12:02:14Z</time>
      </trkpt>
      <trkpt lat="45.731284590438008" lon="6.723922826349735">
        <ele>2667.8000000000002</ele>
        <time>2014-07-18T12:02:30Z</time>
      </trkpt>
      <trkpt lat="45.731282997876406" lon="6.723937829956412">
        <ele>2667.8000000000002</ele>
        <time>2014-07-18T12:03:00Z</time>
      </trkpt>
      <trkpt lat="45.731272269040346" lon="6.723924838006496">
        <ele>2668.2800000000002</ele>
        <time>2014-07-18T12:03:39Z</time>
      </trkpt>
      <trkpt lat="45.731278052553535" lon="6.723901201039553">
        <ele>2667.8000000000002</ele>
        <time>2014-07-18T12:03:56Z</time>
      </trkpt>
      <trkpt lat="45.731340078637004" lon="6.723982086405158">
        <ele>2667.8000000000002</ele>
        <time>2014-07-18T12:04:07Z</time>
      </trkpt>
      <trkpt lat="45.731331864371896" lon="6.72392601147294">
        <ele>2668.7600000000002</ele>
        <time>2014-07-18T12:04:21Z</time>
      </trkpt>
      <trkpt lat="45.731364553794265" lon="6.723883766680956">
        <ele>2669.7199999999998</ele>
        <time>2014-07-18T12:04:33Z</time>
      </trkpt>
      <trkpt lat="45.731329685077071" lon="6.723889634013176">
        <ele>2669.7199999999998</ele>
        <time>2014-07-18T12:04:54Z</time>
      </trkpt>
      <trkpt lat="45.731353489682078" lon="6.723863985389471">
        <ele>2668.7600000000002</ele>
        <time>2014-07-18T12:05:21Z</time>
      </trkpt>
      <trkpt lat="45.731352400034666" lon="6.723963394761086">
        <ele>2669.2399999999998</ele>
        <time>2014-07-18T12:05:34Z</time>
      </trkpt>
      <trkpt lat="45.731349466368556" lon="6.723974039778113">
        <ele>2669.7199999999998</ele>
        <time>2014-07-18T12:05:35Z</time>
      </trkpt>
      <trkpt lat="45.731343012303114" lon="6.724003963172436">
        <ele>2668.7600000000002</ele>
        <time>2014-07-18T12:05:37Z</time>
      </trkpt>
      <trkpt lat="45.731328008696437" lon="6.724025588482618">
        <ele>2668.7600000000002</ele>
        <time>2014-07-18T12:05:39Z</time>
      </trkpt>
      <trkpt lat="45.731301018968225" lon="6.724044783040881">
        <ele>2667.3099999999999</ele>
        <time>2014-07-18T12:05:55Z</time>
      </trkpt>
      <trkpt lat="45.731301940977573" lon="6.724064312875271">
        <ele>2667.3099999999999</ele>
        <time>2014-07-18T12:05:58Z</time>
      </trkpt>
      <trkpt lat="45.731306886300445" lon="6.724183084443212">
        <ele>2665.3899999999999</ele>
        <time>2014-07-18T12:06:06Z</time>
      </trkpt>
      <trkpt lat="45.731266066431999" lon="6.724366145208478">
        <ele>2662.0300000000002</ele>
        <time>2014-07-18T12:06:19Z</time>
      </trkpt>
      <trkpt lat="45.731238992884755" lon="6.724570244550705">
        <ele>2658.6599999999999</ele>
        <time>2014-07-18T12:06:33Z</time>
      </trkpt>
      <trkpt lat="45.731187025085092" lon="6.724707121029496">
        <ele>2656.2600000000002</ele>
        <time>2014-07-18T12:06:45Z</time>
      </trkpt>
      <trkpt lat="45.731176799163222" lon="6.724681137129664">
        <ele>2656.7399999999998</ele>
        <time>2014-07-18T12:06:59Z</time>
      </trkpt>
      <trkpt lat="45.731180738657713" lon="6.724699744954705">
        <ele>2656.7399999999998</ele>
        <time>2014-07-18T12:07:21Z</time>
      </trkpt>
      <trkpt lat="45.731177553534508" lon="6.724708378314972">
        <ele>2656.2600000000002</ele>
        <time>2014-07-18T12:07:22Z</time>
      </trkpt>
      <trkpt lat="45.731157856062055" lon="6.724681053310633">
        <ele>2655.7800000000002</ele>
        <time>2014-07-18T12:07:36Z</time>
      </trkpt>
      <trkpt lat="45.731193730607629" lon="6.724730087444186">
        <ele>2656.7399999999998</ele>
        <time>2014-07-18T12:08:05Z</time>
      </trkpt>
      <trkpt lat="45.731160035356879" lon="6.724732015281916">
        <ele>2655.7800000000002</ele>
        <time>2014-07-18T12:08:20Z</time>
      </trkpt>
      <trkpt lat="45.731161711737514" lon="6.7247483599931">
        <ele>2656.2600000000002</ele>
        <time>2014-07-18T12:08:42Z</time>
      </trkpt>
      <trkpt lat="45.731157688423991" lon="6.724726483225822">
        <ele>2656.7399999999998</ele>
        <time>2014-07-18T12:09:07Z</time>
      </trkpt>
      <trkpt lat="45.731121227145195" lon="6.724716257303953">
        <ele>2656.7399999999998</ele>
        <time>2014-07-18T12:09:39Z</time>
      </trkpt>
      <trkpt lat="45.731158861890435" lon="6.724716424942017">
        <ele>2656.7399999999998</ele>
        <time>2014-07-18T12:09:55Z</time>
      </trkpt>
      <trkpt lat="45.731178391724825" lon="6.724717430770397">
        <ele>2657.6999999999998</ele>
        <time>2014-07-18T12:10:27Z</time>
      </trkpt>
      <trkpt lat="45.731220385059714" lon="6.724678035825491">
        <ele>2656.7399999999998</ele>
        <time>2014-07-18T12:10:57Z</time>
      </trkpt>
      <trkpt lat="45.731173949316144" lon="6.724624056369066">
        <ele>2657.2199999999998</ele>
        <time>2014-07-18T12:11:22Z</time>
      </trkpt>
      <trkpt lat="45.731207141652703" lon="6.724641909822822">
        <ele>2657.2199999999998</ele>
        <time>2014-07-18T12:11:52Z</time>
      </trkpt>
      <trkpt lat="45.731226420029998" lon="6.724668396636844">
        <ele>2657.2199999999998</ele>
        <time>2014-07-18T12:12:25Z</time>
      </trkpt>
      <trkpt lat="45.731212086975574" lon="6.724647609516978">
        <ele>2658.1799999999998</ele>
        <time>2014-07-18T12:13:00Z</time>
      </trkpt>
      <trkpt lat="45.731228934600949" lon="6.724620284512639">
        <ele>2658.6599999999999</ele>
        <time>2014-07-18T12:13:30Z</time>
      </trkpt>
      <trkpt lat="45.731084430590272" lon="6.724589187651873">
        <ele>2657.6999999999998</ele>
        <time>2014-07-18T12:14:00Z</time>
      </trkpt>
      <trkpt lat="45.730901537463069" lon="6.724594300612807">
        <ele>2658.1799999999998</ele>
        <time>2014-07-18T12:14:20Z</time>
      </trkpt>
      <trkpt lat="45.730979740619659" lon="6.724627995863557">
        <ele>2658.1799999999998</ele>
        <time>2014-07-18T12:14:23Z</time>
      </trkpt>
      <trkpt lat="45.731050735339522" lon="6.72462766058743">
        <ele>2659.1399999999999</ele>
        <time>2014-07-18T12:14:32Z</time>
      </trkpt>
      <trkpt lat="45.7311468757689" lon="6.724652387201786">
        <ele>2658.6599999999999</ele>
        <time>2014-07-18T12:14:51Z</time>
      </trkpt>
      <trkpt lat="45.731186773627996" lon="6.724723130464554">
        <ele>2659.1399999999999</ele>
        <time>2014-07-18T12:15:02Z</time>
      </trkpt>
      <trkpt lat="45.731177721172571" lon="6.724712736904621">
        <ele>2659.1399999999999</ele>
        <time>2014-07-18T12:15:22Z</time>
      </trkpt>
      <trkpt lat="45.731187779456377" lon="6.724725225940347">
        <ele>2659.1399999999999</ele>
        <time>2014-07-18T12:15:37Z</time>
      </trkpt>
      <trkpt lat="45.731186270713806" lon="6.724738469347358">
        <ele>2659.1399999999999</ele>
        <time>2014-07-18T12:15:59Z</time>
      </trkpt>
      <trkpt lat="45.731191970407963" lon="6.724777361378074">
        <ele>2658.1799999999998</ele>
        <time>2014-07-18T12:16:14Z</time>
      </trkpt>
      <trkpt lat="45.731218121945858" lon="6.72491348348558">
        <ele>2655.3000000000002</ele>
        <time>2014-07-18T12:16:27Z</time>
      </trkpt>
      <trkpt lat="45.731179900467396" lon="6.72496578656137">
        <ele>2653.8600000000001</ele>
        <time>2014-07-18T12:16:32Z</time>
      </trkpt>
      <trkpt lat="45.731130782514811" lon="6.725027980282903">
        <ele>2652.9000000000001</ele>
        <time>2014-07-18T12:16:46Z</time>
      </trkpt>
      <trkpt lat="45.731099937111139" lon="6.725022029131651">
        <ele>2652.4200000000001</ele>
        <time>2014-07-18T12:17:04Z</time>
      </trkpt>
      <trkpt lat="45.731105636805296" lon="6.7250522878021">
        <ele>2652.9000000000001</ele>
        <time>2014-07-18T12:17:23Z</time>
      </trkpt>
      <trkpt lat="45.731070851907134" lon="6.725162593647838">
        <ele>2649.5300000000002</ele>
        <time>2014-07-18T12:17:32Z</time>
      </trkpt>
      <trkpt lat="45.7310760486871" lon="6.725189248099923">
        <ele>2649.0500000000002</ele>
        <time>2014-07-18T12:17:34Z</time>
      </trkpt>
      <trkpt lat="45.731070935726166" lon="6.725283041596413">
        <ele>2646.1700000000001</ele>
        <time>2014-07-18T12:17:43Z</time>
      </trkpt>
      <trkpt lat="45.731047466397285" lon="6.725335847586393">
        <ele>2644.2399999999998</ele>
        <time>2014-07-18T12:17:48Z</time>
      </trkpt>
      <trkpt lat="45.73103254660964" lon="6.725443471223116">
        <ele>2640.8800000000001</ele>
        <time>2014-07-18T12:17:57Z</time>
      </trkpt>
      <trkpt lat="45.730951493605971" lon="6.725541120395064">
        <ele>2637.9899999999998</ele>
        <time>2014-07-18T12:18:09Z</time>
      </trkpt>
      <trkpt lat="45.730944620445371" lon="6.725551933050156">
        <ele>2637.5100000000002</ele>
        <time>2014-07-18T12:18:11Z</time>
      </trkpt>
      <trkpt lat="45.730909332633018" lon="6.725646900013089">
        <ele>2635.5900000000001</ele>
        <time>2014-07-18T12:18:19Z</time>
      </trkpt>
      <trkpt lat="45.730908997356892" lon="6.725674979388714">
        <ele>2635.1100000000001</ele>
        <time>2014-07-18T12:18:21Z</time>
      </trkpt>
      <trkpt lat="45.730889635160565" lon="6.725732143968344">
        <ele>2633.1900000000001</ele>
        <time>2014-07-18T12:18:26Z</time>
      </trkpt>
      <trkpt lat="45.730868428945541" lon="6.725819986313582">
        <ele>2630.79</ele>
        <time>2014-07-18T12:18:34Z</time>
      </trkpt>
      <trkpt lat="45.730885528028011" lon="6.725840857252479">
        <ele>2629.8200000000002</ele>
        <time>2014-07-18T12:18:36Z</time>
      </trkpt>
      <trkpt lat="45.730823669582605" lon="6.725938925519586">
        <ele>2626.9400000000001</ele>
        <time>2014-07-18T12:18:46Z</time>
      </trkpt>
      <trkpt lat="45.730786118656397" lon="6.726047554984689">
        <ele>2623.5799999999999</ele>
        <time>2014-07-18T12:18:57Z</time>
      </trkpt>
      <trkpt lat="45.730802631005645" lon="6.726071778684855">
        <ele>2623.0900000000001</ele>
        <time>2014-07-18T12:18:59Z</time>
      </trkpt>
      <trkpt lat="45.730846216902137" lon="6.726182252168655">
        <ele>2619.25</ele>
        <time>2014-07-18T12:19:09Z</time>
      </trkpt>
      <trkpt lat="45.730860885232687" lon="6.726224580779672">
        <ele>2618.29</ele>
        <time>2014-07-18T12:19:12Z</time>
      </trkpt>
      <trkpt lat="45.730873458087444" lon="6.726241931319237">
        <ele>2616.8499999999999</ele>
        <time>2014-07-18T12:19:15Z</time>
      </trkpt>
      <trkpt lat="45.730816796422005" lon="6.726338155567646">
        <ele>2613.96</ele>
        <time>2014-07-18T12:19:25Z</time>
      </trkpt>
      <trkpt lat="45.730818472802639" lon="6.726375622674823">
        <ele>2613</ele>
        <time>2014-07-18T12:19:28Z</time>
      </trkpt>
      <trkpt lat="45.730842361226678" lon="6.726416694000363">
        <ele>2612.04</ele>
        <time>2014-07-18T12:19:31Z</time>
      </trkpt>
      <trkpt lat="45.730865830555558" lon="6.726441755890846">
        <ele>2611.0799999999999</ele>
        <time>2014-07-18T12:19:42Z</time>
      </trkpt>
      <trkpt lat="45.730834314599633" lon="6.726510906592012">
        <ele>2608.6700000000001</ele>
        <time>2014-07-18T12:19:48Z</time>
      </trkpt>
      <trkpt lat="45.730855939909816" lon="6.726550301536918">
        <ele>2607.23</ele>
        <time>2014-07-18T12:19:51Z</time>
      </trkpt>
      <trkpt lat="45.730903632938862" lon="6.726574273779988">
        <ele>2605.79</ele>
        <time>2014-07-18T12:20:07Z</time>
      </trkpt>
      <trkpt lat="45.730912769213319" lon="6.726575363427401">
        <ele>2605.3099999999999</ele>
        <time>2014-07-18T12:20:08Z</time>
      </trkpt>
      <trkpt lat="45.730943363159895" lon="6.726609393954277">
        <ele>2604.3499999999999</ele>
        <time>2014-07-18T12:20:13Z</time>
      </trkpt>
      <trkpt lat="45.730868009850383" lon="6.726754065603018">
        <ele>2600.98</ele>
        <time>2014-07-18T12:20:25Z</time>
      </trkpt>
      <trkpt lat="45.730764577165246" lon="6.726853223517537">
        <ele>2598.5799999999999</ele>
        <time>2014-07-18T12:20:39Z</time>
      </trkpt>
      <trkpt lat="45.730700539425015" lon="6.726961098611355">
        <ele>2596.1799999999998</ele>
        <time>2014-07-18T12:20:50Z</time>
      </trkpt>
      <trkpt lat="45.73069391772151" lon="6.726976605132222">
        <ele>2595.6999999999998</ele>
        <time>2014-07-18T12:20:54Z</time>
      </trkpt>
      <trkpt lat="45.7307203207165" lon="6.726992363110185">
        <ele>2595.2199999999998</ele>
        <time>2014-07-18T12:20:57Z</time>
      </trkpt>
      <trkpt lat="45.730767343193293" lon="6.727040559053421">
        <ele>2593.77</ele>
        <time>2014-07-18T12:21:02Z</time>
      </trkpt>
      <trkpt lat="45.730924671515822" lon="6.72703268006444">
        <ele>2590.8899999999999</ele>
        <time>2014-07-18T12:21:15Z</time>
      </trkpt>
      <trkpt lat="45.730961300432682" lon="6.727034607902169">
        <ele>2589.4499999999998</ele>
        <time>2014-07-18T12:21:19Z</time>
      </trkpt>
      <trkpt lat="45.731056435033679" lon="6.727075595408678">
        <ele>2587.04</ele>
        <time>2014-07-18T12:21:27Z</time>
      </trkpt>
      <trkpt lat="45.731019806116819" lon="6.727189170196652">
        <ele>2584.6399999999999</ele>
        <time>2014-07-18T12:21:36Z</time>
      </trkpt>
      <trkpt lat="45.730967586860061" lon="6.727279024198651">
        <ele>2582.2399999999998</ele>
        <time>2014-07-18T12:21:46Z</time>
      </trkpt>
      <trkpt lat="45.73094411753118" lon="6.727391928434372">
        <ele>2579.8400000000001</ele>
        <time>2014-07-18T12:21:53Z</time>
      </trkpt>
      <trkpt lat="45.730919726192951" lon="6.727411039173603">
        <ele>2579.3499999999999</ele>
        <time>2014-07-18T12:21:56Z</time>
      </trkpt>
      <trkpt lat="45.730882678180933" lon="6.727523691952229">
        <ele>2575.5100000000002</ele>
        <time>2014-07-18T12:22:08Z</time>
      </trkpt>
      <trkpt lat="45.730868177488446" lon="6.727544814348221">
        <ele>2575.0300000000002</ele>
        <time>2014-07-18T12:22:10Z</time>
      </trkpt>
      <trkpt lat="45.730847893282771" lon="6.727568367496133">
        <ele>2574.5500000000002</ele>
        <time>2014-07-18T12:22:12Z</time>
      </trkpt>
      <trkpt lat="45.730810258537531" lon="6.727599631994963">
        <ele>2573.1100000000001</ele>
        <time>2014-07-18T12:22:17Z</time>
      </trkpt>
      <trkpt lat="45.730787208303809" lon="6.72764590010047">
        <ele>2572.6300000000001</ele>
        <time>2014-07-18T12:22:21Z</time>
      </trkpt>
      <trkpt lat="45.730703976005316" lon="6.727742124348879">
        <ele>2569.2600000000002</ele>
        <time>2014-07-18T12:22:33Z</time>
      </trkpt>
      <trkpt lat="45.730624180287123" lon="6.727828541770577">
        <ele>2565.9000000000001</ele>
        <time>2014-07-18T12:22:45Z</time>
      </trkpt>
      <trkpt lat="45.730584282428026" lon="6.727852011099458">
        <ele>2564.9299999999998</ele>
        <time>2014-07-18T12:22:49Z</time>
      </trkpt>
      <trkpt lat="45.730496440082788" lon="6.727986456826329">
        <ele>2561.5700000000002</ele>
        <time>2014-07-18T12:23:02Z</time>
      </trkpt>
      <trkpt lat="45.730435587465763" lon="6.72808519564569">
        <ele>2558.21</ele>
        <time>2014-07-18T12:23:12Z</time>
      </trkpt>
      <trkpt lat="45.730426535010338" lon="6.728106737136841">
        <ele>2557.73</ele>
        <time>2014-07-18T12:23:15Z</time>
      </trkpt>
      <trkpt lat="45.730312708765268" lon="6.7281589563936">
        <ele>2554.3600000000001</ele>
        <time>2014-07-18T12:23:27Z</time>
      </trkpt>
      <trkpt lat="45.730249173939228" lon="6.728268507868052">
        <ele>2551</ele>
        <time>2014-07-18T12:23:39Z</time>
      </trkpt>
      <trkpt lat="45.730217155069113" lon="6.728297509253025">
        <ele>2550.0300000000002</ele>
        <time>2014-07-18T12:23:43Z</time>
      </trkpt>
      <trkpt lat="45.730182537809014" lon="6.728311674669385">
        <ele>2548.5900000000001</ele>
        <time>2014-07-18T12:23:47Z</time>
      </trkpt>
      <trkpt lat="45.730127636343241" lon="6.72839691862464">
        <ele>2546.1900000000001</ele>
        <time>2014-07-18T12:23:55Z</time>
      </trkpt>
      <trkpt lat="45.730100143700838" lon="6.728441510349512">
        <ele>2544.75</ele>
        <time>2014-07-18T12:24:04Z</time>
      </trkpt>
      <trkpt lat="45.730085056275129" lon="6.72851761803031">
        <ele>2542.3400000000001</ele>
        <time>2014-07-18T12:24:11Z</time>
      </trkpt>
      <trkpt lat="45.730113135650754" lon="6.72856061719358">
        <ele>2541.8600000000001</ele>
        <time>2014-07-18T12:24:15Z</time>
      </trkpt>
      <trkpt lat="45.730133168399334" lon="6.728597832843661">
        <ele>2540.9000000000001</ele>
        <time>2014-07-18T12:24:18Z</time>
      </trkpt>
      <trkpt lat="45.730068208649755" lon="6.728654662147164">
        <ele>2538.98</ele>
        <time>2014-07-18T12:24:27Z</time>
      </trkpt>
      <trkpt lat="45.73002646677196" lon="6.728705624118447">
        <ele>2537.0599999999999</ele>
        <time>2014-07-18T12:24:34Z</time>
      </trkpt>
      <trkpt lat="45.730006853118539" lon="6.728747030720115">
        <ele>2536.0999999999999</ele>
        <time>2014-07-18T12:24:38Z</time>
      </trkpt>
      <trkpt lat="45.730009702965617" lon="6.728796316310763">
        <ele>2535.1300000000001</ele>
        <time>2014-07-18T12:24:41Z</time>
      </trkpt>
      <trkpt lat="45.729909120127559" lon="6.728865718469024">
        <ele>2531.77</ele>
        <time>2014-07-18T12:24:55Z</time>
      </trkpt>
      <trkpt lat="45.729901660233736" lon="6.728857755661011">
        <ele>2531.77</ele>
        <time>2014-07-18T12:24:56Z</time>
      </trkpt>
      <trkpt lat="45.729866120964289" lon="6.728928834199905">
        <ele>2528.4000000000001</ele>
        <time>2014-07-18T12:25:08Z</time>
      </trkpt>
      <trkpt lat="45.729854553937912" lon="6.728989183902741">
        <ele>2526.48</ele>
        <time>2014-07-18T12:25:15Z</time>
      </trkpt>
      <trkpt lat="45.729854218661785" lon="6.729044001549482">
        <ele>2525.04</ele>
        <time>2014-07-18T12:25:20Z</time>
      </trkpt>
      <trkpt lat="45.729839717969298" lon="6.72909471206367">
        <ele>2523.5999999999999</ele>
        <time>2014-07-18T12:25:24Z</time>
      </trkpt>
      <trkpt lat="45.729841059073806" lon="6.729191690683365">
        <ele>2520.23</ele>
        <time>2014-07-18T12:25:32Z</time>
      </trkpt>
      <trkpt lat="45.729860924184322" lon="6.729233767837286">
        <ele>2518.79</ele>
        <time>2014-07-18T12:25:35Z</time>
      </trkpt>
      <trkpt lat="45.729827061295509" lon="6.729261679574847">
        <ele>2516.3899999999999</ele>
        <time>2014-07-18T12:25:45Z</time>
      </trkpt>
      <trkpt lat="45.729789678007364" lon="6.729270732030273">
        <ele>2515.4299999999998</ele>
        <time>2014-07-18T12:25:49Z</time>
      </trkpt>
      <trkpt lat="45.729729495942593" lon="6.729291770607233">
        <ele>2513.5</ele>
        <time>2014-07-18T12:25:57Z</time>
      </trkpt>
      <trkpt lat="45.729721784591675" lon="6.729308031499386">
        <ele>2513.02</ele>
        <time>2014-07-18T12:25:59Z</time>
      </trkpt>
      <trkpt lat="45.729615418240428" lon="6.729309959337115">
        <ele>2510.1399999999999</ele>
        <time>2014-07-18T12:26:11Z</time>
      </trkpt>
      <trkpt lat="45.729561941698194" lon="6.72933803871274">
        <ele>2508.6999999999998</ele>
        <time>2014-07-18T12:26:17Z</time>
      </trkpt>
      <trkpt lat="45.729537969455123" lon="6.729334183037281">
        <ele>2508.6999999999998</ele>
        <time>2014-07-18T12:26:20Z</time>
      </trkpt>
      <trkpt lat="45.729534700512886" lon="6.729344576597214">
        <ele>2508.2199999999998</ele>
        <time>2014-07-18T12:26:22Z</time>
      </trkpt>
      <trkpt lat="45.729488432407379" lon="6.729425797238946">
        <ele>2504.8499999999999</ele>
        <time>2014-07-18T12:26:32Z</time>
      </trkpt>
      <trkpt lat="45.729396985843778" lon="6.729476256296039">
        <ele>2501.9699999999998</ele>
        <time>2014-07-18T12:26:44Z</time>
      </trkpt>
      <trkpt lat="45.729333451017737" lon="6.729551861062646">
        <ele>2499.0799999999999</ele>
        <time>2014-07-18T12:26:56Z</time>
      </trkpt>
      <trkpt lat="45.729298917576671" lon="6.729589998722076">
        <ele>2497.6399999999999</ele>
        <time>2014-07-18T12:27:02Z</time>
      </trkpt>
      <trkpt lat="45.729231107980013" lon="6.729677841067314">
        <ele>2494.2800000000002</ele>
        <time>2014-07-18T12:27:12Z</time>
      </trkpt>
      <trkpt lat="45.729188024997711" lon="6.729754032567143">
        <ele>2491.3899999999999</ele>
        <time>2014-07-18T12:27:22Z</time>
      </trkpt>
      <trkpt lat="45.729163885116577" lon="6.729780519381166">
        <ele>2490.9099999999999</ele>
        <time>2014-07-18T12:27:25Z</time>
      </trkpt>
      <trkpt lat="45.729130692780018" lon="6.729810191318393">
        <ele>2489.9499999999998</ele>
        <time>2014-07-18T12:27:29Z</time>
      </trkpt>
      <trkpt lat="45.729096243157983" lon="6.72990339808166">
        <ele>2487.5500000000002</ele>
        <time>2014-07-18T12:27:37Z</time>
      </trkpt>
      <trkpt lat="45.729071935638785" lon="6.729957880452275">
        <ele>2486.5900000000001</ele>
        <time>2014-07-18T12:27:42Z</time>
      </trkpt>
      <trkpt lat="45.729089034721255" lon="6.730009093880653">
        <ele>2485.6300000000001</ele>
        <time>2014-07-18T12:27:45Z</time>
      </trkpt>
      <trkpt lat="45.729090794920921" lon="6.730142617598176">
        <ele>2482.2600000000002</ele>
        <time>2014-07-18T12:27:57Z</time>
      </trkpt>
      <trkpt lat="45.729101439937949" lon="6.730127530172467">
        <ele>2482.7399999999998</ele>
        <time>2014-07-18T12:28:09Z</time>
      </trkpt>
      <trkpt lat="45.729097835719585" lon="6.73015745356679">
        <ele>2481.3000000000002</ele>
        <time>2014-07-18T12:28:12Z</time>
      </trkpt>
      <trkpt lat="45.729088112711906" lon="6.730168014764786">
        <ele>2481.3000000000002</ele>
        <time>2014-07-18T12:28:24Z</time>
      </trkpt>
      <trkpt lat="45.729083837941289" lon="6.730199698358774">
        <ele>2480.3400000000001</ele>
        <time>2014-07-18T12:28:38Z</time>
      </trkpt>
      <trkpt lat="45.72905357927084" lon="6.730241104960442">
        <ele>2479.3800000000001</ele>
        <time>2014-07-18T12:28:53Z</time>
      </trkpt>
      <trkpt lat="45.729094231501222" lon="6.730307070538402">
        <ele>2477.4499999999998</ele>
        <time>2014-07-18T12:28:59Z</time>
      </trkpt>
      <trkpt lat="45.729082999750972" lon="6.730400444939733">
        <ele>2475.0500000000002</ele>
        <time>2014-07-18T12:29:09Z</time>
      </trkpt>
      <trkpt lat="45.729067660868168" lon="6.730463057756424">
        <ele>2473.6100000000001</ele>
        <time>2014-07-18T12:29:15Z</time>
      </trkpt>
      <trkpt lat="45.729091884568334" lon="6.730519803240895">
        <ele>2471.6900000000001</ele>
        <time>2014-07-18T12:29:23Z</time>
      </trkpt>
      <trkpt lat="45.729103786870837" lon="6.730543188750744">
        <ele>2470.73</ele>
        <time>2014-07-18T12:29:26Z</time>
      </trkpt>
      <trkpt lat="45.729102194309235" lon="6.730566993355751">
        <ele>2470.2399999999998</ele>
        <time>2014-07-18T12:29:28Z</time>
      </trkpt>
      <trkpt lat="45.729078305885196" lon="6.730621727183461">
        <ele>2468.8000000000002</ele>
        <time>2014-07-18T12:29:33Z</time>
      </trkpt>
      <trkpt lat="45.729016279801726" lon="6.730695571750403">
        <ele>2467.3600000000001</ele>
        <time>2014-07-18T12:29:43Z</time>
      </trkpt>
      <trkpt lat="45.728990798816085" lon="6.730755586177111">
        <ele>2465.9200000000001</ele>
        <time>2014-07-18T12:29:56Z</time>
      </trkpt>
      <trkpt lat="45.729003706946969" lon="6.730814008042216">
        <ele>2464.96</ele>
        <time>2014-07-18T12:30:08Z</time>
      </trkpt>
      <trkpt lat="45.728999264538288" lon="6.730839321389794">
        <ele>2464.96</ele>
        <time>2014-07-18T12:30:11Z</time>
      </trkpt>
      <trkpt lat="45.729004461318254" lon="6.731061609461904">
        <ele>2462.5500000000002</ele>
        <time>2014-07-18T12:30:26Z</time>
      </trkpt>
      <trkpt lat="45.729005634784698" lon="6.731080133467913">
        <ele>2462.5500000000002</ele>
        <time>2014-07-18T12:30:27Z</time>
      </trkpt>
      <trkpt lat="45.729002030566335" lon="6.731115253642201">
        <ele>2462.0700000000002</ele>
        <time>2014-07-18T12:30:41Z</time>
      </trkpt>
      <trkpt lat="45.728952744975686" lon="6.73103554174304">
        <ele>2461.5900000000001</ele>
        <time>2014-07-18T12:31:01Z</time>
      </trkpt>
      <trkpt lat="45.728965485468507" lon="6.731094382703304">
        <ele>2461.5900000000001</ele>
        <time>2014-07-18T12:31:28Z</time>
      </trkpt>
      <trkpt lat="45.728974202647805" lon="6.731129083782435">
        <ele>2460.6300000000001</ele>
        <time>2014-07-18T12:31:43Z</time>
      </trkpt>
      <trkpt lat="45.728974705561996" lon="6.731173843145371">
        <ele>2461.1100000000001</ele>
        <time>2014-07-18T12:32:03Z</time>
      </trkpt>
      <trkpt lat="45.72897981852293" lon="6.731275264173746">
        <ele>2460.1500000000001</ele>
        <time>2014-07-18T12:32:16Z</time>
      </trkpt>
      <trkpt lat="45.728920223191381" lon="6.731376266106963">
        <ele>2457.75</ele>
        <time>2014-07-18T12:32:29Z</time>
      </trkpt>
      <trkpt lat="45.728893987834454" lon="6.731510376557708">
        <ele>2455.3400000000001</ele>
        <time>2014-07-18T12:32:40Z</time>
      </trkpt>
      <trkpt lat="45.728875547647476" lon="6.731585143133998">
        <ele>2454.3800000000001</ele>
        <time>2014-07-18T12:32:46Z</time>
      </trkpt>
      <trkpt lat="45.728863896802068" lon="6.731667285785079">
        <ele>2453.4200000000001</ele>
        <time>2014-07-18T12:32:52Z</time>
      </trkpt>
      <trkpt lat="45.728756776079535" lon="6.731798714026809">
        <ele>2450.54</ele>
        <time>2014-07-18T12:33:06Z</time>
      </trkpt>
      <trkpt lat="45.728760967031121" lon="6.731814220547676">
        <ele>2450.0599999999999</ele>
        <time>2014-07-18T12:33:07Z</time>
      </trkpt>
      <trkpt lat="45.728747555986047" lon="6.731853280216456">
        <ele>2449.5799999999999</ele>
        <time>2014-07-18T12:33:10Z</time>
      </trkpt>
      <trkpt lat="45.728784436360002" lon="6.731901057064533">
        <ele>2448.6199999999999</ele>
        <time>2014-07-18T12:33:13Z</time>
      </trkpt>
      <trkpt lat="45.728812515735626" lon="6.732028797268868">
        <ele>2446.6900000000001</ele>
        <time>2014-07-18T12:33:24Z</time>
      </trkpt>
      <trkpt lat="45.728904800489545" lon="6.732075568288565">
        <ele>2445.25</ele>
        <time>2014-07-18T12:33:40Z</time>
      </trkpt>
      <trkpt lat="45.728905890136957" lon="6.732082776725292">
        <ele>2445.25</ele>
        <time>2014-07-18T12:33:41Z</time>
      </trkpt>
      <trkpt lat="45.728921815752983" lon="6.732245134189725">
        <ele>2441.8899999999999</ele>
        <time>2014-07-18T12:33:54Z</time>
      </trkpt>
      <trkpt lat="45.728923575952649" lon="6.732258209958673">
        <ele>2441.8899999999999</ele>
        <time>2014-07-18T12:33:55Z</time>
      </trkpt>
      <trkpt lat="45.728963725268841" lon="6.732441689819098">
        <ele>2438.04</ele>
        <time>2014-07-18T12:34:10Z</time>
      </trkpt>
      <trkpt lat="45.729002617299557" lon="6.732589043676853">
        <ele>2435.6399999999999</ele>
        <time>2014-07-18T12:34:21Z</time>
      </trkpt>
      <trkpt lat="45.729000186547637" lon="6.732646375894547">
        <ele>2434.6799999999998</ele>
        <time>2014-07-18T12:34:25Z</time>
      </trkpt>
      <trkpt lat="45.728983171284199" lon="6.732706893235445">
        <ele>2433.71</ele>
        <time>2014-07-18T12:34:29Z</time>
      </trkpt>
      <trkpt lat="45.729026757180691" lon="6.732819210737944">
        <ele>2431.3099999999999</ele>
        <time>2014-07-18T12:34:38Z</time>
      </trkpt>
      <trkpt lat="45.729049555957317" lon="6.732905209064484">
        <ele>2429.8699999999999</ele>
        <time>2014-07-18T12:34:44Z</time>
      </trkpt>
      <trkpt lat="45.729046873748302" lon="6.732932617887855">
        <ele>2429.3899999999999</ele>
        <time>2014-07-18T12:34:46Z</time>
      </trkpt>
      <trkpt lat="45.729057183489203" lon="6.733141075819731">
        <ele>2426.5</ele>
        <time>2014-07-18T12:35:00Z</time>
      </trkpt>
      <trkpt lat="45.729131111875176" lon="6.73334676772356">
        <ele>2423.1399999999999</ele>
        <time>2014-07-18T12:35:14Z</time>
      </trkpt>
      <trkpt lat="45.72921484708786" lon="6.733553465455771">
        <ele>2420.2600000000002</ele>
        <time>2014-07-18T12:35:29Z</time>
      </trkpt>
      <trkpt lat="45.729222809895873" lon="6.733575593680143">
        <ele>2420.2600000000002</ele>
        <time>2014-07-18T12:35:31Z</time>
      </trkpt>
      <trkpt lat="45.729269161820412" lon="6.733664190396667">
        <ele>2418.3299999999999</ele>
        <time>2014-07-18T12:35:39Z</time>
      </trkpt>
      <trkpt lat="45.729347448796034" lon="6.733840797096491">
        <ele>2415.9299999999998</ele>
        <time>2014-07-18T12:35:54Z</time>
      </trkpt>
      <trkpt lat="45.729358177632093" lon="6.733861248940229">
        <ele>2415.9299999999998</ele>
        <time>2014-07-18T12:35:56Z</time>
      </trkpt>
      <trkpt lat="45.72936731390655" lon="6.733940038830042">
        <ele>2414.0100000000002</ele>
        <time>2014-07-18T12:36:03Z</time>
      </trkpt>
      <trkpt lat="45.729370079934597" lon="6.734001394361258">
        <ele>2413.5300000000002</ele>
        <time>2014-07-18T12:36:09Z</time>
      </trkpt>
      <trkpt lat="45.729403356090188" lon="6.734041208401322">
        <ele>2413.5300000000002</ele>
        <time>2014-07-18T12:36:14Z</time>
      </trkpt>
      <trkpt lat="45.729458509013057" lon="6.734204906970263">
        <ele>2412.5700000000002</ele>
        <time>2014-07-18T12:36:26Z</time>
      </trkpt>
      <trkpt lat="45.72947233915329" lon="6.734223179519177">
        <ele>2412.5700000000002</ele>
        <time>2014-07-18T12:36:28Z</time>
      </trkpt>
      <trkpt lat="45.729511063545942" lon="6.734238099306822">
        <ele>2411.1199999999999</ele>
        <time>2014-07-18T12:36:32Z</time>
      </trkpt>
      <trkpt lat="45.729582644999027" lon="6.734287803992629">
        <ele>2409.1999999999998</ele>
        <time>2014-07-18T12:36:39Z</time>
      </trkpt>
      <trkpt lat="45.729627488180995" lon="6.734331389889121">
        <ele>2408.2399999999998</ele>
        <time>2014-07-18T12:36:45Z</time>
      </trkpt>
      <trkpt lat="45.729677025228739" lon="6.734464829787612">
        <ele>2407.2800000000002</ele>
        <time>2014-07-18T12:36:54Z</time>
      </trkpt>
      <trkpt lat="45.729683898389339" lon="6.734620481729507">
        <ele>2405.8400000000001</ele>
        <time>2014-07-18T12:37:03Z</time>
      </trkpt>
      <trkpt lat="45.729691442102194" lon="6.734681501984596">
        <ele>2405.3600000000001</ele>
        <time>2014-07-18T12:37:07Z</time>
      </trkpt>
      <trkpt lat="45.729748019948602" lon="6.734898844733834">
        <ele>2404.3899999999999</ele>
        <time>2014-07-18T12:37:23Z</time>
      </trkpt>
      <trkpt lat="45.729787666350603" lon="6.734921140596271">
        <ele>2404.3899999999999</ele>
        <time>2014-07-18T12:37:28Z</time>
      </trkpt>
      <trkpt lat="45.729824211448431" lon="6.735012754797936">
        <ele>2403.4299999999998</ele>
        <time>2014-07-18T12:37:34Z</time>
      </trkpt>
      <trkpt lat="45.729810632765293" lon="6.735103949904442">
        <ele>2404.3899999999999</ele>
        <time>2014-07-18T12:37:41Z</time>
      </trkpt>
      <trkpt lat="45.729851620271802" lon="6.735133118927479">
        <ele>2404.3899999999999</ele>
        <time>2014-07-18T12:37:45Z</time>
      </trkpt>
      <trkpt lat="45.729962596669793" lon="6.735240491107106">
        <ele>2404.3899999999999</ele>
        <time>2014-07-18T12:37:59Z</time>
      </trkpt>
      <trkpt lat="45.729987826198339" lon="6.735351467505097">
        <ele>2405.8400000000001</ele>
        <time>2014-07-18T12:38:11Z</time>
      </trkpt>
      <trkpt lat="45.730000482872128" lon="6.735462946817279">
        <ele>2406.8000000000002</ele>
        <time>2014-07-18T12:38:24Z</time>
      </trkpt>
      <trkpt lat="45.730029903352261" lon="6.735515249893069">
        <ele>2406.3200000000002</ele>
        <time>2014-07-18T12:38:40Z</time>
      </trkpt>
      <trkpt lat="45.730048762634397" lon="6.735617928206921">
        <ele>2403.4299999999998</ele>
        <time>2014-07-18T12:38:53Z</time>
      </trkpt>
      <trkpt lat="45.730051612481475" lon="6.735695796087384">
        <ele>2401.9899999999998</ele>
        <time>2014-07-18T12:39:07Z</time>
      </trkpt>
      <trkpt lat="45.730082374066114" lon="6.735757319256663">
        <ele>2401.0300000000002</ele>
        <time>2014-07-18T12:39:24Z</time>
      </trkpt>
      <trkpt lat="45.730090085417032" lon="6.735788667574525">
        <ele>2399.5900000000001</ele>
        <time>2014-07-18T12:39:33Z</time>
      </trkpt>
      <trkpt lat="45.730029232800007" lon="6.735873492434621">
        <ele>2396.6999999999998</ele>
        <time>2014-07-18T12:39:47Z</time>
      </trkpt>
      <trkpt lat="45.730032669380307" lon="6.735881958156824">
        <ele>2396.2199999999998</ele>
        <time>2014-07-18T12:39:48Z</time>
      </trkpt>
      <trkpt lat="45.730035938322544" lon="6.73590425401926">
        <ele>2395.7399999999998</ele>
        <time>2014-07-18T12:39:50Z</time>
      </trkpt>
      <trkpt lat="45.729992017149925" lon="6.736013973131776">
        <ele>2392.3800000000001</ele>
        <time>2014-07-18T12:40:03Z</time>
      </trkpt>
      <trkpt lat="45.729986149817705" lon="6.736022941768169">
        <ele>2392.3800000000001</ele>
        <time>2014-07-18T12:40:04Z</time>
      </trkpt>
      <trkpt lat="45.729969050735235" lon="6.736130146309733">
        <ele>2389.4899999999998</ele>
        <time>2014-07-18T12:40:20Z</time>
      </trkpt>
      <trkpt lat="45.729993944987655" lon="6.736175324767828">
        <ele>2387.5700000000002</ele>
        <time>2014-07-18T12:40:34Z</time>
      </trkpt>
      <trkpt lat="45.730034597218037" lon="6.736187562346458">
        <ele>2387.0900000000001</ele>
        <time>2014-07-18T12:41:02Z</time>
      </trkpt>
      <trkpt lat="45.730040213093162" lon="6.73623114824295">
        <ele>2386.1300000000001</ele>
        <time>2014-07-18T12:41:30Z</time>
      </trkpt>
      <trkpt lat="45.730066783726215" lon="6.736277835443616">
        <ele>2383.73</ele>
        <time>2014-07-18T12:41:41Z</time>
      </trkpt>
      <trkpt lat="45.730049936100841" lon="6.736287223175168">
        <ele>2383.73</ele>
        <time>2014-07-18T12:41:58Z</time>
      </trkpt>
      <trkpt lat="45.730011044070125" lon="6.736394176259637">
        <ele>2381.8000000000002</ele>
        <time>2014-07-18T12:42:09Z</time>
      </trkpt>
      <trkpt lat="45.730032585561275" lon="6.736428290605545">
        <ele>2380.3600000000001</ele>
        <time>2014-07-18T12:42:14Z</time>
      </trkpt>
      <trkpt lat="45.73004256002605" lon="6.736528789624572">
        <ele>2378.4400000000001</ele>
        <time>2014-07-18T12:42:20Z</time>
      </trkpt>
      <trkpt lat="45.730022024363279" lon="6.736596515402198">
        <ele>2377.48</ele>
        <time>2014-07-18T12:42:25Z</time>
      </trkpt>
      <trkpt lat="45.730001991614699" lon="6.736669857054949">
        <ele>2375.5500000000002</ele>
        <time>2014-07-18T12:42:33Z</time>
      </trkpt>
      <trkpt lat="45.730027807876468" lon="6.736678658053279">
        <ele>2374.5900000000001</ele>
        <time>2014-07-18T12:42:36Z</time>
      </trkpt>
      <trkpt lat="45.730049852281809" lon="6.736716208979487">
        <ele>2374.1100000000001</ele>
        <time>2014-07-18T12:42:39Z</time>
      </trkpt>
      <trkpt lat="45.730032669380307" lon="6.736771613359451">
        <ele>2372.6700000000001</ele>
        <time>2014-07-18T12:42:51Z</time>
      </trkpt>
      <trkpt lat="45.730021689087152" lon="6.736810253933072">
        <ele>2372.1900000000001</ele>
        <time>2014-07-18T12:42:59Z</time>
      </trkpt>
      <trkpt lat="45.730022694915533" lon="6.736821569502354">
        <ele>2372.1900000000001</ele>
        <time>2014-07-18T12:43:13Z</time>
      </trkpt>
      <trkpt lat="45.730009451508522" lon="6.736810253933072">
        <ele>2371.71</ele>
        <time>2014-07-18T12:43:35Z</time>
      </trkpt>
      <trkpt lat="45.730001572519541" lon="6.73683607019484">
        <ele>2370.75</ele>
        <time>2014-07-18T12:43:47Z</time>
      </trkpt>
      <trkpt lat="45.73000836186111" lon="6.736909495666623">
        <ele>2368.3499999999999</ele>
        <time>2014-07-18T12:44:01Z</time>
      </trkpt>
      <trkpt lat="45.729956142604351" lon="6.736911507323384">
        <ele>2365.9400000000001</ele>
        <time>2014-07-18T12:44:10Z</time>
      </trkpt>
      <trkpt lat="45.729889674112201" lon="6.736846379935741">
        <ele>2363.54</ele>
        <time>2014-07-18T12:44:21Z</time>
      </trkpt>
      <trkpt lat="45.729823876172304" lon="6.736875968053937">
        <ele>2360.1700000000001</ele>
        <time>2014-07-18T12:44:34Z</time>
      </trkpt>
      <trkpt lat="45.729792527854443" lon="6.736897425726056">
        <ele>2358.25</ele>
        <time>2014-07-18T12:44:46Z</time>
      </trkpt>
      <trkpt lat="45.729797473177314" lon="6.736893989145756">
        <ele>2357.77</ele>
        <time>2014-07-18T12:44:52Z</time>
      </trkpt>
      <trkpt lat="45.729780374094844" lon="6.736990548670292">
        <ele>2354.8899999999999</ele>
        <time>2014-07-18T12:45:03Z</time>
      </trkpt>
      <trkpt lat="45.729789091274142" lon="6.737078810110688">
        <ele>2352</ele>
        <time>2014-07-18T12:45:15Z</time>
      </trkpt>
      <trkpt lat="45.729755228385329" lon="6.73708233051002">
        <ele>2350.5599999999999</ele>
        <time>2014-07-18T12:45:20Z</time>
      </trkpt>
      <trkpt lat="45.729775261133909" lon="6.737159276381135">
        <ele>2347.6799999999998</ele>
        <time>2014-07-18T12:45:31Z</time>
      </trkpt>
      <trkpt lat="45.729727819561958" lon="6.737246783450246">
        <ele>2344.79</ele>
        <time>2014-07-18T12:45:42Z</time>
      </trkpt>
      <trkpt lat="45.729699404910207" lon="6.737335044890642">
        <ele>2341.9099999999999</ele>
        <time>2014-07-18T12:45:52Z</time>
      </trkpt>
      <trkpt lat="45.729649784043431" lon="6.737431352958083">
        <ele>2339.02</ele>
        <time>2014-07-18T12:46:02Z</time>
      </trkpt>
      <trkpt lat="45.729576945304871" lon="6.737588346004486">
        <ele>2336.1399999999999</ele>
        <time>2014-07-18T12:46:15Z</time>
      </trkpt>
      <trkpt lat="45.729525983333588" lon="6.737708374857903">
        <ele>2333.7399999999998</ele>
        <time>2014-07-18T12:46:27Z</time>
      </trkpt>
      <trkpt lat="45.729490863159299" lon="6.73772145062685">
        <ele>2332.7800000000002</ele>
        <time>2014-07-18T12:46:38Z</time>
      </trkpt>
      <trkpt lat="45.72952950373292" lon="6.737746512517333">
        <ele>2332.7800000000002</ele>
        <time>2014-07-18T12:47:00Z</time>
      </trkpt>
      <trkpt lat="45.729523301124573" lon="6.737729916349053">
        <ele>2331.8099999999999</ele>
        <time>2014-07-18T12:47:20Z</time>
      </trkpt>
      <trkpt lat="45.729573927819729" lon="6.737758414819837">
        <ele>2333.2600000000002</ele>
        <time>2014-07-18T12:47:33Z</time>
      </trkpt>
      <trkpt lat="45.729611311107874" lon="6.737734023481607">
        <ele>2332.7800000000002</ele>
        <time>2014-07-18T12:47:56Z</time>
      </trkpt>
      <trkpt lat="45.729569233953953" lon="6.737789679318667">
        <ele>2331.3299999999999</ele>
        <time>2014-07-18T12:48:13Z</time>
      </trkpt>
      <trkpt lat="45.729630924761295" lon="6.737777944654226">
        <ele>2329.8899999999999</ele>
        <time>2014-07-18T12:48:26Z</time>
      </trkpt>
      <trkpt lat="45.729637546464801" lon="6.737770400941372">
        <ele>2329.4099999999999</ele>
        <time>2014-07-18T12:48:31Z</time>
      </trkpt>
      <trkpt lat="45.729641821235418" lon="6.737752128392458">
        <ele>2328.9299999999998</ele>
        <time>2014-07-18T12:48:43Z</time>
      </trkpt>
      <trkpt lat="45.729638133198023" lon="6.737800491973758">
        <ele>2328.4499999999998</ele>
        <time>2014-07-18T12:49:03Z</time>
      </trkpt>
      <trkpt lat="45.729597983881831" lon="6.737884730100632">
        <ele>2326.5300000000002</ele>
        <time>2014-07-18T12:49:11Z</time>
      </trkpt>
      <trkpt lat="45.729649113491178" lon="6.737903589382768">
        <ele>2325.5700000000002</ele>
        <time>2014-07-18T12:49:15Z</time>
      </trkpt>
      <trkpt lat="45.729682138189673" lon="6.737903924658895">
        <ele>2324.6100000000001</ele>
        <time>2014-07-18T12:49:18Z</time>
      </trkpt>
      <trkpt lat="45.729697896167636" lon="6.737919012084603">
        <ele>2324.1199999999999</ele>
        <time>2014-07-18T12:49:20Z</time>
      </trkpt>
      <trkpt lat="45.729688508436084" lon="6.73791641369462">
        <ele>2322.6799999999998</ele>
        <time>2014-07-18T12:49:34Z</time>
      </trkpt>
      <trkpt lat="45.729668475687504" lon="6.737897051498294">
        <ele>2322.6799999999998</ele>
        <time>2014-07-18T12:49:37Z</time>
      </trkpt>
      <trkpt lat="45.729680964723229" lon="6.737893698737025">
        <ele>2322.6799999999998</ele>
        <time>2014-07-18T12:49:39Z</time>
      </trkpt>
      <trkpt lat="45.729687670245767" lon="6.737920437008143">
        <ele>2322.1999999999998</ele>
        <time>2014-07-18T12:49:56Z</time>
      </trkpt>
      <trkpt lat="45.729713067412376" lon="6.737918257713318">
        <ele>2322.6799999999998</ele>
        <time>2014-07-18T12:50:16Z</time>
      </trkpt>
      <trkpt lat="45.729732261970639" lon="6.737923119217157">
        <ele>2322.6799999999998</ele>
        <time>2014-07-18T12:50:46Z</time>
      </trkpt>
      <trkpt lat="45.729740057140589" lon="6.737905517220497">
        <ele>2322.6799999999998</ele>
        <time>2014-07-18T12:51:11Z</time>
      </trkpt>
      <trkpt lat="45.729732681065798" lon="6.73793544061482">
        <ele>2322.1999999999998</ele>
        <time>2014-07-18T12:51:39Z</time>
      </trkpt>
      <trkpt lat="45.72974793612957" lon="6.737935272976756">
        <ele>2322.6799999999998</ele>
        <time>2014-07-18T12:52:05Z</time>
      </trkpt>
      <trkpt lat="45.729889087378979" lon="6.7379554733634">
        <ele>2321.7199999999998</ele>
        <time>2014-07-18T12:52:26Z</time>
      </trkpt>
      <trkpt lat="45.729871150106192" lon="6.737970476970077">
        <ele>2320.7600000000002</ele>
        <time>2014-07-18T12:52:30Z</time>
      </trkpt>
      <trkpt lat="45.729879448190331" lon="6.737996879965067">
        <ele>2320.2800000000002</ele>
        <time>2014-07-18T12:52:32Z</time>
      </trkpt>
      <trkpt lat="45.72983393445611" lon="6.738084638491273">
        <ele>2317.8800000000001</ele>
        <time>2014-07-18T12:52:42Z</time>
      </trkpt>
      <trkpt lat="45.729858661070466" lon="6.738088075071573">
        <ele>2317.8800000000001</ele>
        <time>2014-07-18T12:52:44Z</time>
      </trkpt>
      <trkpt lat="45.729850698262453" lon="6.738132834434509">
        <ele>2316.9099999999999</ele>
        <time>2014-07-18T12:52:48Z</time>
      </trkpt>
      <trkpt lat="45.729843154549599" lon="6.738200057297945">
        <ele>2315.4699999999998</ele>
        <time>2014-07-18T12:52:55Z</time>
      </trkpt>
      <trkpt lat="45.729873664677143" lon="6.738306758925319">
        <ele>2312.5900000000001</ele>
        <time>2014-07-18T12:53:09Z</time>
      </trkpt>
      <trkpt lat="45.729881459847093" lon="6.738306591287255">
        <ele>2312.1100000000001</ele>
        <time>2014-07-18T12:53:10Z</time>
      </trkpt>
      <trkpt lat="45.729902666062117" lon="6.73831170424819">
        <ele>2311.6300000000001</ele>
        <time>2014-07-18T12:53:13Z</time>
      </trkpt>
      <trkpt lat="45.729976845905185" lon="6.738371467217803">
        <ele>2308.2600000000002</ele>
        <time>2014-07-18T12:53:25Z</time>
      </trkpt>
      <trkpt lat="45.730004254728556" lon="6.738381776958704">
        <ele>2307.7800000000002</ele>
        <time>2014-07-18T12:53:28Z</time>
      </trkpt>
      <trkpt lat="45.730128139257431" lon="6.73842896707356">
        <ele>2303.9400000000001</ele>
        <time>2014-07-18T12:53:44Z</time>
      </trkpt>
      <trkpt lat="45.730136688798666" lon="6.738532735034823">
        <ele>2302.0100000000002</ele>
        <time>2014-07-18T12:53:52Z</time>
      </trkpt>
      <trkpt lat="45.730170384049416" lon="6.738568190485239">
        <ele>2298.6500000000001</ele>
        <time>2014-07-18T12:54:04Z</time>
      </trkpt>
      <trkpt lat="45.730194943025708" lon="6.738551175221801">
        <ele>2298.1700000000001</ele>
        <time>2014-07-18T12:54:07Z</time>
      </trkpt>
      <trkpt lat="45.730230482295156" lon="6.73857556656003">
        <ele>2297.21</ele>
        <time>2014-07-18T12:54:11Z</time>
      </trkpt>
      <trkpt lat="45.730300303548574" lon="6.738635078072548">
        <ele>2294.8000000000002</ele>
        <time>2014-07-18T12:54:22Z</time>
      </trkpt>
      <trkpt lat="45.730331651866436" lon="6.738600712269545">
        <ele>2292.8800000000001</ele>
        <time>2014-07-18T12:54:27Z</time>
      </trkpt>
      <trkpt lat="45.730395270511508" lon="6.738570872694254">
        <ele>2290.48</ele>
        <time>2014-07-18T12:54:38Z</time>
      </trkpt>
      <trkpt lat="45.730453440919518" lon="6.738553354516625">
        <ele>2288.5599999999999</ele>
        <time>2014-07-18T12:54:51Z</time>
      </trkpt>
      <trkpt lat="45.73047406040132" lon="6.738570118322969">
        <ele>2288.0799999999999</ele>
        <time>2014-07-18T12:55:09Z</time>
      </trkpt>
      <trkpt lat="45.730541786178946" lon="6.73864983022213">
        <ele>2284.71</ele>
        <time>2014-07-18T12:55:23Z</time>
      </trkpt>
      <trkpt lat="45.730560729280114" lon="6.738731889054179">
        <ele>2284.23</ele>
        <time>2014-07-18T12:55:34Z</time>
      </trkpt>
      <trkpt lat="45.730571039021015" lon="6.738767679780722">
        <ele>2284.23</ele>
        <time>2014-07-18T12:55:38Z</time>
      </trkpt>
      <trkpt lat="45.730602638795972" lon="6.738864658400416">
        <ele>2285.6700000000001</ele>
        <time>2014-07-18T12:55:52Z</time>
      </trkpt>
      <trkpt lat="45.73057372123003" lon="6.738874632865191">
        <ele>2285.1900000000001</ele>
        <time>2014-07-18T12:56:15Z</time>
      </trkpt>
      <trkpt lat="45.730620995163918" lon="6.73888586461544">
        <ele>2286.1500000000001</ele>
        <time>2014-07-18T12:56:26Z</time>
      </trkpt>
      <trkpt lat="45.730673968791962" lon="6.738833226263523">
        <ele>2287.1100000000001</ele>
        <time>2014-07-18T12:56:38Z</time>
      </trkpt>
      <trkpt lat="45.730627868324518" lon="6.73874756321311">
        <ele>2288.5599999999999</ele>
        <time>2014-07-18T12:56:52Z</time>
      </trkpt>
      <trkpt lat="45.730578079819679" lon="6.738760471343994">
        <ele>2288.5599999999999</ele>
        <time>2014-07-18T12:57:16Z</time>
      </trkpt>
      <trkpt lat="45.730645721778274" lon="6.738740690052509">
        <ele>2288.0799999999999</ele>
        <time>2014-07-18T12:57:39Z</time>
      </trkpt>
      <trkpt lat="45.730667095631361" lon="6.738729542121291">
        <ele>2287.5900000000001</ele>
        <time>2014-07-18T12:57:53Z</time>
      </trkpt>
      <trkpt lat="45.730678997933865" lon="6.738750413060188">
        <ele>2287.5900000000001</ele>
        <time>2014-07-18T12:58:16Z</time>
      </trkpt>
      <trkpt lat="45.730673465877771" lon="6.73875343054533">
        <ele>2287.1100000000001</ele>
        <time>2014-07-18T12:58:50Z</time>
      </trkpt>
      <trkpt lat="45.73066608980298" lon="6.738762902095914">
        <ele>2287.1100000000001</ele>
        <time>2014-07-18T12:59:17Z</time>
      </trkpt>
      <trkpt lat="45.730662485584617" lon="6.738731469959021">
        <ele>2286.6300000000001</ele>
        <time>2014-07-18T12:59:38Z</time>
      </trkpt>
      <trkpt lat="45.73064018972218" lon="6.738720238208771">
        <ele>2286.6300000000001</ele>
        <time>2014-07-18T13:00:03Z</time>
      </trkpt>
      <trkpt lat="45.730647817254066" lon="6.738723590970039">
        <ele>2286.6300000000001</ele>
        <time>2014-07-18T13:00:39Z</time>
      </trkpt>
      <trkpt lat="45.730662737041712" lon="6.738731386139989">
        <ele>2286.1500000000001</ele>
        <time>2014-07-18T13:01:13Z</time>
      </trkpt>
      <trkpt lat="45.730661815032363" lon="6.738728871569037">
        <ele>2286.1500000000001</ele>
        <time>2014-07-18T13:01:43Z</time>
      </trkpt>
      <trkpt lat="45.730654774233699" lon="6.738708587363362">
        <ele>2286.1500000000001</ele>
        <time>2014-07-18T13:02:16Z</time>
      </trkpt>
      <trkpt lat="45.730669442564249" lon="6.738714957609773">
        <ele>2286.1500000000001</ele>
        <time>2014-07-18T13:02:46Z</time>
      </trkpt>
      <trkpt lat="45.730680925771594" lon="6.738728871569037">
        <ele>2285.6700000000001</ele>
        <time>2014-07-18T13:03:11Z</time>
      </trkpt>
      <trkpt lat="45.730689307674766" lon="6.73877832479775">
        <ele>2285.6700000000001</ele>
        <time>2014-07-18T13:03:45Z</time>
      </trkpt>
      <trkpt lat="45.730630550533533" lon="6.738725854083896">
        <ele>2285.1900000000001</ele>
        <time>2014-07-18T13:04:12Z</time>
      </trkpt>
      <trkpt lat="45.730681763961911" lon="6.738751251250505">
        <ele>2285.1900000000001</ele>
        <time>2014-07-18T13:04:43Z</time>
      </trkpt>
      <trkpt lat="45.730645218864083" lon="6.738724429160357">
        <ele>2285.1900000000001</ele>
        <time>2014-07-18T13:05:06Z</time>
      </trkpt>
      <trkpt lat="45.730624347925186" lon="6.738756699487567">
        <ele>2284.71</ele>
        <time>2014-07-18T13:05:32Z</time>
      </trkpt>
      <trkpt lat="45.730661144480109" lon="6.738721244037151">
        <ele>2284.71</ele>
        <time>2014-07-18T13:05:59Z</time>
      </trkpt>
      <trkpt lat="45.730654271319509" lon="6.738753765821457">
        <ele>2284.71</ele>
        <time>2014-07-18T13:06:22Z</time>
      </trkpt>
      <trkpt lat="45.730653433129191" lon="6.738715125247836">
        <ele>2284.23</ele>
        <time>2014-07-18T13:06:50Z</time>
      </trkpt>
      <trkpt lat="45.730709508061409" lon="6.738728201016784">
        <ele>2284.71</ele>
        <time>2014-07-18T13:07:17Z</time>
      </trkpt>
      <trkpt lat="45.730672543868423" lon="6.738797100260854">
        <ele>2283.75</ele>
        <time>2014-07-18T13:07:46Z</time>
      </trkpt>
      <trkpt lat="45.730662569403648" lon="6.738783102482557">
        <ele>2284.23</ele>
        <time>2014-07-18T13:08:12Z</time>
      </trkpt>
      <trkpt lat="45.730634406208992" lon="6.738716047257185">
        <ele>2283.75</ele>
        <time>2014-07-18T13:08:39Z</time>
      </trkpt>
      <trkpt lat="45.73062795214355" lon="6.738732978701592">
        <ele>2283.27</ele>
        <time>2014-07-18T13:09:11Z</time>
      </trkpt>
      <trkpt lat="45.730669945478439" lon="6.73873339779675">
        <ele>2283.27</ele>
        <time>2014-07-18T13:09:40Z</time>
      </trkpt>
      <trkpt lat="45.730626694858074" lon="6.738700959831476">
        <ele>2283.27</ele>
        <time>2014-07-18T13:10:07Z</time>
      </trkpt>
      <trkpt lat="45.730655780062079" lon="6.738686710596085">
        <ele>2282.79</ele>
        <time>2014-07-18T13:10:38Z</time>
      </trkpt>
      <trkpt lat="45.730618732050061" lon="6.738688806071878">
        <ele>2282.3099999999999</ele>
        <time>2014-07-18T13:11:07Z</time>
      </trkpt>
      <trkpt lat="45.730644715949893" lon="6.738745383918285">
        <ele>2283.27</ele>
        <time>2014-07-18T13:11:28Z</time>
      </trkpt>
      <trkpt lat="45.730644045397639" lon="6.738761812448502">
        <ele>2283.27</ele>
        <time>2014-07-18T13:11:55Z</time>
      </trkpt>
      <trkpt lat="45.730661731213331" lon="6.738757789134979">
        <ele>2282.79</ele>
        <time>2014-07-18T13:12:13Z</time>
      </trkpt>
      <trkpt lat="45.730646392330527" lon="6.738770110532641">
        <ele>2283.27</ele>
        <time>2014-07-18T13:12:42Z</time>
      </trkpt>
      <trkpt lat="45.730635076761246" lon="6.738767260685563">
        <ele>2282.3099999999999</ele>
        <time>2014-07-18T13:13:04Z</time>
      </trkpt>
      <trkpt lat="45.73063381947577" lon="6.738736080005765">
        <ele>2282.3099999999999</ele>
        <time>2014-07-18T13:13:41Z</time>
      </trkpt>
      <trkpt lat="45.730619234964252" lon="6.738723004236817">
        <ele>2282.3099999999999</ele>
        <time>2014-07-18T13:14:20Z</time>
      </trkpt>
      <trkpt lat="45.730623928830028" lon="6.738756783306599">
        <ele>2282.3099999999999</ele>
        <time>2014-07-18T13:15:07Z</time>
      </trkpt>
      <trkpt lat="45.730626443400979" lon="6.738740019500256">
        <ele>2282.3099999999999</ele>
        <time>2014-07-18T13:15:44Z</time>
      </trkpt>
      <trkpt lat="45.730640524998307" lon="6.738744629547">
        <ele>2281.8299999999999</ele>
        <time>2014-07-18T13:16:25Z</time>
      </trkpt>
      <trkpt lat="45.730629125609994" lon="6.738748317584395">
        <ele>2281.8299999999999</ele>
        <time>2014-07-18T13:17:09Z</time>
      </trkpt>
      <trkpt lat="45.730594843626022" lon="6.738725518807769">
        <ele>2281.8299999999999</ele>
        <time>2014-07-18T13:17:51Z</time>
      </trkpt>
      <trkpt lat="45.730615295469761" lon="6.738733565434814">
        <ele>2281.8299999999999</ele>
        <time>2014-07-18T13:18:30Z</time>
      </trkpt>
      <trkpt lat="45.73063331656158" lon="6.73875099979341">
        <ele>2282.3099999999999</ele>
        <time>2014-07-18T13:19:06Z</time>
      </trkpt>
      <trkpt lat="45.730663826689124" lon="6.738705988973379">
        <ele>2281.3499999999999</ele>
        <time>2014-07-18T13:19:24Z</time>
      </trkpt>
      <trkpt lat="45.730707664042711" lon="6.738746892660856">
        <ele>2281.3499999999999</ele>
        <time>2014-07-18T13:20:00Z</time>
      </trkpt>
      <trkpt lat="45.730669442564249" lon="6.738759968429804">
        <ele>2280.8699999999999</ele>
        <time>2014-07-18T13:20:23Z</time>
      </trkpt>
      <trkpt lat="45.730647565796971" lon="6.738769607618451">
        <ele>2280.8699999999999</ele>
        <time>2014-07-18T13:20:42Z</time>
      </trkpt>
      <trkpt lat="45.730630550533533" lon="6.738754687830806">
        <ele>2280.8699999999999</ele>
        <time>2014-07-18T13:21:10Z</time>
      </trkpt>
      <trkpt lat="45.730651086196303" lon="6.738729206845164">
        <ele>2280.8699999999999</ele>
        <time>2014-07-18T13:21:30Z</time>
      </trkpt>
      <trkpt lat="45.730651170015335" lon="6.738726943731308">
        <ele>2280.8699999999999</ele>
        <time>2014-07-18T13:21:55Z</time>
      </trkpt>
      <trkpt lat="45.730648068711162" lon="6.738762985914946">
        <ele>2280.8699999999999</ele>
        <time>2014-07-18T13:22:15Z</time>
      </trkpt>
      <trkpt lat="45.730663323774934" lon="6.738743875175715">
        <ele>2280.3800000000001</ele>
        <time>2014-07-18T13:22:28Z</time>
      </trkpt>
      <trkpt lat="45.730654941871762" lon="6.73871386796236">
        <ele>2280.8699999999999</ele>
        <time>2014-07-18T13:22:42Z</time>
      </trkpt>
      <trkpt lat="45.730670532211661" lon="6.738736080005765">
        <ele>2281.3499999999999</ele>
        <time>2014-07-18T13:22:55Z</time>
      </trkpt>
      <trkpt lat="45.730672208592296" lon="6.738724010065198">
        <ele>2281.3499999999999</ele>
        <time>2014-07-18T13:23:17Z</time>
      </trkpt>
      <trkpt lat="45.730656031519175" lon="6.73877002671361">
        <ele>2280.8699999999999</ele>
        <time>2014-07-18T13:23:33Z</time>
      </trkpt>
      <trkpt lat="45.73065435513854" lon="6.738740773871541">
        <ele>2280.3800000000001</ele>
        <time>2014-07-18T13:23:53Z</time>
      </trkpt>
      <trkpt lat="45.730663407593966" lon="6.738750329241157">
        <ele>2280.8699999999999</ele>
        <time>2014-07-18T13:24:11Z</time>
      </trkpt>
      <trkpt lat="45.730671538040042" lon="6.738741109147668">
        <ele>2280.8699999999999</ele>
        <time>2014-07-18T13:24:30Z</time>
      </trkpt>
      <trkpt lat="45.730659551918507" lon="6.738702384755015">
        <ele>2280.8699999999999</ele>
        <time>2014-07-18T13:24:49Z</time>
      </trkpt>
      <trkpt lat="45.730644799768925" lon="6.738737504929304">
        <ele>2280.3800000000001</ele>
        <time>2014-07-18T13:25:10Z</time>
      </trkpt>
      <trkpt lat="45.730663575232029" lon="6.738703390583396">
        <ele>2280.3800000000001</ele>
        <time>2014-07-18T13:25:35Z</time>
      </trkpt>
      <trkpt lat="45.73066558688879" lon="6.738717639818788">
        <ele>2280.3800000000001</ele>
        <time>2014-07-18T13:25:51Z</time>
      </trkpt>
      <trkpt lat="45.730769522488117" lon="6.738680927082896">
        <ele>2279.9000000000001</ele>
        <time>2014-07-18T13:26:06Z</time>
      </trkpt>
      <trkpt lat="45.730854514986277" lon="6.738690314814448">
        <ele>2280.8699999999999</ele>
        <time>2014-07-18T13:26:20Z</time>
      </trkpt>
      <trkpt lat="45.730873877182603" lon="6.738677658140659">
        <ele>2280.8699999999999</ele>
        <time>2014-07-18T13:26:27Z</time>
      </trkpt>
      <trkpt lat="45.730943446978927" lon="6.73873976804316">
        <ele>2280.8699999999999</ele>
        <time>2014-07-18T13:26:37Z</time>
      </trkpt>
      <trkpt lat="45.731035061180592" lon="6.73879542388022">
        <ele>2282.79</ele>
        <time>2014-07-18T13:26:51Z</time>
      </trkpt>
      <trkpt lat="45.731172189116478" lon="6.738937078043819">
        <ele>2281.3499999999999</ele>
        <time>2014-07-18T13:27:07Z</time>
      </trkpt>
      <trkpt lat="45.731290960684419" lon="6.739124581217766">
        <ele>2280.8699999999999</ele>
        <time>2014-07-18T13:27:22Z</time>
      </trkpt>
      <trkpt lat="45.731463124975562" lon="6.739046461880207">
        <ele>2279.4200000000001</ele>
        <time>2014-07-18T13:27:38Z</time>
      </trkpt>
      <trkpt lat="45.731553230434656" lon="6.739089712500572">
        <ele>2280.3800000000001</ele>
        <time>2014-07-18T13:27:49Z</time>
      </trkpt>
      <trkpt lat="45.731575358659029" lon="6.739092562347651">
        <ele>2280.3800000000001</ele>
        <time>2014-07-18T13:27:51Z</time>
      </trkpt>
      <trkpt lat="45.731685664504766" lon="6.739069512113929">
        <ele>2281.3499999999999</ele>
        <time>2014-07-18T13:28:02Z</time>
      </trkpt>
      <trkpt lat="45.731798736378551" lon="6.739277802407742">
        <ele>2281.3499999999999</ele>
        <time>2014-07-18T13:28:18Z</time>
      </trkpt>
      <trkpt lat="45.731908790767193" lon="6.739368494600058">
        <ele>2281.8299999999999</ele>
        <time>2014-07-18T13:28:31Z</time>
      </trkpt>
      <trkpt lat="45.731980875134468" lon="6.739426916465163">
        <ele>2281.3499999999999</ele>
        <time>2014-07-18T13:28:47Z</time>
      </trkpt>
      <trkpt lat="45.731985736638308" lon="6.739422222599387">
        <ele>2281.8299999999999</ele>
        <time>2014-07-18T13:28:51Z</time>
      </trkpt>
      <trkpt lat="45.73200635612011" lon="6.739460444077849">
        <ele>2281.8299999999999</ele>
        <time>2014-07-18T13:28:53Z</time>
      </trkpt>
      <trkpt lat="45.732065448537469" lon="6.739537892863154">
        <ele>2281.3499999999999</ele>
        <time>2014-07-18T13:28:59Z</time>
      </trkpt>
      <trkpt lat="45.732117667794228" lon="6.739612240344286">
        <ele>2279.9000000000001</ele>
        <time>2014-07-18T13:29:06Z</time>
      </trkpt>
      <trkpt lat="45.732147172093391" lon="6.739752972498536">
        <ele>2277.02</ele>
        <time>2014-07-18T13:29:20Z</time>
      </trkpt>
      <trkpt lat="45.732191344723105" lon="6.739846430718899">
        <ele>2274.1399999999999</ele>
        <time>2014-07-18T13:29:32Z</time>
      </trkpt>
      <trkpt lat="45.732219759374857" lon="6.739947097375989">
        <ele>2271.73</ele>
        <time>2014-07-18T13:29:45Z</time>
      </trkpt>
      <trkpt lat="45.732217915356159" lon="6.740062348544598">
        <ele>2268.3699999999999</ele>
        <time>2014-07-18T13:29:55Z</time>
      </trkpt>
      <trkpt lat="45.732189416885376" lon="6.740220598876476">
        <ele>2265.48</ele>
        <time>2014-07-18T13:30:09Z</time>
      </trkpt>
      <trkpt lat="45.732197295874357" lon="6.740264352411032">
        <ele>2264.52</ele>
        <time>2014-07-18T13:30:12Z</time>
      </trkpt>
      <trkpt lat="45.732165947556496" lon="6.740451939404011">
        <ele>2261.1599999999999</ele>
        <time>2014-07-18T13:30:26Z</time>
      </trkpt>
      <trkpt lat="45.732163935899734" lon="6.740538105368614">
        <ele>2259.2399999999998</ele>
        <time>2014-07-18T13:30:32Z</time>
      </trkpt>
      <trkpt lat="45.732232918962836" lon="6.740745808929205">
        <ele>2255.8699999999999</ele>
        <time>2014-07-18T13:30:47Z</time>
      </trkpt>
      <trkpt lat="45.732252532616258" lon="6.740805320441723">
        <ele>2254.9099999999999</ele>
        <time>2014-07-18T13:30:52Z</time>
      </trkpt>
      <trkpt lat="45.732321934774518" lon="6.740882685407996">
        <ele>2252.5100000000002</ele>
        <time>2014-07-18T13:31:02Z</time>
      </trkpt>
      <trkpt lat="45.732335764914751" lon="6.7409204877913">
        <ele>2251.54</ele>
        <time>2014-07-18T13:31:05Z</time>
      </trkpt>
      <trkpt lat="45.732377087697387" lon="6.74092442728579">
        <ele>2250.0999999999999</ele>
        <time>2014-07-18T13:31:09Z</time>
      </trkpt>
      <trkpt lat="45.732412124052644" lon="6.74089752137661">
        <ele>2248.6599999999999</ele>
        <time>2014-07-18T13:31:13Z</time>
      </trkpt>
      <trkpt lat="45.732410782948136" lon="6.740849409252405">
        <ele>2248.1799999999998</ele>
        <time>2014-07-18T13:31:17Z</time>
      </trkpt>
      <trkpt lat="45.732485465705395" lon="6.74079199321568">
        <ele>2245.3000000000002</ele>
        <time>2014-07-18T13:31:29Z</time>
      </trkpt>
      <trkpt lat="45.732518155127764" lon="6.740741198882461">
        <ele>2243.3699999999999</ele>
        <time>2014-07-18T13:31:34Z</time>
      </trkpt>
      <trkpt lat="45.732548078522086" lon="6.740770200267434">
        <ele>2242.8899999999999</ele>
        <time>2014-07-18T13:31:37Z</time>
      </trkpt>
      <trkpt lat="45.732595436275005" lon="6.740799704566598">
        <ele>2241.4499999999998</ele>
        <time>2014-07-18T13:31:42Z</time>
      </trkpt>
      <trkpt lat="45.732617061585188" lon="6.740751340985298">
        <ele>2240.4899999999998</ele>
        <time>2014-07-18T13:31:46Z</time>
      </trkpt>
      <trkpt lat="45.732642123475671" lon="6.740726111456752">
        <ele>2239.5300000000002</ele>
        <time>2014-07-18T13:31:50Z</time>
      </trkpt>
      <trkpt lat="45.732676154002547" lon="6.740659726783633">
        <ele>2239.0500000000002</ele>
        <time>2014-07-18T13:31:55Z</time>
      </trkpt>
      <trkpt lat="45.732764583081007" lon="6.740678418427706">
        <ele>2237.1300000000001</ele>
        <time>2014-07-18T13:32:08Z</time>
      </trkpt>
      <trkpt lat="45.732830045744777" lon="6.740612704306841">
        <ele>2235.1999999999998</ele>
        <time>2014-07-18T13:32:22Z</time>
      </trkpt>
      <trkpt lat="45.732884192839265" lon="6.740612117573619">
        <ele>2233.7600000000002</ele>
        <time>2014-07-18T13:32:34Z</time>
      </trkpt>
      <trkpt lat="45.732962312176824" lon="6.740630641579628">
        <ele>2232.3200000000002</ele>
        <time>2014-07-18T13:32:46Z</time>
      </trkpt>
      <trkpt lat="45.73306230828166" lon="6.740607004612684">
        <ele>2229.9200000000001</ele>
        <time>2014-07-18T13:32:59Z</time>
      </trkpt>
      <trkpt lat="45.733145792037249" lon="6.740642208606005">
        <ele>2228.4699999999998</ele>
        <time>2014-07-18T13:33:12Z</time>
      </trkpt>
      <trkpt lat="45.73321963660419" lon="6.740693422034383">
        <ele>2225.5900000000001</ele>
        <time>2014-07-18T13:33:26Z</time>
      </trkpt>
      <trkpt lat="45.733324661850929" lon="6.740716220811009">
        <ele>2223.1900000000001</ele>
        <time>2014-07-18T13:33:39Z</time>
      </trkpt>
      <trkpt lat="45.733344526961446" lon="6.740733990445733">
        <ele>2222.2199999999998</ele>
        <time>2014-07-18T13:33:46Z</time>
      </trkpt>
      <trkpt lat="45.733463633805513" lon="6.740756537765265">
        <ele>2220.3000000000002</ele>
        <time>2014-07-18T13:34:00Z</time>
      </trkpt>
      <trkpt lat="45.73354653082788" lon="6.740781096741557">
        <ele>2218.8600000000001</ele>
        <time>2014-07-18T13:34:12Z</time>
      </trkpt>
      <trkpt lat="45.733621548861265" lon="6.740809008479118">
        <ele>2216.46</ele>
        <time>2014-07-18T13:34:25Z</time>
      </trkpt>
      <trkpt lat="45.733701763674617" lon="6.740796519443393">
        <ele>2213.5700000000002</ele>
        <time>2014-07-18T13:34:39Z</time>
      </trkpt>
      <trkpt lat="45.733714671805501" lon="6.740862149745226">
        <ele>2212.6100000000001</ele>
        <time>2014-07-18T13:34:51Z</time>
      </trkpt>
      <trkpt lat="45.733751468360424" lon="6.740903640165925">
        <ele>2211.1700000000001</ele>
        <time>2014-07-18T13:35:00Z</time>
      </trkpt>
      <trkpt lat="45.733719868585467" lon="6.740990979596973">
        <ele>2209.25</ele>
        <time>2014-07-18T13:35:13Z</time>
      </trkpt>
      <trkpt lat="45.733696734532714" lon="6.741044875234366">
        <ele>2206.3600000000001</ele>
        <time>2014-07-18T13:35:27Z</time>
      </trkpt>
      <trkpt lat="45.733700506389141" lon="6.741144116967917">
        <ele>2203</ele>
        <time>2014-07-18T13:35:39Z</time>
      </trkpt>
      <trkpt lat="45.733602186664939" lon="6.741225002333522">
        <ele>2200.1100000000001</ele>
        <time>2014-07-18T13:35:51Z</time>
      </trkpt>
      <trkpt lat="45.733581651002169" lon="6.74128258600831">
        <ele>2198.6700000000001</ele>
        <time>2014-07-18T13:35:59Z</time>
      </trkpt>
      <trkpt lat="45.733557427302003" lon="6.74137931317091">
        <ele>2196.27</ele>
        <time>2014-07-18T13:36:12Z</time>
      </trkpt>
      <trkpt lat="45.733527336269617" lon="6.741422899067402">
        <ele>2194.8299999999999</ele>
        <time>2014-07-18T13:36:19Z</time>
      </trkpt>
      <trkpt lat="45.73349766433239" lon="6.741512669250369">
        <ele>2192.4200000000001</ele>
        <time>2014-07-18T13:36:32Z</time>
      </trkpt>
      <trkpt lat="45.733489282429218" lon="6.741644265130162">
        <ele>2190.02</ele>
        <time>2014-07-18T13:36:45Z</time>
      </trkpt>
      <trkpt lat="45.73345709592104" lon="6.741809556260705">
        <ele>2186.1799999999998</ele>
        <time>2014-07-18T13:36:57Z</time>
      </trkpt>
      <trkpt lat="45.733459359034896" lon="6.741897566244006">
        <ele>2184.73</ele>
        <time>2014-07-18T13:37:03Z</time>
      </trkpt>
      <trkpt lat="45.733419544994831" lon="6.742024468258023">
        <ele>2181.3699999999999</ele>
        <time>2014-07-18T13:37:17Z</time>
      </trkpt>
      <trkpt lat="45.733439493924379" lon="6.742023630067706">
        <ele>2180.8899999999999</ele>
        <time>2014-07-18T13:37:19Z</time>
      </trkpt>
      <trkpt lat="45.733474278822541" lon="6.742031509056687">
        <ele>2180.4099999999999</ele>
        <time>2014-07-18T13:37:23Z</time>
      </trkpt>
      <trkpt lat="45.733456425368786" lon="6.742112394422293">
        <ele>2178</ele>
        <time>2014-07-18T13:37:35Z</time>
      </trkpt>
      <trkpt lat="45.733503783121705" lon="6.74215137027204">
        <ele>2176.5599999999999</ele>
        <time>2014-07-18T13:37:41Z</time>
      </trkpt>
      <trkpt lat="45.73352163657546" lon="6.742170061916113">
        <ele>2175.5999999999999</ele>
        <time>2014-07-18T13:37:43Z</time>
      </trkpt>
      <trkpt lat="45.733516523614526" lon="6.742208702489734">
        <ele>2174.6399999999999</ele>
        <time>2014-07-18T13:37:46Z</time>
      </trkpt>
      <trkpt lat="45.733520714566112" lon="6.742234351113439">
        <ele>2174.1599999999999</ele>
        <time>2014-07-18T13:37:48Z</time>
      </trkpt>
      <trkpt lat="45.733492383733392" lon="6.742259496822953">
        <ele>2173.6799999999998</ele>
        <time>2014-07-18T13:37:52Z</time>
      </trkpt>
      <trkpt lat="45.733397081494331" lon="6.742367623373866">
        <ele>2171.27</ele>
        <time>2014-07-18T13:38:04Z</time>
      </trkpt>
      <trkpt lat="45.733354249969125" lon="6.742402827367187">
        <ele>2170.3099999999999</ele>
        <time>2014-07-18T13:38:10Z</time>
      </trkpt>
      <trkpt lat="45.733370343223214" lon="6.742453454062343">
        <ele>2169.3499999999999</ele>
        <time>2014-07-18T13:38:13Z</time>
      </trkpt>
      <trkpt lat="45.733338156715035" lon="6.742494106292725">
        <ele>2168.3899999999999</ele>
        <time>2014-07-18T13:38:17Z</time>
      </trkpt>
      <trkpt lat="45.733328768983483" lon="6.742539284750819">
        <ele>2167.4299999999998</ele>
        <time>2014-07-18T13:38:21Z</time>
      </trkpt>
      <trkpt lat="45.733323153108358" lon="6.742650847882032">
        <ele>2165.0300000000002</ele>
        <time>2014-07-18T13:38:28Z</time>
      </trkpt>
      <trkpt lat="45.733300521969795" lon="6.742699798196554">
        <ele>2164.0599999999999</ele>
        <time>2014-07-18T13:38:32Z</time>
      </trkpt>
      <trkpt lat="45.733270682394505" lon="6.742821587249637">
        <ele>2160.6999999999998</ele>
        <time>2014-07-18T13:38:43Z</time>
      </trkpt>
      <trkpt lat="45.733252996578813" lon="6.742866178974509">
        <ele>2159.2600000000002</ele>
        <time>2014-07-18T13:38:47Z</time>
      </trkpt>
      <trkpt lat="45.733241932466626" lon="6.742887133732438">
        <ele>2159.2600000000002</ele>
        <time>2014-07-18T13:38:48Z</time>
      </trkpt>
      <trkpt lat="45.733186779543757" lon="6.742931306362152">
        <ele>2157.8200000000002</ele>
        <time>2014-07-18T13:38:54Z</time>
      </trkpt>
      <trkpt lat="45.733200358226895" lon="6.74306751228869">
        <ele>2154.4499999999998</ele>
        <time>2014-07-18T13:39:07Z</time>
      </trkpt>
      <trkpt lat="45.733144115656614" lon="6.743215201422572">
        <ele>2151.0900000000001</ele>
        <time>2014-07-18T13:39:21Z</time>
      </trkpt>
      <trkpt lat="45.733151324093342" lon="6.743353754281998">
        <ele>2148.1999999999998</ele>
        <time>2014-07-18T13:39:33Z</time>
      </trkpt>
      <trkpt lat="45.733126848936081" lon="6.743484595790505">
        <ele>2144.8400000000001</ele>
        <time>2014-07-18T13:39:46Z</time>
      </trkpt>
      <trkpt lat="45.733105726540089" lon="6.743561290204525">
        <ele>2141.9499999999998</ele>
        <time>2014-07-18T13:39:56Z</time>
      </trkpt>
      <trkpt lat="45.733039928600192" lon="6.743670841678977">
        <ele>2139.5500000000002</ele>
        <time>2014-07-18T13:40:07Z</time>
      </trkpt>
      <trkpt lat="45.733029870316386" lon="6.743700010702014">
        <ele>2139.0700000000002</ele>
        <time>2014-07-18T13:40:10Z</time>
      </trkpt>
      <trkpt lat="45.733042862266302" lon="6.74372716806829">
        <ele>2138.5900000000001</ele>
        <time>2014-07-18T13:40:13Z</time>
      </trkpt>
      <trkpt lat="45.733055183663964" lon="6.74387670122087">
        <ele>2135.71</ele>
        <time>2014-07-18T13:40:24Z</time>
      </trkpt>
      <trkpt lat="45.733068929985166" lon="6.743940906599164">
        <ele>2133.3000000000002</ele>
        <time>2014-07-18T13:40:30Z</time>
      </trkpt>
      <trkpt lat="45.733033809810877" lon="6.744004609063268">
        <ele>2132.3400000000001</ele>
        <time>2014-07-18T13:40:36Z</time>
      </trkpt>
      <trkpt lat="45.733045460656285" lon="6.74405062571168">
        <ele>2131.3800000000001</ele>
        <time>2014-07-18T13:40:40Z</time>
      </trkpt>
      <trkpt lat="45.733035653829575" lon="6.744182640686631">
        <ele>2128.02</ele>
        <time>2014-07-18T13:40:53Z</time>
      </trkpt>
      <trkpt lat="45.733026769012213" lon="6.744223712012172">
        <ele>2126.0900000000001</ele>
        <time>2014-07-18T13:40:56Z</time>
      </trkpt>
      <trkpt lat="45.73302861303091" lon="6.744286995381117">
        <ele>2124.6500000000001</ele>
        <time>2014-07-18T13:41:02Z</time>
      </trkpt>
      <trkpt lat="45.733024841174483" lon="6.744366707280278">
        <ele>2122.25</ele>
        <time>2014-07-18T13:41:10Z</time>
      </trkpt>
      <trkpt lat="45.733033893629909" lon="6.7444933578372">
        <ele>2118.8800000000001</ele>
        <time>2014-07-18T13:41:23Z</time>
      </trkpt>
      <trkpt lat="45.733037078753114" lon="6.744546080008149">
        <ele>2117.9200000000001</ele>
        <time>2014-07-18T13:41:27Z</time>
      </trkpt>
      <trkpt lat="45.733022913336754" lon="6.744705839082599">
        <ele>2114.5599999999999</ele>
        <time>2014-07-18T13:41:39Z</time>
      </trkpt>
      <trkpt lat="45.733017548918724" lon="6.744796112179756">
        <ele>2112.1500000000001</ele>
        <time>2014-07-18T13:41:47Z</time>
      </trkpt>
      <trkpt lat="45.733014196157455" lon="6.744830561801791">
        <ele>2111.1900000000001</ele>
        <time>2014-07-18T13:41:50Z</time>
      </trkpt>
      <trkpt lat="45.733004473149776" lon="6.744961906224489">
        <ele>2108.3099999999999</ele>
        <time>2014-07-18T13:42:00Z</time>
      </trkpt>
      <trkpt lat="45.732992151752114" lon="6.745090819895268">
        <ele>2104.9400000000001</ele>
        <time>2014-07-18T13:42:11Z</time>
      </trkpt>
      <trkpt lat="45.732938339933753" lon="6.745179248973727">
        <ele>2102.54</ele>
        <time>2014-07-18T13:42:22Z</time>
      </trkpt>
      <trkpt lat="45.73293917812407" lon="6.745222751051188">
        <ele>2102.0599999999999</ele>
        <time>2014-07-18T13:42:28Z</time>
      </trkpt>
      <trkpt lat="45.732919061556458" lon="6.745431292802095">
        <ele>2099.6599999999999</ele>
        <time>2014-07-18T13:42:43Z</time>
      </trkpt>
      <trkpt lat="45.732896262779832" lon="6.745483595877886">
        <ele>2099.1799999999998</ele>
        <time>2014-07-18T13:42:47Z</time>
      </trkpt>
      <trkpt lat="45.732838595286012" lon="6.745554003864527">
        <ele>2097.25</ele>
        <time>2014-07-18T13:42:54Z</time>
      </trkpt>
      <trkpt lat="45.73270951397717" lon="6.745652155950666">
        <ele>2094.8499999999999</ele>
        <time>2014-07-18T13:43:07Z</time>
      </trkpt>
      <trkpt lat="45.732679925858974" lon="6.745706554502249">
        <ele>2091.9699999999998</ele>
        <time>2014-07-18T13:43:21Z</time>
      </trkpt>
      <trkpt lat="45.732661569491029" lon="6.745806131511927">
        <ele>2091.4899999999998</ele>
        <time>2014-07-18T13:43:35Z</time>
      </trkpt>
      <trkpt lat="45.732626365497708" lon="6.745982905849814">
        <ele>2088.5999999999999</ele>
        <time>2014-07-18T13:43:51Z</time>
      </trkpt>
      <trkpt lat="45.732586802914739" lon="6.746121207252145">
        <ele>2086.1999999999998</ele>
        <time>2014-07-18T13:44:00Z</time>
      </trkpt>
      <trkpt lat="45.732573475688696" lon="6.746253222227097">
        <ele>2083.79</ele>
        <time>2014-07-18T13:44:09Z</time>
      </trkpt>
      <trkpt lat="45.732563082128763" lon="6.746283229440451">
        <ele>2083.3099999999999</ele>
        <time>2014-07-18T13:44:11Z</time>
      </trkpt>
      <trkpt lat="45.732546988874674" lon="6.746420944109559">
        <ele>2081.8699999999999</ele>
        <time>2014-07-18T13:44:19Z</time>
      </trkpt>
      <trkpt lat="45.732468198984861" lon="6.746621020138264">
        <ele>2078.5100000000002</ele>
        <time>2014-07-18T13:44:34Z</time>
      </trkpt>
      <trkpt lat="45.732419164851308" lon="6.746616661548615">
        <ele>2077.5500000000002</ele>
        <time>2014-07-18T13:44:45Z</time>
      </trkpt>
      <trkpt lat="45.732392929494381" lon="6.746836015954614">
        <ele>2074.1799999999998</ele>
        <time>2014-07-18T13:45:00Z</time>
      </trkpt>
      <trkpt lat="45.732429809868336" lon="6.746999463066459">
        <ele>2071.3000000000002</ele>
        <time>2014-07-18T13:45:14Z</time>
      </trkpt>
      <trkpt lat="45.732435761019588" lon="6.747095603495836">
        <ele>2069.3800000000001</ele>
        <time>2014-07-18T13:45:20Z</time>
      </trkpt>
      <trkpt lat="45.732432994991541" lon="6.747232479974628">
        <ele>2067.9299999999998</ele>
        <time>2014-07-18T13:45:34Z</time>
      </trkpt>
      <trkpt lat="45.732454871758819" lon="6.747377067804337">
        <ele>2066.0100000000002</ele>
        <time>2014-07-18T13:45:44Z</time>
      </trkpt>
      <trkpt lat="45.732451099902391" lon="6.747473627328873">
        <ele>2065.0500000000002</ele>
        <time>2014-07-18T13:45:50Z</time>
      </trkpt>
      <trkpt lat="45.732440873980522" lon="6.747509250417352">
        <ele>2064.5700000000002</ele>
        <time>2014-07-18T13:45:52Z</time>
      </trkpt>
      <trkpt lat="45.732426205649972" lon="6.747685438022018">
        <ele>2061.6799999999998</ele>
        <time>2014-07-18T13:46:07Z</time>
      </trkpt>
      <trkpt lat="45.732433581724763" lon="6.747696502134204">
        <ele>2061.6799999999998</ele>
        <time>2014-07-18T13:46:21Z</time>
      </trkpt>
      <trkpt lat="45.732444981113076" lon="6.747732125222683">
        <ele>2061.1999999999998</ele>
        <time>2014-07-18T13:46:28Z</time>
      </trkpt>
      <trkpt lat="45.732420841231942" lon="6.74778082408011">
        <ele>2061.6799999999998</ele>
        <time>2014-07-18T13:46:33Z</time>
      </trkpt>
      <trkpt lat="45.732386307790875" lon="6.747955335304141">
        <ele>2059.7600000000002</ele>
        <time>2014-07-18T13:46:51Z</time>
      </trkpt>
      <trkpt lat="45.732405334711075" lon="6.747942427173257">
        <ele>2058.8000000000002</ele>
        <time>2014-07-18T13:47:05Z</time>
      </trkpt>
      <trkpt lat="45.732426624745131" lon="6.747964806854725">
        <ele>2059.2800000000002</ele>
        <time>2014-07-18T13:47:10Z</time>
      </trkpt>
      <trkpt lat="45.732444729655981" lon="6.747995149344206">
        <ele>2059.2800000000002</ele>
        <time>2014-07-18T13:47:13Z</time>
      </trkpt>
      <trkpt lat="45.732444981113076" lon="6.748028006404638">
        <ele>2059.2800000000002</ele>
        <time>2014-07-18T13:47:15Z</time>
      </trkpt>
      <trkpt lat="45.732411118224263" lon="6.74818784929812">
        <ele>2056.4000000000001</ele>
        <time>2014-07-18T13:47:28Z</time>
      </trkpt>
      <trkpt lat="45.732425199821591" lon="6.748218359425664">
        <ele>2055.9200000000001</ele>
        <time>2014-07-18T13:47:31Z</time>
      </trkpt>
      <trkpt lat="45.732377506792545" lon="6.748314751312137">
        <ele>2055.4400000000001</ele>
        <time>2014-07-18T13:47:42Z</time>
      </trkpt>
      <trkpt lat="45.732352193444967" lon="6.748395301401615">
        <ele>2054.4699999999998</ele>
        <time>2014-07-18T13:47:48Z</time>
      </trkpt>
      <trkpt lat="45.732305338606238" lon="6.748402928933501">
        <ele>2053.5100000000002</ele>
        <time>2014-07-18T13:47:54Z</time>
      </trkpt>
      <trkpt lat="45.73215982876718" lon="6.748497392982245">
        <ele>2051.5900000000001</ele>
        <time>2014-07-18T13:48:09Z</time>
      </trkpt>
      <trkpt lat="45.732155470177531" lon="6.748519185930491">
        <ele>2051.5900000000001</ele>
        <time>2014-07-18T13:48:11Z</time>
      </trkpt>
      <trkpt lat="45.732085397467017" lon="6.748704509809613">
        <ele>2050.1500000000001</ele>
        <time>2014-07-18T13:48:25Z</time>
      </trkpt>
      <trkpt lat="45.732034100219607" lon="6.748743150383234">
        <ele>2050.1500000000001</ele>
        <time>2014-07-18T13:48:31Z</time>
      </trkpt>
      <trkpt lat="45.731988837942481" lon="6.748817833140492">
        <ele>2049.6700000000001</ele>
        <time>2014-07-18T13:48:38Z</time>
      </trkpt>
      <trkpt lat="45.731955394148827" lon="6.748833004385233">
        <ele>2046.3</ele>
        <time>2014-07-18T13:48:44Z</time>
      </trkpt>
      <trkpt lat="45.731863528490067" lon="6.74884264357388">
        <ele>2047.26</ele>
        <time>2014-07-18T13:48:57Z</time>
      </trkpt>
      <trkpt lat="45.731857996433973" lon="6.748843984678388">
        <ele>2047.26</ele>
        <time>2014-07-18T13:48:58Z</time>
      </trkpt>
      <trkpt lat="45.73182413354516" lon="6.748879859223962">
        <ele>2046.3</ele>
        <time>2014-07-18T13:49:02Z</time>
      </trkpt>
      <trkpt lat="45.731811141595244" lon="6.748903999105096">
        <ele>2046.3</ele>
        <time>2014-07-18T13:49:04Z</time>
      </trkpt>
      <trkpt lat="45.731769064441323" lon="6.74890760332346">
        <ele>2046.3</ele>
        <time>2014-07-18T13:49:08Z</time>
      </trkpt>
      <trkpt lat="45.731624308973551" lon="6.74900826998055">
        <ele>2044.3800000000001</ele>
        <time>2014-07-18T13:49:22Z</time>
      </trkpt>
      <trkpt lat="45.731616346165538" lon="6.749016484245658">
        <ele>2044.3800000000001</ele>
        <time>2014-07-18T13:49:23Z</time>
      </trkpt>
      <trkpt lat="45.731564210727811" lon="6.749078426510096">
        <ele>2042.9400000000001</ele>
        <time>2014-07-18T13:49:31Z</time>
      </trkpt>
      <trkpt lat="45.731553314253688" lon="6.749188145622611">
        <ele>2043.4200000000001</ele>
        <time>2014-07-18T13:49:46Z</time>
      </trkpt>
      <trkpt lat="45.731535963714123" lon="6.749200886115432">
        <ele>2043.4200000000001</ele>
        <time>2014-07-18T13:49:50Z</time>
      </trkpt>
      <trkpt lat="45.731410821899772" lon="6.749288812279701">
        <ele>2041.5</ele>
        <time>2014-07-18T13:50:04Z</time>
      </trkpt>
      <trkpt lat="45.731349801644683" lon="6.749338516965509">
        <ele>2041.02</ele>
        <time>2014-07-18T13:50:10Z</time>
      </trkpt>
      <trkpt lat="45.731244776397943" lon="6.749468436464667">
        <ele>2037.6500000000001</ele>
        <time>2014-07-18T13:50:25Z</time>
      </trkpt>
      <trkpt lat="45.731243602931499" lon="6.749473046511412">
        <ele>2037.6500000000001</ele>
        <time>2014-07-18T13:50:28Z</time>
      </trkpt>
      <trkpt lat="45.731234801933169" lon="6.749551417306066">
        <ele>2037.1700000000001</ele>
        <time>2014-07-18T13:50:35Z</time>
      </trkpt>
      <trkpt lat="45.731243519112468" lon="6.749576395377517">
        <ele>2037.1700000000001</ele>
        <time>2014-07-18T13:50:37Z</time>
      </trkpt>
      <trkpt lat="45.731187695637345" lon="6.749659795314074">
        <ele>2036.21</ele>
        <time>2014-07-18T13:50:45Z</time>
      </trkpt>
      <trkpt lat="45.731129609048367" lon="6.749805388972163">
        <ele>2034.29</ele>
        <time>2014-07-18T13:50:57Z</time>
      </trkpt>
      <trkpt lat="45.731050902977586" lon="6.749907815828919">
        <ele>2032.8399999999999</ele>
        <time>2014-07-18T13:51:09Z</time>
      </trkpt>
      <trkpt lat="45.730994241312146" lon="6.750050727277994">
        <ele>2032.3599999999999</ele>
        <time>2014-07-18T13:51:22Z</time>
      </trkpt>
      <trkpt lat="45.73090547695756" lon="6.750223394483328">
        <ele>2031.4000000000001</ele>
        <time>2014-07-18T13:51:39Z</time>
      </trkpt>
      <trkpt lat="45.730860633775592" lon="6.750341579318047">
        <ele>2031.4000000000001</ele>
        <time>2014-07-18T13:51:49Z</time>
      </trkpt>
      <trkpt lat="45.730715710669756" lon="6.750533608719707">
        <ele>2029.48</ele>
        <time>2014-07-18T13:52:03Z</time>
      </trkpt>
      <trkpt lat="45.730675645172596" lon="6.750562274828553">
        <ele>2029.96</ele>
        <time>2014-07-18T13:52:08Z</time>
      </trkpt>
      <trkpt lat="45.730647230520844" lon="6.750637041404843">
        <ele>2029.48</ele>
        <time>2014-07-18T13:52:14Z</time>
      </trkpt>
      <trkpt lat="45.730611607432365" lon="6.750712394714356">
        <ele>2029</ele>
        <time>2014-07-18T13:52:19Z</time>
      </trkpt>
      <trkpt lat="45.730577241629362" lon="6.750801578164101">
        <ele>2028.52</ele>
        <time>2014-07-18T13:52:28Z</time>
      </trkpt>
      <trkpt lat="45.730551593005657" lon="6.75103317014873">
        <ele>2027.5599999999999</ele>
        <time>2014-07-18T13:52:42Z</time>
      </trkpt>
      <trkpt lat="45.7305199932307" lon="6.751222684979439">
        <ele>2025.6400000000001</ele>
        <time>2014-07-18T13:52:54Z</time>
      </trkpt>
      <trkpt lat="45.73044715449214" lon="6.751441536471248">
        <ele>2024.1900000000001</ele>
        <time>2014-07-18T13:53:09Z</time>
      </trkpt>
      <trkpt lat="45.730370376259089" lon="6.751647396013141">
        <ele>2023.23</ele>
        <time>2014-07-18T13:53:22Z</time>
      </trkpt>
      <trkpt lat="45.730353863909841" lon="6.751695089042187">
        <ele>2022.75</ele>
        <time>2014-07-18T13:53:25Z</time>
      </trkpt>
      <trkpt lat="45.730300722643733" lon="6.751787792891264">
        <ele>2022.27</ele>
        <time>2014-07-18T13:53:33Z</time>
      </trkpt>
      <trkpt lat="45.730293430387974" lon="6.751814614981413">
        <ele>2022.27</ele>
        <time>2014-07-18T13:53:35Z</time>
      </trkpt>
      <trkpt lat="45.730299884453416" lon="6.751864990219474">
        <ele>2021.79</ele>
        <time>2014-07-18T13:53:39Z</time>
      </trkpt>
      <trkpt lat="45.730299632996321" lon="6.751906899735332">
        <ele>2021.79</ele>
        <time>2014-07-18T13:53:42Z</time>
      </trkpt>
      <trkpt lat="45.730220507830381" lon="6.752091133967042">
        <ele>2022.27</ele>
        <time>2014-07-18T13:53:56Z</time>
      </trkpt>
      <trkpt lat="45.730209024623036" lon="6.752135809510946">
        <ele>2022.75</ele>
        <time>2014-07-18T13:53:59Z</time>
      </trkpt>
      <trkpt lat="45.730101149529219" lon="6.752326581627131">
        <ele>2022.27</ele>
        <time>2014-07-18T13:54:14Z</time>
      </trkpt>
      <trkpt lat="45.729986485093832" lon="6.752578122541308">
        <ele>2020.8299999999999</ele>
        <time>2014-07-18T13:54:31Z</time>
      </trkpt>
      <trkpt lat="45.729935606941581" lon="6.752809043973684">
        <ele>2020.3499999999999</ele>
        <time>2014-07-18T13:54:46Z</time>
      </trkpt>
      <trkpt lat="45.729926973581314" lon="6.753074247390032">
        <ele>2020.3499999999999</ele>
        <time>2014-07-18T13:55:02Z</time>
      </trkpt>
      <trkpt lat="45.729879699647427" lon="6.753304246813059">
        <ele>2017.9400000000001</ele>
        <time>2014-07-18T13:55:17Z</time>
      </trkpt>
      <trkpt lat="45.729843657463789" lon="6.753426874056459">
        <ele>2016.5</ele>
        <time>2014-07-18T13:55:25Z</time>
      </trkpt>
      <trkpt lat="45.729800574481487" lon="6.753623429685831">
        <ele>2014.5799999999999</ele>
        <time>2014-07-18T13:55:39Z</time>
      </trkpt>
      <trkpt lat="45.729789678007364" lon="6.753932721912861">
        <ele>2012.6600000000001</ele>
        <time>2014-07-18T13:55:57Z</time>
      </trkpt>
      <trkpt lat="45.729777859523892" lon="6.753971111029387">
        <ele>2012.1800000000001</ele>
        <time>2014-07-18T13:56:07Z</time>
      </trkpt>
      <trkpt lat="45.729730082675815" lon="6.754081584513187">
        <ele>2012.6600000000001</ele>
        <time>2014-07-18T13:56:15Z</time>
      </trkpt>
      <trkpt lat="45.729671996086836" lon="6.754270847886801">
        <ele>2012.1800000000001</ele>
        <time>2014-07-18T13:56:28Z</time>
      </trkpt>
      <trkpt lat="45.729581974446774" lon="6.754499087110162">
        <ele>2013.6199999999999</ele>
        <time>2014-07-18T13:56:43Z</time>
      </trkpt>
      <trkpt lat="45.729600666090846" lon="6.754634873941541">
        <ele>2013.6199999999999</ele>
        <time>2014-07-18T13:56:52Z</time>
      </trkpt>
      <trkpt lat="45.72966679930687" lon="6.754904100671411">
        <ele>2011.22</ele>
        <time>2014-07-18T13:57:08Z</time>
      </trkpt>
      <trkpt lat="45.729783894494176" lon="6.755151366814971">
        <ele>2009.77</ele>
        <time>2014-07-18T13:57:24Z</time>
      </trkpt>
      <trkpt lat="45.7298275642097" lon="6.755276005715132">
        <ele>2009.29</ele>
        <time>2014-07-18T13:57:33Z</time>
      </trkpt>
      <trkpt lat="45.729842064902186" lon="6.755446577444673">
        <ele>2009.77</ele>
        <time>2014-07-18T13:57:48Z</time>
      </trkpt>
      <trkpt lat="45.729895457625389" lon="6.755537521094084">
        <ele>2009.77</ele>
        <time>2014-07-18T13:58:01Z</time>
      </trkpt>
      <trkpt lat="45.729900235310197" lon="6.755512962117791">
        <ele>2009.77</ele>
        <time>2014-07-18T13:58:12Z</time>
      </trkpt>
      <trkpt lat="45.729892272502184" lon="6.755514806136489">
        <ele>2009.77</ele>
        <time>2014-07-18T13:58:21Z</time>
      </trkpt>
      <trkpt lat="45.72986469604075" lon="6.755574988201261">
        <ele>2010.25</ele>
        <time>2014-07-18T13:58:33Z</time>
      </trkpt>
      <trkpt lat="45.729856649413705" lon="6.755585633218288">
        <ele>2010.25</ele>
        <time>2014-07-18T13:58:34Z</time>
      </trkpt>
      <trkpt lat="45.729839215055108" lon="6.755671631544828">
        <ele>2010.25</ele>
        <time>2014-07-18T13:58:42Z</time>
      </trkpt>
      <trkpt lat="45.729699656367302" lon="6.755838431417942">
        <ele>2008.3299999999999</ele>
        <time>2014-07-18T13:58:58Z</time>
      </trkpt>
      <trkpt lat="45.729627320542932" lon="6.756024090573192">
        <ele>2005.45</ele>
        <time>2014-07-18T13:59:11Z</time>
      </trkpt>
      <trkpt lat="45.729620112106204" lon="6.756037585437298">
        <ele>2005.45</ele>
        <time>2014-07-18T13:59:12Z</time>
      </trkpt>
      <trkpt lat="45.729573341086507" lon="6.75617840141058">
        <ele>2005.45</ele>
        <time>2014-07-18T13:59:22Z</time>
      </trkpt>
      <trkpt lat="45.729581387713552" lon="6.756240930408239">
        <ele>2003.52</ele>
        <time>2014-07-18T13:59:26Z</time>
      </trkpt>
      <trkpt lat="45.729637462645769" lon="6.756389541551471">
        <ele>2003.52</ele>
        <time>2014-07-18T13:59:41Z</time>
      </trkpt>
      <trkpt lat="45.729633355513215" lon="6.756383590400219">
        <ele>2003.52</ele>
        <time>2014-07-18T13:59:55Z</time>
      </trkpt>
      <trkpt lat="45.729613741859794" lon="6.756388703361154">
        <ele>2003.52</ele>
        <time>2014-07-18T14:00:22Z</time>
      </trkpt>
      <trkpt lat="45.729590440168977" lon="6.756419464945793">
        <ele>2003.04</ele>
        <time>2014-07-18T14:00:25Z</time>
      </trkpt>
      <trkpt lat="45.729620279744267" lon="6.756480736657977">
        <ele>2003.04</ele>
        <time>2014-07-18T14:00:29Z</time>
      </trkpt>
      <trkpt lat="45.729697979986668" lon="6.756751220673323">
        <ele>2001.5999999999999</ele>
        <time>2014-07-18T14:00:46Z</time>
      </trkpt>
      <trkpt lat="45.729708876460791" lon="6.756778042763472">
        <ele>2001.5999999999999</ele>
        <time>2014-07-18T14:00:48Z</time>
      </trkpt>
      <trkpt lat="45.729734525084496" lon="6.756862364709377">
        <ele>2001.1199999999999</ele>
        <time>2014-07-18T14:01:03Z</time>
      </trkpt>
      <trkpt lat="45.729735111817718" lon="6.756867645308375">
        <ele>2001.5999999999999</ele>
        <time>2014-07-18T14:01:05Z</time>
      </trkpt>
      <trkpt lat="45.729757575318217" lon="6.756941070780158">
        <ele>2001.1199999999999</ele>
        <time>2014-07-18T14:01:10Z</time>
      </trkpt>
      <trkpt lat="45.729803256690502" lon="6.757112732157111">
        <ele>1999.6800000000001</ele>
        <time>2014-07-18T14:01:20Z</time>
      </trkpt>
      <trkpt lat="45.729853296652436" lon="6.757443733513355">
        <ele>1997.28</ele>
        <time>2014-07-18T14:01:39Z</time>
      </trkpt>
      <trkpt lat="45.729872575029731" lon="6.757783200591803">
        <ele>1995.3499999999999</ele>
        <time>2014-07-18T14:01:58Z</time>
      </trkpt>
      <trkpt lat="45.729873748496175" lon="6.758101629093289">
        <ele>1992.95</ele>
        <time>2014-07-18T14:02:15Z</time>
      </trkpt>
      <trkpt lat="45.729900151491165" lon="6.758439168334007">
        <ele>1990.55</ele>
        <time>2014-07-18T14:02:35Z</time>
      </trkpt>
      <trkpt lat="45.729898307472467" lon="6.758726499974728">
        <ele>1988.1400000000001</ele>
        <time>2014-07-18T14:02:51Z</time>
      </trkpt>
      <trkpt lat="45.729916244745255" lon="6.759032187983394">
        <ele>1986.22</ele>
        <time>2014-07-18T14:03:09Z</time>
      </trkpt>
      <trkpt lat="45.729958489537239" lon="6.759345587342978">
        <ele>1983.3399999999999</ele>
        <time>2014-07-18T14:03:27Z</time>
      </trkpt>
      <trkpt lat="45.730057815089822" lon="6.759662088006735">
        <ele>1980.9300000000001</ele>
        <time>2014-07-18T14:03:46Z</time>
      </trkpt>
      <trkpt lat="45.730028310790658" lon="6.760020246729255">
        <ele>1979.49</ele>
        <time>2014-07-18T14:04:05Z</time>
      </trkpt>
      <trkpt lat="45.729984138160944" lon="6.760273883119226">
        <ele>1978.53</ele>
        <time>2014-07-18T14:04:19Z</time>
      </trkpt>
      <trkpt lat="45.72996293194592" lon="6.760333310812712">
        <ele>1977.5699999999999</ele>
        <time>2014-07-18T14:04:23Z</time>
      </trkpt>
      <trkpt lat="45.729842651635408" lon="6.760562220588327">
        <ele>1975.6500000000001</ele>
        <time>2014-07-18T14:04:39Z</time>
      </trkpt>
      <trkpt lat="45.729823540896177" lon="6.760812671855092">
        <ele>1973.72</ele>
        <time>2014-07-18T14:04:52Z</time>
      </trkpt>
      <trkpt lat="45.729823289439082" lon="6.760923564434052">
        <ele>1973.24</ele>
        <time>2014-07-18T14:04:58Z</time>
      </trkpt>
      <trkpt lat="45.729703595861793" lon="6.761116096749902">
        <ele>1971.3199999999999</ele>
        <time>2014-07-18T14:05:16Z</time>
      </trkpt>
      <trkpt lat="45.72963897138834" lon="6.761188851669431">
        <ele>1970.8399999999999</ele>
        <time>2014-07-18T14:05:23Z</time>
      </trkpt>
      <trkpt lat="45.729595217853785" lon="6.761290356516838">
        <ele>1969.4000000000001</ele>
        <time>2014-07-18T14:05:36Z</time>
      </trkpt>
      <trkpt lat="45.729609886184335" lon="6.761311981827021">
        <ele>1969.8800000000001</ele>
        <time>2014-07-18T14:05:43Z</time>
      </trkpt>
      <trkpt lat="45.729621453210711" lon="6.761378031224012">
        <ele>1969.4000000000001</ele>
        <time>2014-07-18T14:05:48Z</time>
      </trkpt>
      <trkpt lat="45.729699237272143" lon="6.761554386466742">
        <ele>1968.9200000000001</ele>
        <time>2014-07-18T14:06:01Z</time>
      </trkpt>
      <trkpt lat="45.729813482612371" lon="6.761708194389939">
        <ele>1966.99</ele>
        <time>2014-07-18T14:06:15Z</time>
      </trkpt>
      <trkpt lat="45.729926722124219" lon="6.761983875185251">
        <ele>1965.0699999999999</ele>
        <time>2014-07-18T14:06:32Z</time>
      </trkpt>
      <trkpt lat="45.729981791228056" lon="6.76236055791378">
        <ele>1962.1900000000001</ele>
        <time>2014-07-18T14:06:53Z</time>
      </trkpt>
      <trkpt lat="45.730042308568954" lon="6.762683177366853">
        <ele>1960.27</ele>
        <time>2014-07-18T14:07:14Z</time>
      </trkpt>
      <trkpt lat="45.730147669091821" lon="6.763016358017921">
        <ele>1957.8599999999999</ele>
        <time>2014-07-18T14:07:36Z</time>
      </trkpt>
      <trkpt lat="45.730157811194658" lon="6.76302507519722">
        <ele>1957.8599999999999</ele>
        <time>2014-07-18T14:07:37Z</time>
      </trkpt>
      <trkpt lat="45.73019259609282" lon="6.76306857727468">
        <ele>1957.8599999999999</ele>
        <time>2014-07-18T14:07:41Z</time>
      </trkpt>
      <trkpt lat="45.730268452316523" lon="6.763169914484024">
        <ele>1956.4200000000001</ele>
        <time>2014-07-18T14:07:49Z</time>
      </trkpt>
      <trkpt lat="45.730318995192647" lon="6.763205034658313">
        <ele>1956.4200000000001</ele>
        <time>2014-07-18T14:07:54Z</time>
      </trkpt>
      <trkpt lat="45.730386972427368" lon="6.763292793184519">
        <ele>1955.46</ele>
        <time>2014-07-18T14:08:02Z</time>
      </trkpt>
      <trkpt lat="45.730433156713843" lon="6.763573251664639">
        <ele>1954.02</ele>
        <time>2014-07-18T14:08:18Z</time>
      </trkpt>
      <trkpt lat="45.73043106123805" lon="6.763683976605535">
        <ele>1953.0599999999999</ele>
        <time>2014-07-18T14:08:29Z</time>
      </trkpt>
      <trkpt lat="45.73041052557528" lon="6.763826301321387">
        <ele>1953.54</ele>
        <time>2014-07-18T14:08:37Z</time>
      </trkpt>
      <trkpt lat="45.73041345924139" lon="6.763892350718379">
        <ele>1951.6099999999999</ele>
        <time>2014-07-18T14:08:40Z</time>
      </trkpt>
      <trkpt lat="45.730503899976611" lon="6.7641347553581">
        <ele>1949.6900000000001</ele>
        <time>2014-07-18T14:08:56Z</time>
      </trkpt>
      <trkpt lat="45.730609344318509" lon="6.764326533302665">
        <ele>1948.25</ele>
        <time>2014-07-18T14:09:11Z</time>
      </trkpt>
      <trkpt lat="45.730653768405318" lon="6.764408759772778">
        <ele>1946.8099999999999</ele>
        <time>2014-07-18T14:09:17Z</time>
      </trkpt>
      <trkpt lat="45.730694252997637" lon="6.76447045058012">
        <ele>1945.8499999999999</ele>
        <time>2014-07-18T14:09:22Z</time>
      </trkpt>
      <trkpt lat="45.730770779773593" lon="6.764599196612835">
        <ele>1945.3599999999999</ele>
        <time>2014-07-18T14:09:32Z</time>
      </trkpt>
      <trkpt lat="45.73089717887342" lon="6.764805559068918">
        <ele>1943.4400000000001</ele>
        <time>2014-07-18T14:09:47Z</time>
      </trkpt>
      <trkpt lat="45.730901705101132" lon="6.7649204749614">
        <ele>1942.48</ele>
        <time>2014-07-18T14:09:54Z</time>
      </trkpt>
      <trkpt lat="45.730873374268413" lon="6.764981243759394">
        <ele>1942</ele>
        <time>2014-07-18T14:09:58Z</time>
      </trkpt>
      <trkpt lat="45.730728367343545" lon="6.764926761388779">
        <ele>1941.04</ele>
        <time>2014-07-18T14:10:11Z</time>
      </trkpt>
      <trkpt lat="45.73059719055891" lon="6.764669185504317">
        <ele>1939.5999999999999</ele>
        <time>2014-07-18T14:10:28Z</time>
      </trkpt>
      <trkpt lat="45.730479843914509" lon="6.764514707028866">
        <ele>1938.1600000000001</ele>
        <time>2014-07-18T14:10:41Z</time>
      </trkpt>
      <trkpt lat="45.730318995192647" lon="6.764405658468604">
        <ele>1936.71</ele>
        <time>2014-07-18T14:10:54Z</time>
      </trkpt>
      <trkpt lat="45.730134593322873" lon="6.764228213578463">
        <ele>1934.79</ele>
        <time>2014-07-18T14:11:12Z</time>
      </trkpt>
      <trkpt lat="45.729979444295168" lon="6.764009362086654">
        <ele>1933.3499999999999</ele>
        <time>2014-07-18T14:11:28Z</time>
      </trkpt>
      <trkpt lat="45.729879280552268" lon="6.763703171163797">
        <ele>1930.95</ele>
        <time>2014-07-18T14:11:45Z</time>
      </trkpt>
      <trkpt lat="45.729697560891509" lon="6.763649778440595">
        <ele>1929.02</ele>
        <time>2014-07-18T14:12:00Z</time>
      </trkpt>
      <trkpt lat="45.729462532326579" lon="6.763597643002868">
        <ele>1926.6199999999999</ele>
        <time>2014-07-18T14:12:19Z</time>
      </trkpt>
      <trkpt lat="45.729403523728251" lon="6.763563277199864">
        <ele>1925.6600000000001</ele>
        <time>2014-07-18T14:12:24Z</time>
      </trkpt>
      <trkpt lat="45.729355327785015" lon="6.763547267764807">
        <ele>1925.1800000000001</ele>
        <time>2014-07-18T14:12:28Z</time>
      </trkpt>
      <trkpt lat="45.729111079126596" lon="6.763530755415559">
        <ele>1923.74</ele>
        <time>2014-07-18T14:12:47Z</time>
      </trkpt>
      <trkpt lat="45.72896221652627" lon="6.763466633856297">
        <ele>1922.77</ele>
        <time>2014-07-18T14:13:00Z</time>
      </trkpt>
      <trkpt lat="45.72891435585916" lon="6.763428244739771">
        <ele>1923.74</ele>
        <time>2014-07-18T14:13:04Z</time>
      </trkpt>
      <trkpt lat="45.728891892358661" lon="6.763416761532426">
        <ele>1923.74</ele>
        <time>2014-07-18T14:13:06Z</time>
      </trkpt>
      <trkpt lat="45.728868925943971" lon="6.76339840516448">
        <ele>1921.8099999999999</ele>
        <time>2014-07-18T14:13:08Z</time>
      </trkpt>
      <trkpt lat="45.728816706687212" lon="6.763362446799874">
        <ele>1921.8099999999999</ele>
        <time>2014-07-18T14:13:12Z</time>
      </trkpt>
      <trkpt lat="45.728665580973029" lon="6.763155497610569">
        <ele>1919.4100000000001</ele>
        <time>2014-07-18T14:13:29Z</time>
      </trkpt>
      <trkpt lat="45.728576984256506" lon="6.762893311679363">
        <ele>1917.01</ele>
        <time>2014-07-18T14:13:44Z</time>
      </trkpt>
      <trkpt lat="45.728490734472871" lon="6.762750567868352">
        <ele>1916.04</ele>
        <time>2014-07-18T14:13:54Z</time>
      </trkpt>
      <trkpt lat="45.728343296796083" lon="6.762518975883722">
        <ele>1913.6400000000001</ele>
        <time>2014-07-18T14:14:11Z</time>
      </trkpt>
      <trkpt lat="45.728156631812453" lon="6.762285875156522">
        <ele>1910.76</ele>
        <time>2014-07-18T14:14:29Z</time>
      </trkpt>
      <trkpt lat="45.728018833324313" lon="6.762066185474396">
        <ele>1907.3900000000001</ele>
        <time>2014-07-18T14:14:45Z</time>
      </trkpt>
      <trkpt lat="45.728011121973395" lon="6.762051098048687">
        <ele>1907.3900000000001</ele>
        <time>2014-07-18T14:14:46Z</time>
      </trkpt>
      <trkpt lat="45.727886650711298" lon="6.761822858825326">
        <ele>1906.9100000000001</ele>
        <time>2014-07-18T14:15:02Z</time>
      </trkpt>
      <trkpt lat="45.727788414806128" lon="6.76176100037992">
        <ele>1907.3900000000001</ele>
        <time>2014-07-18T14:15:11Z</time>
      </trkpt>
      <trkpt lat="45.727758072316647" lon="6.761716995388269">
        <ele>1906.4300000000001</ele>
        <time>2014-07-18T14:15:15Z</time>
      </trkpt>
      <trkpt lat="45.727730579674244" lon="6.761688496917486">
        <ele>1906.4300000000001</ele>
        <time>2014-07-18T14:15:20Z</time>
      </trkpt>
      <trkpt lat="45.727678779512644" lon="6.761788995936513">
        <ele>1904.51</ele>
        <time>2014-07-18T14:15:27Z</time>
      </trkpt>
      <trkpt lat="45.727681461721659" lon="6.761852279305458">
        <ele>1903.0699999999999</ele>
        <time>2014-07-18T14:15:31Z</time>
      </trkpt>
      <trkpt lat="45.727735357359052" lon="6.762036932632327">
        <ele>1899.7</ele>
        <time>2014-07-18T14:15:44Z</time>
      </trkpt>
      <trkpt lat="45.727786906063557" lon="6.762185040861368">
        <ele>1896.3399999999999</ele>
        <time>2014-07-18T14:15:55Z</time>
      </trkpt>
      <trkpt lat="45.727795707061887" lon="6.762186465784907">
        <ele>1896.3399999999999</ele>
        <time>2014-07-18T14:16:08Z</time>
      </trkpt>
      <trkpt lat="45.727788330987096" lon="6.76222225651145">
        <ele>1895.8599999999999</ele>
        <time>2014-07-18T14:16:25Z</time>
      </trkpt>
      <trkpt lat="45.727799646556377" lon="6.762292580679059">
        <ele>1894.4200000000001</ele>
        <time>2014-07-18T14:16:32Z</time>
      </trkpt>
      <trkpt lat="45.727805765345693" lon="6.762501876801252">
        <ele>1891.05</ele>
        <time>2014-07-18T14:16:47Z</time>
      </trkpt>
      <trkpt lat="45.727822110056877" lon="6.762622324749827">
        <ele>1888.1700000000001</ele>
        <time>2014-07-18T14:16:56Z</time>
      </trkpt>
      <trkpt lat="45.72781884111464" lon="6.762645626440644">
        <ele>1887.21</ele>
        <time>2014-07-18T14:16:58Z</time>
      </trkpt>
      <trkpt lat="45.727791097015142" lon="6.762691810727119">
        <ele>1885.76</ele>
        <time>2014-07-18T14:17:03Z</time>
      </trkpt>
      <trkpt lat="45.727757653221488" lon="6.762820640578866">
        <ele>1882.8800000000001</ele>
        <time>2014-07-18T14:17:13Z</time>
      </trkpt>
      <trkpt lat="45.727751785889268" lon="6.762860035523772">
        <ele>1880.96</ele>
        <time>2014-07-18T14:17:19Z</time>
      </trkpt>
      <trkpt lat="45.727749522775412" lon="6.762885684147477">
        <ele>1880.48</ele>
        <time>2014-07-18T14:17:21Z</time>
      </trkpt>
      <trkpt lat="45.72774700820446" lon="6.763016358017921">
        <ele>1877.5899999999999</ele>
        <time>2014-07-18T14:17:35Z</time>
      </trkpt>
      <trkpt lat="45.727743823081255" lon="6.763031948357821">
        <ele>1877.5899999999999</ele>
        <time>2014-07-18T14:17:36Z</time>
      </trkpt>
      <trkpt lat="45.727717923000455" lon="6.763205956667662">
        <ele>1874.23</ele>
        <time>2014-07-18T14:17:50Z</time>
      </trkpt>
      <trkpt lat="45.727672995999455" lon="6.763337217271328">
        <ele>1871.3399999999999</ele>
        <time>2014-07-18T14:18:02Z</time>
      </trkpt>
      <trkpt lat="45.727596217766404" lon="6.763481972739101">
        <ele>1867.98</ele>
        <time>2014-07-18T14:18:14Z</time>
      </trkpt>
      <trkpt lat="45.727582555264235" lon="6.763499574735761">
        <ele>1867.5</ele>
        <time>2014-07-18T14:18:16Z</time>
      </trkpt>
      <trkpt lat="45.727562438696623" lon="6.763498904183507">
        <ele>1867.02</ele>
        <time>2014-07-18T14:18:18Z</time>
      </trkpt>
      <trkpt lat="45.727531174197793" lon="6.763468561694026">
        <ele>1865.5799999999999</ele>
        <time>2014-07-18T14:18:21Z</time>
      </trkpt>
      <trkpt lat="45.727512650191784" lon="6.76343796774745">
        <ele>1865.5799999999999</ele>
        <time>2014-07-18T14:18:23Z</time>
      </trkpt>
      <trkpt lat="45.727492114529014" lon="6.763425981625915">
        <ele>1865.5799999999999</ele>
        <time>2014-07-18T14:18:25Z</time>
      </trkpt>
      <trkpt lat="45.727487001568079" lon="6.76345800049603">
        <ele>1864.1300000000001</ele>
        <time>2014-07-18T14:18:27Z</time>
      </trkpt>
      <trkpt lat="45.727479876950383" lon="6.763578783720732">
        <ele>1863.1700000000001</ele>
        <time>2014-07-18T14:18:33Z</time>
      </trkpt>
      <trkpt lat="45.727475015446544" lon="6.763763772323728">
        <ele>1862.21</ele>
        <time>2014-07-18T14:18:43Z</time>
      </trkpt>
      <trkpt lat="45.727470070123672" lon="6.763793360441923">
        <ele>1861.73</ele>
        <time>2014-07-18T14:18:45Z</time>
      </trkpt>
      <trkpt lat="45.727477110922337" lon="6.763858068734407">
        <ele>1861.73</ele>
        <time>2014-07-18T14:18:49Z</time>
      </trkpt>
      <trkpt lat="45.727480547502637" lon="6.764182867482305">
        <ele>1859.3299999999999</ele>
        <time>2014-07-18T14:19:07Z</time>
      </trkpt>
      <trkpt lat="45.727469315752387" lon="6.764434911310673">
        <ele>1857.4000000000001</ele>
        <time>2014-07-18T14:19:22Z</time>
      </trkpt>
      <trkpt lat="45.727493455633521" lon="6.764729367569089">
        <ele>1855</ele>
        <time>2014-07-18T14:19:39Z</time>
      </trkpt>
      <trkpt lat="45.727638462558389" lon="6.765005886554718">
        <ele>1852.5999999999999</ele>
        <time>2014-07-18T14:19:58Z</time>
      </trkpt>
      <trkpt lat="45.727821858599782" lon="6.765243262052536">
        <ele>1850.1900000000001</ele>
        <time>2014-07-18T14:20:17Z</time>
      </trkpt>
      <trkpt lat="45.727892098948359" lon="6.765327751636505">
        <ele>1849.23</ele>
        <time>2014-07-18T14:20:24Z</time>
      </trkpt>
      <trkpt lat="45.727930404245853" lon="6.765378378331661">
        <ele>1848.75</ele>
        <time>2014-07-18T14:20:28Z</time>
      </trkpt>
      <trkpt lat="45.728116063401103" lon="6.765576107427478">
        <ele>1846.8299999999999</ele>
        <time>2014-07-18T14:20:46Z</time>
      </trkpt>
      <trkpt lat="45.728254951536655" lon="6.765766711905599">
        <ele>1844.9100000000001</ele>
        <time>2014-07-18T14:21:00Z</time>
      </trkpt>
      <trkpt lat="45.728303398936987" lon="6.765843071043491">
        <ele>1844.4300000000001</ele>
        <time>2014-07-18T14:21:06Z</time>
      </trkpt>
      <trkpt lat="45.728388307616115" lon="6.765942731872201">
        <ele>1843.95</ele>
        <time>2014-07-18T14:21:14Z</time>
      </trkpt>
      <trkpt lat="45.728499367833138" lon="6.766072399914265">
        <ele>1841.54</ele>
        <time>2014-07-18T14:21:25Z</time>
      </trkpt>
      <trkpt lat="45.728561142459512" lon="6.766139287501574">
        <ele>1840.5799999999999</ele>
        <time>2014-07-18T14:21:31Z</time>
      </trkpt>
      <trkpt lat="45.728577068075538" lon="6.766214305534959">
        <ele>1840.0999999999999</ele>
        <time>2014-07-18T14:21:35Z</time>
      </trkpt>
      <trkpt lat="45.72842912748456" lon="6.766206426545978">
        <ele>1838.6600000000001</ele>
        <time>2014-07-18T14:21:48Z</time>
      </trkpt>
      <trkpt lat="45.728395013138652" lon="6.766214305534959">
        <ele>1836.74</ele>
        <time>2014-07-18T14:21:54Z</time>
      </trkpt>
      <trkpt lat="45.728348745033145" lon="6.766238026320934">
        <ele>1834.8099999999999</ele>
        <time>2014-07-18T14:22:11Z</time>
      </trkpt>
      <trkpt lat="45.7282888982445" lon="6.766248419880867">
        <ele>1832.8900000000001</ele>
        <time>2014-07-18T14:22:23Z</time>
      </trkpt>
      <trkpt lat="45.728224692866206" lon="6.766299633309245">
        <ele>1831.45</ele>
        <time>2014-07-18T14:22:31Z</time>
      </trkpt>
      <trkpt lat="45.728164259344339" lon="6.766363838687539">
        <ele>1829.53</ele>
        <time>2014-07-18T14:22:38Z</time>
      </trkpt>
      <trkpt lat="45.728106508031487" lon="6.766413543373346">
        <ele>1828.0799999999999</ele>
        <time>2014-07-18T14:22:44Z</time>
      </trkpt>
      <trkpt lat="45.728011876344681" lon="6.766474647447467">
        <ele>1825.2</ele>
        <time>2014-07-18T14:22:58Z</time>
      </trkpt>
      <trkpt lat="45.728010199964046" lon="6.766478838399053">
        <ele>1825.2</ele>
        <time>2014-07-18T14:23:00Z</time>
      </trkpt>
      <trkpt lat="45.728043643757701" lon="6.766641363501549">
        <ele>1823.76</ele>
        <time>2014-07-18T14:23:11Z</time>
      </trkpt>
      <trkpt lat="45.728033417835832" lon="6.76666047424078">
        <ele>1823.28</ele>
        <time>2014-07-18T14:23:13Z</time>
      </trkpt>
      <trkpt lat="45.728013133630157" lon="6.766696935519576">
        <ele>1822.8</ele>
        <time>2014-07-18T14:23:21Z</time>
      </trkpt>
      <trkpt lat="45.72781004011631" lon="6.766567267477512">
        <ele>1819.9100000000001</ele>
        <time>2014-07-18T14:23:38Z</time>
      </trkpt>
      <trkpt lat="45.727674420922995" lon="6.76665754057467">
        <ele>1817.51</ele>
        <time>2014-07-18T14:23:51Z</time>
      </trkpt>
      <trkpt lat="45.727638714015484" lon="6.766774971038103">
        <ele>1816.0699999999999</ele>
        <time>2014-07-18T14:23:58Z</time>
      </trkpt>
      <trkpt lat="45.727652376517653" lon="6.766869770362973">
        <ele>1815.1099999999999</ele>
        <time>2014-07-18T14:24:03Z</time>
      </trkpt>
      <trkpt lat="45.727578699588776" lon="6.767138913273811">
        <ele>1813.6600000000001</ele>
        <time>2014-07-18T14:24:18Z</time>
      </trkpt>
      <trkpt lat="45.727501502260566" lon="6.767342342063785">
        <ele>1811.26</ele>
        <time>2014-07-18T14:24:32Z</time>
      </trkpt>
      <trkpt lat="45.72750904597342" lon="6.767490785568953">
        <ele>1809.8199999999999</ele>
        <time>2014-07-18T14:24:46Z</time>
      </trkpt>
      <trkpt lat="45.727496389299631" lon="6.767498580738902">
        <ele>1809.8199999999999</ele>
        <time>2014-07-18T14:25:01Z</time>
      </trkpt>
      <trkpt lat="45.727495048195124" lon="6.767479386180639">
        <ele>1809.8199999999999</ele>
        <time>2014-07-18T14:25:18Z</time>
      </trkpt>
      <trkpt lat="45.727498736232519" lon="6.767488857731223">
        <ele>1809.8199999999999</ele>
        <time>2014-07-18T14:25:41Z</time>
      </trkpt>
      <trkpt lat="45.727493539452553" lon="6.767533281818032">
        <ele>1809.3399999999999</ele>
        <time>2014-07-18T14:26:01Z</time>
      </trkpt>
      <trkpt lat="45.727498400956392" lon="6.767629338428378">
        <ele>1808.3800000000001</ele>
        <time>2014-07-18T14:26:14Z</time>
      </trkpt>
      <trkpt lat="45.727483816444874" lon="6.76761475391686">
        <ele>1807.9000000000001</ele>
        <time>2014-07-18T14:26:31Z</time>
      </trkpt>
      <trkpt lat="45.727502843365073" lon="6.767728328704834">
        <ele>1806.9400000000001</ele>
        <time>2014-07-18T14:26:50Z</time>
      </trkpt>
      <trkpt lat="45.727504771202803" lon="6.767759928479791">
        <ele>1805.97</ele>
        <time>2014-07-18T14:26:53Z</time>
      </trkpt>
      <trkpt lat="45.727477362379432" lon="6.767973667010665">
        <ele>1802.6099999999999</ele>
        <time>2014-07-18T14:27:07Z</time>
      </trkpt>
      <trkpt lat="45.727473339065909" lon="6.768008787184954">
        <ele>1802.1300000000001</ele>
        <time>2014-07-18T14:27:09Z</time>
      </trkpt>
      <trkpt lat="45.727401589974761" lon="6.768287485465407">
        <ele>1799.73</ele>
        <time>2014-07-18T14:27:26Z</time>
      </trkpt>
      <trkpt lat="45.727342749014497" lon="6.768563166260719">
        <ele>1797.8</ele>
        <time>2014-07-18T14:27:41Z</time>
      </trkpt>
      <trkpt lat="45.727322045713663" lon="6.768817054107785">
        <ele>1795.4000000000001</ele>
        <time>2014-07-18T14:27:55Z</time>
      </trkpt>
      <trkpt lat="45.727327158674598" lon="6.768920319154859">
        <ele>1794.9200000000001</ele>
        <time>2014-07-18T14:28:01Z</time>
      </trkpt>
      <trkpt lat="45.727430088445544" lon="6.769083011895418">
        <ele>1794.9200000000001</ele>
        <time>2014-07-18T14:28:15Z</time>
      </trkpt>
      <trkpt lat="45.727450288832188" lon="6.769093908369541">
        <ele>1795.4000000000001</ele>
        <time>2014-07-18T14:28:18Z</time>
      </trkpt>
      <trkpt lat="45.72758967988193" lon="6.769222486764193">
        <ele>1796.3599999999999</ele>
        <time>2014-07-18T14:28:35Z</time>
      </trkpt>
      <trkpt lat="45.72768297046423" lon="6.76932105794549">
        <ele>1797.8</ele>
        <time>2014-07-18T14:28:48Z</time>
      </trkpt>
      <trkpt lat="45.727783134207129" lon="6.769423149526119">
        <ele>1799.24</ele>
        <time>2014-07-18T14:29:02Z</time>
      </trkpt>
      <trkpt lat="45.727811129763722" lon="6.769460784271359">
        <ele>1799.73</ele>
        <time>2014-07-18T14:29:06Z</time>
      </trkpt>
      <trkpt lat="45.727904923260212" lon="6.769608641043305">
        <ele>1801.6500000000001</ele>
        <time>2014-07-18T14:29:21Z</time>
      </trkpt>
      <trkpt lat="45.728032076731324" lon="6.769646191969514">
        <ele>1801.1700000000001</ele>
        <time>2014-07-18T14:29:36Z</time>
      </trkpt>
      <trkpt lat="45.728076919913292" lon="6.76963722333312">
        <ele>1802.6099999999999</ele>
        <time>2014-07-18T14:29:43Z</time>
      </trkpt>
      <trkpt lat="45.728116482496262" lon="6.769627165049315">
        <ele>1803.0899999999999</ele>
        <time>2014-07-18T14:29:47Z</time>
      </trkpt>
      <trkpt lat="45.728189907968044" lon="6.769618950784206">
        <ele>1804.05</ele>
        <time>2014-07-18T14:29:55Z</time>
      </trkpt>
      <trkpt lat="45.728223938494921" lon="6.769631775096059">
        <ele>1805.01</ele>
        <time>2014-07-18T14:29:58Z</time>
      </trkpt>
      <trkpt lat="45.728352516889572" lon="6.769742583855987">
        <ele>1806.9400000000001</ele>
        <time>2014-07-18T14:30:13Z</time>
      </trkpt>
      <trkpt lat="45.728455362841487" lon="6.769806537777185">
        <ele>1808.3800000000001</ele>
        <time>2014-07-18T14:30:25Z</time>
      </trkpt>
      <trkpt lat="45.728637166321278" lon="6.769848614931107">
        <ele>1810.3</ele>
        <time>2014-07-18T14:30:43Z</time>
      </trkpt>
      <trkpt lat="45.728778652846813" lon="6.769926985725761">
        <ele>1811.74</ele>
        <time>2014-07-18T14:30:58Z</time>
      </trkpt>
      <trkpt lat="45.728912595659494" lon="6.770108453929424">
        <ele>1813.6600000000001</ele>
        <time>2014-07-18T14:31:15Z</time>
      </trkpt>
      <trkpt lat="45.72902474552393" lon="6.770284390076995">
        <ele>1815.1099999999999</ele>
        <time>2014-07-18T14:31:31Z</time>
      </trkpt>
      <trkpt lat="45.729151396080852" lon="6.770457727834582">
        <ele>1816.55</ele>
        <time>2014-07-18T14:31:47Z</time>
      </trkpt>
      <trkpt lat="45.729273939505219" lon="6.770657887682319">
        <ele>1817.99</ele>
        <time>2014-07-18T14:32:05Z</time>
      </trkpt>
      <trkpt lat="45.729394219815731" lon="6.770761488005519">
        <ele>1819.4300000000001</ele>
        <time>2014-07-18T14:32:19Z</time>
      </trkpt>
      <trkpt lat="45.72951533831656" lon="6.770870704203844">
        <ele>1820.8699999999999</ele>
        <time>2014-07-18T14:32:32Z</time>
      </trkpt>
      <trkpt lat="45.729640396311879" lon="6.771018141880631">
        <ele>1821.8399999999999</ele>
        <time>2014-07-18T14:32:47Z</time>
      </trkpt>
      <trkpt lat="45.729759586974978" lon="6.771215284243226">
        <ele>1823.28</ele>
        <time>2014-07-18T14:33:04Z</time>
      </trkpt>
      <trkpt lat="45.729927560314536" lon="6.771379821002483">
        <ele>1825.2</ele>
        <time>2014-07-18T14:33:23Z</time>
      </trkpt>
      <trkpt lat="45.730036189779639" lon="6.771599426865578">
        <ele>1826.6400000000001</ele>
        <time>2014-07-18T14:33:40Z</time>
      </trkpt>
      <trkpt lat="45.730048594996333" lon="6.771812830120325">
        <ele>1828.0799999999999</ele>
        <time>2014-07-18T14:33:54Z</time>
      </trkpt>
      <trkpt lat="45.730051947757602" lon="6.772035788744688">
        <ele>1830.01</ele>
        <time>2014-07-18T14:34:09Z</time>
      </trkpt>
      <trkpt lat="45.730049600824714" lon="6.772235948592424">
        <ele>1831.9300000000001</ele>
        <time>2014-07-18T14:34:22Z</time>
      </trkpt>
      <trkpt lat="45.730063933879137" lon="6.772465445101261">
        <ele>1833.8499999999999</ele>
        <time>2014-07-18T14:34:37Z</time>
      </trkpt>
      <trkpt lat="45.730139454826713" lon="6.772666275501251">
        <ele>1835.77</ele>
        <time>2014-07-18T14:34:53Z</time>
      </trkpt>
      <trkpt lat="45.730222938582301" lon="6.772791501134634">
        <ele>1836.26</ele>
        <time>2014-07-18T14:35:06Z</time>
      </trkpt>
      <trkpt lat="45.730313966050744" lon="6.772993840277195">
        <ele>1838.6600000000001</ele>
        <time>2014-07-18T14:35:22Z</time>
      </trkpt>
      <trkpt lat="45.73043935932219" lon="6.773142786696553">
        <ele>1840.0999999999999</ele>
        <time>2014-07-18T14:35:37Z</time>
      </trkpt>
      <trkpt lat="45.730551173910499" lon="6.773322159424424">
        <ele>1841.54</ele>
        <time>2014-07-18T14:35:52Z</time>
      </trkpt>
      <trkpt lat="45.730701461434364" lon="6.773432716727257">
        <ele>1843.47</ele>
        <time>2014-07-18T14:36:10Z</time>
      </trkpt>
      <trkpt lat="45.730736749246716" lon="6.773456521332264">
        <ele>1843.95</ele>
        <time>2014-07-18T14:36:14Z</time>
      </trkpt>
      <trkpt lat="45.730859376490116" lon="6.773598846048117">
        <ele>1845.3900000000001</ele>
        <time>2014-07-18T14:36:29Z</time>
      </trkpt>
      <trkpt lat="45.730958618223667" lon="6.773799173533917">
        <ele>1846.8299999999999</ele>
        <time>2014-07-18T14:36:45Z</time>
      </trkpt>
      <trkpt lat="45.73106087744236" lon="6.773963710293174">
        <ele>1848.27</ele>
        <time>2014-07-18T14:36:59Z</time>
      </trkpt>
      <trkpt lat="45.731165064498782" lon="6.774120954796672">
        <ele>1849.23</ele>
        <time>2014-07-18T14:37:13Z</time>
      </trkpt>
      <trkpt lat="45.731292553246021" lon="6.774316756054759">
        <ele>1851.1600000000001</ele>
        <time>2014-07-18T14:37:30Z</time>
      </trkpt>
      <trkpt lat="45.731392884626985" lon="6.774503169581294">
        <ele>1852.5999999999999</ele>
        <time>2014-07-18T14:37:45Z</time>
      </trkpt>
      <trkpt lat="45.731532694771886" lon="6.774688744917512">
        <ele>1853.5599999999999</ele>
        <time>2014-07-18T14:38:02Z</time>
      </trkpt>
      <trkpt lat="45.731700835749507" lon="6.774793434888125">
        <ele>1855.48</ele>
        <time>2014-07-18T14:38:19Z</time>
      </trkpt>
      <trkpt lat="45.731863444671035" lon="6.774886222556233">
        <ele>1857.4000000000001</ele>
        <time>2014-07-18T14:38:36Z</time>
      </trkpt>
      <trkpt lat="45.731928236782551" lon="6.774922264739871">
        <ele>1855.96</ele>
        <time>2014-07-18T14:38:42Z</time>
      </trkpt>
      <trkpt lat="45.731979282572865" lon="6.774970209226012">
        <ele>1858.3699999999999</ele>
        <time>2014-07-18T14:38:47Z</time>
      </trkpt>
      <trkpt lat="45.732144489884377" lon="6.775083281099796">
        <ele>1860.77</ele>
        <time>2014-07-18T14:39:06Z</time>
      </trkpt>
      <trkpt lat="45.732244066894054" lon="6.775207165628672">
        <ele>1861.73</ele>
        <time>2014-07-18T14:39:18Z</time>
      </trkpt>
      <trkpt lat="45.732318414375186" lon="6.775317220017314">
        <ele>1862.6900000000001</ele>
        <time>2014-07-18T14:39:30Z</time>
      </trkpt>
      <trkpt lat="45.732414638623595" lon="6.77549684420228">
        <ele>1864.6099999999999</ele>
        <time>2014-07-18T14:39:45Z</time>
      </trkpt>
      <trkpt lat="45.732507929205894" lon="6.775631541386247">
        <ele>1865.5799999999999</ele>
        <time>2014-07-18T14:39:58Z</time>
      </trkpt>
      <trkpt lat="45.732516814023256" lon="6.775642270222306">
        <ele>1866.0599999999999</ele>
        <time>2014-07-18T14:39:59Z</time>
      </trkpt>
      <trkpt lat="45.732549587264657" lon="6.775697590783238">
        <ele>1866.54</ele>
        <time>2014-07-18T14:40:04Z</time>
      </trkpt>
      <trkpt lat="45.732556628063321" lon="6.775727346539497">
        <ele>1866.54</ele>
        <time>2014-07-18T14:40:06Z</time>
      </trkpt>
      <trkpt lat="45.732639608904719" lon="6.775907976552844">
        <ele>1867.98</ele>
        <time>2014-07-18T14:40:20Z</time>
      </trkpt>
      <trkpt lat="45.732649499550462" lon="6.775989700108767">
        <ele>1868.46</ele>
        <time>2014-07-18T14:40:25Z</time>
      </trkpt>
      <trkpt lat="45.732769444584846" lon="6.776137975975871">
        <ele>1868.9400000000001</ele>
        <time>2014-07-18T14:40:40Z</time>
      </trkpt>
      <trkpt lat="45.732782352715731" lon="6.776144178584218">
        <ele>1868.9400000000001</ele>
        <time>2014-07-18T14:40:41Z</time>
      </trkpt>
      <trkpt lat="45.73280431330204" lon="6.776183908805251">
        <ele>1869.4200000000001</ele>
        <time>2014-07-18T14:40:44Z</time>
      </trkpt>
      <trkpt lat="45.732919983565807" lon="6.776347355917096">
        <ele>1870.8599999999999</ele>
        <time>2014-07-18T14:40:58Z</time>
      </trkpt>
      <trkpt lat="45.732992654666305" lon="6.77649705670774">
        <ele>1870.3800000000001</ele>
        <time>2014-07-18T14:41:09Z</time>
      </trkpt>
      <trkpt lat="45.733136320486665" lon="6.776683470234275">
        <ele>1872.3</ele>
        <time>2014-07-18T14:41:26Z</time>
      </trkpt>
      <trkpt lat="45.733171608299017" lon="6.776718506589532">
        <ele>1872.3</ele>
        <time>2014-07-18T14:41:30Z</time>
      </trkpt>
      <trkpt lat="45.733262803405523" lon="6.77680341526866">
        <ele>1872.79</ele>
        <time>2014-07-18T14:41:39Z</time>
      </trkpt>
      <trkpt lat="45.733396830037236" lon="6.777045987546444">
        <ele>1873.75</ele>
        <time>2014-07-18T14:41:57Z</time>
      </trkpt>
      <trkpt lat="45.733509818091989" lon="6.777157466858625">
        <ele>1874.23</ele>
        <time>2014-07-18T14:42:08Z</time>
      </trkpt>
      <trkpt lat="45.733647868037224" lon="6.777237430214882">
        <ele>1875.6700000000001</ele>
        <time>2014-07-18T14:42:22Z</time>
      </trkpt>
      <trkpt lat="45.733842412009835" lon="6.777280513197184">
        <ele>1877.1099999999999</ele>
        <time>2014-07-18T14:42:40Z</time>
      </trkpt>
      <trkpt lat="45.734031926840544" lon="6.77740003913641">
        <ele>1878.55</ele>
        <time>2014-07-18T14:42:58Z</time>
      </trkpt>
      <trkpt lat="45.73419738560915" lon="6.777483858168125">
        <ele>1879.51</ele>
        <time>2014-07-18T14:43:13Z</time>
      </trkpt>
      <trkpt lat="45.73440165258944" lon="6.777572790160775">
        <ele>1881.9200000000001</ele>
        <time>2014-07-18T14:43:33Z</time>
      </trkpt>
      <trkpt lat="45.73459904640913" lon="6.777747804298997">
        <ele>1882.8800000000001</ele>
        <time>2014-07-18T14:43:52Z</time>
      </trkpt>
      <trkpt lat="45.734779760241508" lon="6.777862720191479">
        <ele>1882.8800000000001</ele>
        <time>2014-07-18T14:44:09Z</time>
      </trkpt>
      <trkpt lat="45.734958127140999" lon="6.778043182566762">
        <ele>1884.8</ele>
        <time>2014-07-18T14:44:29Z</time>
      </trkpt>
      <trkpt lat="45.735012190416455" lon="6.778105376288295">
        <ele>1884.3199999999999</ele>
        <time>2014-07-18T14:44:38Z</time>
      </trkpt>
      <trkpt lat="45.735022416338325" lon="6.778168743476272">
        <ele>1884.3199999999999</ele>
        <time>2014-07-18T14:44:42Z</time>
      </trkpt>
      <trkpt lat="45.735047645866871" lon="6.778279049322009">
        <ele>1882.4000000000001</ele>
        <time>2014-07-18T14:44:57Z</time>
      </trkpt>
      <trkpt lat="45.735036246478558" lon="6.778271673247218">
        <ele>1882.4000000000001</ele>
        <time>2014-07-18T14:45:09Z</time>
      </trkpt>
      <trkpt lat="45.735037419945002" lon="6.778344009071589">
        <ele>1882.4000000000001</ele>
        <time>2014-07-18T14:45:13Z</time>
      </trkpt>
      <trkpt lat="45.735086034983397" lon="6.778531093150377">
        <ele>1880.48</ele>
        <time>2014-07-18T14:45:25Z</time>
      </trkpt>
      <trkpt lat="45.735205393284559" lon="6.778487507253885">
        <ele>1878.0699999999999</ele>
        <time>2014-07-18T14:45:36Z</time>
      </trkpt>
      <trkpt lat="45.73526700027287" lon="6.778501756489277">
        <ele>1878.0699999999999</ele>
        <time>2014-07-18T14:45:40Z</time>
      </trkpt>
      <trkpt lat="45.735281920060515" lon="6.77848138846457">
        <ele>1878.55</ele>
        <time>2014-07-18T14:45:42Z</time>
      </trkpt>
      <trkpt lat="45.735402787104249" lon="6.778339063748717">
        <ele>1880.96</ele>
        <time>2014-07-18T14:45:56Z</time>
      </trkpt>
      <trkpt lat="45.735442182049155" lon="6.778270332142711">
        <ele>1880.96</ele>
        <time>2014-07-18T14:46:01Z</time>
      </trkpt>
      <trkpt lat="45.735603868961334" lon="6.77822238765657">
        <ele>1882.8800000000001</ele>
        <time>2014-07-18T14:46:17Z</time>
      </trkpt>
      <trkpt lat="45.735714510083199" lon="6.778231356292963">
        <ele>1883.3599999999999</ele>
        <time>2014-07-18T14:46:26Z</time>
      </trkpt>
      <trkpt lat="45.735801262781024" lon="6.778212916105986">
        <ele>1883.8399999999999</ele>
        <time>2014-07-18T14:46:42Z</time>
      </trkpt>
      <trkpt lat="45.735853649675846" lon="6.778240827843547">
        <ele>1883.8399999999999</ele>
        <time>2014-07-18T14:46:55Z</time>
      </trkpt>
      <trkpt lat="45.735962279140949" lon="6.778342081233859">
        <ele>1882.4000000000001</ele>
        <time>2014-07-18T14:47:05Z</time>
      </trkpt>
      <trkpt lat="45.736043080687523" lon="6.778393881395459">
        <ele>1882.4000000000001</ele>
        <time>2014-07-18T14:47:12Z</time>
      </trkpt>
      <trkpt lat="45.736176604405046" lon="6.778504438698292">
        <ele>1882.8800000000001</ele>
        <time>2014-07-18T14:47:24Z</time>
      </trkpt>
      <trkpt lat="45.736388918012381" lon="6.778620528057218">
        <ele>1880.96</ele>
        <time>2014-07-18T14:47:41Z</time>
      </trkpt>
      <trkpt lat="45.736561249941587" lon="6.778764193877578">
        <ele>1877.5899999999999</ele>
        <time>2014-07-18T14:47:56Z</time>
      </trkpt>
      <trkpt lat="45.736760152503848" lon="6.778941890224814">
        <ele>1876.6300000000001</ele>
        <time>2014-07-18T14:48:13Z</time>
      </trkpt>
      <trkpt lat="45.736822430044413" lon="6.778974663466215">
        <ele>1876.6300000000001</ele>
        <time>2014-07-18T14:48:28Z</time>
      </trkpt>
      <trkpt lat="45.736826788634062" lon="6.778971226885915">
        <ele>1876.6300000000001</ele>
        <time>2014-07-18T14:48:30Z</time>
      </trkpt>
      <trkpt lat="45.737002976238728" lon="6.779109947383404">
        <ele>1877.5899999999999</ele>
        <time>2014-07-18T14:48:47Z</time>
      </trkpt>
      <trkpt lat="45.737063996493816" lon="6.779178427532315">
        <ele>1878.0699999999999</ele>
        <time>2014-07-18T14:48:57Z</time>
      </trkpt>
      <trkpt lat="45.737121747806668" lon="6.779281022027135">
        <ele>1878.55</ele>
        <time>2014-07-18T14:49:12Z</time>
      </trkpt>
      <trkpt lat="45.737120071426034" lon="6.779271466657519">
        <ele>1878.0699999999999</ele>
        <time>2014-07-18T14:49:23Z</time>
      </trkpt>
    </trkseg>
  </trk>

  <trk>
    <name>8tmb2014-07-19</name>
    <extensions>
      <gpxx:TrackExtension>
        <gpxx:DisplayColor>Yellow</gpxx:DisplayColor>
      </gpxx:TrackExtension>
      <gpxtrkx:TrackStatsExtension xmlns:gpxtrkx="http://www.garmin.com/xmlschemas/TrackStatsExtension/v1">
        <gpxtrkx:Distance>16645</gpxtrkx:Distance>
        <gpxtrkx:TotalElapsedTime>21423</gpxtrkx:TotalElapsedTime>
        <gpxtrkx:MovingTime>15503</gpxtrkx:MovingTime>
        <gpxtrkx:StoppedTime>5863</gpxtrkx:StoppedTime>
        <gpxtrkx:MovingSpeed>1</gpxtrkx:MovingSpeed>
        <gpxtrkx:MaxSpeed>2</gpxtrkx:MaxSpeed>
        <gpxtrkx:MaxElevation>2518</gpxtrkx:MaxElevation>
        <gpxtrkx:MinElevation>1686</gpxtrkx:MinElevation>
        <gpxtrkx:Ascent>774</gpxtrkx:Ascent>
        <gpxtrkx:Descent>934</gpxtrkx:Descent>
        <gpxtrkx:AvgAscentRate>0</gpxtrkx:AvgAscentRate>
        <gpxtrkx:MaxAscentRate>1</gpxtrkx:MaxAscentRate>
        <gpxtrkx:AvgDescentRate>0</gpxtrkx:AvgDescentRate>
        <gpxtrkx:MaxDescentRate>-1</gpxtrkx:MaxDescentRate>
      </gpxtrkx:TrackStatsExtension>
    </extensions>
    <trkseg>
      <trkpt lat="45.737134153023362" lon="6.779217235744">
        <ele>1886.24</ele>
        <time>2014-07-19T05:59:42Z</time>
      </trkpt>
      <trkpt lat="45.737134320661426" lon="6.77921773865819">
        <ele>1886.24</ele>
        <time>2014-07-19T05:59:43Z</time>
      </trkpt>
      <trkpt lat="45.737127363681793" lon="6.779206758365035">
        <ele>1877.1099999999999</ele>
        <time>2014-07-19T05:59:47Z</time>
      </trkpt>
      <trkpt lat="45.737128285691142" lon="6.779204662889242">
        <ele>1877.1099999999999</ele>
        <time>2014-07-19T05:59:48Z</time>
      </trkpt>
      <trkpt lat="45.737123088911176" lon="6.779206926003099">
        <ele>1877.5899999999999</ele>
        <time>2014-07-19T06:00:02Z</time>
      </trkpt>
      <trkpt lat="45.737129794433713" lon="6.779196364805102">
        <ele>1878.0699999999999</ele>
        <time>2014-07-19T06:00:21Z</time>
      </trkpt>
      <trkpt lat="45.737106744199991" lon="6.779200471937656">
        <ele>1878.0699999999999</ele>
        <time>2014-07-19T06:00:39Z</time>
      </trkpt>
      <trkpt lat="45.737090734764934" lon="6.779177337884903">
        <ele>1877.1099999999999</ele>
        <time>2014-07-19T06:00:46Z</time>
      </trkpt>
      <trkpt lat="45.736942710354924" lon="6.779172560200095">
        <ele>1875.1900000000001</ele>
        <time>2014-07-19T06:01:02Z</time>
      </trkpt>
      <trkpt lat="45.736913876608014" lon="6.779183708131313">
        <ele>1878.55</ele>
        <time>2014-07-19T06:01:06Z</time>
      </trkpt>
      <trkpt lat="45.736867776140571" lon="6.779207177460194">
        <ele>1879.03</ele>
        <time>2014-07-19T06:01:11Z</time>
      </trkpt>
      <trkpt lat="45.736828967928886" lon="6.779294768348336">
        <ele>1876.6300000000001</ele>
        <time>2014-07-19T06:01:18Z</time>
      </trkpt>
      <trkpt lat="45.736726960167289" lon="6.779516218230128">
        <ele>1878.55</ele>
        <time>2014-07-19T06:01:34Z</time>
      </trkpt>
      <trkpt lat="45.736626712605357" lon="6.779576065018773">
        <ele>1880.96</ele>
        <time>2014-07-19T06:01:46Z</time>
      </trkpt>
      <trkpt lat="45.736580360680819" lon="6.779562905430794">
        <ele>1881.9200000000001</ele>
        <time>2014-07-19T06:02:02Z</time>
      </trkpt>
      <trkpt lat="45.736470054835081" lon="6.779453018680215">
        <ele>1883.3599999999999</ele>
        <time>2014-07-19T06:02:17Z</time>
      </trkpt>
      <trkpt lat="45.736465947702527" lon="6.77943910472095">
        <ele>1883.3599999999999</ele>
        <time>2014-07-19T06:02:18Z</time>
      </trkpt>
      <trkpt lat="45.736435353755951" lon="6.779372552409768">
        <ele>1883.8399999999999</ele>
        <time>2014-07-19T06:02:23Z</time>
      </trkpt>
      <trkpt lat="45.736385565251112" lon="6.779210446402431">
        <ele>1885.76</ele>
        <time>2014-07-19T06:02:38Z</time>
      </trkpt>
      <trkpt lat="45.736336195841432" lon="6.779153700917959">
        <ele>1887.21</ele>
        <time>2014-07-19T06:02:46Z</time>
      </trkpt>
      <trkpt lat="45.73622714728117" lon="6.779091423377395">
        <ele>1888.1700000000001</ele>
        <time>2014-07-19T06:03:01Z</time>
      </trkpt>
      <trkpt lat="45.736146429553628" lon="6.779080694541335">
        <ele>1890.5699999999999</ele>
        <time>2014-07-19T06:03:13Z</time>
      </trkpt>
      <trkpt lat="45.736115667968988" lon="6.779076419770718">
        <ele>1890.5699999999999</ele>
        <time>2014-07-19T06:03:19Z</time>
      </trkpt>
      <trkpt lat="45.736108291894197" lon="6.779115563258529">
        <ele>1891.05</ele>
        <time>2014-07-19T06:03:22Z</time>
      </trkpt>
      <trkpt lat="45.736122708767653" lon="6.779138781130314">
        <ele>1892.01</ele>
        <time>2014-07-19T06:03:24Z</time>
      </trkpt>
      <trkpt lat="45.736134611070156" lon="6.779261324554682">
        <ele>1893.9300000000001</ele>
        <time>2014-07-19T06:03:35Z</time>
      </trkpt>
      <trkpt lat="45.73616411536932" lon="6.779307927936316">
        <ele>1894.4200000000001</ele>
        <time>2014-07-19T06:03:41Z</time>
      </trkpt>
      <trkpt lat="45.736188590526581" lon="6.779364924877882">
        <ele>1895.3800000000001</ele>
        <time>2014-07-19T06:03:47Z</time>
      </trkpt>
      <trkpt lat="45.736110219731927" lon="6.77941320464015">
        <ele>1896.8199999999999</ele>
        <time>2014-07-19T06:03:58Z</time>
      </trkpt>
      <trkpt lat="45.736055737361312" lon="6.779348831623793">
        <ele>1898.26</ele>
        <time>2014-07-19T06:04:06Z</time>
      </trkpt>
      <trkpt lat="45.735921878367662" lon="6.77932133898139">
        <ele>1900.6600000000001</ele>
        <time>2014-07-19T06:04:24Z</time>
      </trkpt>
      <trkpt lat="45.735801598057151" lon="6.779318740591407">
        <ele>1902.1099999999999</ele>
        <time>2014-07-19T06:04:40Z</time>
      </trkpt>
      <trkpt lat="45.7357023563236" lon="6.779241878539324">
        <ele>1904.51</ele>
        <time>2014-07-19T06:04:56Z</time>
      </trkpt>
      <trkpt lat="45.735596073791385" lon="6.77922897040844">
        <ele>1906.9100000000001</ele>
        <time>2014-07-19T06:05:10Z</time>
      </trkpt>
      <trkpt lat="45.735496748238802" lon="6.779177254065871">
        <ele>1907.8699999999999</ele>
        <time>2014-07-19T06:05:23Z</time>
      </trkpt>
      <trkpt lat="45.735461376607418" lon="6.779262498021126">
        <ele>1909.3199999999999</ele>
        <time>2014-07-19T06:05:38Z</time>
      </trkpt>
      <trkpt lat="45.735485767945647" lon="6.77927297540009">
        <ele>1909.8</ele>
        <time>2014-07-19T06:05:41Z</time>
      </trkpt>
      <trkpt lat="45.735556595027447" lon="6.779339695349336">
        <ele>1911.24</ele>
        <time>2014-07-19T06:05:50Z</time>
      </trkpt>
      <trkpt lat="45.735613591969013" lon="6.779499035328627">
        <ele>1911.72</ele>
        <time>2014-07-19T06:06:05Z</time>
      </trkpt>
      <trkpt lat="45.735675282776356" lon="6.779624931514263">
        <ele>1913.1600000000001</ele>
        <time>2014-07-19T06:06:18Z</time>
      </trkpt>
      <trkpt lat="45.735701015219092" lon="6.779723335057497">
        <ele>1915.0799999999999</ele>
        <time>2014-07-19T06:06:30Z</time>
      </trkpt>
      <trkpt lat="45.735747199505568" lon="6.779839424416423">
        <ele>1916.53</ele>
        <time>2014-07-19T06:06:43Z</time>
      </trkpt>
      <trkpt lat="45.735819367691875" lon="6.779945371672511">
        <ele>1918.45</ele>
        <time>2014-07-19T06:06:57Z</time>
      </trkpt>
      <trkpt lat="45.73587385006249" lon="6.780033465474844">
        <ele>1919.8900000000001</ele>
        <time>2014-07-19T06:07:10Z</time>
      </trkpt>
      <trkpt lat="45.735979294404387" lon="6.780114937573671">
        <ele>1921.8099999999999</ele>
        <time>2014-07-19T06:07:25Z</time>
      </trkpt>
      <trkpt lat="45.73604048229754" lon="6.780255669727922">
        <ele>1922.77</ele>
        <time>2014-07-19T06:07:39Z</time>
      </trkpt>
      <trkpt lat="45.736052049323916" lon="6.780395479872823">
        <ele>1924.7</ele>
        <time>2014-07-19T06:07:52Z</time>
      </trkpt>
      <trkpt lat="45.736092617735267" lon="6.780552724376321">
        <ele>1926.6199999999999</ele>
        <time>2014-07-19T06:08:09Z</time>
      </trkpt>
      <trkpt lat="45.736120278015733" lon="6.780616845935583">
        <ele>1927.0999999999999</ele>
        <time>2014-07-19T06:08:18Z</time>
      </trkpt>
      <trkpt lat="45.736219855025411" lon="6.780709633603692">
        <ele>1929.02</ele>
        <time>2014-07-19T06:08:34Z</time>
      </trkpt>
      <trkpt lat="45.736287916079164" lon="6.780834775418043">
        <ele>1930.46</ele>
        <time>2014-07-19T06:08:47Z</time>
      </trkpt>
      <trkpt lat="45.73635614477098" lon="6.780946170911193">
        <ele>1932.3900000000001</ele>
        <time>2014-07-19T06:09:01Z</time>
      </trkpt>
      <trkpt lat="45.73638548143208" lon="6.780990846455097">
        <ele>1932.3900000000001</ele>
        <time>2014-07-19T06:09:07Z</time>
      </trkpt>
      <trkpt lat="45.73647927492857" lon="6.781148929148912">
        <ele>1934.79</ele>
        <time>2014-07-19T06:09:24Z</time>
      </trkpt>
      <trkpt lat="45.736539792269468" lon="6.781211206689477">
        <ele>1936.23</ele>
        <time>2014-07-19T06:09:34Z</time>
      </trkpt>
      <trkpt lat="45.736619839444757" lon="6.78132520057261">
        <ele>1937.6700000000001</ele>
        <time>2014-07-19T06:09:48Z</time>
      </trkpt>
      <trkpt lat="45.736525123938918" lon="6.781426705420017">
        <ele>1939.5999999999999</ele>
        <time>2014-07-19T06:10:04Z</time>
      </trkpt>
      <trkpt lat="45.736394701525569" lon="6.781430644914508">
        <ele>1940.5599999999999</ele>
        <time>2014-07-19T06:10:19Z</time>
      </trkpt>
      <trkpt lat="45.736270984634757" lon="6.781407427042723">
        <ele>1942.48</ele>
        <time>2014-07-19T06:10:35Z</time>
      </trkpt>
      <trkpt lat="45.736185237765312" lon="6.781364679336548">
        <ele>1944.8800000000001</ele>
        <time>2014-07-19T06:10:49Z</time>
      </trkpt>
      <trkpt lat="45.736057916656137" lon="6.781336264684796">
        <ele>1946.8099999999999</ele>
        <time>2014-07-19T06:11:05Z</time>
      </trkpt>
      <trkpt lat="45.736037464812398" lon="6.78133450448513">
        <ele>1946.8099999999999</ele>
        <time>2014-07-19T06:11:08Z</time>
      </trkpt>
      <trkpt lat="45.735899247229099" lon="6.781340539455414">
        <ele>1948.73</ele>
        <time>2014-07-19T06:11:26Z</time>
      </trkpt>
      <trkpt lat="45.735806962475181" lon="6.781316483393312">
        <ele>1950.6500000000001</ele>
        <time>2014-07-19T06:11:39Z</time>
      </trkpt>
      <trkpt lat="45.735700344666839" lon="6.781294606626034">
        <ele>1952.0899999999999</ele>
        <time>2014-07-19T06:11:54Z</time>
      </trkpt>
      <trkpt lat="45.735564222559333" lon="6.781292846426368">
        <ele>1954.02</ele>
        <time>2014-07-19T06:12:12Z</time>
      </trkpt>
      <trkpt lat="45.735445953905582" lon="6.78125286474824">
        <ele>1955.9400000000001</ele>
        <time>2014-07-19T06:12:28Z</time>
      </trkpt>
      <trkpt lat="45.735326176509261" lon="6.7812186665833">
        <ele>1958.8199999999999</ele>
        <time>2014-07-19T06:12:45Z</time>
      </trkpt>
      <trkpt lat="45.735209751874208" lon="6.781187737360597">
        <ele>1960.75</ele>
        <time>2014-07-19T06:13:02Z</time>
      </trkpt>
      <trkpt lat="45.735081005841494" lon="6.781189329922199">
        <ele>1963.1500000000001</ele>
        <time>2014-07-19T06:13:21Z</time>
      </trkpt>
      <trkpt lat="45.734983356669545" lon="6.781238196417689">
        <ele>1964.5899999999999</ele>
        <time>2014-07-19T06:13:36Z</time>
      </trkpt>
      <trkpt lat="45.735040353611112" lon="6.781323691830039">
        <ele>1966.51</ele>
        <time>2014-07-19T06:13:50Z</time>
      </trkpt>
      <trkpt lat="45.735147725790739" lon="6.781377336010337">
        <ele>1968.9200000000001</ele>
        <time>2014-07-19T06:14:05Z</time>
      </trkpt>
      <trkpt lat="45.735242106020451" lon="6.78147473372519">
        <ele>1969.4000000000001</ele>
        <time>2014-07-19T06:14:20Z</time>
      </trkpt>
      <trkpt lat="45.735257444903255" lon="6.78151966072619">
        <ele>1970.3599999999999</ele>
        <time>2014-07-19T06:14:32Z</time>
      </trkpt>
      <trkpt lat="45.735257025808096" lon="6.781529970467091">
        <ele>1969.8800000000001</ele>
        <time>2014-07-19T06:14:52Z</time>
      </trkpt>
      <trkpt lat="45.735291056334972" lon="6.781520750373602">
        <ele>1970.8399999999999</ele>
        <time>2014-07-19T06:15:13Z</time>
      </trkpt>
      <trkpt lat="45.73536423034966" lon="6.781585207208991">
        <ele>1971.8</ele>
        <time>2014-07-19T06:15:29Z</time>
      </trkpt>
      <trkpt lat="45.735403373837471" lon="6.781598115339875">
        <ele>1972.76</ele>
        <time>2014-07-19T06:15:43Z</time>
      </trkpt>
      <trkpt lat="45.735474200919271" lon="6.781668104231358">
        <ele>1974.6900000000001</ele>
        <time>2014-07-19T06:15:57Z</time>
      </trkpt>
      <trkpt lat="45.735569670796394" lon="6.781765334308147">
        <ele>1976.1300000000001</ele>
        <time>2014-07-19T06:16:11Z</time>
      </trkpt>
      <trkpt lat="45.73567888699472" lon="6.781867258250713">
        <ele>1979.01</ele>
        <time>2014-07-19T06:16:28Z</time>
      </trkpt>
      <trkpt lat="45.735767735168338" lon="6.781986616551876">
        <ele>1980.9300000000001</ele>
        <time>2014-07-19T06:16:45Z</time>
      </trkpt>
      <trkpt lat="45.735863205045462" lon="6.782126929610968">
        <ele>1982.3800000000001</ele>
        <time>2014-07-19T06:17:00Z</time>
      </trkpt>
      <trkpt lat="45.735892206430435" lon="6.782179903239012">
        <ele>1982.3800000000001</ele>
        <time>2014-07-19T06:17:05Z</time>
      </trkpt>
      <trkpt lat="45.735822636634111" lon="6.782210078090429">
        <ele>1983.3399999999999</ele>
        <time>2014-07-19T06:17:12Z</time>
      </trkpt>
      <trkpt lat="45.735717108473182" lon="6.782103460282087">
        <ele>1985.26</ele>
        <time>2014-07-19T06:17:27Z</time>
      </trkpt>
      <trkpt lat="45.735646700486541" lon="6.7820527497679">
        <ele>1987.6600000000001</ele>
        <time>2014-07-19T06:17:42Z</time>
      </trkpt>
      <trkpt lat="45.735538154840469" lon="6.782047217711806">
        <ele>1988.6199999999999</ele>
        <time>2014-07-19T06:17:55Z</time>
      </trkpt>
      <trkpt lat="45.735399518162012" lon="6.782038081437349">
        <ele>1989.5899999999999</ele>
        <time>2014-07-19T06:18:13Z</time>
      </trkpt>
      <trkpt lat="45.735263479873538" lon="6.782055348157883">
        <ele>1991.51</ele>
        <time>2014-07-19T06:18:31Z</time>
      </trkpt>
      <trkpt lat="45.735138086602092" lon="6.782063059508801">
        <ele>1993.9100000000001</ele>
        <time>2014-07-19T06:18:48Z</time>
      </trkpt>
      <trkpt lat="45.735112018883228" lon="6.782073369249702">
        <ele>1994.3900000000001</ele>
        <time>2014-07-19T06:19:01Z</time>
      </trkpt>
      <trkpt lat="45.734994588419795" lon="6.782074542716146">
        <ele>1995.3499999999999</ele>
        <time>2014-07-19T06:19:16Z</time>
      </trkpt>
      <trkpt lat="45.734884785488248" lon="6.782056353986263">
        <ele>1997.76</ele>
        <time>2014-07-19T06:19:30Z</time>
      </trkpt>
      <trkpt lat="45.734771629795432" lon="6.782001117244363">
        <ele>2000.6400000000001</ele>
        <time>2014-07-19T06:19:47Z</time>
      </trkpt>
      <trkpt lat="45.734679596498609" lon="6.781985107809305">
        <ele>2003.04</ele>
        <time>2014-07-19T06:19:59Z</time>
      </trkpt>
      <trkpt lat="45.734678003937006" lon="6.781976306810975">
        <ele>2003.04</ele>
        <time>2014-07-19T06:20:18Z</time>
      </trkpt>
      <trkpt lat="45.734717398881912" lon="6.782034393399954">
        <ele>2001.5999999999999</ele>
        <time>2014-07-19T06:20:36Z</time>
      </trkpt>
      <trkpt lat="45.734789650887251" lon="6.782104214653373">
        <ele>2004.97</ele>
        <time>2014-07-19T06:20:48Z</time>
      </trkpt>
      <trkpt lat="45.73473290540278" lon="6.782176466658711">
        <ele>2006.4100000000001</ele>
        <time>2014-07-19T06:21:01Z</time>
      </trkpt>
      <trkpt lat="45.73465084657073" lon="6.782188871875405">
        <ele>2008.3299999999999</ele>
        <time>2014-07-19T06:21:17Z</time>
      </trkpt>
      <trkpt lat="45.734665850177407" lon="6.782202115282416">
        <ele>2009.29</ele>
        <time>2014-07-19T06:21:19Z</time>
      </trkpt>
      <trkpt lat="45.734748998656869" lon="6.782261542975903">
        <ele>2010.73</ele>
        <time>2014-07-19T06:21:32Z</time>
      </trkpt>
      <trkpt lat="45.734805073589087" lon="6.782371513545513">
        <ele>2011.7</ele>
        <time>2014-07-19T06:21:46Z</time>
      </trkpt>
      <trkpt lat="45.734694683924317" lon="6.782410321757197">
        <ele>2014.0999999999999</ele>
        <time>2014-07-19T06:22:04Z</time>
      </trkpt>
      <trkpt lat="45.734725696966052" lon="6.78242951631546">
        <ele>2015.54</ele>
        <time>2014-07-19T06:22:08Z</time>
      </trkpt>
      <trkpt lat="45.734749753028154" lon="6.782448040321469">
        <ele>2015.54</ele>
        <time>2014-07-19T06:22:15Z</time>
      </trkpt>
      <trkpt lat="45.734763666987419" lon="6.782459355890751">
        <ele>2015.54</ele>
        <time>2014-07-19T06:22:17Z</time>
      </trkpt>
      <trkpt lat="45.734894340857863" lon="6.782511658966541">
        <ele>2017.46</ele>
        <time>2014-07-19T06:22:33Z</time>
      </trkpt>
      <trkpt lat="45.735001377761364" lon="6.782520962879062">
        <ele>2020.3499999999999</ele>
        <time>2014-07-19T06:22:48Z</time>
      </trkpt>
      <trkpt lat="45.735096093267202" lon="6.782567650079727">
        <ele>2023.23</ele>
        <time>2014-07-19T06:23:01Z</time>
      </trkpt>
      <trkpt lat="45.735151078552008" lon="6.782607631757855">
        <ele>2023.23</ele>
        <time>2014-07-19T06:23:15Z</time>
      </trkpt>
      <trkpt lat="45.735137918964028" lon="6.782630179077387">
        <ele>2023.23</ele>
        <time>2014-07-19T06:23:25Z</time>
      </trkpt>
      <trkpt lat="45.734991822391748" lon="6.782667143270373">
        <ele>2025.1500000000001</ele>
        <time>2014-07-19T06:23:43Z</time>
      </trkpt>
      <trkpt lat="45.734903896227479" lon="6.782744424417615">
        <ele>2028.04</ele>
        <time>2014-07-19T06:23:57Z</time>
      </trkpt>
      <trkpt lat="45.734824351966381" lon="6.782835451886058">
        <ele>2029.48</ele>
        <time>2014-07-19T06:24:07Z</time>
      </trkpt>
      <trkpt lat="45.734762409701943" lon="6.782843833789229">
        <ele>2030.9200000000001</ele>
        <time>2014-07-19T06:24:16Z</time>
      </trkpt>
      <trkpt lat="45.734752519056201" lon="6.782848443835974">
        <ele>2031.4000000000001</ele>
        <time>2014-07-19T06:24:18Z</time>
      </trkpt>
      <trkpt lat="45.734751597046852" lon="6.7828419059515">
        <ele>2030.4400000000001</ele>
        <time>2014-07-19T06:24:31Z</time>
      </trkpt>
      <trkpt lat="45.734766013920307" lon="6.782833272591233">
        <ele>2030.9200000000001</ele>
        <time>2014-07-19T06:24:45Z</time>
      </trkpt>
      <trkpt lat="45.734808258712292" lon="6.782890940085053">
        <ele>2032.8399999999999</ele>
        <time>2014-07-19T06:25:04Z</time>
      </trkpt>
      <trkpt lat="45.734917558729649" lon="6.782899238169193">
        <ele>2034.29</ele>
        <time>2014-07-19T06:25:19Z</time>
      </trkpt>
      <trkpt lat="45.735021997243166" lon="6.782866716384888">
        <ele>2035.73</ele>
        <time>2014-07-19T06:25:32Z</time>
      </trkpt>
      <trkpt lat="45.735152503475547" lon="6.782935615628958">
        <ele>2037.6500000000001</ele>
        <time>2014-07-19T06:25:47Z</time>
      </trkpt>
      <trkpt lat="45.735266832634807" lon="6.78304030559957">
        <ele>2040.05</ele>
        <time>2014-07-19T06:26:03Z</time>
      </trkpt>
      <trkpt lat="45.735359704121947" lon="6.783134350553155">
        <ele>2042.46</ele>
        <time>2014-07-19T06:26:17Z</time>
      </trkpt>
      <trkpt lat="45.735432123765349" lon="6.783237783238292">
        <ele>2044.3800000000001</ele>
        <time>2014-07-19T06:26:30Z</time>
      </trkpt>
      <trkpt lat="45.735504208132625" lon="6.783316908404231">
        <ele>2046.3</ele>
        <time>2014-07-19T06:26:43Z</time>
      </trkpt>
      <trkpt lat="45.735586769878864" lon="6.78344925865531">
        <ele>2048.23</ele>
        <time>2014-07-19T06:26:59Z</time>
      </trkpt>
      <trkpt lat="45.735595738515258" lon="6.783469459041953">
        <ele>2048.71</ele>
        <time>2014-07-19T06:27:01Z</time>
      </trkpt>
      <trkpt lat="45.735666314139962" lon="6.783624272793531">
        <ele>2050.1500000000001</ele>
        <time>2014-07-19T06:27:18Z</time>
      </trkpt>
      <trkpt lat="45.735686430707574" lon="6.783743379637599">
        <ele>2053.0300000000002</ele>
        <time>2014-07-19T06:27:32Z</time>
      </trkpt>
      <trkpt lat="45.73569405823946" lon="6.783719323575497">
        <ele>2052.5500000000002</ele>
        <time>2014-07-19T06:27:37Z</time>
      </trkpt>
      <trkpt lat="45.735735548660159" lon="6.783869778737426">
        <ele>2053.9899999999998</ele>
        <time>2014-07-19T06:27:52Z</time>
      </trkpt>
      <trkpt lat="45.735778547823429" lon="6.783997435122728">
        <ele>2055.4400000000001</ele>
        <time>2014-07-19T06:28:05Z</time>
      </trkpt>
      <trkpt lat="45.735799837857485" lon="6.784142693504691">
        <ele>2057.8400000000001</ele>
        <time>2014-07-19T06:28:20Z</time>
      </trkpt>
      <trkpt lat="45.735848201438785" lon="6.7842613812536">
        <ele>2060.2399999999998</ele>
        <time>2014-07-19T06:28:35Z</time>
      </trkpt>
      <trkpt lat="45.735860355198383" lon="6.784277223050594">
        <ele>2060.7199999999998</ele>
        <time>2014-07-19T06:28:38Z</time>
      </trkpt>
      <trkpt lat="45.735899079591036" lon="6.78431904874742">
        <ele>2061.6799999999998</ele>
        <time>2014-07-19T06:28:44Z</time>
      </trkpt>
      <trkpt lat="45.735928416252136" lon="6.784361461177468">
        <ele>2063.1300000000001</ele>
        <time>2014-07-19T06:28:51Z</time>
      </trkpt>
      <trkpt lat="45.736015923321247" lon="6.784440251067281">
        <ele>2064.5700000000002</ele>
        <time>2014-07-19T06:29:07Z</time>
      </trkpt>
      <trkpt lat="45.736128240823746" lon="6.784392222762108">
        <ele>2066.9699999999998</ele>
        <time>2014-07-19T06:29:24Z</time>
      </trkpt>
      <trkpt lat="45.736218094825745" lon="6.784443520009518">
        <ele>2068.8899999999999</ele>
        <time>2014-07-19T06:29:39Z</time>
      </trkpt>
      <trkpt lat="45.736230667680502" lon="6.784528428688645">
        <ele>2069.8600000000001</ele>
        <time>2014-07-19T06:29:52Z</time>
      </trkpt>
      <trkpt lat="45.736254137009382" lon="6.784521974623203">
        <ele>2070.3400000000001</ele>
        <time>2014-07-19T06:30:10Z</time>
      </trkpt>
      <trkpt lat="45.736238630488515" lon="6.784553155303001">
        <ele>2071.3000000000002</ele>
        <time>2014-07-19T06:30:24Z</time>
      </trkpt>
      <trkpt lat="45.736239971593022" lon="6.784562543034554">
        <ele>2071.3000000000002</ele>
        <time>2014-07-19T06:30:29Z</time>
      </trkpt>
      <trkpt lat="45.73624080978334" lon="6.784573271870613">
        <ele>2071.7800000000002</ele>
        <time>2014-07-19T06:30:45Z</time>
      </trkpt>
      <trkpt lat="45.736241228878498" lon="6.784557932987809">
        <ele>2071.3000000000002</ele>
        <time>2014-07-19T06:30:59Z</time>
      </trkpt>
      <trkpt lat="45.736261513084173" lon="6.784569667652249">
        <ele>2070.8200000000002</ele>
        <time>2014-07-19T06:31:20Z</time>
      </trkpt>
      <trkpt lat="45.736262435093522" lon="6.784557094797492">
        <ele>2070.8200000000002</ele>
        <time>2014-07-19T06:31:40Z</time>
      </trkpt>
      <trkpt lat="45.736263273283839" lon="6.784570002928376">
        <ele>2071.3000000000002</ele>
        <time>2014-07-19T06:32:00Z</time>
      </trkpt>
      <trkpt lat="45.736268134787679" lon="6.784591292962432">
        <ele>2071.3000000000002</ele>
        <time>2014-07-19T06:32:16Z</time>
      </trkpt>
      <trkpt lat="45.736255729570985" lon="6.784587018191814">
        <ele>2071.7800000000002</ele>
        <time>2014-07-19T06:32:39Z</time>
      </trkpt>
      <trkpt lat="45.73635664768517" lon="6.784623479470611">
        <ele>2072.7399999999998</ele>
        <time>2014-07-19T06:32:53Z</time>
      </trkpt>
      <trkpt lat="45.736411716789007" lon="6.784646697342396">
        <ele>2073.6999999999998</ele>
        <time>2014-07-19T06:33:00Z</time>
      </trkpt>
      <trkpt lat="45.736550353467464" lon="6.78470553830266">
        <ele>2073.6999999999998</ele>
        <time>2014-07-19T06:33:18Z</time>
      </trkpt>
      <trkpt lat="45.736547084525228" lon="6.784697659313679">
        <ele>2073.6999999999998</ele>
        <time>2014-07-19T06:33:19Z</time>
      </trkpt>
      <trkpt lat="45.736548509448767" lon="6.784671675413847">
        <ele>2073.2199999999998</ele>
        <time>2014-07-19T06:33:21Z</time>
      </trkpt>
      <trkpt lat="45.736579187214375" lon="6.784641165286303">
        <ele>2074.6599999999999</ele>
        <time>2014-07-19T06:33:25Z</time>
      </trkpt>
      <trkpt lat="45.736695779487491" lon="6.784687098115683">
        <ele>2078.0300000000002</ele>
        <time>2014-07-19T06:33:39Z</time>
      </trkpt>
      <trkpt lat="45.736796949058771" lon="6.784745687618852">
        <ele>2078.9899999999998</ele>
        <time>2014-07-19T06:33:54Z</time>
      </trkpt>
      <trkpt lat="45.736893340945244" lon="6.784836882725358">
        <ele>2080.9099999999999</ele>
        <time>2014-07-19T06:34:09Z</time>
      </trkpt>
      <trkpt lat="45.736996605992317" lon="6.784870997071266">
        <ele>2083.3099999999999</ele>
        <time>2014-07-19T06:34:26Z</time>
      </trkpt>
      <trkpt lat="45.737081849947572" lon="6.784921372309327">
        <ele>2084.2800000000002</ele>
        <time>2014-07-19T06:34:38Z</time>
      </trkpt>
      <trkpt lat="45.73718830011785" lon="6.784988259896636">
        <ele>2085.7199999999998</ele>
        <time>2014-07-19T06:34:53Z</time>
      </trkpt>
      <trkpt lat="45.73722786270082" lon="6.785009047016501">
        <ele>2085.7199999999998</ele>
        <time>2014-07-19T06:35:08Z</time>
      </trkpt>
      <trkpt lat="45.737283267080784" lon="6.785033941268921">
        <ele>2087.1599999999999</ele>
        <time>2014-07-19T06:35:21Z</time>
      </trkpt>
      <trkpt lat="45.737385777756572" lon="6.785099403932691">
        <ele>2089.5599999999999</ele>
        <time>2014-07-19T06:35:35Z</time>
      </trkpt>
      <trkpt lat="45.737482169643044" lon="6.785210045054555">
        <ele>2091.4899999999998</ele>
        <time>2014-07-19T06:35:52Z</time>
      </trkpt>
      <trkpt lat="45.73755132034421" lon="6.785359578207135">
        <ele>2094.3699999999999</ele>
        <time>2014-07-19T06:36:10Z</time>
      </trkpt>
      <trkpt lat="45.737592307850718" lon="6.785469548776746">
        <ele>2097.25</ele>
        <time>2014-07-19T06:36:25Z</time>
      </trkpt>
      <trkpt lat="45.737660201266408" lon="6.785538783296943">
        <ele>2100.1399999999999</ele>
        <time>2014-07-19T06:36:39Z</time>
      </trkpt>
      <trkpt lat="45.737740248441696" lon="6.785635259002447">
        <ele>2102.0599999999999</ele>
        <time>2014-07-19T06:36:54Z</time>
      </trkpt>
      <trkpt lat="45.737807806581259" lon="6.785705666989088">
        <ele>2104.9400000000001</ele>
        <time>2014-07-19T06:37:09Z</time>
      </trkpt>
      <trkpt lat="45.737893218174577" lon="6.785766184329987">
        <ele>2107.8299999999999</ele>
        <time>2014-07-19T06:37:25Z</time>
      </trkpt>
      <trkpt lat="45.737956082448363" lon="6.785813374444842">
        <ele>2111.1900000000001</ele>
        <time>2014-07-19T06:37:36Z</time>
      </trkpt>
      <trkpt lat="45.737964296713471" lon="6.785809518769383">
        <ele>2111.1900000000001</ele>
        <time>2014-07-19T06:37:37Z</time>
      </trkpt>
      <trkpt lat="45.737989945337176" lon="6.785812200978398">
        <ele>2113.1199999999999</ele>
        <time>2014-07-19T06:37:40Z</time>
      </trkpt>
      <trkpt lat="45.738021796569228" lon="6.785835586488247">
        <ele>2112.1500000000001</ele>
        <time>2014-07-19T06:37:45Z</time>
      </trkpt>
      <trkpt lat="45.738113913685083" lon="6.78589778020978">
        <ele>2112.6300000000001</ele>
        <time>2014-07-19T06:38:00Z</time>
      </trkpt>
      <trkpt lat="45.738230925053358" lon="6.785922255367041">
        <ele>2115.04</ele>
        <time>2014-07-19T06:38:18Z</time>
      </trkpt>
      <trkpt lat="45.738256573677063" lon="6.785936420783401">
        <ele>2116.48</ele>
        <time>2014-07-19T06:38:22Z</time>
      </trkpt>
      <trkpt lat="45.738357743248343" lon="6.785971121862531">
        <ele>2116.48</ele>
        <time>2014-07-19T06:38:36Z</time>
      </trkpt>
      <trkpt lat="45.738462097942829" lon="6.78602778352797">
        <ele>2119.3600000000001</ele>
        <time>2014-07-19T06:38:52Z</time>
      </trkpt>
      <trkpt lat="45.738508198410273" lon="6.786132054403424">
        <ele>2119.8400000000001</ele>
        <time>2014-07-19T06:39:08Z</time>
      </trkpt>
      <trkpt lat="45.738480957224965" lon="6.786239007487893">
        <ele>2123.6900000000001</ele>
        <time>2014-07-19T06:39:20Z</time>
      </trkpt>
      <trkpt lat="45.738482717424631" lon="6.786246551200748">
        <ele>2123.6900000000001</ele>
        <time>2014-07-19T06:39:21Z</time>
      </trkpt>
      <trkpt lat="45.738527392968535" lon="6.786234732717276">
        <ele>2125.6100000000001</ele>
        <time>2014-07-19T06:39:28Z</time>
      </trkpt>
      <trkpt lat="45.738625545054674" lon="6.786281000822783">
        <ele>2127.5300000000002</ele>
        <time>2014-07-19T06:39:44Z</time>
      </trkpt>
      <trkpt lat="45.738686313852668" lon="6.786349145695567">
        <ele>2130.4200000000001</ele>
        <time>2014-07-19T06:39:58Z</time>
      </trkpt>
      <trkpt lat="45.73875923641026" lon="6.786454422399402">
        <ele>2132.3400000000001</ele>
        <time>2014-07-19T06:40:13Z</time>
      </trkpt>
      <trkpt lat="45.73882226832211" lon="6.78655550815165">
        <ele>2134.7399999999998</ele>
        <time>2014-07-19T06:40:28Z</time>
      </trkpt>
      <trkpt lat="45.738900052383542" lon="6.786614349111915">
        <ele>2137.1500000000001</ele>
        <time>2014-07-19T06:40:41Z</time>
      </trkpt>
      <trkpt lat="45.738979261368513" lon="6.786694983020425">
        <ele>2136.1900000000001</ele>
        <time>2014-07-19T06:40:58Z</time>
      </trkpt>
      <trkpt lat="45.739020081236959" lon="6.78677586838603">
        <ele>2139.5500000000002</ele>
        <time>2014-07-19T06:41:07Z</time>
      </trkpt>
      <trkpt lat="45.739027373492718" lon="6.786792632192373">
        <ele>2139.5500000000002</ele>
        <time>2014-07-19T06:41:09Z</time>
      </trkpt>
      <trkpt lat="45.739040449261665" lon="6.786842001602054">
        <ele>2139.0700000000002</ele>
        <time>2014-07-19T06:41:13Z</time>
      </trkpt>
      <trkpt lat="45.739001808688045" lon="6.786960354074836">
        <ele>2139.0700000000002</ele>
        <time>2014-07-19T06:41:26Z</time>
      </trkpt>
      <trkpt lat="45.739010106772184" lon="6.786988098174334">
        <ele>2140.5100000000002</ele>
        <time>2014-07-19T06:41:28Z</time>
      </trkpt>
      <trkpt lat="45.739013459533453" lon="6.787113239988685">
        <ele>2143.8800000000001</ele>
        <time>2014-07-19T06:41:43Z</time>
      </trkpt>
      <trkpt lat="45.739021422341466" lon="6.787204518914223">
        <ele>2143.4000000000001</ele>
        <time>2014-07-19T06:41:50Z</time>
      </trkpt>
      <trkpt lat="45.739015555009246" lon="6.787284901365638">
        <ele>2143.8800000000001</ele>
        <time>2014-07-19T06:41:56Z</time>
      </trkpt>
      <trkpt lat="45.739032486453652" lon="6.787343071773648">
        <ele>2143.8800000000001</ele>
        <time>2014-07-19T06:42:00Z</time>
      </trkpt>
      <trkpt lat="45.739125944674015" lon="6.787488833069801">
        <ele>2147.2399999999998</ele>
        <time>2014-07-19T06:42:15Z</time>
      </trkpt>
      <trkpt lat="45.739164417609572" lon="6.787589583545923">
        <ele>2147.2399999999998</ele>
        <time>2014-07-19T06:42:24Z</time>
      </trkpt>
      <trkpt lat="45.739189144223928" lon="6.787641802802682">
        <ele>2149.6500000000001</ele>
        <time>2014-07-19T06:42:30Z</time>
      </trkpt>
      <trkpt lat="45.739273047074676" lon="6.78778974339366">
        <ele>2152.5300000000002</ele>
        <time>2014-07-19T06:42:45Z</time>
      </trkpt>
      <trkpt lat="45.73931286111474" lon="6.78791287355125">
        <ele>2150.1300000000001</ele>
        <time>2014-07-19T06:42:54Z</time>
      </trkpt>
      <trkpt lat="45.739345969632268" lon="6.787957297638059">
        <ele>2148.1999999999998</ele>
        <time>2014-07-19T06:42:59Z</time>
      </trkpt>
      <trkpt lat="45.739369438961148" lon="6.78799987770617">
        <ele>2149.6500000000001</ele>
        <time>2014-07-19T06:43:02Z</time>
      </trkpt>
      <trkpt lat="45.739378407597542" lon="6.788055282086134">
        <ele>2147.2399999999998</ele>
        <time>2014-07-19T06:43:06Z</time>
      </trkpt>
      <trkpt lat="45.739403888583183" lon="6.788122253492475">
        <ele>2147.2399999999998</ele>
        <time>2014-07-19T06:43:11Z</time>
      </trkpt>
      <trkpt lat="45.739387208595872" lon="6.788305649533868">
        <ele>2141.9499999999998</ele>
        <time>2014-07-19T06:43:22Z</time>
      </trkpt>
      <trkpt lat="45.739387711510062" lon="6.788321072235704">
        <ele>2142.4400000000001</ele>
        <time>2014-07-19T06:43:23Z</time>
      </trkpt>
      <trkpt lat="45.739395758137107" lon="6.788468006998301">
        <ele>2143.4000000000001</ele>
        <time>2014-07-19T06:43:32Z</time>
      </trkpt>
      <trkpt lat="45.739448061212897" lon="6.788483764976263">
        <ele>2144.8400000000001</ele>
        <time>2014-07-19T06:43:48Z</time>
      </trkpt>
      <trkpt lat="45.739474883303046" lon="6.788490554317832">
        <ele>2144.3600000000001</ele>
        <time>2014-07-19T06:43:55Z</time>
      </trkpt>
      <trkpt lat="45.73950438760221" lon="6.788590215146542">
        <ele>2143.8800000000001</ele>
        <time>2014-07-19T06:44:02Z</time>
      </trkpt>
      <trkpt lat="45.7395757175982" lon="6.788835553452373">
        <ele>2144.3600000000001</ele>
        <time>2014-07-19T06:44:19Z</time>
      </trkpt>
      <trkpt lat="45.739621901884675" lon="6.78902112878859">
        <ele>2143.8800000000001</ele>
        <time>2014-07-19T06:44:34Z</time>
      </trkpt>
      <trkpt lat="45.739664062857628" lon="6.789282727986574">
        <ele>2143.4000000000001</ele>
        <time>2014-07-19T06:44:50Z</time>
      </trkpt>
      <trkpt lat="45.739751989021897" lon="6.789448270574212">
        <ele>2142.9200000000001</ele>
        <time>2014-07-19T06:45:05Z</time>
      </trkpt>
      <trkpt lat="45.739808985963464" lon="6.789459921419621">
        <ele>2142.9200000000001</ele>
        <time>2014-07-19T06:45:18Z</time>
      </trkpt>
      <trkpt lat="45.739815188571811" lon="6.789452964439988">
        <ele>2142.9200000000001</ele>
        <time>2014-07-19T06:45:19Z</time>
      </trkpt>
      <trkpt lat="45.739850308746099" lon="6.789382388815284">
        <ele>2142.9200000000001</ele>
        <time>2014-07-19T06:45:34Z</time>
      </trkpt>
      <trkpt lat="45.739858103916049" lon="6.789334109053016">
        <ele>2143.8800000000001</ele>
        <time>2014-07-19T06:45:55Z</time>
      </trkpt>
      <trkpt lat="45.73986547999084" lon="6.789376018568873">
        <ele>2142.4400000000001</ele>
        <time>2014-07-19T06:46:10Z</time>
      </trkpt>
      <trkpt lat="45.739834383130074" lon="6.78944231942296">
        <ele>2142.4400000000001</ele>
        <time>2014-07-19T06:46:25Z</time>
      </trkpt>
      <trkpt lat="45.739882159978151" lon="6.789336875081062">
        <ele>2143.8800000000001</ele>
        <time>2014-07-19T06:46:48Z</time>
      </trkpt>
      <trkpt lat="45.739865396171808" lon="6.789336036890745">
        <ele>2145.3200000000002</ele>
        <time>2014-07-19T06:47:07Z</time>
      </trkpt>
      <trkpt lat="45.73988065123558" lon="6.789314830675721">
        <ele>2144.8400000000001</ele>
        <time>2014-07-19T06:47:27Z</time>
      </trkpt>
      <trkpt lat="45.739889033138752" lon="6.789302844554186">
        <ele>2144.8400000000001</ele>
        <time>2014-07-19T06:47:43Z</time>
      </trkpt>
      <trkpt lat="45.739939408376813" lon="6.789261437952519">
        <ele>2146.7600000000002</ele>
        <time>2014-07-19T06:47:57Z</time>
      </trkpt>
      <trkpt lat="45.740029765293002" lon="6.789204524829984">
        <ele>2148.6799999999998</ele>
        <time>2014-07-19T06:48:10Z</time>
      </trkpt>
      <trkpt lat="45.740140154957771" lon="6.789164207875729">
        <ele>2149.1599999999999</ele>
        <time>2014-07-19T06:48:26Z</time>
      </trkpt>
      <trkpt lat="45.740242078900337" lon="6.789215924218297">
        <ele>2152.0500000000002</ele>
        <time>2014-07-19T06:48:43Z</time>
      </trkpt>
      <trkpt lat="45.74031894095242" lon="6.789162363857031">
        <ele>2154.9299999999998</ele>
        <time>2014-07-19T06:48:59Z</time>
      </trkpt>
      <trkpt lat="45.740414159372449" lon="6.789140487089753">
        <ele>2156.8600000000001</ele>
        <time>2014-07-19T06:49:14Z</time>
      </trkpt>
      <trkpt lat="45.740487836301327" lon="6.789202932268381">
        <ele>2158.7800000000002</ele>
        <time>2014-07-19T06:49:30Z</time>
      </trkpt>
      <trkpt lat="45.740556064993143" lon="6.789120202884078">
        <ele>2160.6999999999998</ele>
        <time>2014-07-19T06:49:45Z</time>
      </trkpt>
      <trkpt lat="45.74062236584723" lon="6.789059517905116">
        <ele>2164.0599999999999</ele>
        <time>2014-07-19T06:49:56Z</time>
      </trkpt>
      <trkpt lat="45.740633262321353" lon="6.789056668058038">
        <ele>2165.0300000000002</ele>
        <time>2014-07-19T06:49:58Z</time>
      </trkpt>
      <trkpt lat="45.740683889016509" lon="6.78909975104034">
        <ele>2165.9899999999998</ele>
        <time>2014-07-19T06:50:05Z</time>
      </trkpt>
      <trkpt lat="45.740714566782117" lon="6.789159933105111">
        <ele>2164.0599999999999</ele>
        <time>2014-07-19T06:50:10Z</time>
      </trkpt>
      <trkpt lat="45.740733174607158" lon="6.789193795993924">
        <ele>2164.0599999999999</ele>
        <time>2014-07-19T06:50:13Z</time>
      </trkpt>
      <trkpt lat="45.740829315036535" lon="6.789256492629647">
        <ele>2164.5500000000002</ele>
        <time>2014-07-19T06:50:25Z</time>
      </trkpt>
      <trkpt lat="45.740954708307981" lon="6.789265628904104">
        <ele>2165.9899999999998</ele>
        <time>2014-07-19T06:50:41Z</time>
      </trkpt>
      <trkpt lat="45.741040706634521" lon="6.789333270862699">
        <ele>2167.4299999999998</ele>
        <time>2014-07-19T06:50:52Z</time>
      </trkpt>
      <trkpt lat="45.741146402433515" lon="6.789425974711776">
        <ele>2168.8699999999999</ele>
        <time>2014-07-19T06:51:07Z</time>
      </trkpt>
      <trkpt lat="45.741204991936684" lon="6.789542399346829">
        <ele>2173.6799999999998</ele>
        <time>2014-07-19T06:51:19Z</time>
      </trkpt>
      <trkpt lat="45.741212954744697" lon="6.789552206173539">
        <ele>2169.8299999999999</ele>
        <time>2014-07-19T06:51:20Z</time>
      </trkpt>
      <trkpt lat="45.741286631673574" lon="6.789713893085718">
        <ele>2171.27</ele>
        <time>2014-07-19T06:51:35Z</time>
      </trkpt>
      <trkpt lat="45.741344718262553" lon="6.789813302457333">
        <ele>2172.7199999999998</ele>
        <time>2014-07-19T06:51:46Z</time>
      </trkpt>
      <trkpt lat="45.741378581151366" lon="6.789854625239968">
        <ele>2176.0799999999999</ele>
        <time>2014-07-19T06:51:53Z</time>
      </trkpt>
      <trkpt lat="45.741391321644187" lon="6.789871053770185">
        <ele>2177.04</ele>
        <time>2014-07-19T06:51:55Z</time>
      </trkpt>
      <trkpt lat="45.741452090442181" lon="6.790002733469009">
        <ele>2176.5599999999999</ele>
        <time>2014-07-19T06:52:10Z</time>
      </trkpt>
      <trkpt lat="45.741462484002113" lon="6.790058556944132">
        <ele>2178</ele>
        <time>2014-07-19T06:52:14Z</time>
      </trkpt>
      <trkpt lat="45.741458460688591" lon="6.790270619094372">
        <ele>2176.0799999999999</ele>
        <time>2014-07-19T06:52:31Z</time>
      </trkpt>
      <trkpt lat="45.741488886997104" lon="6.790418308228254">
        <ele>2179.4499999999998</ele>
        <time>2014-07-19T06:52:45Z</time>
      </trkpt>
      <trkpt lat="45.741537502035499" lon="6.790553340688348">
        <ele>2181.8499999999999</ele>
        <time>2014-07-19T06:52:59Z</time>
      </trkpt>
      <trkpt lat="45.741558875888586" lon="6.790678817778826">
        <ele>2184.25</ele>
        <time>2014-07-19T06:53:13Z</time>
      </trkpt>
      <trkpt lat="45.741593576967716" lon="6.790794152766466">
        <ele>2187.6199999999999</ele>
        <time>2014-07-19T06:53:26Z</time>
      </trkpt>
      <trkpt lat="45.741663984954357" lon="6.790944691747427">
        <ele>2189.0599999999999</ele>
        <time>2014-07-19T06:53:41Z</time>
      </trkpt>
      <trkpt lat="45.741706481203437" lon="6.79110704921186">
        <ele>2189.54</ele>
        <time>2014-07-19T06:53:56Z</time>
      </trkpt>
      <trkpt lat="45.74173791334033" lon="6.791167901828885">
        <ele>2192.9000000000001</ele>
        <time>2014-07-19T06:54:04Z</time>
      </trkpt>
      <trkpt lat="45.741765070706606" lon="6.791247865185142">
        <ele>2192.9000000000001</ele>
        <time>2014-07-19T06:54:11Z</time>
      </trkpt>
      <trkpt lat="45.741845704615116" lon="6.791343502700329">
        <ele>2195.3099999999999</ele>
        <time>2014-07-19T06:54:28Z</time>
      </trkpt>
      <trkpt lat="45.74192751199007" lon="6.791447522118688">
        <ele>2194.3499999999999</ele>
        <time>2014-07-19T06:54:42Z</time>
      </trkpt>
      <trkpt lat="45.741965649649501" lon="6.791538381949067">
        <ele>2194.8299999999999</ele>
        <time>2014-07-19T06:54:55Z</time>
      </trkpt>
      <trkpt lat="45.741965146735311" lon="6.791669139638543">
        <ele>2197.23</ele>
        <time>2014-07-19T06:55:09Z</time>
      </trkpt>
      <trkpt lat="45.741971684619784" lon="6.791699314489961">
        <ele>2199.1500000000001</ele>
        <time>2014-07-19T06:55:12Z</time>
      </trkpt>
      <trkpt lat="45.742004374042153" lon="6.791860749945045">
        <ele>2201.0799999999999</ele>
        <time>2014-07-19T06:55:28Z</time>
      </trkpt>
      <trkpt lat="45.741981072351336" lon="6.791969127953053">
        <ele>2203.48</ele>
        <time>2014-07-19T06:55:41Z</time>
      </trkpt>
      <trkpt lat="45.741985850036144" lon="6.791974660009146">
        <ele>2203.48</ele>
        <time>2014-07-19T06:55:42Z</time>
      </trkpt>
      <trkpt lat="45.741986185312271" lon="6.792086893692613">
        <ele>2204.4400000000001</ele>
        <time>2014-07-19T06:55:57Z</time>
      </trkpt>
      <trkpt lat="45.741995489224792" lon="6.792165515944362">
        <ele>2207.8099999999999</ele>
        <time>2014-07-19T06:56:08Z</time>
      </trkpt>
      <trkpt lat="45.742052905261517" lon="6.792234163731337">
        <ele>2209.73</ele>
        <time>2014-07-19T06:56:22Z</time>
      </trkpt>
      <trkpt lat="45.742110908031464" lon="6.792305409908295">
        <ele>2213.0900000000001</ele>
        <time>2014-07-19T06:56:36Z</time>
      </trkpt>
      <trkpt lat="45.742180058732629" lon="6.792356790974736">
        <ele>2215.5</ele>
        <time>2014-07-19T06:56:50Z</time>
      </trkpt>
      <trkpt lat="45.742263710126281" lon="6.7924346588552">
        <ele>2217.9000000000001</ele>
        <time>2014-07-19T06:57:06Z</time>
      </trkpt>
      <trkpt lat="45.742290867492557" lon="6.792488386854529">
        <ele>2217.4200000000001</ele>
        <time>2014-07-19T06:57:14Z</time>
      </trkpt>
      <trkpt lat="45.74230570346117" lon="6.792536331340671">
        <ele>2218.3800000000001</ele>
        <time>2014-07-19T06:57:21Z</time>
      </trkpt>
      <trkpt lat="45.742319952696562" lon="6.792556447908282">
        <ele>2220.7800000000002</ele>
        <time>2014-07-19T06:57:26Z</time>
      </trkpt>
      <trkpt lat="45.742383738979697" lon="6.792598944157362">
        <ele>2223.6700000000001</ele>
        <time>2014-07-19T06:57:39Z</time>
      </trkpt>
      <trkpt lat="45.742389354854822" lon="6.792603302747011">
        <ele>2223.6700000000001</ele>
        <time>2014-07-19T06:57:40Z</time>
      </trkpt>
      <trkpt lat="45.742457248270512" lon="6.792595842853189">
        <ele>2227.5100000000002</ele>
        <time>2014-07-19T06:57:50Z</time>
      </trkpt>
      <trkpt lat="45.742462864145637" lon="6.792598273605108">
        <ele>2227.5100000000002</ele>
        <time>2014-07-19T06:57:51Z</time>
      </trkpt>
      <trkpt lat="45.742517933249474" lon="6.792640937492251">
        <ele>2230.8800000000001</ele>
        <time>2014-07-19T06:58:02Z</time>
      </trkpt>
      <trkpt lat="45.742607116699219" lon="6.792775802314282">
        <ele>2230.4000000000001</ele>
        <time>2014-07-19T06:58:18Z</time>
      </trkpt>
      <trkpt lat="45.742663778364658" lon="6.792917540296912">
        <ele>2230.4000000000001</ele>
        <time>2014-07-19T06:58:35Z</time>
      </trkpt>
      <trkpt lat="45.742748687043786" lon="6.792933801189065">
        <ele>2230.8800000000001</ele>
        <time>2014-07-19T06:58:49Z</time>
      </trkpt>
      <trkpt lat="45.742773162201047" lon="6.792955845594406">
        <ele>2233.2800000000002</ele>
        <time>2014-07-19T06:58:54Z</time>
      </trkpt>
      <trkpt lat="45.742847844958305" lon="6.793004460632801">
        <ele>2233.7600000000002</ele>
        <time>2014-07-19T06:59:06Z</time>
      </trkpt>
      <trkpt lat="45.742940464988351" lon="6.792916785925627">
        <ele>2235.1999999999998</ele>
        <time>2014-07-19T06:59:20Z</time>
      </trkpt>
      <trkpt lat="45.742961000651121" lon="6.792910331860185">
        <ele>2237.1300000000001</ele>
        <time>2014-07-19T06:59:23Z</time>
      </trkpt>
      <trkpt lat="45.743015985935926" lon="6.793051734566689">
        <ele>2237.6100000000001</ele>
        <time>2014-07-19T06:59:37Z</time>
      </trkpt>
      <trkpt lat="45.743076503276825" lon="6.793188694864512">
        <ele>2241.4499999999998</ele>
        <time>2014-07-19T06:59:54Z</time>
      </trkpt>
      <trkpt lat="45.743180606514215" lon="6.79321208037436">
        <ele>2243.3699999999999</ele>
        <time>2014-07-19T07:00:10Z</time>
      </trkpt>
      <trkpt lat="45.743257300928235" lon="6.793305790051818">
        <ele>2245.3000000000002</ele>
        <time>2014-07-19T07:00:25Z</time>
      </trkpt>
      <trkpt lat="45.743329720571637" lon="6.793323056772351">
        <ele>2248.6599999999999</ele>
        <time>2014-07-19T07:00:39Z</time>
      </trkpt>
      <trkpt lat="45.743379257619381" lon="6.793268155306578">
        <ele>2250.0999999999999</ele>
        <time>2014-07-19T07:00:51Z</time>
      </trkpt>
      <trkpt lat="45.743383448570967" lon="6.793246110901237">
        <ele>2252.0300000000002</ele>
        <time>2014-07-19T07:00:56Z</time>
      </trkpt>
      <trkpt lat="45.743472380563617" lon="6.793239573016763">
        <ele>2252.5100000000002</ele>
        <time>2014-07-19T07:01:10Z</time>
      </trkpt>
      <trkpt lat="45.743537005037069" lon="6.793157514184713">
        <ele>2253.4699999999998</ele>
        <time>2014-07-19T07:01:24Z</time>
      </trkpt>
      <trkpt lat="45.743522252887487" lon="6.793074365705252">
        <ele>2256.3499999999999</ele>
        <time>2014-07-19T07:01:34Z</time>
      </trkpt>
      <trkpt lat="45.743518313392997" lon="6.793051734566689">
        <ele>2258.27</ele>
        <time>2014-07-19T07:01:37Z</time>
      </trkpt>
      <trkpt lat="45.743518648669124" lon="6.793026253581047">
        <ele>2259.2399999999998</ele>
        <time>2014-07-19T07:01:42Z</time>
      </trkpt>
      <trkpt lat="45.743532227352262" lon="6.792975626885891">
        <ele>2259.2399999999998</ele>
        <time>2014-07-19T07:01:46Z</time>
      </trkpt>
      <trkpt lat="45.743622248992324" lon="6.792974034324288">
        <ele>2259.2399999999998</ele>
        <time>2014-07-19T07:01:55Z</time>
      </trkpt>
      <trkpt lat="45.743732387199998" lon="6.792980404570699">
        <ele>2258.75</ele>
        <time>2014-07-19T07:02:06Z</time>
      </trkpt>
      <trkpt lat="45.743855014443398" lon="6.792784268036485">
        <ele>2258.75</ele>
        <time>2014-07-19T07:02:23Z</time>
      </trkpt>
      <trkpt lat="45.743856271728873" lon="6.792739005759358">
        <ele>2259.2399999999998</ele>
        <time>2014-07-19T07:02:26Z</time>
      </trkpt>
      <trkpt lat="45.743863228708506" lon="6.79271369241178">
        <ele>2259.7199999999998</ele>
        <time>2014-07-19T07:02:28Z</time>
      </trkpt>
      <trkpt lat="45.74390547350049" lon="6.79259492084384">
        <ele>2260.6799999999998</ele>
        <time>2014-07-19T07:02:40Z</time>
      </trkpt>
      <trkpt lat="45.743935815989971" lon="6.792468102648854">
        <ele>2262.1199999999999</ele>
        <time>2014-07-19T07:02:52Z</time>
      </trkpt>
      <trkpt lat="45.743943694978952" lon="6.792410770431161">
        <ele>2264.52</ele>
        <time>2014-07-19T07:02:57Z</time>
      </trkpt>
      <trkpt lat="45.74394553899765" lon="6.792377158999443">
        <ele>2264.04</ele>
        <time>2014-07-19T07:03:00Z</time>
      </trkpt>
      <trkpt lat="45.74396749958396" lon="6.792311947792769">
        <ele>2265</ele>
        <time>2014-07-19T07:03:06Z</time>
      </trkpt>
      <trkpt lat="45.744043774902821" lon="6.792172640562058">
        <ele>2266.4499999999998</ele>
        <time>2014-07-19T07:03:20Z</time>
      </trkpt>
      <trkpt lat="45.744065651670098" lon="6.792142549529672">
        <ele>2267.8899999999999</ele>
        <time>2014-07-19T07:03:35Z</time>
      </trkpt>
      <trkpt lat="45.744140585884452" lon="6.792088821530342">
        <ele>2267.4099999999999</ele>
        <time>2014-07-19T07:03:49Z</time>
      </trkpt>
      <trkpt lat="45.744196576997638" lon="6.791968373581767">
        <ele>2269.3299999999999</ele>
        <time>2014-07-19T07:04:07Z</time>
      </trkpt>
      <trkpt lat="45.744308223947883" lon="6.791893858462572">
        <ele>2271.73</ele>
        <time>2014-07-19T07:04:24Z</time>
      </trkpt>
      <trkpt lat="45.744361868128181" lon="6.791820516809821">
        <ele>2275.0999999999999</ele>
        <time>2014-07-19T07:04:35Z</time>
      </trkpt>
      <trkpt lat="45.744460942223668" lon="6.791764693334699">
        <ele>2276.0599999999999</ele>
        <time>2014-07-19T07:04:50Z</time>
      </trkpt>
      <trkpt lat="45.744567476212978" lon="6.791714737191796">
        <ele>2277.98</ele>
        <time>2014-07-19T07:05:04Z</time>
      </trkpt>
      <trkpt lat="45.744662610813975" lon="6.791666457429528">
        <ele>2279.4200000000001</ele>
        <time>2014-07-19T07:05:17Z</time>
      </trkpt>
      <trkpt lat="45.744744585826993" lon="6.791588086634874">
        <ele>2281.8299999999999</ele>
        <time>2014-07-19T07:05:30Z</time>
      </trkpt>
      <trkpt lat="45.744847180321813" lon="6.791539220139384">
        <ele>2283.27</ele>
        <time>2014-07-19T07:05:44Z</time>
      </trkpt>
      <trkpt lat="45.744961760938168" lon="6.791513152420521">
        <ele>2286.1500000000001</ele>
        <time>2014-07-19T07:05:59Z</time>
      </trkpt>
      <trkpt lat="45.745062930509448" lon="6.791478702798486">
        <ele>2286.1500000000001</ele>
        <time>2014-07-19T07:06:14Z</time>
      </trkpt>
      <trkpt lat="45.745119089260697" lon="6.791384657844901">
        <ele>2287.1100000000001</ele>
        <time>2014-07-19T07:06:26Z</time>
      </trkpt>
      <trkpt lat="45.745237441733479" lon="6.79133721627295">
        <ele>2288.5599999999999</ele>
        <time>2014-07-19T07:06:41Z</time>
      </trkpt>
      <trkpt lat="45.745351016521454" lon="6.791383400559425">
        <ele>2289.52</ele>
        <time>2014-07-19T07:06:57Z</time>
      </trkpt>
      <trkpt lat="45.745399463921785" lon="6.791404271498323">
        <ele>2291.4400000000001</ele>
        <time>2014-07-19T07:07:05Z</time>
      </trkpt>
      <trkpt lat="45.745425196364522" lon="6.79141097702086">
        <ele>2295.2800000000002</ele>
        <time>2014-07-19T07:07:10Z</time>
      </trkpt>
      <trkpt lat="45.745432823896408" lon="6.791412066668272">
        <ele>2294.8000000000002</ele>
        <time>2014-07-19T07:07:11Z</time>
      </trkpt>
      <trkpt lat="45.745497113093734" lon="6.791427489370108">
        <ele>2295.77</ele>
        <time>2014-07-19T07:07:22Z</time>
      </trkpt>
      <trkpt lat="45.745563162490726" lon="6.791451126337051">
        <ele>2297.21</ele>
        <time>2014-07-19T07:07:31Z</time>
      </trkpt>
      <trkpt lat="45.745651926845312" lon="6.791468476876617">
        <ele>2299.1300000000001</ele>
        <time>2014-07-19T07:07:44Z</time>
      </trkpt>
      <trkpt lat="45.745726861059666" lon="6.791479792445898">
        <ele>2301.5300000000002</ele>
        <time>2014-07-19T07:07:55Z</time>
      </trkpt>
      <trkpt lat="45.745735829696059" lon="6.791507788002491">
        <ele>2300.5700000000002</ele>
        <time>2014-07-19T07:08:12Z</time>
      </trkpt>
      <trkpt lat="45.745790060609579" lon="6.791556989774108">
        <ele>2302.98</ele>
        <time>2014-07-19T07:08:23Z</time>
      </trkpt>
      <trkpt lat="45.745845381170511" lon="6.791601665318012">
        <ele>2302.0100000000002</ele>
        <time>2014-07-19T07:08:38Z</time>
      </trkpt>
      <trkpt lat="45.745845464989543" lon="6.791627481579781">
        <ele>2303.46</ele>
        <time>2014-07-19T07:08:43Z</time>
      </trkpt>
      <trkpt lat="45.745856110006571" lon="6.791641479358077">
        <ele>2304.4200000000001</ele>
        <time>2014-07-19T07:08:45Z</time>
      </trkpt>
      <trkpt lat="45.74591469950974" lon="6.791661847382784">
        <ele>2305.8600000000001</ele>
        <time>2014-07-19T07:09:01Z</time>
      </trkpt>
      <trkpt lat="45.745906652882695" lon="6.791683305054903">
        <ele>2303.9400000000001</ele>
        <time>2014-07-19T07:09:13Z</time>
      </trkpt>
      <trkpt lat="45.745898941531777" lon="6.791695291176438">
        <ele>2307.3000000000002</ele>
        <time>2014-07-19T07:09:38Z</time>
      </trkpt>
      <trkpt lat="45.745898606255651" lon="6.791693950071931">
        <ele>2306.8200000000002</ele>
        <time>2014-07-19T07:09:39Z</time>
      </trkpt>
      <trkpt lat="45.745914112776518" lon="6.791713060811162">
        <ele>2307.3000000000002</ele>
        <time>2014-07-19T07:09:46Z</time>
      </trkpt>
      <trkpt lat="45.745901539921761" lon="6.791681628674269">
        <ele>2307.3000000000002</ele>
        <time>2014-07-19T07:10:01Z</time>
      </trkpt>
      <trkpt lat="45.745889218524098" lon="6.791676767170429">
        <ele>2307.3000000000002</ele>
        <time>2014-07-19T07:10:24Z</time>
      </trkpt>
      <trkpt lat="45.74589516967535" lon="6.791681041941047">
        <ele>2306.8200000000002</ele>
        <time>2014-07-19T07:10:41Z</time>
      </trkpt>
      <trkpt lat="45.745892655104399" lon="6.791674252599478">
        <ele>2307.3000000000002</ele>
        <time>2014-07-19T07:11:01Z</time>
      </trkpt>
      <trkpt lat="45.745888547971845" lon="6.791664529591799">
        <ele>2306.8200000000002</ele>
        <time>2014-07-19T07:11:29Z</time>
      </trkpt>
      <trkpt lat="45.74590103700757" lon="6.791702499613166">
        <ele>2302.98</ele>
        <time>2014-07-19T07:11:43Z</time>
      </trkpt>
      <trkpt lat="45.74590053409338" lon="6.791757233440876">
        <ele>2306.3400000000001</ele>
        <time>2014-07-19T07:11:52Z</time>
      </trkpt>
      <trkpt lat="45.745930708944798" lon="6.791805429384112">
        <ele>2310.1900000000001</ele>
        <time>2014-07-19T07:12:02Z</time>
      </trkpt>
      <trkpt lat="45.745933726429939" lon="6.791808782145381">
        <ele>2309.6999999999998</ele>
        <time>2014-07-19T07:12:03Z</time>
      </trkpt>
      <trkpt lat="45.745931379497051" lon="6.791810290887952">
        <ele>2311.6300000000001</ele>
        <time>2014-07-19T07:12:19Z</time>
      </trkpt>
      <trkpt lat="45.745936241000891" lon="6.791828731074929">
        <ele>2310.1900000000001</ele>
        <time>2014-07-19T07:12:36Z</time>
      </trkpt>
      <trkpt lat="45.74596599675715" lon="6.791804507374764">
        <ele>2310.6700000000001</ele>
        <time>2014-07-19T07:12:55Z</time>
      </trkpt>
      <trkpt lat="45.746028609573841" lon="6.791899055242539">
        <ele>2308.2600000000002</ele>
        <time>2014-07-19T07:13:07Z</time>
      </trkpt>
      <trkpt lat="45.746022993698716" lon="6.791937695816159">
        <ele>2307.7800000000002</ele>
        <time>2014-07-19T07:13:11Z</time>
      </trkpt>
      <trkpt lat="45.746034560725093" lon="6.792020089924336">
        <ele>2311.6300000000001</ele>
        <time>2014-07-19T07:13:21Z</time>
      </trkpt>
      <trkpt lat="45.746031459420919" lon="6.792026795446873">
        <ele>2311.6300000000001</ele>
        <time>2014-07-19T07:13:22Z</time>
      </trkpt>
      <trkpt lat="45.746031124144793" lon="6.792047247290611">
        <ele>2310.1900000000001</ele>
        <time>2014-07-19T07:13:24Z</time>
      </trkpt>
      <trkpt lat="45.746009247377515" lon="6.792149757966399">
        <ele>2313.5500000000002</ele>
        <time>2014-07-19T07:13:39Z</time>
      </trkpt>
      <trkpt lat="45.746022742241621" lon="6.792186303064227">
        <ele>2314.0300000000002</ele>
        <time>2014-07-19T07:13:44Z</time>
      </trkpt>
      <trkpt lat="45.746039086952806" lon="6.792287472635508">
        <ele>2314.9899999999998</ele>
        <time>2014-07-19T07:13:55Z</time>
      </trkpt>
      <trkpt lat="45.746051827445626" lon="6.792438346892595">
        <ele>2317.8800000000001</ele>
        <time>2014-07-19T07:14:12Z</time>
      </trkpt>
      <trkpt lat="45.746056353673339" lon="6.792458882555366">
        <ele>2319.8000000000002</ele>
        <time>2014-07-19T07:14:15Z</time>
      </trkpt>
      <trkpt lat="45.746079906821251" lon="6.792604057118297">
        <ele>2320.7600000000002</ele>
        <time>2014-07-19T07:14:30Z</time>
      </trkpt>
      <trkpt lat="45.746099352836609" lon="6.792679494246841">
        <ele>2323.1599999999999</ele>
        <time>2014-07-19T07:14:38Z</time>
      </trkpt>
      <trkpt lat="45.746119637042284" lon="6.792705310508609">
        <ele>2325.5700000000002</ele>
        <time>2014-07-19T07:14:41Z</time>
      </trkpt>
      <trkpt lat="45.746174957603216" lon="6.79284755140543">
        <ele>2323.6399999999999</ele>
        <time>2014-07-19T07:14:57Z</time>
      </trkpt>
      <trkpt lat="45.746214771643281" lon="6.792956097051501">
        <ele>2327.0100000000002</ele>
        <time>2014-07-19T07:15:08Z</time>
      </trkpt>
      <trkpt lat="45.746221141889691" lon="6.792965568602085">
        <ele>2327.4899999999998</ele>
        <time>2014-07-19T07:15:09Z</time>
      </trkpt>
      <trkpt lat="45.746267326176167" lon="6.793132703751326">
        <ele>2327.0100000000002</ele>
        <time>2014-07-19T07:15:26Z</time>
      </trkpt>
      <trkpt lat="45.746276378631592" lon="6.793182827532291">
        <ele>2329.8899999999999</ele>
        <time>2014-07-19T07:15:32Z</time>
      </trkpt>
      <trkpt lat="45.746278306469321" lon="6.793211493641138">
        <ele>2326.5300000000002</ele>
        <time>2014-07-19T07:15:35Z</time>
      </trkpt>
      <trkpt lat="45.746277803555131" lon="6.793300174176693">
        <ele>2329.8899999999999</ele>
        <time>2014-07-19T07:15:44Z</time>
      </trkpt>
      <trkpt lat="45.74628509581089" lon="6.79332104511559">
        <ele>2330.8499999999999</ele>
        <time>2014-07-19T07:15:46Z</time>
      </trkpt>
      <trkpt lat="45.746326586231589" lon="6.793474685400724">
        <ele>2333.2600000000002</ele>
        <time>2014-07-19T07:16:03Z</time>
      </trkpt>
      <trkpt lat="45.746361454948783" lon="6.793557247146964">
        <ele>2336.6199999999999</ele>
        <time>2014-07-19T07:16:14Z</time>
      </trkpt>
      <trkpt lat="45.74635935947299" lon="6.793645927682519">
        <ele>2336.6199999999999</ele>
        <time>2014-07-19T07:16:29Z</time>
      </trkpt>
      <trkpt lat="45.746398335322738" lon="6.793708121404052">
        <ele>2337.5799999999999</ele>
        <time>2014-07-19T07:16:39Z</time>
      </trkpt>
      <trkpt lat="45.746511658653617" lon="6.793878106400371">
        <ele>2339.02</ele>
        <time>2014-07-19T07:16:58Z</time>
      </trkpt>
      <trkpt lat="45.746560022234917" lon="6.793981036171317">
        <ele>2342.3899999999999</ele>
        <time>2014-07-19T07:17:09Z</time>
      </trkpt>
      <trkpt lat="45.746611822396517" lon="6.794112212955952">
        <ele>2343.8299999999999</ele>
        <time>2014-07-19T07:17:22Z</time>
      </trkpt>
      <trkpt lat="45.746646272018552" lon="6.794217322021723">
        <ele>2344.79</ele>
        <time>2014-07-19T07:17:35Z</time>
      </trkpt>
      <trkpt lat="45.746651301160455" lon="6.794221680611372">
        <ele>2344.79</ele>
        <time>2014-07-19T07:17:36Z</time>
      </trkpt>
      <trkpt lat="45.746691366657615" lon="6.794355707243085">
        <ele>2347.6799999999998</ele>
        <time>2014-07-19T07:17:50Z</time>
      </trkpt>
      <trkpt lat="45.746720368042588" lon="6.794483615085483">
        <ele>2348.1599999999999</ele>
        <time>2014-07-19T07:18:05Z</time>
      </trkpt>
      <trkpt lat="45.746699078008533" lon="6.794513957574964">
        <ele>2349.5999999999999</ele>
        <time>2014-07-19T07:18:11Z</time>
      </trkpt>
      <trkpt lat="45.746724223718047" lon="6.794590651988983">
        <ele>2351.52</ele>
        <time>2014-07-19T07:18:18Z</time>
      </trkpt>
      <trkpt lat="45.746725313365459" lon="6.794612696394324">
        <ele>2352.96</ele>
        <time>2014-07-19T07:18:20Z</time>
      </trkpt>
      <trkpt lat="45.746778035536408" lon="6.794779244810343">
        <ele>2353.9299999999998</ele>
        <time>2014-07-19T07:18:36Z</time>
      </trkpt>
      <trkpt lat="45.746801337227225" lon="6.7948401812464">
        <ele>2356.8099999999999</ele>
        <time>2014-07-19T07:18:42Z</time>
      </trkpt>
      <trkpt lat="45.746808378025889" lon="6.794855184853077">
        <ele>2355.8499999999999</ele>
        <time>2014-07-19T07:18:43Z</time>
      </trkpt>
      <trkpt lat="45.746833775192499" lon="6.79499021731317">
        <ele>2356.8099999999999</ele>
        <time>2014-07-19T07:18:59Z</time>
      </trkpt>
      <trkpt lat="45.746879540383816" lon="6.795116532593966">
        <ele>2359.21</ele>
        <time>2014-07-19T07:19:14Z</time>
      </trkpt>
      <trkpt lat="45.746887251734734" lon="6.795128015801311">
        <ele>2359.6900000000001</ele>
        <time>2014-07-19T07:19:15Z</time>
      </trkpt>
      <trkpt lat="45.746966209262609" lon="6.795265730470419">
        <ele>2361.6199999999999</ele>
        <time>2014-07-19T07:19:32Z</time>
      </trkpt>
      <trkpt lat="45.747036281973124" lon="6.795381149277091">
        <ele>2363.54</ele>
        <time>2014-07-19T07:19:48Z</time>
      </trkpt>
      <trkpt lat="45.747052459046245" lon="6.795385172590613">
        <ele>2365.46</ele>
        <time>2014-07-19T07:19:51Z</time>
      </trkpt>
      <trkpt lat="45.747125633060932" lon="6.795513248071075">
        <ele>2365.9400000000001</ele>
        <time>2014-07-19T07:20:06Z</time>
      </trkpt>
      <trkpt lat="45.747145246714354" lon="6.795570245012641">
        <ele>2365.9400000000001</ele>
        <time>2014-07-19T07:20:11Z</time>
      </trkpt>
      <trkpt lat="45.747246081009507" lon="6.795706786215305">
        <ele>2368.8299999999999</ele>
        <time>2014-07-19T07:20:26Z</time>
      </trkpt>
      <trkpt lat="45.747309951111674" lon="6.795843159779906">
        <ele>2367.3800000000001</ele>
        <time>2014-07-19T07:20:39Z</time>
      </trkpt>
      <trkpt lat="45.747329480946064" lon="6.795871406793594">
        <ele>2369.79</ele>
        <time>2014-07-19T07:20:44Z</time>
      </trkpt>
      <trkpt lat="45.747339874505997" lon="6.795889176428318">
        <ele>2368.3499999999999</ele>
        <time>2014-07-19T07:20:46Z</time>
      </trkpt>
      <trkpt lat="45.747369043529034" lon="6.796045582741499">
        <ele>2370.75</ele>
        <time>2014-07-19T07:21:02Z</time>
      </trkpt>
      <trkpt lat="45.747396284714341" lon="6.796183548867703">
        <ele>2372.6700000000001</ele>
        <time>2014-07-19T07:21:16Z</time>
      </trkpt>
      <trkpt lat="45.747435428202152" lon="6.79633978754282">
        <ele>2375.0700000000002</ele>
        <time>2014-07-19T07:21:32Z</time>
      </trkpt>
      <trkpt lat="45.74749443680048" lon="6.79649418219924">
        <ele>2377</ele>
        <time>2014-07-19T07:21:48Z</time>
      </trkpt>
      <trkpt lat="45.747499885037541" lon="6.79649418219924">
        <ele>2377.48</ele>
        <time>2014-07-19T07:21:49Z</time>
      </trkpt>
      <trkpt lat="45.747530143707991" lon="6.796559896320105">
        <ele>2377.48</ele>
        <time>2014-07-19T07:21:56Z</time>
      </trkpt>
      <trkpt lat="45.747568281367421" lon="6.796632399782538">
        <ele>2378.9200000000001</ele>
        <time>2014-07-19T07:22:03Z</time>
      </trkpt>
      <trkpt lat="45.747595774009824" lon="6.796716805547476">
        <ele>2380.3600000000001</ele>
        <time>2014-07-19T07:22:12Z</time>
      </trkpt>
      <trkpt lat="45.747650591656566" lon="6.796842031180859">
        <ele>2381.3200000000002</ele>
        <time>2014-07-19T07:22:26Z</time>
      </trkpt>
      <trkpt lat="45.747713623568416" lon="6.79699307307601">
        <ele>2381.8000000000002</ele>
        <time>2014-07-19T07:22:41Z</time>
      </trkpt>
      <trkpt lat="45.747788557782769" lon="6.797146126627922">
        <ele>2384.21</ele>
        <time>2014-07-19T07:22:59Z</time>
      </trkpt>
      <trkpt lat="45.747834406793118" lon="6.797250481322408">
        <ele>2386.1300000000001</ele>
        <time>2014-07-19T07:23:12Z</time>
      </trkpt>
      <trkpt lat="45.747901126742363" lon="6.797361876815558">
        <ele>2388.5300000000002</ele>
        <time>2014-07-19T07:23:27Z</time>
      </trkpt>
      <trkpt lat="45.747929625213146" lon="6.797392470762134">
        <ele>2388.5300000000002</ele>
        <time>2014-07-19T07:23:33Z</time>
      </trkpt>
      <trkpt lat="45.747980251908302" lon="6.797484420239925">
        <ele>2391.4200000000001</ele>
        <time>2014-07-19T07:23:47Z</time>
      </trkpt>
      <trkpt lat="45.747995590791106" lon="6.797524485737085">
        <ele>2392.8600000000001</ele>
        <time>2014-07-19T07:23:53Z</time>
      </trkpt>
      <trkpt lat="45.748071363195777" lon="6.797572765499353">
        <ele>2395.2600000000002</ele>
        <time>2014-07-19T07:24:05Z</time>
      </trkpt>
      <trkpt lat="45.748086031526327" lon="6.7975789681077">
        <ele>2395.2600000000002</ele>
        <time>2014-07-19T07:24:07Z</time>
      </trkpt>
      <trkpt lat="45.748160379007459" lon="6.797632863745093">
        <ele>2396.2199999999998</ele>
        <time>2014-07-19T07:24:21Z</time>
      </trkpt>
      <trkpt lat="45.748177729547024" lon="6.797642335295677">
        <ele>2397.6700000000001</ele>
        <time>2014-07-19T07:24:24Z</time>
      </trkpt>
      <trkpt lat="45.748224500566721" lon="6.797749288380146">
        <ele>2400.5500000000002</ele>
        <time>2014-07-19T07:24:37Z</time>
      </trkpt>
      <trkpt lat="45.748230032622814" lon="6.797757754102349">
        <ele>2400.5500000000002</ele>
        <time>2014-07-19T07:24:38Z</time>
      </trkpt>
      <trkpt lat="45.74830261990428" lon="6.797800082713366">
        <ele>2401.9899999999998</ele>
        <time>2014-07-19T07:24:50Z</time>
      </trkpt>
      <trkpt lat="45.748376715928316" lon="6.797920363023877">
        <ele>2403.9099999999999</ele>
        <time>2014-07-19T07:25:04Z</time>
      </trkpt>
      <trkpt lat="45.748432287946343" lon="6.798070231452584">
        <ele>2404.8800000000001</ele>
        <time>2014-07-19T07:25:21Z</time>
      </trkpt>
      <trkpt lat="45.748437568545341" lon="6.798079116269946">
        <ele>2404.8800000000001</ele>
        <time>2014-07-19T07:25:43Z</time>
      </trkpt>
      <trkpt lat="45.748494565486908" lon="6.798201492056251">
        <ele>2407.7600000000002</ele>
        <time>2014-07-19T07:25:57Z</time>
      </trkpt>
      <trkpt lat="45.748554663732648" lon="6.798296794295311">
        <ele>2410.1599999999999</ele>
        <time>2014-07-19T07:26:09Z</time>
      </trkpt>
      <trkpt lat="45.748605960980058" lon="6.798400897532702">
        <ele>2412.5700000000002</ele>
        <time>2014-07-19T07:26:22Z</time>
      </trkpt>
      <trkpt lat="45.748612331226468" lon="6.798439202830195">
        <ele>2411.5999999999999</ele>
        <time>2014-07-19T07:26:25Z</time>
      </trkpt>
      <trkpt lat="45.748589280992746" lon="6.798549257218838">
        <ele>2412.5700000000002</ele>
        <time>2014-07-19T07:26:36Z</time>
      </trkpt>
      <trkpt lat="45.748596405610442" lon="6.798577671870589">
        <ele>2414.4899999999998</ele>
        <time>2014-07-19T07:26:39Z</time>
      </trkpt>
      <trkpt lat="45.748606715351343" lon="6.798638943582773">
        <ele>2415.9299999999998</ele>
        <time>2014-07-19T07:26:46Z</time>
      </trkpt>
      <trkpt lat="45.748622640967369" lon="6.798788979649544">
        <ele>2417.3699999999999</ele>
        <time>2014-07-19T07:27:01Z</time>
      </trkpt>
      <trkpt lat="45.748633788898587" lon="6.798846730962396">
        <ele>2419.7800000000002</ele>
        <time>2014-07-19T07:27:08Z</time>
      </trkpt>
      <trkpt lat="45.748691204935312" lon="6.798990732058883">
        <ele>2420.2600000000002</ele>
        <time>2014-07-19T07:27:23Z</time>
      </trkpt>
      <trkpt lat="45.748718613758683" lon="6.799174128100276">
        <ele>2421.2199999999998</ele>
        <time>2014-07-19T07:27:38Z</time>
      </trkpt>
      <trkpt lat="45.748745016753674" lon="6.799308573827148">
        <ele>2423.6199999999999</ele>
        <time>2014-07-19T07:27:52Z</time>
      </trkpt>
      <trkpt lat="45.748762786388397" lon="6.799338329583406">
        <ele>2424.0999999999999</ele>
        <time>2014-07-19T07:27:56Z</time>
      </trkpt>
      <trkpt lat="45.748826153576374" lon="6.799465902149677">
        <ele>2426.02</ele>
        <time>2014-07-19T07:28:09Z</time>
      </trkpt>
      <trkpt lat="45.748836882412434" lon="6.79948702454567">
        <ele>2426.02</ele>
        <time>2014-07-19T07:28:11Z</time>
      </trkpt>
      <trkpt lat="45.748845599591732" lon="6.799579812213779">
        <ele>2426.02</ele>
        <time>2014-07-19T07:28:24Z</time>
      </trkpt>
      <trkpt lat="45.748881138861179" lon="6.79969715885818">
        <ele>2427.4699999999998</ele>
        <time>2014-07-19T07:28:39Z</time>
      </trkpt>
      <trkpt lat="45.748910726979375" lon="6.799835711717606">
        <ele>2430.8299999999999</ele>
        <time>2014-07-19T07:28:53Z</time>
      </trkpt>
      <trkpt lat="45.748911565169692" lon="6.799846859648824">
        <ele>2430.8299999999999</ele>
        <time>2014-07-19T07:28:54Z</time>
      </trkpt>
      <trkpt lat="45.748929334804416" lon="6.799918441101909">
        <ele>2432.27</ele>
        <time>2014-07-19T07:29:01Z</time>
      </trkpt>
      <trkpt lat="45.74896571226418" lon="6.800035871565342">
        <ele>2434.1999999999998</ele>
        <time>2014-07-19T07:29:15Z</time>
      </trkpt>
      <trkpt lat="45.749026983976364" lon="6.800138298422098">
        <ele>2436.5999999999999</ele>
        <time>2014-07-19T07:29:29Z</time>
      </trkpt>
      <trkpt lat="45.749083142727613" lon="6.800277689471841">
        <ele>2438.52</ele>
        <time>2014-07-19T07:29:43Z</time>
      </trkpt>
      <trkpt lat="45.749135194346309" lon="6.800420349463821">
        <ele>2439.48</ele>
        <time>2014-07-19T07:29:57Z</time>
      </trkpt>
      <trkpt lat="45.749188587069511" lon="6.80059377104044">
        <ele>2441.8899999999999</ele>
        <time>2014-07-19T07:30:14Z</time>
      </trkpt>
      <trkpt lat="45.749232256785035" lon="6.800729809328914">
        <ele>2445.73</ele>
        <time>2014-07-19T07:30:29Z</time>
      </trkpt>
      <trkpt lat="45.749273831024766" lon="6.800871882587671">
        <ele>2446.6900000000001</ele>
        <time>2014-07-19T07:30:43Z</time>
      </trkpt>
      <trkpt lat="45.749336779117584" lon="6.801016805693507">
        <ele>2449.5799999999999</ele>
        <time>2014-07-19T07:30:58Z</time>
      </trkpt>
      <trkpt lat="45.749384304508567" lon="6.80117866024375">
        <ele>2450.54</ele>
        <time>2014-07-19T07:31:13Z</time>
      </trkpt>
      <trkpt lat="45.749429818242788" lon="6.801314195618033">
        <ele>2452.46</ele>
        <time>2014-07-19T07:31:26Z</time>
      </trkpt>
      <trkpt lat="45.74947290122509" lon="6.801477978006005">
        <ele>2451.98</ele>
        <time>2014-07-19T07:31:39Z</time>
      </trkpt>
      <trkpt lat="45.749459993094206" lon="6.801634300500155">
        <ele>2453.4200000000001</ele>
        <time>2014-07-19T07:31:50Z</time>
      </trkpt>
      <trkpt lat="45.749483210965991" lon="6.801776122301817">
        <ele>2455.3400000000001</ele>
        <time>2014-07-19T07:32:02Z</time>
      </trkpt>
      <trkpt lat="45.749485893175006" lon="6.801803112030029">
        <ele>2455.8200000000002</ele>
        <time>2014-07-19T07:32:04Z</time>
      </trkpt>
      <trkpt lat="45.749517409130931" lon="6.8019013479352">
        <ele>2457.75</ele>
        <time>2014-07-19T07:32:13Z</time>
      </trkpt>
      <trkpt lat="45.749546578153968" lon="6.802005870267749">
        <ele>2459.1900000000001</ele>
        <time>2014-07-19T07:32:22Z</time>
      </trkpt>
      <trkpt lat="45.74959016405046" lon="6.802150625735521">
        <ele>2460.6300000000001</ele>
        <time>2014-07-19T07:32:35Z</time>
      </trkpt>
      <trkpt lat="45.749626960605383" lon="6.802282305434346">
        <ele>2463.04</ele>
        <time>2014-07-19T07:32:48Z</time>
      </trkpt>
      <trkpt lat="45.749652944505215" lon="6.80242370814085">
        <ele>2464.48</ele>
        <time>2014-07-19T07:33:00Z</time>
      </trkpt>
      <trkpt lat="45.749665349721909" lon="6.80247156880796">
        <ele>2465.4400000000001</ele>
        <time>2014-07-19T07:33:04Z</time>
      </trkpt>
      <trkpt lat="45.749722514301538" lon="6.802604086697102">
        <ele>2466.8800000000001</ele>
        <time>2014-07-19T07:33:17Z</time>
      </trkpt>
      <trkpt lat="45.749781271442771" lon="6.802717577666044">
        <ele>2468.8000000000002</ele>
        <time>2014-07-19T07:33:29Z</time>
      </trkpt>
      <trkpt lat="45.749819157645106" lon="6.80277113802731">
        <ele>2469.2800000000002</ele>
        <time>2014-07-19T07:33:35Z</time>
      </trkpt>
      <trkpt lat="45.749872298911214" lon="6.802923437207937">
        <ele>2471.21</ele>
        <time>2014-07-19T07:33:49Z</time>
      </trkpt>
      <trkpt lat="45.749923009425402" lon="6.803048746660352">
        <ele>2472.6500000000001</ele>
        <time>2014-07-19T07:34:01Z</time>
      </trkpt>
      <trkpt lat="45.749987466260791" lon="6.803227113559842">
        <ele>2474.0900000000001</ele>
        <time>2014-07-19T07:34:16Z</time>
      </trkpt>
      <trkpt lat="45.750051252543926" lon="6.803317638114095">
        <ele>2475.5300000000002</ele>
        <time>2014-07-19T07:34:30Z</time>
      </trkpt>
      <trkpt lat="45.750057455152273" lon="6.803322834894061">
        <ele>2475.5300000000002</ele>
        <time>2014-07-19T07:34:31Z</time>
      </trkpt>
      <trkpt lat="45.750083522871137" lon="6.803406570106745">
        <ele>2476.9699999999998</ele>
        <time>2014-07-19T07:34:39Z</time>
      </trkpt>
      <trkpt lat="45.750144543126225" lon="6.803553085774183">
        <ele>2478.4200000000001</ele>
        <time>2014-07-19T07:34:53Z</time>
      </trkpt>
      <trkpt lat="45.750212101265788" lon="6.80372784845531">
        <ele>2478.9000000000001</ele>
        <time>2014-07-19T07:35:08Z</time>
      </trkpt>
      <trkpt lat="45.750260297209024" lon="6.803793478757143">
        <ele>2480.8200000000002</ele>
        <time>2014-07-19T07:35:17Z</time>
      </trkpt>
      <trkpt lat="45.750286700204015" lon="6.803867658600211">
        <ele>2480.8200000000002</ele>
        <time>2014-07-19T07:35:23Z</time>
      </trkpt>
      <trkpt lat="45.750389127060771" lon="6.804033368825913">
        <ele>2482.7399999999998</ele>
        <time>2014-07-19T07:35:39Z</time>
      </trkpt>
      <trkpt lat="45.75041645206511" lon="6.804082738235593">
        <ele>2483.6999999999998</ele>
        <time>2014-07-19T07:35:45Z</time>
      </trkpt>
      <trkpt lat="45.75042768381536" lon="6.804108051583171">
        <ele>2484.1799999999998</ele>
        <time>2014-07-19T07:35:47Z</time>
      </trkpt>
      <trkpt lat="45.750457607209682" lon="6.804145099595189">
        <ele>2484.6599999999999</ele>
        <time>2014-07-19T07:35:51Z</time>
      </trkpt>
      <trkpt lat="45.75047018006444" lon="6.804176196455956">
        <ele>2485.1500000000001</ele>
        <time>2014-07-19T07:35:54Z</time>
      </trkpt>
      <trkpt lat="45.750578977167606" lon="6.804350120946765">
        <ele>2485.1500000000001</ele>
        <time>2014-07-19T07:36:12Z</time>
      </trkpt>
      <trkpt lat="45.750663299113512" lon="6.804460510611534">
        <ele>2485.6300000000001</ele>
        <time>2014-07-19T07:36:25Z</time>
      </trkpt>
      <trkpt lat="45.750720296055079" lon="6.804560339078307">
        <ele>2486.1100000000001</ele>
        <time>2014-07-19T07:36:42Z</time>
      </trkpt>
      <trkpt lat="45.750766145065427" lon="6.804724624380469">
        <ele>2488.5100000000002</ele>
        <time>2014-07-19T07:36:56Z</time>
      </trkpt>
      <trkpt lat="45.750800259411335" lon="6.80487466044724">
        <ele>2489.9499999999998</ele>
        <time>2014-07-19T07:37:09Z</time>
      </trkpt>
      <trkpt lat="45.750805204734206" lon="6.804915480315685">
        <ele>2490.4299999999998</ele>
        <time>2014-07-19T07:37:12Z</time>
      </trkpt>
      <trkpt lat="45.750808389857411" lon="6.804972728714347">
        <ele>2490.4299999999998</ele>
        <time>2014-07-19T07:37:16Z</time>
      </trkpt>
      <trkpt lat="45.750847281888127" lon="6.805131062865257">
        <ele>2493.3200000000002</ele>
        <time>2014-07-19T07:37:31Z</time>
      </trkpt>
      <trkpt lat="45.750890281051397" lon="6.805240781977773">
        <ele>2494.2800000000002</ele>
        <time>2014-07-19T07:37:41Z</time>
      </trkpt>
      <trkpt lat="45.750976279377937" lon="6.805402971804142">
        <ele>2496.1999999999998</ele>
        <time>2014-07-19T07:37:57Z</time>
      </trkpt>
      <trkpt lat="45.751044424250722" lon="6.805499028414488">
        <ele>2497.1599999999999</ele>
        <time>2014-07-19T07:38:09Z</time>
      </trkpt>
      <trkpt lat="45.751064792275429" lon="6.805550744757056">
        <ele>2498.1199999999999</ele>
        <time>2014-07-19T07:38:14Z</time>
      </trkpt>
      <trkpt lat="45.751124303787947" lon="6.805686363950372">
        <ele>2498.1199999999999</ele>
        <time>2014-07-19T07:38:27Z</time>
      </trkpt>
      <trkpt lat="45.751189012080431" lon="6.805788958445191">
        <ele>2500.0500000000002</ele>
        <time>2014-07-19T07:38:41Z</time>
      </trkpt>
      <trkpt lat="45.751201082020998" lon="6.805807985365391">
        <ele>2500.5300000000002</ele>
        <time>2014-07-19T07:38:57Z</time>
      </trkpt>
      <trkpt lat="45.751241482794285" lon="6.80586070753634">
        <ele>2502.4499999999998</ele>
        <time>2014-07-19T07:39:15Z</time>
      </trkpt>
      <trkpt lat="45.751273250207305" lon="6.805941509082913">
        <ele>2503.4099999999999</ele>
        <time>2014-07-19T07:39:24Z</time>
      </trkpt>
      <trkpt lat="45.751308789476752" lon="6.806060699746013">
        <ele>2504.8499999999999</ele>
        <time>2014-07-19T07:39:35Z</time>
      </trkpt>
      <trkpt lat="45.751380287110806" lon="6.806208221241832">
        <ele>2507.2600000000002</ele>
        <time>2014-07-19T07:39:50Z</time>
      </trkpt>
      <trkpt lat="45.751443738117814" lon="6.806312995031476">
        <ele>2508.2199999999998</ele>
        <time>2014-07-19T07:40:03Z</time>
      </trkpt>
      <trkpt lat="45.751479528844357" lon="6.806445177644491">
        <ele>2508.2199999999998</ele>
        <time>2014-07-19T07:40:16Z</time>
      </trkpt>
      <trkpt lat="45.751485312357545" lon="6.806510305032134">
        <ele>2508.2199999999998</ele>
        <time>2014-07-19T07:40:21Z</time>
      </trkpt>
      <trkpt lat="45.75151783414185" lon="6.806643577292562">
        <ele>2509.6599999999999</ele>
        <time>2014-07-19T07:40:34Z</time>
      </trkpt>
      <trkpt lat="45.751539124175906" lon="6.806707866489887">
        <ele>2510.1399999999999</ele>
        <time>2014-07-19T07:40:47Z</time>
      </trkpt>
      <trkpt lat="45.75154323130846" lon="6.80672605521977">
        <ele>2509.6599999999999</ele>
        <time>2014-07-19T07:40:51Z</time>
      </trkpt>
      <trkpt lat="45.751498304307461" lon="6.806796127930284">
        <ele>2510.1399999999999</ele>
        <time>2014-07-19T07:41:04Z</time>
      </trkpt>
      <trkpt lat="45.751485647633672" lon="6.806782465428114">
        <ele>2509.6599999999999</ele>
        <time>2014-07-19T07:41:23Z</time>
      </trkpt>
      <trkpt lat="45.751492856070399" lon="6.806753715500236">
        <ele>2509.6599999999999</ele>
        <time>2014-07-19T07:41:35Z</time>
      </trkpt>
      <trkpt lat="45.751455640420318" lon="6.806720187887549">
        <ele>2509.6599999999999</ele>
        <time>2014-07-19T07:41:50Z</time>
      </trkpt>
      <trkpt lat="45.751398308202624" lon="6.806722283363342">
        <ele>2509.1799999999998</ele>
        <time>2014-07-19T07:41:56Z</time>
      </trkpt>
      <trkpt lat="45.751335443928838" lon="6.806810460984707">
        <ele>2510.1399999999999</ele>
        <time>2014-07-19T07:42:06Z</time>
      </trkpt>
      <trkpt lat="45.751243075355887" lon="6.806946666911244">
        <ele>2512.0599999999999</ele>
        <time>2014-07-19T07:42:22Z</time>
      </trkpt>
      <trkpt lat="45.75125346891582" lon="6.806968124583364">
        <ele>2512.54</ele>
        <time>2014-07-19T07:42:25Z</time>
      </trkpt>
      <trkpt lat="45.751283224672079" lon="6.807045405730605">
        <ele>2512.54</ele>
        <time>2014-07-19T07:42:34Z</time>
      </trkpt>
      <trkpt lat="45.751256570219994" lon="6.807091925293207">
        <ele>2513.5</ele>
        <time>2014-07-19T07:42:50Z</time>
      </trkpt>
      <trkpt lat="45.751256821677089" lon="6.807109527289867">
        <ele>2513.98</ele>
        <time>2014-07-19T07:43:11Z</time>
      </trkpt>
      <trkpt lat="45.751219941303134" lon="6.807077676057816">
        <ele>2514.4699999999998</ele>
        <time>2014-07-19T07:43:30Z</time>
      </trkpt>
      <trkpt lat="45.751232849434018" lon="6.807086057960987">
        <ele>2514.4699999999998</ele>
        <time>2014-07-19T07:43:49Z</time>
      </trkpt>
      <trkpt lat="45.751257240772247" lon="6.807083543390036">
        <ele>2514.4699999999998</ele>
        <time>2014-07-19T07:44:11Z</time>
      </trkpt>
      <trkpt lat="45.751254139468074" lon="6.807086560875177">
        <ele>2514.4699999999998</ele>
        <time>2014-07-19T07:44:30Z</time>
      </trkpt>
      <trkpt lat="45.751235028728843" lon="6.807084046304226">
        <ele>2513.98</ele>
        <time>2014-07-19T07:44:42Z</time>
      </trkpt>
      <trkpt lat="45.751237124204636" lon="6.807086644694209">
        <ele>2513.98</ele>
        <time>2014-07-19T07:45:02Z</time>
      </trkpt>
      <trkpt lat="45.751228658482432" lon="6.807098714634776">
        <ele>2513.98</ele>
        <time>2014-07-19T07:45:36Z</time>
      </trkpt>
      <trkpt lat="45.75124123133719" lon="6.807117322459817">
        <ele>2514.4699999999998</ele>
        <time>2014-07-19T07:46:10Z</time>
      </trkpt>
      <trkpt lat="45.751233687624335" lon="6.807101648300886">
        <ele>2514.9499999999998</ele>
        <time>2014-07-19T07:46:38Z</time>
      </trkpt>
      <trkpt lat="45.751231173053384" lon="6.807107599452138">
        <ele>2514.4699999999998</ele>
        <time>2014-07-19T07:47:09Z</time>
      </trkpt>
      <trkpt lat="45.751234609633684" lon="6.807124698534608">
        <ele>2514.4699999999998</ele>
        <time>2014-07-19T07:47:45Z</time>
      </trkpt>
      <trkpt lat="45.751227485015988" lon="6.807100642472506">
        <ele>2514.9499999999998</ele>
        <time>2014-07-19T07:48:16Z</time>
      </trkpt>
      <trkpt lat="45.751231927424669" lon="6.807086812332273">
        <ele>2515.9099999999999</ele>
        <time>2014-07-19T07:48:55Z</time>
      </trkpt>
      <trkpt lat="45.75122119858861" lon="6.807094188407064">
        <ele>2514.9499999999998</ele>
        <time>2014-07-19T07:49:17Z</time>
      </trkpt>
      <trkpt lat="45.751222958788276" lon="6.807095361873508">
        <ele>2514.9499999999998</ele>
        <time>2014-07-19T07:49:47Z</time>
      </trkpt>
      <trkpt lat="45.751205189153552" lon="6.807088740170002">
        <ele>2515.4299999999998</ele>
        <time>2014-07-19T07:50:21Z</time>
      </trkpt>
      <trkpt lat="45.751203848049045" lon="6.807080777361989">
        <ele>2515.4299999999998</ele>
        <time>2014-07-19T07:50:55Z</time>
      </trkpt>
      <trkpt lat="45.751208374276757" lon="6.807083124294877">
        <ele>2515.9099999999999</ele>
        <time>2014-07-19T07:51:28Z</time>
      </trkpt>
      <trkpt lat="45.751230418682098" lon="6.807094942778349">
        <ele>2516.3899999999999</ele>
        <time>2014-07-19T07:51:49Z</time>
      </trkpt>
      <trkpt lat="45.751215498894453" lon="6.80708228610456">
        <ele>2516.3899999999999</ele>
        <time>2014-07-19T07:52:16Z</time>
      </trkpt>
      <trkpt lat="45.751225892454386" lon="6.807108437642455">
        <ele>2515.9099999999999</ele>
        <time>2014-07-19T07:52:20Z</time>
      </trkpt>
      <trkpt lat="45.751283643767238" lon="6.80717758834362">
        <ele>2516.3899999999999</ele>
        <time>2014-07-19T07:52:27Z</time>
      </trkpt>
      <trkpt lat="45.75131063349545" lon="6.80721421726048">
        <ele>2515.9099999999999</ele>
        <time>2014-07-19T07:52:39Z</time>
      </trkpt>
      <trkpt lat="45.75131700374186" lon="6.80722058750689">
        <ele>2515.4299999999998</ele>
        <time>2014-07-19T07:52:52Z</time>
      </trkpt>
      <trkpt lat="45.751329157501459" lon="6.807211032137275">
        <ele>2515.9099999999999</ele>
        <time>2014-07-19T07:53:12Z</time>
      </trkpt>
      <trkpt lat="45.7513184286654" lon="6.807215726003051">
        <ele>2515.4299999999998</ele>
        <time>2014-07-19T07:53:31Z</time>
      </trkpt>
      <trkpt lat="45.751323709264398" lon="6.807222180068493">
        <ele>2515.9099999999999</ele>
        <time>2014-07-19T07:54:14Z</time>
      </trkpt>
      <trkpt lat="45.75131599791348" lon="6.807231567800045">
        <ele>2515.4299999999998</ele>
        <time>2014-07-19T07:55:01Z</time>
      </trkpt>
      <trkpt lat="45.751323373988271" lon="6.807215977460146">
        <ele>2515.9099999999999</ele>
        <time>2014-07-19T07:55:51Z</time>
      </trkpt>
      <trkpt lat="45.751327816396952" lon="6.807224443182349">
        <ele>2516.3899999999999</ele>
        <time>2014-07-19T07:56:33Z</time>
      </trkpt>
      <trkpt lat="45.751320859417319" lon="6.807209188118577">
        <ele>2516.8699999999999</ele>
        <time>2014-07-19T07:57:11Z</time>
      </trkpt>
      <trkpt lat="45.751321697607636" lon="6.807209858670831">
        <ele>2516.3899999999999</ele>
        <time>2014-07-19T07:57:37Z</time>
      </trkpt>
      <trkpt lat="45.751332426443696" lon="6.807234082370997">
        <ele>2516.8699999999999</ele>
        <time>2014-07-19T07:58:11Z</time>
      </trkpt>
      <trkpt lat="45.751336785033345" lon="6.807233244180679">
        <ele>2516.8699999999999</ele>
        <time>2014-07-19T07:58:16Z</time>
      </trkpt>
      <trkpt lat="45.751328822225332" lon="6.807171301916242">
        <ele>2517.3499999999999</ele>
        <time>2014-07-19T07:58:23Z</time>
      </trkpt>
      <trkpt lat="45.751346675679088" lon="6.807110114023089">
        <ele>2516.8699999999999</ele>
        <time>2014-07-19T07:58:27Z</time>
      </trkpt>
      <trkpt lat="45.751409875229001" lon="6.806876258924604">
        <ele>2515.4299999999998</ele>
        <time>2014-07-19T07:58:42Z</time>
      </trkpt>
      <trkpt lat="45.751447342336178" lon="6.806811969727278">
        <ele>2514.9499999999998</ele>
        <time>2014-07-19T07:58:48Z</time>
      </trkpt>
      <trkpt lat="45.751484977081418" lon="6.806704513728619">
        <ele>2514.4699999999998</ele>
        <time>2014-07-19T07:59:03Z</time>
      </trkpt>
      <trkpt lat="45.751506937667727" lon="6.806714907288551">
        <ele>2513.98</ele>
        <time>2014-07-19T07:59:12Z</time>
      </trkpt>
      <trkpt lat="45.751501154154539" lon="6.806716080754995">
        <ele>2513.98</ele>
        <time>2014-07-19T07:59:49Z</time>
      </trkpt>
      <trkpt lat="45.751496376469731" lon="6.806706357747316">
        <ele>2513.98</ele>
        <time>2014-07-19T08:00:18Z</time>
      </trkpt>
      <trkpt lat="45.75149922631681" lon="6.806707112118602">
        <ele>2513.98</ele>
        <time>2014-07-19T08:00:50Z</time>
      </trkpt>
      <trkpt lat="45.751495203003287" lon="6.8067123927176">
        <ele>2513.98</ele>
        <time>2014-07-19T08:01:21Z</time>
      </trkpt>
      <trkpt lat="45.751494951546192" lon="6.806716499850154">
        <ele>2513.98</ele>
        <time>2014-07-19T08:01:54Z</time>
      </trkpt>
      <trkpt lat="45.751495705917478" lon="6.806705687195063">
        <ele>2513.98</ele>
        <time>2014-07-19T08:02:31Z</time>
      </trkpt>
      <trkpt lat="45.751503668725491" lon="6.806717589497566">
        <ele>2513.98</ele>
        <time>2014-07-19T08:03:04Z</time>
      </trkpt>
      <trkpt lat="45.751512637361884" lon="6.806713147088885">
        <ele>2513.98</ele>
        <time>2014-07-19T08:03:39Z</time>
      </trkpt>
      <trkpt lat="45.751505261287093" lon="6.806716583669186">
        <ele>2513.98</ele>
        <time>2014-07-19T08:04:19Z</time>
      </trkpt>
      <trkpt lat="45.751499393954873" lon="6.806713817641139">
        <ele>2513.98</ele>
        <time>2014-07-19T08:04:59Z</time>
      </trkpt>
      <trkpt lat="45.751498723402619" lon="6.806712644174695">
        <ele>2513.98</ele>
        <time>2014-07-19T08:05:32Z</time>
      </trkpt>
      <trkpt lat="45.751501573249698" lon="6.806724295020104">
        <ele>2513.98</ele>
        <time>2014-07-19T08:05:42Z</time>
      </trkpt>
      <trkpt lat="45.751484725624323" lon="6.806728234514594">
        <ele>2514.9499999999998</ele>
        <time>2014-07-19T08:05:55Z</time>
      </trkpt>
      <trkpt lat="45.751491682603955" lon="6.806771149858832">
        <ele>2514.9499999999998</ele>
        <time>2014-07-19T08:06:10Z</time>
      </trkpt>
      <trkpt lat="45.75149143114686" lon="6.806791182607412">
        <ele>2514.4699999999998</ele>
        <time>2014-07-19T08:06:25Z</time>
      </trkpt>
      <trkpt lat="45.751452455297112" lon="6.806971980258822">
        <ele>2514.4699999999998</ele>
        <time>2014-07-19T08:06:40Z</time>
      </trkpt>
      <trkpt lat="45.751434098929167" lon="6.806995533406735">
        <ele>2514.9499999999998</ele>
        <time>2014-07-19T08:06:43Z</time>
      </trkpt>
      <trkpt lat="45.751416999846697" lon="6.807040208950639">
        <ele>2513.98</ele>
        <time>2014-07-19T08:06:48Z</time>
      </trkpt>
      <trkpt lat="45.751389004290104" lon="6.807155711576343">
        <ele>2515.9099999999999</ele>
        <time>2014-07-19T08:07:01Z</time>
      </trkpt>
      <trkpt lat="45.751332258805633" lon="6.807316308841109">
        <ele>2516.3899999999999</ele>
        <time>2014-07-19T08:07:18Z</time>
      </trkpt>
      <trkpt lat="45.751330498605967" lon="6.807259060442448">
        <ele>2516.3899999999999</ele>
        <time>2014-07-19T08:07:32Z</time>
      </trkpt>
      <trkpt lat="45.751337790861726" lon="6.807252941653132">
        <ele>2516.3899999999999</ele>
        <time>2014-07-19T08:07:38Z</time>
      </trkpt>
      <trkpt lat="45.751332510262728" lon="6.807262077927589">
        <ele>2482.7399999999998</ele>
        <time>2014-07-19T08:08:19Z</time>
      </trkpt>
      <trkpt lat="45.751340640708804" lon="6.807257132604718">
        <ele>2481.3000000000002</ele>
        <time>2014-07-19T08:08:27Z</time>
      </trkpt>
      <trkpt lat="45.751324715092778" lon="6.807245565578342">
        <ele>2481.3000000000002</ele>
        <time>2014-07-19T08:08:56Z</time>
      </trkpt>
      <trkpt lat="45.75133066624403" lon="6.807256294414401">
        <ele>2482.7399999999998</ele>
        <time>2014-07-19T08:09:14Z</time>
      </trkpt>
      <trkpt lat="45.751335946843028" lon="6.807246655225754">
        <ele>2483.2199999999998</ele>
        <time>2014-07-19T08:09:44Z</time>
      </trkpt>
      <trkpt lat="45.751343574374914" lon="6.807251600548625">
        <ele>2483.6999999999998</ele>
        <time>2014-07-19T08:10:04Z</time>
      </trkpt>
      <trkpt lat="45.751334438100457" lon="6.807278422638774">
        <ele>2483.6999999999998</ele>
        <time>2014-07-19T08:10:16Z</time>
      </trkpt>
      <trkpt lat="45.751340724527836" lon="6.807288816198707">
        <ele>2484.6599999999999</ele>
        <time>2014-07-19T08:10:34Z</time>
      </trkpt>
      <trkpt lat="45.751340808346868" lon="6.807419992983341">
        <ele>2483.6999999999998</ele>
        <time>2014-07-19T08:10:47Z</time>
      </trkpt>
      <trkpt lat="45.751372743397951" lon="6.807526275515556">
        <ele>2482.2600000000002</ele>
        <time>2014-07-19T08:10:59Z</time>
      </trkpt>
      <trkpt lat="45.751381628215313" lon="6.807546392083168">
        <ele>2481.7800000000002</ele>
        <time>2014-07-19T08:11:01Z</time>
      </trkpt>
      <trkpt lat="45.751398475840688" lon="6.807586122304201">
        <ele>2480.8200000000002</ele>
        <time>2014-07-19T08:11:05Z</time>
      </trkpt>
      <trkpt lat="45.751451030373573" lon="6.807704642415047">
        <ele>2478.4200000000001</ele>
        <time>2014-07-19T08:11:15Z</time>
      </trkpt>
      <trkpt lat="45.751462681218982" lon="6.807945454493165">
        <ele>2476.0100000000002</ele>
        <time>2014-07-19T08:11:30Z</time>
      </trkpt>
      <trkpt lat="45.75145480223" lon="6.807981496676803">
        <ele>2475.5300000000002</ele>
        <time>2014-07-19T08:11:32Z</time>
      </trkpt>
      <trkpt lat="45.751474164426327" lon="6.808287100866437">
        <ele>2473.1300000000001</ele>
        <time>2014-07-19T08:11:50Z</time>
      </trkpt>
      <trkpt lat="45.75146553106606" lon="6.808441998437047">
        <ele>2472.1700000000001</ele>
        <time>2014-07-19T08:11:59Z</time>
      </trkpt>
      <trkpt lat="45.751432171091437" lon="6.808458846062422">
        <ele>2472.1700000000001</ele>
        <time>2014-07-19T08:12:14Z</time>
      </trkpt>
      <trkpt lat="45.751449353992939" lon="6.808504275977612">
        <ele>2472.1700000000001</ele>
        <time>2014-07-19T08:12:28Z</time>
      </trkpt>
      <trkpt lat="45.751460082828999" lon="6.808613575994968">
        <ele>2471.21</ele>
        <time>2014-07-19T08:12:43Z</time>
      </trkpt>
      <trkpt lat="45.751437535509467" lon="6.80857116356492">
        <ele>2471.21</ele>
        <time>2014-07-19T08:13:09Z</time>
      </trkpt>
      <trkpt lat="45.751437619328499" lon="6.80857015773654">
        <ele>2469.7600000000002</ele>
        <time>2014-07-19T08:13:27Z</time>
      </trkpt>
      <trkpt lat="45.75143669731915" lon="6.808568984270096">
        <ele>2473.6100000000001</ele>
        <time>2014-07-19T08:13:28Z</time>
      </trkpt>
      <trkpt lat="45.751436529681087" lon="6.808568481355906">
        <ele>2472.1700000000001</ele>
        <time>2014-07-19T08:13:29Z</time>
      </trkpt>
      <trkpt lat="45.751439714804292" lon="6.808567978441715">
        <ele>2470.73</ele>
        <time>2014-07-19T08:13:41Z</time>
      </trkpt>
      <trkpt lat="45.751440469175577" lon="6.808574935421348">
        <ele>2473.1300000000001</ele>
        <time>2014-07-19T08:13:58Z</time>
      </trkpt>
      <trkpt lat="45.751446587964892" lon="6.808585999533534">
        <ele>2472.6500000000001</ele>
        <time>2014-07-19T08:14:24Z</time>
      </trkpt>
      <trkpt lat="45.751437116414309" lon="6.80859899148345">
        <ele>2473.1300000000001</ele>
        <time>2014-07-19T08:14:46Z</time>
      </trkpt>
      <trkpt lat="45.751447677612305" lon="6.808598740026355">
        <ele>2473.1300000000001</ele>
        <time>2014-07-19T08:15:12Z</time>
      </trkpt>
      <trkpt lat="45.751432590186596" lon="6.808622879907489">
        <ele>2473.6100000000001</ele>
        <time>2014-07-19T08:15:43Z</time>
      </trkpt>
      <trkpt lat="45.751440217718482" lon="6.80860779248178">
        <ele>2473.6100000000001</ele>
        <time>2014-07-19T08:16:10Z</time>
      </trkpt>
      <trkpt lat="45.751458406448364" lon="6.808673422783613">
        <ele>2473.1300000000001</ele>
        <time>2014-07-19T08:16:26Z</time>
      </trkpt>
      <trkpt lat="45.751415155827999" lon="6.808795547112823">
        <ele>2469.7600000000002</ele>
        <time>2014-07-19T08:16:40Z</time>
      </trkpt>
      <trkpt lat="45.751399900764227" lon="6.808840557932854">
        <ele>2468.3200000000002</ele>
        <time>2014-07-19T08:16:44Z</time>
      </trkpt>
      <trkpt lat="45.751361595466733" lon="6.808996209874749">
        <ele>2465.9200000000001</ele>
        <time>2014-07-19T08:16:54Z</time>
      </trkpt>
      <trkpt lat="45.75134189799428" lon="6.809036778286099">
        <ele>2464.96</ele>
        <time>2014-07-19T08:16:57Z</time>
      </trkpt>
      <trkpt lat="45.751325385645032" lon="6.809078687801957">
        <ele>2464.96</ele>
        <time>2014-07-19T08:17:02Z</time>
      </trkpt>
      <trkpt lat="45.751350112259388" lon="6.809133589267731">
        <ele>2465.4400000000001</ele>
        <time>2014-07-19T08:17:06Z</time>
      </trkpt>
      <trkpt lat="45.751395458355546" lon="6.809329893440008">
        <ele>2464.96</ele>
        <time>2014-07-19T08:17:20Z</time>
      </trkpt>
      <trkpt lat="45.751371737569571" lon="6.809422010555863">
        <ele>2463.52</ele>
        <time>2014-07-19T08:17:27Z</time>
      </trkpt>
      <trkpt lat="45.751332845538855" lon="6.809624433517456">
        <ele>2460.1500000000001</ele>
        <time>2014-07-19T08:17:42Z</time>
      </trkpt>
      <trkpt lat="45.75131549499929" lon="6.809702720493078">
        <ele>2459.1900000000001</ele>
        <time>2014-07-19T08:17:51Z</time>
      </trkpt>
      <trkpt lat="45.751350531354547" lon="6.809796849265695">
        <ele>2458.23</ele>
        <time>2014-07-19T08:17:57Z</time>
      </trkpt>
      <trkpt lat="45.751364445313811" lon="6.809814618900418">
        <ele>2458.71</ele>
        <time>2014-07-19T08:17:59Z</time>
      </trkpt>
      <trkpt lat="45.751392440870404" lon="6.809890307486057">
        <ele>2458.71</ele>
        <time>2014-07-19T08:18:05Z</time>
      </trkpt>
      <trkpt lat="45.751483049243689" lon="6.810090802609921">
        <ele>2457.27</ele>
        <time>2014-07-19T08:18:22Z</time>
      </trkpt>
      <trkpt lat="45.751516576856375" lon="6.810192810371518">
        <ele>2456.3099999999999</ele>
        <time>2014-07-19T08:18:28Z</time>
      </trkpt>
      <trkpt lat="45.751525377854705" lon="6.810262212529779">
        <ele>2455.3400000000001</ele>
        <time>2014-07-19T08:18:32Z</time>
      </trkpt>
      <trkpt lat="45.751576004549861" lon="6.810416942462325">
        <ele>2452.46</ele>
        <time>2014-07-19T08:18:46Z</time>
      </trkpt>
      <trkpt lat="45.751553541049361" lon="6.810470586642623">
        <ele>2451.02</ele>
        <time>2014-07-19T08:18:49Z</time>
      </trkpt>
      <trkpt lat="45.751546751707792" lon="6.810589525848627">
        <ele>2450.0599999999999</ele>
        <time>2014-07-19T08:18:56Z</time>
      </trkpt>
      <trkpt lat="45.751550775021315" lon="6.810623640194535">
        <ele>2449.5799999999999</ele>
        <time>2014-07-19T08:18:58Z</time>
      </trkpt>
      <trkpt lat="45.75155203230679" lon="6.810652390122414">
        <ele>2448.6199999999999</ele>
        <time>2014-07-19T08:19:11Z</time>
      </trkpt>
      <trkpt lat="45.751545410603285" lon="6.810639230534434">
        <ele>2448.6199999999999</ele>
        <time>2014-07-19T08:19:32Z</time>
      </trkpt>
      <trkpt lat="45.751579441130161" lon="6.810756241902709">
        <ele>2449.0999999999999</ele>
        <time>2014-07-19T08:19:49Z</time>
      </trkpt>
      <trkpt lat="45.751622272655368" lon="6.810899907723069">
        <ele>2448.1300000000001</ele>
        <time>2014-07-19T08:19:59Z</time>
      </trkpt>
      <trkpt lat="45.751646999269724" lon="6.810948103666306">
        <ele>2447.1700000000001</ele>
        <time>2014-07-19T08:20:03Z</time>
      </trkpt>
      <trkpt lat="45.751682538539171" lon="6.811189502477646">
        <ele>2444.77</ele>
        <time>2014-07-19T08:20:19Z</time>
      </trkpt>
      <trkpt lat="45.751685975119472" lon="6.811296958476305">
        <ele>2444.29</ele>
        <time>2014-07-19T08:20:26Z</time>
      </trkpt>
      <trkpt lat="45.751636186614633" lon="6.811291426420212">
        <ele>2442.8499999999999</ele>
        <time>2014-07-19T08:20:40Z</time>
      </trkpt>
      <trkpt lat="45.751664768904448" lon="6.811350602656603">
        <ele>2442.3699999999999</ele>
        <time>2014-07-19T08:20:52Z</time>
      </trkpt>
      <trkpt lat="45.751684885472059" lon="6.811407934874296">
        <ele>2440.9200000000001</ele>
        <time>2014-07-19T08:20:57Z</time>
      </trkpt>
      <trkpt lat="45.751697542145848" lon="6.811450850218535">
        <ele>2440.4400000000001</ele>
        <time>2014-07-19T08:21:11Z</time>
      </trkpt>
      <trkpt lat="45.751701733097434" lon="6.811475660651922">
        <ele>2439.96</ele>
        <time>2014-07-19T08:21:28Z</time>
      </trkpt>
      <trkpt lat="45.751713719218969" lon="6.811669366434217">
        <ele>2437.0799999999999</ele>
        <time>2014-07-19T08:21:42Z</time>
      </trkpt>
      <trkpt lat="45.751723861321807" lon="6.811741702258587">
        <ele>2435.6399999999999</ele>
        <time>2014-07-19T08:21:47Z</time>
      </trkpt>
      <trkpt lat="45.751681700348854" lon="6.811898527666926">
        <ele>2432.75</ele>
        <time>2014-07-19T08:22:00Z</time>
      </trkpt>
      <trkpt lat="45.751691590994596" lon="6.812104806303978">
        <ele>2431.79</ele>
        <time>2014-07-19T08:22:15Z</time>
      </trkpt>
      <trkpt lat="45.751707516610622" lon="6.812104387208819">
        <ele>2431.79</ele>
        <time>2014-07-19T08:22:18Z</time>
      </trkpt>
      <trkpt lat="45.75174598954618" lon="6.812161216512322">
        <ele>2429.8699999999999</ele>
        <time>2014-07-19T08:22:24Z</time>
      </trkpt>
      <trkpt lat="45.751772141084075" lon="6.812209160998464">
        <ele>2429.8699999999999</ele>
        <time>2014-07-19T08:22:28Z</time>
      </trkpt>
      <trkpt lat="45.751787563785911" lon="6.812235563993454">
        <ele>2429.3899999999999</ele>
        <time>2014-07-19T08:22:30Z</time>
      </trkpt>
      <trkpt lat="45.751828718930483" lon="6.812312426045537">
        <ele>2427.9499999999998</ele>
        <time>2014-07-19T08:22:37Z</time>
      </trkpt>
      <trkpt lat="45.751865180209279" lon="6.81229256093502">
        <ele>2427.4699999999998</ele>
        <time>2014-07-19T08:22:40Z</time>
      </trkpt>
      <trkpt lat="45.751882027834654" lon="6.812314353883266">
        <ele>2426.9899999999998</ele>
        <time>2014-07-19T08:22:42Z</time>
      </trkpt>
      <trkpt lat="45.751869706436992" lon="6.812374955043197">
        <ele>2426.5</ele>
        <time>2014-07-19T08:22:46Z</time>
      </trkpt>
      <trkpt lat="45.751893175765872" lon="6.812470089644194">
        <ele>2426.02</ele>
        <time>2014-07-19T08:22:53Z</time>
      </trkpt>
      <trkpt lat="45.751985041424632" lon="6.812600595876575">
        <ele>2423.6199999999999</ele>
        <time>2014-07-19T08:23:07Z</time>
      </trkpt>
      <trkpt lat="45.752025274559855" lon="6.812701933085918">
        <ele>2423.6199999999999</ele>
        <time>2014-07-19T08:23:18Z</time>
      </trkpt>
      <trkpt lat="45.752071291208267" lon="6.812832104042172">
        <ele>2422.6599999999999</ele>
        <time>2014-07-19T08:23:27Z</time>
      </trkpt>
      <trkpt lat="45.752139436081052" lon="6.812925981357694">
        <ele>2421.6999999999998</ele>
        <time>2014-07-19T08:23:36Z</time>
      </trkpt>
      <trkpt lat="45.752238677814603" lon="6.813035951927304">
        <ele>2420.2600000000002</ele>
        <time>2014-07-19T08:23:47Z</time>
      </trkpt>
      <trkpt lat="45.752257704734802" lon="6.813038466498256">
        <ele>2420.2600000000002</ele>
        <time>2014-07-19T08:23:49Z</time>
      </trkpt>
      <trkpt lat="45.752319311723113" lon="6.813104599714279">
        <ele>2418.3299999999999</ele>
        <time>2014-07-19T08:23:56Z</time>
      </trkpt>
      <trkpt lat="45.752409920096397" lon="6.813221862539649">
        <ele>2415.9299999999998</ele>
        <time>2014-07-19T08:24:08Z</time>
      </trkpt>
      <trkpt lat="45.752451326698065" lon="6.813204931095243">
        <ele>2414.9699999999998</ele>
        <time>2014-07-19T08:24:13Z</time>
      </trkpt>
      <trkpt lat="45.7524892129004" lon="6.813190514221788">
        <ele>2414.4899999999998</ele>
        <time>2014-07-19T08:24:17Z</time>
      </trkpt>
      <trkpt lat="45.752502707764506" lon="6.813246086239815">
        <ele>2412.5700000000002</ele>
        <time>2014-07-19T08:24:22Z</time>
      </trkpt>
      <trkpt lat="45.752518130466342" lon="6.813328731805086">
        <ele>2409.6799999999998</ele>
        <time>2014-07-19T08:24:31Z</time>
      </trkpt>
      <trkpt lat="45.752532295882702" lon="6.813460746780038">
        <ele>2406.8000000000002</ele>
        <time>2014-07-19T08:24:44Z</time>
      </trkpt>
      <trkpt lat="45.752543108537793" lon="6.813510786741972">
        <ele>2405.8400000000001</ele>
        <time>2014-07-19T08:24:48Z</time>
      </trkpt>
      <trkpt lat="45.752543611451983" lon="6.813524449244142">
        <ele>2404.8800000000001</ele>
        <time>2014-07-19T08:24:49Z</time>
      </trkpt>
      <trkpt lat="45.752526428550482" lon="6.813558312132955">
        <ele>2403.9099999999999</ele>
        <time>2014-07-19T08:24:52Z</time>
      </trkpt>
      <trkpt lat="45.752509832382202" lon="6.813587732613087">
        <ele>2403.4299999999998</ele>
        <time>2014-07-19T08:24:55Z</time>
      </trkpt>
      <trkpt lat="45.752540091052651" lon="6.813711281865835">
        <ele>2400.5500000000002</ele>
        <time>2014-07-19T08:25:09Z</time>
      </trkpt>
      <trkpt lat="45.752585018053651" lon="6.813766518607736">
        <ele>2398.1500000000001</ele>
        <time>2014-07-19T08:25:21Z</time>
      </trkpt>
      <trkpt lat="45.752663053572178" lon="6.813703821972013">
        <ele>2394.7800000000002</ele>
        <time>2014-07-19T08:25:33Z</time>
      </trkpt>
      <trkpt lat="45.752744525671005" lon="6.813705330714583">
        <ele>2391.9000000000001</ele>
        <time>2014-07-19T08:25:44Z</time>
      </trkpt>
      <trkpt lat="45.752769839018583" lon="6.813710946589708">
        <ele>2390.9400000000001</ele>
        <time>2014-07-19T08:25:47Z</time>
      </trkpt>
      <trkpt lat="45.752837648615241" lon="6.813690830022097">
        <ele>2389.0100000000002</ele>
        <time>2014-07-19T08:26:03Z</time>
      </trkpt>
      <trkpt lat="45.752840582281351" lon="6.813687728717923">
        <ele>2388.5300000000002</ele>
        <time>2014-07-19T08:26:04Z</time>
      </trkpt>
      <trkpt lat="45.752878384664655" lon="6.813721675425768">
        <ele>2388.0500000000002</ele>
        <time>2014-07-19T08:26:08Z</time>
      </trkpt>
      <trkpt lat="45.753009142354131" lon="6.813635341823101">
        <ele>2384.6900000000001</ele>
        <time>2014-07-19T08:26:23Z</time>
      </trkpt>
      <trkpt lat="45.753092542290688" lon="6.813604831695557">
        <ele>2382.2800000000002</ele>
        <time>2014-07-19T08:26:32Z</time>
      </trkpt>
      <trkpt lat="45.753142330795527" lon="6.813568621873856">
        <ele>2381.8000000000002</ele>
        <time>2014-07-19T08:26:37Z</time>
      </trkpt>
      <trkpt lat="45.753246769309044" lon="6.813774900510907">
        <ele>2379.4000000000001</ele>
        <time>2014-07-19T08:26:51Z</time>
      </trkpt>
      <trkpt lat="45.753295300528407" lon="6.813872968778014">
        <ele>2376.04</ele>
        <time>2014-07-19T08:27:03Z</time>
      </trkpt>
      <trkpt lat="45.753311896696687" lon="6.813944801688194">
        <ele>2374.1100000000001</ele>
        <time>2014-07-19T08:27:12Z</time>
      </trkpt>
      <trkpt lat="45.753328241407871" lon="6.814092407003045">
        <ele>2370.75</ele>
        <time>2014-07-19T08:27:25Z</time>
      </trkpt>
      <trkpt lat="45.753356069326401" lon="6.814107494428754">
        <ele>2369.79</ele>
        <time>2014-07-19T08:27:29Z</time>
      </trkpt>
      <trkpt lat="45.753398900851607" lon="6.81418594904244">
        <ele>2367.3800000000001</ele>
        <time>2014-07-19T08:27:36Z</time>
      </trkpt>
      <trkpt lat="45.753410048782825" lon="6.814247304573655">
        <ele>2365.9400000000001</ele>
        <time>2014-07-19T08:27:41Z</time>
      </trkpt>
      <trkpt lat="45.753441648557782" lon="6.814285106956959">
        <ele>2364.5</ele>
        <time>2014-07-19T08:27:50Z</time>
      </trkpt>
      <trkpt lat="45.753452964127064" lon="6.814312348142266">
        <ele>2364.5</ele>
        <time>2014-07-19T08:27:52Z</time>
      </trkpt>
      <trkpt lat="45.753494873642921" lon="6.814407985657454">
        <ele>2362.5799999999999</ele>
        <time>2014-07-19T08:28:00Z</time>
      </trkpt>
      <trkpt lat="45.753569724038243" lon="6.814520135521889">
        <ele>2360.6500000000001</ele>
        <time>2014-07-19T08:28:10Z</time>
      </trkpt>
      <trkpt lat="45.753629067912698" lon="6.814689785242081">
        <ele>2357.29</ele>
        <time>2014-07-19T08:28:24Z</time>
      </trkpt>
      <trkpt lat="45.753633342683315" lon="6.814718032255769">
        <ele>2356.3299999999999</ele>
        <time>2014-07-19T08:28:27Z</time>
      </trkpt>
      <trkpt lat="45.753627642989159" lon="6.814790703356266">
        <ele>2354.8899999999999</ele>
        <time>2014-07-19T08:28:33Z</time>
      </trkpt>
      <trkpt lat="45.753656476736069" lon="6.814861614257097">
        <ele>2352.96</ele>
        <time>2014-07-19T08:28:42Z</time>
      </trkpt>
      <trkpt lat="45.753656141459942" lon="6.814964544028044">
        <ele>2349.5999999999999</ele>
        <time>2014-07-19T08:28:56Z</time>
      </trkpt>
      <trkpt lat="45.753639712929726" lon="6.814949540421367">
        <ele>2350.0799999999999</ele>
        <time>2014-07-19T08:29:15Z</time>
      </trkpt>
      <trkpt lat="45.753626637160778" lon="6.814914001151919">
        <ele>2350.5599999999999</ele>
        <time>2014-07-19T08:29:41Z</time>
      </trkpt>
      <trkpt lat="45.753652285784483" lon="6.814921461045742">
        <ele>2351.52</ele>
        <time>2014-07-19T08:30:01Z</time>
      </trkpt>
      <trkpt lat="45.753711964935064" lon="6.815044423565269">
        <ele>2351.04</ele>
        <time>2014-07-19T08:30:14Z</time>
      </trkpt>
      <trkpt lat="45.753737278282642" lon="6.815110389143229">
        <ele>2349.5999999999999</ele>
        <time>2014-07-19T08:30:25Z</time>
      </trkpt>
      <trkpt lat="45.75378111563623" lon="6.81515053845942">
        <ele>2347.6799999999998</ele>
        <time>2014-07-19T08:30:34Z</time>
      </trkpt>
      <trkpt lat="45.753766028210521" lon="6.815180294215679">
        <ele>2347.1999999999998</ele>
        <time>2014-07-19T08:30:44Z</time>
      </trkpt>
      <trkpt lat="45.753749264404178" lon="6.815393194556236">
        <ele>2345.27</ele>
        <time>2014-07-19T08:30:59Z</time>
      </trkpt>
      <trkpt lat="45.753798382356763" lon="6.81549939326942">
        <ele>2343.3499999999999</ele>
        <time>2014-07-19T08:31:07Z</time>
      </trkpt>
      <trkpt lat="45.753839956596494" lon="6.815742468461394">
        <ele>2339.9899999999998</ele>
        <time>2014-07-19T08:31:22Z</time>
      </trkpt>
      <trkpt lat="45.753849847242236" lon="6.815809272229672">
        <ele>2339.02</ele>
        <time>2014-07-19T08:31:28Z</time>
      </trkpt>
      <trkpt lat="45.753899971023202" lon="6.815967271104455">
        <ele>2336.6199999999999</ele>
        <time>2014-07-19T08:31:41Z</time>
      </trkpt>
      <trkpt lat="45.753913214430213" lon="6.816047234460712">
        <ele>2335.6599999999999</ele>
        <time>2014-07-19T08:31:46Z</time>
      </trkpt>
      <trkpt lat="45.753932660445571" lon="6.816087551414967">
        <ele>2334.6999999999998</ele>
        <time>2014-07-19T08:31:50Z</time>
      </trkpt>
      <trkpt lat="45.753978174179792" lon="6.816276647150517">
        <ele>2331.8099999999999</ele>
        <time>2014-07-19T08:32:05Z</time>
      </trkpt>
      <trkpt lat="45.753988483920693" lon="6.816327106207609">
        <ele>2331.3299999999999</ele>
        <time>2014-07-19T08:32:10Z</time>
      </trkpt>
      <trkpt lat="45.754015808925033" lon="6.816411931067705">
        <ele>2329.4099999999999</ele>
        <time>2014-07-19T08:32:22Z</time>
      </trkpt>
      <trkpt lat="45.754022598266602" lon="6.816420229151845">
        <ele>2328.9299999999998</ele>
        <time>2014-07-19T08:32:23Z</time>
      </trkpt>
      <trkpt lat="45.754058975726366" lon="6.816468257457018">
        <ele>2327.4899999999998</ele>
        <time>2014-07-19T08:32:28Z</time>
      </trkpt>
      <trkpt lat="45.754071129485965" lon="6.816565152257681">
        <ele>2326.5300000000002</ele>
        <time>2014-07-19T08:32:36Z</time>
      </trkpt>
      <trkpt lat="45.754076577723026" lon="6.81659834459424">
        <ele>2326.0500000000002</ele>
        <time>2014-07-19T08:32:39Z</time>
      </trkpt>
      <trkpt lat="45.754090994596481" lon="6.816773610189557">
        <ele>2322.6799999999998</ele>
        <time>2014-07-19T08:32:51Z</time>
      </trkpt>
      <trkpt lat="45.754084037616849" lon="6.816835887730122">
        <ele>2323.1599999999999</ele>
        <time>2014-07-19T08:32:55Z</time>
      </trkpt>
      <trkpt lat="45.754045397043228" lon="6.817040573805571">
        <ele>2321.2399999999998</ele>
        <time>2014-07-19T08:33:08Z</time>
      </trkpt>
      <trkpt lat="45.754027795046568" lon="6.81719153188169">
        <ele>2319.8000000000002</ele>
        <time>2014-07-19T08:33:18Z</time>
      </trkpt>
      <trkpt lat="45.754022598266602" lon="6.817244170233607">
        <ele>2319.3200000000002</ele>
        <time>2014-07-19T08:33:33Z</time>
      </trkpt>
      <trkpt lat="45.754009690135717" lon="6.817213241010904">
        <ele>2319.8000000000002</ele>
        <time>2014-07-19T08:33:59Z</time>
      </trkpt>
      <trkpt lat="45.754004158079624" lon="6.81734886020422">
        <ele>2318.8400000000001</ele>
        <time>2014-07-19T08:34:12Z</time>
      </trkpt>
      <trkpt lat="45.753992255777121" lon="6.817541560158134">
        <ele>2317.4000000000001</ele>
        <time>2014-07-19T08:34:24Z</time>
      </trkpt>
      <trkpt lat="45.753971887752414" lon="6.817591181024909">
        <ele>2316.4299999999998</ele>
        <time>2014-07-19T08:34:28Z</time>
      </trkpt>
      <trkpt lat="45.7539570517838" lon="6.817669719457626">
        <ele>2316.4299999999998</ele>
        <time>2014-07-19T08:34:33Z</time>
      </trkpt>
      <trkpt lat="45.753959566354752" lon="6.817749263718724">
        <ele>2315.4699999999998</ele>
        <time>2014-07-19T08:34:38Z</time>
      </trkpt>
      <trkpt lat="45.753957470878959" lon="6.817774996161461">
        <ele>2315.4699999999998</ele>
        <time>2014-07-19T08:34:40Z</time>
      </trkpt>
      <trkpt lat="45.753967612981796" lon="6.817986723035574">
        <ele>2314.0300000000002</ele>
        <time>2014-07-19T08:34:55Z</time>
      </trkpt>
      <trkpt lat="45.753954369574785" lon="6.818069955334067">
        <ele>2313.0700000000002</ele>
        <time>2014-07-19T08:35:11Z</time>
      </trkpt>
      <trkpt lat="45.753934923559427" lon="6.818279502913356">
        <ele>2311.6300000000001</ele>
        <time>2014-07-19T08:35:25Z</time>
      </trkpt>
      <trkpt lat="45.753936599940062" lon="6.818394083529711">
        <ele>2308.2600000000002</ele>
        <time>2014-07-19T08:35:37Z</time>
      </trkpt>
      <trkpt lat="45.753943556919694" lon="6.818469101563096">
        <ele>2305.8600000000001</ele>
        <time>2014-07-19T08:35:51Z</time>
      </trkpt>
      <trkpt lat="45.753945149481297" lon="6.818503886461258">
        <ele>2305.8600000000001</ele>
        <time>2014-07-19T08:36:05Z</time>
      </trkpt>
      <trkpt lat="45.753903910517693" lon="6.818502880632877">
        <ele>2305.3800000000001</ele>
        <time>2014-07-19T08:36:19Z</time>
      </trkpt>
      <trkpt lat="45.753896031528711" lon="6.818504221737385">
        <ele>2304.4200000000001</ele>
        <time>2014-07-19T08:36:35Z</time>
      </trkpt>
      <trkpt lat="45.753896702080965" lon="6.818515034392476">
        <ele>2304.4200000000001</ele>
        <time>2014-07-19T08:36:36Z</time>
      </trkpt>
      <trkpt lat="45.753922685980797" lon="6.818642187863588">
        <ele>2303.46</ele>
        <time>2014-07-19T08:36:49Z</time>
      </trkpt>
      <trkpt lat="45.753910867497325" lon="6.818625507876277">
        <ele>2302.98</ele>
        <time>2014-07-19T08:37:03Z</time>
      </trkpt>
      <trkpt lat="45.753933917731047" lon="6.81873950175941">
        <ele>2302.98</ele>
        <time>2014-07-19T08:37:24Z</time>
      </trkpt>
      <trkpt lat="45.75394188053906" lon="6.818756265565753">
        <ele>2302.4899999999998</ele>
        <time>2014-07-19T08:37:26Z</time>
      </trkpt>
      <trkpt lat="45.753946322947741" lon="6.818800270557404">
        <ele>2302.4899999999998</ele>
        <time>2014-07-19T08:37:29Z</time>
      </trkpt>
      <trkpt lat="45.753949927166104" lon="6.818763222545385">
        <ele>2302.4899999999998</ele>
        <time>2014-07-19T08:37:41Z</time>
      </trkpt>
      <trkpt lat="45.75393752194941" lon="6.818752577528358">
        <ele>2302.4899999999998</ele>
        <time>2014-07-19T08:38:04Z</time>
      </trkpt>
      <trkpt lat="45.753955543041229" lon="6.818855172023177">
        <ele>2302.0100000000002</ele>
        <time>2014-07-19T08:38:19Z</time>
      </trkpt>
      <trkpt lat="45.753957303240895" lon="6.818900434300304">
        <ele>2302.0100000000002</ele>
        <time>2014-07-19T08:38:22Z</time>
      </trkpt>
      <trkpt lat="45.753992674872279" lon="6.818954832851887">
        <ele>2301.0500000000002</ele>
        <time>2014-07-19T08:38:34Z</time>
      </trkpt>
      <trkpt lat="45.754000637680292" lon="6.818956425413489">
        <ele>2299.1300000000001</ele>
        <time>2014-07-19T08:38:37Z</time>
      </trkpt>
      <trkpt lat="45.754029722884297" lon="6.818937733769417">
        <ele>2298.6500000000001</ele>
        <time>2014-07-19T08:38:50Z</time>
      </trkpt>
      <trkpt lat="45.754046905785799" lon="6.818904541432858">
        <ele>2298.6500000000001</ele>
        <time>2014-07-19T08:38:53Z</time>
      </trkpt>
      <trkpt lat="45.754080517217517" lon="6.818892639130354">
        <ele>2298.1700000000001</ele>
        <time>2014-07-19T08:38:57Z</time>
      </trkpt>
      <trkpt lat="45.754186045378447" lon="6.819027839228511">
        <ele>2297.21</ele>
        <time>2014-07-19T08:39:11Z</time>
      </trkpt>
      <trkpt lat="45.754145728424191" lon="6.819039741531014">
        <ele>2297.6900000000001</ele>
        <time>2014-07-19T08:39:39Z</time>
      </trkpt>
      <trkpt lat="45.754153020679951" lon="6.819061702117324">
        <ele>2297.6900000000001</ele>
        <time>2014-07-19T08:40:05Z</time>
      </trkpt>
      <trkpt lat="45.754128796979785" lon="6.819036975502968">
        <ele>2297.6900000000001</ele>
        <time>2014-07-19T08:40:33Z</time>
      </trkpt>
      <trkpt lat="45.754119241610169" lon="6.819044519215822">
        <ele>2297.6900000000001</ele>
        <time>2014-07-19T08:40:58Z</time>
      </trkpt>
      <trkpt lat="45.754132652655244" lon="6.819039490073919">
        <ele>2297.6900000000001</ele>
        <time>2014-07-19T08:41:28Z</time>
      </trkpt>
      <trkpt lat="45.754211358726025" lon="6.818984085693955">
        <ele>2297.6900000000001</ele>
        <time>2014-07-19T08:42:05Z</time>
      </trkpt>
      <trkpt lat="45.754153188318014" lon="6.819047871977091">
        <ele>2298.1700000000001</ele>
        <time>2014-07-19T08:42:34Z</time>
      </trkpt>
      <trkpt lat="45.754158301278949" lon="6.819048123434186">
        <ele>2298.1700000000001</ele>
        <time>2014-07-19T08:43:01Z</time>
      </trkpt>
      <trkpt lat="45.754144135862589" lon="6.819039238616824">
        <ele>2298.6500000000001</ele>
        <time>2014-07-19T08:43:33Z</time>
      </trkpt>
      <trkpt lat="45.754188140854239" lon="6.819112161174417">
        <ele>2298.6500000000001</ele>
        <time>2014-07-19T08:43:53Z</time>
      </trkpt>
      <trkpt lat="45.75418378226459" lon="6.81911769323051">
        <ele>2298.6500000000001</ele>
        <time>2014-07-19T08:43:54Z</time>
      </trkpt>
      <trkpt lat="45.754115721210837" lon="6.819094978272915">
        <ele>2298.6500000000001</ele>
        <time>2014-07-19T08:44:08Z</time>
      </trkpt>
      <trkpt lat="45.75414078310132" lon="6.819119704887271">
        <ele>2298.6500000000001</ele>
        <time>2014-07-19T08:44:33Z</time>
      </trkpt>
      <trkpt lat="45.754114715382457" lon="6.819153148680925">
        <ele>2299.1300000000001</ele>
        <time>2014-07-19T08:45:04Z</time>
      </trkpt>
      <trkpt lat="45.754140615463257" lon="6.819135630503297">
        <ele>2299.1300000000001</ele>
        <time>2014-07-19T08:45:41Z</time>
      </trkpt>
      <trkpt lat="45.754118738695979" lon="6.819155411794782">
        <ele>2299.6100000000001</ele>
        <time>2014-07-19T08:46:12Z</time>
      </trkpt>
      <trkpt lat="45.754127623513341" lon="6.81913822889328">
        <ele>2299.1300000000001</ele>
        <time>2014-07-19T08:46:36Z</time>
      </trkpt>
      <trkpt lat="45.754142794758081" lon="6.819125823676586">
        <ele>2299.6100000000001</ele>
        <time>2014-07-19T08:47:09Z</time>
      </trkpt>
      <trkpt lat="45.754174226894975" lon="6.81919195689261">
        <ele>2300.0900000000001</ele>
        <time>2014-07-19T08:47:26Z</time>
      </trkpt>
      <trkpt lat="45.754187470301986" lon="6.819227579981089">
        <ele>2300.5700000000002</ele>
        <time>2014-07-19T08:47:29Z</time>
      </trkpt>
      <trkpt lat="45.754203144460917" lon="6.819288600236177">
        <ele>2300.0900000000001</ele>
        <time>2014-07-19T08:47:43Z</time>
      </trkpt>
      <trkpt lat="45.754214711487293" lon="6.819400331005454">
        <ele>2300.0900000000001</ele>
        <time>2014-07-19T08:47:56Z</time>
      </trkpt>
      <trkpt lat="45.754215801134706" lon="6.819418938830495">
        <ele>2300.0900000000001</ele>
        <time>2014-07-19T08:47:57Z</time>
      </trkpt>
      <trkpt lat="45.754275731742382" lon="6.819572998210788">
        <ele>2301.5300000000002</ele>
        <time>2014-07-19T08:48:12Z</time>
      </trkpt>
      <trkpt lat="45.754327950999141" lon="6.819716915488243">
        <ele>2302.0100000000002</ele>
        <time>2014-07-19T08:48:27Z</time>
      </trkpt>
      <trkpt lat="45.75434161350131" lon="6.819910453632474">
        <ele>2302.0100000000002</ele>
        <time>2014-07-19T08:48:43Z</time>
      </trkpt>
      <trkpt lat="45.754333063960075" lon="6.820045234635472">
        <ele>2300.5700000000002</ele>
        <time>2014-07-19T08:48:52Z</time>
      </trkpt>
      <trkpt lat="45.754340859130025" lon="6.82024153880775">
        <ele>2300.0900000000001</ele>
        <time>2014-07-19T08:49:06Z</time>
      </trkpt>
      <trkpt lat="45.754368100315332" lon="6.820477657020092">
        <ele>2299.1300000000001</ele>
        <time>2014-07-19T08:49:21Z</time>
      </trkpt>
      <trkpt lat="45.754351336508989" lon="6.820696089416742">
        <ele>2298.6500000000001</ele>
        <time>2014-07-19T08:49:34Z</time>
      </trkpt>
      <trkpt lat="45.754380002617836" lon="6.82091779075563">
        <ele>2297.6900000000001</ele>
        <time>2014-07-19T08:49:48Z</time>
      </trkpt>
      <trkpt lat="45.754377823323011" lon="6.821183413267136">
        <ele>2295.2800000000002</ele>
        <time>2014-07-19T08:50:03Z</time>
      </trkpt>
      <trkpt lat="45.754402969032526" lon="6.821446605026722">
        <ele>2293.8400000000001</ele>
        <time>2014-07-19T08:50:18Z</time>
      </trkpt>
      <trkpt lat="45.754420403391123" lon="6.821490777656436">
        <ele>2292.8800000000001</ele>
        <time>2014-07-19T08:50:21Z</time>
      </trkpt>
      <trkpt lat="45.754476394504309" lon="6.821625893935561">
        <ele>2290.96</ele>
        <time>2014-07-19T08:50:30Z</time>
      </trkpt>
      <trkpt lat="45.754518806934357" lon="6.821923619136214">
        <ele>2290.48</ele>
        <time>2014-07-19T08:50:49Z</time>
      </trkpt>
      <trkpt lat="45.754606565460563" lon="6.822115480899811">
        <ele>2289.52</ele>
        <time>2014-07-19T08:51:03Z</time>
      </trkpt>
      <trkpt lat="45.754628106951714" lon="6.82219510897994">
        <ele>2289.52</ele>
        <time>2014-07-19T08:51:08Z</time>
      </trkpt>
      <trkpt lat="45.754730114713311" lon="6.822411781176925">
        <ele>2290.48</ele>
        <time>2014-07-19T08:51:24Z</time>
      </trkpt>
      <trkpt lat="45.754737574607134" lon="6.822433825582266">
        <ele>2289.52</ele>
        <time>2014-07-19T08:51:27Z</time>
      </trkpt>
      <trkpt lat="45.754740675911307" lon="6.822453774511814">
        <ele>2289.52</ele>
        <time>2014-07-19T08:51:29Z</time>
      </trkpt>
      <trkpt lat="45.754876881837845" lon="6.8226617295295">
        <ele>2287.5900000000001</ele>
        <time>2014-07-19T08:51:45Z</time>
      </trkpt>
      <trkpt lat="45.754905380308628" lon="6.822727778926492">
        <ele>2287.5900000000001</ele>
        <time>2014-07-19T08:51:50Z</time>
      </trkpt>
      <trkpt lat="45.754956677556038" lon="6.822827523574233">
        <ele>2288.0799999999999</ele>
        <time>2014-07-19T08:51:59Z</time>
      </trkpt>
      <trkpt lat="45.754967406392097" lon="6.822866750881076">
        <ele>2288.5599999999999</ele>
        <time>2014-07-19T08:52:02Z</time>
      </trkpt>
      <trkpt lat="45.754971178248525" lon="6.822888879105449">
        <ele>2288.5599999999999</ele>
        <time>2014-07-19T08:52:04Z</time>
      </trkpt>
      <trkpt lat="45.755059188231826" lon="6.823007315397263">
        <ele>2287.5900000000001</ele>
        <time>2014-07-19T08:52:19Z</time>
      </trkpt>
      <trkpt lat="45.755070839077234" lon="6.823032377287746">
        <ele>2287.5900000000001</ele>
        <time>2014-07-19T08:52:22Z</time>
      </trkpt>
      <trkpt lat="45.755116604268551" lon="6.823166571557522">
        <ele>2286.1500000000001</ele>
        <time>2014-07-19T08:52:30Z</time>
      </trkpt>
      <trkpt lat="45.755173014476895" lon="6.82325298897922">
        <ele>2285.6700000000001</ele>
        <time>2014-07-19T08:52:37Z</time>
      </trkpt>
      <trkpt lat="45.755265466868877" lon="6.823418699204922">
        <ele>2285.6700000000001</ele>
        <time>2014-07-19T08:52:51Z</time>
      </trkpt>
      <trkpt lat="45.755276698619127" lon="6.823553564026952">
        <ele>2285.6700000000001</ele>
        <time>2014-07-19T08:53:06Z</time>
      </trkpt>
      <trkpt lat="45.755312908440828" lon="6.823605364188552">
        <ele>2285.1900000000001</ele>
        <time>2014-07-19T08:53:23Z</time>
      </trkpt>
      <trkpt lat="45.755367474630475" lon="6.823697984218597">
        <ele>2284.23</ele>
        <time>2014-07-19T08:53:31Z</time>
      </trkpt>
      <trkpt lat="45.755433607846498" lon="6.823815498501062">
        <ele>2281.3499999999999</ele>
        <time>2014-07-19T08:53:41Z</time>
      </trkpt>
      <trkpt lat="45.755465207621455" lon="6.824003085494041">
        <ele>2278.9400000000001</ele>
        <time>2014-07-19T08:53:52Z</time>
      </trkpt>
      <trkpt lat="45.755523880943656" lon="6.824206179007888">
        <ele>2276.0599999999999</ele>
        <time>2014-07-19T08:54:06Z</time>
      </trkpt>
      <trkpt lat="45.755552966147661" lon="6.824270971119404">
        <ele>2275.5799999999999</ele>
        <time>2014-07-19T08:54:11Z</time>
      </trkpt>
      <trkpt lat="45.755622452124953" lon="6.824455037713051">
        <ele>2273.1700000000001</ele>
        <time>2014-07-19T08:54:24Z</time>
      </trkpt>
      <trkpt lat="45.755695877596736" lon="6.824652515351772">
        <ele>2270.29</ele>
        <time>2014-07-19T08:54:38Z</time>
      </trkpt>
      <trkpt lat="45.755742816254497" lon="6.824751421809197">
        <ele>2269.3299999999999</ele>
        <time>2014-07-19T08:54:45Z</time>
      </trkpt>
      <trkpt lat="45.755777936428785" lon="6.824851837009192">
        <ele>2267.8899999999999</ele>
        <time>2014-07-19T08:54:52Z</time>
      </trkpt>
      <trkpt lat="45.75592964887619" lon="6.825027605518699">
        <ele>2265</ele>
        <time>2014-07-19T08:55:10Z</time>
      </trkpt>
      <trkpt lat="45.755934007465839" lon="6.825037328526378">
        <ele>2265</ele>
        <time>2014-07-19T08:55:14Z</time>
      </trkpt>
      <trkpt lat="45.75605277903378" lon="6.825229693204165">
        <ele>2263.0799999999999</ele>
        <time>2014-07-19T08:55:29Z</time>
      </trkpt>
      <trkpt lat="45.756103992462158" lon="6.825283756479621">
        <ele>2262.1199999999999</ele>
        <time>2014-07-19T08:55:34Z</time>
      </trkpt>
      <trkpt lat="45.75622720643878" lon="6.825491040945053">
        <ele>2259.7199999999998</ele>
        <time>2014-07-19T08:55:50Z</time>
      </trkpt>
      <trkpt lat="45.756304739043117" lon="6.825680220499635">
        <ele>2258.27</ele>
        <time>2014-07-19T08:56:05Z</time>
      </trkpt>
      <trkpt lat="45.756318988278508" lon="6.825704444199801">
        <ele>2257.79</ele>
        <time>2014-07-19T08:56:07Z</time>
      </trkpt>
      <trkpt lat="45.756355114281178" lon="6.82578993961215">
        <ele>2256.8299999999999</ele>
        <time>2014-07-19T08:56:12Z</time>
      </trkpt>
      <trkpt lat="45.756433652713895" lon="6.825959170237184">
        <ele>2254.9099999999999</ele>
        <time>2014-07-19T08:56:25Z</time>
      </trkpt>
      <trkpt lat="45.756462151184678" lon="6.82600200176239">
        <ele>2253.4699999999998</ele>
        <time>2014-07-19T08:56:29Z</time>
      </trkpt>
      <trkpt lat="45.756479669362307" lon="6.826019519940019">
        <ele>2253.4699999999998</ele>
        <time>2014-07-19T08:56:31Z</time>
      </trkpt>
      <trkpt lat="45.756613109260798" lon="6.826210208237171">
        <ele>2252.0300000000002</ele>
        <time>2014-07-19T08:56:49Z</time>
      </trkpt>
      <trkpt lat="45.756706902757287" lon="6.826395532116294">
        <ele>2250.0999999999999</ele>
        <time>2014-07-19T08:57:03Z</time>
      </trkpt>
      <trkpt lat="45.756792733445764" lon="6.826505251228809">
        <ele>2249.1399999999999</ele>
        <time>2014-07-19T08:57:13Z</time>
      </trkpt>
      <trkpt lat="45.75680916197598" lon="6.826528469100595">
        <ele>2248.1799999999998</ele>
        <time>2014-07-19T08:57:15Z</time>
      </trkpt>
      <trkpt lat="45.756904045119882" lon="6.826688395813108">
        <ele>2244.8200000000002</ele>
        <time>2014-07-19T08:57:28Z</time>
      </trkpt>
      <trkpt lat="45.756910834461451" lon="6.826701806858182">
        <ele>2244.8200000000002</ele>
        <time>2014-07-19T08:57:29Z</time>
      </trkpt>
      <trkpt lat="45.757035808637738" lon="6.826791744679213">
        <ele>2242.8899999999999</ele>
        <time>2014-07-19T08:57:42Z</time>
      </trkpt>
      <trkpt lat="45.757039580494165" lon="6.826804401353002">
        <ele>2242.8899999999999</ele>
        <time>2014-07-19T08:57:43Z</time>
      </trkpt>
      <trkpt lat="45.757074449211359" lon="6.826862655580044">
        <ele>2240.9699999999998</ele>
        <time>2014-07-19T08:57:50Z</time>
      </trkpt>
      <trkpt lat="45.757172768935561" lon="6.826926274225116">
        <ele>2238.5700000000002</ele>
        <time>2014-07-19T08:58:01Z</time>
      </trkpt>
      <trkpt lat="45.757248289883137" lon="6.826964495703578">
        <ele>2237.1300000000001</ele>
        <time>2014-07-19T08:58:14Z</time>
      </trkpt>
      <trkpt lat="45.757375862449408" lon="6.827153423801065">
        <ele>2235.6799999999998</ele>
        <time>2014-07-19T08:58:29Z</time>
      </trkpt>
      <trkpt lat="45.757511146366596" lon="6.827342603355646">
        <ele>2234.7199999999998</ele>
        <time>2014-07-19T08:58:45Z</time>
      </trkpt>
      <trkpt lat="45.757534196600318" lon="6.827386608347297">
        <ele>2234.7199999999998</ele>
        <time>2014-07-19T08:58:48Z</time>
      </trkpt>
      <trkpt lat="45.757584320381284" lon="6.827509319409728">
        <ele>2233.2800000000002</ele>
        <time>2014-07-19T08:58:56Z</time>
      </trkpt>
      <trkpt lat="45.757703427225351" lon="6.827749293297529">
        <ele>2230.8800000000001</ele>
        <time>2014-07-19T08:59:13Z</time>
      </trkpt>
      <trkpt lat="45.757799735292792" lon="6.827946435660124">
        <ele>2227.9899999999998</ele>
        <time>2014-07-19T08:59:27Z</time>
      </trkpt>
      <trkpt lat="45.757936779409647" lon="6.828199485316873">
        <ele>2225.5900000000001</ele>
        <time>2014-07-19T08:59:44Z</time>
      </trkpt>
      <trkpt lat="45.758081451058388" lon="6.828455552458763">
        <ele>2222.2199999999998</ele>
        <time>2014-07-19T09:00:04Z</time>
      </trkpt>
      <trkpt lat="45.758290663361549" lon="6.828701393678784">
        <ele>2219.8200000000002</ele>
        <time>2014-07-19T09:00:27Z</time>
      </trkpt>
      <trkpt lat="45.7583381049335" lon="6.828769370913506">
        <ele>2218.8600000000001</ele>
        <time>2014-07-19T09:00:34Z</time>
      </trkpt>
      <trkpt lat="45.758362496271729" lon="6.82880281470716">
        <ele>2217.9000000000001</ele>
        <time>2014-07-19T09:00:38Z</time>
      </trkpt>
      <trkpt lat="45.758398873731494" lon="6.828873977065086">
        <ele>2217.4200000000001</ele>
        <time>2014-07-19T09:00:44Z</time>
      </trkpt>
      <trkpt lat="45.75845536775887" lon="6.829027952626348">
        <ele>2216.9400000000001</ele>
        <time>2014-07-19T09:00:54Z</time>
      </trkpt>
      <trkpt lat="45.758488895371556" lon="6.829108251258731">
        <ele>2215.98</ele>
        <time>2014-07-19T09:00:59Z</time>
      </trkpt>
      <trkpt lat="45.758587969467044" lon="6.829372113570571">
        <ele>2214.5300000000002</ele>
        <time>2014-07-19T09:01:16Z</time>
      </trkpt>
      <trkpt lat="45.758660137653351" lon="6.829593647271395">
        <ele>2213.5700000000002</ele>
        <time>2014-07-19T09:01:31Z</time>
      </trkpt>
      <trkpt lat="45.758748650550842" lon="6.82979422621429">
        <ele>2211.1700000000001</ele>
        <time>2014-07-19T09:01:45Z</time>
      </trkpt>
      <trkpt lat="45.758823081851006" lon="6.830012993887067">
        <ele>2209.73</ele>
        <time>2014-07-19T09:02:00Z</time>
      </trkpt>
      <trkpt lat="45.75893322005868" lon="6.830170238390565">
        <ele>2206.8400000000001</ele>
        <time>2014-07-19T09:02:14Z</time>
      </trkpt>
      <trkpt lat="45.75901142321527" lon="6.830306444317102">
        <ele>2203.48</ele>
        <time>2014-07-19T09:02:26Z</time>
      </trkpt>
      <trkpt lat="45.75909398496151" lon="6.830478021875024">
        <ele>2200.5900000000001</ele>
        <time>2014-07-19T09:02:39Z</time>
      </trkpt>
      <trkpt lat="45.759167158976197" lon="6.830594697967172">
        <ele>2198.1900000000001</ele>
        <time>2014-07-19T09:02:49Z</time>
      </trkpt>
      <trkpt lat="45.759262712672353" lon="6.830748338252306">
        <ele>2194.8299999999999</ele>
        <time>2014-07-19T09:03:02Z</time>
      </trkpt>
      <trkpt lat="45.759368324652314" lon="6.830924525856972">
        <ele>2192.4200000000001</ele>
        <time>2014-07-19T09:03:18Z</time>
      </trkpt>
      <trkpt lat="45.759325744584203" lon="6.830959562212229">
        <ele>2192.4200000000001</ele>
        <time>2014-07-19T09:03:36Z</time>
      </trkpt>
      <trkpt lat="45.75935541652143" lon="6.830976409837604">
        <ele>2192.4200000000001</ele>
        <time>2014-07-19T09:03:41Z</time>
      </trkpt>
      <trkpt lat="45.759464548900723" lon="6.831161649897695">
        <ele>2189.54</ele>
        <time>2014-07-19T09:03:55Z</time>
      </trkpt>
      <trkpt lat="45.759496316313744" lon="6.831219736486673">
        <ele>2189.0599999999999</ele>
        <time>2014-07-19T09:04:00Z</time>
      </trkpt>
      <trkpt lat="45.759529760107398" lon="6.83127673342824">
        <ele>2187.6199999999999</ele>
        <time>2014-07-19T09:04:05Z</time>
      </trkpt>
      <trkpt lat="45.759571921080351" lon="6.831338675692678">
        <ele>2186.1799999999998</ele>
        <time>2014-07-19T09:04:11Z</time>
      </trkpt>
      <trkpt lat="45.759600084275007" lon="6.831466248258948">
        <ele>2183.77</ele>
        <time>2014-07-19T09:04:18Z</time>
      </trkpt>
      <trkpt lat="45.759687256067991" lon="6.831654421985149">
        <ele>2180.4099999999999</ele>
        <time>2014-07-19T09:04:32Z</time>
      </trkpt>
      <trkpt lat="45.759722292423248" lon="6.831715609878302">
        <ele>2179.4499999999998</ele>
        <time>2014-07-19T09:04:37Z</time>
      </trkpt>
      <trkpt lat="45.759758502244949" lon="6.831804625689983">
        <ele>2178</ele>
        <time>2014-07-19T09:04:43Z</time>
      </trkpt>
      <trkpt lat="45.759831676259637" lon="6.831972599029541">
        <ele>2175.5999999999999</ele>
        <time>2014-07-19T09:04:56Z</time>
      </trkpt>
      <trkpt lat="45.759936030954123" lon="6.832173764705658">
        <ele>2173.1999999999998</ele>
        <time>2014-07-19T09:05:11Z</time>
      </trkpt>
      <trkpt lat="45.76007173396647" lon="6.832323046401143">
        <ele>2172.2399999999998</ele>
        <time>2014-07-19T09:05:26Z</time>
      </trkpt>
      <trkpt lat="45.760150691494346" lon="6.832440979778767">
        <ele>2171.7600000000002</ele>
        <time>2014-07-19T09:05:36Z</time>
      </trkpt>
      <trkpt lat="45.760281197726727" lon="6.832647677510977">
        <ele>2170.79</ele>
        <time>2014-07-19T09:05:53Z</time>
      </trkpt>
      <trkpt lat="45.760408099740744" lon="6.832839455455542">
        <ele>2170.79</ele>
        <time>2014-07-19T09:06:09Z</time>
      </trkpt>
      <trkpt lat="45.760494098067284" lon="6.832962669432163">
        <ele>2170.3099999999999</ele>
        <time>2014-07-19T09:06:19Z</time>
      </trkpt>
      <trkpt lat="45.760595100000501" lon="6.833107089623809">
        <ele>2169.8299999999999</ele>
        <time>2014-07-19T09:06:32Z</time>
      </trkpt>
      <trkpt lat="45.760686714202166" lon="6.833298616111279">
        <ele>2169.3499999999999</ele>
        <time>2014-07-19T09:06:46Z</time>
      </trkpt>
      <trkpt lat="45.760752093046904" lon="6.833413951098919">
        <ele>2168.8699999999999</ele>
        <time>2014-07-19T09:06:55Z</time>
      </trkpt>
      <trkpt lat="45.760811939835548" lon="6.833522664383054">
        <ele>2168.3899999999999</ele>
        <time>2014-07-19T09:07:03Z</time>
      </trkpt>
      <trkpt lat="45.760827194899321" lon="6.833548145368695">
        <ele>2168.8699999999999</ele>
        <time>2014-07-19T09:07:05Z</time>
      </trkpt>
      <trkpt lat="45.760872038081288" lon="6.833664486184716">
        <ele>2168.3899999999999</ele>
        <time>2014-07-19T09:07:14Z</time>
      </trkpt>
      <trkpt lat="45.760987540706992" lon="6.833803709596396">
        <ele>2168.3899999999999</ele>
        <time>2014-07-19T09:07:27Z</time>
      </trkpt>
      <trkpt lat="45.761010758578777" lon="6.833837823942304">
        <ele>2168.3899999999999</ele>
        <time>2014-07-19T09:07:30Z</time>
      </trkpt>
      <trkpt lat="45.761157022789121" lon="6.834001019597054">
        <ele>2167.4299999999998</ele>
        <time>2014-07-19T09:07:47Z</time>
      </trkpt>
      <trkpt lat="45.761285182088614" lon="6.834168825298548">
        <ele>2167.4299999999998</ele>
        <time>2014-07-19T09:08:02Z</time>
      </trkpt>
      <trkpt lat="45.76130697503686" lon="6.834202101454139">
        <ele>2166.9499999999998</ele>
        <time>2014-07-19T09:08:05Z</time>
      </trkpt>
      <trkpt lat="45.7613446097821" lon="6.834283154457808">
        <ele>2166.4699999999998</ele>
        <time>2014-07-19T09:08:11Z</time>
      </trkpt>
      <trkpt lat="45.761419124901295" lon="6.834371415898204">
        <ele>2165.0300000000002</ele>
        <time>2014-07-19T09:08:20Z</time>
      </trkpt>
      <trkpt lat="45.761428931728005" lon="6.834392035380006">
        <ele>2165.9899999999998</ele>
        <time>2014-07-19T09:08:25Z</time>
      </trkpt>
      <trkpt lat="45.761489113792777" lon="6.834432939067483">
        <ele>2166.4699999999998</ele>
        <time>2014-07-19T09:08:31Z</time>
      </trkpt>
      <trkpt lat="45.761671084910631" lon="6.834626561030746">
        <ele>2165.5100000000002</ele>
        <time>2014-07-19T09:08:50Z</time>
      </trkpt>
      <trkpt lat="45.761841908097267" lon="6.834793947637081">
        <ele>2164.5500000000002</ele>
        <time>2014-07-19T09:09:07Z</time>
      </trkpt>
      <trkpt lat="45.761999068781734" lon="6.834920179098845">
        <ele>2164.0599999999999</ele>
        <time>2014-07-19T09:09:24Z</time>
      </trkpt>
      <trkpt lat="45.762148937210441" lon="6.835056971758604">
        <ele>2163.5799999999999</ele>
        <time>2014-07-19T09:09:39Z</time>
      </trkpt>
      <trkpt lat="45.762288747355342" lon="6.83520826511085">
        <ele>2163.5799999999999</ele>
        <time>2014-07-19T09:09:54Z</time>
      </trkpt>
      <trkpt lat="45.76240592636168" lon="6.835370790213347">
        <ele>2163.0999999999999</ele>
        <time>2014-07-19T09:10:08Z</time>
      </trkpt>
      <trkpt lat="45.762427048757672" lon="6.83539979159832">
        <ele>2162.6199999999999</ele>
        <time>2014-07-19T09:10:11Z</time>
      </trkpt>
      <trkpt lat="45.7625671941787" lon="6.83557128533721">
        <ele>2162.1399999999999</ele>
        <time>2014-07-19T09:10:28Z</time>
      </trkpt>
      <trkpt lat="45.762640284374356" lon="6.8357012886554">
        <ele>2161.6599999999999</ele>
        <time>2014-07-19T09:10:41Z</time>
      </trkpt>
      <trkpt lat="45.762660820037127" lon="6.835753759369254">
        <ele>2162.1399999999999</ele>
        <time>2014-07-19T09:10:55Z</time>
      </trkpt>
      <trkpt lat="45.762729048728943" lon="6.835793992504478">
        <ele>2161.6599999999999</ele>
        <time>2014-07-19T09:11:02Z</time>
      </trkpt>
      <trkpt lat="45.762910097837448" lon="6.835951739922166">
        <ele>2160.6999999999998</ele>
        <time>2014-07-19T09:11:19Z</time>
      </trkpt>
      <trkpt lat="45.763048650696874" lon="6.836116444319487">
        <ele>2161.1799999999998</ele>
        <time>2014-07-19T09:11:34Z</time>
      </trkpt>
      <trkpt lat="45.763172702863812" lon="6.836294811218977">
        <ele>2160.2199999999998</ele>
        <time>2014-07-19T09:11:49Z</time>
      </trkpt>
      <trkpt lat="45.763328187167645" lon="6.836446020752192">
        <ele>2159.7399999999998</ele>
        <time>2014-07-19T09:12:05Z</time>
      </trkpt>
      <trkpt lat="45.763411000370979" lon="6.836471417918801">
        <ele>2159.2600000000002</ele>
        <time>2014-07-19T09:12:20Z</time>
      </trkpt>
      <trkpt lat="45.763535052537918" lon="6.836550291627646">
        <ele>2159.7399999999998</ele>
        <time>2014-07-19T09:12:36Z</time>
      </trkpt>
      <trkpt lat="45.763623984530568" lon="6.836614580824971">
        <ele>2159.2600000000002</ele>
        <time>2014-07-19T09:12:52Z</time>
      </trkpt>
      <trkpt lat="45.76371836476028" lon="6.836630590260029">
        <ele>2158.7800000000002</ele>
        <time>2014-07-19T09:13:06Z</time>
      </trkpt>
      <trkpt lat="45.763812409713864" lon="6.836736286059022">
        <ele>2158.3000000000002</ele>
        <time>2014-07-19T09:13:20Z</time>
      </trkpt>
      <trkpt lat="45.76392900198698" lon="6.836843574419618">
        <ele>2157.8200000000002</ele>
        <time>2014-07-19T09:13:35Z</time>
      </trkpt>
      <trkpt lat="45.764088174328208" lon="6.836984138935804">
        <ele>2157.8200000000002</ele>
        <time>2014-07-19T09:13:51Z</time>
      </trkpt>
      <trkpt lat="45.764110721647739" lon="6.837020767852664">
        <ele>2157.8200000000002</ele>
        <time>2014-07-19T09:13:54Z</time>
      </trkpt>
      <trkpt lat="45.764248939231038" lon="6.837185556069017">
        <ele>2156.8600000000001</ele>
        <time>2014-07-19T09:14:09Z</time>
      </trkpt>
      <trkpt lat="45.764334434643388" lon="6.837298376485705">
        <ele>2157.3400000000001</ele>
        <time>2014-07-19T09:14:19Z</time>
      </trkpt>
      <trkpt lat="45.764384474605322" lon="6.837352439761162">
        <ele>2156.8600000000001</ele>
        <time>2014-07-19T09:14:24Z</time>
      </trkpt>
      <trkpt lat="45.764518333598971" lon="6.837591659277678">
        <ele>2156.3699999999999</ele>
        <time>2014-07-19T09:14:43Z</time>
      </trkpt>
      <trkpt lat="45.764649091288447" lon="6.837748903781176">
        <ele>2155.8899999999999</ele>
        <time>2014-07-19T09:14:58Z</time>
      </trkpt>
      <trkpt lat="45.764693934470415" lon="6.837855521589518">
        <ele>2155.4099999999999</ele>
        <time>2014-07-19T09:15:07Z</time>
      </trkpt>
      <trkpt lat="45.764830224215984" lon="6.837986530736089">
        <ele>2154.9299999999998</ele>
        <time>2014-07-19T09:15:21Z</time>
      </trkpt>
      <trkpt lat="45.76491798274219" lon="6.837995499372482">
        <ele>2154.4499999999998</ele>
        <time>2014-07-19T09:15:29Z</time>
      </trkpt>
      <trkpt lat="45.765015548095107" lon="6.838054591789842">
        <ele>2154.9299999999998</ele>
        <time>2014-07-19T09:15:43Z</time>
      </trkpt>
      <trkpt lat="45.765020744875073" lon="6.838060710579157">
        <ele>2154.9299999999998</ele>
        <time>2014-07-19T09:15:50Z</time>
      </trkpt>
      <trkpt lat="45.765071036294103" lon="6.838098680600524">
        <ele>2154.9299999999998</ele>
        <time>2014-07-19T09:15:55Z</time>
      </trkpt>
      <trkpt lat="45.765247475355864" lon="6.838191887363792">
        <ele>2153.9699999999998</ele>
        <time>2014-07-19T09:16:12Z</time>
      </trkpt>
      <trkpt lat="45.76538703404367" lon="6.838365895673633">
        <ele>2153.9699999999998</ele>
        <time>2014-07-19T09:16:28Z</time>
      </trkpt>
      <trkpt lat="45.765423914417624" lon="6.838371595367789">
        <ele>2153.0100000000002</ele>
        <time>2014-07-19T09:16:43Z</time>
      </trkpt>
      <trkpt lat="45.765457861125469" lon="6.83844099752605">
        <ele>2153.4899999999998</ele>
        <time>2014-07-19T09:17:02Z</time>
      </trkpt>
      <trkpt lat="45.765443611890078" lon="6.838431442156434">
        <ele>2153.4899999999998</ele>
        <time>2014-07-19T09:17:14Z</time>
      </trkpt>
      <trkpt lat="45.765487616881728" lon="6.838460359722376">
        <ele>2153.0100000000002</ele>
        <time>2014-07-19T09:17:27Z</time>
      </trkpt>
      <trkpt lat="45.765604544430971" lon="6.83855633251369">
        <ele>2153.9699999999998</ele>
        <time>2014-07-19T09:17:44Z</time>
      </trkpt>
      <trkpt lat="45.765589205548167" lon="6.83855390176177">
        <ele>2153.4899999999998</ele>
        <time>2014-07-19T09:18:04Z</time>
      </trkpt>
      <trkpt lat="45.76560890302062" lon="6.838554823771119">
        <ele>2153.4899999999998</ele>
        <time>2014-07-19T09:18:36Z</time>
      </trkpt>
      <trkpt lat="45.765624912455678" lon="6.838551554828882">
        <ele>2153.4899999999998</ele>
        <time>2014-07-19T09:19:06Z</time>
      </trkpt>
      <trkpt lat="45.765592139214277" lon="6.838538898155093">
        <ele>2153.9699999999998</ele>
        <time>2014-07-19T09:19:30Z</time>
      </trkpt>
      <trkpt lat="45.765587193891406" lon="6.838539568707347">
        <ele>2154.4499999999998</ele>
        <time>2014-07-19T09:19:56Z</time>
      </trkpt>
      <trkpt lat="45.765635054558516" lon="6.838531941175461">
        <ele>2154.4499999999998</ele>
        <time>2014-07-19T09:20:16Z</time>
      </trkpt>
      <trkpt lat="45.765652824193239" lon="6.838509058579803">
        <ele>2154.4499999999998</ele>
        <time>2014-07-19T09:20:30Z</time>
      </trkpt>
      <trkpt lat="45.765666821971536" lon="6.838500425219536">
        <ele>2154.4499999999998</ele>
        <time>2014-07-19T09:20:47Z</time>
      </trkpt>
      <trkpt lat="45.765649219974875" lon="6.838511154055595">
        <ele>2154.4499999999998</ele>
        <time>2014-07-19T09:21:06Z</time>
      </trkpt>
      <trkpt lat="45.765665899962187" lon="6.838567815721035">
        <ele>2154.4499999999998</ele>
        <time>2014-07-19T09:21:18Z</time>
      </trkpt>
      <trkpt lat="45.765693727880716" lon="6.838576449081302">
        <ele>2154.9299999999998</ele>
        <time>2014-07-19T09:21:26Z</time>
      </trkpt>
      <trkpt lat="45.765891876071692" lon="6.838602349162102">
        <ele>2155.4099999999999</ele>
        <time>2014-07-19T09:21:43Z</time>
      </trkpt>
      <trkpt lat="45.766006875783205" lon="6.838698405772448">
        <ele>2157.3400000000001</ele>
        <time>2014-07-19T09:21:57Z</time>
      </trkpt>
      <trkpt lat="45.766105698421597" lon="6.838741656392813">
        <ele>2159.2600000000002</ele>
        <time>2014-07-19T09:22:12Z</time>
      </trkpt>
      <trkpt lat="45.766150457784534" lon="6.838723383843899">
        <ele>2159.7399999999998</ele>
        <time>2014-07-19T09:22:26Z</time>
      </trkpt>
      <trkpt lat="45.766157917678356" lon="6.838730089366436">
        <ele>2160.2199999999998</ele>
        <time>2014-07-19T09:22:27Z</time>
      </trkpt>
      <trkpt lat="45.766167975962162" lon="6.838734531775117">
        <ele>2160.2199999999998</ele>
        <time>2014-07-19T09:22:41Z</time>
      </trkpt>
      <trkpt lat="45.766195133328438" lon="6.838729586452246">
        <ele>2160.2199999999998</ele>
        <time>2014-07-19T09:23:02Z</time>
      </trkpt>
      <trkpt lat="45.766165712848306" lon="6.838723132386804">
        <ele>2160.2199999999998</ele>
        <time>2014-07-19T09:23:20Z</time>
      </trkpt>
      <trkpt lat="45.766255483031273" lon="6.838703518733382">
        <ele>2160.2199999999998</ele>
        <time>2014-07-19T09:23:32Z</time>
      </trkpt>
      <trkpt lat="45.766359837725759" lon="6.83875766582787">
        <ele>2157.8200000000002</ele>
        <time>2014-07-19T09:23:47Z</time>
      </trkpt>
      <trkpt lat="45.766328740864992" lon="6.838770993053913">
        <ele>2158.3000000000002</ele>
        <time>2014-07-19T09:24:07Z</time>
      </trkpt>
      <trkpt lat="45.766384396702051" lon="6.838834024965763">
        <ele>2155.8899999999999</ele>
        <time>2014-07-19T09:24:16Z</time>
      </trkpt>
      <trkpt lat="45.766403339803219" lon="6.838835198432207">
        <ele>2157.3400000000001</ele>
        <time>2014-07-19T09:24:21Z</time>
      </trkpt>
      <trkpt lat="45.766402166336775" lon="6.83882798999548">
        <ele>2157.3400000000001</ele>
        <time>2014-07-19T09:24:33Z</time>
      </trkpt>
      <trkpt lat="45.766392359510064" lon="6.838830504566431">
        <ele>2157.8200000000002</ele>
        <time>2014-07-19T09:24:53Z</time>
      </trkpt>
      <trkpt lat="45.766396131366491" lon="6.838805610314012">
        <ele>2157.3400000000001</ele>
        <time>2014-07-19T09:25:13Z</time>
      </trkpt>
      <trkpt lat="45.766416750848293" lon="6.838840981945396">
        <ele>2157.3400000000001</ele>
        <time>2014-07-19T09:25:37Z</time>
      </trkpt>
      <trkpt lat="45.76641658321023" lon="6.838822457939386">
        <ele>2156.8600000000001</ele>
        <time>2014-07-19T09:25:59Z</time>
      </trkpt>
      <trkpt lat="45.766432005912066" lon="6.838855063542724">
        <ele>2156.3699999999999</ele>
        <time>2014-07-19T09:26:18Z</time>
      </trkpt>
      <trkpt lat="45.766415745019913" lon="6.83887685649097">
        <ele>2156.3699999999999</ele>
        <time>2014-07-19T09:26:38Z</time>
      </trkpt>
      <trkpt lat="45.766418175771832" lon="6.83884802274406">
        <ele>2156.8600000000001</ele>
        <time>2014-07-19T09:27:02Z</time>
      </trkpt>
      <trkpt lat="45.766416834667325" lon="6.838830001652241">
        <ele>2157.3400000000001</ele>
        <time>2014-07-19T09:27:19Z</time>
      </trkpt>
      <trkpt lat="45.766424126923084" lon="6.838817344978452">
        <ele>2157.3400000000001</ele>
        <time>2014-07-19T09:27:42Z</time>
      </trkpt>
      <trkpt lat="45.766392527148128" lon="6.838809465989471">
        <ele>2156.8600000000001</ele>
        <time>2014-07-19T09:28:03Z</time>
      </trkpt>
      <trkpt lat="45.766390431672335" lon="6.838806867599487">
        <ele>2157.3400000000001</ele>
        <time>2014-07-19T09:28:30Z</time>
      </trkpt>
      <trkpt lat="45.766392527148128" lon="6.838801000267267">
        <ele>2157.8200000000002</ele>
        <time>2014-07-19T09:29:01Z</time>
      </trkpt>
      <trkpt lat="45.766386492177844" lon="6.838801587000489">
        <ele>2157.8200000000002</ele>
        <time>2014-07-19T09:29:25Z</time>
      </trkpt>
      <trkpt lat="45.766400825232267" lon="6.838819021359086">
        <ele>2157.8200000000002</ele>
        <time>2014-07-19T09:29:43Z</time>
      </trkpt>
      <trkpt lat="45.766373919323087" lon="6.838832851499319">
        <ele>2157.3400000000001</ele>
        <time>2014-07-19T09:30:01Z</time>
      </trkpt>
      <trkpt lat="45.766390264034271" lon="6.838874090462923">
        <ele>2156.8600000000001</ele>
        <time>2014-07-19T09:30:26Z</time>
      </trkpt>
      <trkpt lat="45.7663628552109" lon="6.838885573670268">
        <ele>2156.8600000000001</ele>
        <time>2014-07-19T09:30:31Z</time>
      </trkpt>
      <trkpt lat="45.766341397538781" lon="6.838899655267596">
        <ele>2156.3699999999999</ele>
        <time>2014-07-19T09:30:34Z</time>
      </trkpt>
      <trkpt lat="45.766316587105393" lon="6.838906025514007">
        <ele>2155.8899999999999</ele>
        <time>2014-07-19T09:30:48Z</time>
      </trkpt>
      <trkpt lat="45.766305522993207" lon="6.838963106274605">
        <ele>2155.4099999999999</ele>
        <time>2014-07-19T09:30:57Z</time>
      </trkpt>
      <trkpt lat="45.766255734488368" lon="6.839138036593795">
        <ele>2153.9699999999998</ele>
        <time>2014-07-19T09:31:11Z</time>
      </trkpt>
      <trkpt lat="45.766217010095716" lon="6.839374909177423">
        <ele>2151.0900000000001</ele>
        <time>2014-07-19T09:31:27Z</time>
      </trkpt>
      <trkpt lat="45.766213573515415" lon="6.839604657143354">
        <ele>2149.6500000000001</ele>
        <time>2014-07-19T09:31:41Z</time>
      </trkpt>
      <trkpt lat="45.766211058944464" lon="6.839628964662552">
        <ele>2147.7199999999998</ele>
        <time>2014-07-19T09:31:43Z</time>
      </trkpt>
      <trkpt lat="45.766183063387871" lon="6.839795093983412">
        <ele>2146.7600000000002</ele>
        <time>2014-07-19T09:31:54Z</time>
      </trkpt>
      <trkpt lat="45.76617375947535" lon="6.839855024591088">
        <ele>2145.8000000000002</ele>
        <time>2014-07-19T09:31:59Z</time>
      </trkpt>
      <trkpt lat="45.766161102801561" lon="6.839936580508947">
        <ele>2144.8400000000001</ele>
        <time>2014-07-19T09:32:05Z</time>
      </trkpt>
      <trkpt lat="45.766149116680026" lon="6.840034648776054">
        <ele>2143.4000000000001</ele>
        <time>2014-07-19T09:32:21Z</time>
      </trkpt>
      <trkpt lat="45.766142578795552" lon="6.840018471702933">
        <ele>2143.8800000000001</ele>
        <time>2014-07-19T09:32:28Z</time>
      </trkpt>
      <trkpt lat="45.766115337610245" lon="6.840255428105593">
        <ele>2141.4699999999998</ele>
        <time>2014-07-19T09:32:44Z</time>
      </trkpt>
      <trkpt lat="45.766111649572849" lon="6.840397249907255">
        <ele>2139.5500000000002</ele>
        <time>2014-07-19T09:32:53Z</time>
      </trkpt>
      <trkpt lat="45.766105949878693" lon="6.840421138331294">
        <ele>2139.0700000000002</ele>
        <time>2014-07-19T09:32:55Z</time>
      </trkpt>
      <trkpt lat="45.766091030091047" lon="6.840534964576364">
        <ele>2137.6300000000001</ele>
        <time>2014-07-19T09:33:09Z</time>
      </trkpt>
      <trkpt lat="45.766090610995889" lon="6.840591542422772">
        <ele>2137.6300000000001</ele>
        <time>2014-07-19T09:33:21Z</time>
      </trkpt>
      <trkpt lat="45.766085665673018" lon="6.840692795813084">
        <ele>2136.1900000000001</ele>
        <time>2014-07-19T09:33:27Z</time>
      </trkpt>
      <trkpt lat="45.766020203009248" lon="6.840884909033775">
        <ele>2133.3000000000002</ele>
        <time>2014-07-19T09:33:39Z</time>
      </trkpt>
      <trkpt lat="45.766005450859666" lon="6.840907707810402">
        <ele>2132.8200000000002</ele>
        <time>2014-07-19T09:33:41Z</time>
      </trkpt>
      <trkpt lat="45.765964379534125" lon="6.84104491956532">
        <ele>2130.9000000000001</ele>
        <time>2014-07-19T09:33:50Z</time>
      </trkpt>
      <trkpt lat="45.765951471403241" lon="6.841171737760305">
        <ele>2129.46</ele>
        <time>2014-07-19T09:33:57Z</time>
      </trkpt>
      <trkpt lat="45.765979802235961" lon="6.841216245666146">
        <ele>2128.98</ele>
        <time>2014-07-19T09:34:00Z</time>
      </trkpt>
      <trkpt lat="45.766018610447645" lon="6.841192860156298">
        <ele>2128.02</ele>
        <time>2014-07-19T09:34:05Z</time>
      </trkpt>
      <trkpt lat="45.766027411445975" lon="6.841124799102545">
        <ele>2127.0500000000002</ele>
        <time>2014-07-19T09:34:23Z</time>
      </trkpt>
      <trkpt lat="45.766030680388212" lon="6.841103341430426">
        <ele>2127.0500000000002</ele>
        <time>2014-07-19T09:34:36Z</time>
      </trkpt>
      <trkpt lat="45.766142075881362" lon="6.840933272615075">
        <ele>2124.6500000000001</ele>
        <time>2014-07-19T09:34:51Z</time>
      </trkpt>
      <trkpt lat="45.766220362856984" lon="6.840768735855818">
        <ele>2122.73</ele>
        <time>2014-07-19T09:35:02Z</time>
      </trkpt>
      <trkpt lat="45.766305439174175" lon="6.840662453323603">
        <ele>2120.8099999999999</ele>
        <time>2014-07-19T09:35:11Z</time>
      </trkpt>
      <trkpt lat="45.76645178720355" lon="6.840463886037469">
        <ele>2117.9200000000001</ele>
        <time>2014-07-19T09:35:28Z</time>
      </trkpt>
      <trkpt lat="45.766615988686681" lon="6.840349221602082">
        <ele>2115.04</ele>
        <time>2014-07-19T09:35:42Z</time>
      </trkpt>
      <trkpt lat="45.766775496304035" lon="6.84021276421845">
        <ele>2112.1500000000001</ele>
        <time>2014-07-19T09:35:57Z</time>
      </trkpt>
      <trkpt lat="45.766829391941428" lon="6.840173285454512">
        <ele>2111.1900000000001</ele>
        <time>2014-07-19T09:36:02Z</time>
      </trkpt>
      <trkpt lat="45.766910444945097" lon="6.840104889124632">
        <ele>2109.75</ele>
        <time>2014-07-19T09:36:10Z</time>
      </trkpt>
      <trkpt lat="45.767087554559112" lon="6.839979495853186">
        <ele>2107.3499999999999</ele>
        <time>2014-07-19T09:36:26Z</time>
      </trkpt>
      <trkpt lat="45.767135918140411" lon="6.839994164183736">
        <ele>2106.8699999999999</ele>
        <time>2014-07-19T09:36:30Z</time>
      </trkpt>
      <trkpt lat="45.767344376072288" lon="6.840069768950343">
        <ele>2103.5</ele>
        <time>2014-07-19T09:36:47Z</time>
      </trkpt>
      <trkpt lat="45.767387207597494" lon="6.840105559676886">
        <ele>2103.02</ele>
        <time>2014-07-19T09:36:51Z</time>
      </trkpt>
      <trkpt lat="45.767610752955079" lon="6.840215614065528">
        <ele>2100.1399999999999</ele>
        <time>2014-07-19T09:37:10Z</time>
      </trkpt>
      <trkpt lat="45.767814349383116" lon="6.840225420892239">
        <ele>2097.25</ele>
        <time>2014-07-19T09:37:27Z</time>
      </trkpt>
      <trkpt lat="45.767980394884944" lon="6.840190635994077">
        <ele>2094.8499999999999</ele>
        <time>2014-07-19T09:37:42Z</time>
      </trkpt>
      <trkpt lat="45.768105871975422" lon="6.840156270191073">
        <ele>2092.9299999999998</ele>
        <time>2014-07-19T09:37:52Z</time>
      </trkpt>
      <trkpt lat="45.768149541690946" lon="6.840141266584396">
        <ele>2092.4499999999998</ele>
        <time>2014-07-19T09:37:56Z</time>
      </trkpt>
      <trkpt lat="45.76823377981782" lon="6.840178817510605">
        <ele>2091.4899999999998</ele>
        <time>2014-07-19T09:38:09Z</time>
      </trkpt>
      <trkpt lat="45.768219279125333" lon="6.840173033997417">
        <ele>2091.4899999999998</ele>
        <time>2014-07-19T09:38:33Z</time>
      </trkpt>
      <trkpt lat="45.768178207799792" lon="6.840202957391739">
        <ele>2091</ele>
        <time>2014-07-19T09:38:49Z</time>
      </trkpt>
      <trkpt lat="45.768190948292613" lon="6.840188121423125">
        <ele>2091</ele>
        <time>2014-07-19T09:39:02Z</time>
      </trkpt>
      <trkpt lat="45.768222380429506" lon="6.840194826945663">
        <ele>2091.4899999999998</ele>
        <time>2014-07-19T09:39:15Z</time>
      </trkpt>
      <trkpt lat="45.768219111487269" lon="6.840202622115612">
        <ele>2091.4899999999998</ele>
        <time>2014-07-19T09:39:16Z</time>
      </trkpt>
      <trkpt lat="45.768124395981431" lon="6.840248806402087">
        <ele>2090.04</ele>
        <time>2014-07-19T09:39:31Z</time>
      </trkpt>
      <trkpt lat="45.768009647727013" lon="6.840414013713598">
        <ele>2087.1599999999999</ele>
        <time>2014-07-19T09:39:48Z</time>
      </trkpt>
      <trkpt lat="45.76785072684288" lon="6.840539490804076">
        <ele>2084.2800000000002</ele>
        <time>2014-07-19T09:40:05Z</time>
      </trkpt>
      <trkpt lat="45.767666324973106" lon="6.840672260150313">
        <ele>2080.9099999999999</ele>
        <time>2014-07-19T09:40:23Z</time>
      </trkpt>
      <trkpt lat="45.767639502882957" lon="6.840705703943968">
        <ele>2080.4299999999998</ele>
        <time>2014-07-19T09:40:26Z</time>
      </trkpt>
      <trkpt lat="45.767555767670274" lon="6.840806538239121">
        <ele>2078.5100000000002</ele>
        <time>2014-07-19T09:40:36Z</time>
      </trkpt>
      <trkpt lat="45.767571609467268" lon="6.840853895992041">
        <ele>2078.0300000000002</ele>
        <time>2014-07-19T09:40:39Z</time>
      </trkpt>
      <trkpt lat="45.767595916986465" lon="6.840868061408401">
        <ele>2077.0700000000002</ele>
        <time>2014-07-19T09:40:42Z</time>
      </trkpt>
      <trkpt lat="45.767766069620848" lon="6.840785332024097">
        <ele>2074.6599999999999</ele>
        <time>2014-07-19T09:40:58Z</time>
      </trkpt>
      <trkpt lat="45.767790963873267" lon="6.840892620384693">
        <ele>2072.7399999999998</ele>
        <time>2014-07-19T09:41:07Z</time>
      </trkpt>
      <trkpt lat="45.767621900886297" lon="6.841109879314899">
        <ele>2069.8600000000001</ele>
        <time>2014-07-19T09:41:25Z</time>
      </trkpt>
      <trkpt lat="45.767479576170444" lon="6.841255305334926">
        <ele>2067.4499999999998</ele>
        <time>2014-07-19T09:41:39Z</time>
      </trkpt>
      <trkpt lat="45.767433643341064" lon="6.8412721529603">
        <ele>2066.9699999999998</ele>
        <time>2014-07-19T09:41:43Z</time>
      </trkpt>
      <trkpt lat="45.767405731603503" lon="6.841344824060798">
        <ele>2066.4899999999998</ele>
        <time>2014-07-19T09:41:48Z</time>
      </trkpt>
      <trkpt lat="45.767394248396158" lon="6.8414138071239">
        <ele>2065.5300000000002</ele>
        <time>2014-07-19T09:41:52Z</time>
      </trkpt>
      <trkpt lat="45.767439091578126" lon="6.841659564524889">
        <ele>2063.6100000000001</ele>
        <time>2014-07-19T09:42:06Z</time>
      </trkpt>
      <trkpt lat="45.767494663596153" lon="6.841920493170619">
        <ele>2060.7199999999998</ele>
        <time>2014-07-19T09:42:21Z</time>
      </trkpt>
      <trkpt lat="45.767499944195151" lon="6.841961732134223">
        <ele>2060.2399999999998</ele>
        <time>2014-07-19T09:42:25Z</time>
      </trkpt>
      <trkpt lat="45.767558282241225" lon="6.842248979955912">
        <ele>2056.8800000000001</ele>
        <time>2014-07-19T09:42:42Z</time>
      </trkpt>
      <trkpt lat="45.767562305554748" lon="6.842263480648398">
        <ele>2056.8800000000001</ele>
        <time>2014-07-19T09:42:59Z</time>
      </trkpt>
      <trkpt lat="45.767575213685632" lon="6.84230069629848">
        <ele>2056.4000000000001</ele>
        <time>2014-07-19T09:43:17Z</time>
      </trkpt>
      <trkpt lat="45.767554091289639" lon="6.842330368235707">
        <ele>2056.4000000000001</ele>
        <time>2014-07-19T09:43:28Z</time>
      </trkpt>
      <trkpt lat="45.767586780712008" lon="6.842402368783951">
        <ele>2055.4400000000001</ele>
        <time>2014-07-19T09:43:36Z</time>
      </trkpt>
      <trkpt lat="45.767625169828534" lon="6.842555170878768">
        <ele>2053.9899999999998</ele>
        <time>2014-07-19T09:43:46Z</time>
      </trkpt>
      <trkpt lat="45.767638580873609" lon="6.842637648805976">
        <ele>2053.0300000000002</ele>
        <time>2014-07-19T09:43:51Z</time>
      </trkpt>
      <trkpt lat="45.767643274739385" lon="6.842819955199957">
        <ele>2051.1100000000001</ele>
        <time>2014-07-19T09:44:02Z</time>
      </trkpt>
      <trkpt lat="45.767654590308666" lon="6.842902516946197">
        <ele>2050.6300000000001</ele>
        <time>2014-07-19T09:44:07Z</time>
      </trkpt>
      <trkpt lat="45.76766062527895" lon="6.842954317107797">
        <ele>2050.1500000000001</ele>
        <time>2014-07-19T09:44:10Z</time>
      </trkpt>
      <trkpt lat="45.767635395750403" lon="6.843173755332828">
        <ele>2049.6700000000001</ele>
        <time>2014-07-19T09:44:23Z</time>
      </trkpt>
      <trkpt lat="45.767599018290639" lon="6.843194039538503">
        <ele>2048.23</ele>
        <time>2014-07-19T09:44:27Z</time>
      </trkpt>
      <trkpt lat="45.767544535920024" lon="6.843198481947184">
        <ele>2047.26</ele>
        <time>2014-07-19T09:44:40Z</time>
      </trkpt>
      <trkpt lat="45.767565155401826" lon="6.843192698433995">
        <ele>2048.23</ele>
        <time>2014-07-19T09:44:55Z</time>
      </trkpt>
      <trkpt lat="45.767624164000154" lon="6.843186495825648">
        <ele>2048.23</ele>
        <time>2014-07-19T09:45:01Z</time>
      </trkpt>
      <trkpt lat="45.767639251425862" lon="6.843228656798601">
        <ele>2049.1900000000001</ele>
        <time>2014-07-19T09:45:04Z</time>
      </trkpt>
      <trkpt lat="45.76760983094573" lon="6.843483550474048">
        <ele>2048.23</ele>
        <time>2014-07-19T09:45:19Z</time>
      </trkpt>
      <trkpt lat="45.767635395750403" lon="6.843678764998913">
        <ele>2047.75</ele>
        <time>2014-07-19T09:45:30Z</time>
      </trkpt>
      <trkpt lat="45.767682837322354" lon="6.843942124396563">
        <ele>2046.3</ele>
        <time>2014-07-19T09:45:46Z</time>
      </trkpt>
      <trkpt lat="45.767710916697979" lon="6.84424638748169">
        <ele>2045.3399999999999</ele>
        <time>2014-07-19T09:46:04Z</time>
      </trkpt>
      <trkpt lat="45.767678646370769" lon="6.844524499028921">
        <ele>2044.3800000000001</ele>
        <time>2014-07-19T09:46:20Z</time>
      </trkpt>
      <trkpt lat="45.767671102657914" lon="6.844764221459627">
        <ele>2042.9400000000001</ele>
        <time>2014-07-19T09:46:33Z</time>
      </trkpt>
      <trkpt lat="45.767695074900985" lon="6.845145514234901">
        <ele>2040.05</ele>
        <time>2014-07-19T09:46:54Z</time>
      </trkpt>
      <trkpt lat="45.76769633218646" lon="6.845445418730378">
        <ele>2037.1700000000001</ele>
        <time>2014-07-19T09:47:11Z</time>
      </trkpt>
      <trkpt lat="45.767698008567095" lon="6.84548364020884">
        <ele>2037.1700000000001</ele>
        <time>2014-07-19T09:47:13Z</time>
      </trkpt>
      <trkpt lat="45.76766598969698" lon="6.845607021823525">
        <ele>2036.21</ele>
        <time>2014-07-19T09:47:26Z</time>
      </trkpt>
      <trkpt lat="45.767507907003164" lon="6.845595790073276">
        <ele>2034.29</ele>
        <time>2014-07-19T09:47:42Z</time>
      </trkpt>
      <trkpt lat="45.767367007210851" lon="6.845458578318358">
        <ele>2031.8800000000001</ele>
        <time>2014-07-19T09:47:56Z</time>
      </trkpt>
      <trkpt lat="45.767347645014524" lon="6.845449358224869">
        <ele>2031.4000000000001</ele>
        <time>2014-07-19T09:47:59Z</time>
      </trkpt>
      <trkpt lat="45.767275812104344" lon="6.845464026555419">
        <ele>2030.9200000000001</ele>
        <time>2014-07-19T09:48:05Z</time>
      </trkpt>
      <trkpt lat="45.767267346382141" lon="6.845500823110342">
        <ele>2029.48</ele>
        <time>2014-07-19T09:48:08Z</time>
      </trkpt>
      <trkpt lat="45.767375053837895" lon="6.845712885260582">
        <ele>2026.5999999999999</ele>
        <time>2014-07-19T09:48:24Z</time>
      </trkpt>
      <trkpt lat="45.767506901174784" lon="6.845835512503982">
        <ele>2024.6700000000001</ele>
        <time>2014-07-19T09:48:37Z</time>
      </trkpt>
      <trkpt lat="45.767727009952068" lon="6.845961241051555">
        <ele>2021.3099999999999</ele>
        <time>2014-07-19T09:48:56Z</time>
      </trkpt>
      <trkpt lat="45.767803536728024" lon="6.846198532730341">
        <ele>2019.3900000000001</ele>
        <time>2014-07-19T09:49:11Z</time>
      </trkpt>
      <trkpt lat="45.767866987735033" lon="6.846435153856874">
        <ele>2016.98</ele>
        <time>2014-07-19T09:49:26Z</time>
      </trkpt>
      <trkpt lat="45.76795575208962" lon="6.846594912931323">
        <ele>2015.0599999999999</ele>
        <time>2014-07-19T09:49:40Z</time>
      </trkpt>
      <trkpt lat="45.768110146746039" lon="6.8467325437814">
        <ele>2013.1400000000001</ele>
        <time>2014-07-19T09:49:54Z</time>
      </trkpt>
      <trkpt lat="45.768280383199453" lon="6.846918622031808">
        <ele>2010.25</ele>
        <time>2014-07-19T09:50:11Z</time>
      </trkpt>
      <trkpt lat="45.768399657681584" lon="6.847078884020448">
        <ele>2008.3299999999999</ele>
        <time>2014-07-19T09:50:25Z</time>
      </trkpt>
      <trkpt lat="45.76843754388392" lon="6.847154572606087">
        <ele>2007.3699999999999</ele>
        <time>2014-07-19T09:50:30Z</time>
      </trkpt>
      <trkpt lat="45.768448440358043" lon="6.847228165715933">
        <ele>2006.8900000000001</ele>
        <time>2014-07-19T09:50:34Z</time>
      </trkpt>
      <trkpt lat="45.768478782847524" lon="6.84748456813395">
        <ele>2004.49</ele>
        <time>2014-07-19T09:50:49Z</time>
      </trkpt>
      <trkpt lat="45.768484063446522" lon="6.847649943083525">
        <ele>2003.04</ele>
        <time>2014-07-19T09:50:58Z</time>
      </trkpt>
      <trkpt lat="45.768442740663886" lon="6.847992930561304">
        <ele>1999.6800000000001</ele>
        <time>2014-07-19T09:51:17Z</time>
      </trkpt>
      <trkpt lat="45.76844684779644" lon="6.848285626620054">
        <ele>1997.76</ele>
        <time>2014-07-19T09:51:33Z</time>
      </trkpt>
      <trkpt lat="45.768506694585085" lon="6.848549908027053">
        <ele>1996.8</ele>
        <time>2014-07-19T09:51:49Z</time>
      </trkpt>
      <trkpt lat="45.768570061773062" lon="6.848845621570945">
        <ele>1995.8299999999999</ele>
        <time>2014-07-19T09:52:06Z</time>
      </trkpt>
      <trkpt lat="45.768650025129318" lon="6.849045194685459">
        <ele>1994.8699999999999</ele>
        <time>2014-07-19T09:52:18Z</time>
      </trkpt>
      <trkpt lat="45.768734682351351" lon="6.84940779581666">
        <ele>1992.95</ele>
        <time>2014-07-19T09:52:39Z</time>
      </trkpt>
      <trkpt lat="45.768820429220796" lon="6.849700240418315">
        <ele>1992.47</ele>
        <time>2014-07-19T09:52:57Z</time>
      </trkpt>
      <trkpt lat="45.768898380920291" lon="6.849976424127817">
        <ele>1991.51</ele>
        <time>2014-07-19T09:53:13Z</time>
      </trkpt>
      <trkpt lat="45.768974823877215" lon="6.85026191174984">
        <ele>1991.03</ele>
        <time>2014-07-19T09:53:30Z</time>
      </trkpt>
      <trkpt lat="45.769062079489231" lon="6.850578747689724">
        <ele>1990.0699999999999</ele>
        <time>2014-07-19T09:53:48Z</time>
      </trkpt>
      <trkpt lat="45.769139947369695" lon="6.850856607779861">
        <ele>1988.6199999999999</ele>
        <time>2014-07-19T09:54:05Z</time>
      </trkpt>
      <trkpt lat="45.769233908504248" lon="6.851167995482683">
        <ele>1988.1400000000001</ele>
        <time>2014-07-19T09:54:23Z</time>
      </trkpt>
      <trkpt lat="45.769300376996398" lon="6.851445352658629">
        <ele>1986.7</ele>
        <time>2014-07-19T09:54:40Z</time>
      </trkpt>
      <trkpt lat="45.769384950399399" lon="6.851722709834576">
        <ele>1986.22</ele>
        <time>2014-07-19T09:54:57Z</time>
      </trkpt>
      <trkpt lat="45.769464494660497" lon="6.852027978748083">
        <ele>1985.74</ele>
        <time>2014-07-19T09:55:16Z</time>
      </trkpt>
      <trkpt lat="45.769544960930943" lon="6.852286895737052">
        <ele>1985.26</ele>
        <time>2014-07-19T09:55:31Z</time>
      </trkpt>
      <trkpt lat="45.769632132723927" lon="6.85258193872869">
        <ele>1984.3</ele>
        <time>2014-07-19T09:55:49Z</time>
      </trkpt>
      <trkpt lat="45.769714778289199" lon="6.852893410250545">
        <ele>1983.3399999999999</ele>
        <time>2014-07-19T09:56:07Z</time>
      </trkpt>
      <trkpt lat="45.769802452996373" lon="6.853182166814804">
        <ele>1982.8599999999999</ele>
        <time>2014-07-19T09:56:24Z</time>
      </trkpt>
      <trkpt lat="45.769878728315234" lon="6.853472767397761">
        <ele>1982.3800000000001</ele>
        <time>2014-07-19T09:56:41Z</time>
      </trkpt>
      <trkpt lat="45.769974114373326" lon="6.85379228554666">
        <ele>1981.9000000000001</ele>
        <time>2014-07-19T09:57:00Z</time>
      </trkpt>
      <trkpt lat="45.770067069679499" lon="6.854089591652155">
        <ele>1980.9300000000001</ele>
        <time>2014-07-19T09:57:18Z</time>
      </trkpt>
      <trkpt lat="45.770150050520897" lon="6.854414641857147">
        <ele>1980.45</ele>
        <time>2014-07-19T09:57:38Z</time>
      </trkpt>
      <trkpt lat="45.770217524841428" lon="6.854676743969321">
        <ele>1979.49</ele>
        <time>2014-07-19T09:57:54Z</time>
      </trkpt>
      <trkpt lat="45.770301930606365" lon="6.854985868558288">
        <ele>1979.01</ele>
        <time>2014-07-19T09:58:12Z</time>
      </trkpt>
      <trkpt lat="45.770338140428066" lon="6.855117464438081">
        <ele>1979.01</ele>
        <time>2014-07-19T09:58:20Z</time>
      </trkpt>
      <trkpt lat="45.770424054935575" lon="6.85537051409483">
        <ele>1979.01</ele>
        <time>2014-07-19T09:58:37Z</time>
      </trkpt>
      <trkpt lat="45.77051617205143" lon="6.855661617591977">
        <ele>1978.53</ele>
        <time>2014-07-19T09:58:55Z</time>
      </trkpt>
      <trkpt lat="45.770602002739906" lon="6.855944003909826">
        <ele>1977.5699999999999</ele>
        <time>2014-07-19T09:59:12Z</time>
      </trkpt>
      <trkpt lat="45.770677020773292" lon="6.856254134327173">
        <ele>1977.0899999999999</ele>
        <time>2014-07-19T09:59:29Z</time>
      </trkpt>
      <trkpt lat="45.770745081827044" lon="6.856535095721483">
        <ele>1977.0899999999999</ele>
        <time>2014-07-19T09:59:44Z</time>
      </trkpt>
      <trkpt lat="45.770832588896155" lon="6.856816224753857">
        <ele>1976.1300000000001</ele>
        <time>2014-07-19T10:00:01Z</time>
      </trkpt>
      <trkpt lat="45.770897967740893" lon="6.857072124257684">
        <ele>1976.1300000000001</ele>
        <time>2014-07-19T10:00:16Z</time>
      </trkpt>
      <trkpt lat="45.770970890298486" lon="6.85732358135283">
        <ele>1976.1300000000001</ele>
        <time>2014-07-19T10:00:31Z</time>
      </trkpt>
      <trkpt lat="45.771020175889134" lon="6.857527680695057">
        <ele>1975.6500000000001</ele>
        <time>2014-07-19T10:00:44Z</time>
      </trkpt>
      <trkpt lat="45.77102730050683" lon="6.85755517333746">
        <ele>1975.6500000000001</ele>
        <time>2014-07-19T10:00:46Z</time>
      </trkpt>
      <trkpt lat="45.771115394309163" lon="6.85778584331274">
        <ele>1975.6500000000001</ele>
        <time>2014-07-19T10:01:01Z</time>
      </trkpt>
      <trkpt lat="45.77118412591517" lon="6.857947278767824">
        <ele>1975.1700000000001</ele>
        <time>2014-07-19T10:01:12Z</time>
      </trkpt>
      <trkpt lat="45.771258641034365" lon="6.858179541304708">
        <ele>1975.1700000000001</ele>
        <time>2014-07-19T10:01:26Z</time>
      </trkpt>
      <trkpt lat="45.771336508914828" lon="6.858365284278989">
        <ele>1975.1700000000001</ele>
        <time>2014-07-19T10:01:39Z</time>
      </trkpt>
      <trkpt lat="45.771402977406979" lon="6.858556643128395">
        <ele>1975.1700000000001</ele>
        <time>2014-07-19T10:01:51Z</time>
      </trkpt>
      <trkpt lat="45.771500542759895" lon="6.858779937028885">
        <ele>1975.1700000000001</ele>
        <time>2014-07-19T10:02:06Z</time>
      </trkpt>
      <trkpt lat="45.771580673754215" lon="6.859000632539392">
        <ele>1974.6900000000001</ele>
        <time>2014-07-19T10:02:20Z</time>
      </trkpt>
      <trkpt lat="45.771688716486096" lon="6.859282096847892">
        <ele>1974.6900000000001</ele>
        <time>2014-07-19T10:02:38Z</time>
      </trkpt>
      <trkpt lat="45.771811176091433" lon="6.859555430710316">
        <ele>1974.2</ele>
        <time>2014-07-19T10:02:56Z</time>
      </trkpt>
      <trkpt lat="45.771913267672062" lon="6.859805295243859">
        <ele>1973.72</ele>
        <time>2014-07-19T10:03:13Z</time>
      </trkpt>
      <trkpt lat="45.772019885480404" lon="6.860071755945683">
        <ele>1973.72</ele>
        <time>2014-07-19T10:03:30Z</time>
      </trkpt>
      <trkpt lat="45.772126084193587" lon="6.86032329685986">
        <ele>1972.76</ele>
        <time>2014-07-19T10:03:47Z</time>
      </trkpt>
      <trkpt lat="45.772116277366877" lon="6.86032522469759">
        <ele>1972.76</ele>
        <time>2014-07-19T10:03:58Z</time>
      </trkpt>
      <trkpt lat="45.772128347307444" lon="6.860364954918623">
        <ele>1974.2</ele>
        <time>2014-07-19T10:04:16Z</time>
      </trkpt>
      <trkpt lat="45.77212817966938" lon="6.860401080921292">
        <ele>1972.76</ele>
        <time>2014-07-19T10:04:29Z</time>
      </trkpt>
      <trkpt lat="45.772153157740831" lon="6.860443660989404">
        <ele>1972.76</ele>
        <time>2014-07-19T10:04:33Z</time>
      </trkpt>
      <trkpt lat="45.772275365889072" lon="6.860665697604418">
        <ele>1972.28</ele>
        <time>2014-07-19T10:04:51Z</time>
      </trkpt>
      <trkpt lat="45.772397741675377" lon="6.860854458063841">
        <ele>1972.28</ele>
        <time>2014-07-19T10:05:07Z</time>
      </trkpt>
      <trkpt lat="45.772488517686725" lon="6.861072136089206">
        <ele>1972.28</ele>
        <time>2014-07-19T10:05:22Z</time>
      </trkpt>
      <trkpt lat="45.772530930116773" lon="6.861331639811397">
        <ele>1971.8</ele>
        <time>2014-07-19T10:05:37Z</time>
      </trkpt>
      <trkpt lat="45.77256646938622" lon="6.861589634791017">
        <ele>1971.8</ele>
        <time>2014-07-19T10:05:53Z</time>
      </trkpt>
      <trkpt lat="45.772568648681045" lon="6.861732378602028">
        <ele>1971.3199999999999</ele>
        <time>2014-07-19T10:06:01Z</time>
      </trkpt>
      <trkpt lat="45.772568313404918" lon="6.861797338351607">
        <ele>1971.3199999999999</ele>
        <time>2014-07-19T10:06:05Z</time>
      </trkpt>
      <trkpt lat="45.772547191008925" lon="6.862083747982979">
        <ele>1970.8399999999999</ele>
        <time>2014-07-19T10:06:22Z</time>
      </trkpt>
      <trkpt lat="45.772544676437974" lon="6.862375605851412">
        <ele>1970.8399999999999</ele>
        <time>2014-07-19T10:06:39Z</time>
      </trkpt>
      <trkpt lat="45.772533444687724" lon="6.862540477886796">
        <ele>1970.3599999999999</ele>
        <time>2014-07-19T10:06:49Z</time>
      </trkpt>
      <trkpt lat="45.772527325898409" lon="6.862803250551224">
        <ele>1969.8800000000001</ele>
        <time>2014-07-19T10:07:06Z</time>
      </trkpt>
      <trkpt lat="45.772520871832967" lon="6.862892098724842">
        <ele>1969.4000000000001</ele>
        <time>2014-07-19T10:07:15Z</time>
      </trkpt>
      <trkpt lat="45.772566134110093" lon="6.863142717629671">
        <ele>1969.8800000000001</ele>
        <time>2014-07-19T10:07:32Z</time>
      </trkpt>
      <trkpt lat="45.772641655057669" lon="6.863347068428993">
        <ele>1969.4000000000001</ele>
        <time>2014-07-19T10:07:47Z</time>
      </trkpt>
      <trkpt lat="45.772732263430953" lon="6.863580839708448">
        <ele>1969.8800000000001</ele>
        <time>2014-07-19T10:08:03Z</time>
      </trkpt>
      <trkpt lat="45.772811472415924" lon="6.863883677870035">
        <ele>1969.4000000000001</ele>
        <time>2014-07-19T10:08:22Z</time>
      </trkpt>
      <trkpt lat="45.772888166829944" lon="6.864162124693394">
        <ele>1969.4000000000001</ele>
        <time>2014-07-19T10:08:39Z</time>
      </trkpt>
      <trkpt lat="45.773004926741123" lon="6.864397572353482">
        <ele>1968.9200000000001</ele>
        <time>2014-07-19T10:08:56Z</time>
      </trkpt>
      <trkpt lat="45.773146999999881" lon="6.864557834342122">
        <ele>1968.4400000000001</ele>
        <time>2014-07-19T10:09:12Z</time>
      </trkpt>
      <trkpt lat="45.773266861215234" lon="6.864605024456978">
        <ele>1967.96</ele>
        <time>2014-07-19T10:09:27Z</time>
      </trkpt>
      <trkpt lat="45.773282870650291" lon="6.864632265642285">
        <ele>1968.4400000000001</ele>
        <time>2014-07-19T10:09:38Z</time>
      </trkpt>
      <trkpt lat="45.773371467366815" lon="6.864657998085022">
        <ele>1968.4400000000001</ele>
        <time>2014-07-19T10:09:45Z</time>
      </trkpt>
      <trkpt lat="45.773564418777823" lon="6.864752294495702">
        <ele>1968.4400000000001</ele>
        <time>2014-07-19T10:10:03Z</time>
      </trkpt>
      <trkpt lat="45.77370741404593" lon="6.864910880103707">
        <ele>1967.96</ele>
        <time>2014-07-19T10:10:17Z</time>
      </trkpt>
      <trkpt lat="45.773788634687662" lon="6.865015989169478">
        <ele>1968.4400000000001</ele>
        <time>2014-07-19T10:10:26Z</time>
      </trkpt>
      <trkpt lat="45.773852504789829" lon="6.865187399089336">
        <ele>1967.96</ele>
        <time>2014-07-19T10:10:37Z</time>
      </trkpt>
      <trkpt lat="45.773871447890997" lon="6.865308182314038">
        <ele>1967.96</ele>
        <time>2014-07-19T10:10:44Z</time>
      </trkpt>
      <trkpt lat="45.773893240839243" lon="6.865368112921715">
        <ele>1967.48</ele>
        <time>2014-07-19T10:10:48Z</time>
      </trkpt>
      <trkpt lat="45.773912267759442" lon="6.865669945254922">
        <ele>1966.99</ele>
        <time>2014-07-19T10:11:05Z</time>
      </trkpt>
      <trkpt lat="45.773904724046588" lon="6.865734905004501">
        <ele>1966.99</ele>
        <time>2014-07-19T10:11:09Z</time>
      </trkpt>
      <trkpt lat="45.773896342143416" lon="6.866027768701315">
        <ele>1967.48</ele>
        <time>2014-07-19T10:11:26Z</time>
      </trkpt>
      <trkpt lat="45.773902796208858" lon="6.866114940494299">
        <ele>1967.48</ele>
        <time>2014-07-19T10:11:31Z</time>
      </trkpt>
      <trkpt lat="45.773894414305687" lon="6.866165231913328">
        <ele>1967.48</ele>
        <time>2014-07-19T10:11:34Z</time>
      </trkpt>
      <trkpt lat="45.773875890299678" lon="6.866209739819169">
        <ele>1968.4400000000001</ele>
        <time>2014-07-19T10:11:37Z</time>
      </trkpt>
      <trkpt lat="45.77385451644659" lon="6.866234550252557">
        <ele>1967.96</ele>
        <time>2014-07-19T10:11:52Z</time>
      </trkpt>
      <trkpt lat="45.773834567517042" lon="6.866270508617163">
        <ele>1967.96</ele>
        <time>2014-07-19T10:12:14Z</time>
      </trkpt>
      <trkpt lat="45.773883098736405" lon="6.866346532478929">
        <ele>1968.9200000000001</ele>
        <time>2014-07-19T10:12:23Z</time>
      </trkpt>
      <trkpt lat="45.773911513388157" lon="6.866352399811149">
        <ele>1968.9200000000001</ele>
        <time>2014-07-19T10:12:41Z</time>
      </trkpt>
      <trkpt lat="45.773906316608191" lon="6.86637980863452">
        <ele>1968.9200000000001</ele>
        <time>2014-07-19T10:12:43Z</time>
      </trkpt>
      <trkpt lat="45.773996841162443" lon="6.866623302921653">
        <ele>1970.3599999999999</ele>
        <time>2014-07-19T10:13:01Z</time>
      </trkpt>
      <trkpt lat="45.774092227220535" lon="6.866885740309954">
        <ele>1970.8399999999999</ele>
        <time>2014-07-19T10:13:18Z</time>
      </trkpt>
      <trkpt lat="45.774124162271619" lon="6.866935947909951">
        <ele>1970.3599999999999</ele>
        <time>2014-07-19T10:13:22Z</time>
      </trkpt>
      <trkpt lat="45.774229522794485" lon="6.867178520187736">
        <ele>1970.8399999999999</ele>
        <time>2014-07-19T10:13:40Z</time>
      </trkpt>
      <trkpt lat="45.774348629638553" lon="6.867357222363353">
        <ele>1970.8399999999999</ele>
        <time>2014-07-19T10:13:55Z</time>
      </trkpt>
      <trkpt lat="45.774458013474941" lon="6.867503738030791">
        <ele>1970.8399999999999</ele>
        <time>2014-07-19T10:14:08Z</time>
      </trkpt>
      <trkpt lat="45.774560859426856" lon="6.86773675493896">
        <ele>1970.8399999999999</ele>
        <time>2014-07-19T10:14:25Z</time>
      </trkpt>
      <trkpt lat="45.774570917710662" lon="6.867766175419092">
        <ele>1970.8399999999999</ele>
        <time>2014-07-19T10:14:27Z</time>
      </trkpt>
      <trkpt lat="45.774601763114333" lon="6.867841109633446">
        <ele>1970.8399999999999</ele>
        <time>2014-07-19T10:14:32Z</time>
      </trkpt>
      <trkpt lat="45.774730257689953" lon="6.868086280301213">
        <ele>1970.3599999999999</ele>
        <time>2014-07-19T10:14:49Z</time>
      </trkpt>
      <trkpt lat="45.7748366240412" lon="6.868330193683505">
        <ele>1970.3599999999999</ele>
        <time>2014-07-19T10:15:06Z</time>
      </trkpt>
      <trkpt lat="45.774890184402466" lon="6.868391884490848">
        <ele>1970.3599999999999</ele>
        <time>2014-07-19T10:15:13Z</time>
      </trkpt>
      <trkpt lat="45.775001998990774" lon="6.868635462597013">
        <ele>1970.3599999999999</ele>
        <time>2014-07-19T10:15:31Z</time>
      </trkpt>
      <trkpt lat="45.775011889636517" lon="6.868650130927563">
        <ele>1970.3599999999999</ele>
        <time>2014-07-19T10:15:32Z</time>
      </trkpt>
      <trkpt lat="45.77502672560513" lon="6.868675863370299">
        <ele>1969.8800000000001</ele>
        <time>2014-07-19T10:15:44Z</time>
      </trkpt>
      <trkpt lat="45.775096630677581" lon="6.868984401226044">
        <ele>1970.3599999999999</ele>
        <time>2014-07-19T10:16:02Z</time>
      </trkpt>
      <trkpt lat="45.775098726153374" lon="6.868996303528547">
        <ele>1970.3599999999999</ele>
        <time>2014-07-19T10:16:07Z</time>
      </trkpt>
      <trkpt lat="45.775200314819813" lon="6.869275085628033">
        <ele>1970.3599999999999</ele>
        <time>2014-07-19T10:16:25Z</time>
      </trkpt>
      <trkpt lat="45.775220599025488" lon="6.869365274906158">
        <ele>1970.3599999999999</ele>
        <time>2014-07-19T10:16:31Z</time>
      </trkpt>
      <trkpt lat="45.775278517976403" lon="6.869477508589625">
        <ele>1970.3599999999999</ele>
        <time>2014-07-19T10:16:44Z</time>
      </trkpt>
      <trkpt lat="45.775313219055533" lon="6.869627628475428">
        <ele>1970.3599999999999</ele>
        <time>2014-07-19T10:16:59Z</time>
      </trkpt>
      <trkpt lat="45.775356385856867" lon="6.869693342596293">
        <ele>1970.3599999999999</ele>
        <time>2014-07-19T10:17:14Z</time>
      </trkpt>
      <trkpt lat="45.77535311691463" lon="6.869697785004973">
        <ele>1970.3599999999999</ele>
        <time>2014-07-19T10:17:30Z</time>
      </trkpt>
      <trkpt lat="45.775420507416129" lon="6.869923006743193">
        <ele>1970.8399999999999</ele>
        <time>2014-07-19T10:17:45Z</time>
      </trkpt>
      <trkpt lat="45.775432074442506" lon="6.869987798854709">
        <ele>1970.8399999999999</ele>
        <time>2014-07-19T10:18:01Z</time>
      </trkpt>
      <trkpt lat="45.775487143546343" lon="6.870149150490761">
        <ele>1970.8399999999999</ele>
        <time>2014-07-19T10:18:20Z</time>
      </trkpt>
      <trkpt lat="45.775529891252518" lon="6.870261300355196">
        <ele>1970.8399999999999</ele>
        <time>2014-07-19T10:18:34Z</time>
      </trkpt>
      <trkpt lat="45.775586804375052" lon="6.870439499616623">
        <ele>1970.8399999999999</ele>
        <time>2014-07-19T10:18:47Z</time>
      </trkpt>
      <trkpt lat="45.775691661983728" lon="6.870693806558847">
        <ele>1970.8399999999999</ele>
        <time>2014-07-19T10:19:04Z</time>
      </trkpt>
      <trkpt lat="45.775802386924624" lon="6.870984490960836">
        <ele>1970.3599999999999</ele>
        <time>2014-07-19T10:19:23Z</time>
      </trkpt>
      <trkpt lat="45.775834741070867" lon="6.871088929474354">
        <ele>1969.8800000000001</ele>
        <time>2014-07-19T10:19:30Z</time>
      </trkpt>
      <trkpt lat="45.775916967540979" lon="6.871192362159491">
        <ele>1969.4000000000001</ele>
        <time>2014-07-19T10:19:39Z</time>
      </trkpt>
      <trkpt lat="45.776070272549987" lon="6.871172832325101">
        <ele>1968.4400000000001</ele>
        <time>2014-07-19T10:19:53Z</time>
      </trkpt>
      <trkpt lat="45.776075972244143" lon="6.871138550341129">
        <ele>1967.96</ele>
        <time>2014-07-19T10:20:10Z</time>
      </trkpt>
      <trkpt lat="45.77607773244381" lon="6.871137795969844">
        <ele>1967.96</ele>
        <time>2014-07-19T10:20:47Z</time>
      </trkpt>
      <trkpt lat="45.776139926165342" lon="6.871162354946137">
        <ele>1967.96</ele>
        <time>2014-07-19T10:20:58Z</time>
      </trkpt>
      <trkpt lat="45.776254003867507" lon="6.871150452643633">
        <ele>1967.96</ele>
        <time>2014-07-19T10:21:13Z</time>
      </trkpt>
      <trkpt lat="45.77625559642911" lon="6.871126815676689">
        <ele>1968.4400000000001</ele>
        <time>2014-07-19T10:21:42Z</time>
      </trkpt>
      <trkpt lat="45.776257440447807" lon="6.871088929474354">
        <ele>1968.4400000000001</ele>
        <time>2014-07-19T10:21:59Z</time>
      </trkpt>
      <trkpt lat="45.776256769895554" lon="6.871113907545805">
        <ele>1968.4400000000001</ele>
        <time>2014-07-19T10:22:20Z</time>
      </trkpt>
      <trkpt lat="45.776274539530277" lon="6.871113823726773">
        <ele>1967.96</ele>
        <time>2014-07-19T10:22:30Z</time>
      </trkpt>
      <trkpt lat="45.776255512610078" lon="6.871103346347809">
        <ele>1966.99</ele>
        <time>2014-07-19T10:22:41Z</time>
      </trkpt>
      <trkpt lat="45.776252998039126" lon="6.871118266135454">
        <ele>1966.99</ele>
        <time>2014-07-19T10:23:16Z</time>
      </trkpt>
      <trkpt lat="45.776229863986373" lon="6.871158415451646">
        <ele>1967.48</ele>
        <time>2014-07-19T10:23:53Z</time>
      </trkpt>
      <trkpt lat="45.776213770732284" lon="6.871121786534786">
        <ele>1968.4400000000001</ele>
        <time>2014-07-19T10:24:28Z</time>
      </trkpt>
      <trkpt lat="45.77623606659472" lon="6.871104268357158">
        <ele>1967.48</ele>
        <time>2014-07-19T10:24:56Z</time>
      </trkpt>
      <trkpt lat="45.776211339980364" lon="6.871103011071682">
        <ele>1967.48</ele>
        <time>2014-07-19T10:25:34Z</time>
      </trkpt>
      <trkpt lat="45.776185607537627" lon="6.871099155396223">
        <ele>1967.48</ele>
        <time>2014-07-19T10:26:05Z</time>
      </trkpt>
      <trkpt lat="45.776188876479864" lon="6.87109705992043">
        <ele>1967.48</ele>
        <time>2014-07-19T10:26:32Z</time>
      </trkpt>
      <trkpt lat="45.776174291968346" lon="6.871064454317093">
        <ele>1967.48</ele>
        <time>2014-07-19T10:27:08Z</time>
      </trkpt>
      <trkpt lat="45.776190469041467" lon="6.871104100719094">
        <ele>1967.48</ele>
        <time>2014-07-19T10:27:44Z</time>
      </trkpt>
      <trkpt lat="45.776177477091551" lon="6.871096892282367">
        <ele>1966.99</ele>
        <time>2014-07-19T10:28:15Z</time>
      </trkpt>
      <trkpt lat="45.776187451556325" lon="6.871104435995221">
        <ele>1966.99</ele>
        <time>2014-07-19T10:28:52Z</time>
      </trkpt>
      <trkpt lat="45.776170352473855" lon="6.871072417125106">
        <ele>1966.99</ele>
        <time>2014-07-19T10:29:25Z</time>
      </trkpt>
      <trkpt lat="45.776171861216426" lon="6.871080128476024">
        <ele>1967.48</ele>
        <time>2014-07-19T10:30:01Z</time>
      </trkpt>
      <trkpt lat="45.776183260604739" lon="6.871107872575522">
        <ele>1967.48</ele>
        <time>2014-07-19T10:30:36Z</time>
      </trkpt>
      <trkpt lat="45.776196420192719" lon="6.871069399639964">
        <ele>1967.48</ele>
        <time>2014-07-19T10:30:54Z</time>
      </trkpt>
      <trkpt lat="45.776190552860498" lon="6.871082810685039">
        <ele>1967.96</ele>
        <time>2014-07-19T10:31:16Z</time>
      </trkpt>
      <trkpt lat="45.776188541203737" lon="6.871084906160832">
        <ele>1967.48</ele>
        <time>2014-07-19T10:31:35Z</time>
      </trkpt>
      <trkpt lat="45.776196755468845" lon="6.871062023565173">
        <ele>1967.48</ele>
        <time>2014-07-19T10:32:01Z</time>
      </trkpt>
      <trkpt lat="45.776218548417091" lon="6.871098568663001">
        <ele>1967.96</ele>
        <time>2014-07-19T10:32:16Z</time>
      </trkpt>
      <trkpt lat="45.77619013376534" lon="6.871073674410582">
        <ele>1967.48</ele>
        <time>2014-07-19T10:32:37Z</time>
      </trkpt>
      <trkpt lat="45.776206646114588" lon="6.87107652425766">
        <ele>1966.99</ele>
        <time>2014-07-19T10:32:56Z</time>
      </trkpt>
      <trkpt lat="45.776195665821433" lon="6.871092449873686">
        <ele>1966.99</ele>
        <time>2014-07-19T10:33:17Z</time>
      </trkpt>
      <trkpt lat="45.776235647499561" lon="6.871092533692718">
        <ele>1966.99</ele>
        <time>2014-07-19T10:33:37Z</time>
      </trkpt>
      <trkpt lat="45.776241095736623" lon="6.871104100719094">
        <ele>1967.48</ele>
        <time>2014-07-19T10:34:00Z</time>
      </trkpt>
      <trkpt lat="45.776258194819093" lon="6.871118601411581">
        <ele>1967.48</ele>
        <time>2014-07-19T10:34:16Z</time>
      </trkpt>
      <trkpt lat="45.776262888684869" lon="6.871116757392883">
        <ele>1967.48</ele>
        <time>2014-07-19T10:34:39Z</time>
      </trkpt>
      <trkpt lat="45.776284346356988" lon="6.871075434610248">
        <ele>1967.48</ele>
        <time>2014-07-19T10:34:52Z</time>
      </trkpt>
      <trkpt lat="45.776297086849809" lon="6.871049785986543">
        <ele>1967.48</ele>
        <time>2014-07-19T10:34:54Z</time>
      </trkpt>
      <trkpt lat="45.776288453489542" lon="6.870821211487055">
        <ele>1966.99</ele>
        <time>2014-07-19T10:35:09Z</time>
      </trkpt>
      <trkpt lat="45.776271857321262" lon="6.870642509311438">
        <ele>1967.48</ele>
        <time>2014-07-19T10:35:20Z</time>
      </trkpt>
      <trkpt lat="45.77627076767385" lon="6.870605545118451">
        <ele>1967.48</ele>
        <time>2014-07-19T10:35:22Z</time>
      </trkpt>
      <trkpt lat="45.776270180940628" lon="6.87044863589108">
        <ele>1967.48</ele>
        <time>2014-07-19T10:35:31Z</time>
      </trkpt>
      <trkpt lat="45.776284262537956" lon="6.870168764144182">
        <ele>1966.99</ele>
        <time>2014-07-19T10:35:47Z</time>
      </trkpt>
      <trkpt lat="45.776302618905902" lon="6.870045382529497">
        <ele>1967.48</ele>
        <time>2014-07-19T10:35:55Z</time>
      </trkpt>
      <trkpt lat="45.776329273357987" lon="6.869817394763231">
        <ele>1968.4400000000001</ele>
        <time>2014-07-19T10:36:09Z</time>
      </trkpt>
      <trkpt lat="45.776329943910241" lon="6.869772216305137">
        <ele>1968.9200000000001</ele>
        <time>2014-07-19T10:36:12Z</time>
      </trkpt>
      <trkpt lat="45.77631963416934" lon="6.869618659839034">
        <ele>1971.8</ele>
        <time>2014-07-19T10:36:26Z</time>
      </trkpt>
      <trkpt lat="45.776283172890544" lon="6.869549676775932">
        <ele>1975.1700000000001</ele>
        <time>2014-07-19T10:36:35Z</time>
      </trkpt>
      <trkpt lat="45.776198264211416" lon="6.869447836652398">
        <ele>1977.0899999999999</ele>
        <time>2014-07-19T10:36:50Z</time>
      </trkpt>
      <trkpt lat="45.776145709678531" lon="6.86936535872519">
        <ele>1979.49</ele>
        <time>2014-07-19T10:37:03Z</time>
      </trkpt>
      <trkpt lat="45.776259955018759" lon="6.869345745071769">
        <ele>1982.8599999999999</ele>
        <time>2014-07-19T10:37:18Z</time>
      </trkpt>
      <trkpt lat="45.776339247822762" lon="6.869289502501488">
        <ele>1985.26</ele>
        <time>2014-07-19T10:37:32Z</time>
      </trkpt>
      <trkpt lat="45.77636606991291" lon="6.869242899119854">
        <ele>1984.78</ele>
        <time>2014-07-19T10:37:38Z</time>
      </trkpt>
      <trkpt lat="45.776397502049804" lon="6.869148267433047">
        <ele>1983.3399999999999</ele>
        <time>2014-07-19T10:37:46Z</time>
      </trkpt>
      <trkpt lat="45.776392975822091" lon="6.869009463116527">
        <ele>1981.4100000000001</ele>
        <time>2014-07-19T10:37:54Z</time>
      </trkpt>
      <trkpt lat="45.776360956951976" lon="6.868939306586981">
        <ele>1979.49</ele>
        <time>2014-07-19T10:37:59Z</time>
      </trkpt>
      <trkpt lat="45.776289962232113" lon="6.868848027661443">
        <ele>1979.49</ele>
        <time>2014-07-19T10:38:07Z</time>
      </trkpt>
      <trkpt lat="45.776305636391044" lon="6.868813661858439">
        <ele>1979.97</ele>
        <time>2014-07-19T10:38:10Z</time>
      </trkpt>
      <trkpt lat="45.776448883116245" lon="6.868654070422053">
        <ele>1978.05</ele>
        <time>2014-07-19T10:38:25Z</time>
      </trkpt>
      <trkpt lat="45.776459444314241" lon="6.868641832843423">
        <ele>1978.05</ele>
        <time>2014-07-19T10:38:26Z</time>
      </trkpt>
      <trkpt lat="45.776480315253139" lon="6.868618950247765">
        <ele>1978.05</ele>
        <time>2014-07-19T10:38:28Z</time>
      </trkpt>
      <trkpt lat="45.776595147326589" lon="6.86845893971622">
        <ele>1979.97</ele>
        <time>2014-07-19T10:38:43Z</time>
      </trkpt>
      <trkpt lat="45.776600427925587" lon="6.868459023535252">
        <ele>1980.45</ele>
        <time>2014-07-19T10:38:44Z</time>
      </trkpt>
      <trkpt lat="45.776695478707552" lon="6.868400601670146">
        <ele>1982.8599999999999</ele>
        <time>2014-07-19T10:38:58Z</time>
      </trkpt>
      <trkpt lat="45.776755409315228" lon="6.868324745446444">
        <ele>1986.22</ele>
        <time>2014-07-19T10:39:12Z</time>
      </trkpt>
      <trkpt lat="45.776807796210051" lon="6.868275459855795">
        <ele>1988.6199999999999</ele>
        <time>2014-07-19T10:39:25Z</time>
      </trkpt>
      <trkpt lat="45.776870995759964" lon="6.868253750726581">
        <ele>1991.99</ele>
        <time>2014-07-19T10:39:36Z</time>
      </trkpt>
      <trkpt lat="45.776940984651446" lon="6.86821904964745">
        <ele>1994.8699999999999</ele>
        <time>2014-07-19T10:39:49Z</time>
      </trkpt>
      <trkpt lat="45.776981385424733" lon="6.868139756843448">
        <ele>1996.8</ele>
        <time>2014-07-19T10:40:02Z</time>
      </trkpt>
      <trkpt lat="45.777059085667133" lon="6.868119053542614">
        <ele>1999.6800000000001</ele>
        <time>2014-07-19T10:40:14Z</time>
      </trkpt>
      <trkpt lat="45.777087332680821" lon="6.868121903389692">
        <ele>2001.1199999999999</ele>
        <time>2014-07-19T10:40:23Z</time>
      </trkpt>
      <trkpt lat="45.777094708755612" lon="6.868134895339608">
        <ele>2001.1199999999999</ele>
        <time>2014-07-19T10:40:25Z</time>
      </trkpt>
      <trkpt lat="45.777141312137246" lon="6.868202872574329">
        <ele>2002.5599999999999</ele>
        <time>2014-07-19T10:40:37Z</time>
      </trkpt>
      <trkpt lat="45.777142234146595" lon="6.868215529248118">
        <ele>2001.1199999999999</ele>
        <time>2014-07-19T10:40:46Z</time>
      </trkpt>
      <trkpt lat="45.777120944112539" lon="6.868270430713892">
        <ele>2002.0799999999999</ele>
        <time>2014-07-19T10:40:51Z</time>
      </trkpt>
      <trkpt lat="45.77711658552289" lon="6.86845893971622">
        <ele>2004.49</ele>
        <time>2014-07-19T10:41:05Z</time>
      </trkpt>
      <trkpt lat="45.777122871950269" lon="6.86856790445745">
        <ele>2007.3699999999999</ele>
        <time>2014-07-19T10:41:18Z</time>
      </trkpt>
      <trkpt lat="45.777143072336912" lon="6.868664966896176">
        <ele>2010.73</ele>
        <time>2014-07-19T10:41:31Z</time>
      </trkpt>
      <trkpt lat="45.777180371806026" lon="6.868802681565285">
        <ele>2013.1400000000001</ele>
        <time>2014-07-19T10:41:46Z</time>
      </trkpt>
      <trkpt lat="45.777204679325223" lon="6.868814080953598">
        <ele>2013.6199999999999</ele>
        <time>2014-07-19T10:41:50Z</time>
      </trkpt>
      <trkpt lat="45.777234602719545" lon="6.868896894156933">
        <ele>2016.98</ele>
        <time>2014-07-19T10:42:03Z</time>
      </trkpt>
      <trkpt lat="45.777261424809694" lon="6.868963027372956">
        <ele>2019.8699999999999</ele>
        <time>2014-07-19T10:42:16Z</time>
      </trkpt>
      <trkpt lat="45.777316829189658" lon="6.869039805606008">
        <ele>2022.75</ele>
        <time>2014-07-19T10:42:31Z</time>
      </trkpt>
      <trkpt lat="45.777333090081811" lon="6.869162265211344">
        <ele>2025.1500000000001</ele>
        <time>2014-07-19T10:42:45Z</time>
      </trkpt>
      <trkpt lat="45.777372233569622" lon="6.869278606027365">
        <ele>2028.04</ele>
        <time>2014-07-19T10:43:00Z</time>
      </trkpt>
      <trkpt lat="45.777410287410021" lon="6.869352785870433">
        <ele>2031.4000000000001</ele>
        <time>2014-07-19T10:43:13Z</time>
      </trkpt>
      <trkpt lat="45.777402995154262" lon="6.869359575212002">
        <ele>2031.4000000000001</ele>
        <time>2014-07-19T10:43:14Z</time>
      </trkpt>
      <trkpt lat="45.777437528595328" lon="6.869471641257405">
        <ele>2034.29</ele>
        <time>2014-07-19T10:43:29Z</time>
      </trkpt>
      <trkpt lat="45.777474828064442" lon="6.869551856070757">
        <ele>2037.6500000000001</ele>
        <time>2014-07-19T10:43:44Z</time>
      </trkpt>
      <trkpt lat="45.777510534971952" lon="6.86966392211616">
        <ele>2040.54</ele>
        <time>2014-07-19T10:43:59Z</time>
      </trkpt>
      <trkpt lat="45.777572393417358" lon="6.869678422808647">
        <ele>2041.98</ele>
        <time>2014-07-19T10:44:09Z</time>
      </trkpt>
      <trkpt lat="45.777640286833048" lon="6.869711698964238">
        <ele>2043.9000000000001</ele>
        <time>2014-07-19T10:44:25Z</time>
      </trkpt>
      <trkpt lat="45.777604831382632" lon="6.869740281254053">
        <ele>2043.9000000000001</ele>
        <time>2014-07-19T10:44:41Z</time>
      </trkpt>
      <trkpt lat="45.777626456692815" lon="6.869769282639027">
        <ele>2043.9000000000001</ele>
        <time>2014-07-19T10:45:03Z</time>
      </trkpt>
      <trkpt lat="45.777554204687476" lon="6.869805408641696">
        <ele>2041.5</ele>
        <time>2014-07-19T10:45:17Z</time>
      </trkpt>
      <trkpt lat="45.777552025392652" lon="6.869838433340192">
        <ele>2041.5</ele>
        <time>2014-07-19T10:45:34Z</time>
      </trkpt>
      <trkpt lat="45.777577254921198" lon="6.869864752516151">
        <ele>2041.5</ele>
        <time>2014-07-19T10:45:52Z</time>
      </trkpt>
      <trkpt lat="45.777580188587308" lon="6.869867853820324">
        <ele>2041.5</ele>
        <time>2014-07-19T10:46:11Z</time>
      </trkpt>
      <trkpt lat="45.777616901323199" lon="6.869889562949538">
        <ele>2041.5</ele>
        <time>2014-07-19T10:46:36Z</time>
      </trkpt>
      <trkpt lat="45.777597455307841" lon="6.86991898342967">
        <ele>2041.98</ele>
        <time>2014-07-19T10:47:02Z</time>
      </trkpt>
      <trkpt lat="45.777565855532885" lon="6.869889395311475">
        <ele>2041.98</ele>
        <time>2014-07-19T10:47:31Z</time>
      </trkpt>
      <trkpt lat="45.777565771713853" lon="6.869892328977585">
        <ele>2041.98</ele>
        <time>2014-07-19T10:47:54Z</time>
      </trkpt>
      <trkpt lat="45.777559401467443" lon="6.869861567392945">
        <ele>2041.98</ele>
        <time>2014-07-19T10:48:11Z</time>
      </trkpt>
      <trkpt lat="45.777540961280465" lon="6.869868692010641">
        <ele>2041.5</ele>
        <time>2014-07-19T10:48:29Z</time>
      </trkpt>
      <trkpt lat="45.777531238272786" lon="6.8698950111866">
        <ele>2041.5</ele>
        <time>2014-07-19T10:48:32Z</time>
      </trkpt>
      <trkpt lat="45.777541045099497" lon="6.869943458586931">
        <ele>2041.02</ele>
        <time>2014-07-19T10:48:46Z</time>
      </trkpt>
      <trkpt lat="45.777527214959264" lon="6.869940189644694">
        <ele>2041.02</ele>
        <time>2014-07-19T10:49:12Z</time>
      </trkpt>
      <trkpt lat="45.777549594640732" lon="6.869970113039017">
        <ele>2041.02</ele>
        <time>2014-07-19T10:49:43Z</time>
      </trkpt>
      <trkpt lat="45.77758613973856" lon="6.869957624003291">
        <ele>2041.02</ele>
        <time>2014-07-19T10:50:20Z</time>
      </trkpt>
      <trkpt lat="45.777582451701164" lon="6.869971621781588">
        <ele>2041.02</ele>
        <time>2014-07-19T10:50:45Z</time>
      </trkpt>
      <trkpt lat="45.77759494073689" lon="6.869999030604959">
        <ele>2041.02</ele>
        <time>2014-07-19T10:51:13Z</time>
      </trkpt>
      <trkpt lat="45.777554959058762" lon="6.870011352002621">
        <ele>2041.02</ele>
        <time>2014-07-19T10:51:45Z</time>
      </trkpt>
      <trkpt lat="45.777537859976292" lon="6.869976315647364">
        <ele>2041.02</ele>
        <time>2014-07-19T10:52:16Z</time>
      </trkpt>
      <trkpt lat="45.777558479458094" lon="6.869928454980254">
        <ele>2041.5</ele>
        <time>2014-07-19T10:52:47Z</time>
      </trkpt>
      <trkpt lat="45.777574488893151" lon="6.869951589033008">
        <ele>2041.5</ele>
        <time>2014-07-19T10:53:24Z</time>
      </trkpt>
      <trkpt lat="45.777577757835388" lon="6.869957624003291">
        <ele>2041.5</ele>
        <time>2014-07-19T10:53:55Z</time>
      </trkpt>
      <trkpt lat="45.777581948786974" lon="6.869980758056045">
        <ele>2041.5</ele>
        <time>2014-07-19T10:54:21Z</time>
      </trkpt>
      <trkpt lat="45.777546241879463" lon="6.870001126080751">
        <ele>2041.5</ele>
        <time>2014-07-19T10:54:47Z</time>
      </trkpt>
      <trkpt lat="45.777552109211683" lon="6.870027277618647">
        <ele>2041.5</ele>
        <time>2014-07-19T10:55:14Z</time>
      </trkpt>
      <trkpt lat="45.7775754109025" lon="6.869975896552205">
        <ele>2041.98</ele>
        <time>2014-07-19T10:55:41Z</time>
      </trkpt>
      <trkpt lat="45.777538446709514" lon="6.869937926530838">
        <ele>2041.98</ele>
        <time>2014-07-19T10:56:06Z</time>
      </trkpt>
      <trkpt lat="45.7775460742414" lon="6.869968520477414">
        <ele>2040.54</ele>
        <time>2014-07-19T10:56:18Z</time>
      </trkpt>
      <trkpt lat="45.777490083128214" lon="6.869914289563894">
        <ele>2041.5</ele>
        <time>2014-07-19T10:56:35Z</time>
      </trkpt>
      <trkpt lat="45.777560155838728" lon="6.869879839941859">
        <ele>2041.98</ele>
        <time>2014-07-19T10:56:48Z</time>
      </trkpt>
      <trkpt lat="45.777573483064771" lon="6.869799792766571">
        <ele>2042.9400000000001</ele>
        <time>2014-07-19T10:57:01Z</time>
      </trkpt>
      <trkpt lat="45.777558982372284" lon="6.869806246832013">
        <ele>2042.9400000000001</ele>
        <time>2014-07-19T10:57:16Z</time>
      </trkpt>
      <trkpt lat="45.777595359832048" lon="6.86978654935956">
        <ele>2043.9000000000001</ele>
        <time>2014-07-19T10:57:39Z</time>
      </trkpt>
      <trkpt lat="45.77764330431819" lon="6.869645062834024">
        <ele>2046.3</ele>
        <time>2014-07-19T10:57:53Z</time>
      </trkpt>
      <trkpt lat="45.777692338451743" lon="6.869682278484106">
        <ele>2046.78</ele>
        <time>2014-07-19T10:58:09Z</time>
      </trkpt>
      <trkpt lat="45.777703654021025" lon="6.869632489979267">
        <ele>2046.78</ele>
        <time>2014-07-19T10:58:36Z</time>
      </trkpt>
      <trkpt lat="45.777688566595316" lon="6.869638944044709">
        <ele>2046.3</ele>
        <time>2014-07-19T10:58:55Z</time>
      </trkpt>
      <trkpt lat="45.777719914913177" lon="6.869654282927513">
        <ele>2046.3</ele>
        <time>2014-07-19T10:59:15Z</time>
      </trkpt>
      <trkpt lat="45.777671551331878" lon="6.869639530777931">
        <ele>2046.3</ele>
        <time>2014-07-19T10:59:43Z</time>
      </trkpt>
      <trkpt lat="45.777647662907839" lon="6.869632489979267">
        <ele>2046.3</ele>
        <time>2014-07-19T11:00:05Z</time>
      </trkpt>
      <trkpt lat="45.7776755746454" lon="6.86966635286808">
        <ele>2046.3</ele>
        <time>2014-07-19T11:00:31Z</time>
      </trkpt>
      <trkpt lat="45.77766333706677" lon="6.869667610153556">
        <ele>2046.3</ele>
        <time>2014-07-19T11:00:56Z</time>
      </trkpt>
      <trkpt lat="45.777645232155919" lon="6.869661910459399">
        <ele>2046.3</ele>
        <time>2014-07-19T11:01:11Z</time>
      </trkpt>
      <trkpt lat="45.777610614895821" lon="6.86968345195055">
        <ele>2045.8199999999999</ele>
        <time>2014-07-19T11:01:25Z</time>
      </trkpt>
      <trkpt lat="45.777610614895821" lon="6.869662497192621">
        <ele>2044.8599999999999</ele>
        <time>2014-07-19T11:01:31Z</time>
      </trkpt>
      <trkpt lat="45.777583541348577" lon="6.869646990671754">
        <ele>2044.3800000000001</ele>
        <time>2014-07-19T11:01:34Z</time>
      </trkpt>
      <trkpt lat="45.777554037049413" lon="6.869643134996295">
        <ele>2043.4200000000001</ele>
        <time>2014-07-19T11:01:38Z</time>
      </trkpt>
      <trkpt lat="45.777516737580299" lon="6.869620000943542">
        <ele>2041.98</ele>
        <time>2014-07-19T11:01:49Z</time>
      </trkpt>
      <trkpt lat="45.777471391484141" lon="6.869508353993297">
        <ele>2039.0899999999999</ele>
        <time>2014-07-19T11:02:00Z</time>
      </trkpt>
      <trkpt lat="45.777425291016698" lon="6.869422104209662">
        <ele>2035.73</ele>
        <time>2014-07-19T11:02:11Z</time>
      </trkpt>
      <trkpt lat="45.777409868314862" lon="6.869345493614674">
        <ele>2033.8099999999999</ele>
        <time>2014-07-19T11:02:18Z</time>
      </trkpt>
      <trkpt lat="45.777393523603678" lon="6.869255555793643">
        <ele>2030.4400000000001</ele>
        <time>2014-07-19T11:02:28Z</time>
      </trkpt>
      <trkpt lat="45.777357397601008" lon="6.86921532265842">
        <ele>2029.48</ele>
        <time>2014-07-19T11:02:32Z</time>
      </trkpt>
      <trkpt lat="45.777359576895833" lon="6.869174251332879">
        <ele>2028.52</ele>
        <time>2014-07-19T11:02:35Z</time>
      </trkpt>
      <trkpt lat="45.777341388165951" lon="6.869145249947906">
        <ele>2027.5599999999999</ele>
        <time>2014-07-19T11:02:37Z</time>
      </trkpt>
      <trkpt lat="45.777324624359608" lon="6.869104094803333">
        <ele>2027.0799999999999</ele>
        <time>2014-07-19T11:02:40Z</time>
      </trkpt>
      <trkpt lat="45.777317583560944" lon="6.868964368477464">
        <ele>2023.23</ele>
        <time>2014-07-19T11:02:52Z</time>
      </trkpt>
      <trkpt lat="45.777273494750261" lon="6.868899324908853">
        <ele>2019.8699999999999</ele>
        <time>2014-07-19T11:03:03Z</time>
      </trkpt>
      <trkpt lat="45.777236865833402" lon="6.868857415392995">
        <ele>2017.9400000000001</ele>
        <time>2014-07-19T11:03:11Z</time>
      </trkpt>
      <trkpt lat="45.777246421203017" lon="6.868806788697839">
        <ele>2016.5</ele>
        <time>2014-07-19T11:03:15Z</time>
      </trkpt>
      <trkpt lat="45.777178779244423" lon="6.868737721815705">
        <ele>2014.0999999999999</ele>
        <time>2014-07-19T11:03:27Z</time>
      </trkpt>
      <trkpt lat="45.777139300480485" lon="6.868606377393007">
        <ele>2012.1800000000001</ele>
        <time>2014-07-19T11:03:35Z</time>
      </trkpt>
      <trkpt lat="45.777088673785329" lon="6.868524234741926">
        <ele>2011.22</ele>
        <time>2014-07-19T11:03:42Z</time>
      </trkpt>
      <trkpt lat="45.777023043483496" lon="6.868366906419396">
        <ele>2008.8099999999999</ele>
        <time>2014-07-19T11:03:56Z</time>
      </trkpt>
      <trkpt lat="45.777079872786999" lon="6.868303036317229">
        <ele>2005.9300000000001</ele>
        <time>2014-07-19T11:04:08Z</time>
      </trkpt>
      <trkpt lat="45.777080543339252" lon="6.868286021053791">
        <ele>2005.45</ele>
        <time>2014-07-19T11:04:10Z</time>
      </trkpt>
      <trkpt lat="45.777144664898515" lon="6.86823908239603">
        <ele>2003.52</ele>
        <time>2014-07-19T11:04:17Z</time>
      </trkpt>
      <trkpt lat="45.777145167812705" lon="6.868120143190026">
        <ele>2003.04</ele>
        <time>2014-07-19T11:04:23Z</time>
      </trkpt>
      <trkpt lat="45.777124715968966" lon="6.868073707446456">
        <ele>2003.04</ele>
        <time>2014-07-19T11:04:26Z</time>
      </trkpt>
      <trkpt lat="45.777101833373308" lon="6.868062140420079">
        <ele>2003.04</ele>
        <time>2014-07-19T11:04:28Z</time>
      </trkpt>
      <trkpt lat="45.777028407901525" lon="6.868129530921578">
        <ele>2000.6400000000001</ele>
        <time>2014-07-19T11:04:39Z</time>
      </trkpt>
      <trkpt lat="45.776941487565637" lon="6.868118802085519">
        <ele>1998.24</ele>
        <time>2014-07-19T11:04:51Z</time>
      </trkpt>
      <trkpt lat="45.776910725980997" lon="6.868160963058472">
        <ele>1996.3199999999999</ele>
        <time>2014-07-19T11:04:57Z</time>
      </trkpt>
      <trkpt lat="45.776853309944272" lon="6.868074294179678">
        <ele>1992.95</ele>
        <time>2014-07-19T11:05:11Z</time>
      </trkpt>
      <trkpt lat="45.776778543367982" lon="6.868021655827761">
        <ele>1989.5899999999999</ele>
        <time>2014-07-19T11:05:23Z</time>
      </trkpt>
      <trkpt lat="45.776764042675495" lon="6.868047975003719">
        <ele>1988.6199999999999</ele>
        <time>2014-07-19T11:05:26Z</time>
      </trkpt>
      <trkpt lat="45.776660609990358" lon="6.868052501231432">
        <ele>1984.78</ele>
        <time>2014-07-19T11:05:40Z</time>
      </trkpt>
      <trkpt lat="45.77665138989687" lon="6.868036659434438">
        <ele>1984.78</ele>
        <time>2014-07-19T11:05:42Z</time>
      </trkpt>
      <trkpt lat="45.776616018265486" lon="6.867941021919251">
        <ele>1982.3800000000001</ele>
        <time>2014-07-19T11:05:51Z</time>
      </trkpt>
      <trkpt lat="45.776479979977012" lon="6.86788528226316">
        <ele>1980.45</ele>
        <time>2014-07-19T11:06:05Z</time>
      </trkpt>
      <trkpt lat="45.776314772665501" lon="6.867961306124926">
        <ele>1979.49</ele>
        <time>2014-07-19T11:06:20Z</time>
      </trkpt>
      <trkpt lat="45.776181500405073" lon="6.868084939196706">
        <ele>1979.01</ele>
        <time>2014-07-19T11:06:35Z</time>
      </trkpt>
      <trkpt lat="45.776007995009422" lon="6.868239250034094">
        <ele>1978.05</ele>
        <time>2014-07-19T11:06:52Z</time>
      </trkpt>
      <trkpt lat="45.775953093543649" lon="6.868275795131922">
        <ele>1978.05</ele>
        <time>2014-07-19T11:06:58Z</time>
      </trkpt>
      <trkpt lat="45.775856282562017" lon="6.868309322744608">
        <ele>1977.0899999999999</ele>
        <time>2014-07-19T11:07:09Z</time>
      </trkpt>
      <trkpt lat="45.775736002251506" lon="6.868414096534252">
        <ele>1976.6099999999999</ele>
        <time>2014-07-19T11:07:23Z</time>
      </trkpt>
      <trkpt lat="45.775676993653178" lon="6.868559522554278">
        <ele>1977.0899999999999</ele>
        <time>2014-07-19T11:07:36Z</time>
      </trkpt>
      <trkpt lat="45.775636844336987" lon="6.868831515312195">
        <ele>1976.6099999999999</ele>
        <time>2014-07-19T11:07:52Z</time>
      </trkpt>
      <trkpt lat="45.775754442438483" lon="6.86908389441669">
        <ele>1975.1700000000001</ele>
        <time>2014-07-19T11:08:08Z</time>
      </trkpt>
      <trkpt lat="45.775858880952001" lon="6.869276091456413">
        <ele>1974.2</ele>
        <time>2014-07-19T11:08:23Z</time>
      </trkpt>
      <trkpt lat="45.775913363322616" lon="6.869372734799981">
        <ele>1974.2</ele>
        <time>2014-07-19T11:08:30Z</time>
      </trkpt>
      <trkpt lat="45.776088628917933" lon="6.869546743109822">
        <ele>1972.76</ele>
        <time>2014-07-19T11:08:51Z</time>
      </trkpt>
      <trkpt lat="45.776117881760001" lon="6.869572140276432">
        <ele>1972.76</ele>
        <time>2014-07-19T11:08:54Z</time>
      </trkpt>
      <trkpt lat="45.776283843442798" lon="6.869757380336523">
        <ele>1972.76</ele>
        <time>2014-07-19T11:09:12Z</time>
      </trkpt>
      <trkpt lat="45.7762785628438" lon="6.869820831343532">
        <ele>1969.4000000000001</ele>
        <time>2014-07-19T11:09:16Z</time>
      </trkpt>
      <trkpt lat="45.776276718825102" lon="6.869829297065735">
        <ele>1969.4000000000001</ele>
        <time>2014-07-19T11:09:17Z</time>
      </trkpt>
      <trkpt lat="45.776247885078192" lon="6.870062900707126">
        <ele>1968.4400000000001</ele>
        <time>2014-07-19T11:09:29Z</time>
      </trkpt>
      <trkpt lat="45.776232965290546" lon="6.870304467156529">
        <ele>1967.96</ele>
        <time>2014-07-19T11:09:42Z</time>
      </trkpt>
      <trkpt lat="45.776232378557324" lon="6.870489455759525">
        <ele>1967.96</ele>
        <time>2014-07-19T11:09:53Z</time>
      </trkpt>
      <trkpt lat="45.776252578943968" lon="6.870640497654676">
        <ele>1968.4400000000001</ele>
        <time>2014-07-19T11:10:03Z</time>
      </trkpt>
      <trkpt lat="45.776261044666171" lon="6.870845016092062">
        <ele>1967.96</ele>
        <time>2014-07-19T11:10:15Z</time>
      </trkpt>
      <trkpt lat="45.776243526488543" lon="6.870903605595231">
        <ele>1967.96</ele>
        <time>2014-07-19T11:10:28Z</time>
      </trkpt>
      <trkpt lat="45.776281664147973" lon="6.870995974168181">
        <ele>1967.96</ele>
        <time>2014-07-19T11:10:42Z</time>
      </trkpt>
      <trkpt lat="45.77627956867218" lon="6.871018940582871">
        <ele>1967.96</ele>
        <time>2014-07-19T11:10:43Z</time>
      </trkpt>
      <trkpt lat="45.776265487074852" lon="6.871058754622936">
        <ele>1967.96</ele>
        <time>2014-07-19T11:10:46Z</time>
      </trkpt>
      <trkpt lat="45.776233719661832" lon="6.871130587533116">
        <ele>1967.96</ele>
        <time>2014-07-19T11:11:00Z</time>
      </trkpt>
      <trkpt lat="45.7762042991817" lon="6.871091108769178">
        <ele>1968.4400000000001</ele>
        <time>2014-07-19T11:11:14Z</time>
      </trkpt>
      <trkpt lat="45.776191893965006" lon="6.871081721037626">
        <ele>1968.4400000000001</ele>
        <time>2014-07-19T11:11:41Z</time>
      </trkpt>
      <trkpt lat="45.776202622801065" lon="6.871086247265339">
        <ele>1968.4400000000001</ele>
        <time>2014-07-19T11:11:57Z</time>
      </trkpt>
      <trkpt lat="45.776190049946308" lon="6.871105022728443">
        <ele>1968.4400000000001</ele>
        <time>2014-07-19T11:12:20Z</time>
      </trkpt>
      <trkpt lat="45.776234390214086" lon="6.871148189529777">
        <ele>1968.4400000000001</ele>
        <time>2014-07-19T11:12:48Z</time>
      </trkpt>
      <trkpt lat="45.776225505396724" lon="6.871096640825272">
        <ele>1968.4400000000001</ele>
        <time>2014-07-19T11:13:08Z</time>
      </trkpt>
      <trkpt lat="45.776219889521599" lon="6.871112734079361">
        <ele>1968.4400000000001</ele>
        <time>2014-07-19T11:13:31Z</time>
      </trkpt>
      <trkpt lat="45.776217374950647" lon="6.871139723807573">
        <ele>1968.4400000000001</ele>
        <time>2014-07-19T11:13:55Z</time>
      </trkpt>
      <trkpt lat="45.776220057159662" lon="6.871136287227273">
        <ele>1968.4400000000001</ele>
        <time>2014-07-19T11:14:12Z</time>
      </trkpt>
      <trkpt lat="45.776199102401733" lon="6.871099071577191">
        <ele>1967.96</ele>
        <time>2014-07-19T11:14:33Z</time>
      </trkpt>
      <trkpt lat="45.776180746033788" lon="6.871086414903402">
        <ele>1967.96</ele>
        <time>2014-07-19T11:14:43Z</time>
      </trkpt>
      <trkpt lat="45.77619113959372" lon="6.871092952787876">
        <ele>1967.48</ele>
        <time>2014-07-19T11:14:56Z</time>
      </trkpt>
      <trkpt lat="45.776157947257161" lon="6.871102172881365">
        <ele>1967.48</ele>
        <time>2014-07-19T11:15:23Z</time>
      </trkpt>
      <trkpt lat="45.776190301403403" lon="6.871127234771848">
        <ele>1967.96</ele>
        <time>2014-07-19T11:15:38Z</time>
      </trkpt>
      <trkpt lat="45.776216872036457" lon="6.871129414066672">
        <ele>1968.4400000000001</ele>
        <time>2014-07-19T11:15:49Z</time>
      </trkpt>
      <trkpt lat="45.776217374950647" lon="6.871141903102398">
        <ele>1968.4400000000001</ele>
        <time>2014-07-19T11:16:10Z</time>
      </trkpt>
      <trkpt lat="45.776277724653482" lon="6.871163193136454">
        <ele>1968.4400000000001</ele>
        <time>2014-07-19T11:16:22Z</time>
      </trkpt>
      <trkpt lat="45.776283089071512" lon="6.871159002184868">
        <ele>1968.4400000000001</ele>
        <time>2014-07-19T11:16:24Z</time>
      </trkpt>
      <trkpt lat="45.776308653876185" lon="6.871143663302064">
        <ele>1967.96</ele>
        <time>2014-07-19T11:16:38Z</time>
      </trkpt>
      <trkpt lat="45.776346120983362" lon="6.871286910027266">
        <ele>1967.96</ele>
        <time>2014-07-19T11:16:50Z</time>
      </trkpt>
      <trkpt lat="45.776348635554314" lon="6.871327478438616">
        <ele>1967.96</ele>
        <time>2014-07-19T11:16:53Z</time>
      </trkpt>
      <trkpt lat="45.776326172053814" lon="6.871530236676335">
        <ele>1967.48</ele>
        <time>2014-07-19T11:17:09Z</time>
      </trkpt>
      <trkpt lat="45.776308989152312" lon="6.871746741235256">
        <ele>1966.51</ele>
        <time>2014-07-19T11:17:26Z</time>
      </trkpt>
      <trkpt lat="45.776329021900892" lon="6.871995180845261">
        <ele>1966.51</ele>
        <time>2014-07-19T11:17:43Z</time>
      </trkpt>
      <trkpt lat="45.77643639408052" lon="6.872196095064282">
        <ele>1965.55</ele>
        <time>2014-07-19T11:17:58Z</time>
      </trkpt>
      <trkpt lat="45.77649649232626" lon="6.872422825545073">
        <ele>1965.55</ele>
        <time>2014-07-19T11:18:13Z</time>
      </trkpt>
      <trkpt lat="45.776504790410399" lon="6.872450318187475">
        <ele>1965.55</ele>
        <time>2014-07-19T11:18:15Z</time>
      </trkpt>
      <trkpt lat="45.776510154828429" lon="6.872466746717691">
        <ele>1965.55</ele>
        <time>2014-07-19T11:18:16Z</time>
      </trkpt>
      <trkpt lat="45.776511915028095" lon="6.872484432533383">
        <ele>1965.55</ele>
        <time>2014-07-19T11:18:17Z</time>
      </trkpt>
      <trkpt lat="45.776515351608396" lon="6.872501783072949">
        <ele>1965.0699999999999</ele>
        <time>2014-07-19T11:18:18Z</time>
      </trkpt>
      <trkpt lat="45.776518704369664" lon="6.872516786679626">
        <ele>1965.0699999999999</ele>
        <time>2014-07-19T11:18:19Z</time>
      </trkpt>
      <trkpt lat="45.776523314416409" lon="6.87253313139081">
        <ele>1965.0699999999999</ele>
        <time>2014-07-19T11:18:20Z</time>
      </trkpt>
      <trkpt lat="45.776528846472502" lon="6.872550901025534">
        <ele>1965.0699999999999</ele>
        <time>2014-07-19T11:18:21Z</time>
      </trkpt>
      <trkpt lat="45.776534797623754" lon="6.87256783246994">
        <ele>1965.0699999999999</ele>
        <time>2014-07-19T11:18:22Z</time>
      </trkpt>
      <trkpt lat="45.776540413498878" lon="6.872583590447903">
        <ele>1965.0699999999999</ele>
        <time>2014-07-19T11:18:23Z</time>
      </trkpt>
      <trkpt lat="45.77654343098402" lon="6.872598929330707">
        <ele>1965.0699999999999</ele>
        <time>2014-07-19T11:18:24Z</time>
      </trkpt>
      <trkpt lat="45.776622472330928" lon="6.872903360053897">
        <ele>1964.1099999999999</ele>
        <time>2014-07-19T11:18:44Z</time>
      </trkpt>
      <trkpt lat="45.77662699855864" lon="6.872919034212828">
        <ele>1963.6300000000001</ele>
        <time>2014-07-19T11:18:45Z</time>
      </trkpt>
      <trkpt lat="45.776633704081178" lon="6.872933115810156">
        <ele>1964.1099999999999</ele>
        <time>2014-07-19T11:18:46Z</time>
      </trkpt>
      <trkpt lat="45.776638900861144" lon="6.872952058911324">
        <ele>1964.1099999999999</ele>
        <time>2014-07-19T11:18:47Z</time>
      </trkpt>
      <trkpt lat="45.776640577241778" lon="6.872967481613159">
        <ele>1963.6300000000001</ele>
        <time>2014-07-19T11:18:48Z</time>
      </trkpt>
      <trkpt lat="45.776642924174666" lon="6.8729826528579">
        <ele>1963.6300000000001</ele>
        <time>2014-07-19T11:18:49Z</time>
      </trkpt>
      <trkpt lat="45.776647198945284" lon="6.87299832701683">
        <ele>1963.1500000000001</ele>
        <time>2014-07-19T11:18:50Z</time>
      </trkpt>
      <trkpt lat="45.776652479544282" lon="6.873014252632856">
        <ele>1963.6300000000001</ele>
        <time>2014-07-19T11:18:51Z</time>
      </trkpt>
      <trkpt lat="45.776656083762646" lon="6.873028501868248">
        <ele>1963.1500000000001</ele>
        <time>2014-07-19T11:18:52Z</time>
      </trkpt>
      <trkpt lat="45.776659101247787" lon="6.873046774417162">
        <ele>1963.1500000000001</ele>
        <time>2014-07-19T11:18:53Z</time>
      </trkpt>
      <trkpt lat="45.776664465665817" lon="6.873062280938029">
        <ele>1963.1500000000001</ele>
        <time>2014-07-19T11:18:54Z</time>
      </trkpt>
      <trkpt lat="45.776671338826418" lon="6.873077200725675">
        <ele>1964.1099999999999</ele>
        <time>2014-07-19T11:18:55Z</time>
      </trkpt>
      <trkpt lat="45.776678631082177" lon="6.873089354485273">
        <ele>1963.1500000000001</ele>
        <time>2014-07-19T11:18:56Z</time>
      </trkpt>
      <trkpt lat="45.77678089030087" lon="6.873306110501289">
        <ele>1960.75</ele>
        <time>2014-07-19T11:19:12Z</time>
      </trkpt>
      <trkpt lat="45.776891615241766" lon="6.873569805175066">
        <ele>1959.78</ele>
        <time>2014-07-19T11:19:30Z</time>
      </trkpt>
      <trkpt lat="45.776909301057458" lon="6.873604757711291">
        <ele>1959.3</ele>
        <time>2014-07-19T11:19:33Z</time>
      </trkpt>
      <trkpt lat="45.776914330199361" lon="6.873622024431825">
        <ele>1959.3</ele>
        <time>2014-07-19T11:19:34Z</time>
      </trkpt>
      <trkpt lat="45.776920868083835" lon="6.873639123514295">
        <ele>1959.3</ele>
        <time>2014-07-19T11:19:35Z</time>
      </trkpt>
      <trkpt lat="45.776924220845103" lon="6.873655635863543">
        <ele>1959.3</ele>
        <time>2014-07-19T11:19:36Z</time>
      </trkpt>
      <trkpt lat="45.776927825063467" lon="6.873673070222139">
        <ele>1959.3</ele>
        <time>2014-07-19T11:19:37Z</time>
      </trkpt>
      <trkpt lat="45.777037544175982" lon="6.873946823179722">
        <ele>1958.3399999999999</ele>
        <time>2014-07-19T11:19:55Z</time>
      </trkpt>
      <trkpt lat="45.777053721249104" lon="6.874213451519609">
        <ele>1957.8599999999999</ele>
        <time>2014-07-19T11:20:11Z</time>
      </trkpt>
      <trkpt lat="45.777035783976316" lon="6.874511679634452">
        <ele>1957.3800000000001</ele>
        <time>2014-07-19T11:20:28Z</time>
      </trkpt>
      <trkpt lat="45.777029832825065" lon="6.874729609116912">
        <ele>1956.4200000000001</ele>
        <time>2014-07-19T11:20:44Z</time>
      </trkpt>
      <trkpt lat="45.777023965492845" lon="6.874768752604723">
        <ele>1956.4200000000001</ele>
        <time>2014-07-19T11:20:46Z</time>
      </trkpt>
      <trkpt lat="45.777001418173313" lon="6.874828599393368">
        <ele>1955.46</ele>
        <time>2014-07-19T11:20:51Z</time>
      </trkpt>
      <trkpt lat="45.777000747621059" lon="6.874845866113901">
        <ele>1955.9400000000001</ele>
        <time>2014-07-19T11:20:52Z</time>
      </trkpt>
      <trkpt lat="45.776997227221727" lon="6.874863803386688">
        <ele>1955.9400000000001</ele>
        <time>2014-07-19T11:20:53Z</time>
      </trkpt>
      <trkpt lat="45.776992281898856" lon="6.874884339049459">
        <ele>1955.9400000000001</ele>
        <time>2014-07-19T11:20:54Z</time>
      </trkpt>
      <trkpt lat="45.776984319090843" lon="6.874901689589024">
        <ele>1955.46</ele>
        <time>2014-07-19T11:20:55Z</time>
      </trkpt>
      <trkpt lat="45.776936793699861" lon="6.875150967389345">
        <ele>1954.98</ele>
        <time>2014-07-19T11:21:10Z</time>
      </trkpt>
      <trkpt lat="45.776961520314217" lon="6.875472748652101">
        <ele>1953.0599999999999</ele>
        <time>2014-07-19T11:21:29Z</time>
      </trkpt>
      <trkpt lat="45.776953054592013" lon="6.875762091949582">
        <ele>1952.0899999999999</ele>
        <time>2014-07-19T11:21:46Z</time>
      </trkpt>
      <trkpt lat="45.776959676295519" lon="6.876077754423022">
        <ele>1950.6500000000001</ele>
        <time>2014-07-19T11:22:04Z</time>
      </trkpt>
      <trkpt lat="45.776974931359291" lon="6.876315381377935">
        <ele>1949.21</ele>
        <time>2014-07-19T11:22:18Z</time>
      </trkpt>
      <trkpt lat="45.776971913874149" lon="6.876333067193627">
        <ele>1949.21</ele>
        <time>2014-07-19T11:22:19Z</time>
      </trkpt>
      <trkpt lat="45.776971997693181" lon="6.876351004466415">
        <ele>1949.21</ele>
        <time>2014-07-19T11:22:20Z</time>
      </trkpt>
      <trkpt lat="45.777040477842093" lon="6.876610172912478">
        <ele>1946.8099999999999</ele>
        <time>2014-07-19T11:22:36Z</time>
      </trkpt>
      <trkpt lat="45.777058079838753" lon="6.876683430746198">
        <ele>1946.8099999999999</ele>
        <time>2014-07-19T11:22:40Z</time>
      </trkpt>
      <trkpt lat="45.777151789516211" lon="6.876927260309458">
        <ele>1944.4000000000001</ele>
        <time>2014-07-19T11:22:56Z</time>
      </trkpt>
      <trkpt lat="45.777292856946588" lon="6.877129264175892">
        <ele>1942.48</ele>
        <time>2014-07-19T11:23:12Z</time>
      </trkpt>
      <trkpt lat="45.777427218854427" lon="6.87732900492847">
        <ele>1939.5999999999999</ele>
        <time>2014-07-19T11:23:28Z</time>
      </trkpt>
      <trkpt lat="45.777550600469112" lon="6.877599991858006">
        <ele>1936.71</ele>
        <time>2014-07-19T11:23:46Z</time>
      </trkpt>
      <trkpt lat="45.777619164437056" lon="6.877732845023274">
        <ele>1935.27</ele>
        <time>2014-07-19T11:23:55Z</time>
      </trkpt>
      <trkpt lat="45.777620002627373" lon="6.877759080380201">
        <ele>1935.27</ele>
        <time>2014-07-19T11:23:56Z</time>
      </trkpt>
      <trkpt lat="45.777623103931546" lon="6.877773748710752">
        <ele>1934.79</ele>
        <time>2014-07-19T11:23:57Z</time>
      </trkpt>
      <trkpt lat="45.777680352330208" lon="6.878013135865331">
        <ele>1932.3900000000001</ele>
        <time>2014-07-19T11:24:11Z</time>
      </trkpt>
      <trkpt lat="45.777692338451743" lon="6.878026546910405">
        <ele>1932.3900000000001</ele>
        <time>2014-07-19T11:24:12Z</time>
      </trkpt>
      <trkpt lat="45.777703737840056" lon="6.878040712326765">
        <ele>1931.9100000000001</ele>
        <time>2014-07-19T11:24:13Z</time>
      </trkpt>
      <trkpt lat="45.777715304866433" lon="6.878053452819586">
        <ele>1931.9100000000001</ele>
        <time>2014-07-19T11:24:14Z</time>
      </trkpt>
      <trkpt lat="45.777726285159588" lon="6.878067702054977">
        <ele>1931.9100000000001</ele>
        <time>2014-07-19T11:24:15Z</time>
      </trkpt>
      <trkpt lat="45.777868945151567" lon="6.878248834982514">
        <ele>1929.02</ele>
        <time>2014-07-19T11:24:30Z</time>
      </trkpt>
      <trkpt lat="45.777875734493136" lon="6.878262329846621">
        <ele>1929.02</ele>
        <time>2014-07-19T11:24:31Z</time>
      </trkpt>
      <trkpt lat="45.777882523834705" lon="6.878276243805885">
        <ele>1929.02</ele>
        <time>2014-07-19T11:24:32Z</time>
      </trkpt>
      <trkpt lat="45.777892917394638" lon="6.87828429043293">
        <ele>1928.54</ele>
        <time>2014-07-19T11:24:33Z</time>
      </trkpt>
      <trkpt lat="45.777904568240047" lon="6.87829015776515">
        <ele>1928.54</ele>
        <time>2014-07-19T11:24:34Z</time>
      </trkpt>
      <trkpt lat="45.777916805818677" lon="6.878299126401544">
        <ele>1928.54</ele>
        <time>2014-07-19T11:24:35Z</time>
      </trkpt>
      <trkpt lat="45.778087209910154" lon="6.878502555191517">
        <ele>1925.1800000000001</ele>
        <time>2014-07-19T11:24:53Z</time>
      </trkpt>
      <trkpt lat="45.778144877403975" lon="6.878625685349107">
        <ele>1924.22</ele>
        <time>2014-07-19T11:25:02Z</time>
      </trkpt>
      <trkpt lat="45.778152924031019" lon="6.878652758896351">
        <ele>1923.74</ele>
        <time>2014-07-19T11:25:04Z</time>
      </trkpt>
      <trkpt lat="45.77816323377192" lon="6.878702044487">
        <ele>1923.74</ele>
        <time>2014-07-19T11:25:07Z</time>
      </trkpt>
      <trkpt lat="45.778164658695459" lon="6.878719311207533">
        <ele>1923.25</ele>
        <time>2014-07-19T11:25:08Z</time>
      </trkpt>
      <trkpt lat="45.778170274570584" lon="6.878731800243259">
        <ele>1923.25</ele>
        <time>2014-07-19T11:25:09Z</time>
      </trkpt>
      <trkpt lat="45.778172956779599" lon="6.878749569877982">
        <ele>1923.25</ele>
        <time>2014-07-19T11:25:10Z</time>
      </trkpt>
      <trkpt lat="45.778175219893456" lon="6.878768261522055">
        <ele>1923.25</ele>
        <time>2014-07-19T11:25:11Z</time>
      </trkpt>
      <trkpt lat="45.778181003406644" lon="6.878783600404859">
        <ele>1922.77</ele>
        <time>2014-07-19T11:25:12Z</time>
      </trkpt>
      <trkpt lat="45.778185361996293" lon="6.878799442201853">
        <ele>1922.77</ele>
        <time>2014-07-19T11:25:13Z</time>
      </trkpt>
      <trkpt lat="45.778190894052386" lon="6.87881687656045">
        <ele>1922.29</ele>
        <time>2014-07-19T11:25:14Z</time>
      </trkpt>
      <trkpt lat="45.778243448585272" lon="6.8790612090379">
        <ele>1919.8900000000001</ele>
        <time>2014-07-19T11:25:30Z</time>
      </trkpt>
      <trkpt lat="45.778279574587941" lon="6.879271091893315">
        <ele>1917.97</ele>
        <time>2014-07-19T11:25:44Z</time>
      </trkpt>
      <trkpt lat="45.778287453576922" lon="6.879303446039558">
        <ele>1917.49</ele>
        <time>2014-07-19T11:25:46Z</time>
      </trkpt>
      <trkpt lat="45.778291057795286" lon="6.879320628941059">
        <ele>1917.49</ele>
        <time>2014-07-19T11:25:47Z</time>
      </trkpt>
      <trkpt lat="45.778292901813984" lon="6.879335716366768">
        <ele>1917.01</ele>
        <time>2014-07-19T11:25:48Z</time>
      </trkpt>
      <trkpt lat="45.778294075280428" lon="6.879351725801826">
        <ele>1917.01</ele>
        <time>2014-07-19T11:25:49Z</time>
      </trkpt>
      <trkpt lat="45.77829516492784" lon="6.879374021664262">
        <ele>1916.53</ele>
        <time>2014-07-19T11:25:51Z</time>
      </trkpt>
      <trkpt lat="45.778298433870077" lon="6.879391456022859">
        <ele>1916.53</ele>
        <time>2014-07-19T11:25:52Z</time>
      </trkpt>
      <trkpt lat="45.778300445526838" lon="6.879412662237883">
        <ele>1916.53</ele>
        <time>2014-07-19T11:25:53Z</time>
      </trkpt>
      <trkpt lat="45.778300361707807" lon="6.879432778805494">
        <ele>1916.04</ele>
        <time>2014-07-19T11:25:54Z</time>
      </trkpt>
      <trkpt lat="45.778302792459726" lon="6.879450716078281">
        <ele>1916.04</ele>
        <time>2014-07-19T11:25:55Z</time>
      </trkpt>
      <trkpt lat="45.7783058937639" lon="6.879467228427529">
        <ele>1915.5599999999999</ele>
        <time>2014-07-19T11:25:56Z</time>
      </trkpt>
      <trkpt lat="45.778312431648374" lon="6.879685325548053">
        <ele>1914.1199999999999</ele>
        <time>2014-07-19T11:26:09Z</time>
      </trkpt>
      <trkpt lat="45.778327602893114" lon="6.879765624180436">
        <ele>1913.1600000000001</ele>
        <time>2014-07-19T11:26:14Z</time>
      </trkpt>
      <trkpt lat="45.77832056209445" lon="6.879790350794792">
        <ele>1913.1600000000001</ele>
        <time>2014-07-19T11:26:15Z</time>
      </trkpt>
      <trkpt lat="45.778315449133515" lon="6.879810132086277">
        <ele>1913.1600000000001</ele>
        <time>2014-07-19T11:26:16Z</time>
      </trkpt>
      <trkpt lat="45.778316706418991" lon="6.879828236997128">
        <ele>1912.6800000000001</ele>
        <time>2014-07-19T11:26:17Z</time>
      </trkpt>
      <trkpt lat="45.778322070837021" lon="6.879845336079598">
        <ele>1912.6800000000001</ele>
        <time>2014-07-19T11:26:18Z</time>
      </trkpt>
      <trkpt lat="45.778327770531178" lon="6.879862267524004">
        <ele>1912.6800000000001</ele>
        <time>2014-07-19T11:26:19Z</time>
      </trkpt>
      <trkpt lat="45.77832936309278" lon="6.879884395748377">
        <ele>1912.6800000000001</ele>
        <time>2014-07-19T11:26:20Z</time>
      </trkpt>
      <trkpt lat="45.778332380577922" lon="6.879903003573418">
        <ele>1912.6800000000001</ele>
        <time>2014-07-19T11:26:21Z</time>
      </trkpt>
      <trkpt lat="45.778337074443698" lon="6.879918174818158">
        <ele>1912.6800000000001</ele>
        <time>2014-07-19T11:26:22Z</time>
      </trkpt>
      <trkpt lat="45.778342019766569" lon="6.879933765158057">
        <ele>1912.2</ele>
        <time>2014-07-19T11:26:23Z</time>
      </trkpt>
      <trkpt lat="45.778340511023998" lon="6.87995245680213">
        <ele>1912.2</ele>
        <time>2014-07-19T11:26:24Z</time>
      </trkpt>
      <trkpt lat="45.77836993150413" lon="6.880202405154705">
        <ele>1910.28</ele>
        <time>2014-07-19T11:26:39Z</time>
      </trkpt>
      <trkpt lat="45.778392143547535" lon="6.880379682406783">
        <ele>1909.3199999999999</ele>
        <time>2014-07-19T11:26:51Z</time>
      </trkpt>
      <trkpt lat="45.77839482575655" lon="6.880461322143674">
        <ele>1908.8299999999999</ele>
        <time>2014-07-19T11:26:56Z</time>
      </trkpt>
      <trkpt lat="45.778393903747201" lon="6.880478337407112">
        <ele>1908.8299999999999</ele>
        <time>2014-07-19T11:26:57Z</time>
      </trkpt>
      <trkpt lat="45.77837286517024" lon="6.880695261061192">
        <ele>1905.95</ele>
        <time>2014-07-19T11:27:11Z</time>
      </trkpt>
      <trkpt lat="45.778329949826002" lon="6.880917884409428">
        <ele>1903.55</ele>
        <time>2014-07-19T11:27:27Z</time>
      </trkpt>
      <trkpt lat="45.778300696983933" lon="6.881162468343973">
        <ele>1902.5899999999999</ele>
        <time>2014-07-19T11:27:42Z</time>
      </trkpt>
      <trkpt lat="45.778272114694118" lon="6.88141442835331">
        <ele>1902.5899999999999</ele>
        <time>2014-07-19T11:27:58Z</time>
      </trkpt>
      <trkpt lat="45.778222410008311" lon="6.881650043651462">
        <ele>1903.0699999999999</ele>
        <time>2014-07-19T11:28:14Z</time>
      </trkpt>
      <trkpt lat="45.778182847425342" lon="6.881800834089518">
        <ele>1902.1099999999999</ele>
        <time>2014-07-19T11:28:24Z</time>
      </trkpt>
      <trkpt lat="45.778181338682771" lon="6.881813742220402">
        <ele>1902.1099999999999</ele>
        <time>2014-07-19T11:28:25Z</time>
      </trkpt>
      <trkpt lat="45.778179410845041" lon="6.881985487416387">
        <ele>1901.1400000000001</ele>
        <time>2014-07-19T11:28:35Z</time>
      </trkpt>
      <trkpt lat="45.778168179094791" lon="6.881997054442763">
        <ele>1901.1400000000001</ele>
        <time>2014-07-19T11:28:36Z</time>
      </trkpt>
      <trkpt lat="45.778157617896795" lon="6.882008789107204">
        <ele>1901.1400000000001</ele>
        <time>2014-07-19T11:28:37Z</time>
      </trkpt>
      <trkpt lat="45.778108164668083" lon="6.882076431065798">
        <ele>1901.1400000000001</ele>
        <time>2014-07-19T11:28:50Z</time>
      </trkpt>
      <trkpt lat="45.778146972879767" lon="6.882159914821386">
        <ele>1900.1800000000001</ele>
        <time>2014-07-19T11:29:05Z</time>
      </trkpt>
      <trkpt lat="45.77811143361032" lon="6.882213810458779">
        <ele>1900.1800000000001</ele>
        <time>2014-07-19T11:29:21Z</time>
      </trkpt>
      <trkpt lat="45.778115624561906" lon="6.882225042209029">
        <ele>1900.1800000000001</ele>
        <time>2014-07-19T11:29:22Z</time>
      </trkpt>
      <trkpt lat="45.77814613468945" lon="6.88244791701436">
        <ele>1898.26</ele>
        <time>2014-07-19T11:29:35Z</time>
      </trkpt>
      <trkpt lat="45.778151080012321" lon="6.88246451318264">
        <ele>1897.78</ele>
        <time>2014-07-19T11:29:36Z</time>
      </trkpt>
      <trkpt lat="45.778154684230685" lon="6.882479349151254">
        <ele>1897.78</ele>
        <time>2014-07-19T11:29:37Z</time>
      </trkpt>
      <trkpt lat="45.778153594583273" lon="6.882497370243073">
        <ele>1897.3</ele>
        <time>2014-07-19T11:29:38Z</time>
      </trkpt>
      <trkpt lat="45.77815493568778" lon="6.882517905905843">
        <ele>1897.3</ele>
        <time>2014-07-19T11:29:39Z</time>
      </trkpt>
      <trkpt lat="45.778175974264741" lon="6.882777409628034">
        <ele>1893.9300000000001</ele>
        <time>2014-07-19T11:29:55Z</time>
      </trkpt>
      <trkpt lat="45.778133478015661" lon="6.882989723235369">
        <ele>1891.05</ele>
        <time>2014-07-19T11:30:07Z</time>
      </trkpt>
      <trkpt lat="45.778098357841372" lon="6.883114445954561">
        <ele>1889.6099999999999</ele>
        <time>2014-07-19T11:30:14Z</time>
      </trkpt>
      <trkpt lat="45.778088886290789" lon="6.883127856999636">
        <ele>1889.1300000000001</ele>
        <time>2014-07-19T11:30:15Z</time>
      </trkpt>
      <trkpt lat="45.778020238503814" lon="6.883352575823665">
        <ele>1887.21</ele>
        <time>2014-07-19T11:30:30Z</time>
      </trkpt>
      <trkpt lat="45.778045384213328" lon="6.883538067340851">
        <ele>1884.8</ele>
        <time>2014-07-19T11:30:43Z</time>
      </trkpt>
      <trkpt lat="45.778051670640707" lon="6.883554076775909">
        <ele>1884.3199999999999</ele>
        <time>2014-07-19T11:30:44Z</time>
      </trkpt>
      <trkpt lat="45.778118474408984" lon="6.883735377341509">
        <ele>1881.9200000000001</ele>
        <time>2014-07-19T11:30:57Z</time>
      </trkpt>
      <trkpt lat="45.778185864910483" lon="6.883917432278395">
        <ele>1880.96</ele>
        <time>2014-07-19T11:31:08Z</time>
      </trkpt>
      <trkpt lat="45.778250824660063" lon="6.884111724793911">
        <ele>1880.48</ele>
        <time>2014-07-19T11:31:22Z</time>
      </trkpt>
      <trkpt lat="45.778240766376257" lon="6.884390339255333">
        <ele>1880.48</ele>
        <time>2014-07-19T11:31:36Z</time>
      </trkpt>
      <trkpt lat="45.778239592909813" lon="6.88441121019423">
        <ele>1880.48</ele>
        <time>2014-07-19T11:31:37Z</time>
      </trkpt>
      <trkpt lat="45.778240179643035" lon="6.884429901838303">
        <ele>1880.48</ele>
        <time>2014-07-19T11:31:38Z</time>
      </trkpt>
      <trkpt lat="45.778239844366908" lon="6.884467536583543">
        <ele>1880.48</ele>
        <time>2014-07-19T11:31:40Z</time>
      </trkpt>
      <trkpt lat="45.778233055025339" lon="6.884483629837632">
        <ele>1880.48</ele>
        <time>2014-07-19T11:31:41Z</time>
      </trkpt>
      <trkpt lat="45.778231713920832" lon="6.884502405300736">
        <ele>1880.48</ele>
        <time>2014-07-19T11:31:42Z</time>
      </trkpt>
      <trkpt lat="45.778232216835022" lon="6.884523192420602">
        <ele>1880.48</ele>
        <time>2014-07-19T11:31:43Z</time>
      </trkpt>
      <trkpt lat="45.778229786083102" lon="6.884537022560835">
        <ele>1880.48</ele>
        <time>2014-07-19T11:31:44Z</time>
      </trkpt>
      <trkpt lat="45.778233390301466" lon="6.884556300938129">
        <ele>1880</ele>
        <time>2014-07-19T11:31:45Z</time>
      </trkpt>
      <trkpt lat="45.778231043368578" lon="6.884574824944139">
        <ele>1880</ele>
        <time>2014-07-19T11:31:46Z</time>
      </trkpt>
      <trkpt lat="45.778227355331182" lon="6.884594606235623">
        <ele>1880.48</ele>
        <time>2014-07-19T11:31:47Z</time>
      </trkpt>
      <trkpt lat="45.778234815225005" lon="6.88461153768003">
        <ele>1880</ele>
        <time>2014-07-19T11:31:48Z</time>
      </trkpt>
      <trkpt lat="45.778246885165572" lon="6.884628469124436">
        <ele>1880.48</ele>
        <time>2014-07-19T11:31:49Z</time>
      </trkpt>
      <trkpt lat="45.77825459651649" lon="6.884646909311414">
        <ele>1880</ele>
        <time>2014-07-19T11:31:50Z</time>
      </trkpt>
      <trkpt lat="45.778259793296456" lon="6.884667444974184">
        <ele>1880</ele>
        <time>2014-07-19T11:31:51Z</time>
      </trkpt>
      <trkpt lat="45.778271444141865" lon="6.884684460237622">
        <ele>1880</ele>
        <time>2014-07-19T11:31:52Z</time>
      </trkpt>
      <trkpt lat="45.778282089158893" lon="6.884699463844299">
        <ele>1880</ele>
        <time>2014-07-19T11:31:53Z</time>
      </trkpt>
      <trkpt lat="45.77831469476223" lon="6.884792586788535">
        <ele>1879.03</ele>
        <time>2014-07-19T11:31:59Z</time>
      </trkpt>
      <trkpt lat="45.778324333950877" lon="6.884807841852307">
        <ele>1879.51</ele>
        <time>2014-07-19T11:32:00Z</time>
      </trkpt>
      <trkpt lat="45.778333134949207" lon="6.884824857115746">
        <ele>1879.51</ele>
        <time>2014-07-19T11:32:01Z</time>
      </trkpt>
      <trkpt lat="45.778339505195618" lon="6.884840950369835">
        <ele>1879.03</ele>
        <time>2014-07-19T11:32:02Z</time>
      </trkpt>
      <trkpt lat="45.778355011716485" lon="6.88488713465631">
        <ele>1878.55</ele>
        <time>2014-07-19T11:32:05Z</time>
      </trkpt>
      <trkpt lat="45.778355095535517" lon="6.884905407205224">
        <ele>1878.55</ele>
        <time>2014-07-19T11:32:06Z</time>
      </trkpt>
      <trkpt lat="45.77835476025939" lon="6.884923009201884">
        <ele>1878.55</ele>
        <time>2014-07-19T11:32:07Z</time>
      </trkpt>
      <trkpt lat="45.778356604278088" lon="6.884937677532435">
        <ele>1878.55</ele>
        <time>2014-07-19T11:32:08Z</time>
      </trkpt>
      <trkpt lat="45.77836356125772" lon="6.884952178224921">
        <ele>1878.55</ele>
        <time>2014-07-19T11:32:09Z</time>
      </trkpt>
      <trkpt lat="45.778368087485433" lon="6.884966595098376">
        <ele>1878.0699999999999</ele>
        <time>2014-07-19T11:32:10Z</time>
      </trkpt>
      <trkpt lat="45.778375463560224" lon="6.884982604533434">
        <ele>1878.0699999999999</ele>
        <time>2014-07-19T11:32:11Z</time>
      </trkpt>
      <trkpt lat="45.778419468551874" lon="6.885074051097035">
        <ele>1877.5899999999999</ele>
        <time>2014-07-19T11:32:17Z</time>
      </trkpt>
      <trkpt lat="45.778420558199286" lon="6.885088719427586">
        <ele>1877.5899999999999</ele>
        <time>2014-07-19T11:32:18Z</time>
      </trkpt>
      <trkpt lat="45.778425419703126" lon="6.885141106322408">
        <ele>1877.1099999999999</ele>
        <time>2014-07-19T11:32:22Z</time>
      </trkpt>
      <trkpt lat="45.778423994779587" lon="6.885155774652958">
        <ele>1877.1099999999999</ele>
        <time>2014-07-19T11:32:23Z</time>
      </trkpt>
      <trkpt lat="45.778433633968234" lon="6.885198773816228">
        <ele>1876.6300000000001</ele>
        <time>2014-07-19T11:32:26Z</time>
      </trkpt>
      <trkpt lat="45.77844469808042" lon="6.885217046365142">
        <ele>1876.6300000000001</ele>
        <time>2014-07-19T11:32:27Z</time>
      </trkpt>
      <trkpt lat="45.778454169631004" lon="6.885234313085675">
        <ele>1876.1500000000001</ele>
        <time>2014-07-19T11:32:28Z</time>
      </trkpt>
      <trkpt lat="45.778459701687098" lon="6.885267002508044">
        <ele>1876.6300000000001</ele>
        <time>2014-07-19T11:32:30Z</time>
      </trkpt>
      <trkpt lat="45.778459617868066" lon="6.885284520685673">
        <ele>1876.1500000000001</ele>
        <time>2014-07-19T11:32:31Z</time>
      </trkpt>
      <trkpt lat="45.778470514342189" lon="6.885318802669644">
        <ele>1876.1500000000001</ele>
        <time>2014-07-19T11:32:33Z</time>
      </trkpt>
      <trkpt lat="45.778476130217314" lon="6.885335147380829">
        <ele>1876.1500000000001</ele>
        <time>2014-07-19T11:32:34Z</time>
      </trkpt>
      <trkpt lat="45.778486020863056" lon="6.885357443243265">
        <ele>1875.6700000000001</ele>
        <time>2014-07-19T11:32:35Z</time>
      </trkpt>
      <trkpt lat="45.778491552919149" lon="6.885376051068306">
        <ele>1875.6700000000001</ele>
        <time>2014-07-19T11:32:36Z</time>
      </trkpt>
      <trkpt lat="45.778496749699116" lon="6.88539482653141">
        <ele>1875.6700000000001</ele>
        <time>2014-07-19T11:32:37Z</time>
      </trkpt>
      <trkpt lat="45.778507478535175" lon="6.885445369407535">
        <ele>1875.1900000000001</ele>
        <time>2014-07-19T11:32:40Z</time>
      </trkpt>
      <trkpt lat="45.77850772999227" lon="6.885458277538419">
        <ele>1875.1900000000001</ele>
        <time>2014-07-19T11:32:41Z</time>
      </trkpt>
      <trkpt lat="45.778515860438347" lon="6.885471688583493">
        <ele>1875.1900000000001</ele>
        <time>2014-07-19T11:32:42Z</time>
      </trkpt>
      <trkpt lat="45.778521811589599" lon="6.885486021637917">
        <ele>1875.1900000000001</ele>
        <time>2014-07-19T11:32:43Z</time>
      </trkpt>
      <trkpt lat="45.778529103845358" lon="6.885503875091672">
        <ele>1875.1900000000001</ele>
        <time>2014-07-19T11:32:44Z</time>
      </trkpt>
      <trkpt lat="45.77855508774519" lon="6.885592052713037">
        <ele>1874.71</ele>
        <time>2014-07-19T11:32:49Z</time>
      </trkpt>
      <trkpt lat="45.778559530153871" lon="6.885612420737743">
        <ele>1874.71</ele>
        <time>2014-07-19T11:32:50Z</time>
      </trkpt>
      <trkpt lat="45.77856196090579" lon="6.885629268363118">
        <ele>1874.23</ele>
        <time>2014-07-19T11:32:51Z</time>
      </trkpt>
      <trkpt lat="45.778564224019647" lon="6.885643098503351">
        <ele>1874.71</ele>
        <time>2014-07-19T11:32:52Z</time>
      </trkpt>
      <trkpt lat="45.778571851551533" lon="6.885656006634235">
        <ele>1874.23</ele>
        <time>2014-07-19T11:32:53Z</time>
      </trkpt>
      <trkpt lat="45.778574617579579" lon="6.885669669136405">
        <ele>1874.23</ele>
        <time>2014-07-19T11:32:54Z</time>
      </trkpt>
      <trkpt lat="45.778574198484421" lon="6.885687354952097">
        <ele>1874.23</ele>
        <time>2014-07-19T11:32:55Z</time>
      </trkpt>
      <trkpt lat="45.778575707226992" lon="6.885703196749091">
        <ele>1874.23</ele>
        <time>2014-07-19T11:32:56Z</time>
      </trkpt>
      <trkpt lat="45.778580736368895" lon="6.885721050202847">
        <ele>1874.23</ele>
        <time>2014-07-19T11:32:57Z</time>
      </trkpt>
      <trkpt lat="45.77862742356956" lon="6.885900339111686">
        <ele>1873.27</ele>
        <time>2014-07-19T11:33:08Z</time>
      </trkpt>
      <trkpt lat="45.778633458539844" lon="6.885918192565441">
        <ele>1873.27</ele>
        <time>2014-07-19T11:33:09Z</time>
      </trkpt>
      <trkpt lat="45.778694227337837" lon="6.886084238067269">
        <ele>1871.8199999999999</ele>
        <time>2014-07-19T11:33:20Z</time>
      </trkpt>
      <trkpt lat="45.778699843212962" lon="6.886099241673946">
        <ele>1871.8199999999999</ele>
        <time>2014-07-19T11:33:21Z</time>
      </trkpt>
      <trkpt lat="45.778707386925817" lon="6.886113910004497">
        <ele>1871.3399999999999</ele>
        <time>2014-07-19T11:33:22Z</time>
      </trkpt>
      <trkpt lat="45.778791541233659" lon="6.886365618556738">
        <ele>1869.4200000000001</ele>
        <time>2014-07-19T11:33:38Z</time>
      </trkpt>
      <trkpt lat="45.778795732185245" lon="6.8863813765347">
        <ele>1868.9400000000001</ele>
        <time>2014-07-19T11:33:39Z</time>
      </trkpt>
      <trkpt lat="45.778797827661037" lon="6.886397385969758">
        <ele>1868.9400000000001</ele>
        <time>2014-07-19T11:33:40Z</time>
      </trkpt>
      <trkpt lat="45.778868151828647" lon="6.886657644063234">
        <ele>1866.54</ele>
        <time>2014-07-19T11:33:56Z</time>
      </trkpt>
      <trkpt lat="45.77888835221529" lon="6.886762250214815">
        <ele>1865.5799999999999</ele>
        <time>2014-07-19T11:34:02Z</time>
      </trkpt>
      <trkpt lat="45.778889860957861" lon="6.886780774220824">
        <ele>1865.5799999999999</ele>
        <time>2014-07-19T11:34:03Z</time>
      </trkpt>
      <trkpt lat="45.778900003060699" lon="6.886865347623825">
        <ele>1864.6099999999999</ele>
        <time>2014-07-19T11:34:08Z</time>
      </trkpt>
      <trkpt lat="45.778903942555189" lon="6.886881273239851">
        <ele>1864.6099999999999</ele>
        <time>2014-07-19T11:34:09Z</time>
      </trkpt>
      <trkpt lat="45.778916096314788" lon="6.886985627934337">
        <ele>1863.6500000000001</ele>
        <time>2014-07-19T11:34:15Z</time>
      </trkpt>
      <trkpt lat="45.778987593948841" lon="6.887212023139">
        <ele>1861.25</ele>
        <time>2014-07-19T11:34:30Z</time>
      </trkpt>
      <trkpt lat="45.779077783226967" lon="6.887416625395417">
        <ele>1858.3699999999999</ele>
        <time>2014-07-19T11:34:45Z</time>
      </trkpt>
      <trkpt lat="45.779146598652005" lon="6.887623071670532">
        <ele>1855.96</ele>
        <time>2014-07-19T11:34:58Z</time>
      </trkpt>
      <trkpt lat="45.779154310002923" lon="6.887643774971366">
        <ele>1855.96</ele>
        <time>2014-07-19T11:34:59Z</time>
      </trkpt>
      <trkpt lat="45.779160847887397" lon="6.887660454958677">
        <ele>1855.48</ele>
        <time>2014-07-19T11:35:00Z</time>
      </trkpt>
      <trkpt lat="45.77916344627738" lon="6.887674536556006">
        <ele>1855.48</ele>
        <time>2014-07-19T11:35:01Z</time>
      </trkpt>
      <trkpt lat="45.779170654714108" lon="6.887688366696239">
        <ele>1855.48</ele>
        <time>2014-07-19T11:35:02Z</time>
      </trkpt>
      <trkpt lat="45.779175348579884" lon="6.887702783569694">
        <ele>1855.96</ele>
        <time>2014-07-19T11:35:03Z</time>
      </trkpt>
      <trkpt lat="45.779178282245994" lon="6.887719882652164">
        <ele>1855</ele>
        <time>2014-07-19T11:35:04Z</time>
      </trkpt>
      <trkpt lat="45.779181718826294" lon="6.887736143544316">
        <ele>1854.52</ele>
        <time>2014-07-19T11:35:05Z</time>
      </trkpt>
      <trkpt lat="45.77918590977788" lon="6.887752907350659">
        <ele>1854.52</ele>
        <time>2014-07-19T11:35:06Z</time>
      </trkpt>
      <trkpt lat="45.7791917771101" lon="6.887771598994732">
        <ele>1854.04</ele>
        <time>2014-07-19T11:35:07Z</time>
      </trkpt>
      <trkpt lat="45.779298897832632" lon="6.887991288676858">
        <ele>1851.1600000000001</ele>
        <time>2014-07-19T11:35:21Z</time>
      </trkpt>
      <trkpt lat="45.779358996078372" lon="6.88810863532126">
        <ele>1849.71</ele>
        <time>2014-07-19T11:35:29Z</time>
      </trkpt>
      <trkpt lat="45.779364025220275" lon="6.888127159327269">
        <ele>1849.23</ele>
        <time>2014-07-19T11:35:30Z</time>
      </trkpt>
      <trkpt lat="45.779369892552495" lon="6.888144593685865">
        <ele>1849.23</ele>
        <time>2014-07-19T11:35:31Z</time>
      </trkpt>
      <trkpt lat="45.779394870623946" lon="6.888227323070169">
        <ele>1848.27</ele>
        <time>2014-07-19T11:35:36Z</time>
      </trkpt>
      <trkpt lat="45.7793989777565" lon="6.88824500888586">
        <ele>1848.27</ele>
        <time>2014-07-19T11:35:37Z</time>
      </trkpt>
      <trkpt lat="45.779405096545815" lon="6.888259509578347">
        <ele>1847.79</ele>
        <time>2014-07-19T11:35:38Z</time>
      </trkpt>
      <trkpt lat="45.779448598623276" lon="6.888447012752295">
        <ele>1845.8699999999999</ele>
        <time>2014-07-19T11:35:48Z</time>
      </trkpt>
      <trkpt lat="45.779454549774528" lon="6.888464698567987">
        <ele>1845.3900000000001</ele>
        <time>2014-07-19T11:35:49Z</time>
      </trkpt>
      <trkpt lat="45.779470559209585" lon="6.888517588376999">
        <ele>1844.9100000000001</ele>
        <time>2014-07-19T11:35:52Z</time>
      </trkpt>
      <trkpt lat="45.779475504532456" lon="6.88853619620204">
        <ele>1844.9100000000001</ele>
        <time>2014-07-19T11:35:53Z</time>
      </trkpt>
      <trkpt lat="45.779522191733122" lon="6.888764016330242">
        <ele>1842.98</ele>
        <time>2014-07-19T11:36:06Z</time>
      </trkpt>
      <trkpt lat="45.779542978852987" lon="6.888837106525898">
        <ele>1841.54</ele>
        <time>2014-07-19T11:36:11Z</time>
      </trkpt>
      <trkpt lat="45.779574578627944" lon="6.888994853943586">
        <ele>1839.6199999999999</ele>
        <time>2014-07-19T11:36:20Z</time>
      </trkpt>
      <trkpt lat="45.779644483700395" lon="6.889229882508516">
        <ele>1837.22</ele>
        <time>2014-07-19T11:36:34Z</time>
      </trkpt>
      <trkpt lat="45.779698798432946" lon="6.889412691816688">
        <ele>1835.29</ele>
        <time>2014-07-19T11:36:45Z</time>
      </trkpt>
      <trkpt lat="45.779700558632612" lon="6.889434233307838">
        <ele>1834.8099999999999</ele>
        <time>2014-07-19T11:36:46Z</time>
      </trkpt>
      <trkpt lat="45.77976543456316" lon="6.889567757025361">
        <ele>1832.8900000000001</ele>
        <time>2014-07-19T11:36:55Z</time>
      </trkpt>
      <trkpt lat="45.779772726818919" lon="6.889586364850402">
        <ele>1832.4100000000001</ele>
        <time>2014-07-19T11:36:56Z</time>
      </trkpt>
      <trkpt lat="45.779891246929765" lon="6.88981737010181">
        <ele>1829.53</ele>
        <time>2014-07-19T11:37:11Z</time>
      </trkpt>
      <trkpt lat="45.780038265511394" lon="6.889980230480433">
        <ele>1826.6400000000001</ele>
        <time>2014-07-19T11:37:25Z</time>
      </trkpt>
      <trkpt lat="45.780063075944781" lon="6.890001185238361">
        <ele>1826.1600000000001</ele>
        <time>2014-07-19T11:37:27Z</time>
      </trkpt>
      <trkpt lat="45.780070787295699" lon="6.890016188845038">
        <ele>1826.1600000000001</ele>
        <time>2014-07-19T11:37:28Z</time>
      </trkpt>
      <trkpt lat="45.780077911913395" lon="6.890034042298794">
        <ele>1826.1600000000001</ele>
        <time>2014-07-19T11:37:29Z</time>
      </trkpt>
      <trkpt lat="45.780090233311057" lon="6.890064971521497">
        <ele>1825.6800000000001</ele>
        <time>2014-07-19T11:37:31Z</time>
      </trkpt>
      <trkpt lat="45.780223589390516" lon="6.890262449160218">
        <ele>1823.28</ele>
        <time>2014-07-19T11:37:46Z</time>
      </trkpt>
      <trkpt lat="45.780303217470646" lon="6.890490604564548">
        <ele>1821.3499999999999</ele>
        <time>2014-07-19T11:38:00Z</time>
      </trkpt>
      <trkpt lat="45.780311264097691" lon="6.890504267066717">
        <ele>1820.8699999999999</ele>
        <time>2014-07-19T11:38:01Z</time>
      </trkpt>
      <trkpt lat="45.780324088409543" lon="6.890529580414295">
        <ele>1820.8699999999999</ele>
        <time>2014-07-19T11:38:03Z</time>
      </trkpt>
      <trkpt lat="45.78033029101789" lon="6.890545673668385">
        <ele>1820.3900000000001</ele>
        <time>2014-07-19T11:38:04Z</time>
      </trkpt>
      <trkpt lat="45.780464988201857" lon="6.890773326158524">
        <ele>1817.51</ele>
        <time>2014-07-19T11:38:20Z</time>
      </trkpt>
      <trkpt lat="45.780534893274307" lon="6.890874914824963">
        <ele>1817.03</ele>
        <time>2014-07-19T11:38:28Z</time>
      </trkpt>
      <trkpt lat="45.780548471957445" lon="6.890889834612608">
        <ele>1817.03</ele>
        <time>2014-07-19T11:38:29Z</time>
      </trkpt>
      <trkpt lat="45.780679564923048" lon="6.89109904691577">
        <ele>1814.6300000000001</ele>
        <time>2014-07-19T11:38:45Z</time>
      </trkpt>
      <trkpt lat="45.780690545216203" lon="6.891107177361846">
        <ele>1814.1500000000001</ele>
        <time>2014-07-19T11:38:46Z</time>
      </trkpt>
      <trkpt lat="45.780703034251928" lon="6.891114804893732">
        <ele>1814.1500000000001</ele>
        <time>2014-07-19T11:38:47Z</time>
      </trkpt>
      <trkpt lat="45.780712589621544" lon="6.891124024987221">
        <ele>1814.1500000000001</ele>
        <time>2014-07-19T11:38:48Z</time>
      </trkpt>
      <trkpt lat="45.780720384791493" lon="6.891138525679708">
        <ele>1813.6600000000001</ele>
        <time>2014-07-19T11:38:49Z</time>
      </trkpt>
      <trkpt lat="45.780727760866284" lon="6.89115428365767">
        <ele>1813.6600000000001</ele>
        <time>2014-07-19T11:38:50Z</time>
      </trkpt>
      <trkpt lat="45.780736226588488" lon="6.891171466559172">
        <ele>1813.6600000000001</ele>
        <time>2014-07-19T11:38:51Z</time>
      </trkpt>
      <trkpt lat="45.780744021758437" lon="6.891188398003578">
        <ele>1813.1800000000001</ele>
        <time>2014-07-19T11:38:52Z</time>
      </trkpt>
      <trkpt lat="45.780908977612853" lon="6.891413368284702">
        <ele>1810.3</ele>
        <time>2014-07-19T11:39:10Z</time>
      </trkpt>
      <trkpt lat="45.780958347022533" lon="6.891504479572177">
        <ele>1808.8599999999999</ele>
        <time>2014-07-19T11:39:16Z</time>
      </trkpt>
      <trkpt lat="45.780989108607173" lon="6.891543958336115">
        <ele>1808.3800000000001</ele>
        <time>2014-07-19T11:39:20Z</time>
      </trkpt>
      <trkpt lat="45.781000172719359" lon="6.891557369381189">
        <ele>1808.3800000000001</ele>
        <time>2014-07-19T11:39:21Z</time>
      </trkpt>
      <trkpt lat="45.78100897371769" lon="6.891574468463659">
        <ele>1808.3800000000001</ele>
        <time>2014-07-19T11:39:22Z</time>
      </trkpt>
      <trkpt lat="45.781016685068607" lon="6.891591064631939">
        <ele>1807.9000000000001</ele>
        <time>2014-07-19T11:39:23Z</time>
      </trkpt>
      <trkpt lat="45.78102464787662" lon="6.891608582809568">
        <ele>1807.9000000000001</ele>
        <time>2014-07-19T11:39:24Z</time>
      </trkpt>
      <trkpt lat="45.781032191589475" lon="6.891625765711069">
        <ele>1807.9000000000001</ele>
        <time>2014-07-19T11:39:25Z</time>
      </trkpt>
      <trkpt lat="45.781039651483297" lon="6.891640098765492">
        <ele>1807.9000000000001</ele>
        <time>2014-07-19T11:39:26Z</time>
      </trkpt>
      <trkpt lat="45.781094385311007" lon="6.891710506752133">
        <ele>1806.9400000000001</ele>
        <time>2014-07-19T11:39:32Z</time>
      </trkpt>
      <trkpt lat="45.781100923195481" lon="6.891726264730096">
        <ele>1806.45</ele>
        <time>2014-07-19T11:39:33Z</time>
      </trkpt>
      <trkpt lat="45.78110670670867" lon="6.891742777079344">
        <ele>1806.45</ele>
        <time>2014-07-19T11:39:34Z</time>
      </trkpt>
      <trkpt lat="45.781112154945731" lon="6.891755936667323">
        <ele>1806.45</ele>
        <time>2014-07-19T11:39:35Z</time>
      </trkpt>
      <trkpt lat="45.781117687001824" lon="6.891773538663983">
        <ele>1805.97</ele>
        <time>2014-07-19T11:39:36Z</time>
      </trkpt>
      <trkpt lat="45.781125398352742" lon="6.89178703352809">
        <ele>1805.97</ele>
        <time>2014-07-19T11:39:37Z</time>
      </trkpt>
      <trkpt lat="45.781133864074945" lon="6.89179977402091">
        <ele>1805.97</ele>
        <time>2014-07-19T11:39:38Z</time>
      </trkpt>
      <trkpt lat="45.781142665073276" lon="6.891812011599541">
        <ele>1805.97</ele>
        <time>2014-07-19T11:39:39Z</time>
      </trkpt>
      <trkpt lat="45.781228160485625" lon="6.892029186710715">
        <ele>1803.5699999999999</ele>
        <time>2014-07-19T11:39:53Z</time>
      </trkpt>
      <trkpt lat="45.781229250133038" lon="6.892047040164471">
        <ele>1803.5699999999999</ele>
        <time>2014-07-19T11:39:54Z</time>
      </trkpt>
      <trkpt lat="45.781277362257242" lon="6.892175870016217">
        <ele>1802.1300000000001</ele>
        <time>2014-07-19T11:40:02Z</time>
      </trkpt>
      <trkpt lat="45.781354056671262" lon="6.892445599660277">
        <ele>1799.73</ele>
        <time>2014-07-19T11:40:19Z</time>
      </trkpt>
      <trkpt lat="45.781353050842881" lon="6.892458172515035">
        <ele>1799.73</ele>
        <time>2014-07-19T11:40:33Z</time>
      </trkpt>
      <trkpt lat="45.781345590949059" lon="6.892477031797171">
        <ele>1799.73</ele>
        <time>2014-07-19T11:40:43Z</time>
      </trkpt>
      <trkpt lat="45.781440306454897" lon="6.892691608518362">
        <ele>1797.3199999999999</ele>
        <time>2014-07-19T11:40:56Z</time>
      </trkpt>
      <trkpt lat="45.781522449105978" lon="6.8928537145257">
        <ele>1796.3599999999999</ele>
        <time>2014-07-19T11:41:06Z</time>
      </trkpt>
      <trkpt lat="45.781533513218164" lon="6.892872238531709">
        <ele>1795.4000000000001</ele>
        <time>2014-07-19T11:41:07Z</time>
      </trkpt>
      <trkpt lat="45.781543906778097" lon="6.892886823043227">
        <ele>1794.9200000000001</ele>
        <time>2014-07-19T11:41:08Z</time>
      </trkpt>
      <trkpt lat="45.781554467976093" lon="6.892902078106999">
        <ele>1794.4400000000001</ele>
        <time>2014-07-19T11:41:09Z</time>
      </trkpt>
      <trkpt lat="45.781563520431519" lon="6.892918255180121">
        <ele>1794.4400000000001</ele>
        <time>2014-07-19T11:41:10Z</time>
      </trkpt>
      <trkpt lat="45.781571147963405" lon="6.89293191768229">
        <ele>1793.96</ele>
        <time>2014-07-19T11:41:11Z</time>
      </trkpt>
      <trkpt lat="45.78162076883018" lon="6.893017999827862">
        <ele>1793</ele>
        <time>2014-07-19T11:41:17Z</time>
      </trkpt>
      <trkpt lat="45.781627725809813" lon="6.89303451217711">
        <ele>1792.52</ele>
        <time>2014-07-19T11:41:18Z</time>
      </trkpt>
      <trkpt lat="45.781636526808143" lon="6.893050270155072">
        <ele>1792.52</ele>
        <time>2014-07-19T11:41:19Z</time>
      </trkpt>
      <trkpt lat="45.781646920368075" lon="6.893066866323352">
        <ele>1792.52</ele>
        <time>2014-07-19T11:41:20Z</time>
      </trkpt>
      <trkpt lat="45.781656978651881" lon="6.893082037568092">
        <ele>1792.03</ele>
        <time>2014-07-19T11:41:21Z</time>
      </trkpt>
      <trkpt lat="45.781667791306973" lon="6.893098633736372">
        <ele>1792.03</ele>
        <time>2014-07-19T11:41:22Z</time>
      </trkpt>
      <trkpt lat="45.781678017228842" lon="6.893113721162081">
        <ele>1791.55</ele>
        <time>2014-07-19T11:41:23Z</time>
      </trkpt>
      <trkpt lat="45.781686650589108" lon="6.893127970397472">
        <ele>1791.55</ele>
        <time>2014-07-19T11:41:24Z</time>
      </trkpt>
      <trkpt lat="45.781693356111646" lon="6.893143225461245">
        <ele>1791.0699999999999</ele>
        <time>2014-07-19T11:41:25Z</time>
      </trkpt>
      <trkpt lat="45.781699223443866" lon="6.893159486353397">
        <ele>1791.0699999999999</ele>
        <time>2014-07-19T11:41:26Z</time>
      </trkpt>
      <trkpt lat="45.781707437708974" lon="6.893175579607487">
        <ele>1790.5899999999999</ele>
        <time>2014-07-19T11:41:27Z</time>
      </trkpt>
      <trkpt lat="45.781719172373414" lon="6.893191756680608">
        <ele>1790.5899999999999</ele>
        <time>2014-07-19T11:41:28Z</time>
      </trkpt>
      <trkpt lat="45.781726380810142" lon="6.893208855763078">
        <ele>1790.1099999999999</ele>
        <time>2014-07-19T11:41:29Z</time>
      </trkpt>
      <trkpt lat="45.781740713864565" lon="6.893219752237201">
        <ele>1790.1099999999999</ele>
        <time>2014-07-19T11:41:30Z</time>
      </trkpt>
      <trkpt lat="45.781752616167068" lon="6.893234001472592">
        <ele>1789.6300000000001</ele>
        <time>2014-07-19T11:41:31Z</time>
      </trkpt>
      <trkpt lat="45.781830484047532" lon="6.893373392522335">
        <ele>1787.71</ele>
        <time>2014-07-19T11:41:40Z</time>
      </trkpt>
      <trkpt lat="45.781836938112974" lon="6.893389150500298">
        <ele>1787.71</ele>
        <time>2014-07-19T11:41:41Z</time>
      </trkpt>
      <trkpt lat="45.781845655292273" lon="6.893403651192784">
        <ele>1787.23</ele>
        <time>2014-07-19T11:41:42Z</time>
      </trkpt>
      <trkpt lat="45.781855629757047" lon="6.893420750275254">
        <ele>1787.23</ele>
        <time>2014-07-19T11:41:43Z</time>
      </trkpt>
      <trkpt lat="45.781864766031504" lon="6.893436843529344">
        <ele>1787.23</ele>
        <time>2014-07-19T11:41:44Z</time>
      </trkpt>
      <trkpt lat="45.781874237582088" lon="6.893453355878592">
        <ele>1786.75</ele>
        <time>2014-07-19T11:41:45Z</time>
      </trkpt>
      <trkpt lat="45.781884463503957" lon="6.893469532951713">
        <ele>1786.27</ele>
        <time>2014-07-19T11:41:46Z</time>
      </trkpt>
      <trkpt lat="45.78189636580646" lon="6.893484285101295">
        <ele>1786.27</ele>
        <time>2014-07-19T11:41:47Z</time>
      </trkpt>
      <trkpt lat="45.781923774629831" lon="6.893524266779423">
        <ele>1785.79</ele>
        <time>2014-07-19T11:41:50Z</time>
      </trkpt>
      <trkpt lat="45.78193249180913" lon="6.893538516014814">
        <ele>1785.3099999999999</ele>
        <time>2014-07-19T11:41:51Z</time>
      </trkpt>
      <trkpt lat="45.781944980844855" lon="6.893552262336016">
        <ele>1785.3099999999999</ele>
        <time>2014-07-19T11:41:52Z</time>
      </trkpt>
      <trkpt lat="45.782076492905617" lon="6.893675224855542">
        <ele>1782.4200000000001</ele>
        <time>2014-07-19T11:42:03Z</time>
      </trkpt>
      <trkpt lat="45.782148409634829" lon="6.893734401091933">
        <ele>1781.9400000000001</ele>
        <time>2014-07-19T11:42:09Z</time>
      </trkpt>
      <trkpt lat="45.782181769609451" lon="6.893755774945021">
        <ele>1780.5</ele>
        <time>2014-07-19T11:42:12Z</time>
      </trkpt>
      <trkpt lat="45.78218805603683" lon="6.893774047493935">
        <ele>1780.02</ele>
        <time>2014-07-19T11:42:13Z</time>
      </trkpt>
      <trkpt lat="45.782194929197431" lon="6.893793158233166">
        <ele>1780.02</ele>
        <time>2014-07-19T11:42:14Z</time>
      </trkpt>
      <trkpt lat="45.782290566712618" lon="6.893878234550357">
        <ele>1778.0999999999999</ele>
        <time>2014-07-19T11:42:22Z</time>
      </trkpt>
      <trkpt lat="45.782348569482565" lon="6.89392332918942">
        <ele>1777.1300000000001</ele>
        <time>2014-07-19T11:42:27Z</time>
      </trkpt>
      <trkpt lat="45.782359801232815" lon="6.893934980034828">
        <ele>1776.6500000000001</ele>
        <time>2014-07-19T11:42:28Z</time>
      </trkpt>
      <trkpt lat="45.78237178735435" lon="6.893946966156364">
        <ele>1776.6500000000001</ele>
        <time>2014-07-19T11:42:29Z</time>
      </trkpt>
      <trkpt lat="45.782459797337651" lon="6.89402936026454">
        <ele>1774.73</ele>
        <time>2014-07-19T11:42:36Z</time>
      </trkpt>
      <trkpt lat="45.782630369067192" lon="6.894176881760359">
        <ele>1771.8499999999999</ele>
        <time>2014-07-19T11:42:51Z</time>
      </trkpt>
      <trkpt lat="45.782647468149662" lon="6.894204039126635">
        <ele>1771.3699999999999</ele>
        <time>2014-07-19T11:42:53Z</time>
      </trkpt>
      <trkpt lat="45.782659538090229" lon="6.894217198714614">
        <ele>1770.8900000000001</ele>
        <time>2014-07-19T11:42:54Z</time>
      </trkpt>
      <trkpt lat="45.782825667411089" lon="6.894373688846827">
        <ele>1768</ele>
        <time>2014-07-19T11:43:11Z</time>
      </trkpt>
      <trkpt lat="45.782833211123943" lon="6.894380645826459">
        <ele>1768</ele>
        <time>2014-07-19T11:43:12Z</time>
      </trkpt>
      <trkpt lat="45.782838659361005" lon="6.894401768222451">
        <ele>1767.52</ele>
        <time>2014-07-19T11:43:13Z</time>
      </trkpt>
      <trkpt lat="45.782846286892891" lon="6.894420962780714">
        <ele>1767.52</ele>
        <time>2014-07-19T11:43:14Z</time>
      </trkpt>
      <trkpt lat="45.782854165881872" lon="6.894440827891231">
        <ele>1767.52</ele>
        <time>2014-07-19T11:43:15Z</time>
      </trkpt>
      <trkpt lat="45.782864056527615" lon="6.894457675516605">
        <ele>1767.04</ele>
        <time>2014-07-19T11:43:16Z</time>
      </trkpt>
      <trkpt lat="45.782874701544642" lon="6.894472427666187">
        <ele>1767.04</ele>
        <time>2014-07-19T11:43:17Z</time>
      </trkpt>
      <trkpt lat="45.782882748171687" lon="6.894491873681545">
        <ele>1766.5599999999999</ele>
        <time>2014-07-19T11:43:18Z</time>
      </trkpt>
      <trkpt lat="45.78288970515132" lon="6.894507547840476">
        <ele>1766.5599999999999</ele>
        <time>2014-07-19T11:43:19Z</time>
      </trkpt>
      <trkpt lat="45.783023647964001" lon="6.894702594727278">
        <ele>1764.1600000000001</ele>
        <time>2014-07-19T11:43:33Z</time>
      </trkpt>
      <trkpt lat="45.783157674595714" lon="6.894875261932612">
        <ele>1762.23</ele>
        <time>2014-07-19T11:43:47Z</time>
      </trkpt>
      <trkpt lat="45.783338891342282" lon="6.895102243870497">
        <ele>1759.3499999999999</ele>
        <time>2014-07-19T11:44:05Z</time>
      </trkpt>
      <trkpt lat="45.783402258530259" lon="6.89519913867116">
        <ele>1757.9100000000001</ele>
        <time>2014-07-19T11:44:12Z</time>
      </trkpt>
      <trkpt lat="45.783384656533599" lon="6.895291758701205">
        <ele>1755.5</ele>
        <time>2014-07-19T11:44:22Z</time>
      </trkpt>
      <trkpt lat="45.783391781151295" lon="6.895365854725242">
        <ele>1753.5799999999999</ele>
        <time>2014-07-19T11:44:26Z</time>
      </trkpt>
      <trkpt lat="45.783391026780009" lon="6.895378259941936">
        <ele>1753.0999999999999</ele>
        <time>2014-07-19T11:44:27Z</time>
      </trkpt>
      <trkpt lat="45.783376693725586" lon="6.895428216084838">
        <ele>1752.1400000000001</ele>
        <time>2014-07-19T11:44:30Z</time>
      </trkpt>
      <trkpt lat="45.783318523317575" lon="6.895503401756287">
        <ele>1750.7</ele>
        <time>2014-07-19T11:44:41Z</time>
      </trkpt>
      <trkpt lat="45.783319277688861" lon="6.895512621849775">
        <ele>1750.22</ele>
        <time>2014-07-19T11:44:42Z</time>
      </trkpt>
      <trkpt lat="45.7833172660321" lon="6.895529218018055">
        <ele>1749.74</ele>
        <time>2014-07-19T11:44:51Z</time>
      </trkpt>
      <trkpt lat="45.783323720097542" lon="6.895536510273814">
        <ele>1749.74</ele>
        <time>2014-07-19T11:44:52Z</time>
      </trkpt>
      <trkpt lat="45.78336370177567" lon="6.895629297941923">
        <ele>1747.3299999999999</ele>
        <time>2014-07-19T11:45:05Z</time>
      </trkpt>
      <trkpt lat="45.783368647098541" lon="6.895715463906527">
        <ele>1744.45</ele>
        <time>2014-07-19T11:45:13Z</time>
      </trkpt>
      <trkpt lat="45.783354062587023" lon="6.8957634922117">
        <ele>1743.01</ele>
        <time>2014-07-19T11:45:16Z</time>
      </trkpt>
      <trkpt lat="45.783351045101881" lon="6.895806826651096">
        <ele>1740.5999999999999</ele>
        <time>2014-07-19T11:45:21Z</time>
      </trkpt>
      <trkpt lat="45.783348949626088" lon="6.895816046744585">
        <ele>1740.1199999999999</ele>
        <time>2014-07-19T11:45:23Z</time>
      </trkpt>
      <trkpt lat="45.783349703997374" lon="6.895853010937572">
        <ele>1739.1600000000001</ele>
        <time>2014-07-19T11:45:25Z</time>
      </trkpt>
      <trkpt lat="45.783356493338943" lon="6.895914785563946">
        <ele>1737.72</ele>
        <time>2014-07-19T11:45:28Z</time>
      </trkpt>
      <trkpt lat="45.7833207026124" lon="6.895977230742574">
        <ele>1734.3599999999999</ele>
        <time>2014-07-19T11:45:39Z</time>
      </trkpt>
      <trkpt lat="45.783286588266492" lon="6.895987456664443">
        <ele>1732.9100000000001</ele>
        <time>2014-07-19T11:45:50Z</time>
      </trkpt>
      <trkpt lat="45.783340651541948" lon="6.895946972072125">
        <ele>1732.4300000000001</ele>
        <time>2014-07-19T11:46:12Z</time>
      </trkpt>
      <trkpt lat="45.783308884128928" lon="6.895962646231055">
        <ele>1731.95</ele>
        <time>2014-07-19T11:46:29Z</time>
      </trkpt>
      <trkpt lat="45.783293629065156" lon="6.895932974293828">
        <ele>1731.95</ele>
        <time>2014-07-19T11:46:57Z</time>
      </trkpt>
      <trkpt lat="45.783294886350632" lon="6.895977649837732">
        <ele>1731.95</ele>
        <time>2014-07-19T11:47:04Z</time>
      </trkpt>
      <trkpt lat="45.783315505832434" lon="6.895909085869789">
        <ele>1732.4300000000001</ele>
        <time>2014-07-19T11:47:16Z</time>
      </trkpt>
      <trkpt lat="45.783386416733265" lon="6.896020984277129">
        <ele>1731.95</ele>
        <time>2014-07-19T11:47:30Z</time>
      </trkpt>
      <trkpt lat="45.783456489443779" lon="6.896123494952917">
        <ele>1730.51</ele>
        <time>2014-07-19T11:47:40Z</time>
      </trkpt>
      <trkpt lat="45.783556737005711" lon="6.896308232098818">
        <ele>1728.5899999999999</ele>
        <time>2014-07-19T11:47:54Z</time>
      </trkpt>
      <trkpt lat="45.783601915463805" lon="6.896351901814342">
        <ele>1727.6300000000001</ele>
        <time>2014-07-19T11:47:59Z</time>
      </trkpt>
      <trkpt lat="45.783608118072152" lon="6.89636304974556">
        <ele>1727.1500000000001</ele>
        <time>2014-07-19T11:48:00Z</time>
      </trkpt>
      <trkpt lat="45.78372722491622" lon="6.896475031971932">
        <ele>1725.7</ele>
        <time>2014-07-19T11:48:13Z</time>
      </trkpt>
      <trkpt lat="45.78378438949585" lon="6.896608639508486">
        <ele>1724.26</ele>
        <time>2014-07-19T11:48:25Z</time>
      </trkpt>
      <trkpt lat="45.783761339262128" lon="6.896666390821338">
        <ele>1724.26</ele>
        <time>2014-07-19T11:48:45Z</time>
      </trkpt>
      <trkpt lat="45.783771732822061" lon="6.896629678085446">
        <ele>1723.78</ele>
        <time>2014-07-19T11:49:00Z</time>
      </trkpt>
      <trkpt lat="45.783775001764297" lon="6.896620206534863">
        <ele>1723.78</ele>
        <time>2014-07-19T11:49:20Z</time>
      </trkpt>
      <trkpt lat="45.783809283748269" lon="6.896707210689783">
        <ele>1723.78</ele>
        <time>2014-07-19T11:49:46Z</time>
      </trkpt>
      <trkpt lat="45.783866113051772" lon="6.896727913990617">
        <ele>1722.8199999999999</ele>
        <time>2014-07-19T11:49:58Z</time>
      </trkpt>
      <trkpt lat="45.783881368115544" lon="6.896942239254713">
        <ele>1720.9000000000001</ele>
        <time>2014-07-19T11:50:13Z</time>
      </trkpt>
      <trkpt lat="45.78388849273324" lon="6.896992195397615">
        <ele>1719.9400000000001</ele>
        <time>2014-07-19T11:50:16Z</time>
      </trkpt>
      <trkpt lat="45.78388899564743" lon="6.897227810695767">
        <ele>1717.53</ele>
        <time>2014-07-19T11:50:31Z</time>
      </trkpt>
      <trkpt lat="45.783888744190335" lon="6.897273324429989">
        <ele>1717.53</ele>
        <time>2014-07-19T11:50:41Z</time>
      </trkpt>
      <trkpt lat="45.783925959840417" lon="6.897311126813293">
        <ele>1716.5699999999999</ele>
        <time>2014-07-19T11:50:59Z</time>
      </trkpt>
      <trkpt lat="45.784009946510196" lon="6.89749963581562">
        <ele>1714.1700000000001</ele>
        <time>2014-07-19T11:51:14Z</time>
      </trkpt>
      <trkpt lat="45.784070882946253" lon="6.897683367133141">
        <ele>1712.25</ele>
        <time>2014-07-19T11:51:26Z</time>
      </trkpt>
      <trkpt lat="45.78414548188448" lon="6.897802976891398">
        <ele>1710.3199999999999</ele>
        <time>2014-07-19T11:51:39Z</time>
      </trkpt>
      <trkpt lat="45.784245226532221" lon="6.898073041811585">
        <ele>1706.96</ele>
        <time>2014-07-19T11:51:55Z</time>
      </trkpt>
      <trkpt lat="45.784391574561596" lon="6.898275213316083">
        <ele>1704.0699999999999</ele>
        <time>2014-07-19T11:52:11Z</time>
      </trkpt>
      <trkpt lat="45.784557871520519" lon="6.898459028452635">
        <ele>1701.1900000000001</ele>
        <time>2014-07-19T11:52:27Z</time>
      </trkpt>
      <trkpt lat="45.784709583967924" lon="6.898693386465311">
        <ele>1697.8299999999999</ele>
        <time>2014-07-19T11:52:43Z</time>
      </trkpt>
      <trkpt lat="45.7847919780761" lon="6.898824144154787">
        <ele>1696.3800000000001</ele>
        <time>2014-07-19T11:52:53Z</time>
      </trkpt>
      <trkpt lat="45.78489457257092" lon="6.898916931822896">
        <ele>1695.4200000000001</ele>
        <time>2014-07-19T11:53:02Z</time>
      </trkpt>
      <trkpt lat="45.785049302503467" lon="6.899026818573475">
        <ele>1693.98</ele>
        <time>2014-07-19T11:53:16Z</time>
      </trkpt>
      <trkpt lat="45.785234458744526" lon="6.899148859083653">
        <ele>1691.5799999999999</ele>
        <time>2014-07-19T11:53:31Z</time>
      </trkpt>
      <trkpt lat="45.785408467054367" lon="6.899310126900673">
        <ele>1689.6500000000001</ele>
        <time>2014-07-19T11:53:46Z</time>
      </trkpt>
      <trkpt lat="45.785463452339172" lon="6.899381875991821">
        <ele>1689.1700000000001</ele>
        <time>2014-07-19T11:53:58Z</time>
      </trkpt>
      <trkpt lat="45.785518269985914" lon="6.899685971438885">
        <ele>1689.1700000000001</ele>
        <time>2014-07-19T11:54:16Z</time>
      </trkpt>
      <trkpt lat="45.785566717386246" lon="6.899911276996136">
        <ele>1688.6900000000001</ele>
        <time>2014-07-19T11:54:31Z</time>
      </trkpt>
      <trkpt lat="45.785575686022639" lon="6.899937679991126">
        <ele>1688.6900000000001</ele>
        <time>2014-07-19T11:54:33Z</time>
      </trkpt>
      <trkpt lat="45.785641735419631" lon="6.900162985548377">
        <ele>1688.6900000000001</ele>
        <time>2014-07-19T11:54:47Z</time>
      </trkpt>
      <trkpt lat="45.78574919141829" lon="6.900290977209806">
        <ele>1687.73</ele>
        <time>2014-07-19T11:55:02Z</time>
      </trkpt>
      <trkpt lat="45.785811468958855" lon="6.900348979979754">
        <ele>1687.73</ele>
        <time>2014-07-19T11:55:16Z</time>
      </trkpt>
      <trkpt lat="45.785811468958855" lon="6.900449898093939">
        <ele>1687.73</ele>
        <time>2014-07-19T11:55:30Z</time>
      </trkpt>
      <trkpt lat="45.785764278843999" lon="6.900412430986762">
        <ele>1687.25</ele>
        <time>2014-07-19T11:55:50Z</time>
      </trkpt>
      <trkpt lat="45.785713149234653" lon="6.900289887562394">
        <ele>1687.25</ele>
        <time>2014-07-19T11:56:04Z</time>
      </trkpt>
      <trkpt lat="45.78551315702498" lon="6.900352416560054">
        <ele>1686.77</ele>
        <time>2014-07-19T11:56:30Z</time>
      </trkpt>
    </trkseg>
  </trk>

</gpx>